﻿<?xml version="1.0" encoding="utf-8"?><gpx creator="Garmin Desktop App" version="1.1" xsi:schemaLocation="http://www.topografix.com/GPX/1/1 http://www.topografix.com/GPX/1/1/gpx.xsd http://www.garmin.com/xmlschemas/WaypointExtension/v1 http://www8.garmin.com/xmlschemas/WaypointExtensionv1.xsd http://www.garmin.com/xmlschemas/TrackPointExtension/v1 http://www.garmin.com/xmlschemas/TrackPointExtensionv1.xsd http://www.garmin.com/xmlschemas/GpxExtensions/v3 http://www8.garmin.com/xmlschemas/GpxExtensionsv3.xsd http://www.garmin.com/xmlschemas/ActivityExtension/v1 http://www8.garmin.com/xmlschemas/ActivityExtensionv1.xsd http://www.garmin.com/xmlschemas/AdventuresExtensions/v1 http://www8.garmin.com/xmlschemas/AdventuresExtensionv1.xsd http://www.garmin.com/xmlschemas/PressureExtension/v1 http://www.garmin.com/xmlschemas/PressureExtensionv1.xsd http://www.garmin.com/xmlschemas/TripExtensions/v1 http://www.garmin.com/xmlschemas/TripExtensionsv1.xsd http://www.garmin.com/xmlschemas/TripMetaDataExtensions/v1 http://www.garmin.com/xmlschemas/TripMetaDataExtensionsv1.xsd http://www.garmin.com/xmlschemas/ViaPointTransportationModeExtensions/v1 http://www.garmin.com/xmlschemas/ViaPointTransportationModeExtensionsv1.xsd http://www.garmin.com/xmlschemas/CreationTimeExtension/v1 http://www.garmin.com/xmlschemas/CreationTimeExtensionsv1.xsd http://www.garmin.com/xmlschemas/AccelerationExtension/v1 http://www.garmin.com/xmlschemas/AccelerationExtensionv1.xsd http://www.garmin.com/xmlschemas/PowerExtension/v1 http://www.garmin.com/xmlschemas/PowerExtensionv1.xsd http://www.garmin.com/xmlschemas/VideoExtension/v1 http://www.garmin.com/xmlschemas/VideoExtensionv1.xsd" xmlns="http://www.topografix.com/GPX/1/1" xmlns:xsi="http://www.w3.org/2001/XMLSchema-instance" xmlns:wptx1="http://www.garmin.com/xmlschemas/WaypointExtension/v1" xmlns:gpxtrx="http://www.garmin.com/xmlschemas/GpxExtensions/v3" xmlns:gpxtpx="http://www.garmin.com/xmlschemas/TrackPointExtension/v1" xmlns:gpxx="http://www.garmin.com/xmlschemas/GpxExtensions/v3" xmlns:trp="http://www.garmin.com/xmlschemas/TripExtensions/v1" xmlns:adv="http://www.garmin.com/xmlschemas/AdventuresExtensions/v1" xmlns:prs="http://www.garmin.com/xmlschemas/PressureExtension/v1" xmlns:tmd="http://www.garmin.com/xmlschemas/TripMetaDataExtensions/v1" xmlns:vptm="http://www.garmin.com/xmlschemas/ViaPointTransportationModeExtensions/v1" xmlns:ctx="http://www.garmin.com/xmlschemas/CreationTimeExtension/v1" xmlns:gpxacc="http://www.garmin.com/xmlschemas/AccelerationExtension/v1" xmlns:gpxpx="http://www.garmin.com/xmlschemas/PowerExtension/v1" xmlns:vidx1="http://www.garmin.com/xmlschemas/VideoExtension/v1">

  <metadata>
    <link href="http://www.garmin.com">
      <text>Garmin International</text>
    </link>
    <time>2025-05-16T19:45:09Z</time>
    <bounds maxlat="43.954982031136751" maxlon="4.632561039179564" minlat="42.702118009328842" minlon="2.894753040745854" />
  </metadata>

  <trk>
    <name>250516_G_Track</name>
    <extensions>
      <gpxx:TrackExtension>
        <gpxx:DisplayColor>DarkGray</gpxx:DisplayColor>
      </gpxx:TrackExtension>
    </extensions>
    <trkseg>
      <trkpt lat="42.705243034288287" lon="2.894810037687421">
        <ele>33.780000000000001</ele>
        <time>2025-05-16T06:57:44Z</time>
      </trkpt>
      <trkpt lat="42.70507799461484" lon="2.89498002268374">
        <ele>34.740000000000002</ele>
        <time>2025-05-16T06:59:04Z</time>
      </trkpt>
      <trkpt lat="42.705069025978446" lon="2.8950269613415">
        <ele>34.740000000000002</ele>
        <time>2025-05-16T06:59:22Z</time>
      </trkpt>
      <trkpt lat="42.705204980447888" lon="2.894963007420301">
        <ele>33.299999999999997</ele>
        <time>2025-05-16T06:59:33Z</time>
      </trkpt>
      <trkpt lat="42.70529299043119" lon="2.894910033792257">
        <ele>34.259999999999998</ele>
        <time>2025-05-16T06:59:46Z</time>
      </trkpt>
      <trkpt lat="42.705258959904313" lon="2.894753040745854">
        <ele>34.740000000000002</ele>
        <time>2025-05-16T07:00:05Z</time>
      </trkpt>
      <trkpt lat="42.705286033451557" lon="2.894816994667053">
        <ele>34.740000000000002</ele>
        <time>2025-05-16T07:00:18Z</time>
      </trkpt>
      <trkpt lat="42.70533699542284" lon="2.894949009642005">
        <ele>34.740000000000002</ele>
        <time>2025-05-16T07:00:33Z</time>
      </trkpt>
      <trkpt lat="42.70535702817142" lon="2.894970970228314">
        <ele>35.229999999999997</ele>
        <time>2025-05-16T07:01:20Z</time>
      </trkpt>
      <trkpt lat="42.705506980419159" lon="2.895375983789563">
        <ele>39.549999999999997</ele>
        <time>2025-05-16T07:01:27Z</time>
      </trkpt>
      <trkpt lat="42.705532964318991" lon="2.895457958802581">
        <ele>39.549999999999997</ele>
        <time>2025-05-16T07:01:28Z</time>
      </trkpt>
      <trkpt lat="42.705555008724332" lon="2.895528031513095">
        <ele>39.07</ele>
        <time>2025-05-16T07:01:29Z</time>
      </trkpt>
      <trkpt lat="42.705772016197443" lon="2.896329006180167">
        <ele>36.189999999999998</ele>
        <time>2025-05-16T07:01:38Z</time>
      </trkpt>
      <trkpt lat="42.705798000097275" lon="2.896416010335088">
        <ele>35.710000000000001</ele>
        <time>2025-05-16T07:01:39Z</time>
      </trkpt>
      <trkpt lat="42.706008972600102" lon="2.897136015817523">
        <ele>33.780000000000001</ele>
        <time>2025-05-16T07:01:47Z</time>
      </trkpt>
      <trkpt lat="42.706037973985076" lon="2.897232994437218">
        <ele>34.259999999999998</ele>
        <time>2025-05-16T07:01:48Z</time>
      </trkpt>
      <trkpt lat="42.706065969541669" lon="2.897329973056912">
        <ele>34.259999999999998</ele>
        <time>2025-05-16T07:01:49Z</time>
      </trkpt>
      <trkpt lat="42.70630300976336" lon="2.898129019886255">
        <ele>35.710000000000001</ele>
        <time>2025-05-16T07:01:57Z</time>
      </trkpt>
      <trkpt lat="42.706331005319953" lon="2.898222981020808">
        <ele>35.229999999999997</ele>
        <time>2025-05-16T07:01:58Z</time>
      </trkpt>
      <trkpt lat="42.706559998914599" lon="2.898991014808416">
        <ele>34.259999999999998</ele>
        <time>2025-05-16T07:02:06Z</time>
      </trkpt>
      <trkpt lat="42.706589000299573" lon="2.899091010913253">
        <ele>34.259999999999998</ele>
        <time>2025-05-16T07:02:07Z</time>
      </trkpt>
      <trkpt lat="42.706896029412746" lon="2.900103041902185">
        <ele>32.340000000000003</ele>
        <time>2025-05-16T07:02:16Z</time>
      </trkpt>
      <trkpt lat="42.707114964723587" lon="2.900713998824358">
        <ele>30.899999999999999</ele>
        <time>2025-05-16T07:02:21Z</time>
      </trkpt>
      <trkpt lat="42.707148995250463" lon="2.900806032121182">
        <ele>29.940000000000001</ele>
        <time>2025-05-16T07:02:22Z</time>
      </trkpt>
      <trkpt lat="42.707629026845098" lon="2.901969021186233">
        <ele>27.530000000000001</ele>
        <time>2025-05-16T07:02:33Z</time>
      </trkpt>
      <trkpt lat="42.708225985988975" lon="2.903407020494342">
        <ele>22.25</ele>
        <time>2025-05-16T07:02:46Z</time>
      </trkpt>
      <trkpt lat="42.708855969831347" lon="2.904877960681915">
        <ele>24.170000000000002</ele>
        <time>2025-05-16T07:02:59Z</time>
      </trkpt>
      <trkpt lat="42.708894023671746" lon="2.904967982321978">
        <ele>24.649999999999999</ele>
        <time>2025-05-16T07:03:00Z</time>
      </trkpt>
      <trkpt lat="42.708929982036352" lon="2.905049035325646">
        <ele>24.649999999999999</ele>
        <time>2025-05-16T07:03:01Z</time>
      </trkpt>
      <trkpt lat="42.708963006734848" lon="2.90512396954">
        <ele>25.129999999999999</ele>
        <time>2025-05-16T07:03:02Z</time>
      </trkpt>
      <trkpt lat="42.708997959271073" lon="2.905202005058527">
        <ele>25.609999999999999</ele>
        <time>2025-05-16T07:03:03Z</time>
      </trkpt>
      <trkpt lat="42.709035007283092" lon="2.905284985899925">
        <ele>25.609999999999999</ele>
        <time>2025-05-16T07:03:04Z</time>
      </trkpt>
      <trkpt lat="42.709071971476078" lon="2.905368972569704">
        <ele>25.609999999999999</ele>
        <time>2025-05-16T07:03:05Z</time>
      </trkpt>
      <trkpt lat="42.709089992567897" lon="2.905476009473205">
        <ele>25.609999999999999</ele>
        <time>2025-05-16T07:03:06Z</time>
      </trkpt>
      <trkpt lat="42.709094015881419" lon="2.905497970059514">
        <ele>25.609999999999999</ele>
        <time>2025-05-16T07:03:07Z</time>
      </trkpt>
      <trkpt lat="42.709168028086424" lon="2.905744984745979">
        <ele>25.609999999999999</ele>
        <time>2025-05-16T07:03:08Z</time>
      </trkpt>
      <trkpt lat="42.709137015044689" lon="2.905859984457493">
        <ele>25.609999999999999</ele>
        <time>2025-05-16T07:03:09Z</time>
      </trkpt>
      <trkpt lat="42.709104996174574" lon="2.905975989997387">
        <ele>26.09</ele>
        <time>2025-05-16T07:03:10Z</time>
      </trkpt>
      <trkpt lat="42.708912966772914" lon="2.906744023784995">
        <ele>28.5</ele>
        <time>2025-05-16T07:03:16Z</time>
      </trkpt>
      <trkpt lat="42.708907015621662" lon="2.90686204098165">
        <ele>28.5</ele>
        <time>2025-05-16T07:03:17Z</time>
      </trkpt>
      <trkpt lat="42.708921013399959" lon="2.906989026814699">
        <ele>28.98</ele>
        <time>2025-05-16T07:03:18Z</time>
      </trkpt>
      <trkpt lat="42.708977004513144" lon="2.907077036798">
        <ele>29.460000000000001</ele>
        <time>2025-05-16T07:03:19Z</time>
      </trkpt>
      <trkpt lat="42.709045987576246" lon="2.907173009589315">
        <ele>29.940000000000001</ele>
        <time>2025-05-16T07:03:20Z</time>
      </trkpt>
      <trkpt lat="42.709114970639348" lon="2.907268982380629">
        <ele>29.940000000000001</ele>
        <time>2025-05-16T07:03:21Z</time>
      </trkpt>
      <trkpt lat="42.709184037521482" lon="2.907366966828704">
        <ele>29.940000000000001</ele>
        <time>2025-05-16T07:03:22Z</time>
      </trkpt>
      <trkpt lat="42.709300965070724" lon="2.907565031200647">
        <ele>29.940000000000001</ele>
        <time>2025-05-16T07:03:24Z</time>
      </trkpt>
      <trkpt lat="42.709342958405614" lon="2.907649017870426">
        <ele>29.940000000000001</ele>
        <time>2025-05-16T07:03:25Z</time>
      </trkpt>
      <trkpt lat="42.709383023902774" lon="2.907727975398302">
        <ele>29.940000000000001</ele>
        <time>2025-05-16T07:03:26Z</time>
      </trkpt>
      <trkpt lat="42.709308005869389" lon="2.907986976206303">
        <ele>29.460000000000001</ele>
        <time>2025-05-16T07:03:27Z</time>
      </trkpt>
      <trkpt lat="42.709308005869389" lon="2.907986976206303">
        <ele>29.460000000000001</ele>
        <time>2025-05-16T07:03:28Z</time>
      </trkpt>
      <trkpt lat="42.709301970899105" lon="2.908064005896449">
        <ele>29.460000000000001</ele>
        <time>2025-05-16T07:03:29Z</time>
      </trkpt>
      <trkpt lat="42.709296019747853" lon="2.908142963424325">
        <ele>29.460000000000001</ele>
        <time>2025-05-16T07:03:30Z</time>
      </trkpt>
      <trkpt lat="42.70929099060595" lon="2.908205995336175">
        <ele>29.460000000000001</ele>
        <time>2025-05-16T07:03:31Z</time>
      </trkpt>
      <trkpt lat="42.709020003676414" lon="2.908400958403945">
        <ele>28.98</ele>
        <time>2025-05-16T07:03:40Z</time>
      </trkpt>
      <trkpt lat="42.70868900232017" lon="2.908597011119127">
        <ele>30.899999999999999</ele>
        <time>2025-05-16T07:03:51Z</time>
      </trkpt>
      <trkpt lat="42.708563022315502" lon="2.908665994182229">
        <ele>31.379999999999999</ele>
        <time>2025-05-16T07:04:01Z</time>
      </trkpt>
      <trkpt lat="42.70845397375524" lon="2.908727014437318">
        <ele>32.340000000000003</ele>
        <time>2025-05-16T07:04:08Z</time>
      </trkpt>
      <trkpt lat="42.708143005147576" lon="2.908916026353836">
        <ele>32.82</ele>
        <time>2025-05-16T07:04:15Z</time>
      </trkpt>
      <trkpt lat="42.707806974649429" lon="2.909110989421606">
        <ele>32.340000000000003</ele>
        <time>2025-05-16T07:04:27Z</time>
      </trkpt>
      <trkpt lat="42.707462981343269" lon="2.909037983044982">
        <ele>32.340000000000003</ele>
        <time>2025-05-16T07:04:34Z</time>
      </trkpt>
      <trkpt lat="42.707396009936929" lon="2.909072013571858">
        <ele>32.340000000000003</ele>
        <time>2025-05-16T07:04:35Z</time>
      </trkpt>
      <trkpt lat="42.707323003560305" lon="2.909132027998567">
        <ele>31.859999999999999</ele>
        <time>2025-05-16T07:04:36Z</time>
      </trkpt>
      <trkpt lat="42.707289978861809" lon="2.909220959991217">
        <ele>31.859999999999999</ele>
        <time>2025-05-16T07:04:37Z</time>
      </trkpt>
      <trkpt lat="42.707277992740273" lon="2.909330008551478">
        <ele>31.379999999999999</ele>
        <time>2025-05-16T07:04:38Z</time>
      </trkpt>
      <trkpt lat="42.707295008003712" lon="2.909437967464328">
        <ele>30.899999999999999</ele>
        <time>2025-05-16T07:04:39Z</time>
      </trkpt>
      <trkpt lat="42.707311017438769" lon="2.909545004367828">
        <ele>30.420000000000002</ele>
        <time>2025-05-16T07:04:40Z</time>
      </trkpt>
      <trkpt lat="42.707395004108548" lon="2.909621028229594">
        <ele>30.420000000000002</ele>
        <time>2025-05-16T07:04:41Z</time>
      </trkpt>
      <trkpt lat="42.70744102075696" lon="2.909660004079342">
        <ele>29.940000000000001</ele>
        <time>2025-05-16T07:04:42Z</time>
      </trkpt>
      <trkpt lat="42.707521989941597" lon="2.909798976033926">
        <ele>29.460000000000001</ele>
        <time>2025-05-16T07:04:43Z</time>
      </trkpt>
      <trkpt lat="42.707591978833079" lon="2.909917999058962">
        <ele>28.98</ele>
        <time>2025-05-16T07:04:44Z</time>
      </trkpt>
      <trkpt lat="42.707642018795013" lon="2.910049008205533">
        <ele>28.5</ele>
        <time>2025-05-16T07:04:45Z</time>
      </trkpt>
      <trkpt lat="42.70819203928113" lon="2.911483990028501">
        <ele>24.170000000000002</ele>
        <time>2025-05-16T07:04:53Z</time>
      </trkpt>
      <trkpt lat="42.709275986999273" lon="2.9143419675529">
        <ele>23.210000000000001</ele>
        <time>2025-05-16T07:05:07Z</time>
      </trkpt>
      <trkpt lat="42.710180981084704" lon="2.917598001658917">
        <ele>23.690000000000001</ele>
        <time>2025-05-16T07:05:22Z</time>
      </trkpt>
      <trkpt lat="42.710861004889011" lon="2.920210976153612">
        <ele>24.170000000000002</ele>
        <time>2025-05-16T07:05:34Z</time>
      </trkpt>
      <trkpt lat="42.711603976786137" lon="2.923067025840282">
        <ele>24.170000000000002</ele>
        <time>2025-05-16T07:05:47Z</time>
      </trkpt>
      <trkpt lat="42.712348038330674" lon="2.925977976992726">
        <ele>24.170000000000002</ele>
        <time>2025-05-16T07:06:00Z</time>
      </trkpt>
      <trkpt lat="42.713069971650839" lon="2.929126974195242">
        <ele>24.649999999999999</ele>
        <time>2025-05-16T07:06:14Z</time>
      </trkpt>
      <trkpt lat="42.713618986308575" lon="2.931582033634186">
        <ele>25.129999999999999</ele>
        <time>2025-05-16T07:06:23Z</time>
      </trkpt>
      <trkpt lat="42.714343015104532" lon="2.935011992231011">
        <ele>24.649999999999999</ele>
        <time>2025-05-16T07:06:33Z</time>
      </trkpt>
      <trkpt lat="42.714767977595329" lon="2.938192002475262">
        <ele>24.649999999999999</ele>
        <time>2025-05-16T07:06:42Z</time>
      </trkpt>
      <trkpt lat="42.714756997302175" lon="2.941768979653716">
        <ele>24.170000000000002</ele>
        <time>2025-05-16T07:06:52Z</time>
      </trkpt>
      <trkpt lat="42.714342009276152" lon="2.944834996014834">
        <ele>24.170000000000002</ele>
        <time>2025-05-16T07:07:01Z</time>
      </trkpt>
      <trkpt lat="42.713573975488544" lon="2.947947029024363">
        <ele>23.210000000000001</ele>
        <time>2025-05-16T07:07:10Z</time>
      </trkpt>
      <trkpt lat="42.712526991963387" lon="2.95243302360177">
        <ele>21.77</ele>
        <time>2025-05-16T07:07:23Z</time>
      </trkpt>
      <trkpt lat="42.712163971737027" lon="2.955608004704118">
        <ele>21.77</ele>
        <time>2025-05-16T07:07:32Z</time>
      </trkpt>
      <trkpt lat="42.711994992569089" lon="2.960647037252784">
        <ele>22.73</ele>
        <time>2025-05-16T07:07:46Z</time>
      </trkpt>
      <trkpt lat="42.711762981489301" lon="2.966365003958345">
        <ele>23.690000000000001</ele>
        <time>2025-05-16T07:08:02Z</time>
      </trkpt>
      <trkpt lat="42.71124598570168" lon="2.969829998910427">
        <ele>26.09</ele>
        <time>2025-05-16T07:08:12Z</time>
      </trkpt>
      <trkpt lat="42.710205959156156" lon="2.973107993602753">
        <ele>30.420000000000002</ele>
        <time>2025-05-16T07:08:22Z</time>
      </trkpt>
      <trkpt lat="42.708888994529843" lon="2.976194964721799">
        <ele>34.259999999999998</ele>
        <time>2025-05-16T07:08:32Z</time>
      </trkpt>
      <trkpt lat="42.707779984921217" lon="2.979415962472558">
        <ele>38.109999999999999</ele>
        <time>2025-05-16T07:08:42Z</time>
      </trkpt>
      <trkpt lat="42.707148995250463" lon="2.982874000445008">
        <ele>37.630000000000003</ele>
        <time>2025-05-16T07:08:52Z</time>
      </trkpt>
      <trkpt lat="42.706633005291224" lon="2.987451022490859">
        <ele>36.670000000000002</ele>
        <time>2025-05-16T07:09:05Z</time>
      </trkpt>
      <trkpt lat="42.705934038385749" lon="2.991986973211169">
        <ele>33.780000000000001</ele>
        <time>2025-05-16T07:09:18Z</time>
      </trkpt>
      <trkpt lat="42.705233981832862" lon="2.99450003542006">
        <ele>31.859999999999999</ele>
        <time>2025-05-16T07:09:26Z</time>
      </trkpt>
      <trkpt lat="42.704190015792847" lon="2.997247036546469">
        <ele>28.5</ele>
        <time>2025-05-16T07:09:36Z</time>
      </trkpt>
      <trkpt lat="42.70331896841526" lon="2.999606961384416">
        <ele>28.98</ele>
        <time>2025-05-16T07:09:46Z</time>
      </trkpt>
      <trkpt lat="42.702593011781573" lon="3.002210967242718">
        <ele>29.940000000000001</ele>
        <time>2025-05-16T07:09:56Z</time>
      </trkpt>
      <trkpt lat="42.702411962673068" lon="3.003239007666707">
        <ele>28.98</ele>
        <time>2025-05-16T07:10:00Z</time>
      </trkpt>
      <trkpt lat="42.702133012935519" lon="3.005878971889615">
        <ele>28.02</ele>
        <time>2025-05-16T07:10:10Z</time>
      </trkpt>
      <trkpt lat="42.702118009328842" lon="3.008767040446401">
        <ele>27.050000000000001</ele>
        <time>2025-05-16T07:10:20Z</time>
      </trkpt>
      <trkpt lat="42.70230601541698" lon="3.010808033868671">
        <ele>25.129999999999999</ele>
        <time>2025-05-16T07:10:29Z</time>
      </trkpt>
      <trkpt lat="42.702512964606285" lon="3.013524021953344">
        <ele>21.289999999999999</ele>
        <time>2025-05-16T07:10:41Z</time>
      </trkpt>
      <trkpt lat="42.702549006789923" lon="3.014823971316218">
        <ele>15.52</ele>
        <time>2025-05-16T07:10:50Z</time>
      </trkpt>
      <trkpt lat="42.70252101123333" lon="3.014885997399688">
        <ele>15.039999999999999</ele>
        <time>2025-05-16T07:10:57Z</time>
      </trkpt>
      <trkpt lat="42.702506007626653" lon="3.014919022098184">
        <ele>14.56</ele>
        <time>2025-05-16T07:10:59Z</time>
      </trkpt>
      <trkpt lat="42.702483963221312" lon="3.014967972412705">
        <ele>14.56</ele>
        <time>2025-05-16T07:11:00Z</time>
      </trkpt>
      <trkpt lat="42.702441969886422" lon="3.015060005709529">
        <ele>14.08</ele>
        <time>2025-05-16T07:11:01Z</time>
      </trkpt>
      <trkpt lat="42.702419003471732" lon="3.015106022357941">
        <ele>13.6</ele>
        <time>2025-05-16T07:11:02Z</time>
      </trkpt>
      <trkpt lat="42.702378015965223" lon="3.015187997370958">
        <ele>13.6</ele>
        <time>2025-05-16T07:11:03Z</time>
      </trkpt>
      <trkpt lat="42.702344991266727" lon="3.01527701318264">
        <ele>13.6</ele>
        <time>2025-05-16T07:11:04Z</time>
      </trkpt>
      <trkpt lat="42.702318001538515" lon="3.015394024550915">
        <ele>13.6</ele>
        <time>2025-05-16T07:11:05Z</time>
      </trkpt>
      <trkpt lat="42.702292017638683" lon="3.01551103591919">
        <ele>13.6</ele>
        <time>2025-05-16T07:11:06Z</time>
      </trkpt>
      <trkpt lat="42.70230702124536" lon="3.015632992610335">
        <ele>13.6</ele>
        <time>2025-05-16T07:11:07Z</time>
      </trkpt>
      <trkpt lat="42.702324036508799" lon="3.015769030898809">
        <ele>13.6</ele>
        <time>2025-05-16T07:11:08Z</time>
      </trkpt>
      <trkpt lat="42.70235002040863" lon="3.015880007296801">
        <ele>13.6</ele>
        <time>2025-05-16T07:11:09Z</time>
      </trkpt>
      <trkpt lat="42.702411040663719" lon="3.01598503254354">
        <ele>13.6</ele>
        <time>2025-05-16T07:11:10Z</time>
      </trkpt>
      <trkpt lat="42.702468959614635" lon="3.016086034476757">
        <ele>13.6</ele>
        <time>2025-05-16T07:11:11Z</time>
      </trkpt>
      <trkpt lat="42.702537020668387" lon="3.016146970912814">
        <ele>14.08</ele>
        <time>2025-05-16T07:11:12Z</time>
      </trkpt>
      <trkpt lat="42.702613966539502" lon="3.016165997833014">
        <ele>14.08</ele>
        <time>2025-05-16T07:11:13Z</time>
      </trkpt>
      <trkpt lat="42.702699964866042" lon="3.01617999561131">
        <ele>14.08</ele>
        <time>2025-05-16T07:11:14Z</time>
      </trkpt>
      <trkpt lat="42.70278001204133" lon="3.016192987561226">
        <ele>14.08</ele>
        <time>2025-05-16T07:11:15Z</time>
      </trkpt>
      <trkpt lat="42.702839020639658" lon="3.016182007268071">
        <ele>14.08</ele>
        <time>2025-05-16T07:11:16Z</time>
      </trkpt>
      <trkpt lat="42.702912027016282" lon="3.016144959256053">
        <ele>14.08</ele>
        <time>2025-05-16T07:11:17Z</time>
      </trkpt>
      <trkpt lat="42.702985033392906" lon="3.016107995063067">
        <ele>14.08</ele>
        <time>2025-05-16T07:11:18Z</time>
      </trkpt>
      <trkpt lat="42.703020991757512" lon="3.016089973971248">
        <ele>14.08</ele>
        <time>2025-05-16T07:11:19Z</time>
      </trkpt>
      <trkpt lat="42.703155018389225" lon="3.016112018376589">
        <ele>14.08</ele>
        <time>2025-05-16T07:11:20Z</time>
      </trkpt>
      <trkpt lat="42.703247973695397" lon="3.016128027811647">
        <ele>14.08</ele>
        <time>2025-05-16T07:11:21Z</time>
      </trkpt>
      <trkpt lat="42.703347969800234" lon="3.016177983954549">
        <ele>14.08</ele>
        <time>2025-05-16T07:11:22Z</time>
      </trkpt>
      <trkpt lat="42.703557014465332" lon="3.016312010586262">
        <ele>13.6</ele>
        <time>2025-05-16T07:11:24Z</time>
      </trkpt>
      <trkpt lat="42.704651020467281" lon="3.017157996073365">
        <ele>13.6</ele>
        <time>2025-05-16T07:11:33Z</time>
      </trkpt>
      <trkpt lat="42.706247018650174" lon="3.018534975126386">
        <ele>12.630000000000001</ele>
        <time>2025-05-16T07:11:45Z</time>
      </trkpt>
      <trkpt lat="42.708167983219028" lon="3.020378993824124">
        <ele>9.75</ele>
        <time>2025-05-16T07:11:58Z</time>
      </trkpt>
      <trkpt lat="42.709865989163518" lon="3.022055961191654">
        <ele>10.710000000000001</ele>
        <time>2025-05-16T07:12:09Z</time>
      </trkpt>
      <trkpt lat="42.711857026442885" lon="3.023954965174198">
        <ele>13.6</ele>
        <time>2025-05-16T07:12:22Z</time>
      </trkpt>
      <trkpt lat="42.713986029848456" lon="3.026002999395132">
        <ele>11.67</ele>
        <time>2025-05-16T07:12:35Z</time>
      </trkpt>
      <trkpt lat="42.716131964698434" lon="3.027741992846131">
        <ele>11.19</ele>
        <time>2025-05-16T07:12:48Z</time>
      </trkpt>
      <trkpt lat="42.718169018626213" lon="3.028868017718196">
        <ele>8.789999999999999</ele>
        <time>2025-05-16T07:12:59Z</time>
      </trkpt>
      <trkpt lat="42.719916980713606" lon="3.029476962983608">
        <ele>7.35</ele>
        <time>2025-05-16T07:13:08Z</time>
      </trkpt>
      <trkpt lat="42.722142040729523" lon="3.029815005138516">
        <ele>7.83</ele>
        <time>2025-05-16T07:13:19Z</time>
      </trkpt>
      <trkpt lat="42.724187979474664" lon="3.029768988490105">
        <ele>8.310000000000001</ele>
        <time>2025-05-16T07:13:30Z</time>
      </trkpt>
      <trkpt lat="42.726198965683579" lon="3.029364980757237">
        <ele>7.35</ele>
        <time>2025-05-16T07:13:40Z</time>
      </trkpt>
      <trkpt lat="42.728065028786659" lon="3.028638018295169">
        <ele>6.87</ele>
        <time>2025-05-16T07:13:50Z</time>
      </trkpt>
      <trkpt lat="42.729690028354526" lon="3.027742998674512">
        <ele>7.35</ele>
        <time>2025-05-16T07:14:00Z</time>
      </trkpt>
      <trkpt lat="42.731329025700688" lon="3.026802968233824">
        <ele>6.87</ele>
        <time>2025-05-16T07:14:11Z</time>
      </trkpt>
      <trkpt lat="42.732010977342725" lon="3.026543967425823">
        <ele>7.35</ele>
        <time>2025-05-16T07:14:18Z</time>
      </trkpt>
      <trkpt lat="42.732078032568097" lon="3.02655503153801">
        <ele>7.35</ele>
        <time>2025-05-16T07:14:19Z</time>
      </trkpt>
      <trkpt lat="42.73215196095407" lon="3.02660197019577">
        <ele>7.35</ele>
        <time>2025-05-16T07:14:20Z</time>
      </trkpt>
      <trkpt lat="42.732224967330694" lon="3.026647986844182">
        <ele>7.35</ele>
        <time>2025-05-16T07:14:21Z</time>
      </trkpt>
      <trkpt lat="42.73232102394104" lon="3.026633989065886">
        <ele>7.35</ele>
        <time>2025-05-16T07:14:22Z</time>
      </trkpt>
      <trkpt lat="42.732375003397465" lon="3.026626026257873">
        <ele>7.35</ele>
        <time>2025-05-16T07:14:23Z</time>
      </trkpt>
      <trkpt lat="42.732527973130345" lon="3.026585960760713">
        <ele>7.35</ele>
        <time>2025-05-16T07:14:24Z</time>
      </trkpt>
      <trkpt lat="42.732594022527337" lon="3.026651004329324">
        <ele>7.35</ele>
        <time>2025-05-16T07:14:25Z</time>
      </trkpt>
      <trkpt lat="42.732664011418819" lon="3.026732979342341">
        <ele>7.35</ele>
        <time>2025-05-16T07:14:26Z</time>
      </trkpt>
      <trkpt lat="42.732735006138682" lon="3.026829035952687">
        <ele>7.35</ele>
        <time>2025-05-16T07:14:27Z</time>
      </trkpt>
      <trkpt lat="42.732812035828829" lon="3.026934983208776">
        <ele>7.35</ele>
        <time>2025-05-16T07:14:28Z</time>
      </trkpt>
      <trkpt lat="42.733729016035795" lon="3.028187993913889">
        <ele>5.42</ele>
        <time>2025-05-16T07:14:39Z</time>
      </trkpt>
      <trkpt lat="42.733858013525605" lon="3.028397038578987">
        <ele>4.94</ele>
        <time>2025-05-16T07:14:41Z</time>
      </trkpt>
      <trkpt lat="42.733904030174017" lon="3.028508014976978">
        <ele>4.94</ele>
        <time>2025-05-16T07:14:42Z</time>
      </trkpt>
      <trkpt lat="42.733942000195384" lon="3.028622008860111">
        <ele>4.46</ele>
        <time>2025-05-16T07:14:43Z</time>
      </trkpt>
      <trkpt lat="42.733958009630442" lon="3.028865000233054">
        <ele>4.46</ele>
        <time>2025-05-16T07:14:45Z</time>
      </trkpt>
      <trkpt lat="42.733899001032114" lon="3.029007995501161">
        <ele>3.98</ele>
        <time>2025-05-16T07:14:46Z</time>
      </trkpt>
      <trkpt lat="42.733899001032114" lon="3.029065998271108">
        <ele>3.98</ele>
        <time>2025-05-16T07:14:47Z</time>
      </trkpt>
      <trkpt lat="42.733924984931946" lon="3.029179992154241">
        <ele>3.98</ele>
        <time>2025-05-16T07:14:48Z</time>
      </trkpt>
      <trkpt lat="42.733963038772345" lon="3.029244029894471">
        <ele>3.5</ele>
        <time>2025-05-16T07:14:49Z</time>
      </trkpt>
      <trkpt lat="42.733963038772345" lon="3.029244029894471">
        <ele>3.5</ele>
        <time>2025-05-16T07:14:50Z</time>
      </trkpt>
      <trkpt lat="42.734119025990367" lon="3.029329022392631">
        <ele>3.5</ele>
        <time>2025-05-16T07:14:51Z</time>
      </trkpt>
      <trkpt lat="42.73414802737534" lon="3.029418960213661">
        <ele>3.02</ele>
        <time>2025-05-16T07:14:52Z</time>
      </trkpt>
      <trkpt lat="42.734179040417075" lon="3.029517028480768">
        <ele>3.02</ele>
        <time>2025-05-16T07:14:53Z</time>
      </trkpt>
      <trkpt lat="42.734240982681513" lon="3.029710985720158">
        <ele>3.02</ele>
        <time>2025-05-16T07:14:55Z</time>
      </trkpt>
      <trkpt lat="42.734265038743615" lon="3.029794972389936">
        <ele>3.02</ele>
        <time>2025-05-16T07:14:56Z</time>
      </trkpt>
      <trkpt lat="42.734271995723248" lon="3.029889017343521">
        <ele>3.02</ele>
        <time>2025-05-16T07:14:57Z</time>
      </trkpt>
      <trkpt lat="42.734280964359641" lon="3.029987001791596">
        <ele>3.02</ele>
        <time>2025-05-16T07:14:58Z</time>
      </trkpt>
      <trkpt lat="42.73427995853126" lon="3.030094038695097">
        <ele>3.02</ele>
        <time>2025-05-16T07:14:59Z</time>
      </trkpt>
      <trkpt lat="42.734228996559978" lon="3.031032979488373">
        <ele>3.98</ele>
        <time>2025-05-16T07:15:08Z</time>
      </trkpt>
      <trkpt lat="42.734179962426424" lon="3.031768994405866">
        <ele>3.98</ele>
        <time>2025-05-16T07:15:17Z</time>
      </trkpt>
      <trkpt lat="42.734179962426424" lon="3.031768994405866">
        <ele>3.98</ele>
        <time>2025-05-16T07:15:29Z</time>
      </trkpt>
      <trkpt lat="42.734179962426424" lon="3.031768994405866">
        <ele>3.98</ele>
        <time>2025-05-16T07:15:32Z</time>
      </trkpt>
      <trkpt lat="42.734154984354973" lon="3.031793972477317">
        <ele>3.98</ele>
        <time>2025-05-16T07:15:47Z</time>
      </trkpt>
      <trkpt lat="42.734122965484858" lon="3.031820962205529">
        <ele>11.19</ele>
        <time>2025-05-16T07:24:13Z</time>
      </trkpt>
      <trkpt lat="42.734136041253805" lon="3.031877959147096">
        <ele>15.039999999999999</ele>
        <time>2025-05-16T07:24:47Z</time>
      </trkpt>
      <trkpt lat="42.734140986576676" lon="3.03186496719718">
        <ele>14.08</ele>
        <time>2025-05-16T07:24:56Z</time>
      </trkpt>
      <trkpt lat="42.73416998796165" lon="3.031898997724056">
        <ele>13.119999999999999</ele>
        <time>2025-05-16T07:24:58Z</time>
      </trkpt>
      <trkpt lat="42.734166970476508" lon="3.031933028250933">
        <ele>13.119999999999999</ele>
        <time>2025-05-16T07:24:59Z</time>
      </trkpt>
      <trkpt lat="42.734164036810398" lon="3.031979966908693">
        <ele>13.119999999999999</ele>
        <time>2025-05-16T07:25:00Z</time>
      </trkpt>
      <trkpt lat="42.734160013496876" lon="3.032032018527389">
        <ele>12.630000000000001</ele>
        <time>2025-05-16T07:25:01Z</time>
      </trkpt>
      <trkpt lat="42.734133023768663" lon="3.032469972968102">
        <ele>11.19</ele>
        <time>2025-05-16T07:25:11Z</time>
      </trkpt>
      <trkpt lat="42.734078038483858" lon="3.033399023115635">
        <ele>11.19</ele>
        <time>2025-05-16T07:25:22Z</time>
      </trkpt>
      <trkpt lat="42.734067980200052" lon="3.033584011718631">
        <ele>11.19</ele>
        <time>2025-05-16T07:25:24Z</time>
      </trkpt>
      <trkpt lat="42.734008971601725" lon="3.034633006900549">
        <ele>9.27</ele>
        <time>2025-05-16T07:25:34Z</time>
      </trkpt>
      <trkpt lat="42.733920039609075" lon="3.035123012959957">
        <ele>7.83</ele>
        <time>2025-05-16T07:25:41Z</time>
      </trkpt>
      <trkpt lat="42.733900006860495" lon="3.035195013508201">
        <ele>7.83</ele>
        <time>2025-05-16T07:25:42Z</time>
      </trkpt>
      <trkpt lat="42.733879974111915" lon="3.035265002399683">
        <ele>7.83</ele>
        <time>2025-05-16T07:25:43Z</time>
      </trkpt>
      <trkpt lat="42.733858013525605" lon="3.035284029319882">
        <ele>7.35</ele>
        <time>2025-05-16T07:25:44Z</time>
      </trkpt>
      <trkpt lat="42.7338030282408" lon="3.035314036533237">
        <ele>7.35</ele>
        <time>2025-05-16T07:25:45Z</time>
      </trkpt>
      <trkpt lat="42.733746031299233" lon="3.03534496575594">
        <ele>7.35</ele>
        <time>2025-05-16T07:25:46Z</time>
      </trkpt>
      <trkpt lat="42.733685011044145" lon="3.035377990454435">
        <ele>7.83</ele>
        <time>2025-05-16T07:25:47Z</time>
      </trkpt>
      <trkpt lat="42.732787979766726" lon="3.035462982952595">
        <ele>8.310000000000001</ele>
        <time>2025-05-16T07:25:58Z</time>
      </trkpt>
      <trkpt lat="42.731423992663622" lon="3.035536995157599">
        <ele>7.83</ele>
        <time>2025-05-16T07:26:12Z</time>
      </trkpt>
      <trkpt lat="42.730165030807257" lon="3.035594997927547">
        <ele>5.42</ele>
        <time>2025-05-16T07:26:27Z</time>
      </trkpt>
      <trkpt lat="42.7290990203619" lon="3.035473041236401">
        <ele>4.94</ele>
        <time>2025-05-16T07:26:39Z</time>
      </trkpt>
      <trkpt lat="42.728165024891496" lon="3.035343959927559">
        <ele>4.46</ele>
        <time>2025-05-16T07:26:47Z</time>
      </trkpt>
      <trkpt lat="42.726989965885878" lon="3.035358963534236">
        <ele>4.46</ele>
        <time>2025-05-16T07:26:57Z</time>
      </trkpt>
      <trkpt lat="42.725743995979428" lon="3.035358963534236">
        <ele>4.94</ele>
        <time>2025-05-16T07:27:09Z</time>
      </trkpt>
      <trkpt lat="42.725653974339366" lon="3.035372039303184">
        <ele>4.46</ele>
        <time>2025-05-16T07:27:10Z</time>
      </trkpt>
      <trkpt lat="42.725577028468251" lon="3.035392994061112">
        <ele>4.46</ele>
        <time>2025-05-16T07:27:11Z</time>
      </trkpt>
      <trkpt lat="42.725510979071259" lon="3.035411015152931">
        <ele>4.46</ele>
        <time>2025-05-16T07:27:12Z</time>
      </trkpt>
      <trkpt lat="42.725377036258578" lon="3.035347983241081">
        <ele>3.02</ele>
        <time>2025-05-16T07:27:14Z</time>
      </trkpt>
      <trkpt lat="42.725310986861587" lon="3.035389976575971">
        <ele>3.02</ele>
        <time>2025-05-16T07:27:15Z</time>
      </trkpt>
      <trkpt lat="42.725277040153742" lon="3.035458959639072">
        <ele>2.54</ele>
        <time>2025-05-16T07:27:16Z</time>
      </trkpt>
      <trkpt lat="42.725273016840219" lon="3.035467006266117">
        <ele>2.06</ele>
        <time>2025-05-16T07:27:17Z</time>
      </trkpt>
      <trkpt lat="42.725320961326361" lon="3.035692982375622">
        <ele>1.58</ele>
        <time>2025-05-16T07:27:18Z</time>
      </trkpt>
      <trkpt lat="42.725290032103658" lon="3.03577302955091">
        <ele>1.1</ele>
        <time>2025-05-16T07:27:19Z</time>
      </trkpt>
      <trkpt lat="42.725261030718684" lon="3.035848969593644">
        <ele>0.62</ele>
        <time>2025-05-16T07:27:20Z</time>
      </trkpt>
      <trkpt lat="42.725250972434878" lon="3.035874031484127">
        <ele>0.62</ele>
        <time>2025-05-16T07:27:21Z</time>
      </trkpt>
      <trkpt lat="42.725165979936719" lon="3.035874031484127">
        <ele>0.62</ele>
        <time>2025-05-16T07:27:22Z</time>
      </trkpt>
      <trkpt lat="42.72510495968163" lon="3.035874031484127">
        <ele>0.14</ele>
        <time>2025-05-16T07:27:23Z</time>
      </trkpt>
      <trkpt lat="42.725028013810515" lon="3.035874031484127">
        <ele>0.14</ele>
        <time>2025-05-16T07:27:24Z</time>
      </trkpt>
      <trkpt lat="42.724699024111032" lon="3.03590496070683">
        <ele>-0.82</ele>
        <time>2025-05-16T07:27:28Z</time>
      </trkpt>
      <trkpt lat="42.724620988592505" lon="3.035934967920184">
        <ele>-0.82</ele>
        <time>2025-05-16T07:27:29Z</time>
      </trkpt>
      <trkpt lat="42.724546976387501" lon="3.035963969305158">
        <ele>-0.82</ele>
        <time>2025-05-16T07:27:30Z</time>
      </trkpt>
      <trkpt lat="42.724472964182496" lon="3.036063965409994">
        <ele>-0.82</ele>
        <time>2025-05-16T07:27:31Z</time>
      </trkpt>
      <trkpt lat="42.724438011646271" lon="3.036167984828353">
        <ele>-0.82</ele>
        <time>2025-05-16T07:27:32Z</time>
      </trkpt>
      <trkpt lat="42.724409010261297" lon="3.036290025338531">
        <ele>-0.82</ele>
        <time>2025-05-16T07:27:33Z</time>
      </trkpt>
      <trkpt lat="42.724395012483001" lon="3.036412987858057">
        <ele>-0.82</ele>
        <time>2025-05-16T07:27:34Z</time>
      </trkpt>
      <trkpt lat="42.724382020533085" lon="3.036535028368235">
        <ele>-0.82</ele>
        <time>2025-05-16T07:27:35Z</time>
      </trkpt>
      <trkpt lat="42.724355030804873" lon="3.036640975624323">
        <ele>-0.82</ele>
        <time>2025-05-16T07:27:36Z</time>
      </trkpt>
      <trkpt lat="42.724300967529416" lon="3.036695038899779">
        <ele>-1.3</ele>
        <time>2025-05-16T07:27:37Z</time>
      </trkpt>
      <trkpt lat="42.724241958931088" lon="3.036722028627992">
        <ele>-1.79</ele>
        <time>2025-05-16T07:27:38Z</time>
      </trkpt>
      <trkpt lat="42.72426400333643" lon="3.036733008921146">
        <ele>-2.27</ele>
        <time>2025-05-16T07:27:39Z</time>
      </trkpt>
      <trkpt lat="42.72426400333643" lon="3.036733008921146">
        <ele>-2.27</ele>
        <time>2025-05-16T07:27:40Z</time>
      </trkpt>
      <trkpt lat="42.724213963374496" lon="3.036707025021315">
        <ele>-2.75</ele>
        <time>2025-05-16T07:27:41Z</time>
      </trkpt>
      <trkpt lat="42.72422100417316" lon="3.036710964515805">
        <ele>-2.75</ele>
        <time>2025-05-16T07:27:42Z</time>
      </trkpt>
      <trkpt lat="42.724230978637934" lon="3.036715993657708">
        <ele>-2.75</ele>
        <time>2025-05-16T07:27:43Z</time>
      </trkpt>
      <trkpt lat="42.724245982244611" lon="3.036723034456372">
        <ele>-2.75</ele>
        <time>2025-05-16T07:27:44Z</time>
      </trkpt>
      <trkpt lat="42.724267020821571" lon="3.036729991436005">
        <ele>-2.75</ele>
        <time>2025-05-16T07:27:45Z</time>
      </trkpt>
      <trkpt lat="42.724300967529416" lon="3.036695960909128">
        <ele>-2.75</ele>
        <time>2025-05-16T07:27:46Z</time>
      </trkpt>
      <trkpt lat="42.72435000166297" lon="3.036647010594606">
        <ele>-3.23</ele>
        <time>2025-05-16T07:27:47Z</time>
      </trkpt>
      <trkpt lat="42.724376991391182" lon="3.036579033359885">
        <ele>-3.23</ele>
        <time>2025-05-16T07:27:48Z</time>
      </trkpt>
      <trkpt lat="42.724387971684337" lon="3.036479037255049">
        <ele>-3.23</ele>
        <time>2025-05-16T07:27:49Z</time>
      </trkpt>
      <trkpt lat="42.724400041624904" lon="3.036369988694787">
        <ele>-3.71</ele>
        <time>2025-05-16T07:27:50Z</time>
      </trkpt>
      <trkpt lat="42.724412027746439" lon="3.036257000640035">
        <ele>-4.19</ele>
        <time>2025-05-16T07:27:51Z</time>
      </trkpt>
      <trkpt lat="42.724444968625903" lon="3.036147030070424">
        <ele>-4.19</ele>
        <time>2025-05-16T07:27:52Z</time>
      </trkpt>
      <trkpt lat="42.724476987496018" lon="3.036049967631698">
        <ele>-4.19</ele>
        <time>2025-05-16T07:27:53Z</time>
      </trkpt>
      <trkpt lat="42.72454203106463" lon="3.035965980961919">
        <ele>-4.67</ele>
        <time>2025-05-16T07:27:54Z</time>
      </trkpt>
      <trkpt lat="42.724617971107364" lon="3.035935973748565">
        <ele>-4.67</ele>
        <time>2025-05-16T07:27:55Z</time>
      </trkpt>
      <trkpt lat="42.724696006625891" lon="3.035905966535211">
        <ele>-4.67</ele>
        <time>2025-05-16T07:27:56Z</time>
      </trkpt>
      <trkpt lat="42.724778987467289" lon="3.035874031484127">
        <ele>-4.19</ele>
        <time>2025-05-16T07:27:57Z</time>
      </trkpt>
      <trkpt lat="42.724864985793829" lon="3.035874031484127">
        <ele>-4.19</ele>
        <time>2025-05-16T07:27:58Z</time>
      </trkpt>
      <trkpt lat="42.725250972434878" lon="3.036003028973937">
        <ele>-2.75</ele>
        <time>2025-05-16T07:28:02Z</time>
      </trkpt>
      <trkpt lat="42.725250972434878" lon="3.036003028973937">
        <ele>-2.75</ele>
        <time>2025-05-16T07:28:03Z</time>
      </trkpt>
      <trkpt lat="42.72525298409164" lon="3.036049967631698">
        <ele>-2.75</ele>
        <time>2025-05-16T07:28:04Z</time>
      </trkpt>
      <trkpt lat="42.725256001576781" lon="3.03613998927176">
        <ele>-2.27</ele>
        <time>2025-05-16T07:28:05Z</time>
      </trkpt>
      <trkpt lat="42.725260024890304" lon="3.036247026175261">
        <ele>-2.27</ele>
        <time>2025-05-16T07:28:06Z</time>
      </trkpt>
      <trkpt lat="42.725263964384794" lon="3.036367977038026">
        <ele>-2.27</ele>
        <time>2025-05-16T07:28:07Z</time>
      </trkpt>
      <trkpt lat="42.725321967154741" lon="3.037954000756145">
        <ele>-0.82</ele>
        <time>2025-05-16T07:28:20Z</time>
      </trkpt>
      <trkpt lat="42.725355997681618" lon="3.038851032033563">
        <ele>3.5</ele>
        <time>2025-05-16T07:28:30Z</time>
      </trkpt>
      <trkpt lat="42.725380975753069" lon="3.039042977616191">
        <ele>4.94</ele>
        <time>2025-05-16T07:28:34Z</time>
      </trkpt>
      <trkpt lat="42.725401008501649" lon="3.039050018414855">
        <ele>4.94</ele>
        <time>2025-05-16T07:28:35Z</time>
      </trkpt>
      <trkpt lat="42.725452976301312" lon="3.038982963189483">
        <ele>5.42</ele>
        <time>2025-05-16T07:28:36Z</time>
      </trkpt>
      <trkpt lat="42.725492035970092" lon="3.038980029523373">
        <ele>5.91</ele>
        <time>2025-05-16T07:28:37Z</time>
      </trkpt>
      <trkpt lat="42.725522965192795" lon="3.038977012038231">
        <ele>6.39</ele>
        <time>2025-05-16T07:28:38Z</time>
      </trkpt>
      <trkpt lat="42.725801998749375" lon="3.038924038410187">
        <ele>8.310000000000001</ele>
        <time>2025-05-16T07:28:47Z</time>
      </trkpt>
      <trkpt lat="42.725848015397787" lon="3.038908028975129">
        <ele>8.310000000000001</ele>
        <time>2025-05-16T07:28:48Z</time>
      </trkpt>
      <trkpt lat="42.726234002038836" lon="3.038715999573469">
        <ele>9.75</ele>
        <time>2025-05-16T07:28:56Z</time>
      </trkpt>
      <trkpt lat="42.726552011445165" lon="3.038435960188508">
        <ele>10.23</ele>
        <time>2025-05-16T07:29:06Z</time>
      </trkpt>
      <trkpt lat="42.726731970906258" lon="3.038298999890685">
        <ele>10.710000000000001</ele>
        <time>2025-05-16T07:29:10Z</time>
      </trkpt>
      <trkpt lat="42.726792991161346" lon="3.038303023204207">
        <ele>10.710000000000001</ele>
        <time>2025-05-16T07:29:11Z</time>
      </trkpt>
      <trkpt lat="42.726850993931293" lon="3.038306040689349">
        <ele>10.23</ele>
        <time>2025-05-16T07:29:12Z</time>
      </trkpt>
      <trkpt lat="42.726905979216099" lon="3.038308974355459">
        <ele>10.23</ele>
        <time>2025-05-16T07:29:13Z</time>
      </trkpt>
      <trkpt lat="42.726960964500904" lon="3.038312997668982">
        <ele>9.75</ele>
        <time>2025-05-16T07:29:14Z</time>
      </trkpt>
      <trkpt lat="42.72701402194798" lon="3.038316015154123">
        <ele>9.27</ele>
        <time>2025-05-16T07:29:15Z</time>
      </trkpt>
      <trkpt lat="42.727065989747643" lon="3.038319032639265">
        <ele>9.27</ele>
        <time>2025-05-16T07:29:16Z</time>
      </trkpt>
      <trkpt lat="42.727109994739294" lon="3.038305034860969">
        <ele>9.27</ele>
        <time>2025-05-16T07:29:17Z</time>
      </trkpt>
      <trkpt lat="42.727153999730945" lon="3.038254994899035">
        <ele>9.27</ele>
        <time>2025-05-16T07:29:18Z</time>
      </trkpt>
      <trkpt lat="42.727199010550976" lon="3.038204032927752">
        <ele>9.27</ele>
        <time>2025-05-16T07:29:19Z</time>
      </trkpt>
      <trkpt lat="42.727245027199388" lon="3.038151981309056">
        <ele>9.27</ele>
        <time>2025-05-16T07:29:20Z</time>
      </trkpt>
      <trkpt lat="42.727364972233772" lon="3.038016026839614">
        <ele>8.789999999999999</ele>
        <time>2025-05-16T07:29:23Z</time>
      </trkpt>
      <trkpt lat="42.727396991103888" lon="3.037980990484357">
        <ele>8.789999999999999</ele>
        <time>2025-05-16T07:29:24Z</time>
      </trkpt>
      <trkpt lat="42.727446025237441" lon="3.037994988262653">
        <ele>8.310000000000001</ele>
        <time>2025-05-16T07:29:25Z</time>
      </trkpt>
      <trkpt lat="42.727476032450795" lon="3.038037987425923">
        <ele>7.83</ele>
        <time>2025-05-16T07:29:26Z</time>
      </trkpt>
      <trkpt lat="42.727511990815401" lon="3.038089033216238">
        <ele>7.35</ele>
        <time>2025-05-16T07:29:27Z</time>
      </trkpt>
      <trkpt lat="42.727550966665149" lon="3.038145024329424">
        <ele>7.35</ele>
        <time>2025-05-16T07:29:28Z</time>
      </trkpt>
      <trkpt lat="42.727592037990689" lon="3.038204032927752">
        <ele>6.87</ele>
        <time>2025-05-16T07:29:29Z</time>
      </trkpt>
      <trkpt lat="42.727634031325579" lon="3.038263041526079">
        <ele>6.39</ele>
        <time>2025-05-16T07:29:30Z</time>
      </trkpt>
      <trkpt lat="42.727675018832088" lon="3.038321966305375">
        <ele>5.91</ele>
        <time>2025-05-16T07:29:31Z</time>
      </trkpt>
      <trkpt lat="42.727709971368313" lon="3.03837301209569">
        <ele>5.42</ele>
        <time>2025-05-16T07:29:32Z</time>
      </trkpt>
      <trkpt lat="42.727753976359963" lon="3.038375023752451">
        <ele>5.42</ele>
        <time>2025-05-16T07:29:33Z</time>
      </trkpt>
      <trkpt lat="42.727798987179995" lon="3.038362031802535">
        <ele>5.42</ele>
        <time>2025-05-16T07:29:34Z</time>
      </trkpt>
      <trkpt lat="42.727868976071477" lon="3.038341999053955">
        <ele>4.94</ele>
        <time>2025-05-16T07:29:35Z</time>
      </trkpt>
      <trkpt lat="42.727891020476818" lon="3.038315009325743">
        <ele>5.42</ele>
        <time>2025-05-16T07:29:36Z</time>
      </trkpt>
      <trkpt lat="42.727926978841424" lon="3.038271004334092">
        <ele>5.42</ele>
        <time>2025-05-16T07:29:37Z</time>
      </trkpt>
      <trkpt lat="42.728087995201349" lon="3.038070006296039">
        <ele>3.98</ele>
        <time>2025-05-16T07:29:46Z</time>
      </trkpt>
      <trkpt lat="42.728096963837743" lon="3.038059026002884">
        <ele>3.5</ele>
        <time>2025-05-16T07:29:47Z</time>
      </trkpt>
      <trkpt lat="42.728101992979646" lon="3.0380529910326">
        <ele>3.02</ele>
        <time>2025-05-16T07:29:48Z</time>
      </trkpt>
      <trkpt lat="42.728101992979646" lon="3.0380529910326">
        <ele>2.54</ele>
        <time>2025-05-16T07:30:02Z</time>
      </trkpt>
      <trkpt lat="42.728124037384987" lon="3.038131026551127">
        <ele>4.94</ele>
        <time>2025-05-16T08:06:18Z</time>
      </trkpt>
      <trkpt lat="42.728153960779309" lon="3.038142006844282">
        <ele>6.39</ele>
        <time>2025-05-16T08:07:01Z</time>
      </trkpt>
      <trkpt lat="42.728191008791327" lon="3.038163967430592">
        <ele>10.23</ele>
        <time>2025-05-16T08:07:59Z</time>
      </trkpt>
      <trkpt lat="42.728187991306186" lon="3.03815801627934">
        <ele>9.75</ele>
        <time>2025-05-16T08:08:50Z</time>
      </trkpt>
      <trkpt lat="42.728187991306186" lon="3.03815801627934">
        <ele>9.75</ele>
        <time>2025-05-16T08:09:13Z</time>
      </trkpt>
      <trkpt lat="42.728187991306186" lon="3.038147035986185">
        <ele>9.27</ele>
        <time>2025-05-16T08:09:17Z</time>
      </trkpt>
      <trkpt lat="42.728140968829393" lon="3.038004962727428">
        <ele>8.789999999999999</ele>
        <time>2025-05-16T08:09:19Z</time>
      </trkpt>
      <trkpt lat="42.728167036548257" lon="3.037973027676344">
        <ele>8.789999999999999</ele>
        <time>2025-05-16T08:09:20Z</time>
      </trkpt>
      <trkpt lat="42.72819897159934" lon="3.037932040169835">
        <ele>8.789999999999999</ele>
        <time>2025-05-16T08:09:21Z</time>
      </trkpt>
      <trkpt lat="42.728234007954597" lon="3.037889041006565">
        <ele>8.789999999999999</ele>
        <time>2025-05-16T08:09:22Z</time>
      </trkpt>
      <trkpt lat="42.728339033201337" lon="3.037759037688375">
        <ele>7.35</ele>
        <time>2025-05-16T08:09:25Z</time>
      </trkpt>
      <trkpt lat="42.72845403291285" lon="3.037616964429617">
        <ele>6.39</ele>
        <time>2025-05-16T08:09:29Z</time>
      </trkpt>
      <trkpt lat="42.728490997105837" lon="3.037570025771856">
        <ele>6.39</ele>
        <time>2025-05-16T08:09:30Z</time>
      </trkpt>
      <trkpt lat="42.728466019034386" lon="3.037530966103077">
        <ele>6.39</ele>
        <time>2025-05-16T08:09:31Z</time>
      </trkpt>
      <trkpt lat="42.728429976850748" lon="3.037477992475033">
        <ele>5.91</ele>
        <time>2025-05-16T08:09:32Z</time>
      </trkpt>
      <trkpt lat="42.728391001001" lon="3.037419989705086">
        <ele>5.91</ele>
        <time>2025-05-16T08:09:33Z</time>
      </trkpt>
      <trkpt lat="42.728350013494492" lon="3.037357963621616">
        <ele>5.42</ele>
        <time>2025-05-16T08:09:34Z</time>
      </trkpt>
      <trkpt lat="42.72789697162807" lon="3.036672994494438">
        <ele>3.02</ele>
        <time>2025-05-16T08:09:45Z</time>
      </trkpt>
      <trkpt lat="42.72785497829318" lon="3.03661298006773">
        <ele>3.02</ele>
        <time>2025-05-16T08:09:46Z</time>
      </trkpt>
      <trkpt lat="42.727651968598366" lon="3.036304023116827">
        <ele>2.06</ele>
        <time>2025-05-16T08:09:51Z</time>
      </trkpt>
      <trkpt lat="42.727592960000038" lon="3.036304023116827">
        <ele>2.06</ele>
        <time>2025-05-16T08:09:52Z</time>
      </trkpt>
      <trkpt lat="42.727518025785685" lon="3.036304023116827">
        <ele>2.06</ele>
        <time>2025-05-16T08:09:53Z</time>
      </trkpt>
      <trkpt lat="42.726747980341315" lon="3.036310980096459">
        <ele>-0.34</ele>
        <time>2025-05-16T08:10:03Z</time>
      </trkpt>
      <trkpt lat="42.726094024255872" lon="3.036318020895124">
        <ele>-0.82</ele>
        <time>2025-05-16T08:10:13Z</time>
      </trkpt>
      <trkpt lat="42.725746007636189" lon="3.036261023953557">
        <ele>0.14</ele>
        <time>2025-05-16T08:10:18Z</time>
      </trkpt>
      <trkpt lat="42.725563030689955" lon="3.036169996485114">
        <ele>0.62</ele>
        <time>2025-05-16T08:10:21Z</time>
      </trkpt>
      <trkpt lat="42.725504022091627" lon="3.036140995100141">
        <ele>1.1</ele>
        <time>2025-05-16T08:10:22Z</time>
      </trkpt>
      <trkpt lat="42.725445013493299" lon="3.036110987886787">
        <ele>1.1</ele>
        <time>2025-05-16T08:10:23Z</time>
      </trkpt>
      <trkpt lat="42.725297994911671" lon="3.03603102453053">
        <ele>1.1</ele>
        <time>2025-05-16T08:10:26Z</time>
      </trkpt>
      <trkpt lat="42.725262036547065" lon="3.036009985953569">
        <ele>0.62</ele>
        <time>2025-05-16T08:10:27Z</time>
      </trkpt>
      <trkpt lat="42.725250972434878" lon="3.035966986790299">
        <ele>0.62</ele>
        <time>2025-05-16T08:10:28Z</time>
      </trkpt>
      <trkpt lat="42.725250972434878" lon="3.035913007333875">
        <ele>0.62</ele>
        <time>2025-05-16T08:10:29Z</time>
      </trkpt>
      <trkpt lat="42.725250972434878" lon="3.035874031484127">
        <ele>0.62</ele>
        <time>2025-05-16T08:10:30Z</time>
      </trkpt>
      <trkpt lat="42.725281985476613" lon="3.035793984308839">
        <ele>0.62</ele>
        <time>2025-05-16T08:10:31Z</time>
      </trkpt>
      <trkpt lat="42.725306963548064" lon="3.035728018730879">
        <ele>0.62</ele>
        <time>2025-05-16T08:10:32Z</time>
      </trkpt>
      <trkpt lat="42.725331019610167" lon="3.035668004304171">
        <ele>0.62</ele>
        <time>2025-05-16T08:10:33Z</time>
      </trkpt>
      <trkpt lat="42.725363960489631" lon="3.035591980442405">
        <ele>0.62</ele>
        <time>2025-05-16T08:10:34Z</time>
      </trkpt>
      <trkpt lat="42.725529000163078" lon="3.035406991839409">
        <ele>0.14</ele>
        <time>2025-05-16T08:10:37Z</time>
      </trkpt>
      <trkpt lat="42.725603012368083" lon="3.03538603708148">
        <ele>0.14</ele>
        <time>2025-05-16T08:10:38Z</time>
      </trkpt>
      <trkpt lat="42.725681969895959" lon="3.03536499850452">
        <ele>0.14</ele>
        <time>2025-05-16T08:10:39Z</time>
      </trkpt>
      <trkpt lat="42.72576997987926" lon="3.035358963534236">
        <ele>0.14</ele>
        <time>2025-05-16T08:10:40Z</time>
      </trkpt>
      <trkpt lat="42.725854972377419" lon="3.035358963534236">
        <ele>0.14</ele>
        <time>2025-05-16T08:10:41Z</time>
      </trkpt>
      <trkpt lat="42.726936992257833" lon="3.035358963534236">
        <ele>2.54</ele>
        <time>2025-05-16T08:10:52Z</time>
      </trkpt>
      <trkpt lat="42.727199010550976" lon="3.035358963534236">
        <ele>3.02</ele>
        <time>2025-05-16T08:10:55Z</time>
      </trkpt>
      <trkpt lat="42.727284003049135" lon="3.035358963534236">
        <ele>3.5</ele>
        <time>2025-05-16T08:10:56Z</time>
      </trkpt>
      <trkpt lat="42.728429976850748" lon="3.035338008776307">
        <ele>3.5</ele>
        <time>2025-05-16T08:11:10Z</time>
      </trkpt>
      <trkpt lat="42.728590993210673" lon="3.035355024039745">
        <ele>2.54</ele>
        <time>2025-05-16T08:11:12Z</time>
      </trkpt>
      <trkpt lat="42.729433039203286" lon="3.03558100014925">
        <ele>0.62</ele>
        <time>2025-05-16T08:11:22Z</time>
      </trkpt>
      <trkpt lat="42.730443980544806" lon="3.035573959350586">
        <ele>0.14</ele>
        <time>2025-05-16T08:11:33Z</time>
      </trkpt>
      <trkpt lat="42.731551984325051" lon="3.035530960187316">
        <ele>0.62</ele>
        <time>2025-05-16T08:11:44Z</time>
      </trkpt>
      <trkpt lat="42.731812996789813" lon="3.0355179682374">
        <ele>1.58</ele>
        <time>2025-05-16T08:11:48Z</time>
      </trkpt>
      <trkpt lat="42.731874017044902" lon="3.035514028742909">
        <ele>1.58</ele>
        <time>2025-05-16T08:11:49Z</time>
      </trkpt>
      <trkpt lat="42.73193595930934" lon="3.035511011257768">
        <ele>2.06</ele>
        <time>2025-05-16T08:11:50Z</time>
      </trkpt>
      <trkpt lat="42.73199999704957" lon="3.035507993772626">
        <ele>2.06</ele>
        <time>2025-05-16T08:11:51Z</time>
      </trkpt>
      <trkpt lat="42.732070991769433" lon="3.035504976287484">
        <ele>2.54</ele>
        <time>2025-05-16T08:11:52Z</time>
      </trkpt>
      <trkpt lat="42.733101965859532" lon="3.035443034023047">
        <ele>5.91</ele>
        <time>2025-05-16T08:12:04Z</time>
      </trkpt>
      <trkpt lat="42.733641006052494" lon="3.035401962697506">
        <ele>5.91</ele>
        <time>2025-05-16T08:12:10Z</time>
      </trkpt>
      <trkpt lat="42.733834963291883" lon="3.035297021269798">
        <ele>5.91</ele>
        <time>2025-05-16T08:12:13Z</time>
      </trkpt>
      <trkpt lat="42.733877040445805" lon="3.035273971036077">
        <ele>5.91</ele>
        <time>2025-05-16T08:12:14Z</time>
      </trkpt>
      <trkpt lat="42.733968989923596" lon="3.03527900017798">
        <ele>5.91</ele>
        <time>2025-05-16T08:12:15Z</time>
      </trkpt>
      <trkpt lat="42.734081977978349" lon="3.035162994638085">
        <ele>5.91</ele>
        <time>2025-05-16T08:12:17Z</time>
      </trkpt>
      <trkpt lat="42.734152972698212" lon="3.035156959667802">
        <ele>5.91</ele>
        <time>2025-05-16T08:12:18Z</time>
      </trkpt>
      <trkpt lat="42.734231008216739" lon="3.03515000268817">
        <ele>6.39</ele>
        <time>2025-05-16T08:12:19Z</time>
      </trkpt>
      <trkpt lat="42.73524303920567" lon="3.035209011286497">
        <ele>5.91</ele>
        <time>2025-05-16T08:12:33Z</time>
      </trkpt>
      <trkpt lat="42.736049965023994" lon="3.035230971872807">
        <ele>4.94</ele>
        <time>2025-05-16T08:12:46Z</time>
      </trkpt>
      <trkpt lat="42.736071003600955" lon="3.035230971872807">
        <ele>4.46</ele>
        <time>2025-05-16T08:12:47Z</time>
      </trkpt>
      <trkpt lat="42.736071003600955" lon="3.035230971872807">
        <ele>4.46</ele>
        <time>2025-05-16T08:12:57Z</time>
      </trkpt>
      <trkpt lat="42.736071003600955" lon="3.035230971872807">
        <ele>3.98</ele>
        <time>2025-05-16T08:13:00Z</time>
      </trkpt>
      <trkpt lat="42.736216010525823" lon="3.035230971872807">
        <ele>3.98</ele>
        <time>2025-05-16T08:13:01Z</time>
      </trkpt>
      <trkpt lat="42.736216010525823" lon="3.035230971872807">
        <ele>3.5</ele>
        <time>2025-05-16T08:13:02Z</time>
      </trkpt>
      <trkpt lat="42.736092964187264" lon="3.035230971872807">
        <ele>3.02</ele>
        <time>2025-05-16T08:13:03Z</time>
      </trkpt>
      <trkpt lat="42.736078966408968" lon="3.035230971872807">
        <ele>2.54</ele>
        <time>2025-05-16T08:13:04Z</time>
      </trkpt>
      <trkpt lat="42.736061029136181" lon="3.035230971872807">
        <ele>1.58</ele>
        <time>2025-05-16T08:13:05Z</time>
      </trkpt>
      <trkpt lat="42.736034961417317" lon="3.035230971872807">
        <ele>1.58</ele>
        <time>2025-05-16T08:13:06Z</time>
      </trkpt>
      <trkpt lat="42.735989028587937" lon="3.035230971872807">
        <ele>0.62</ele>
        <time>2025-05-16T08:13:07Z</time>
      </trkpt>
      <trkpt lat="42.735916022211313" lon="3.035230971872807">
        <ele>0.14</ele>
        <time>2025-05-16T08:13:08Z</time>
      </trkpt>
      <trkpt lat="42.735855001956224" lon="3.035230971872807">
        <ele>0.14</ele>
        <time>2025-05-16T08:13:09Z</time>
      </trkpt>
      <trkpt lat="42.735775038599968" lon="3.035230971872807">
        <ele>0.14</ele>
        <time>2025-05-16T08:13:10Z</time>
      </trkpt>
      <trkpt lat="42.734896028414369" lon="3.035167017951608">
        <ele>1.1</ele>
        <time>2025-05-16T08:13:21Z</time>
      </trkpt>
      <trkpt lat="42.734174011275172" lon="3.035155031830072">
        <ele>1.1</ele>
        <time>2025-05-16T08:13:31Z</time>
      </trkpt>
      <trkpt lat="42.734030010178685" lon="3.035142039880157">
        <ele>1.58</ele>
        <time>2025-05-16T08:13:33Z</time>
      </trkpt>
      <trkpt lat="42.734001008793712" lon="3.035102980211377">
        <ele>1.1</ele>
        <time>2025-05-16T08:13:34Z</time>
      </trkpt>
      <trkpt lat="42.733990028500557" lon="3.034983035176992">
        <ele>1.1</ele>
        <time>2025-05-16T08:13:35Z</time>
      </trkpt>
      <trkpt lat="42.733993967995048" lon="3.034910028800368">
        <ele>1.58</ele>
        <time>2025-05-16T08:13:36Z</time>
      </trkpt>
      <trkpt lat="42.73399899713695" lon="3.034825958311558">
        <ele>1.58</ele>
        <time>2025-05-16T08:13:37Z</time>
      </trkpt>
      <trkpt lat="42.734003020450473" lon="3.034739037975669">
        <ele>1.58</ele>
        <time>2025-05-16T08:13:38Z</time>
      </trkpt>
      <trkpt lat="42.734012994915247" lon="3.034565029665828">
        <ele>1.58</ele>
        <time>2025-05-16T08:13:40Z</time>
      </trkpt>
      <trkpt lat="42.73401802405715" lon="3.034480037167668">
        <ele>1.1</ele>
        <time>2025-05-16T08:13:41Z</time>
      </trkpt>
      <trkpt lat="42.734022969380021" lon="3.034394960850477">
        <ele>1.1</ele>
        <time>2025-05-16T08:13:42Z</time>
      </trkpt>
      <trkpt lat="42.734087007120252" lon="3.03323901258409">
        <ele>0.62</ele>
        <time>2025-05-16T08:13:53Z</time>
      </trkpt>
      <trkpt lat="42.734161019325256" lon="3.03201399743557">
        <ele>1.58</ele>
        <time>2025-05-16T08:14:05Z</time>
      </trkpt>
      <trkpt lat="42.734235031530261" lon="3.030825024470687">
        <ele>1.58</ele>
        <time>2025-05-16T08:14:16Z</time>
      </trkpt>
      <trkpt lat="42.734278030693531" lon="3.03012203425169">
        <ele>0.62</ele>
        <time>2025-05-16T08:14:24Z</time>
      </trkpt>
      <trkpt lat="42.734284987673163" lon="3.03003603592515">
        <ele>0.62</ele>
        <time>2025-05-16T08:14:25Z</time>
      </trkpt>
      <trkpt lat="42.73427702486515" lon="3.029936961829662">
        <ele>0.62</ele>
        <time>2025-05-16T08:14:26Z</time>
      </trkpt>
      <trkpt lat="42.734267972409725" lon="3.029837971553206">
        <ele>1.1</ele>
        <time>2025-05-16T08:14:27Z</time>
      </trkpt>
      <trkpt lat="42.734252968803048" lon="3.029749039560556">
        <ele>1.1</ele>
        <time>2025-05-16T08:14:28Z</time>
      </trkpt>
      <trkpt lat="42.734222961589694" lon="3.029653988778591">
        <ele>1.1</ele>
        <time>2025-05-16T08:14:29Z</time>
      </trkpt>
      <trkpt lat="42.73419396020472" lon="3.029563967138529">
        <ele>1.1</ele>
        <time>2025-05-16T08:14:30Z</time>
      </trkpt>
      <trkpt lat="42.734142998233438" lon="3.029403034597635">
        <ele>0.62</ele>
        <time>2025-05-16T08:14:32Z</time>
      </trkpt>
      <trkpt lat="42.734118020161986" lon="3.029327010735869">
        <ele>0.62</ele>
        <time>2025-05-16T08:14:33Z</time>
      </trkpt>
      <trkpt lat="42.734135035425425" lon="3.029127018526197">
        <ele>0.62</ele>
        <time>2025-05-16T08:14:35Z</time>
      </trkpt>
      <trkpt lat="42.734116008505225" lon="3.02898402325809">
        <ele>0.62</ele>
        <time>2025-05-16T08:14:36Z</time>
      </trkpt>
      <trkpt lat="42.734058005735278" lon="3.028912022709847">
        <ele>0.62</ele>
        <time>2025-05-16T08:14:37Z</time>
      </trkpt>
      <trkpt lat="42.7339549921453" lon="3.028846979141235">
        <ele>0.14</ele>
        <time>2025-05-16T08:14:38Z</time>
      </trkpt>
      <trkpt lat="42.733942000195384" lon="3.028750000521541">
        <ele>0.14</ele>
        <time>2025-05-16T08:14:39Z</time>
      </trkpt>
      <trkpt lat="42.733937976881862" lon="3.028612034395337">
        <ele>-0.34</ele>
        <time>2025-05-16T08:14:40Z</time>
      </trkpt>
      <trkpt lat="42.733900006860495" lon="3.028498040512204">
        <ele>-0.34</ele>
        <time>2025-05-16T08:14:41Z</time>
      </trkpt>
      <trkpt lat="42.73384896107018" lon="3.02838203497231">
        <ele>0.14</ele>
        <time>2025-05-16T08:14:42Z</time>
      </trkpt>
      <trkpt lat="42.733787018805742" lon="3.028282960876823">
        <ele>0.14</ele>
        <time>2025-05-16T08:14:43Z</time>
      </trkpt>
      <trkpt lat="42.733728010207415" lon="3.028185982257128">
        <ele>0.14</ele>
        <time>2025-05-16T08:14:44Z</time>
      </trkpt>
      <trkpt lat="42.733098026365042" lon="3.027322981506586">
        <ele>0.14</ele>
        <time>2025-05-16T08:14:54Z</time>
      </trkpt>
      <trkpt lat="42.732646996155381" lon="3.026709007099271">
        <ele>1.1</ele>
        <time>2025-05-16T08:15:01Z</time>
      </trkpt>
      <trkpt lat="42.732543982565403" lon="3.02660096436739">
        <ele>2.06</ele>
        <time>2025-05-16T08:15:08Z</time>
      </trkpt>
      <trkpt lat="42.732537025585771" lon="3.026409018784761">
        <ele>2.06</ele>
        <time>2025-05-16T08:15:18Z</time>
      </trkpt>
      <trkpt lat="42.732568038627505" lon="3.026334000751376">
        <ele>2.06</ele>
        <time>2025-05-16T08:15:19Z</time>
      </trkpt>
      <trkpt lat="42.732589999213815" lon="3.026283038780093">
        <ele>2.06</ele>
        <time>2025-05-16T08:15:20Z</time>
      </trkpt>
      <trkpt lat="42.732683960348368" lon="3.026203997433186">
        <ele>2.06</ele>
        <time>2025-05-16T08:15:21Z</time>
      </trkpt>
      <trkpt lat="42.732761995866895" lon="3.026139037683606">
        <ele>1.58</ele>
        <time>2025-05-16T08:15:22Z</time>
      </trkpt>
      <trkpt lat="42.732853023335338" lon="3.026066031306982">
        <ele>1.1</ele>
        <time>2025-05-16T08:15:23Z</time>
      </trkpt>
      <trkpt lat="42.732961988076568" lon="3.026025965809822">
        <ele>1.1</ele>
        <time>2025-05-16T08:15:24Z</time>
      </trkpt>
      <trkpt lat="42.745391009375453" lon="3.022977970540524">
        <ele>3.98</ele>
        <time>2025-05-16T08:16:48Z</time>
      </trkpt>
      <trkpt lat="42.747798040509224" lon="3.02245301194489">
        <ele>3.02</ele>
        <time>2025-05-16T08:17:02Z</time>
      </trkpt>
      <trkpt lat="42.749346010386944" lon="3.022114969789982">
        <ele>3.5</ele>
        <time>2025-05-16T08:17:10Z</time>
      </trkpt>
      <trkpt lat="42.752103991806507" lon="3.021511975675821">
        <ele>4.94</ele>
        <time>2025-05-16T08:17:26Z</time>
      </trkpt>
      <trkpt lat="42.754286974668503" lon="3.021029010415077">
        <ele>4.94</ele>
        <time>2025-05-16T08:17:39Z</time>
      </trkpt>
      <trkpt lat="42.757135983556509" lon="3.020403971895576">
        <ele>4.94</ele>
        <time>2025-05-16T08:17:54Z</time>
      </trkpt>
      <trkpt lat="42.758820997551084" lon="3.020033994689584">
        <ele>4.46</ele>
        <time>2025-05-16T08:18:05Z</time>
      </trkpt>
      <trkpt lat="42.760311970487237" lon="3.01972302608192">
        <ele>4.94</ele>
        <time>2025-05-16T08:18:15Z</time>
      </trkpt>
      <trkpt lat="42.761513013392687" lon="3.019577013328672">
        <ele>5.42</ele>
        <time>2025-05-16T08:18:26Z</time>
      </trkpt>
      <trkpt lat="42.761709988117218" lon="3.019584976136684">
        <ele>5.42</ele>
        <time>2025-05-16T08:18:29Z</time>
      </trkpt>
      <trkpt lat="42.761773020029068" lon="3.01959402859211">
        <ele>5.42</ele>
        <time>2025-05-16T08:18:30Z</time>
      </trkpt>
      <trkpt lat="42.761878967285156" lon="3.019609032198787">
        <ele>4.94</ele>
        <time>2025-05-16T08:18:31Z</time>
      </trkpt>
      <trkpt lat="42.761987010017037" lon="3.019738029688597">
        <ele>4.94</ele>
        <time>2025-05-16T08:18:33Z</time>
      </trkpt>
      <trkpt lat="42.762069990858436" lon="3.019758984446526">
        <ele>4.94</ele>
        <time>2025-05-16T08:18:34Z</time>
      </trkpt>
      <trkpt lat="42.762160012498498" lon="3.019780023023486">
        <ele>4.94</ele>
        <time>2025-05-16T08:18:35Z</time>
      </trkpt>
      <trkpt lat="42.762232013046741" lon="3.0197240319103">
        <ele>4.94</ele>
        <time>2025-05-16T08:18:36Z</time>
      </trkpt>
      <trkpt lat="42.76231499388814" lon="3.01965999417007">
        <ele>4.46</ele>
        <time>2025-05-16T08:18:37Z</time>
      </trkpt>
      <trkpt lat="42.762394035235047" lon="3.019501995295286">
        <ele>4.46</ele>
        <time>2025-05-16T08:18:38Z</time>
      </trkpt>
      <trkpt lat="42.762452038004994" lon="3.019455978646874">
        <ele>3.98</ele>
        <time>2025-05-16T08:18:39Z</time>
      </trkpt>
      <trkpt lat="42.762536024674773" lon="3.019389007240534">
        <ele>3.98</ele>
        <time>2025-05-16T08:18:40Z</time>
      </trkpt>
      <trkpt lat="42.762624034658074" lon="3.019326981157064">
        <ele>3.5</ele>
        <time>2025-05-16T08:18:41Z</time>
      </trkpt>
      <trkpt lat="42.762725036591291" lon="3.019302003085613">
        <ele>3.5</ele>
        <time>2025-05-16T08:18:42Z</time>
      </trkpt>
      <trkpt lat="42.762829978018999" lon="3.019275013357401">
        <ele>3.5</ele>
        <time>2025-05-16T08:18:43Z</time>
      </trkpt>
      <trkpt lat="42.762939026579261" lon="3.019248023629189">
        <ele>3.98</ele>
        <time>2025-05-16T08:18:44Z</time>
      </trkpt>
      <trkpt lat="42.764052981510758" lon="3.018905036151409">
        <ele>3.98</ele>
        <time>2025-05-16T08:18:52Z</time>
      </trkpt>
      <trkpt lat="42.765980986878276" lon="3.018458029255271">
        <ele>4.94</ele>
        <time>2025-05-16T08:19:04Z</time>
      </trkpt>
      <trkpt lat="42.767892982810736" lon="3.01802895963192">
        <ele>6.39</ele>
        <time>2025-05-16T08:19:16Z</time>
      </trkpt>
      <trkpt lat="42.769439024850726" lon="3.01768203265965">
        <ele>8.789999999999999</ele>
        <time>2025-05-16T08:19:27Z</time>
      </trkpt>
      <trkpt lat="42.771081039682031" lon="3.017338961362839">
        <ele>9.75</ele>
        <time>2025-05-16T08:19:39Z</time>
      </trkpt>
      <trkpt lat="42.772840987890959" lon="3.016943000257015">
        <ele>8.789999999999999</ele>
        <time>2025-05-16T08:19:52Z</time>
      </trkpt>
      <trkpt lat="42.774299019947648" lon="3.016620967537165">
        <ele>7.35</ele>
        <time>2025-05-16T08:20:01Z</time>
      </trkpt>
      <trkpt lat="42.77656096033752" lon="3.016113024204969">
        <ele>4.46</ele>
        <time>2025-05-16T08:20:14Z</time>
      </trkpt>
      <trkpt lat="42.778555015102029" lon="3.015682026743889">
        <ele>3.5</ele>
        <time>2025-05-16T08:20:26Z</time>
      </trkpt>
      <trkpt lat="42.780288979411125" lon="3.015302997082472">
        <ele>3.5</ele>
        <time>2025-05-16T08:20:38Z</time>
      </trkpt>
      <trkpt lat="42.781293969601393" lon="3.015082972124219">
        <ele>3.5</ele>
        <time>2025-05-16T08:20:46Z</time>
      </trkpt>
      <trkpt lat="42.782484032213688" lon="3.014809973537922">
        <ele>3.02</ele>
        <time>2025-05-16T08:20:54Z</time>
      </trkpt>
      <trkpt lat="42.784147001802921" lon="3.014736967161298">
        <ele>3.5</ele>
        <time>2025-05-16T08:21:04Z</time>
      </trkpt>
      <trkpt lat="42.784323021769524" lon="3.014794969931245">
        <ele>3.5</ele>
        <time>2025-05-16T08:21:05Z</time>
      </trkpt>
      <trkpt lat="42.784495018422604" lon="3.014859007671475">
        <ele>3.5</ele>
        <time>2025-05-16T08:21:06Z</time>
      </trkpt>
      <trkpt lat="42.785850036889315" lon="3.015877995640039">
        <ele>3.5</ele>
        <time>2025-05-16T08:21:14Z</time>
      </trkpt>
      <trkpt lat="42.786595020443201" lon="3.01721197552979">
        <ele>3.02</ele>
        <time>2025-05-16T08:21:20Z</time>
      </trkpt>
      <trkpt lat="42.787274960428476" lon="3.019375009462237">
        <ele>2.54</ele>
        <time>2025-05-16T08:21:28Z</time>
      </trkpt>
      <trkpt lat="42.788261007517576" lon="3.021436035633087">
        <ele>1.58</ele>
        <time>2025-05-16T08:21:36Z</time>
      </trkpt>
      <trkpt lat="42.78964402154088" lon="3.023168994113803">
        <ele>1.58</ele>
        <time>2025-05-16T08:21:44Z</time>
      </trkpt>
      <trkpt lat="42.791087972000241" lon="3.024288984015584">
        <ele>1.58</ele>
        <time>2025-05-16T08:21:51Z</time>
      </trkpt>
      <trkpt lat="42.792831994593143" lon="3.025150978937745">
        <ele>3.02</ele>
        <time>2025-05-16T08:21:59Z</time>
      </trkpt>
      <trkpt lat="42.793058976531029" lon="3.02524602971971">
        <ele>3.98</ele>
        <time>2025-05-16T08:22:00Z</time>
      </trkpt>
      <trkpt lat="42.795031992718577" lon="3.026184970512986">
        <ele>4.94</ele>
        <time>2025-05-16T08:22:09Z</time>
      </trkpt>
      <trkpt lat="42.796663027256727" lon="3.027256010100246">
        <ele>4.94</ele>
        <time>2025-05-16T08:22:18Z</time>
      </trkpt>
      <trkpt lat="42.799041979014874" lon="3.028788976371288">
        <ele>4.94</ele>
        <time>2025-05-16T08:22:31Z</time>
      </trkpt>
      <trkpt lat="42.801080038771033" lon="3.029845012351871">
        <ele>5.42</ele>
        <time>2025-05-16T08:22:41Z</time>
      </trkpt>
      <trkpt lat="42.804143037647009" lon="3.030855031684041">
        <ele>6.87</ele>
        <time>2025-05-16T08:22:55Z</time>
      </trkpt>
      <trkpt lat="42.806645035743713" lon="3.031192990019918">
        <ele>8.789999999999999</ele>
        <time>2025-05-16T08:23:07Z</time>
      </trkpt>
      <trkpt lat="42.809223979711533" lon="3.031172035261989">
        <ele>1.58</ele>
        <time>2025-05-16T08:23:19Z</time>
      </trkpt>
      <trkpt lat="42.812429973855615" lon="3.030948992818594">
        <ele>2.06</ele>
        <time>2025-05-16T08:23:34Z</time>
      </trkpt>
      <trkpt lat="42.81531997025013" lon="3.030753023922443">
        <ele>3.98</ele>
        <time>2025-05-16T08:23:47Z</time>
      </trkpt>
      <trkpt lat="42.818285990506411" lon="3.030582033097744">
        <ele>3.02</ele>
        <time>2025-05-16T08:24:00Z</time>
      </trkpt>
      <trkpt lat="42.820774996653199" lon="3.031031973659992">
        <ele>3.98</ele>
        <time>2025-05-16T08:24:11Z</time>
      </trkpt>
      <trkpt lat="42.822052985429764" lon="3.031575959175825">
        <ele>5.91</ele>
        <time>2025-05-16T08:24:18Z</time>
      </trkpt>
      <trkpt lat="42.823104998096824" lon="3.0322490260005">
        <ele>6.87</ele>
        <time>2025-05-16T08:24:25Z</time>
      </trkpt>
      <trkpt lat="42.823635991662741" lon="3.032869035378099">
        <ele>4.46</ele>
        <time>2025-05-16T08:24:30Z</time>
      </trkpt>
      <trkpt lat="42.823692988604307" lon="3.03300297819078">
        <ele>3.5</ele>
        <time>2025-05-16T08:24:31Z</time>
      </trkpt>
      <trkpt lat="42.82371997833252" lon="3.033128036186099">
        <ele>3.02</ele>
        <time>2025-05-16T08:24:32Z</time>
      </trkpt>
      <trkpt lat="42.823700029402971" lon="3.033266002312303">
        <ele>2.54</ele>
        <time>2025-05-16T08:24:33Z</time>
      </trkpt>
      <trkpt lat="42.823679996654391" lon="3.033400028944016">
        <ele>2.06</ele>
        <time>2025-05-16T08:24:34Z</time>
      </trkpt>
      <trkpt lat="42.823659963905811" lon="3.033536989241839">
        <ele>1.1</ele>
        <time>2025-05-16T08:24:35Z</time>
      </trkpt>
      <trkpt lat="42.823472041636705" lon="3.034322038292885">
        <ele>-0.34</ele>
        <time>2025-05-16T08:24:41Z</time>
      </trkpt>
      <trkpt lat="42.823413033038378" lon="3.034425973892212">
        <ele>-0.82</ele>
        <time>2025-05-16T08:24:42Z</time>
      </trkpt>
      <trkpt lat="42.82335402444005" lon="3.034514989703894">
        <ele>-1.3</ele>
        <time>2025-05-16T08:24:43Z</time>
      </trkpt>
      <trkpt lat="42.823312031105161" lon="3.034606017172337">
        <ele>-1.79</ele>
        <time>2025-05-16T08:24:44Z</time>
      </trkpt>
      <trkpt lat="42.823280012235045" lon="3.034692015498877">
        <ele>-2.27</ele>
        <time>2025-05-16T08:24:45Z</time>
      </trkpt>
      <trkpt lat="42.823278000578284" lon="3.034827969968319">
        <ele>-2.27</ele>
        <time>2025-05-16T08:24:46Z</time>
      </trkpt>
      <trkpt lat="42.823322005569935" lon="3.034897958859801">
        <ele>-2.27</ele>
        <time>2025-05-16T08:24:47Z</time>
      </trkpt>
      <trkpt lat="42.823411021381617" lon="3.034943975508213">
        <ele>-2.75</ele>
        <time>2025-05-16T08:24:48Z</time>
      </trkpt>
      <trkpt lat="42.823481010273099" lon="3.034934001043439">
        <ele>-2.75</ele>
        <time>2025-05-16T08:24:49Z</time>
      </trkpt>
      <trkpt lat="42.82350598834455" lon="3.034929977729917">
        <ele>-2.75</ele>
        <time>2025-05-16T08:24:50Z</time>
      </trkpt>
      <trkpt lat="42.823646971955895" lon="3.034810032695532">
        <ele>-2.75</ele>
        <time>2025-05-16T08:24:51Z</time>
      </trkpt>
      <trkpt lat="42.823727019131184" lon="3.03482998162508">
        <ele>-2.75</ele>
        <time>2025-05-16T08:24:52Z</time>
      </trkpt>
      <trkpt lat="42.823814023286104" lon="3.034851020202041">
        <ele>-2.75</ele>
        <time>2025-05-16T08:24:53Z</time>
      </trkpt>
      <trkpt lat="42.823907984420657" lon="3.034873986616731">
        <ele>-2.27</ele>
        <time>2025-05-16T08:24:54Z</time>
      </trkpt>
      <trkpt lat="42.824761010706425" lon="3.035072972998023">
        <ele>-1.3</ele>
        <time>2025-05-16T08:25:02Z</time>
      </trkpt>
      <trkpt lat="42.824867041781545" lon="3.035097029060125">
        <ele>-0.34</ele>
        <time>2025-05-16T08:25:03Z</time>
      </trkpt>
      <trkpt lat="42.825638009235263" lon="3.035275982692838">
        <ele>2.54</ele>
        <time>2025-05-16T08:25:11Z</time>
      </trkpt>
      <trkpt lat="42.825829032808542" lon="3.035320993512869">
        <ele>3.5</ele>
        <time>2025-05-16T08:25:13Z</time>
      </trkpt>
      <trkpt lat="42.826043022796512" lon="3.035371033474803">
        <ele>3.5</ele>
        <time>2025-05-16T08:25:15Z</time>
      </trkpt>
      <trkpt lat="42.82614997588098" lon="3.035396011546254">
        <ele>3.02</ele>
        <time>2025-05-16T08:25:16Z</time>
      </trkpt>
      <trkpt lat="42.82670795917511" lon="3.035526014864445">
        <ele>1.1</ele>
        <time>2025-05-16T08:25:21Z</time>
      </trkpt>
      <trkpt lat="42.827140968292952" lon="3.035628022626042">
        <ele>0.14</ele>
        <time>2025-05-16T08:25:25Z</time>
      </trkpt>
      <trkpt lat="42.827239036560059" lon="3.035650989040732">
        <ele>-0.34</ele>
        <time>2025-05-16T08:25:26Z</time>
      </trkpt>
      <trkpt lat="42.827340038493276" lon="3.035674039274454">
        <ele>-0.34</ele>
        <time>2025-05-16T08:25:27Z</time>
      </trkpt>
      <trkpt lat="42.827449003234506" lon="3.035700023174286">
        <ele>-0.82</ele>
        <time>2025-05-16T08:25:28Z</time>
      </trkpt>
      <trkpt lat="42.827556962147355" lon="3.035725001245737">
        <ele>-0.82</ele>
        <time>2025-05-16T08:25:29Z</time>
      </trkpt>
      <trkpt lat="42.827765000984073" lon="3.035774035379291">
        <ele>-1.3</ele>
        <time>2025-05-16T08:25:31Z</time>
      </trkpt>
      <trkpt lat="42.827862985432148" lon="3.0357959959656">
        <ele>-0.82</ele>
        <time>2025-05-16T08:25:32Z</time>
      </trkpt>
      <trkpt lat="42.827957030385733" lon="3.035818040370941">
        <ele>-0.82</ele>
        <time>2025-05-16T08:25:33Z</time>
      </trkpt>
      <trkpt lat="42.828043028712273" lon="3.035841006785631">
        <ele>-0.34</ele>
        <time>2025-05-16T08:25:34Z</time>
      </trkpt>
      <trkpt lat="42.828121986240149" lon="3.035864979028702">
        <ele>0.62</ele>
        <time>2025-05-16T08:25:35Z</time>
      </trkpt>
      <trkpt lat="42.828194992616773" lon="3.035888029262424">
        <ele>1.1</ele>
        <time>2025-05-16T08:25:36Z</time>
      </trkpt>
      <trkpt lat="42.828264981508255" lon="3.035908984020352">
        <ele>1.58</ele>
        <time>2025-05-16T08:25:37Z</time>
      </trkpt>
      <trkpt lat="42.828320972621441" lon="3.035957012325525">
        <ele>2.06</ele>
        <time>2025-05-16T08:25:38Z</time>
      </trkpt>
      <trkpt lat="42.828376041725278" lon="3.036029012873769">
        <ele>2.54</ele>
        <time>2025-05-16T08:25:39Z</time>
      </trkpt>
      <trkpt lat="42.828432032838464" lon="3.036104030907154">
        <ele>3.02</ele>
        <time>2025-05-16T08:25:40Z</time>
      </trkpt>
      <trkpt lat="42.829012982547283" lon="3.036912968382239">
        <ele>3.5</ele>
        <time>2025-05-16T08:25:50Z</time>
      </trkpt>
      <trkpt lat="42.829054975882173" lon="3.036995027214289">
        <ele>3.98</ele>
        <time>2025-05-16T08:25:51Z</time>
      </trkpt>
      <trkpt lat="42.829096969217062" lon="3.037078008055687">
        <ele>3.98</ele>
        <time>2025-05-16T08:25:52Z</time>
      </trkpt>
      <trkpt lat="42.829127982258797" lon="3.037170041352511">
        <ele>3.98</ele>
        <time>2025-05-16T08:25:53Z</time>
      </trkpt>
      <trkpt lat="42.829128988087177" lon="3.037291998043656">
        <ele>3.98</ele>
        <time>2025-05-16T08:25:54Z</time>
      </trkpt>
      <trkpt lat="42.829168969765306" lon="3.037352012470365">
        <ele>3.98</ele>
        <time>2025-05-16T08:25:55Z</time>
      </trkpt>
      <trkpt lat="42.82921900972724" lon="3.037371039390564">
        <ele>3.98</ele>
        <time>2025-05-16T08:25:56Z</time>
      </trkpt>
      <trkpt lat="42.829235019162297" lon="3.037375984713435">
        <ele>3.98</ele>
        <time>2025-05-16T08:25:57Z</time>
      </trkpt>
      <trkpt lat="42.829261003062129" lon="3.037357041612268">
        <ele>3.5</ele>
        <time>2025-05-16T08:25:59Z</time>
      </trkpt>
      <trkpt lat="42.829279024153948" lon="3.037342960014939">
        <ele>3.5</ele>
        <time>2025-05-16T08:26:00Z</time>
      </trkpt>
      <trkpt lat="42.829302996397018" lon="3.037325022742152">
        <ele>3.02</ele>
        <time>2025-05-16T08:26:01Z</time>
      </trkpt>
      <trkpt lat="42.829450014978647" lon="3.037290992215276">
        <ele>2.06</ele>
        <time>2025-05-16T08:26:05Z</time>
      </trkpt>
      <trkpt lat="42.829487985000014" lon="3.037345977500081">
        <ele>1.58</ele>
        <time>2025-05-16T08:26:06Z</time>
      </trkpt>
      <trkpt lat="42.829522015526891" lon="3.037394005805254">
        <ele>1.58</ele>
        <time>2025-05-16T08:26:07Z</time>
      </trkpt>
      <trkpt lat="42.829559985548258" lon="3.037448991090059">
        <ele>1.58</ele>
        <time>2025-05-16T08:26:08Z</time>
      </trkpt>
      <trkpt lat="42.829599967226386" lon="3.037504982203245">
        <ele>1.58</ele>
        <time>2025-05-16T08:26:09Z</time>
      </trkpt>
      <trkpt lat="42.829640032723546" lon="3.037561979144812">
        <ele>1.58</ele>
        <time>2025-05-16T08:26:10Z</time>
      </trkpt>
      <trkpt lat="42.830183012410998" lon="3.038332024589181">
        <ele>3.02</ele>
        <time>2025-05-16T08:26:20Z</time>
      </trkpt>
      <trkpt lat="42.83031796105206" lon="3.038465967401862">
        <ele>3.02</ele>
        <time>2025-05-16T08:26:22Z</time>
      </trkpt>
      <trkpt lat="42.830394990742207" lon="3.038490023463965">
        <ele>3.02</ele>
        <time>2025-05-16T08:26:23Z</time>
      </trkpt>
      <trkpt lat="42.830473026260734" lon="3.038513995707035">
        <ele>2.54</ele>
        <time>2025-05-16T08:26:24Z</time>
      </trkpt>
      <trkpt lat="42.831110972911119" lon="3.038618015125394">
        <ele>4.46</ele>
        <time>2025-05-16T08:26:32Z</time>
      </trkpt>
      <trkpt lat="42.831266960129142" lon="3.038636036217213">
        <ele>4.46</ele>
        <time>2025-05-16T08:26:34Z</time>
      </trkpt>
      <trkpt lat="42.831426970660686" lon="3.038691021502018">
        <ele>3.5</ele>
        <time>2025-05-16T08:26:36Z</time>
      </trkpt>
      <trkpt lat="42.831510035321116" lon="3.038727985695005">
        <ele>3.02</ele>
        <time>2025-05-16T08:26:37Z</time>
      </trkpt>
      <trkpt lat="42.831573989242315" lon="3.038813984021545">
        <ele>3.02</ele>
        <time>2025-05-16T08:26:38Z</time>
      </trkpt>
      <trkpt lat="42.83199199475348" lon="3.039381019771099">
        <ele>2.06</ele>
        <time>2025-05-16T08:26:45Z</time>
      </trkpt>
      <trkpt lat="42.832037005573511" lon="3.039442962035537">
        <ele>1.58</ele>
        <time>2025-05-16T08:26:46Z</time>
      </trkpt>
      <trkpt lat="42.832183018326759" lon="3.039616970345378">
        <ele>1.1</ele>
        <time>2025-05-16T08:26:49Z</time>
      </trkpt>
      <trkpt lat="42.832239009439945" lon="3.039633985608816">
        <ele>1.1</ele>
        <time>2025-05-16T08:26:50Z</time>
      </trkpt>
      <trkpt lat="42.832297012209892" lon="3.039652006700635">
        <ele>1.1</ele>
        <time>2025-05-16T08:26:51Z</time>
      </trkpt>
      <trkpt lat="42.832351997494698" lon="3.039669021964073">
        <ele>1.1</ele>
        <time>2025-05-16T08:26:52Z</time>
      </trkpt>
      <trkpt lat="42.832431960850954" lon="3.039694000035524">
        <ele>1.1</ele>
        <time>2025-05-16T08:26:53Z</time>
      </trkpt>
      <trkpt lat="42.832477977499366" lon="3.039696011692286">
        <ele>1.1</ele>
        <time>2025-05-16T08:26:54Z</time>
      </trkpt>
      <trkpt lat="42.833176022395492" lon="3.039750996977091">
        <ele>2.54</ele>
        <time>2025-05-16T08:27:05Z</time>
      </trkpt>
      <trkpt lat="42.833722019568086" lon="3.0397919844836">
        <ele>4.46</ele>
        <time>2025-05-16T08:27:13Z</time>
      </trkpt>
      <trkpt lat="42.83401396125555" lon="3.03981302306056">
        <ele>5.42</ele>
        <time>2025-05-16T08:27:18Z</time>
      </trkpt>
      <trkpt lat="42.834459962323308" lon="3.039844036102295">
        <ele>6.39</ele>
        <time>2025-05-16T08:27:25Z</time>
      </trkpt>
      <trkpt lat="42.835293039679527" lon="3.039929028600454">
        <ele>4.94</ele>
        <time>2025-05-16T08:27:34Z</time>
      </trkpt>
      <trkpt lat="42.835586993023753" lon="3.039950989186764">
        <ele>4.94</ele>
        <time>2025-05-16T08:27:37Z</time>
      </trkpt>
      <trkpt lat="42.835696963593364" lon="3.040061965584755">
        <ele>4.94</ele>
        <time>2025-05-16T08:27:38Z</time>
      </trkpt>
      <trkpt lat="42.835795031860471" lon="3.040159028023481">
        <ele>4.94</ele>
        <time>2025-05-16T08:27:39Z</time>
      </trkpt>
      <trkpt lat="42.835892010480165" lon="3.040257012471557">
        <ele>4.94</ele>
        <time>2025-05-16T08:27:40Z</time>
      </trkpt>
      <trkpt lat="42.835993012413383" lon="3.040342004969716">
        <ele>5.42</ele>
        <time>2025-05-16T08:27:41Z</time>
      </trkpt>
      <trkpt lat="42.83609502017498" lon="3.040362037718296">
        <ele>5.42</ele>
        <time>2025-05-16T08:27:42Z</time>
      </trkpt>
      <trkpt lat="42.836201973259449" lon="3.040380980819464">
        <ele>5.91</ele>
        <time>2025-05-16T08:27:43Z</time>
      </trkpt>
      <trkpt lat="42.836316972970963" lon="3.040388021618128">
        <ele>6.39</ele>
        <time>2025-05-16T08:27:44Z</time>
      </trkpt>
      <trkpt lat="42.837662016972899" lon="3.040507966652513">
        <ele>3.5</ele>
        <time>2025-05-16T08:27:56Z</time>
      </trkpt>
      <trkpt lat="42.837871983647346" lon="3.04047997109592">
        <ele>3.02</ele>
        <time>2025-05-16T08:27:58Z</time>
      </trkpt>
      <trkpt lat="42.837968040257692" lon="3.040465973317623">
        <ele>2.54</ele>
        <time>2025-05-16T08:27:59Z</time>
      </trkpt>
      <trkpt lat="42.83802998252213" lon="3.040389027446508">
        <ele>2.54</ele>
        <time>2025-05-16T08:28:00Z</time>
      </trkpt>
      <trkpt lat="42.838100977241993" lon="3.040299005806446">
        <ele>2.06</ele>
        <time>2025-05-16T08:28:01Z</time>
      </trkpt>
      <trkpt lat="42.838169960305095" lon="3.040212001651526">
        <ele>2.06</ele>
        <time>2025-05-16T08:28:02Z</time>
      </trkpt>
      <trkpt lat="42.838296024128795" lon="3.040052996948361">
        <ele>1.58</ele>
        <time>2025-05-16T08:28:04Z</time>
      </trkpt>
      <trkpt lat="42.838353021070361" lon="3.039979990571737">
        <ele>1.58</ele>
        <time>2025-05-16T08:28:05Z</time>
      </trkpt>
      <trkpt lat="42.838461985811591" lon="3.039973033592105">
        <ele>1.58</ele>
        <time>2025-05-16T08:28:06Z</time>
      </trkpt>
      <trkpt lat="42.838552007451653" lon="3.039994994178414">
        <ele>1.58</ele>
        <time>2025-05-16T08:28:07Z</time>
      </trkpt>
      <trkpt lat="42.838644040748477" lon="3.04002701304853">
        <ele>1.1</ele>
        <time>2025-05-16T08:28:08Z</time>
      </trkpt>
      <trkpt lat="42.838720986619592" lon="3.04011401720345">
        <ele>1.1</ele>
        <time>2025-05-16T08:28:09Z</time>
      </trkpt>
      <trkpt lat="42.83880396746099" lon="3.040206972509623">
        <ele>0.62</ele>
        <time>2025-05-16T08:28:10Z</time>
      </trkpt>
      <trkpt lat="42.83888996578753" lon="3.040303029119968">
        <ele>0.14</ele>
        <time>2025-05-16T08:28:11Z</time>
      </trkpt>
      <trkpt lat="42.838998008519411" lon="3.040422974154353">
        <ele>0.14</ele>
        <time>2025-05-16T08:28:12Z</time>
      </trkpt>
      <trkpt lat="42.839778028428555" lon="3.041461994871497">
        <ele>0.62</ele>
        <time>2025-05-16T08:28:23Z</time>
      </trkpt>
      <trkpt lat="42.840186981484294" lon="3.041995000094175">
        <ele>0.62</ele>
        <time>2025-05-16T08:28:29Z</time>
      </trkpt>
      <trkpt lat="42.840283960103989" lon="3.042049985378981">
        <ele>0.62</ele>
        <time>2025-05-16T08:28:30Z</time>
      </trkpt>
      <trkpt lat="42.840384962037206" lon="3.042097007855773">
        <ele>0.62</ele>
        <time>2025-05-16T08:28:31Z</time>
      </trkpt>
      <trkpt lat="42.840486969798803" lon="3.042140007019043">
        <ele>0.62</ele>
        <time>2025-05-16T08:28:32Z</time>
      </trkpt>
      <trkpt lat="42.840590989217162" lon="3.042145036160946">
        <ele>0.62</ele>
        <time>2025-05-16T08:28:33Z</time>
      </trkpt>
      <trkpt lat="42.840691991150379" lon="3.042149981483817">
        <ele>0.62</ele>
        <time>2025-05-16T08:28:34Z</time>
      </trkpt>
      <trkpt lat="42.841016035526991" lon="3.042161967605352">
        <ele>0.62</ele>
        <time>2025-05-16T08:28:38Z</time>
      </trkpt>
      <trkpt lat="42.841073032468557" lon="3.042161967605352">
        <ele>0.62</ele>
        <time>2025-05-16T08:28:39Z</time>
      </trkpt>
      <trkpt lat="42.84110002219677" lon="3.042071023955941">
        <ele>0.62</ele>
        <time>2025-05-16T08:28:40Z</time>
      </trkpt>
      <trkpt lat="42.841099016368389" lon="3.042002962902188">
        <ele>1.1</ele>
        <time>2025-05-16T08:28:41Z</time>
      </trkpt>
      <trkpt lat="42.841097004711628" lon="3.041920987889171">
        <ele>1.1</ele>
        <time>2025-05-16T08:28:42Z</time>
      </trkpt>
      <trkpt lat="42.841094993054867" lon="3.041823003441095">
        <ele>1.1</ele>
        <time>2025-05-16T08:28:43Z</time>
      </trkpt>
      <trkpt lat="42.84105802886188" lon="3.040399001911283">
        <ele>-0.34</ele>
        <time>2025-05-16T08:28:53Z</time>
      </trkpt>
      <trkpt lat="42.84107998944819" lon="3.039672039449215">
        <ele>0.14</ele>
        <time>2025-05-16T08:28:57Z</time>
      </trkpt>
      <trkpt lat="42.84107998944819" lon="3.039672039449215">
        <ele>0.62</ele>
        <time>2025-05-16T08:28:58Z</time>
      </trkpt>
      <trkpt lat="42.84110102802515" lon="3.037864984944463">
        <ele>0.14</ele>
        <time>2025-05-16T08:29:11Z</time>
      </trkpt>
      <trkpt lat="42.841135980561376" lon="3.036970971152186">
        <ele>1.58</ele>
        <time>2025-05-16T08:29:18Z</time>
      </trkpt>
      <trkpt lat="42.841169005259871" lon="3.03687097504735">
        <ele>1.58</ele>
        <time>2025-05-16T08:29:19Z</time>
      </trkpt>
      <trkpt lat="42.841219967231154" lon="3.03678497672081">
        <ele>1.58</ele>
        <time>2025-05-16T08:29:20Z</time>
      </trkpt>
      <trkpt lat="42.841376038268209" lon="3.036603005602956">
        <ele>1.58</ele>
        <time>2025-05-16T08:29:22Z</time>
      </trkpt>
      <trkpt lat="42.8414870146662" lon="3.036582972854376">
        <ele>1.58</ele>
        <time>2025-05-16T08:29:23Z</time>
      </trkpt>
      <trkpt lat="42.842242978513241" lon="3.036632006987929">
        <ele>1.58</ele>
        <time>2025-05-16T08:29:32Z</time>
      </trkpt>
      <trkpt lat="42.843086030334234" lon="3.036767961457372">
        <ele>-0.34</ele>
        <time>2025-05-16T08:29:42Z</time>
      </trkpt>
      <trkpt lat="42.843920029699802" lon="3.036887990310788">
        <ele>-2.27</ele>
        <time>2025-05-16T08:29:52Z</time>
      </trkpt>
      <trkpt lat="42.845028033480048" lon="3.037040960043669">
        <ele>-2.75</ele>
        <time>2025-05-16T08:30:05Z</time>
      </trkpt>
      <trkpt lat="42.845253003761172" lon="3.037061998620629">
        <ele>-3.23</ele>
        <time>2025-05-16T08:30:08Z</time>
      </trkpt>
      <trkpt lat="42.8453120123595" lon="3.037068033590913">
        <ele>-3.23</ele>
        <time>2025-05-16T08:30:09Z</time>
      </trkpt>
      <trkpt lat="42.845372026786208" lon="3.037073984742165">
        <ele>-3.23</ele>
        <time>2025-05-16T08:30:10Z</time>
      </trkpt>
      <trkpt lat="42.845430029556155" lon="3.037078008055687">
        <ele>-3.23</ele>
        <time>2025-05-16T08:30:11Z</time>
      </trkpt>
      <trkpt lat="42.845488032326102" lon="3.037080019712448">
        <ele>-3.23</ele>
        <time>2025-05-16T08:30:12Z</time>
      </trkpt>
      <trkpt lat="42.845551986247301" lon="3.037083959206939">
        <ele>-3.71</ele>
        <time>2025-05-16T08:30:13Z</time>
      </trkpt>
      <trkpt lat="42.846392020583153" lon="3.037102986127138">
        <ele>-3.71</ele>
        <time>2025-05-16T08:30:22Z</time>
      </trkpt>
      <trkpt lat="42.847195006906986" lon="3.037135004997253">
        <ele>-3.71</ele>
        <time>2025-05-16T08:30:30Z</time>
      </trkpt>
      <trkpt lat="42.847761958837509" lon="3.037205999717116">
        <ele>-4.67</ele>
        <time>2025-05-16T08:30:36Z</time>
      </trkpt>
      <trkpt lat="42.847852986305952" lon="3.037221003323793">
        <ele>-5.15</ele>
        <time>2025-05-16T08:30:37Z</time>
      </trkpt>
      <trkpt lat="42.847940996289253" lon="3.037233995273709">
        <ele>-5.63</ele>
        <time>2025-05-16T08:30:38Z</time>
      </trkpt>
      <trkpt lat="42.848310973495245" lon="3.037269031628966">
        <ele>-6.11</ele>
        <time>2025-05-16T08:30:42Z</time>
      </trkpt>
      <trkpt lat="42.848368976265192" lon="3.037267019972205">
        <ele>-6.11</ele>
        <time>2025-05-16T08:30:43Z</time>
      </trkpt>
      <trkpt lat="42.84847098402679" lon="3.037262996658683">
        <ele>-5.63</ele>
        <time>2025-05-16T08:30:44Z</time>
      </trkpt>
      <trkpt lat="42.848902987316251" lon="3.037203988060355">
        <ele>-5.15</ele>
        <time>2025-05-16T08:30:48Z</time>
      </trkpt>
      <trkpt lat="42.848996026441455" lon="3.037151014432311">
        <ele>-5.15</ele>
        <time>2025-05-16T08:30:49Z</time>
      </trkpt>
      <trkpt lat="42.849084958434105" lon="3.037099968641996">
        <ele>-4.67</ele>
        <time>2025-05-16T08:30:50Z</time>
      </trkpt>
      <trkpt lat="42.849172968417406" lon="3.037049006670713">
        <ele>-4.67</ele>
        <time>2025-05-16T08:30:51Z</time>
      </trkpt>
      <trkpt lat="42.849276987835765" lon="3.036989998072386">
        <ele>-4.19</ele>
        <time>2025-05-16T08:30:52Z</time>
      </trkpt>
      <trkpt lat="42.849991964176297" lon="3.036143006756902">
        <ele>-3.23</ele>
        <time>2025-05-16T08:31:02Z</time>
      </trkpt>
      <trkpt lat="42.850456992164254" lon="3.035444961860776">
        <ele>-1.79</ele>
        <time>2025-05-16T08:31:11Z</time>
      </trkpt>
      <trkpt lat="42.850516000762582" lon="3.035428030416369">
        <ele>-1.79</ele>
        <time>2025-05-16T08:31:12Z</time>
      </trkpt>
      <trkpt lat="42.850580960512161" lon="3.035410009324551">
        <ele>-1.79</ele>
        <time>2025-05-16T08:31:13Z</time>
      </trkpt>
      <trkpt lat="42.850655978545547" lon="3.035436999052763">
        <ele>-1.79</ele>
        <time>2025-05-16T08:31:14Z</time>
      </trkpt>
      <trkpt lat="42.850732002407312" lon="3.035490978509188">
        <ele>-0.82</ele>
        <time>2025-05-16T08:31:15Z</time>
      </trkpt>
      <trkpt lat="42.850775001570582" lon="3.035571025684476">
        <ele>-0.82</ele>
        <time>2025-05-16T08:31:16Z</time>
      </trkpt>
      <trkpt lat="42.850804002955556" lon="3.035672027617693">
        <ele>-0.34</ele>
        <time>2025-05-16T08:31:17Z</time>
      </trkpt>
      <trkpt lat="42.850842978805304" lon="3.035809993743897">
        <ele>0.14</ele>
        <time>2025-05-16T08:31:18Z</time>
      </trkpt>
      <trkpt lat="42.85083401016891" lon="3.035857016220689">
        <ele>0.62</ele>
        <time>2025-05-16T08:31:19Z</time>
      </trkpt>
      <trkpt lat="42.850815989077091" lon="3.03594502620399">
        <ele>0.62</ele>
        <time>2025-05-16T08:31:20Z</time>
      </trkpt>
      <trkpt lat="42.850787993520498" lon="3.036040998995304">
        <ele>1.1</ele>
        <time>2025-05-16T08:31:21Z</time>
      </trkpt>
      <trkpt lat="42.850736025720835" lon="3.036115011200309">
        <ele>1.1</ele>
        <time>2025-05-16T08:31:22Z</time>
      </trkpt>
      <trkpt lat="42.85066201351583" lon="3.036197992041707">
        <ele>1.58</ele>
        <time>2025-05-16T08:31:23Z</time>
      </trkpt>
      <trkpt lat="42.850583977997303" lon="3.036254988983274">
        <ele>1.58</ele>
        <time>2025-05-16T08:31:24Z</time>
      </trkpt>
      <trkpt lat="42.85005901940167" lon="3.036640975624323">
        <ele>-1.79</ele>
        <time>2025-05-16T08:31:37Z</time>
      </trkpt>
      <trkpt lat="42.848832998424768" lon="3.037477992475033">
        <ele>-2.27</ele>
        <time>2025-05-16T08:31:43Z</time>
      </trkpt>
      <trkpt lat="42.848780024796724" lon="3.037515040487051">
        <ele>-2.27</ele>
        <time>2025-05-16T08:31:50Z</time>
      </trkpt>
      <trkpt lat="42.848756974563003" lon="3.037530966103077">
        <ele>-1.79</ele>
        <time>2025-05-16T08:31:57Z</time>
      </trkpt>
      <trkpt lat="42.848748005926609" lon="3.037538006901741">
        <ele>-1.79</ele>
        <time>2025-05-16T08:31:58Z</time>
      </trkpt>
      <trkpt lat="42.848763009533286" lon="3.037528032436967">
        <ele>-1.79</ele>
        <time>2025-05-16T08:32:00Z</time>
      </trkpt>
      <trkpt lat="42.848796034231782" lon="3.037503976374865">
        <ele>-1.79</ele>
        <time>2025-05-16T08:32:01Z</time>
      </trkpt>
      <trkpt lat="42.848841967061162" lon="3.037472041323781">
        <ele>-1.3</ele>
        <time>2025-05-16T08:32:02Z</time>
      </trkpt>
      <trkpt lat="42.848897036164999" lon="3.037432981655002">
        <ele>-1.3</ele>
        <time>2025-05-16T08:32:03Z</time>
      </trkpt>
      <trkpt lat="42.84967496059835" lon="3.036915985867381">
        <ele>0.14</ele>
        <time>2025-05-16T08:32:13Z</time>
      </trkpt>
      <trkpt lat="42.85089997574687" lon="3.036030018702149">
        <ele>3.98</ele>
        <time>2025-05-16T08:32:26Z</time>
      </trkpt>
      <trkpt lat="42.852405030280352" lon="3.034969037398696">
        <ele>8.789999999999999</ele>
        <time>2025-05-16T08:32:37Z</time>
      </trkpt>
      <trkpt lat="42.854781970381737" lon="3.033342026174069">
        <ele>17.440000000000001</ele>
        <time>2025-05-16T08:32:52Z</time>
      </trkpt>
      <trkpt lat="42.857054974883795" lon="3.031739993020892">
        <ele>18.879999999999999</ele>
        <time>2025-05-16T08:33:07Z</time>
      </trkpt>
      <trkpt lat="42.857885034754872" lon="3.031160971149802">
        <ele>16</ele>
        <time>2025-05-16T08:33:14Z</time>
      </trkpt>
      <trkpt lat="42.858001040294766" lon="3.031080001965165">
        <ele>15.039999999999999</ele>
        <time>2025-05-16T08:33:20Z</time>
      </trkpt>
      <trkpt lat="42.858001040294766" lon="3.031080001965165">
        <ele>15.039999999999999</ele>
        <time>2025-05-16T08:33:39Z</time>
      </trkpt>
      <trkpt lat="42.858001040294766" lon="3.031080001965165">
        <ele>14.56</ele>
        <time>2025-05-16T08:34:25Z</time>
      </trkpt>
      <trkpt lat="42.858049990609288" lon="3.031045971438289">
        <ele>14.08</ele>
        <time>2025-05-16T08:34:46Z</time>
      </trkpt>
      <trkpt lat="42.858473025262356" lon="3.030751012265682">
        <ele>12.630000000000001</ele>
        <time>2025-05-16T08:34:50Z</time>
      </trkpt>
      <trkpt lat="42.859780015423894" lon="3.030008040368557">
        <ele>9.75</ele>
        <time>2025-05-16T08:34:57Z</time>
      </trkpt>
      <trkpt lat="42.861566031351686" lon="3.029521973803639">
        <ele>4.94</ele>
        <time>2025-05-16T08:35:05Z</time>
      </trkpt>
      <trkpt lat="42.863686988130212" lon="3.029644014313817">
        <ele>3.02</ele>
        <time>2025-05-16T08:35:15Z</time>
      </trkpt>
      <trkpt lat="42.86568003706634" lon="3.030336024239659">
        <ele>2.54</ele>
        <time>2025-05-16T08:35:25Z</time>
      </trkpt>
      <trkpt lat="42.867492036893964" lon="3.031560033559799">
        <ele>2.06</ele>
        <time>2025-05-16T08:35:35Z</time>
      </trkpt>
      <trkpt lat="42.869145032018423" lon="3.033031979575753">
        <ele>2.06</ele>
        <time>2025-05-16T08:35:46Z</time>
      </trkpt>
      <trkpt lat="42.871434967964888" lon="3.035070961341262">
        <ele>3.98</ele>
        <time>2025-05-16T08:36:01Z</time>
      </trkpt>
      <trkpt lat="42.873598001897335" lon="3.03699703887105">
        <ele>4.46</ele>
        <time>2025-05-16T08:36:15Z</time>
      </trkpt>
      <trkpt lat="42.876104023307562" lon="3.039228972047567">
        <ele>3.98</ele>
        <time>2025-05-16T08:36:31Z</time>
      </trkpt>
      <trkpt lat="42.878826968371868" lon="3.041654024273157">
        <ele>3.98</ele>
        <time>2025-05-16T08:36:48Z</time>
      </trkpt>
      <trkpt lat="42.880735024809837" lon="3.043356975540519">
        <ele>4.46</ele>
        <time>2025-05-16T08:37:01Z</time>
      </trkpt>
      <trkpt lat="42.88271700963378" lon="3.04512002505362">
        <ele>4.94</ele>
        <time>2025-05-16T08:37:14Z</time>
      </trkpt>
      <trkpt lat="42.885702978819609" lon="3.0474610067904">
        <ele>9.75</ele>
        <time>2025-05-16T08:37:32Z</time>
      </trkpt>
      <trkpt lat="42.887640036642551" lon="3.048316966742277">
        <ele>10.710000000000001</ele>
        <time>2025-05-16T08:37:42Z</time>
      </trkpt>
      <trkpt lat="42.889395961537957" lon="3.048490975052118">
        <ele>6.87</ele>
        <time>2025-05-16T08:37:51Z</time>
      </trkpt>
      <trkpt lat="42.8921930026263" lon="3.048223005607724">
        <ele>5.42</ele>
        <time>2025-05-16T08:38:06Z</time>
      </trkpt>
      <trkpt lat="42.89474998600781" lon="3.048157962039113">
        <ele>6.39</ele>
        <time>2025-05-16T08:38:20Z</time>
      </trkpt>
      <trkpt lat="42.897198004648089" lon="3.048512013629079">
        <ele>6.87</ele>
        <time>2025-05-16T08:38:34Z</time>
      </trkpt>
      <trkpt lat="42.899975012987852" lon="3.048937981948257">
        <ele>7.83</ele>
        <time>2025-05-16T08:38:50Z</time>
      </trkpt>
      <trkpt lat="42.901944005861878" lon="3.049075026065111">
        <ele>7.35</ele>
        <time>2025-05-16T08:39:02Z</time>
      </trkpt>
      <trkpt lat="42.902304008603096" lon="3.048962960019708">
        <ele>7.35</ele>
        <time>2025-05-16T08:39:04Z</time>
      </trkpt>
      <trkpt lat="42.90248204022646" lon="3.048867993056774">
        <ele>6.87</ele>
        <time>2025-05-16T08:39:05Z</time>
      </trkpt>
      <trkpt lat="42.902654958888888" lon="3.048759028315544">
        <ele>6.87</ele>
        <time>2025-05-16T08:39:06Z</time>
      </trkpt>
      <trkpt lat="42.902818992733955" lon="3.048615027219057">
        <ele>6.39</ele>
        <time>2025-05-16T08:39:07Z</time>
      </trkpt>
      <trkpt lat="42.902974979951978" lon="3.048459040001035">
        <ele>5.91</ele>
        <time>2025-05-16T08:39:08Z</time>
      </trkpt>
      <trkpt lat="42.90312803350389" lon="3.048286037519574">
        <ele>5.42</ele>
        <time>2025-05-16T08:39:09Z</time>
      </trkpt>
      <trkpt lat="42.903979970142245" lon="3.046754999086261">
        <ele>3.98</ele>
        <time>2025-05-16T08:39:16Z</time>
      </trkpt>
      <trkpt lat="42.904743980616331" lon="3.04452097043395">
        <ele>4.46</ele>
        <time>2025-05-16T08:39:25Z</time>
      </trkpt>
      <trkpt lat="42.905742013826966" lon="3.041369039565325">
        <ele>4.46</ele>
        <time>2025-05-16T08:39:38Z</time>
      </trkpt>
      <trkpt lat="42.905762968584895" lon="3.04112596437335">
        <ele>3.98</ele>
        <time>2025-05-16T08:39:39Z</time>
      </trkpt>
      <trkpt lat="42.905762968584895" lon="3.039637003093958">
        <ele>3.98</ele>
        <time>2025-05-16T08:39:46Z</time>
      </trkpt>
      <trkpt lat="42.905453005805612" lon="3.038213001564145">
        <ele>2.54</ele>
        <time>2025-05-16T08:39:54Z</time>
      </trkpt>
      <trkpt lat="42.905314033851027" lon="3.037805976346135">
        <ele>2.54</ele>
        <time>2025-05-16T08:39:59Z</time>
      </trkpt>
      <trkpt lat="42.905291989445686" lon="3.037744034081698">
        <ele>2.54</ele>
        <time>2025-05-16T08:40:00Z</time>
      </trkpt>
      <trkpt lat="42.905259970575571" lon="3.037655018270016">
        <ele>2.06</ele>
        <time>2025-05-16T08:40:02Z</time>
      </trkpt>
      <trkpt lat="42.90529903024435" lon="3.037550998851657">
        <ele>2.06</ele>
        <time>2025-05-16T08:40:03Z</time>
      </trkpt>
      <trkpt lat="42.905307998880744" lon="3.03742703050375">
        <ele>2.06</ele>
        <time>2025-05-16T08:40:04Z</time>
      </trkpt>
      <trkpt lat="42.905286038294435" lon="3.037325022742152">
        <ele>2.06</ele>
        <time>2025-05-16T08:40:05Z</time>
      </trkpt>
      <trkpt lat="42.905333982780576" lon="3.037242041900754">
        <ele>2.06</ele>
        <time>2025-05-16T08:40:06Z</time>
      </trkpt>
      <trkpt lat="42.905387040227652" lon="3.037153026089072">
        <ele>2.06</ele>
        <time>2025-05-16T08:40:07Z</time>
      </trkpt>
      <trkpt lat="42.90543096140027" lon="3.037075996398926">
        <ele>2.06</ele>
        <time>2025-05-16T08:40:08Z</time>
      </trkpt>
      <trkpt lat="42.905468009412289" lon="3.03695697337389">
        <ele>2.06</ele>
        <time>2025-05-16T08:40:09Z</time>
      </trkpt>
      <trkpt lat="42.90549399331212" lon="3.036871980875731">
        <ele>2.54</ele>
        <time>2025-05-16T08:40:10Z</time>
      </trkpt>
      <trkpt lat="42.905517965555191" lon="3.036795035004616">
        <ele>2.06</ele>
        <time>2025-05-16T08:40:11Z</time>
      </trkpt>
      <trkpt lat="42.90553598664701" lon="3.036713982000947">
        <ele>2.06</ele>
        <time>2025-05-16T08:40:12Z</time>
      </trkpt>
      <trkpt lat="42.905553001910448" lon="3.036634018644691">
        <ele>2.06</ele>
        <time>2025-05-16T08:40:13Z</time>
      </trkpt>
      <trkpt lat="42.905588960275054" lon="3.036584984511137">
        <ele>2.06</ele>
        <time>2025-05-16T08:40:14Z</time>
      </trkpt>
      <trkpt lat="42.905647968873382" lon="3.036545002833009">
        <ele>2.54</ele>
        <time>2025-05-16T08:40:15Z</time>
      </trkpt>
      <trkpt lat="42.905711000785232" lon="3.036518013104796">
        <ele>2.54</ele>
        <time>2025-05-16T08:40:16Z</time>
      </trkpt>
      <trkpt lat="42.905786018818617" lon="3.036518013104796">
        <ele>2.54</ele>
        <time>2025-05-16T08:40:17Z</time>
      </trkpt>
      <trkpt lat="42.905860031023622" lon="3.036518013104796">
        <ele>3.02</ele>
        <time>2025-05-16T08:40:18Z</time>
      </trkpt>
      <trkpt lat="42.905933959409595" lon="3.036528993397951">
        <ele>3.02</ele>
        <time>2025-05-16T08:40:19Z</time>
      </trkpt>
      <trkpt lat="42.905999002978206" lon="3.036537962034345">
        <ele>3.5</ele>
        <time>2025-05-16T08:40:20Z</time>
      </trkpt>
      <trkpt lat="42.906114002689719" lon="3.036733008921146">
        <ele>3.98</ele>
        <time>2025-05-16T08:40:22Z</time>
      </trkpt>
      <trkpt lat="42.906175022944808" lon="3.036733008921146">
        <ele>3.98</ele>
        <time>2025-05-16T08:40:23Z</time>
      </trkpt>
      <trkpt lat="42.906235959380865" lon="3.036639969795942">
        <ele>3.98</ele>
        <time>2025-05-16T08:40:24Z</time>
      </trkpt>
      <trkpt lat="42.90626797825098" lon="3.036582972854376">
        <ele>3.98</ele>
        <time>2025-05-16T08:40:25Z</time>
      </trkpt>
      <trkpt lat="42.906234031543136" lon="3.036492029204965">
        <ele>4.46</ele>
        <time>2025-05-16T08:40:26Z</time>
      </trkpt>
      <trkpt lat="42.906213998794556" lon="3.036352973431349">
        <ele>4.46</ele>
        <time>2025-05-16T08:40:27Z</time>
      </trkpt>
      <trkpt lat="42.906234031543136" lon="3.036248032003641">
        <ele>4.46</ele>
        <time>2025-05-16T08:40:28Z</time>
      </trkpt>
      <trkpt lat="42.906255992129445" lon="3.036129008978605">
        <ele>3.98</ele>
        <time>2025-05-16T08:40:29Z</time>
      </trkpt>
      <trkpt lat="42.906280970200896" lon="3.035995988175273">
        <ele>3.98</ele>
        <time>2025-05-16T08:40:30Z</time>
      </trkpt>
      <trkpt lat="42.906486997380853" lon="3.03472001105547">
        <ele>4.94</ele>
        <time>2025-05-16T08:40:40Z</time>
      </trkpt>
      <trkpt lat="42.90661096572876" lon="3.033960023894906">
        <ele>7.35</ele>
        <time>2025-05-16T08:40:46Z</time>
      </trkpt>
      <trkpt lat="42.906828979030252" lon="3.033612007275224">
        <ele>8.310000000000001</ele>
        <time>2025-05-16T08:40:50Z</time>
      </trkpt>
      <trkpt lat="42.906877007335424" lon="3.033537995070219">
        <ele>8.789999999999999</ele>
        <time>2025-05-16T08:40:51Z</time>
      </trkpt>
      <trkpt lat="42.907325020059943" lon="3.032709024846554">
        <ele>11.67</ele>
        <time>2025-05-16T08:40:59Z</time>
      </trkpt>
      <trkpt lat="42.907704971730709" lon="3.031999999657273">
        <ele>13.119999999999999</ele>
        <time>2025-05-16T08:41:07Z</time>
      </trkpt>
      <trkpt lat="42.908031027764082" lon="3.031407985836268">
        <ele>16.960000000000001</ele>
        <time>2025-05-16T08:41:14Z</time>
      </trkpt>
      <trkpt lat="42.908091964200139" lon="3.031346965581179">
        <ele>17.440000000000001</ele>
        <time>2025-05-16T08:41:15Z</time>
      </trkpt>
      <trkpt lat="42.908220961689949" lon="3.031174968928099">
        <ele>17.920000000000002</ele>
        <time>2025-05-16T08:41:17Z</time>
      </trkpt>
      <trkpt lat="42.908230014145374" lon="3.031159965321422">
        <ele>18.399999999999999</ele>
        <time>2025-05-16T08:41:18Z</time>
      </trkpt>
      <trkpt lat="42.90828499943018" lon="3.031072961166501">
        <ele>18.399999999999999</ele>
        <time>2025-05-16T08:41:19Z</time>
      </trkpt>
      <trkpt lat="42.90832799859345" lon="3.031003978103399">
        <ele>18.879999999999999</ele>
        <time>2025-05-16T08:41:20Z</time>
      </trkpt>
      <trkpt lat="42.90841399691999" lon="3.030960978940129">
        <ele>18.879999999999999</ele>
        <time>2025-05-16T08:41:21Z</time>
      </trkpt>
      <trkpt lat="42.908504018560052" lon="3.030936000868678">
        <ele>19.359999999999999</ele>
        <time>2025-05-16T08:41:22Z</time>
      </trkpt>
      <trkpt lat="42.90858699940145" lon="3.030914040282369">
        <ele>19.84</ele>
        <time>2025-05-16T08:41:23Z</time>
      </trkpt>
      <trkpt lat="42.908668974414468" lon="3.030891995877028">
        <ele>20.32</ele>
        <time>2025-05-16T08:41:24Z</time>
      </trkpt>
      <trkpt lat="42.908813981339335" lon="3.03085302002728">
        <ele>20.809999999999999</ele>
        <time>2025-05-16T08:41:26Z</time>
      </trkpt>
      <trkpt lat="42.908879024907947" lon="3.030834998935461">
        <ele>20.809999999999999</ele>
        <time>2025-05-16T08:41:27Z</time>
      </trkpt>
      <trkpt lat="42.908941973000765" lon="3.030818989500403">
        <ele>21.289999999999999</ele>
        <time>2025-05-16T08:41:28Z</time>
      </trkpt>
      <trkpt lat="42.909066025167704" lon="3.030744977295399">
        <ele>21.289999999999999</ele>
        <time>2025-05-16T08:41:30Z</time>
      </trkpt>
      <trkpt lat="42.909138025715947" lon="3.030696026980877">
        <ele>21.289999999999999</ele>
        <time>2025-05-16T08:41:31Z</time>
      </trkpt>
      <trkpt lat="42.90944597683847" lon="3.030396038666368">
        <ele>22.25</ele>
        <time>2025-05-16T08:41:36Z</time>
      </trkpt>
      <trkpt lat="42.909714030101895" lon="3.029925981536508">
        <ele>24.649999999999999</ele>
        <time>2025-05-16T08:41:42Z</time>
      </trkpt>
      <trkpt lat="42.909851996228099" lon="3.029544018208981">
        <ele>26.09</ele>
        <time>2025-05-16T08:41:48Z</time>
      </trkpt>
      <trkpt lat="42.90987404063344" lon="3.029447039589286">
        <ele>26.09</ele>
        <time>2025-05-16T08:41:49Z</time>
      </trkpt>
      <trkpt lat="42.910018041729927" lon="3.02892099134624">
        <ele>25.609999999999999</ele>
        <time>2025-05-16T08:41:55Z</time>
      </trkpt>
      <trkpt lat="42.910040002316236" lon="3.0288349930197">
        <ele>25.129999999999999</ele>
        <time>2025-05-16T08:41:56Z</time>
      </trkpt>
      <trkpt lat="42.910077972337604" lon="3.028680011630058">
        <ele>24.649999999999999</ele>
        <time>2025-05-16T08:41:58Z</time>
      </trkpt>
      <trkpt lat="42.910159025341272" lon="3.028458980843425">
        <ele>24.170000000000002</ele>
        <time>2025-05-16T08:42:01Z</time>
      </trkpt>
      <trkpt lat="42.910292968153954" lon="3.028224958106875">
        <ele>24.170000000000002</ele>
        <time>2025-05-16T08:42:04Z</time>
      </trkpt>
      <trkpt lat="42.910336973145604" lon="3.028146000579">
        <ele>24.170000000000002</ele>
        <time>2025-05-16T08:42:05Z</time>
      </trkpt>
      <trkpt lat="42.910450967028737" lon="3.027933016419411">
        <ele>24.649999999999999</ele>
        <time>2025-05-16T08:42:08Z</time>
      </trkpt>
      <trkpt lat="42.910631010308862" lon="3.027568990364671">
        <ele>24.649999999999999</ele>
        <time>2025-05-16T08:42:13Z</time>
      </trkpt>
      <trkpt lat="42.910665040835738" lon="3.027488021180034">
        <ele>25.129999999999999</ele>
        <time>2025-05-16T08:42:14Z</time>
      </trkpt>
      <trkpt lat="42.910736035555601" lon="3.027235977351666">
        <ele>25.609999999999999</ele>
        <time>2025-05-16T08:42:17Z</time>
      </trkpt>
      <trkpt lat="42.910872995853424" lon="3.026883015409112">
        <ele>28.02</ele>
        <time>2025-05-16T08:42:22Z</time>
      </trkpt>
      <trkpt lat="42.910893028602004" lon="3.026823000982404">
        <ele>28.02</ele>
        <time>2025-05-16T08:42:23Z</time>
      </trkpt>
      <trkpt lat="42.911058990284801" lon="3.026369959115982">
        <ele>30.899999999999999</ele>
        <time>2025-05-16T08:42:31Z</time>
      </trkpt>
      <trkpt lat="42.911389991641045" lon="3.025437975302339">
        <ele>32.340000000000003</ele>
        <time>2025-05-16T08:42:44Z</time>
      </trkpt>
      <trkpt lat="42.911432990804315" lon="3.025295985862613">
        <ele>32.82</ele>
        <time>2025-05-16T08:42:46Z</time>
      </trkpt>
      <trkpt lat="42.91157498024404" lon="3.024853002279997">
        <ele>32.82</ele>
        <time>2025-05-16T08:42:51Z</time>
      </trkpt>
      <trkpt lat="42.911652009934187" lon="3.024656027555466">
        <ele>32.340000000000003</ele>
        <time>2025-05-16T08:42:54Z</time>
      </trkpt>
      <trkpt lat="42.911674976348877" lon="3.024609005078673">
        <ele>31.859999999999999</ele>
        <time>2025-05-16T08:42:55Z</time>
      </trkpt>
      <trkpt lat="42.911817971616983" lon="3.024496017023921">
        <ele>31.379999999999999</ele>
        <time>2025-05-16T08:42:58Z</time>
      </trkpt>
      <trkpt lat="42.911846973001957" lon="3.024405995383859">
        <ele>31.379999999999999</ele>
        <time>2025-05-16T08:42:59Z</time>
      </trkpt>
      <trkpt lat="42.911846973001957" lon="3.024333994835615">
        <ele>31.379999999999999</ele>
        <time>2025-05-16T08:43:00Z</time>
      </trkpt>
      <trkpt lat="42.911846973001957" lon="3.024329971522093">
        <ele>31.379999999999999</ele>
        <time>2025-05-16T08:43:01Z</time>
      </trkpt>
      <trkpt lat="42.911824006587267" lon="3.024165015667677">
        <ele>30.899999999999999</ele>
        <time>2025-05-16T08:43:02Z</time>
      </trkpt>
      <trkpt lat="42.91185300797224" lon="3.024080023169518">
        <ele>30.899999999999999</ele>
        <time>2025-05-16T08:43:03Z</time>
      </trkpt>
      <trkpt lat="42.911887038499117" lon="3.023981032893062">
        <ele>30.899999999999999</ele>
        <time>2025-05-16T08:43:04Z</time>
      </trkpt>
      <trkpt lat="42.911924002692103" lon="3.023870978504419">
        <ele>30.899999999999999</ele>
        <time>2025-05-16T08:43:05Z</time>
      </trkpt>
      <trkpt lat="42.911963984370232" lon="3.023755978792906">
        <ele>30.899999999999999</ele>
        <time>2025-05-16T08:43:06Z</time>
      </trkpt>
      <trkpt lat="42.912156013771892" lon="3.023100011050701">
        <ele>28.98</ele>
        <time>2025-05-16T08:43:11Z</time>
      </trkpt>
      <trkpt lat="42.912341002374887" lon="3.022041963413358">
        <ele>26.09</ele>
        <time>2025-05-16T08:43:18Z</time>
      </trkpt>
      <trkpt lat="42.912500007078052" lon="3.02157199010253">
        <ele>24.649999999999999</ele>
        <time>2025-05-16T08:43:21Z</time>
      </trkpt>
      <trkpt lat="42.912579970434308" lon="3.021424971520901">
        <ele>23.690000000000001</ele>
        <time>2025-05-16T08:43:22Z</time>
      </trkpt>
      <trkpt lat="42.912675021216273" lon="3.021285999566317">
        <ele>22.73</ele>
        <time>2025-05-16T08:43:23Z</time>
      </trkpt>
      <trkpt lat="42.912773005664349" lon="3.021153984591365">
        <ele>22.25</ele>
        <time>2025-05-16T08:43:24Z</time>
      </trkpt>
      <trkpt lat="42.912865038961172" lon="3.021028004586697">
        <ele>21.77</ele>
        <time>2025-05-16T08:43:25Z</time>
      </trkpt>
      <trkpt lat="42.912968974560499" lon="3.020910993218422">
        <ele>20.809999999999999</ele>
        <time>2025-05-16T08:43:26Z</time>
      </trkpt>
      <trkpt lat="42.913069976493716" lon="3.020802028477192">
        <ele>20.809999999999999</ele>
        <time>2025-05-16T08:43:27Z</time>
      </trkpt>
      <trkpt lat="42.914250986650586" lon="3.019625041633844">
        <ele>15.039999999999999</ele>
        <time>2025-05-16T08:43:38Z</time>
      </trkpt>
      <trkpt lat="42.915070988237858" lon="3.018900007009506">
        <ele>12.15</ele>
        <time>2025-05-16T08:43:44Z</time>
      </trkpt>
      <trkpt lat="42.915210966020823" lon="3.018817026168108">
        <ele>12.15</ele>
        <time>2025-05-16T08:43:45Z</time>
      </trkpt>
      <trkpt lat="42.915359996259212" lon="3.018767992034555">
        <ele>12.630000000000001</ele>
        <time>2025-05-16T08:43:46Z</time>
      </trkpt>
      <trkpt lat="42.915512965992093" lon="3.018725998699665">
        <ele>13.119999999999999</ele>
        <time>2025-05-16T08:43:47Z</time>
      </trkpt>
      <trkpt lat="42.915670964866877" lon="3.018713006749749">
        <ele>14.08</ele>
        <time>2025-05-16T08:43:48Z</time>
      </trkpt>
      <trkpt lat="42.915827035903931" lon="3.018699008971453">
        <ele>15.039999999999999</ele>
        <time>2025-05-16T08:43:49Z</time>
      </trkpt>
      <trkpt lat="42.916365992277861" lon="3.018554002046585">
        <ele>16.48</ele>
        <time>2025-05-16T08:43:53Z</time>
      </trkpt>
      <trkpt lat="42.916492978110909" lon="3.018512008711696">
        <ele>16</ele>
        <time>2025-05-16T08:43:54Z</time>
      </trkpt>
      <trkpt lat="42.917229998856783" lon="3.018063995987177">
        <ele>12.630000000000001</ele>
        <time>2025-05-16T08:44:00Z</time>
      </trkpt>
      <trkpt lat="42.918204981833696" lon="3.017295962199569">
        <ele>11.19</ele>
        <time>2025-05-16T08:44:08Z</time>
      </trkpt>
      <trkpt lat="42.91952496394515" lon="3.016639994457364">
        <ele>12.15</ele>
        <time>2025-05-16T08:44:18Z</time>
      </trkpt>
      <trkpt lat="42.92076900601387" lon="3.016187958419323">
        <ele>13.119999999999999</ele>
        <time>2025-05-16T08:44:26Z</time>
      </trkpt>
      <trkpt lat="42.920927004888654" lon="3.016148982569575">
        <ele>13.119999999999999</ele>
        <time>2025-05-16T08:44:27Z</time>
      </trkpt>
      <trkpt lat="42.921080980449915" lon="3.016056027263403">
        <ele>12.630000000000001</ele>
        <time>2025-05-16T08:44:28Z</time>
      </trkpt>
      <trkpt lat="42.922193007543683" lon="3.015247005969286">
        <ele>11.67</ele>
        <time>2025-05-16T08:44:35Z</time>
      </trkpt>
      <trkpt lat="42.923441994935274" lon="3.014695979654789">
        <ele>9.75</ele>
        <time>2025-05-16T08:44:44Z</time>
      </trkpt>
      <trkpt lat="42.924950988963246" lon="3.014148976653814">
        <ele>7.35</ele>
        <time>2025-05-16T08:44:54Z</time>
      </trkpt>
      <trkpt lat="42.926277006044984" lon="3.013887964189053">
        <ele>5.42</ele>
        <time>2025-05-16T08:45:03Z</time>
      </trkpt>
      <trkpt lat="42.927162973210216" lon="3.013681014999747">
        <ele>3.5</ele>
        <time>2025-05-16T08:45:09Z</time>
      </trkpt>
      <trkpt lat="42.927302028983831" lon="3.01358001306653">
        <ele>3.5</ele>
        <time>2025-05-16T08:45:10Z</time>
      </trkpt>
      <trkpt lat="42.927422979846597" lon="3.013460990041494">
        <ele>3.02</ele>
        <time>2025-05-16T08:45:11Z</time>
      </trkpt>
      <trkpt lat="42.927534962072968" lon="3.013324029743671">
        <ele>3.02</ele>
        <time>2025-05-16T08:45:12Z</time>
      </trkpt>
      <trkpt lat="42.927637975662947" lon="3.013174999505281">
        <ele>3.02</ele>
        <time>2025-05-16T08:45:13Z</time>
      </trkpt>
      <trkpt lat="42.927740989252925" lon="3.01302102394402">
        <ele>2.54</ele>
        <time>2025-05-16T08:45:14Z</time>
      </trkpt>
      <trkpt lat="42.927969982847571" lon="3.012495981529355">
        <ele>2.54</ele>
        <time>2025-05-16T08:45:17Z</time>
      </trkpt>
      <trkpt lat="42.928018011152744" lon="3.012305963784456">
        <ele>3.02</ele>
        <time>2025-05-16T08:45:18Z</time>
      </trkpt>
      <trkpt lat="42.928773974999785" lon="3.009300967678428">
        <ele>8.789999999999999</ele>
        <time>2025-05-16T08:45:33Z</time>
      </trkpt>
      <trkpt lat="42.929323995485902" lon="3.007051013410091">
        <ele>3.98</ele>
        <time>2025-05-16T08:45:43Z</time>
      </trkpt>
      <trkpt lat="42.929547037929296" lon="3.004660997539759">
        <ele>3.98</ele>
        <time>2025-05-16T08:45:52Z</time>
      </trkpt>
      <trkpt lat="42.930037965998054" lon="3.002722011879087">
        <ele>4.46</ele>
        <time>2025-05-16T08:46:00Z</time>
      </trkpt>
      <trkpt lat="42.930994005873799" lon="2.999596986919642">
        <ele>6.87</ele>
        <time>2025-05-16T08:46:14Z</time>
      </trkpt>
      <trkpt lat="42.931561041623354" lon="2.997607961297035">
        <ele>10.23</ele>
        <time>2025-05-16T08:46:23Z</time>
      </trkpt>
      <trkpt lat="42.931584008038044" lon="2.997377039864659">
        <ele>10.710000000000001</ele>
        <time>2025-05-16T08:46:24Z</time>
      </trkpt>
      <trkpt lat="42.931893970817327" lon="2.995343003422022">
        <ele>12.630000000000001</ele>
        <time>2025-05-16T08:46:33Z</time>
      </trkpt>
      <trkpt lat="42.931965971365571" lon="2.994381012395024">
        <ele>14.56</ele>
        <time>2025-05-16T08:46:38Z</time>
      </trkpt>
      <trkpt lat="42.931949961930513" lon="2.994085969403386">
        <ele>15.52</ele>
        <time>2025-05-16T08:46:40Z</time>
      </trkpt>
      <trkpt lat="42.931937975808978" lon="2.993870973587036">
        <ele>16.960000000000001</ele>
        <time>2025-05-16T08:46:42Z</time>
      </trkpt>
      <trkpt lat="42.931932024657726" lon="2.993753040209413">
        <ele>17.440000000000001</ele>
        <time>2025-05-16T08:46:43Z</time>
      </trkpt>
      <trkpt lat="42.931874021887779" lon="2.993762008845806">
        <ele>17.920000000000002</ele>
        <time>2025-05-16T08:46:44Z</time>
      </trkpt>
      <trkpt lat="42.931803027167916" lon="2.993773994967341">
        <ele>18.399999999999999</ele>
        <time>2025-05-16T08:46:45Z</time>
      </trkpt>
      <trkpt lat="42.931716023012996" lon="2.993761003017426">
        <ele>18.399999999999999</ele>
        <time>2025-05-16T08:46:46Z</time>
      </trkpt>
      <trkpt lat="42.931618960574269" lon="2.993745999410749">
        <ele>18.879999999999999</ele>
        <time>2025-05-16T08:46:47Z</time>
      </trkpt>
      <trkpt lat="42.931524999439716" lon="2.993732001632452">
        <ele>18.879999999999999</ele>
        <time>2025-05-16T08:46:48Z</time>
      </trkpt>
      <trkpt lat="42.931443024426699" lon="2.993627982214093">
        <ele>18.879999999999999</ele>
        <time>2025-05-16T08:46:49Z</time>
      </trkpt>
      <trkpt lat="42.931377980858088" lon="2.993543995544314">
        <ele>18.399999999999999</ele>
        <time>2025-05-16T08:46:50Z</time>
      </trkpt>
      <trkpt lat="42.931384015828371" lon="2.993407035246491">
        <ele>17.920000000000002</ele>
        <time>2025-05-16T08:46:51Z</time>
      </trkpt>
      <trkpt lat="42.931392984464765" lon="2.99327895976603">
        <ele>17.920000000000002</ele>
        <time>2025-05-16T08:46:52Z</time>
      </trkpt>
      <trkpt lat="42.931436989456415" lon="2.993163960054517">
        <ele>17.440000000000001</ele>
        <time>2025-05-16T08:46:53Z</time>
      </trkpt>
      <trkpt lat="42.931500021368265" lon="2.993048038333654">
        <ele>16.960000000000001</ele>
        <time>2025-05-16T08:46:54Z</time>
      </trkpt>
      <trkpt lat="42.931599011644721" lon="2.992956005036831">
        <ele>16.48</ele>
        <time>2025-05-16T08:46:55Z</time>
      </trkpt>
      <trkpt lat="42.93170596472919" lon="2.992857014760375">
        <ele>16</ele>
        <time>2025-05-16T08:46:56Z</time>
      </trkpt>
      <trkpt lat="42.931821970269084" lon="2.992756012827158">
        <ele>16</ele>
        <time>2025-05-16T08:46:57Z</time>
      </trkpt>
      <trkpt lat="42.931958008557558" lon="2.992688035592437">
        <ele>16</ele>
        <time>2025-05-16T08:46:58Z</time>
      </trkpt>
      <trkpt lat="42.932096980512142" lon="2.992618968710303">
        <ele>16.48</ele>
        <time>2025-05-16T08:46:59Z</time>
      </trkpt>
      <trkpt lat="42.933629024773836" lon="2.992068026214838">
        <ele>17.920000000000002</ele>
        <time>2025-05-16T08:47:08Z</time>
      </trkpt>
      <trkpt lat="42.936321962624788" lon="2.991332011297345">
        <ele>19.359999999999999</ele>
        <time>2025-05-16T08:47:22Z</time>
      </trkpt>
      <trkpt lat="42.938777022063732" lon="2.990540005266666">
        <ele>21.289999999999999</ele>
        <time>2025-05-16T08:47:35Z</time>
      </trkpt>
      <trkpt lat="42.941816970705986" lon="2.989643979817629">
        <ele>21.289999999999999</ele>
        <time>2025-05-16T08:47:51Z</time>
      </trkpt>
      <trkpt lat="42.94479195959866" lon="2.988775027915835">
        <ele>22.73</ele>
        <time>2025-05-16T08:48:07Z</time>
      </trkpt>
      <trkpt lat="42.946747960522771" lon="2.988188965246081">
        <ele>22.25</ele>
        <time>2025-05-16T08:48:18Z</time>
      </trkpt>
      <trkpt lat="42.949173012748361" lon="2.987459991127253">
        <ele>19.84</ele>
        <time>2025-05-16T08:48:31Z</time>
      </trkpt>
      <trkpt lat="42.951136976480484" lon="2.986868983134627">
        <ele>18.879999999999999</ele>
        <time>2025-05-16T08:48:42Z</time>
      </trkpt>
      <trkpt lat="42.95319196768105" lon="2.986244028434157">
        <ele>17.440000000000001</ele>
        <time>2025-05-16T08:48:53Z</time>
      </trkpt>
      <trkpt lat="42.955719027668238" lon="2.985475994646549">
        <ele>14.08</ele>
        <time>2025-05-16T08:49:06Z</time>
      </trkpt>
      <trkpt lat="42.957208994776011" lon="2.985244989395142">
        <ele>13.119999999999999</ele>
        <time>2025-05-16T08:49:15Z</time>
      </trkpt>
      <trkpt lat="42.958270981907845" lon="2.985296035185456">
        <ele>13.6</ele>
        <time>2025-05-16T08:49:24Z</time>
      </trkpt>
      <trkpt lat="42.958449013531208" lon="2.985320007428527">
        <ele>13.6</ele>
        <time>2025-05-16T08:49:27Z</time>
      </trkpt>
      <trkpt lat="42.958520008251071" lon="2.985329981893301">
        <ele>13.6</ele>
        <time>2025-05-16T08:49:28Z</time>
      </trkpt>
      <trkpt lat="42.95860500074923" lon="2.985342973843217">
        <ele>13.6</ele>
        <time>2025-05-16T08:49:29Z</time>
      </trkpt>
      <trkpt lat="42.958679012954235" lon="2.985406005755067">
        <ele>13.6</ele>
        <time>2025-05-16T08:49:30Z</time>
      </trkpt>
      <trkpt lat="42.958761993795633" lon="2.985471971333027">
        <ele>13.6</ele>
        <time>2025-05-16T08:49:31Z</time>
      </trkpt>
      <trkpt lat="42.958858972415328" lon="2.985484963282943">
        <ele>13.6</ele>
        <time>2025-05-16T08:49:32Z</time>
      </trkpt>
      <trkpt lat="42.958971038460732" lon="2.985452022403479">
        <ele>13.119999999999999</ele>
        <time>2025-05-16T08:49:33Z</time>
      </trkpt>
      <trkpt lat="42.959056030958891" lon="2.9853490088135">
        <ele>13.119999999999999</ele>
        <time>2025-05-16T08:49:34Z</time>
      </trkpt>
      <trkpt lat="42.9590970184654" lon="2.985277008265257">
        <ele>13.119999999999999</ele>
        <time>2025-05-16T08:49:35Z</time>
      </trkpt>
      <trkpt lat="42.959139011800289" lon="2.985108029097319">
        <ele>12.630000000000001</ele>
        <time>2025-05-16T08:49:36Z</time>
      </trkpt>
      <trkpt lat="42.959246970713139" lon="2.985034016892314">
        <ele>12.630000000000001</ele>
        <time>2025-05-16T08:49:37Z</time>
      </trkpt>
      <trkpt lat="42.959343027323484" lon="2.984969979152083">
        <ele>12.630000000000001</ele>
        <time>2025-05-16T08:49:38Z</time>
      </trkpt>
      <trkpt lat="42.959445035085082" lon="2.984902001917362">
        <ele>12.630000000000001</ele>
        <time>2025-05-16T08:49:39Z</time>
      </trkpt>
      <trkpt lat="42.960411971434951" lon="2.984183002263308">
        <ele>11.67</ele>
        <time>2025-05-16T08:49:47Z</time>
      </trkpt>
      <trkpt lat="42.961833961308002" lon="2.983698025345802">
        <ele>13.119999999999999</ele>
        <time>2025-05-16T08:49:56Z</time>
      </trkpt>
      <trkpt lat="42.963988026604056" lon="2.983050020411611">
        <ele>12.630000000000001</ele>
        <time>2025-05-16T08:50:08Z</time>
      </trkpt>
      <trkpt lat="42.966757994145155" lon="2.982217026874423">
        <ele>14.56</ele>
        <time>2025-05-16T08:50:23Z</time>
      </trkpt>
      <trkpt lat="42.969502983614802" lon="2.981390990316868">
        <ele>16</ele>
        <time>2025-05-16T08:50:38Z</time>
      </trkpt>
      <trkpt lat="42.972579980269074" lon="2.980465963482857">
        <ele>19.359999999999999</ele>
        <time>2025-05-16T08:50:53Z</time>
      </trkpt>
      <trkpt lat="42.975333016365767" lon="2.979645039886236">
        <ele>24.170000000000002</ele>
        <time>2025-05-16T08:51:06Z</time>
      </trkpt>
      <trkpt lat="42.978546973317862" lon="2.97901002690196">
        <ele>28.98</ele>
        <time>2025-05-16T08:51:21Z</time>
      </trkpt>
      <trkpt lat="42.980017997324467" lon="2.979542026296258">
        <ele>38.109999999999999</ele>
        <time>2025-05-16T08:51:28Z</time>
      </trkpt>
      <trkpt lat="42.982053039595485" lon="2.980488007888198">
        <ele>53.009999999999998</ele>
        <time>2025-05-16T08:51:37Z</time>
      </trkpt>
      <trkpt lat="42.98348399810493" lon="2.98045095987618">
        <ele>62.140000000000001</ele>
        <time>2025-05-16T08:51:43Z</time>
      </trkpt>
      <trkpt lat="42.984732985496521" lon="2.97976003959775">
        <ele>69.349999999999994</ele>
        <time>2025-05-16T08:51:49Z</time>
      </trkpt>
      <trkpt lat="42.985759014263749" lon="2.978350035846233">
        <ele>76.079999999999998</ele>
        <time>2025-05-16T08:51:56Z</time>
      </trkpt>
      <trkpt lat="42.98668303526938" lon="2.976470980793238">
        <ele>79.930000000000007</ele>
        <time>2025-05-16T08:52:03Z</time>
      </trkpt>
      <trkpt lat="42.987748961895704" lon="2.974376007914543">
        <ele>86.180000000000007</ele>
        <time>2025-05-16T08:52:11Z</time>
      </trkpt>
      <trkpt lat="42.988778008148074" lon="2.973062982782722">
        <ele>89.060000000000002</ele>
        <time>2025-05-16T08:52:18Z</time>
      </trkpt>
      <trkpt lat="42.990104025229812" lon="2.972309030592442">
        <ele>90.019999999999996</ele>
        <time>2025-05-16T08:52:25Z</time>
      </trkpt>
      <trkpt lat="42.992347022518516" lon="2.97123103402555">
        <ele>85.689999999999998</ele>
        <time>2025-05-16T08:52:36Z</time>
      </trkpt>
      <trkpt lat="42.994041005149484" lon="2.970553021878004">
        <ele>74.640000000000001</ele>
        <time>2025-05-16T08:52:44Z</time>
      </trkpt>
      <trkpt lat="42.996140001341701" lon="2.970264013856649">
        <ele>59.740000000000002</ele>
        <time>2025-05-16T08:52:54Z</time>
      </trkpt>
      <trkpt lat="42.99833002500236" lon="2.969880038872361">
        <ele>50.130000000000003</ele>
        <time>2025-05-16T08:53:04Z</time>
      </trkpt>
      <trkpt lat="43.001372991129756" lon="2.96946999616921">
        <ele>40.990000000000002</ele>
        <time>2025-05-16T08:53:17Z</time>
      </trkpt>
      <trkpt lat="43.004385028034449" lon="2.969381986185908">
        <ele>43.880000000000003</ele>
        <time>2025-05-16T08:53:31Z</time>
      </trkpt>
      <trkpt lat="43.007684983313084" lon="2.969401013106108">
        <ele>59.740000000000002</ele>
        <time>2025-05-16T08:53:45Z</time>
      </trkpt>
      <trkpt lat="43.008995996788144" lon="2.96966495923698">
        <ele>66.950000000000003</ele>
        <time>2025-05-16T08:53:51Z</time>
      </trkpt>
      <trkpt lat="43.011215021833777" lon="2.970402985811234">
        <ele>71.269999999999996</ele>
        <time>2025-05-16T08:54:02Z</time>
      </trkpt>
      <trkpt lat="43.01266198977828" lon="2.971259029582143">
        <ele>63.100000000000001</ele>
        <time>2025-05-16T08:54:09Z</time>
      </trkpt>
      <trkpt lat="43.01448698155582" lon="2.97239301726222">
        <ele>50.609999999999999</ele>
        <time>2025-05-16T08:54:18Z</time>
      </trkpt>
      <trkpt lat="43.015849962830544" lon="2.97265000641346">
        <ele>41.950000000000003</ele>
        <time>2025-05-16T08:54:24Z</time>
      </trkpt>
      <trkpt lat="43.017207998782396" lon="2.972262008115649">
        <ele>36.189999999999998</ele>
        <time>2025-05-16T08:54:30Z</time>
      </trkpt>
      <trkpt lat="43.017422994598746" lon="2.972143990918994">
        <ele>35.710000000000001</ele>
        <time>2025-05-16T08:54:31Z</time>
      </trkpt>
      <trkpt lat="43.017655005678535" lon="2.972015999257565">
        <ele>34.740000000000002</ele>
        <time>2025-05-16T08:54:32Z</time>
      </trkpt>
      <trkpt lat="43.018857976421714" lon="2.970661986619234">
        <ele>31.859999999999999</ele>
        <time>2025-05-16T08:54:39Z</time>
      </trkpt>
      <trkpt lat="43.019741009920835" lon="2.968706991523504">
        <ele>31.379999999999999</ele>
        <time>2025-05-16T08:54:47Z</time>
      </trkpt>
      <trkpt lat="43.020666036754847" lon="2.966727018356323">
        <ele>28.98</ele>
        <time>2025-05-16T08:54:56Z</time>
      </trkpt>
      <trkpt lat="43.021827014163136" lon="2.965363031253219">
        <ele>28.98</ele>
        <time>2025-05-16T08:55:05Z</time>
      </trkpt>
      <trkpt lat="43.023119000717998" lon="2.964642019942403">
        <ele>29.460000000000001</ele>
        <time>2025-05-16T08:55:13Z</time>
      </trkpt>
      <trkpt lat="43.024682980030775" lon="2.964502964168787">
        <ele>29.940000000000001</ele>
        <time>2025-05-16T08:55:21Z</time>
      </trkpt>
      <trkpt lat="43.026054007932544" lon="2.965064970776439">
        <ele>30.420000000000002</ele>
        <time>2025-05-16T08:55:28Z</time>
      </trkpt>
      <trkpt lat="43.027890985831618" lon="2.966309012845159">
        <ele>28.02</ele>
        <time>2025-05-16T08:55:38Z</time>
      </trkpt>
      <trkpt lat="43.0298070050776" lon="2.967394972220063">
        <ele>25.609999999999999</ele>
        <time>2025-05-16T08:55:49Z</time>
      </trkpt>
      <trkpt lat="43.030994972214103" lon="2.967678029090166">
        <ele>22.73</ele>
        <time>2025-05-16T08:55:55Z</time>
      </trkpt>
      <trkpt lat="43.032910991460085" lon="2.968154959380627">
        <ele>19.359999999999999</ele>
        <time>2025-05-16T08:56:04Z</time>
      </trkpt>
      <trkpt lat="43.035283992066979" lon="2.968792989850044">
        <ele>17.440000000000001</ele>
        <time>2025-05-16T08:56:15Z</time>
      </trkpt>
      <trkpt lat="43.037018040195107" lon="2.969288025051355">
        <ele>18.399999999999999</ele>
        <time>2025-05-16T08:56:23Z</time>
      </trkpt>
      <trkpt lat="43.038848983123899" lon="2.969432026147842">
        <ele>20.32</ele>
        <time>2025-05-16T08:56:31Z</time>
      </trkpt>
      <trkpt lat="43.040273990482092" lon="2.968947971239686">
        <ele>20.32</ele>
        <time>2025-05-16T08:56:38Z</time>
      </trkpt>
      <trkpt lat="43.041996974498034" lon="2.967920014634728">
        <ele>13.119999999999999</ele>
        <time>2025-05-16T08:56:48Z</time>
      </trkpt>
      <trkpt lat="43.043120987713337" lon="2.967224987223744">
        <ele>11.19</ele>
        <time>2025-05-16T08:56:53Z</time>
      </trkpt>
      <trkpt lat="43.04428800009191" lon="2.96648402698338">
        <ele>10.710000000000001</ele>
        <time>2025-05-16T08:56:59Z</time>
      </trkpt>
      <trkpt lat="43.046529991552234" lon="2.965059019625187">
        <ele>9.27</ele>
        <time>2025-05-16T08:57:11Z</time>
      </trkpt>
      <trkpt lat="43.048897041007876" lon="2.963704001158476">
        <ele>10.23</ele>
        <time>2025-05-16T08:57:23Z</time>
      </trkpt>
      <trkpt lat="43.050499996170402" lon="2.963367970660329">
        <ele>10.710000000000001</ele>
        <time>2025-05-16T08:57:31Z</time>
      </trkpt>
      <trkpt lat="43.052008990198374" lon="2.962689036503434">
        <ele>12.15</ele>
        <time>2025-05-16T08:57:39Z</time>
      </trkpt>
      <trkpt lat="43.053082041442394" lon="2.961475001648068">
        <ele>15.039999999999999</ele>
        <time>2025-05-16T08:57:46Z</time>
      </trkpt>
      <trkpt lat="43.053775979205966" lon="2.959852013736963">
        <ele>18.879999999999999</ele>
        <time>2025-05-16T08:57:53Z</time>
      </trkpt>
      <trkpt lat="43.054040009155869" lon="2.95780498534441">
        <ele>22.73</ele>
        <time>2025-05-16T08:58:01Z</time>
      </trkpt>
      <trkpt lat="43.053906988352537" lon="2.955288989469409">
        <ele>28.98</ele>
        <time>2025-05-16T08:58:11Z</time>
      </trkpt>
      <trkpt lat="43.053892990574241" lon="2.952643996104598">
        <ele>32.340000000000003</ele>
        <time>2025-05-16T08:58:22Z</time>
      </trkpt>
      <trkpt lat="43.053938001394272" lon="2.949758023023605">
        <ele>29.940000000000001</ele>
        <time>2025-05-16T08:58:34Z</time>
      </trkpt>
      <trkpt lat="43.053988963365555" lon="2.947270022705197">
        <ele>31.859999999999999</ele>
        <time>2025-05-16T08:58:45Z</time>
      </trkpt>
      <trkpt lat="43.054142016917467" lon="2.946390006691217">
        <ele>32.82</ele>
        <time>2025-05-16T08:58:49Z</time>
      </trkpt>
      <trkpt lat="43.054867973551154" lon="2.944452026858926">
        <ele>32.82</ele>
        <time>2025-05-16T08:58:59Z</time>
      </trkpt>
      <trkpt lat="43.055670037865639" lon="2.943490035831928">
        <ele>31.379999999999999</ele>
        <time>2025-05-16T08:59:06Z</time>
      </trkpt>
      <trkpt lat="43.056795978918672" lon="2.942603984847665">
        <ele>28.98</ele>
        <time>2025-05-16T08:59:14Z</time>
      </trkpt>
      <trkpt lat="43.058144962415099" lon="2.941569993272424">
        <ele>20.809999999999999</ele>
        <time>2025-05-16T08:59:23Z</time>
      </trkpt>
      <trkpt lat="43.059417000040412" lon="2.940634991973639">
        <ele>10.710000000000001</ele>
        <time>2025-05-16T08:59:32Z</time>
      </trkpt>
      <trkpt lat="43.060182016342878" lon="2.940055970102549">
        <ele>7.35</ele>
        <time>2025-05-16T08:59:40Z</time>
      </trkpt>
      <trkpt lat="43.061180971562862" lon="2.939299000427127">
        <ele>3.98</ele>
        <time>2025-05-16T08:59:49Z</time>
      </trkpt>
      <trkpt lat="43.062544958665967" lon="2.938298033550382">
        <ele>3.5</ele>
        <time>2025-05-16T09:00:00Z</time>
      </trkpt>
      <trkpt lat="43.06396602652967" lon="2.937613986432552">
        <ele>4.94</ele>
        <time>2025-05-16T09:00:09Z</time>
      </trkpt>
      <trkpt lat="43.065210990607738" lon="2.937660003080964">
        <ele>6.87</ele>
        <time>2025-05-16T09:00:17Z</time>
      </trkpt>
      <trkpt lat="43.066440029069781" lon="2.938221003860235">
        <ele>10.710000000000001</ele>
        <time>2025-05-16T09:00:26Z</time>
      </trkpt>
      <trkpt lat="43.067220970988274" lon="2.938748979941011">
        <ele>12.15</ele>
        <time>2025-05-16T09:00:35Z</time>
      </trkpt>
      <trkpt lat="43.067539986222982" lon="2.939018039032817">
        <ele>13.6</ele>
        <time>2025-05-16T09:00:43Z</time>
      </trkpt>
      <trkpt lat="43.067587008699775" lon="2.939057014882565">
        <ele>13.6</ele>
        <time>2025-05-16T09:00:44Z</time>
      </trkpt>
      <trkpt lat="43.067683987319469" lon="2.939288020133972">
        <ele>13.6</ele>
        <time>2025-05-16T09:00:47Z</time>
      </trkpt>
      <trkpt lat="43.067751964554191" lon="2.939321966841817">
        <ele>14.08</ele>
        <time>2025-05-16T09:00:48Z</time>
      </trkpt>
      <trkpt lat="43.067822959274054" lon="2.939358009025455">
        <ele>14.08</ele>
        <time>2025-05-16T09:00:49Z</time>
      </trkpt>
      <trkpt lat="43.067880040034652" lon="2.939315009862185">
        <ele>14.08</ele>
        <time>2025-05-16T09:00:50Z</time>
      </trkpt>
      <trkpt lat="43.068034015595913" lon="2.93926496990025">
        <ele>14.08</ele>
        <time>2025-05-16T09:00:51Z</time>
      </trkpt>
      <trkpt lat="43.068102998659015" lon="2.93932699598372">
        <ele>14.56</ele>
        <time>2025-05-16T09:00:52Z</time>
      </trkpt>
      <trkpt lat="43.068186985328794" lon="2.939402014017105">
        <ele>14.56</ele>
        <time>2025-05-16T09:00:53Z</time>
      </trkpt>
      <trkpt lat="43.068280024453998" lon="2.939486000686884">
        <ele>15.039999999999999</ele>
        <time>2025-05-16T09:00:54Z</time>
      </trkpt>
      <trkpt lat="43.069270011037588" lon="2.940373979508877">
        <ele>16.960000000000001</ele>
        <time>2025-05-16T09:01:02Z</time>
      </trkpt>
      <trkpt lat="43.07114202529192" lon="2.942081959918141">
        <ele>17.440000000000001</ele>
        <time>2025-05-16T09:01:14Z</time>
      </trkpt>
      <trkpt lat="43.07299199514091" lon="2.943620039150119">
        <ele>23.690000000000001</ele>
        <time>2025-05-16T09:01:26Z</time>
      </trkpt>
      <trkpt lat="43.073338000103831" lon="2.943735038861632">
        <ele>25.609999999999999</ele>
        <time>2025-05-16T09:01:28Z</time>
      </trkpt>
      <trkpt lat="43.073875028640032" lon="2.943849032744765">
        <ele>28.02</ele>
        <time>2025-05-16T09:01:31Z</time>
      </trkpt>
      <trkpt lat="43.074063034728169" lon="2.943854983896017">
        <ele>28.5</ele>
        <time>2025-05-16T09:01:32Z</time>
      </trkpt>
      <trkpt lat="43.075263993814588" lon="2.943503027781844">
        <ele>31.379999999999999</ele>
        <time>2025-05-16T09:01:39Z</time>
      </trkpt>
      <trkpt lat="43.076653964817524" lon="2.942835995927453">
        <ele>31.379999999999999</ele>
        <time>2025-05-16T09:01:48Z</time>
      </trkpt>
      <trkpt lat="43.077989034354687" lon="2.942845970392227">
        <ele>30.420000000000002</ele>
        <time>2025-05-16T09:01:56Z</time>
      </trkpt>
      <trkpt lat="43.07930801063776" lon="2.943080998957157">
        <ele>30.420000000000002</ele>
        <time>2025-05-16T09:02:04Z</time>
      </trkpt>
      <trkpt lat="43.081268034875393" lon="2.943419963121414">
        <ele>30.420000000000002</ele>
        <time>2025-05-16T09:02:15Z</time>
      </trkpt>
      <trkpt lat="43.082899991422892" lon="2.943703019991517">
        <ele>27.050000000000001</ele>
        <time>2025-05-16T09:02:22Z</time>
      </trkpt>
      <trkpt lat="43.08564598672092" lon="2.944178022444248">
        <ele>25.129999999999999</ele>
        <time>2025-05-16T09:02:35Z</time>
      </trkpt>
      <trkpt lat="43.086788021028042" lon="2.944373991340399">
        <ele>26.09</ele>
        <time>2025-05-16T09:02:41Z</time>
      </trkpt>
      <trkpt lat="43.086966974660754" lon="2.944403998553753">
        <ele>26.57</ele>
        <time>2025-05-16T09:02:42Z</time>
      </trkpt>
      <trkpt lat="43.088462976738811" lon="2.944968016818166">
        <ele>27.530000000000001</ele>
        <time>2025-05-16T09:02:50Z</time>
      </trkpt>
      <trkpt lat="43.091031024232507" lon="2.946366034448147">
        <ele>25.129999999999999</ele>
        <time>2025-05-16T09:03:04Z</time>
      </trkpt>
      <trkpt lat="43.093329006806016" lon="2.947460040450096">
        <ele>24.170000000000002</ele>
        <time>2025-05-16T09:03:16Z</time>
      </trkpt>
      <trkpt lat="43.094096034765244" lon="2.947691967710853">
        <ele>23.210000000000001</ele>
        <time>2025-05-16T09:03:20Z</time>
      </trkpt>
      <trkpt lat="43.096268037334085" lon="2.947636982426047">
        <ele>21.289999999999999</ele>
        <time>2025-05-16T09:03:31Z</time>
      </trkpt>
      <trkpt lat="43.098799036815763" lon="2.947608986869454">
        <ele>20.32</ele>
        <time>2025-05-16T09:03:44Z</time>
      </trkpt>
      <trkpt lat="43.100550016388297" lon="2.947434978559613">
        <ele>19.84</ele>
        <time>2025-05-16T09:03:53Z</time>
      </trkpt>
      <trkpt lat="43.101924983784556" lon="2.946602990850806">
        <ele>21.289999999999999</ele>
        <time>2025-05-16T09:04:01Z</time>
      </trkpt>
      <trkpt lat="43.103251000866294" lon="2.945704031735659">
        <ele>26.09</ele>
        <time>2025-05-16T09:04:10Z</time>
      </trkpt>
      <trkpt lat="43.104448020458221" lon="2.945417035371065">
        <ele>28.98</ele>
        <time>2025-05-16T09:04:18Z</time>
      </trkpt>
      <trkpt lat="43.105590976774693" lon="2.945653991773725">
        <ele>30.899999999999999</ele>
        <time>2025-05-16T09:04:25Z</time>
      </trkpt>
      <trkpt lat="43.106805011630058" lon="2.946412973105907">
        <ele>30.899999999999999</ele>
        <time>2025-05-16T09:04:32Z</time>
      </trkpt>
      <trkpt lat="43.108713990077376" lon="2.947869999334216">
        <ele>31.379999999999999</ele>
        <time>2025-05-16T09:04:44Z</time>
      </trkpt>
      <trkpt lat="43.110687006264925" lon="2.949326019734144">
        <ele>36.670000000000002</ele>
        <time>2025-05-16T09:04:56Z</time>
      </trkpt>
      <trkpt lat="43.112097010016441" lon="2.950048036873341">
        <ele>42.439999999999998</ele>
        <time>2025-05-16T09:05:04Z</time>
      </trkpt>
      <trkpt lat="43.113523023203015" lon="2.950478028506041">
        <ele>47.719999999999999</ele>
        <time>2025-05-16T09:05:13Z</time>
      </trkpt>
      <trkpt lat="43.115270985290408" lon="2.951026959344745">
        <ele>49.159999999999997</ele>
        <time>2025-05-16T09:05:25Z</time>
      </trkpt>
      <trkpt lat="43.116359962150455" lon="2.951396014541388">
        <ele>52.049999999999997</ele>
        <time>2025-05-16T09:05:35Z</time>
      </trkpt>
      <trkpt lat="43.116615023463964" lon="2.951539009809494">
        <ele>52.049999999999997</ele>
        <time>2025-05-16T09:05:38Z</time>
      </trkpt>
      <trkpt lat="43.117397977039218" lon="2.952063968405128">
        <ele>51.090000000000003</ele>
        <time>2025-05-16T09:05:47Z</time>
      </trkpt>
      <trkpt lat="43.118511009961367" lon="2.952803000807762">
        <ele>50.609999999999999</ele>
        <time>2025-05-16T09:05:59Z</time>
      </trkpt>
      <trkpt lat="43.11858301050961" lon="2.952854968607426">
        <ele>50.609999999999999</ele>
        <time>2025-05-16T09:06:00Z</time>
      </trkpt>
      <trkpt lat="43.11903496272862" lon="2.953138025477529">
        <ele>49.649999999999999</ele>
        <time>2025-05-16T09:06:08Z</time>
      </trkpt>
      <trkpt lat="43.119128001853824" lon="2.953196028247476">
        <ele>46.759999999999998</ele>
        <time>2025-05-16T09:06:18Z</time>
      </trkpt>
      <trkpt lat="43.119449028745294" lon="2.953424016013742">
        <ele>44.359999999999999</ele>
        <time>2025-05-16T09:06:25Z</time>
      </trkpt>
      <trkpt lat="43.11955195851624" lon="2.953490987420082">
        <ele>43.880000000000003</ele>
        <time>2025-05-16T09:06:27Z</time>
      </trkpt>
      <trkpt lat="43.119598980993032" lon="2.953519988805056">
        <ele>43.880000000000003</ele>
        <time>2025-05-16T09:06:28Z</time>
      </trkpt>
      <trkpt lat="43.119665030390024" lon="2.953562987968326">
        <ele>43.880000000000003</ele>
        <time>2025-05-16T09:06:29Z</time>
      </trkpt>
      <trkpt lat="43.119776006788015" lon="2.953629959374666">
        <ele>43.399999999999999</ele>
        <time>2025-05-16T09:06:31Z</time>
      </trkpt>
      <trkpt lat="43.119839960709214" lon="2.953675976023078">
        <ele>43.399999999999999</ele>
        <time>2025-05-16T09:06:32Z</time>
      </trkpt>
      <trkpt lat="43.120503975078464" lon="2.954101022332907">
        <ele>41.950000000000003</ele>
        <time>2025-05-16T09:06:42Z</time>
      </trkpt>
      <trkpt lat="43.121347026899457" lon="2.954618018120527">
        <ele>40.030000000000001</ele>
        <time>2025-05-16T09:06:51Z</time>
      </trkpt>
      <trkpt lat="43.122560977935791" lon="2.955537009984255">
        <ele>39.07</ele>
        <time>2025-05-16T09:06:59Z</time>
      </trkpt>
      <trkpt lat="43.124517984688282" lon="2.957270974293351">
        <ele>38.590000000000003</ele>
        <time>2025-05-16T09:07:10Z</time>
      </trkpt>
      <trkpt lat="43.12569597736001" lon="2.958316029980779">
        <ele>38.109999999999999</ele>
        <time>2025-05-16T09:07:16Z</time>
      </trkpt>
      <trkpt lat="43.12709198333323" lon="2.959583960473537">
        <ele>40.030000000000001</ele>
        <time>2025-05-16T09:07:25Z</time>
      </trkpt>
      <trkpt lat="43.129314025864005" lon="2.961547002196312">
        <ele>40.990000000000002</ele>
        <time>2025-05-16T09:07:39Z</time>
      </trkpt>
      <trkpt lat="43.131128959357738" lon="2.963172001764178">
        <ele>39.549999999999997</ele>
        <time>2025-05-16T09:07:49Z</time>
      </trkpt>
      <trkpt lat="43.133903034031391" lon="2.965695960447192">
        <ele>38.109999999999999</ele>
        <time>2025-05-16T09:08:03Z</time>
      </trkpt>
      <trkpt lat="43.136421041563153" lon="2.968121012672782">
        <ele>36.670000000000002</ele>
        <time>2025-05-16T09:08:15Z</time>
      </trkpt>
      <trkpt lat="43.137546982616186" lon="2.969554988667369">
        <ele>37.630000000000003</ele>
        <time>2025-05-16T09:08:21Z</time>
      </trkpt>
      <trkpt lat="43.139067962765694" lon="2.971553988754749">
        <ele>36.189999999999998</ele>
        <time>2025-05-16T09:08:31Z</time>
      </trkpt>
      <trkpt lat="43.139499966055155" lon="2.972012981772423">
        <ele>36.189999999999998</ele>
        <time>2025-05-16T09:08:34Z</time>
      </trkpt>
      <trkpt lat="43.13963801600039" lon="2.972158994525671">
        <ele>36.670000000000002</ele>
        <time>2025-05-16T09:08:35Z</time>
      </trkpt>
      <trkpt lat="43.141580019146204" lon="2.973400019109249">
        <ele>35.710000000000001</ele>
        <time>2025-05-16T09:08:46Z</time>
      </trkpt>
      <trkpt lat="43.143525961786509" lon="2.974638026207686">
        <ele>32.82</ele>
        <time>2025-05-16T09:08:58Z</time>
      </trkpt>
      <trkpt lat="43.144457023590803" lon="2.975188968703151">
        <ele>31.859999999999999</ele>
        <time>2025-05-16T09:09:05Z</time>
      </trkpt>
      <trkpt lat="43.144690962508321" lon="2.975325006991625">
        <ele>31.859999999999999</ele>
        <time>2025-05-16T09:09:08Z</time>
      </trkpt>
      <trkpt lat="43.144834963604808" lon="2.975620971992612">
        <ele>31.379999999999999</ele>
        <time>2025-05-16T09:09:12Z</time>
      </trkpt>
      <trkpt lat="43.144844016060233" lon="2.975645028054714">
        <ele>31.379999999999999</ele>
        <time>2025-05-16T09:09:13Z</time>
      </trkpt>
      <trkpt lat="43.144879974424839" lon="2.975741000846028">
        <ele>30.899999999999999</ele>
        <time>2025-05-16T09:09:14Z</time>
      </trkpt>
      <trkpt lat="43.144916016608477" lon="2.975832028314471">
        <ele>30.420000000000002</ele>
        <time>2025-05-16T09:09:15Z</time>
      </trkpt>
      <trkpt lat="43.14503001049161" lon="2.975900005549192">
        <ele>29.940000000000001</ele>
        <time>2025-05-16T09:09:16Z</time>
      </trkpt>
      <trkpt lat="43.145109973847866" lon="2.975900005549192">
        <ele>29.940000000000001</ele>
        <time>2025-05-16T09:09:17Z</time>
      </trkpt>
      <trkpt lat="43.145178034901619" lon="2.975900005549192">
        <ele>29.460000000000001</ele>
        <time>2025-05-16T09:09:18Z</time>
      </trkpt>
      <trkpt lat="43.145346008241177" lon="2.975730020552874">
        <ele>29.460000000000001</ele>
        <time>2025-05-16T09:09:19Z</time>
      </trkpt>
      <trkpt lat="43.145438041538" lon="2.975782994180918">
        <ele>28.98</ele>
        <time>2025-05-16T09:09:20Z</time>
      </trkpt>
      <trkpt lat="43.145553041249514" lon="2.975844014436007">
        <ele>28.98</ele>
        <time>2025-05-16T09:09:21Z</time>
      </trkpt>
      <trkpt lat="43.145693019032478" lon="2.975921966135502">
        <ele>28.5</ele>
        <time>2025-05-16T09:09:22Z</time>
      </trkpt>
      <trkpt lat="43.145811958238482" lon="2.975993966683745">
        <ele>28.02</ele>
        <time>2025-05-16T09:09:23Z</time>
      </trkpt>
      <trkpt lat="43.147213999181986" lon="2.976815979927778">
        <ele>23.210000000000001</ele>
        <time>2025-05-16T09:09:32Z</time>
      </trkpt>
      <trkpt lat="43.148467009887099" lon="2.977546965703368">
        <ele>21.289999999999999</ele>
        <time>2025-05-16T09:09:41Z</time>
      </trkpt>
      <trkpt lat="43.150137020274997" lon="2.978507028892636">
        <ele>21.289999999999999</ele>
        <time>2025-05-16T09:09:53Z</time>
      </trkpt>
      <trkpt lat="43.151446022093296" lon="2.979215970262885">
        <ele>21.289999999999999</ele>
        <time>2025-05-16T09:10:02Z</time>
      </trkpt>
      <trkpt lat="43.151721032336354" lon="2.97935402020812">
        <ele>20.809999999999999</ele>
        <time>2025-05-16T09:10:04Z</time>
      </trkpt>
      <trkpt lat="43.153418032452464" lon="2.980079976841807">
        <ele>17.440000000000001</ele>
        <time>2025-05-16T09:10:15Z</time>
      </trkpt>
      <trkpt lat="43.155097011476755" lon="2.980754971504211">
        <ele>15.52</ele>
        <time>2025-05-16T09:10:27Z</time>
      </trkpt>
      <trkpt lat="43.156276009976864" lon="2.981283031404018">
        <ele>14.08</ele>
        <time>2025-05-16T09:10:36Z</time>
      </trkpt>
      <trkpt lat="43.15657096914947" lon="2.981410017237067">
        <ele>13.6</ele>
        <time>2025-05-16T09:10:40Z</time>
      </trkpt>
      <trkpt lat="43.15663299523294" lon="2.981434995308518">
        <ele>13.119999999999999</ele>
        <time>2025-05-16T09:10:48Z</time>
      </trkpt>
      <trkpt lat="43.156657973304391" lon="2.981537003070116">
        <ele>12.630000000000001</ele>
        <time>2025-05-16T09:10:49Z</time>
      </trkpt>
      <trkpt lat="43.156680017709732" lon="2.981639010831714">
        <ele>12.630000000000001</ele>
        <time>2025-05-16T09:10:50Z</time>
      </trkpt>
      <trkpt lat="43.156745983287692" lon="2.981771025806665">
        <ele>12.630000000000001</ele>
        <time>2025-05-16T09:10:51Z</time>
      </trkpt>
      <trkpt lat="43.1568250246346" lon="2.981830034404993">
        <ele>12.15</ele>
        <time>2025-05-16T09:10:52Z</time>
      </trkpt>
      <trkpt lat="43.156929966062307" lon="2.98184797167778">
        <ele>12.15</ele>
        <time>2025-05-16T09:10:53Z</time>
      </trkpt>
      <trkpt lat="43.15702099353075" lon="2.981820981949568">
        <ele>12.15</ele>
        <time>2025-05-16T09:10:54Z</time>
      </trkpt>
      <trkpt lat="43.15708695910871" lon="2.98180103302002">
        <ele>12.15</ele>
        <time>2025-05-16T09:10:55Z</time>
      </trkpt>
      <trkpt lat="43.157230960205197" lon="2.98165300861001">
        <ele>12.15</ele>
        <time>2025-05-16T09:10:56Z</time>
      </trkpt>
      <trkpt lat="43.157337997108698" lon="2.9816950019449">
        <ele>11.67</ele>
        <time>2025-05-16T09:10:57Z</time>
      </trkpt>
      <trkpt lat="43.157452996820211" lon="2.981740012764931">
        <ele>11.67</ele>
        <time>2025-05-16T09:10:58Z</time>
      </trkpt>
      <trkpt lat="43.157575037330389" lon="2.981786029413343">
        <ele>12.15</ele>
        <time>2025-05-16T09:10:59Z</time>
      </trkpt>
      <trkpt lat="43.157702023163438" lon="2.981836991384625">
        <ele>12.15</ele>
        <time>2025-05-16T09:11:00Z</time>
      </trkpt>
      <trkpt lat="43.159316964447498" lon="2.982476027682424">
        <ele>11.67</ele>
        <time>2025-05-16T09:11:12Z</time>
      </trkpt>
      <trkpt lat="43.160934001207352" lon="2.983146999031305">
        <ele>12.15</ele>
        <time>2025-05-16T09:11:24Z</time>
      </trkpt>
      <trkpt lat="43.16249999217689" lon="2.984160035848618">
        <ele>13.6</ele>
        <time>2025-05-16T09:11:35Z</time>
      </trkpt>
      <trkpt lat="43.164383992552757" lon="2.985527962446213">
        <ele>16</ele>
        <time>2025-05-16T09:11:49Z</time>
      </trkpt>
      <trkpt lat="43.166271010413766" lon="2.986876023933291">
        <ele>17.440000000000001</ele>
        <time>2025-05-16T09:12:03Z</time>
      </trkpt>
      <trkpt lat="43.167503988370299" lon="2.987746987491846">
        <ele>17.920000000000002</ele>
        <time>2025-05-16T09:12:14Z</time>
      </trkpt>
      <trkpt lat="43.167557967826724" lon="2.987787974998355">
        <ele>17.920000000000002</ele>
        <time>2025-05-16T09:12:18Z</time>
      </trkpt>
      <trkpt lat="43.167596021667123" lon="2.98788201995194">
        <ele>17.920000000000002</ele>
        <time>2025-05-16T09:12:19Z</time>
      </trkpt>
      <trkpt lat="43.167613036930561" lon="2.987924013286829">
        <ele>17.920000000000002</ele>
        <time>2025-05-16T09:12:20Z</time>
      </trkpt>
      <trkpt lat="43.16763499751687" lon="2.987980004400015">
        <ele>17.920000000000002</ele>
        <time>2025-05-16T09:12:21Z</time>
      </trkpt>
      <trkpt lat="43.167662993073463" lon="2.988049993291497">
        <ele>17.920000000000002</ele>
        <time>2025-05-16T09:12:22Z</time>
      </trkpt>
      <trkpt lat="43.167687971144915" lon="2.988117970526218">
        <ele>17.920000000000002</ele>
        <time>2025-05-16T09:12:23Z</time>
      </trkpt>
      <trkpt lat="43.167696017771959" lon="2.988212015479803">
        <ele>17.440000000000001</ele>
        <time>2025-05-16T09:12:24Z</time>
      </trkpt>
      <trkpt lat="43.167704986408353" lon="2.988303964957595">
        <ele>17.440000000000001</ele>
        <time>2025-05-16T09:12:25Z</time>
      </trkpt>
      <trkpt lat="43.16774102859199" lon="2.988393986597657">
        <ele>17.440000000000001</ele>
        <time>2025-05-16T09:12:26Z</time>
      </trkpt>
      <trkpt lat="43.167800037190318" lon="2.98842097632587">
        <ele>17.440000000000001</ele>
        <time>2025-05-16T09:12:27Z</time>
      </trkpt>
      <trkpt lat="43.167857034131885" lon="2.988432962447405">
        <ele>16.960000000000001</ele>
        <time>2025-05-16T09:12:28Z</time>
      </trkpt>
      <trkpt lat="43.167915036901832" lon="2.988446038216353">
        <ele>16.960000000000001</ele>
        <time>2025-05-16T09:12:29Z</time>
      </trkpt>
      <trkpt lat="43.167983014136553" lon="2.988433968275785">
        <ele>16.960000000000001</ele>
        <time>2025-05-16T09:12:30Z</time>
      </trkpt>
      <trkpt lat="43.168030036613345" lon="2.988409996032715">
        <ele>16.960000000000001</ele>
        <time>2025-05-16T09:12:31Z</time>
      </trkpt>
      <trkpt lat="43.168157022446394" lon="2.988427011296153">
        <ele>16.48</ele>
        <time>2025-05-16T09:12:32Z</time>
      </trkpt>
      <trkpt lat="43.16825601272285" lon="2.988440003246069">
        <ele>16.48</ele>
        <time>2025-05-16T09:12:33Z</time>
      </trkpt>
      <trkpt lat="43.168359026312828" lon="2.988457018509507">
        <ele>16</ele>
        <time>2025-05-16T09:12:34Z</time>
      </trkpt>
      <trkpt lat="43.16913896240294" lon="2.988969990983605">
        <ele>15.039999999999999</ele>
        <time>2025-05-16T09:12:42Z</time>
      </trkpt>
      <trkpt lat="43.169399974867702" lon="2.989175012335181">
        <ele>14.08</ele>
        <time>2025-05-16T09:12:48Z</time>
      </trkpt>
      <trkpt lat="43.169495025649667" lon="2.98927903175354">
        <ele>13.6</ele>
        <time>2025-05-16T09:12:50Z</time>
      </trkpt>
      <trkpt lat="43.169549005106091" lon="2.989291017875075">
        <ele>13.6</ele>
        <time>2025-05-16T09:12:51Z</time>
      </trkpt>
      <trkpt lat="43.169597033411264" lon="2.98930199816823">
        <ele>13.6</ele>
        <time>2025-05-16T09:12:52Z</time>
      </trkpt>
      <trkpt lat="43.169640032574534" lon="2.989310966804624">
        <ele>13.6</ele>
        <time>2025-05-16T09:12:53Z</time>
      </trkpt>
      <trkpt lat="43.169710021466017" lon="2.989357989281416">
        <ele>13.6</ele>
        <time>2025-05-16T09:12:54Z</time>
      </trkpt>
      <trkpt lat="43.169785039499402" lon="2.98940802924335">
        <ele>13.6</ele>
        <time>2025-05-16T09:12:55Z</time>
      </trkpt>
      <trkpt lat="43.169872965663671" lon="2.989467037841678">
        <ele>13.119999999999999</ele>
        <time>2025-05-16T09:12:56Z</time>
      </trkpt>
      <trkpt lat="43.170648040249944" lon="2.989909015595913">
        <ele>12.630000000000001</ele>
        <time>2025-05-16T09:13:03Z</time>
      </trkpt>
      <trkpt lat="43.170862030237913" lon="2.989943968132138">
        <ele>13.119999999999999</ele>
        <time>2025-05-16T09:13:06Z</time>
      </trkpt>
      <trkpt lat="43.170908968895674" lon="2.98996701836586">
        <ele>13.119999999999999</ele>
        <time>2025-05-16T09:13:07Z</time>
      </trkpt>
      <trkpt lat="43.171327980235219" lon="2.990197017788887">
        <ele>14.08</ele>
        <time>2025-05-16T09:13:13Z</time>
      </trkpt>
      <trkpt lat="43.171631991863251" lon="2.990365996956825">
        <ele>15.039999999999999</ele>
        <time>2025-05-16T09:13:19Z</time>
      </trkpt>
      <trkpt lat="43.171811029314995" lon="2.990482002496719">
        <ele>15.52</ele>
        <time>2025-05-16T09:13:22Z</time>
      </trkpt>
      <trkpt lat="43.172499015927315" lon="2.991027999669313">
        <ele>16</ele>
        <time>2025-05-16T09:13:31Z</time>
      </trkpt>
      <trkpt lat="43.173339972272515" lon="2.991710035130382">
        <ele>14.56</ele>
        <time>2025-05-16T09:13:40Z</time>
      </trkpt>
      <trkpt lat="43.173541976138949" lon="2.991941040381789">
        <ele>13.6</ele>
        <time>2025-05-16T09:13:43Z</time>
      </trkpt>
      <trkpt lat="43.173587992787361" lon="2.992007005959749">
        <ele>12.630000000000001</ele>
        <time>2025-05-16T09:13:44Z</time>
      </trkpt>
      <trkpt lat="43.173619005829096" lon="2.992230970412493">
        <ele>11.19</ele>
        <time>2025-05-16T09:13:46Z</time>
      </trkpt>
      <trkpt lat="43.173670973628759" lon="2.992304982617497">
        <ele>10.710000000000001</ele>
        <time>2025-05-16T09:13:47Z</time>
      </trkpt>
      <trkpt lat="43.173719001933932" lon="2.992373965680599">
        <ele>10.23</ele>
        <time>2025-05-16T09:13:48Z</time>
      </trkpt>
      <trkpt lat="43.173792008310556" lon="2.992401039227843">
        <ele>9.75</ele>
        <time>2025-05-16T09:13:49Z</time>
      </trkpt>
      <trkpt lat="43.173856968060136" lon="2.992401039227843">
        <ele>8.789999999999999</ele>
        <time>2025-05-16T09:13:50Z</time>
      </trkpt>
      <trkpt lat="43.173924023285508" lon="2.992401039227843">
        <ele>8.789999999999999</ele>
        <time>2025-05-16T09:13:51Z</time>
      </trkpt>
      <trkpt lat="43.173930980265141" lon="2.992401039227843">
        <ele>8.310000000000001</ele>
        <time>2025-05-16T09:13:52Z</time>
      </trkpt>
      <trkpt lat="43.174114041030407" lon="2.992321997880936">
        <ele>8.310000000000001</ele>
        <time>2025-05-16T09:13:53Z</time>
      </trkpt>
      <trkpt lat="43.174192998558283" lon="2.99239500425756">
        <ele>7.83</ele>
        <time>2025-05-16T09:13:54Z</time>
      </trkpt>
      <trkpt lat="43.174284026026726" lon="2.992478990927339">
        <ele>7.83</ele>
        <time>2025-05-16T09:13:55Z</time>
      </trkpt>
      <trkpt lat="43.174384022131562" lon="2.992563983425498">
        <ele>7.83</ele>
        <time>2025-05-16T09:13:56Z</time>
      </trkpt>
      <trkpt lat="43.175297984853387" lon="2.993191033601761">
        <ele>6.87</ele>
        <time>2025-05-16T09:14:05Z</time>
      </trkpt>
      <trkpt lat="43.175651030614972" lon="2.993425978347659">
        <ele>7.35</ele>
        <time>2025-05-16T09:14:09Z</time>
      </trkpt>
      <trkpt lat="43.175718002021313" lon="2.993473000824451">
        <ele>7.35</ele>
        <time>2025-05-16T09:14:10Z</time>
      </trkpt>
      <trkpt lat="43.175695035606623" lon="2.993636028841138">
        <ele>7.83</ele>
        <time>2025-05-16T09:14:11Z</time>
      </trkpt>
      <trkpt lat="43.175699980929494" lon="2.993742981925607">
        <ele>7.83</ele>
        <time>2025-05-16T09:14:12Z</time>
      </trkpt>
      <trkpt lat="43.175711967051029" lon="2.993968036025763">
        <ele>7.35</ele>
        <time>2025-05-16T09:14:13Z</time>
      </trkpt>
      <trkpt lat="43.175701992586255" lon="2.994008017703891">
        <ele>6.87</ele>
        <time>2025-05-16T09:14:14Z</time>
      </trkpt>
      <trkpt lat="43.175484985113144" lon="2.994835982099176">
        <ele>4.94</ele>
        <time>2025-05-16T09:14:20Z</time>
      </trkpt>
      <trkpt lat="43.175441985949874" lon="2.995228003710508">
        <ele>3.02</ele>
        <time>2025-05-16T09:14:23Z</time>
      </trkpt>
      <trkpt lat="43.175531001761556" lon="2.996630966663361">
        <ele>2.06</ele>
        <time>2025-05-16T09:14:34Z</time>
      </trkpt>
      <trkpt lat="43.175601996481419" lon="2.997671999037266">
        <ele>0.62</ele>
        <time>2025-05-16T09:14:44Z</time>
      </trkpt>
      <trkpt lat="43.17558498121798" lon="2.999044032767415">
        <ele>0.62</ele>
        <time>2025-05-16T09:14:53Z</time>
      </trkpt>
      <trkpt lat="43.175544999539852" lon="2.999548958614469">
        <ele>1.1</ele>
        <time>2025-05-16T09:14:56Z</time>
      </trkpt>
      <trkpt lat="43.175268983468413" lon="3.001309996470809">
        <ele>2.54</ele>
        <time>2025-05-16T09:15:07Z</time>
      </trkpt>
      <trkpt lat="43.175100004300475" lon="3.002770040184259">
        <ele>2.54</ele>
        <time>2025-05-16T09:15:17Z</time>
      </trkpt>
      <trkpt lat="43.175081983208656" lon="3.003171030431986">
        <ele>2.54</ele>
        <time>2025-05-16T09:15:21Z</time>
      </trkpt>
      <trkpt lat="43.175076032057405" lon="3.003298016265035">
        <ele>2.06</ele>
        <time>2025-05-16T09:15:23Z</time>
      </trkpt>
      <trkpt lat="43.175074020400643" lon="3.003360964357853">
        <ele>2.06</ele>
        <time>2025-05-16T09:15:24Z</time>
      </trkpt>
      <trkpt lat="43.17506798543036" lon="3.003473030403256">
        <ele>2.06</ele>
        <time>2025-05-16T09:15:26Z</time>
      </trkpt>
      <trkpt lat="43.1749829929322" lon="3.003623988479376">
        <ele>2.06</ele>
        <time>2025-05-16T09:15:27Z</time>
      </trkpt>
      <trkpt lat="43.175042001530528" lon="3.003763966262341">
        <ele>1.58</ele>
        <time>2025-05-16T09:15:28Z</time>
      </trkpt>
      <trkpt lat="43.175034038722515" lon="3.003896987065673">
        <ele>1.58</ele>
        <time>2025-05-16T09:15:29Z</time>
      </trkpt>
      <trkpt lat="43.175026997923851" lon="3.004030007869005">
        <ele>1.58</ele>
        <time>2025-05-16T09:15:30Z</time>
      </trkpt>
      <trkpt lat="43.175018029287457" lon="3.004163028672338">
        <ele>1.1</ele>
        <time>2025-05-16T09:15:31Z</time>
      </trkpt>
      <trkpt lat="43.174963966012001" lon="3.005131976678968">
        <ele>0.14</ele>
        <time>2025-05-16T09:15:40Z</time>
      </trkpt>
      <trkpt lat="43.174914009869099" lon="3.005405981093645">
        <ele>0.14</ele>
        <time>2025-05-16T09:15:43Z</time>
      </trkpt>
      <trkpt lat="43.174894982948899" lon="3.005486028268933">
        <ele>0.62</ele>
        <time>2025-05-16T09:15:44Z</time>
      </trkpt>
      <trkpt lat="43.174875034019351" lon="3.00556699745357">
        <ele>0.62</ele>
        <time>2025-05-16T09:15:45Z</time>
      </trkpt>
      <trkpt lat="43.174856007099152" lon="3.005646960809827">
        <ele>1.1</ele>
        <time>2025-05-16T09:15:46Z</time>
      </trkpt>
      <trkpt lat="43.174834968522191" lon="3.005732959136367">
        <ele>1.1</ele>
        <time>2025-05-16T09:15:47Z</time>
      </trkpt>
      <trkpt lat="43.174814013764262" lon="3.005821974948049">
        <ele>1.58</ele>
        <time>2025-05-16T09:15:48Z</time>
      </trkpt>
      <trkpt lat="43.174799010157585" lon="3.005934963002801">
        <ele>2.06</ele>
        <time>2025-05-16T09:15:49Z</time>
      </trkpt>
      <trkpt lat="43.174832034856081" lon="3.006048034876585">
        <ele>2.54</ele>
        <time>2025-05-16T09:15:50Z</time>
      </trkpt>
      <trkpt lat="43.174861958250403" lon="3.006269987672567">
        <ele>3.5</ele>
        <time>2025-05-16T09:15:52Z</time>
      </trkpt>
      <trkpt lat="43.174847038462758" lon="3.007619976997376">
        <ele>2.54</ele>
        <time>2025-05-16T09:16:02Z</time>
      </trkpt>
      <trkpt lat="43.174976035952568" lon="3.008717000484467">
        <ele>2.54</ele>
        <time>2025-05-16T09:16:11Z</time>
      </trkpt>
      <trkpt lat="43.175047030672431" lon="3.009073985740542">
        <ele>2.54</ele>
        <time>2025-05-16T09:16:14Z</time>
      </trkpt>
      <trkpt lat="43.175495965406299" lon="3.01016204059124">
        <ele>2.06</ele>
        <time>2025-05-16T09:16:24Z</time>
      </trkpt>
      <trkpt lat="43.176238015294075" lon="3.010968966409564">
        <ele>2.06</ele>
        <time>2025-05-16T09:16:33Z</time>
      </trkpt>
      <trkpt lat="43.177187014371157" lon="3.011586964130402">
        <ele>2.06</ele>
        <time>2025-05-16T09:16:42Z</time>
      </trkpt>
      <trkpt lat="43.178370036184788" lon="3.012364972382784">
        <ele>2.06</ele>
        <time>2025-05-16T09:16:53Z</time>
      </trkpt>
      <trkpt lat="43.179305959492922" lon="3.012970983982086">
        <ele>2.06</ele>
        <time>2025-05-16T09:17:04Z</time>
      </trkpt>
      <trkpt lat="43.179349964484572" lon="3.012997973710299">
        <ele>1.58</ele>
        <time>2025-05-16T09:17:13Z</time>
      </trkpt>
      <trkpt lat="43.179423976689577" lon="3.01304298453033">
        <ele>2.06</ele>
        <time>2025-05-16T09:17:19Z</time>
      </trkpt>
      <trkpt lat="43.179439986124635" lon="3.013075003400445">
        <ele>2.54</ele>
        <time>2025-05-16T09:17:20Z</time>
      </trkpt>
      <trkpt lat="43.179467981681228" lon="3.013130994513631">
        <ele>2.54</ele>
        <time>2025-05-16T09:17:21Z</time>
      </trkpt>
      <trkpt lat="43.179497988894582" lon="3.013190003111959">
        <ele>3.02</ele>
        <time>2025-05-16T09:17:22Z</time>
      </trkpt>
      <trkpt lat="43.179555991664529" lon="3.013199977576733">
        <ele>3.5</ele>
        <time>2025-05-16T09:17:23Z</time>
      </trkpt>
      <trkpt lat="43.179604019969702" lon="3.013183968141675">
        <ele>3.98</ele>
        <time>2025-05-16T09:17:24Z</time>
      </trkpt>
      <trkpt lat="43.179678032174706" lon="3.013202995061874">
        <ele>4.46</ele>
        <time>2025-05-16T09:17:25Z</time>
      </trkpt>
      <trkpt lat="43.179733017459512" lon="3.013247000053525">
        <ele>4.46</ele>
        <time>2025-05-16T09:17:26Z</time>
      </trkpt>
      <trkpt lat="43.180153034627438" lon="3.013628041371703">
        <ele>6.39</ele>
        <time>2025-05-16T09:17:33Z</time>
      </trkpt>
      <trkpt lat="43.180196033790708" lon="3.013676991686225">
        <ele>6.39</ele>
        <time>2025-05-16T09:17:34Z</time>
      </trkpt>
      <trkpt lat="43.180232997983694" lon="3.013719990849495">
        <ele>6.87</ele>
        <time>2025-05-16T09:17:35Z</time>
      </trkpt>
      <trkpt lat="43.180217994377017" lon="3.013901961967349">
        <ele>6.87</ele>
        <time>2025-05-16T09:17:36Z</time>
      </trkpt>
      <trkpt lat="43.180229980498552" lon="3.013936998322606">
        <ele>7.35</ele>
        <time>2025-05-16T09:17:37Z</time>
      </trkpt>
      <trkpt lat="43.180258981883526" lon="3.014025008305907">
        <ele>7.35</ele>
        <time>2025-05-16T09:17:38Z</time>
      </trkpt>
      <trkpt lat="43.180260993540287" lon="3.014136990532279">
        <ele>7.83</ele>
        <time>2025-05-16T09:17:39Z</time>
      </trkpt>
      <trkpt lat="43.180260993540287" lon="3.014240004122257">
        <ele>7.83</ele>
        <time>2025-05-16T09:17:40Z</time>
      </trkpt>
      <trkpt lat="43.180257976055145" lon="3.014357015490532">
        <ele>7.83</ele>
        <time>2025-05-16T09:17:41Z</time>
      </trkpt>
      <trkpt lat="43.180252024903893" lon="3.014491964131594">
        <ele>7.83</ele>
        <time>2025-05-16T09:17:42Z</time>
      </trkpt>
      <trkpt lat="43.180244984105229" lon="3.014637976884842">
        <ele>7.83</ele>
        <time>2025-05-16T09:17:43Z</time>
      </trkpt>
      <trkpt lat="43.180145993828773" lon="3.016076982021332">
        <ele>7.35</ele>
        <time>2025-05-16T09:17:52Z</time>
      </trkpt>
      <trkpt lat="43.18000802770257" lon="3.017407022416592">
        <ele>6.87</ele>
        <time>2025-05-16T09:18:03Z</time>
      </trkpt>
      <trkpt lat="43.179831001907587" lon="3.018402960151434">
        <ele>7.83</ele>
        <time>2025-05-16T09:18:11Z</time>
      </trkpt>
      <trkpt lat="43.179810969159007" lon="3.018515026196837">
        <ele>7.83</ele>
        <time>2025-05-16T09:18:12Z</time>
      </trkpt>
      <trkpt lat="43.179683983325958" lon="3.018686017021537">
        <ele>7.35</ele>
        <time>2025-05-16T09:18:14Z</time>
      </trkpt>
      <trkpt lat="43.179674008861184" lon="3.018805040046573">
        <ele>7.35</ele>
        <time>2025-05-16T09:18:15Z</time>
      </trkpt>
      <trkpt lat="43.179668979719281" lon="3.01890998147428">
        <ele>6.87</ele>
        <time>2025-05-16T09:18:16Z</time>
      </trkpt>
      <trkpt lat="43.179698986932635" lon="3.019014000892639">
        <ele>6.87</ele>
        <time>2025-05-16T09:18:17Z</time>
      </trkpt>
      <trkpt lat="43.179757995530963" lon="3.019095975905657">
        <ele>6.39</ele>
        <time>2025-05-16T09:18:18Z</time>
      </trkpt>
      <trkpt lat="43.179825972765684" lon="3.019160013645887">
        <ele>5.42</ele>
        <time>2025-05-16T09:18:19Z</time>
      </trkpt>
      <trkpt lat="43.179896967485547" lon="3.0191679764539">
        <ele>4.94</ele>
        <time>2025-05-16T09:18:20Z</time>
      </trkpt>
      <trkpt lat="43.1799650285393" lon="3.019176023080945">
        <ele>4.46</ele>
        <time>2025-05-16T09:18:21Z</time>
      </trkpt>
      <trkpt lat="43.180055972188711" lon="3.019110979512334">
        <ele>3.98</ele>
        <time>2025-05-16T09:18:22Z</time>
      </trkpt>
      <trkpt lat="43.180114980787039" lon="3.019032021984458">
        <ele>3.5</ele>
        <time>2025-05-16T09:18:23Z</time>
      </trkpt>
      <trkpt lat="43.180148005485535" lon="3.018903024494648">
        <ele>3.5</ele>
        <time>2025-05-16T09:18:24Z</time>
      </trkpt>
      <trkpt lat="43.180154040455818" lon="3.018858013674617">
        <ele>3.02</ele>
        <time>2025-05-16T09:18:25Z</time>
      </trkpt>
      <trkpt lat="43.180177006870508" lon="3.018643017858267">
        <ele>3.02</ele>
        <time>2025-05-16T09:18:26Z</time>
      </trkpt>
      <trkpt lat="43.180235009640455" lon="3.018584009259939">
        <ele>2.54</ele>
        <time>2025-05-16T09:18:27Z</time>
      </trkpt>
      <trkpt lat="43.180293012410402" lon="3.018526006489992">
        <ele>2.06</ele>
        <time>2025-05-16T09:18:28Z</time>
      </trkpt>
      <trkpt lat="43.180354032665491" lon="3.018464986234903">
        <ele>1.58</ele>
        <time>2025-05-16T09:18:29Z</time>
      </trkpt>
      <trkpt lat="43.180419998243451" lon="3.018399020656943">
        <ele>1.58</ele>
        <time>2025-05-16T09:18:30Z</time>
      </trkpt>
      <trkpt lat="43.181073032319546" lon="3.017720002681017">
        <ele>-0.34</ele>
        <time>2025-05-16T09:18:39Z</time>
      </trkpt>
      <trkpt lat="43.181136986240745" lon="3.017652025446296">
        <ele>-0.34</ele>
        <time>2025-05-16T09:18:40Z</time>
      </trkpt>
      <trkpt lat="43.181200018152595" lon="3.017584970220923">
        <ele>-0.82</ele>
        <time>2025-05-16T09:18:41Z</time>
      </trkpt>
      <trkpt lat="43.181261960417032" lon="3.017520010471344">
        <ele>-0.82</ele>
        <time>2025-05-16T09:18:42Z</time>
      </trkpt>
      <trkpt lat="43.181323986500502" lon="3.017454966902733">
        <ele>-0.82</ele>
        <time>2025-05-16T09:18:43Z</time>
      </trkpt>
      <trkpt lat="43.18138500675559" lon="3.017389001324773">
        <ele>-1.3</ele>
        <time>2025-05-16T09:18:44Z</time>
      </trkpt>
      <trkpt lat="43.181445021182299" lon="3.017325969412923">
        <ele>-1.3</ele>
        <time>2025-05-16T09:18:45Z</time>
      </trkpt>
      <trkpt lat="43.181955981999636" lon="3.016777038574219">
        <ele>-1.3</ele>
        <time>2025-05-16T09:18:54Z</time>
      </trkpt>
      <trkpt lat="43.182033011689782" lon="3.01678198389709">
        <ele>-1.79</ele>
        <time>2025-05-16T09:18:55Z</time>
      </trkpt>
      <trkpt lat="43.182168966159225" lon="3.016791958361864">
        <ele>-1.79</ele>
        <time>2025-05-16T09:18:57Z</time>
      </trkpt>
      <trkpt lat="43.182224035263062" lon="3.016795981675386">
        <ele>-1.79</ele>
        <time>2025-05-16T09:18:58Z</time>
      </trkpt>
      <trkpt lat="43.182263011112809" lon="3.016798999160528">
        <ele>-1.79</ele>
        <time>2025-05-16T09:18:59Z</time>
      </trkpt>
      <trkpt lat="43.182284971699119" lon="3.016798999160528">
        <ele>-2.27</ele>
        <time>2025-05-16T09:19:10Z</time>
      </trkpt>
      <trkpt lat="43.182470966130495" lon="3.016798999160528">
        <ele>-1.3</ele>
        <time>2025-05-16T09:19:15Z</time>
      </trkpt>
      <trkpt lat="43.182543972507119" lon="3.016774021089077">
        <ele>-1.3</ele>
        <time>2025-05-16T09:19:16Z</time>
      </trkpt>
      <trkpt lat="43.182601975277066" lon="3.016754994168878">
        <ele>-1.3</ele>
        <time>2025-05-16T09:19:17Z</time>
      </trkpt>
      <trkpt lat="43.182664001360536" lon="3.016734039410949">
        <ele>-1.79</ele>
        <time>2025-05-16T09:19:18Z</time>
      </trkpt>
      <trkpt lat="43.18273700773716" lon="3.016704032197595">
        <ele>-1.79</ele>
        <time>2025-05-16T09:19:19Z</time>
      </trkpt>
      <trkpt lat="43.182789981365204" lon="3.016601018607616">
        <ele>-1.79</ele>
        <time>2025-05-16T09:19:20Z</time>
      </trkpt>
      <trkpt lat="43.182814959436655" lon="3.016503034159541">
        <ele>-1.3</ele>
        <time>2025-05-16T09:19:21Z</time>
      </trkpt>
      <trkpt lat="43.182842032983899" lon="3.016400020569563">
        <ele>-1.3</ele>
        <time>2025-05-16T09:19:22Z</time>
      </trkpt>
      <trkpt lat="43.1832339707762" lon="3.015090012922883">
        <ele>-1.3</ele>
        <time>2025-05-16T09:19:34Z</time>
      </trkpt>
      <trkpt lat="43.183394987136126" lon="3.014758005738258">
        <ele>-1.3</ele>
        <time>2025-05-16T09:19:37Z</time>
      </trkpt>
      <trkpt lat="43.183452989906073" lon="3.014661027118564">
        <ele>-1.3</ele>
        <time>2025-05-16T09:19:38Z</time>
      </trkpt>
      <trkpt lat="43.184038968756795" lon="3.013679003342986">
        <ele>-1.79</ele>
        <time>2025-05-16T09:19:49Z</time>
      </trkpt>
      <trkpt lat="43.184314984828234" lon="3.013252029195428">
        <ele>-3.23</ele>
        <time>2025-05-16T09:19:54Z</time>
      </trkpt>
      <trkpt lat="43.184369970113039" lon="3.013167036697269">
        <ele>-3.71</ele>
        <time>2025-05-16T09:19:55Z</time>
      </trkpt>
      <trkpt lat="43.184517994523048" lon="3.012938965111971">
        <ele>-3.71</ele>
        <time>2025-05-16T09:19:58Z</time>
      </trkpt>
      <trkpt lat="43.184557976201177" lon="3.012877022847533">
        <ele>-3.71</ele>
        <time>2025-05-16T09:19:59Z</time>
      </trkpt>
      <trkpt lat="43.184616984799504" lon="3.01278599537909">
        <ele>-3.71</ele>
        <time>2025-05-16T09:20:00Z</time>
      </trkpt>
      <trkpt lat="43.184658978134394" lon="3.012730004265904">
        <ele>-3.23</ele>
        <time>2025-05-16T09:20:01Z</time>
      </trkpt>
      <trkpt lat="43.184722010046244" lon="3.012643000110984">
        <ele>-3.23</ele>
        <time>2025-05-16T09:20:02Z</time>
      </trkpt>
      <trkpt lat="43.185445033013821" lon="3.011843031272292">
        <ele>-0.34</ele>
        <time>2025-05-16T09:20:11Z</time>
      </trkpt>
      <trkpt lat="43.185630021616817" lon="3.011749992147088">
        <ele>-0.34</ele>
        <time>2025-05-16T09:20:13Z</time>
      </trkpt>
      <trkpt lat="43.185722976922989" lon="3.011714033782482">
        <ele>-0.34</ele>
        <time>2025-05-16T09:20:14Z</time>
      </trkpt>
      <trkpt lat="43.185815010219812" lon="3.011677991598845">
        <ele>-0.82</ele>
        <time>2025-05-16T09:20:15Z</time>
      </trkpt>
      <trkpt lat="43.185909977182746" lon="3.011640021577478">
        <ele>-0.82</ele>
        <time>2025-05-16T09:20:16Z</time>
      </trkpt>
      <trkpt lat="43.186007039621472" lon="3.011601967737079">
        <ele>-0.82</ele>
        <time>2025-05-16T09:20:17Z</time>
      </trkpt>
      <trkpt lat="43.186184987425804" lon="3.011531978845596">
        <ele>-1.3</ele>
        <time>2025-05-16T09:20:19Z</time>
      </trkpt>
      <trkpt lat="43.186563011258841" lon="3.011365011334419">
        <ele>-3.71</ele>
        <time>2025-05-16T09:20:24Z</time>
      </trkpt>
      <trkpt lat="43.186622019857168" lon="3.0113469902426">
        <ele>-4.19</ele>
        <time>2025-05-16T09:20:25Z</time>
      </trkpt>
      <trkpt lat="43.186686979606748" lon="3.011333998292685">
        <ele>-4.19</ele>
        <time>2025-05-16T09:20:26Z</time>
      </trkpt>
      <trkpt lat="43.186747999861836" lon="3.011390995234251">
        <ele>-4.67</ele>
        <time>2025-05-16T09:20:27Z</time>
      </trkpt>
      <trkpt lat="43.186802985146642" lon="3.011390995234251">
        <ele>-4.67</ele>
        <time>2025-05-16T09:20:28Z</time>
      </trkpt>
      <trkpt lat="43.18688303232193" lon="3.011304996907711">
        <ele>-5.15</ele>
        <time>2025-05-16T09:20:29Z</time>
      </trkpt>
      <trkpt lat="43.186904992908239" lon="3.011208018288016">
        <ele>-4.19</ele>
        <time>2025-05-16T09:20:30Z</time>
      </trkpt>
      <trkpt lat="43.186924019828439" lon="3.011103998869658">
        <ele>-3.71</ele>
        <time>2025-05-16T09:20:31Z</time>
      </trkpt>
      <trkpt lat="43.186944974586368" lon="3.010987993329763">
        <ele>-3.71</ele>
        <time>2025-05-16T09:20:32Z</time>
      </trkpt>
      <trkpt lat="43.187143038958311" lon="3.010012004524469">
        <ele>-2.27</ele>
        <time>2025-05-16T09:20:41Z</time>
      </trkpt>
      <trkpt lat="43.187200035899878" lon="3.00966901704669">
        <ele>-1.3</ele>
        <time>2025-05-16T09:20:46Z</time>
      </trkpt>
      <trkpt lat="43.187209004536271" lon="3.009616965427995">
        <ele>-0.34</ele>
        <time>2025-05-16T09:20:47Z</time>
      </trkpt>
      <trkpt lat="43.187277987599373" lon="3.009599028155208">
        <ele>-0.34</ele>
        <time>2025-05-16T09:20:48Z</time>
      </trkpt>
      <trkpt lat="43.187340013682842" lon="3.009607996791601">
        <ele>-0.34</ele>
        <time>2025-05-16T09:20:49Z</time>
      </trkpt>
      <trkpt lat="43.187404973432422" lon="3.009618977084756">
        <ele>0.14</ele>
        <time>2025-05-16T09:20:50Z</time>
      </trkpt>
      <trkpt lat="43.187678977847099" lon="3.009660970419645">
        <ele>1.1</ele>
        <time>2025-05-16T09:20:55Z</time>
      </trkpt>
      <trkpt lat="43.187767993658781" lon="3.009674968197942">
        <ele>1.1</ele>
        <time>2025-05-16T09:20:58Z</time>
      </trkpt>
      <trkpt lat="43.188017020002007" lon="3.00966901704669">
        <ele>3.5</ele>
        <time>2025-05-16T09:21:04Z</time>
      </trkpt>
      <trkpt lat="43.18808801472187" lon="3.009653007611632">
        <ele>3.98</ele>
        <time>2025-05-16T09:21:05Z</time>
      </trkpt>
      <trkpt lat="43.188438965007663" lon="3.009572038426995">
        <ele>5.91</ele>
        <time>2025-05-16T09:21:10Z</time>
      </trkpt>
      <trkpt lat="43.18849696777761" lon="3.009558040648699">
        <ele>6.39</ele>
        <time>2025-05-16T09:21:11Z</time>
      </trkpt>
      <trkpt lat="43.188610039651394" lon="3.009531972929835">
        <ele>6.87</ele>
        <time>2025-05-16T09:21:13Z</time>
      </trkpt>
      <trkpt lat="43.188737025484443" lon="3.009437005966902">
        <ele>7.83</ele>
        <time>2025-05-16T09:21:17Z</time>
      </trkpt>
      <trkpt lat="43.188737025484443" lon="3.009366011247039">
        <ele>8.310000000000001</ele>
        <time>2025-05-16T09:21:18Z</time>
      </trkpt>
      <trkpt lat="43.188737025484443" lon="3.009288981556892">
        <ele>8.310000000000001</ele>
        <time>2025-05-16T09:21:19Z</time>
      </trkpt>
      <trkpt lat="43.188716992735863" lon="3.008814984932542">
        <ele>9.75</ele>
        <time>2025-05-16T09:21:25Z</time>
      </trkpt>
      <trkpt lat="43.188757980242372" lon="3.008772991597652">
        <ele>9.75</ele>
        <time>2025-05-16T09:21:26Z</time>
      </trkpt>
      <trkpt lat="43.188739959150553" lon="3.008792018517852">
        <ele>9.75</ele>
        <time>2025-05-16T09:21:27Z</time>
      </trkpt>
      <trkpt lat="43.188751023262739" lon="3.008780032396317">
        <ele>10.23</ele>
        <time>2025-05-16T09:21:28Z</time>
      </trkpt>
      <trkpt lat="43.188757980242372" lon="3.008772991597652">
        <ele>10.23</ele>
        <time>2025-05-16T09:21:29Z</time>
      </trkpt>
      <trkpt lat="43.188757980242372" lon="3.008772991597652">
        <ele>10.23</ele>
        <time>2025-05-16T09:21:30Z</time>
      </trkpt>
      <trkpt lat="43.188824029639363" lon="3.008785983547568">
        <ele>10.710000000000001</ele>
        <time>2025-05-16T09:21:31Z</time>
      </trkpt>
      <trkpt lat="43.188872979953885" lon="3.008796041831374">
        <ele>10.710000000000001</ele>
        <time>2025-05-16T09:21:32Z</time>
      </trkpt>
      <trkpt lat="43.188935006037354" lon="3.00880802795291">
        <ele>11.19</ele>
        <time>2025-05-16T09:21:33Z</time>
      </trkpt>
      <trkpt lat="43.189004994928837" lon="3.008823031559587">
        <ele>11.19</ele>
        <time>2025-05-16T09:21:34Z</time>
      </trkpt>
      <trkpt lat="43.189880987629294" lon="3.008995028212667">
        <ele>11.67</ele>
        <time>2025-05-16T09:21:44Z</time>
      </trkpt>
      <trkpt lat="43.189965980127454" lon="3.009015982970595">
        <ele>11.19</ele>
        <time>2025-05-16T09:21:45Z</time>
      </trkpt>
      <trkpt lat="43.190835015848279" lon="3.009193008765578">
        <ele>9.75</ele>
        <time>2025-05-16T09:21:53Z</time>
      </trkpt>
      <trkpt lat="43.191404985263944" lon="3.009284036234021">
        <ele>10.23</ele>
        <time>2025-05-16T09:21:58Z</time>
      </trkpt>
      <trkpt lat="43.191517973318696" lon="3.009301973506808">
        <ele>10.23</ele>
        <time>2025-05-16T09:21:59Z</time>
      </trkpt>
      <trkpt lat="43.191961962729692" lon="3.009385038167238">
        <ele>11.19</ele>
        <time>2025-05-16T09:22:03Z</time>
      </trkpt>
      <trkpt lat="43.192055001854897" lon="3.009405992925167">
        <ele>10.710000000000001</ele>
        <time>2025-05-16T09:22:04Z</time>
      </trkpt>
      <trkpt lat="43.192292964085937" lon="3.009459972381592">
        <ele>10.710000000000001</ele>
        <time>2025-05-16T09:22:08Z</time>
      </trkpt>
      <trkpt lat="43.192410981282592" lon="3.009486962109804">
        <ele>11.19</ele>
        <time>2025-05-16T09:22:10Z</time>
      </trkpt>
      <trkpt lat="43.192780036479235" lon="3.009556028991938">
        <ele>11.19</ele>
        <time>2025-05-16T09:22:15Z</time>
      </trkpt>
      <trkpt lat="43.192847007885575" lon="3.009567009285092">
        <ele>11.19</ele>
        <time>2025-05-16T09:22:16Z</time>
      </trkpt>
      <trkpt lat="43.192918002605438" lon="3.009577989578247">
        <ele>10.710000000000001</ele>
        <time>2025-05-16T09:22:17Z</time>
      </trkpt>
      <trkpt lat="43.19300701841712" lon="3.009590981528163">
        <ele>9.75</ele>
        <time>2025-05-16T09:22:18Z</time>
      </trkpt>
      <trkpt lat="43.193098967894912" lon="3.009601039811969">
        <ele>9.75</ele>
        <time>2025-05-16T09:22:19Z</time>
      </trkpt>
      <trkpt lat="43.193470034748316" lon="3.009671028703451">
        <ele>7.83</ele>
        <time>2025-05-16T09:22:24Z</time>
      </trkpt>
      <trkpt lat="43.193511022254825" lon="3.009677985683084">
        <ele>7.35</ele>
        <time>2025-05-16T09:22:25Z</time>
      </trkpt>
      <trkpt lat="43.193549998104572" lon="3.009685026481748">
        <ele>6.87</ele>
        <time>2025-05-16T09:22:26Z</time>
      </trkpt>
      <trkpt lat="43.193608000874519" lon="3.009696006774902">
        <ele>6.39</ele>
        <time>2025-05-16T09:22:28Z</time>
      </trkpt>
      <trkpt lat="43.193669021129608" lon="3.009793991222978">
        <ele>5.91</ele>
        <time>2025-05-16T09:22:29Z</time>
      </trkpt>
      <trkpt lat="43.193892985582352" lon="3.009749986231327">
        <ele>5.91</ele>
        <time>2025-05-16T09:22:32Z</time>
      </trkpt>
      <trkpt lat="43.193968003615737" lon="3.009792985394597">
        <ele>5.91</ele>
        <time>2025-05-16T09:22:33Z</time>
      </trkpt>
      <trkpt lat="43.194058025255799" lon="3.009845959022641">
        <ele>5.91</ele>
        <time>2025-05-16T09:22:34Z</time>
      </trkpt>
      <trkpt lat="43.194118039682508" lon="3.009905973449349">
        <ele>4.94</ele>
        <time>2025-05-16T09:22:35Z</time>
      </trkpt>
      <trkpt lat="43.194192973896861" lon="3.009980991482735">
        <ele>4.94</ele>
        <time>2025-05-16T09:22:36Z</time>
      </trkpt>
      <trkpt lat="43.194330018013716" lon="3.010118035599589">
        <ele>4.46</ele>
        <time>2025-05-16T09:22:38Z</time>
      </trkpt>
      <trkpt lat="43.195009035989642" lon="3.010866958647966">
        <ele>3.98</ele>
        <time>2025-05-16T09:22:48Z</time>
      </trkpt>
      <trkpt lat="43.195743961259723" lon="3.01171101629734">
        <ele>4.94</ele>
        <time>2025-05-16T09:22:57Z</time>
      </trkpt>
      <trkpt lat="43.196120979264379" lon="3.01216397434473">
        <ele>4.46</ele>
        <time>2025-05-16T09:23:03Z</time>
      </trkpt>
      <trkpt lat="43.196234973147511" lon="3.012303030118346">
        <ele>3.98</ele>
        <time>2025-05-16T09:23:05Z</time>
      </trkpt>
      <trkpt lat="43.196430020034313" lon="3.012531017884612">
        <ele>3.5</ele>
        <time>2025-05-16T09:23:08Z</time>
      </trkpt>
      <trkpt lat="43.196628000587225" lon="3.012761017307639">
        <ele>3.98</ele>
        <time>2025-05-16T09:23:11Z</time>
      </trkpt>
      <trkpt lat="43.196692038327456" lon="3.012837041169405">
        <ele>3.98</ele>
        <time>2025-05-16T09:23:12Z</time>
      </trkpt>
      <trkpt lat="43.197189001366496" lon="3.013416985049844">
        <ele>5.42</ele>
        <time>2025-05-16T09:23:18Z</time>
      </trkpt>
      <trkpt lat="43.197383964434266" lon="3.013643966987729">
        <ele>5.42</ele>
        <time>2025-05-16T09:23:20Z</time>
      </trkpt>
      <trkpt lat="43.197445990517735" lon="3.013705993071199">
        <ele>5.91</ele>
        <time>2025-05-16T09:23:21Z</time>
      </trkpt>
      <trkpt lat="43.197536012157798" lon="3.013792997226119">
        <ele>6.39</ele>
        <time>2025-05-16T09:23:22Z</time>
      </trkpt>
      <trkpt lat="43.198010008782148" lon="3.014241009950638">
        <ele>7.83</ele>
        <time>2025-05-16T09:23:27Z</time>
      </trkpt>
      <trkpt lat="43.198725990951061" lon="3.014978030696511">
        <ele>9.27</ele>
        <time>2025-05-16T09:23:35Z</time>
      </trkpt>
      <trkpt lat="43.199113989248872" lon="3.015555962920189">
        <ele>8.310000000000001</ele>
        <time>2025-05-16T09:23:40Z</time>
      </trkpt>
      <trkpt lat="43.199444990605116" lon="3.01645802333951">
        <ele>7.83</ele>
        <time>2025-05-16T09:23:48Z</time>
      </trkpt>
      <trkpt lat="43.199631990864873" lon="3.017530990764499">
        <ele>9.27</ele>
        <time>2025-05-16T09:23:54Z</time>
      </trkpt>
      <trkpt lat="43.199788983911276" lon="3.018175978213549">
        <ele>9.27</ele>
        <time>2025-05-16T09:23:57Z</time>
      </trkpt>
      <trkpt lat="43.199869031086564" lon="3.018383011221886">
        <ele>9.27</ele>
        <time>2025-05-16T09:23:58Z</time>
      </trkpt>
      <trkpt lat="43.199969027191401" lon="3.018566993996501">
        <ele>9.27</ele>
        <time>2025-05-16T09:23:59Z</time>
      </trkpt>
      <trkpt lat="43.200074974447489" lon="3.018733961507678">
        <ele>9.27</ele>
        <time>2025-05-16T09:24:00Z</time>
      </trkpt>
      <trkpt lat="43.200175976380706" lon="3.018891960382462">
        <ele>9.27</ele>
        <time>2025-05-16T09:24:01Z</time>
      </trkpt>
      <trkpt lat="43.200430031865835" lon="3.019300997257233">
        <ele>9.75</ele>
        <time>2025-05-16T09:24:04Z</time>
      </trkpt>
      <trkpt lat="43.200483005493879" lon="3.019431000575423">
        <ele>9.75</ele>
        <time>2025-05-16T09:24:05Z</time>
      </trkpt>
      <trkpt lat="43.200505971908569" lon="3.019579024985433">
        <ele>9.75</ele>
        <time>2025-05-16T09:24:06Z</time>
      </trkpt>
      <trkpt lat="43.200588030740619" lon="3.019730988889933">
        <ele>10.23</ele>
        <time>2025-05-16T09:24:07Z</time>
      </trkpt>
      <trkpt lat="43.200671011582017" lon="3.019823022186756">
        <ele>10.23</ele>
        <time>2025-05-16T09:24:08Z</time>
      </trkpt>
      <trkpt lat="43.200802020728588" lon="3.019850011914969">
        <ele>9.75</ele>
        <time>2025-05-16T09:24:09Z</time>
      </trkpt>
      <trkpt lat="43.200911991298199" lon="3.019829979166389">
        <ele>9.75</ele>
        <time>2025-05-16T09:24:10Z</time>
      </trkpt>
      <trkpt lat="43.201030008494854" lon="3.019848000258207">
        <ele>9.27</ele>
        <time>2025-05-16T09:24:11Z</time>
      </trkpt>
      <trkpt lat="43.201160011813045" lon="3.019884964451194">
        <ele>9.27</ele>
        <time>2025-05-16T09:24:12Z</time>
      </trkpt>
      <trkpt lat="43.201299989596009" lon="3.019925029948354">
        <ele>9.27</ele>
        <time>2025-05-16T09:24:13Z</time>
      </trkpt>
      <trkpt lat="43.202699013054371" lon="3.020301964133978">
        <ele>8.310000000000001</ele>
        <time>2025-05-16T09:24:21Z</time>
      </trkpt>
      <trkpt lat="43.203254984691739" lon="3.020575968548656">
        <ele>7.35</ele>
        <time>2025-05-16T09:24:24Z</time>
      </trkpt>
      <trkpt lat="43.203440979123116" lon="3.02071200683713">
        <ele>7.35</ele>
        <time>2025-05-16T09:24:25Z</time>
      </trkpt>
      <trkpt lat="43.204698013141751" lon="3.022107006981969">
        <ele>5.42</ele>
        <time>2025-05-16T09:24:33Z</time>
      </trkpt>
      <trkpt lat="43.206138024106622" lon="3.023809958249331">
        <ele>2.54</ele>
        <time>2025-05-16T09:24:43Z</time>
      </trkpt>
      <trkpt lat="43.207872994244099" lon="3.025877019390464">
        <ele>0.62</ele>
        <time>2025-05-16T09:24:55Z</time>
      </trkpt>
      <trkpt lat="43.20890799164772" lon="3.027108991518617">
        <ele>-0.82</ele>
        <time>2025-05-16T09:25:03Z</time>
      </trkpt>
      <trkpt lat="43.209055010229349" lon="3.027284005656838">
        <ele>-1.3</ele>
        <time>2025-05-16T09:25:05Z</time>
      </trkpt>
      <trkpt lat="43.209105972200632" lon="3.027344020083547">
        <ele>-1.3</ele>
        <time>2025-05-16T09:25:06Z</time>
      </trkpt>
      <trkpt lat="43.209194988012314" lon="3.027450973168016">
        <ele>-2.27</ele>
        <time>2025-05-16T09:25:13Z</time>
      </trkpt>
      <trkpt lat="43.209194988012314" lon="3.027450973168016">
        <ele>-1.79</ele>
        <time>2025-05-16T09:25:40Z</time>
      </trkpt>
      <trkpt lat="43.209196999669075" lon="3.027581982314587">
        <ele>16.960000000000001</ele>
        <time>2025-05-16T09:30:55Z</time>
      </trkpt>
      <trkpt lat="43.20916598662734" lon="3.027522973716259">
        <ele>5.91</ele>
        <time>2025-05-16T09:31:32Z</time>
      </trkpt>
      <trkpt lat="43.209238993003964" lon="3.027504030615091">
        <ele>6.87</ele>
        <time>2025-05-16T09:31:39Z</time>
      </trkpt>
      <trkpt lat="43.209284003823996" lon="3.027555998414755">
        <ele>6.39</ele>
        <time>2025-05-16T09:31:40Z</time>
      </trkpt>
      <trkpt lat="43.209346029907465" lon="3.02763101644814">
        <ele>5.91</ele>
        <time>2025-05-16T09:31:41Z</time>
      </trkpt>
      <trkpt lat="43.209433034062386" lon="3.027735035866499">
        <ele>6.39</ele>
        <time>2025-05-16T09:31:42Z</time>
      </trkpt>
      <trkpt lat="43.209534035995603" lon="3.027854980900884">
        <ele>5.91</ele>
        <time>2025-05-16T09:31:43Z</time>
      </trkpt>
      <trkpt lat="43.210344985127449" lon="3.028843961656094">
        <ele>3.5</ele>
        <time>2025-05-16T09:31:49Z</time>
      </trkpt>
      <trkpt lat="43.211704026907682" lon="3.030454041436315">
        <ele>2.54</ele>
        <time>2025-05-16T09:31:57Z</time>
      </trkpt>
      <trkpt lat="43.213391974568367" lon="3.032463015988469">
        <ele>2.06</ele>
        <time>2025-05-16T09:32:07Z</time>
      </trkpt>
      <trkpt lat="43.215704960748553" lon="3.035226026549935">
        <ele>-0.34</ele>
        <time>2025-05-16T09:32:22Z</time>
      </trkpt>
      <trkpt lat="43.21782398968935" lon="3.037773035466671">
        <ele>-1.79</ele>
        <time>2025-05-16T09:32:36Z</time>
      </trkpt>
      <trkpt lat="43.219933966174722" lon="3.04030797444284">
        <ele>-0.82</ele>
        <time>2025-05-16T09:32:50Z</time>
      </trkpt>
      <trkpt lat="43.221619985997677" lon="3.042292976751924">
        <ele>0.62</ele>
        <time>2025-05-16T09:33:01Z</time>
      </trkpt>
      <trkpt lat="43.22313099168241" lon="3.04411101154983">
        <ele>0.14</ele>
        <time>2025-05-16T09:33:11Z</time>
      </trkpt>
      <trkpt lat="43.224814999848604" lon="3.046100037172437">
        <ele>3.02</ele>
        <time>2025-05-16T09:33:22Z</time>
      </trkpt>
      <trkpt lat="43.226501019671559" lon="3.048114040866494">
        <ele>5.91</ele>
        <time>2025-05-16T09:33:33Z</time>
      </trkpt>
      <trkpt lat="43.227379024028778" lon="3.049140991643071">
        <ele>5.42</ele>
        <time>2025-05-16T09:33:40Z</time>
      </trkpt>
      <trkpt lat="43.228067010641098" lon="3.049967028200626">
        <ele>4.46</ele>
        <time>2025-05-16T09:33:48Z</time>
      </trkpt>
      <trkpt lat="43.228907966986299" lon="3.051001019775868">
        <ele>3.02</ele>
        <time>2025-05-16T09:33:59Z</time>
      </trkpt>
      <trkpt lat="43.229387998580933" lon="3.051562020555139">
        <ele>3.02</ele>
        <time>2025-05-16T09:34:07Z</time>
      </trkpt>
      <trkpt lat="43.230057964101434" lon="3.052351009100676">
        <ele>2.06</ele>
        <time>2025-05-16T09:34:19Z</time>
      </trkpt>
      <trkpt lat="43.230378990992904" lon="3.052729032933712">
        <ele>1.1</ele>
        <time>2025-05-16T09:34:25Z</time>
      </trkpt>
      <trkpt lat="43.230637991800904" lon="3.053032038733363">
        <ele>0.14</ele>
        <time>2025-05-16T09:34:30Z</time>
      </trkpt>
      <trkpt lat="43.230859022587538" lon="3.053290033712983">
        <ele>-4.19</ele>
        <time>2025-05-16T09:34:38Z</time>
      </trkpt>
      <trkpt lat="43.231112994253635" lon="3.053623968735337">
        <ele>-7.07</ele>
        <time>2025-05-16T09:34:45Z</time>
      </trkpt>
      <trkpt lat="43.231254983693361" lon="3.053789008408785">
        <ele>-8.029999999999999</ele>
        <time>2025-05-16T09:34:49Z</time>
      </trkpt>
      <trkpt lat="43.231291025876999" lon="3.053831001743674">
        <ele>-8.51</ele>
        <time>2025-05-16T09:34:50Z</time>
      </trkpt>
      <trkpt lat="43.231544997543097" lon="3.054135013371706">
        <ele>-9.48</ele>
        <time>2025-05-16T09:34:57Z</time>
      </trkpt>
      <trkpt lat="43.231580033898354" lon="3.054168960079551">
        <ele>-9.48</ele>
        <time>2025-05-16T09:34:58Z</time>
      </trkpt>
      <trkpt lat="43.23193802498281" lon="3.054602975025773">
        <ele>-8.51</ele>
        <time>2025-05-16T09:35:06Z</time>
      </trkpt>
      <trkpt lat="43.232575971633196" lon="3.055366985499859">
        <ele>-10.44</ele>
        <time>2025-05-16T09:35:18Z</time>
      </trkpt>
      <trkpt lat="43.232717961072922" lon="3.055534958839417">
        <ele>-9.48</ele>
        <time>2025-05-16T09:35:25Z</time>
      </trkpt>
      <trkpt lat="43.233274016529322" lon="3.056207019835711">
        <ele>-9</ele>
        <time>2025-05-16T09:35:37Z</time>
      </trkpt>
      <trkpt lat="43.233385998755693" lon="3.056331994011998">
        <ele>-8.029999999999999</ele>
        <time>2025-05-16T09:35:39Z</time>
      </trkpt>
      <trkpt lat="43.233493035659194" lon="3.056487981230021">
        <ele>-7.55</ele>
        <time>2025-05-16T09:35:41Z</time>
      </trkpt>
      <trkpt lat="43.233738038688898" lon="3.056800039485097">
        <ele>-6.59</ele>
        <time>2025-05-16T09:35:45Z</time>
      </trkpt>
      <trkpt lat="43.23380802758038" lon="3.056869022548199">
        <ele>-5.63</ele>
        <time>2025-05-16T09:35:46Z</time>
      </trkpt>
      <trkpt lat="43.233874998986721" lon="3.05693699978292">
        <ele>-5.15</ele>
        <time>2025-05-16T09:35:47Z</time>
      </trkpt>
      <trkpt lat="43.234083959832788" lon="3.057132968679071">
        <ele>-4.19</ele>
        <time>2025-05-16T09:35:50Z</time>
      </trkpt>
      <trkpt lat="43.234674967825413" lon="3.05745298974216">
        <ele>1.1</ele>
        <time>2025-05-16T09:35:58Z</time>
      </trkpt>
      <trkpt lat="43.234763983637094" lon="3.057481991127133">
        <ele>1.58</ele>
        <time>2025-05-16T09:35:59Z</time>
      </trkpt>
      <trkpt lat="43.234849981963634" lon="3.057467993348837">
        <ele>2.54</ele>
        <time>2025-05-16T09:36:00Z</time>
      </trkpt>
      <trkpt lat="43.234954001381993" lon="3.057441003620625">
        <ele>3.02</ele>
        <time>2025-05-16T09:36:01Z</time>
      </trkpt>
      <trkpt lat="43.235052991658449" lon="3.057406973093748">
        <ele>3.98</ele>
        <time>2025-05-16T09:36:02Z</time>
      </trkpt>
      <trkpt lat="43.235149970278144" lon="3.057375038042665">
        <ele>4.46</ele>
        <time>2025-05-16T09:36:03Z</time>
      </trkpt>
      <trkpt lat="43.235252983868122" lon="3.057338995859027">
        <ele>4.94</ele>
        <time>2025-05-16T09:36:04Z</time>
      </trkpt>
      <trkpt lat="43.235824964940548" lon="3.05713003501296">
        <ele>5.42</ele>
        <time>2025-05-16T09:36:11Z</time>
      </trkpt>
      <trkpt lat="43.235890008509159" lon="3.057105978950858">
        <ele>5.42</ele>
        <time>2025-05-16T09:36:21Z</time>
      </trkpt>
      <trkpt lat="43.236109027639031" lon="3.057031966745853">
        <ele>5.42</ele>
        <time>2025-05-16T09:36:30Z</time>
      </trkpt>
      <trkpt lat="43.236155966296792" lon="3.057031966745853">
        <ele>5.42</ele>
        <time>2025-05-16T09:36:31Z</time>
      </trkpt>
      <trkpt lat="43.236226039007306" lon="3.057050993666053">
        <ele>5.42</ele>
        <time>2025-05-16T09:36:32Z</time>
      </trkpt>
      <trkpt lat="43.236277000978589" lon="3.057091981172562">
        <ele>5.42</ele>
        <time>2025-05-16T09:36:33Z</time>
      </trkpt>
      <trkpt lat="43.236336009576917" lon="3.057154007256031">
        <ele>4.94</ele>
        <time>2025-05-16T09:36:34Z</time>
      </trkpt>
      <trkpt lat="43.23638797737658" lon="3.057222990319133">
        <ele>4.94</ele>
        <time>2025-05-16T09:36:35Z</time>
      </trkpt>
      <trkpt lat="43.236442962661386" lon="3.057297002524138">
        <ele>4.46</ele>
        <time>2025-05-16T09:36:36Z</time>
      </trkpt>
      <trkpt lat="43.237306969240308" lon="3.058165032416582">
        <ele>2.06</ele>
        <time>2025-05-16T09:36:49Z</time>
      </trkpt>
      <trkpt lat="43.238235013559461" lon="3.058904986828566">
        <ele>1.58</ele>
        <time>2025-05-16T09:36:59Z</time>
      </trkpt>
      <trkpt lat="43.238864997401834" lon="3.059286028146744">
        <ele>3.5</ele>
        <time>2025-05-16T09:37:05Z</time>
      </trkpt>
      <trkpt lat="43.238998018205166" lon="3.059336990118027">
        <ele>3.02</ele>
        <time>2025-05-16T09:37:06Z</time>
      </trkpt>
      <trkpt lat="43.240430988371372" lon="3.059828002005816">
        <ele>2.06</ele>
        <time>2025-05-16T09:37:15Z</time>
      </trkpt>
      <trkpt lat="43.241102965548635" lon="3.0602259747684">
        <ele>1.58</ele>
        <time>2025-05-16T09:37:19Z</time>
      </trkpt>
      <trkpt lat="43.24126398190856" lon="3.060361007228494">
        <ele>2.06</ele>
        <time>2025-05-16T09:37:20Z</time>
      </trkpt>
      <trkpt lat="43.241403037682176" lon="3.060535015538335">
        <ele>2.06</ele>
        <time>2025-05-16T09:37:21Z</time>
      </trkpt>
      <trkpt lat="43.241539997979999" lon="3.060721009969711">
        <ele>1.58</ele>
        <time>2025-05-16T09:37:22Z</time>
      </trkpt>
      <trkpt lat="43.241664972156286" lon="3.060924019664526">
        <ele>1.58</ele>
        <time>2025-05-16T09:37:23Z</time>
      </trkpt>
      <trkpt lat="43.243027031421661" lon="3.062838027253747">
        <ele>0.62</ele>
        <time>2025-05-16T09:37:33Z</time>
      </trkpt>
      <trkpt lat="43.244562009349465" lon="3.064117021858692">
        <ele>0.62</ele>
        <time>2025-05-16T09:37:42Z</time>
      </trkpt>
      <trkpt lat="43.24614099226892" lon="3.065411020070314">
        <ele>-0.82</ele>
        <time>2025-05-16T09:37:50Z</time>
      </trkpt>
      <trkpt lat="43.247248996049166" lon="3.066322971135378">
        <ele>-0.82</ele>
        <time>2025-05-16T09:37:56Z</time>
      </trkpt>
      <trkpt lat="43.249324019998312" lon="3.068030029535294">
        <ele>0.62</ele>
        <time>2025-05-16T09:38:08Z</time>
      </trkpt>
      <trkpt lat="43.251414969563484" lon="3.069749996066093">
        <ele>-0.34</ele>
        <time>2025-05-16T09:38:20Z</time>
      </trkpt>
      <trkpt lat="43.253486976027489" lon="3.071448002010584">
        <ele>1.1</ele>
        <time>2025-05-16T09:38:32Z</time>
      </trkpt>
      <trkpt lat="43.255747994408011" lon="3.073290009051561">
        <ele>1.58</ele>
        <time>2025-05-16T09:38:45Z</time>
      </trkpt>
      <trkpt lat="43.258003983646631" lon="3.075127992779017">
        <ele>1.58</ele>
        <time>2025-05-16T09:38:58Z</time>
      </trkpt>
      <trkpt lat="43.259734008461237" lon="3.076556017622352">
        <ele>1.1</ele>
        <time>2025-05-16T09:39:08Z</time>
      </trkpt>
      <trkpt lat="43.26169503852725" lon="3.077983036637306">
        <ele>-0.82</ele>
        <time>2025-05-16T09:39:19Z</time>
      </trkpt>
      <trkpt lat="43.264792989939451" lon="3.080038027837873">
        <ele>-0.82</ele>
        <time>2025-05-16T09:39:36Z</time>
      </trkpt>
      <trkpt lat="43.266087993979454" lon="3.0808499827981">
        <ele>0.14</ele>
        <time>2025-05-16T09:39:44Z</time>
      </trkpt>
      <trkpt lat="43.26704797334969" lon="3.081059027463198">
        <ele>0.62</ele>
        <time>2025-05-16T09:39:50Z</time>
      </trkpt>
      <trkpt lat="43.268363010138273" lon="3.080718973651528">
        <ele>4.94</ele>
        <time>2025-05-16T09:39:59Z</time>
      </trkpt>
      <trkpt lat="43.269997984170914" lon="3.080170964822173">
        <ele>11.19</ele>
        <time>2025-05-16T09:40:09Z</time>
      </trkpt>
      <trkpt lat="43.270146008580923" lon="3.080067029222846">
        <ele>12.15</ele>
        <time>2025-05-16T09:40:10Z</time>
      </trkpt>
      <trkpt lat="43.270286992192268" lon="3.079943982884288">
        <ele>13.119999999999999</ele>
        <time>2025-05-16T09:40:11Z</time>
      </trkpt>
      <trkpt lat="43.27039604075253" lon="3.079783972352743">
        <ele>14.08</ele>
        <time>2025-05-16T09:40:12Z</time>
      </trkpt>
      <trkpt lat="43.27050500549376" lon="3.079622033983469">
        <ele>14.56</ele>
        <time>2025-05-16T09:40:13Z</time>
      </trkpt>
      <trkpt lat="43.270617993548512" lon="3.07945498265326">
        <ele>15.52</ele>
        <time>2025-05-16T09:40:14Z</time>
      </trkpt>
      <trkpt lat="43.270726036280394" lon="3.079265970736742">
        <ele>16</ele>
        <time>2025-05-16T09:40:15Z</time>
      </trkpt>
      <trkpt lat="43.271275972947478" lon="3.07829400524497">
        <ele>18.399999999999999</ele>
        <time>2025-05-16T09:40:20Z</time>
      </trkpt>
      <trkpt lat="43.27140798792243" lon="3.078108010813594">
        <ele>19.359999999999999</ele>
        <time>2025-05-16T09:40:21Z</time>
      </trkpt>
      <trkpt lat="43.271562969312072" lon="3.077954035252333">
        <ele>19.84</ele>
        <time>2025-05-16T09:40:22Z</time>
      </trkpt>
      <trkpt lat="43.271737983450294" lon="3.077833000570536">
        <ele>20.809999999999999</ele>
        <time>2025-05-16T09:40:23Z</time>
      </trkpt>
      <trkpt lat="43.271918026730418" lon="3.077726969495416">
        <ele>21.289999999999999</ele>
        <time>2025-05-16T09:40:24Z</time>
      </trkpt>
      <trkpt lat="43.272112989798188" lon="3.077664021402597">
        <ele>22.25</ele>
        <time>2025-05-16T09:40:25Z</time>
      </trkpt>
      <trkpt lat="43.272297978401184" lon="3.077623033896089">
        <ele>22.73</ele>
        <time>2025-05-16T09:40:26Z</time>
      </trkpt>
      <trkpt lat="43.272477015852928" lon="3.077609958127141">
        <ele>23.210000000000001</ele>
        <time>2025-05-16T09:40:27Z</time>
      </trkpt>
      <trkpt lat="43.272658986970782" lon="3.077609958127141">
        <ele>23.690000000000001</ele>
        <time>2025-05-16T09:40:28Z</time>
      </trkpt>
      <trkpt lat="43.272853028029203" lon="3.077663015574217">
        <ele>24.170000000000002</ele>
        <time>2025-05-16T09:40:29Z</time>
      </trkpt>
      <trkpt lat="43.273047991096973" lon="3.077730992808938">
        <ele>24.170000000000002</ele>
        <time>2025-05-16T09:40:30Z</time>
      </trkpt>
      <trkpt lat="43.273238008841872" lon="3.077838029712439">
        <ele>24.649999999999999</ele>
        <time>2025-05-16T09:40:31Z</time>
      </trkpt>
      <trkpt lat="43.273421991616488" lon="3.077970966696739">
        <ele>24.649999999999999</ele>
        <time>2025-05-16T09:40:32Z</time>
      </trkpt>
      <trkpt lat="43.273603040724993" lon="3.078119996935129">
        <ele>24.170000000000002</ele>
        <time>2025-05-16T09:40:33Z</time>
      </trkpt>
      <trkpt lat="43.274991000071168" lon="3.079422041773796">
        <ele>19.359999999999999</ele>
        <time>2025-05-16T09:40:42Z</time>
      </trkpt>
      <trkpt lat="43.276044018566608" lon="3.080846965312958">
        <ele>20.32</ele>
        <time>2025-05-16T09:40:50Z</time>
      </trkpt>
      <trkpt lat="43.276140997186303" lon="3.081069001927972">
        <ele>20.809999999999999</ele>
        <time>2025-05-16T09:40:51Z</time>
      </trkpt>
      <trkpt lat="43.27624099329114" lon="3.08130000717938">
        <ele>21.289999999999999</ele>
        <time>2025-05-16T09:40:52Z</time>
      </trkpt>
      <trkpt lat="43.276526983827353" lon="3.083089962601662">
        <ele>26.57</ele>
        <time>2025-05-16T09:40:59Z</time>
      </trkpt>
      <trkpt lat="43.276447020471096" lon="3.085401020944119">
        <ele>32.82</ele>
        <time>2025-05-16T09:41:07Z</time>
      </trkpt>
      <trkpt lat="43.276446014642715" lon="3.086248012259603">
        <ele>34.740000000000002</ele>
        <time>2025-05-16T09:41:10Z</time>
      </trkpt>
      <trkpt lat="43.27645598910749" lon="3.086536014452577">
        <ele>34.740000000000002</ele>
        <time>2025-05-16T09:41:11Z</time>
      </trkpt>
      <trkpt lat="43.276812974363565" lon="3.089848039671779">
        <ele>36.189999999999998</ele>
        <time>2025-05-16T09:41:23Z</time>
      </trkpt>
      <trkpt lat="43.27738001011312" lon="3.093533981591463">
        <ele>35.710000000000001</ele>
        <time>2025-05-16T09:41:36Z</time>
      </trkpt>
      <trkpt lat="43.278272012248635" lon="3.095486965030432">
        <ele>33.299999999999997</ele>
        <time>2025-05-16T09:41:44Z</time>
      </trkpt>
      <trkpt lat="43.27969903126359" lon="3.098315019160509">
        <ele>27.530000000000001</ele>
        <time>2025-05-16T09:41:55Z</time>
      </trkpt>
      <trkpt lat="43.280526995658875" lon="3.099964996799827">
        <ele>25.129999999999999</ele>
        <time>2025-05-16T09:42:01Z</time>
      </trkpt>
      <trkpt lat="43.282017968595028" lon="3.102788021788001">
        <ele>20.809999999999999</ele>
        <time>2025-05-16T09:42:13Z</time>
      </trkpt>
      <trkpt lat="43.283191015943885" lon="3.103951010853052">
        <ele>17.920000000000002</ele>
        <time>2025-05-16T09:42:20Z</time>
      </trkpt>
      <trkpt lat="43.284749966114759" lon="3.105484982952476">
        <ele>15.039999999999999</ele>
        <time>2025-05-16T09:42:30Z</time>
      </trkpt>
      <trkpt lat="43.286105990409851" lon="3.107746001332998">
        <ele>13.119999999999999</ele>
        <time>2025-05-16T09:42:41Z</time>
      </trkpt>
      <trkpt lat="43.286937978118658" lon="3.109590020030737">
        <ele>13.119999999999999</ele>
        <time>2025-05-16T09:42:48Z</time>
      </trkpt>
      <trkpt lat="43.287853030487895" lon="3.111655991524458">
        <ele>12.630000000000001</ele>
        <time>2025-05-16T09:42:54Z</time>
      </trkpt>
      <trkpt lat="43.288707984611392" lon="3.113559018820524">
        <ele>13.119999999999999</ele>
        <time>2025-05-16T09:43:00Z</time>
      </trkpt>
      <trkpt lat="43.289437964558601" lon="3.115182006731629">
        <ele>14.08</ele>
        <time>2025-05-16T09:43:07Z</time>
      </trkpt>
      <trkpt lat="43.290405990555882" lon="3.117328025400639">
        <ele>16</ele>
        <time>2025-05-16T09:43:18Z</time>
      </trkpt>
      <trkpt lat="43.291065981611609" lon="3.118811035528779">
        <ele>15.52</ele>
        <time>2025-05-16T09:43:28Z</time>
      </trkpt>
      <trkpt lat="43.291025999933481" lon="3.119109012186527">
        <ele>16</ele>
        <time>2025-05-16T09:43:29Z</time>
      </trkpt>
      <trkpt lat="43.291030023247004" lon="3.119144970551133">
        <ele>16</ele>
        <time>2025-05-16T09:43:30Z</time>
      </trkpt>
      <trkpt lat="43.291064975783229" lon="3.119301041588187">
        <ele>15.52</ele>
        <time>2025-05-16T09:43:31Z</time>
      </trkpt>
      <trkpt lat="43.291140999644995" lon="3.119389973580837">
        <ele>15.039999999999999</ele>
        <time>2025-05-16T09:43:32Z</time>
      </trkpt>
      <trkpt lat="43.291176036000252" lon="3.119430961087346">
        <ele>14.56</ele>
        <time>2025-05-16T09:43:33Z</time>
      </trkpt>
      <trkpt lat="43.291375022381544" lon="3.119492987170816">
        <ele>14.08</ele>
        <time>2025-05-16T09:43:34Z</time>
      </trkpt>
      <trkpt lat="43.291432019323111" lon="3.119615027680993">
        <ele>13.6</ele>
        <time>2025-05-16T09:43:35Z</time>
      </trkpt>
      <trkpt lat="43.291494967415929" lon="3.119746036827564">
        <ele>13.119999999999999</ele>
        <time>2025-05-16T09:43:36Z</time>
      </trkpt>
      <trkpt lat="43.29156001098454" lon="3.119876962155104">
        <ele>13.119999999999999</ele>
        <time>2025-05-16T09:43:37Z</time>
      </trkpt>
      <trkpt lat="43.291736030951142" lon="3.120280969887972">
        <ele>13.6</ele>
        <time>2025-05-16T09:43:40Z</time>
      </trkpt>
      <trkpt lat="43.292192006483674" lon="3.121802033856511">
        <ele>19.84</ele>
        <time>2025-05-16T09:43:50Z</time>
      </trkpt>
      <trkpt lat="43.29272098839283" lon="3.124098004773259">
        <ele>27.530000000000001</ele>
        <time>2025-05-16T09:44:02Z</time>
      </trkpt>
      <trkpt lat="43.293332029134035" lon="3.126559015363455">
        <ele>34.740000000000002</ele>
        <time>2025-05-16T09:44:15Z</time>
      </trkpt>
      <trkpt lat="43.293765960261226" lon="3.128484003245831">
        <ele>39.07</ele>
        <time>2025-05-16T09:44:25Z</time>
      </trkpt>
      <trkpt lat="43.294564001262188" lon="3.131846990436316">
        <ele>50.130000000000003</ele>
        <time>2025-05-16T09:44:42Z</time>
      </trkpt>
      <trkpt lat="43.295061970129609" lon="3.13400499522686">
        <ele>54.93</ele>
        <time>2025-05-16T09:44:51Z</time>
      </trkpt>
      <trkpt lat="43.29527503810823" lon="3.136099968105555">
        <ele>56.859999999999999</ele>
        <time>2025-05-16T09:44:59Z</time>
      </trkpt>
      <trkpt lat="43.295035986229777" lon="3.138404991477728">
        <ele>59.259999999999998</ele>
        <time>2025-05-16T09:45:07Z</time>
      </trkpt>
      <trkpt lat="43.295091977342963" lon="3.140502981841564">
        <ele>60.700000000000003</ele>
        <time>2025-05-16T09:45:14Z</time>
      </trkpt>
      <trkpt lat="43.295682985335588" lon="3.14275000244379">
        <ele>61.659999999999997</ele>
        <time>2025-05-16T09:45:22Z</time>
      </trkpt>
      <trkpt lat="43.297100029885769" lon="3.147565992549062">
        <ele>63.100000000000001</ele>
        <time>2025-05-16T09:45:39Z</time>
      </trkpt>
      <trkpt lat="43.298137960955501" lon="3.150274017825723">
        <ele>63.100000000000001</ele>
        <time>2025-05-16T09:45:49Z</time>
      </trkpt>
      <trkpt lat="43.299646032974124" lon="3.15254501067102">
        <ele>64.549999999999997</ele>
        <time>2025-05-16T09:45:59Z</time>
      </trkpt>
      <trkpt lat="43.301748968660831" lon="3.154836036264896">
        <ele>65.030000000000001</ele>
        <time>2025-05-16T09:46:11Z</time>
      </trkpt>
      <trkpt lat="43.303554011508822" lon="3.157564010471106">
        <ele>63.100000000000001</ele>
        <time>2025-05-16T09:46:23Z</time>
      </trkpt>
      <trkpt lat="43.304756982252002" lon="3.160268012434244">
        <ele>62.140000000000001</ele>
        <time>2025-05-16T09:46:34Z</time>
      </trkpt>
      <trkpt lat="43.3060850109905" lon="3.163236966356635">
        <ele>60.700000000000003</ele>
        <time>2025-05-16T09:46:47Z</time>
      </trkpt>
      <trkpt lat="43.306840974837542" lon="3.164918962866068">
        <ele>62.619999999999997</ele>
        <time>2025-05-16T09:46:56Z</time>
      </trkpt>
      <trkpt lat="43.307501971721649" lon="3.16638101823628">
        <ele>63.579999999999998</ele>
        <time>2025-05-16T09:47:06Z</time>
      </trkpt>
      <trkpt lat="43.307784022763371" lon="3.167002033442259">
        <ele>64.549999999999997</ele>
        <time>2025-05-16T09:47:15Z</time>
      </trkpt>
      <trkpt lat="43.307956019416451" lon="3.167437976226211">
        <ele>64.549999999999997</ele>
        <time>2025-05-16T09:47:27Z</time>
      </trkpt>
      <trkpt lat="43.307983009144664" lon="3.167507965117693">
        <ele>64.069999999999993</ele>
        <time>2025-05-16T09:47:28Z</time>
      </trkpt>
      <trkpt lat="43.30801997333765" lon="3.167613996192813">
        <ele>64.069999999999993</ele>
        <time>2025-05-16T09:47:29Z</time>
      </trkpt>
      <trkpt lat="43.308021984994411" lon="3.16784399561584">
        <ele>64.069999999999993</ele>
        <time>2025-05-16T09:47:31Z</time>
      </trkpt>
      <trkpt lat="43.308058027178049" lon="3.16795296035707">
        <ele>64.069999999999993</ele>
        <time>2025-05-16T09:47:32Z</time>
      </trkpt>
      <trkpt lat="43.308122986927629" lon="3.168001994490624">
        <ele>64.069999999999993</ele>
        <time>2025-05-16T09:47:33Z</time>
      </trkpt>
      <trkpt lat="43.308202028274536" lon="3.168047005310655">
        <ele>64.069999999999993</ele>
        <time>2025-05-16T09:47:34Z</time>
      </trkpt>
      <trkpt lat="43.30827503465116" lon="3.168145995587111">
        <ele>63.579999999999998</ele>
        <time>2025-05-16T09:47:35Z</time>
      </trkpt>
      <trkpt lat="43.308336976915598" lon="3.168240040540695">
        <ele>63.579999999999998</ele>
        <time>2025-05-16T09:47:36Z</time>
      </trkpt>
      <trkpt lat="43.308400008827448" lon="3.168343976140022">
        <ele>63.579999999999998</ele>
        <time>2025-05-16T09:47:37Z</time>
      </trkpt>
      <trkpt lat="43.30898598767817" lon="3.169641997665167">
        <ele>63.100000000000001</ele>
        <time>2025-05-16T09:47:46Z</time>
      </trkpt>
      <trkpt lat="43.309746980667114" lon="3.171064993366599">
        <ele>59.259999999999998</ele>
        <time>2025-05-16T09:47:53Z</time>
      </trkpt>
      <trkpt lat="43.311215993016958" lon="3.173404969274998">
        <ele>53.969999999999999</ele>
        <time>2025-05-16T09:48:03Z</time>
      </trkpt>
      <trkpt lat="43.312534969300032" lon="3.1758570112288">
        <ele>54.93</ele>
        <time>2025-05-16T09:48:13Z</time>
      </trkpt>
      <trkpt lat="43.313679015263915" lon="3.178547015413642">
        <ele>57.82</ele>
        <time>2025-05-16T09:48:24Z</time>
      </trkpt>
      <trkpt lat="43.314504968002439" lon="3.179932041093707">
        <ele>59.259999999999998</ele>
        <time>2025-05-16T09:48:32Z</time>
      </trkpt>
      <trkpt lat="43.315865015611053" lon="3.182019973173738">
        <ele>58.780000000000001</ele>
        <time>2025-05-16T09:48:43Z</time>
      </trkpt>
      <trkpt lat="43.317274013534188" lon="3.184079993516207">
        <ele>56.369999999999997</ele>
        <time>2025-05-16T09:48:55Z</time>
      </trkpt>
      <trkpt lat="43.318273974582553" lon="3.184824977070093">
        <ele>57.340000000000003</ele>
        <time>2025-05-16T09:49:02Z</time>
      </trkpt>
      <trkpt lat="43.320073988288641" lon="3.185996012762189">
        <ele>52.530000000000001</ele>
        <time>2025-05-16T09:49:14Z</time>
      </trkpt>
      <trkpt lat="43.321242006495595" lon="3.186723981052637">
        <ele>46.759999999999998</ele>
        <time>2025-05-16T09:49:22Z</time>
      </trkpt>
      <trkpt lat="43.322020014747977" lon="3.187672980129719">
        <ele>40.990000000000002</ele>
        <time>2025-05-16T09:49:29Z</time>
      </trkpt>
      <trkpt lat="43.322640024125576" lon="3.188730021938682">
        <ele>36.670000000000002</ele>
        <time>2025-05-16T09:49:37Z</time>
      </trkpt>
      <trkpt lat="43.322689980268478" lon="3.188905036076903">
        <ele>35.229999999999997</ele>
        <time>2025-05-16T09:49:40Z</time>
      </trkpt>
      <trkpt lat="43.322710013017058" lon="3.188983993604779">
        <ele>35.229999999999997</ele>
        <time>2025-05-16T09:49:41Z</time>
      </trkpt>
      <trkpt lat="43.322740020230412" lon="3.189104022458196">
        <ele>34.740000000000002</ele>
        <time>2025-05-16T09:49:42Z</time>
      </trkpt>
      <trkpt lat="43.322733985260129" lon="3.189164036884904">
        <ele>34.740000000000002</ele>
        <time>2025-05-16T09:49:43Z</time>
      </trkpt>
      <trkpt lat="43.322725016623735" lon="3.189254980534315">
        <ele>34.259999999999998</ele>
        <time>2025-05-16T09:49:44Z</time>
      </trkpt>
      <trkpt lat="43.322726022452116" lon="3.189341984689236">
        <ele>33.780000000000001</ele>
        <time>2025-05-16T09:49:45Z</time>
      </trkpt>
      <trkpt lat="43.322747983038425" lon="3.189420020207763">
        <ele>33.780000000000001</ele>
        <time>2025-05-16T09:49:46Z</time>
      </trkpt>
      <trkpt lat="43.322785031050444" lon="3.1894819624722">
        <ele>33.780000000000001</ele>
        <time>2025-05-16T09:49:47Z</time>
      </trkpt>
      <trkpt lat="43.32284202799201" lon="3.189512975513935">
        <ele>33.299999999999997</ele>
        <time>2025-05-16T09:49:48Z</time>
      </trkpt>
      <trkpt lat="43.322899024933577" lon="3.18954499438405">
        <ele>33.299999999999997</ele>
        <time>2025-05-16T09:49:49Z</time>
      </trkpt>
      <trkpt lat="43.322964990511537" lon="3.189568966627121">
        <ele>33.299999999999997</ele>
        <time>2025-05-16T09:49:50Z</time>
      </trkpt>
      <trkpt lat="43.323026010766625" lon="3.18952496163547">
        <ele>33.299999999999997</ele>
        <time>2025-05-16T09:49:51Z</time>
      </trkpt>
      <trkpt lat="43.323093988001347" lon="3.189476011320949">
        <ele>33.299999999999997</ele>
        <time>2025-05-16T09:49:52Z</time>
      </trkpt>
      <trkpt lat="43.323181997984648" lon="3.189467964693904">
        <ele>33.299999999999997</ele>
        <time>2025-05-16T09:49:53Z</time>
      </trkpt>
      <trkpt lat="43.323282999917865" lon="3.189467964693904">
        <ele>32.82</ele>
        <time>2025-05-16T09:49:54Z</time>
      </trkpt>
      <trkpt lat="43.323405040428042" lon="3.189467964693904">
        <ele>32.340000000000003</ele>
        <time>2025-05-16T09:49:55Z</time>
      </trkpt>
      <trkpt lat="43.323534037917852" lon="3.189524039626122">
        <ele>32.340000000000003</ele>
        <time>2025-05-16T09:49:56Z</time>
      </trkpt>
      <trkpt lat="43.323678961023688" lon="3.189597968012095">
        <ele>31.859999999999999</ele>
        <time>2025-05-16T09:49:57Z</time>
      </trkpt>
      <trkpt lat="43.323832014575601" lon="3.189677009359002">
        <ele>31.859999999999999</ele>
        <time>2025-05-16T09:49:58Z</time>
      </trkpt>
      <trkpt lat="43.325167000293732" lon="3.190670013427734">
        <ele>30.420000000000002</ele>
        <time>2025-05-16T09:50:06Z</time>
      </trkpt>
      <trkpt lat="43.327197013422847" lon="3.19227397441864">
        <ele>34.259999999999998</ele>
        <time>2025-05-16T09:50:17Z</time>
      </trkpt>
      <trkpt lat="43.328597964718938" lon="3.193265972658992">
        <ele>37.630000000000003</ele>
        <time>2025-05-16T09:50:25Z</time>
      </trkpt>
      <trkpt lat="43.330332012847066" lon="3.193839965388179">
        <ele>40.030000000000001</ele>
        <time>2025-05-16T09:50:35Z</time>
      </trkpt>
      <trkpt lat="43.332096990197897" lon="3.194479001685977">
        <ele>35.229999999999997</ele>
        <time>2025-05-16T09:50:45Z</time>
      </trkpt>
      <trkpt lat="43.333169035613537" lon="3.195497989654541">
        <ele>28.02</ele>
        <time>2025-05-16T09:50:52Z</time>
      </trkpt>
      <trkpt lat="43.334434032440186" lon="3.197447033599019">
        <ele>16.960000000000001</ele>
        <time>2025-05-16T09:51:03Z</time>
      </trkpt>
      <trkpt lat="43.334717005491257" lon="3.198032006621361">
        <ele>14.56</ele>
        <time>2025-05-16T09:51:07Z</time>
      </trkpt>
      <trkpt lat="43.334762016311288" lon="3.198162009939551">
        <ele>14.08</ele>
        <time>2025-05-16T09:51:08Z</time>
      </trkpt>
      <trkpt lat="43.334803003817797" lon="3.198282038792968">
        <ele>13.6</ele>
        <time>2025-05-16T09:51:09Z</time>
      </trkpt>
      <trkpt lat="43.334838962182403" lon="3.19841799326241">
        <ele>13.6</ele>
        <time>2025-05-16T09:51:10Z</time>
      </trkpt>
      <trkpt lat="43.334821024909616" lon="3.19856601767242">
        <ele>13.6</ele>
        <time>2025-05-16T09:51:11Z</time>
      </trkpt>
      <trkpt lat="43.334836028516293" lon="3.198656039312482">
        <ele>13.119999999999999</ele>
        <time>2025-05-16T09:51:12Z</time>
      </trkpt>
      <trkpt lat="43.334852959960699" lon="3.198759974911809">
        <ele>13.119999999999999</ele>
        <time>2025-05-16T09:51:13Z</time>
      </trkpt>
      <trkpt lat="43.334936024621129" lon="3.198863994330168">
        <ele>13.119999999999999</ele>
        <time>2025-05-16T09:51:14Z</time>
      </trkpt>
      <trkpt lat="43.335020011290908" lon="3.19891001097858">
        <ele>12.630000000000001</ele>
        <time>2025-05-16T09:51:15Z</time>
      </trkpt>
      <trkpt lat="43.335137022659183" lon="3.198904981836677">
        <ele>12.630000000000001</ele>
        <time>2025-05-16T09:51:16Z</time>
      </trkpt>
      <trkpt lat="43.335185972973704" lon="3.198887966573238">
        <ele>12.15</ele>
        <time>2025-05-16T09:51:17Z</time>
      </trkpt>
      <trkpt lat="43.335317987948656" lon="3.198774978518486">
        <ele>11.67</ele>
        <time>2025-05-16T09:51:18Z</time>
      </trkpt>
      <trkpt lat="43.335393005982041" lon="3.198818983510137">
        <ele>11.67</ele>
        <time>2025-05-16T09:51:19Z</time>
      </trkpt>
      <trkpt lat="43.335460983216763" lon="3.198919985443354">
        <ele>11.19</ele>
        <time>2025-05-16T09:51:20Z</time>
      </trkpt>
      <trkpt lat="43.335526026785374" lon="3.199020987376571">
        <ele>11.19</ele>
        <time>2025-05-16T09:51:21Z</time>
      </trkpt>
      <trkpt lat="43.335568020120263" lon="3.199165994301438">
        <ele>11.19</ele>
        <time>2025-05-16T09:51:22Z</time>
      </trkpt>
      <trkpt lat="43.335592998191714" lon="3.19931703619659">
        <ele>11.19</ele>
        <time>2025-05-16T09:51:23Z</time>
      </trkpt>
      <trkpt lat="43.335610013455153" lon="3.199477968737483">
        <ele>10.710000000000001</ele>
        <time>2025-05-16T09:51:24Z</time>
      </trkpt>
      <trkpt lat="43.335660975426435" lon="3.199805030599237">
        <ele>10.23</ele>
        <time>2025-05-16T09:51:26Z</time>
      </trkpt>
      <trkpt lat="43.33571101538837" lon="3.19996596314013">
        <ele>10.23</ele>
        <time>2025-05-16T09:51:27Z</time>
      </trkpt>
      <trkpt lat="43.335769018158317" lon="3.200126979500055">
        <ele>10.23</ele>
        <time>2025-05-16T09:51:28Z</time>
      </trkpt>
      <trkpt lat="43.33596901036799" lon="3.200577003881335">
        <ele>9.27</ele>
        <time>2025-05-16T09:51:31Z</time>
      </trkpt>
      <trkpt lat="43.336029024794698" lon="3.200717987492681">
        <ele>8.789999999999999</ele>
        <time>2025-05-16T09:51:32Z</time>
      </trkpt>
      <trkpt lat="43.336101025342941" lon="3.200870035216212">
        <ele>8.789999999999999</ele>
        <time>2025-05-16T09:51:33Z</time>
      </trkpt>
      <trkpt lat="43.336365977302194" lon="3.201485015451908">
        <ele>8.789999999999999</ele>
        <time>2025-05-16T09:51:37Z</time>
      </trkpt>
      <trkpt lat="43.336424985900521" lon="3.201628010720015">
        <ele>9.75</ele>
        <time>2025-05-16T09:51:38Z</time>
      </trkpt>
      <trkpt lat="43.337019011378288" lon="3.202888984233141">
        <ele>11.67</ele>
        <time>2025-05-16T09:51:48Z</time>
      </trkpt>
      <trkpt lat="43.337236018851399" lon="3.203347977250814">
        <ele>12.630000000000001</ele>
        <time>2025-05-16T09:51:53Z</time>
      </trkpt>
      <trkpt lat="43.337530978024006" lon="3.203957006335259">
        <ele>13.119999999999999</ele>
        <time>2025-05-16T09:51:59Z</time>
      </trkpt>
      <trkpt lat="43.337597027420998" lon="3.204047027975321">
        <ele>13.6</ele>
        <time>2025-05-16T09:52:00Z</time>
      </trkpt>
      <trkpt lat="43.337660981342196" lon="3.204136965796351">
        <ele>13.6</ele>
        <time>2025-05-16T09:52:01Z</time>
      </trkpt>
      <trkpt lat="43.338109999895096" lon="3.204749012365937">
        <ele>16.48</ele>
        <time>2025-05-16T09:52:10Z</time>
      </trkpt>
      <trkpt lat="43.33820597268641" lon="3.204875998198986">
        <ele>16.960000000000001</ele>
        <time>2025-05-16T09:52:12Z</time>
      </trkpt>
      <trkpt lat="43.338254000991583" lon="3.204939030110836">
        <ele>16.960000000000001</ele>
        <time>2025-05-16T09:52:13Z</time>
      </trkpt>
      <trkpt lat="43.338281996548176" lon="3.204996027052403">
        <ele>17.440000000000001</ele>
        <time>2025-05-16T09:52:14Z</time>
      </trkpt>
      <trkpt lat="43.338317032903433" lon="3.205065010115504">
        <ele>17.440000000000001</ele>
        <time>2025-05-16T09:52:15Z</time>
      </trkpt>
      <trkpt lat="43.338344022631645" lon="3.205137010663748">
        <ele>17.920000000000002</ele>
        <time>2025-05-16T09:52:16Z</time>
      </trkpt>
      <trkpt lat="43.3383550029248" lon="3.205219991505146">
        <ele>18.399999999999999</ele>
        <time>2025-05-16T09:52:17Z</time>
      </trkpt>
      <trkpt lat="43.338361037895083" lon="3.205308001488447">
        <ele>18.399999999999999</ele>
        <time>2025-05-16T09:52:18Z</time>
      </trkpt>
      <trkpt lat="43.338361037895083" lon="3.205401040613651">
        <ele>18.879999999999999</ele>
        <time>2025-05-16T09:52:19Z</time>
      </trkpt>
      <trkpt lat="43.338358020409942" lon="3.205510005354881">
        <ele>19.359999999999999</ele>
        <time>2025-05-16T09:52:20Z</time>
      </trkpt>
      <trkpt lat="43.33833497017622" lon="3.205601032823324">
        <ele>19.359999999999999</ele>
        <time>2025-05-16T09:52:21Z</time>
      </trkpt>
      <trkpt lat="43.338309992104769" lon="3.205692982301116">
        <ele>19.359999999999999</ele>
        <time>2025-05-16T09:52:22Z</time>
      </trkpt>
      <trkpt lat="43.338194992393255" lon="3.206263035535812">
        <ele>20.32</ele>
        <time>2025-05-16T09:52:29Z</time>
      </trkpt>
      <trkpt lat="43.33818300627172" lon="3.206335036084056">
        <ele>20.32</ele>
        <time>2025-05-16T09:52:30Z</time>
      </trkpt>
      <trkpt lat="43.338067000731826" lon="3.206437965855002">
        <ele>19.84</ele>
        <time>2025-05-16T09:52:31Z</time>
      </trkpt>
      <trkpt lat="43.338007992133498" lon="3.206448024138808">
        <ele>19.84</ele>
        <time>2025-05-16T09:52:32Z</time>
      </trkpt>
      <trkpt lat="43.337944038212299" lon="3.206459004431963">
        <ele>19.84</ele>
        <time>2025-05-16T09:52:33Z</time>
      </trkpt>
      <trkpt lat="43.337880000472069" lon="3.206469984725118">
        <ele>19.84</ele>
        <time>2025-05-16T09:52:34Z</time>
      </trkpt>
      <trkpt lat="43.337063016369939" lon="3.206614991649985">
        <ele>19.359999999999999</ele>
        <time>2025-05-16T09:52:47Z</time>
      </trkpt>
      <trkpt lat="43.336863024160266" lon="3.206660002470017">
        <ele>18.399999999999999</ele>
        <time>2025-05-16T09:52:56Z</time>
      </trkpt>
      <trkpt lat="43.337052036076784" lon="3.206763016059995">
        <ele>18.879999999999999</ele>
        <time>2025-05-16T09:52:58Z</time>
      </trkpt>
      <trkpt lat="43.337052036076784" lon="3.206763016059995">
        <ele>18.879999999999999</ele>
        <time>2025-05-16T09:52:59Z</time>
      </trkpt>
      <trkpt lat="43.337067039683461" lon="3.206792017444968">
        <ele>18.879999999999999</ele>
        <time>2025-05-16T09:53:01Z</time>
      </trkpt>
      <trkpt lat="43.337095035240054" lon="3.206849014386535">
        <ele>18.879999999999999</ele>
        <time>2025-05-16T09:53:02Z</time>
      </trkpt>
      <trkpt lat="43.337095035240054" lon="3.206849014386535">
        <ele>18.879999999999999</ele>
        <time>2025-05-16T09:53:03Z</time>
      </trkpt>
      <trkpt lat="43.337143985554576" lon="3.206880027428269">
        <ele>18.879999999999999</ele>
        <time>2025-05-16T09:53:04Z</time>
      </trkpt>
      <trkpt lat="43.337164018303156" lon="3.206892013549805">
        <ele>18.879999999999999</ele>
        <time>2025-05-16T09:53:05Z</time>
      </trkpt>
      <trkpt lat="43.337171981111169" lon="3.206896958872676">
        <ele>18.879999999999999</ele>
        <time>2025-05-16T09:53:06Z</time>
      </trkpt>
      <trkpt lat="43.337171981111169" lon="3.206896958872676">
        <ele>18.879999999999999</ele>
        <time>2025-05-16T09:53:07Z</time>
      </trkpt>
      <trkpt lat="43.337171981111169" lon="3.206896958872676">
        <ele>18.879999999999999</ele>
        <time>2025-05-16T09:53:19Z</time>
      </trkpt>
      <trkpt lat="43.337081959471107" lon="3.206837028264999">
        <ele>17.920000000000002</ele>
        <time>2025-05-16T09:53:35Z</time>
      </trkpt>
      <trkpt lat="43.337081959471107" lon="3.206837028264999">
        <ele>17.920000000000002</ele>
        <time>2025-05-16T09:53:36Z</time>
      </trkpt>
      <trkpt lat="43.337010964751244" lon="3.206626977771521">
        <ele>16.960000000000001</ele>
        <time>2025-05-16T09:53:39Z</time>
      </trkpt>
      <trkpt lat="43.336966959759593" lon="3.206637036055327">
        <ele>16.960000000000001</ele>
        <time>2025-05-16T09:53:40Z</time>
      </trkpt>
      <trkpt lat="43.336789011955261" lon="3.206676011905074">
        <ele>15.52</ele>
        <time>2025-05-16T09:53:43Z</time>
      </trkpt>
      <trkpt lat="43.33672396838665" lon="3.206691015511751">
        <ele>15.039999999999999</ele>
        <time>2025-05-16T09:53:44Z</time>
      </trkpt>
      <trkpt lat="43.336654985323548" lon="3.206707024946809">
        <ele>14.56</ele>
        <time>2025-05-16T09:53:45Z</time>
      </trkpt>
      <trkpt lat="43.336373018100858" lon="3.206777013838291">
        <ele>14.08</ele>
        <time>2025-05-16T09:53:49Z</time>
      </trkpt>
      <trkpt lat="43.336344016715884" lon="3.206784976646304">
        <ele>13.6</ele>
        <time>2025-05-16T09:53:50Z</time>
      </trkpt>
      <trkpt lat="43.336331024765968" lon="3.206842979416251">
        <ele>14.08</ele>
        <time>2025-05-16T09:53:51Z</time>
      </trkpt>
      <trkpt lat="43.33631400950253" lon="3.206923026591539">
        <ele>14.08</ele>
        <time>2025-05-16T09:53:52Z</time>
      </trkpt>
      <trkpt lat="43.336301017552614" lon="3.206978011876345">
        <ele>14.08</ele>
        <time>2025-05-16T09:53:53Z</time>
      </trkpt>
      <trkpt lat="43.336309986189008" lon="3.207058981060982">
        <ele>14.08</ele>
        <time>2025-05-16T09:53:54Z</time>
      </trkpt>
      <trkpt lat="43.336319960653782" lon="3.207154031842947">
        <ele>14.56</ele>
        <time>2025-05-16T09:53:55Z</time>
      </trkpt>
      <trkpt lat="43.336330018937588" lon="3.207250004634261">
        <ele>14.56</ele>
        <time>2025-05-16T09:53:56Z</time>
      </trkpt>
      <trkpt lat="43.336405036970973" lon="3.207706985995174">
        <ele>14.56</ele>
        <time>2025-05-16T09:54:01Z</time>
      </trkpt>
      <trkpt lat="43.336432026699185" lon="3.207783009856939">
        <ele>14.56</ele>
        <time>2025-05-16T09:54:02Z</time>
      </trkpt>
      <trkpt lat="43.336475025862455" lon="3.207835983484983">
        <ele>14.08</ele>
        <time>2025-05-16T09:54:03Z</time>
      </trkpt>
      <trkpt lat="43.336536968126893" lon="3.207835983484983">
        <ele>14.08</ele>
        <time>2025-05-16T09:54:04Z</time>
      </trkpt>
      <trkpt lat="43.336603017523885" lon="3.207802036777139">
        <ele>13.6</ele>
        <time>2025-05-16T09:54:05Z</time>
      </trkpt>
      <trkpt lat="43.336663031950593" lon="3.207755014300346">
        <ele>13.6</ele>
        <time>2025-05-16T09:54:06Z</time>
      </trkpt>
      <trkpt lat="43.336727991700172" lon="3.207703968510032">
        <ele>13.6</ele>
        <time>2025-05-16T09:54:07Z</time>
      </trkpt>
      <trkpt lat="43.337467024102807" lon="3.207136010751128">
        <ele>13.119999999999999</ele>
        <time>2025-05-16T09:54:19Z</time>
      </trkpt>
      <trkpt lat="43.337502982467413" lon="3.207107009366155">
        <ele>12.630000000000001</ele>
        <time>2025-05-16T09:54:20Z</time>
      </trkpt>
      <trkpt lat="43.33756098523736" lon="3.207132993265986">
        <ele>12.630000000000001</ele>
        <time>2025-05-16T09:54:21Z</time>
      </trkpt>
      <trkpt lat="43.337616976350546" lon="3.207157971337438">
        <ele>12.630000000000001</ele>
        <time>2025-05-16T09:54:22Z</time>
      </trkpt>
      <trkpt lat="43.337680008262396" lon="3.207186972722411">
        <ele>12.630000000000001</ele>
        <time>2025-05-16T09:54:23Z</time>
      </trkpt>
      <trkpt lat="43.337741028517485" lon="3.207215974107385">
        <ele>12.15</ele>
        <time>2025-05-16T09:54:24Z</time>
      </trkpt>
      <trkpt lat="43.337800959125161" lon="3.207260984927416">
        <ele>12.15</ele>
        <time>2025-05-16T09:54:25Z</time>
      </trkpt>
      <trkpt lat="43.337915036827326" lon="3.207380007952452">
        <ele>12.15</ele>
        <time>2025-05-16T09:54:27Z</time>
      </trkpt>
      <trkpt lat="43.337969016283751" lon="3.20744002237916">
        <ele>11.67</ele>
        <time>2025-05-16T09:54:28Z</time>
      </trkpt>
      <trkpt lat="43.338015032932162" lon="3.207527026534081">
        <ele>11.67</ele>
        <time>2025-05-16T09:54:29Z</time>
      </trkpt>
      <trkpt lat="43.338051997125149" lon="3.207624005153775">
        <ele>12.15</ele>
        <time>2025-05-16T09:54:30Z</time>
      </trkpt>
      <trkpt lat="43.338088961318135" lon="3.207722995430231">
        <ele>12.630000000000001</ele>
        <time>2025-05-16T09:54:31Z</time>
      </trkpt>
      <trkpt lat="43.338606040924788" lon="3.209188990294933">
        <ele>17.440000000000001</ele>
        <time>2025-05-16T09:54:46Z</time>
      </trkpt>
      <trkpt lat="43.338952967897058" lon="3.210215019062161">
        <ele>16.48</ele>
        <time>2025-05-16T09:54:55Z</time>
      </trkpt>
      <trkpt lat="43.339080959558487" lon="3.210543002933264">
        <ele>16</ele>
        <time>2025-05-16T09:54:58Z</time>
      </trkpt>
      <trkpt lat="43.339098980650306" lon="3.210661020129919">
        <ele>16</ele>
        <time>2025-05-16T09:54:59Z</time>
      </trkpt>
      <trkpt lat="43.339094035327435" lon="3.210901999846101">
        <ele>15.52</ele>
        <time>2025-05-16T09:55:01Z</time>
      </trkpt>
      <trkpt lat="43.339070985093713" lon="3.211024962365627">
        <ele>15.039999999999999</ele>
        <time>2025-05-16T09:55:02Z</time>
      </trkpt>
      <trkpt lat="43.339045001193881" lon="3.211149014532566">
        <ele>15.039999999999999</ele>
        <time>2025-05-16T09:55:03Z</time>
      </trkpt>
      <trkpt lat="43.338994039222598" lon="3.21126502007246">
        <ele>14.56</ele>
        <time>2025-05-16T09:55:04Z</time>
      </trkpt>
      <trkpt lat="43.338932013139129" lon="3.211365016177297">
        <ele>14.08</ele>
        <time>2025-05-16T09:55:05Z</time>
      </trkpt>
      <trkpt lat="43.338897982612252" lon="3.211420001462102">
        <ele>13.6</ele>
        <time>2025-05-16T09:55:06Z</time>
      </trkpt>
      <trkpt lat="43.338837968185544" lon="3.211538018658757">
        <ele>13.119999999999999</ele>
        <time>2025-05-16T09:55:07Z</time>
      </trkpt>
      <trkpt lat="43.338779965415597" lon="3.211629968136549">
        <ele>12.630000000000001</ele>
        <time>2025-05-16T09:55:08Z</time>
      </trkpt>
      <trkpt lat="43.33871902897954" lon="3.211701968684793">
        <ele>12.15</ele>
        <time>2025-05-16T09:55:09Z</time>
      </trkpt>
      <trkpt lat="43.33844100125134" lon="3.212048979476094">
        <ele>9.75</ele>
        <time>2025-05-16T09:55:14Z</time>
      </trkpt>
      <trkpt lat="43.337954012677073" lon="3.212363971397281">
        <ele>7.35</ele>
        <time>2025-05-16T09:55:20Z</time>
      </trkpt>
      <trkpt lat="43.337912019342184" lon="3.21240303106606">
        <ele>7.35</ele>
        <time>2025-05-16T09:55:21Z</time>
      </trkpt>
      <trkpt lat="43.337842030450702" lon="3.21246799081564">
        <ele>6.87</ele>
        <time>2025-05-16T09:55:22Z</time>
      </trkpt>
      <trkpt lat="43.337770029902458" lon="3.212535968050361">
        <ele>6.87</ele>
        <time>2025-05-16T09:55:23Z</time>
      </trkpt>
      <trkpt lat="43.337699035182595" lon="3.212603023275733">
        <ele>6.39</ele>
        <time>2025-05-16T09:55:24Z</time>
      </trkpt>
      <trkpt lat="43.337418995797634" lon="3.212865963578224">
        <ele>7.35</ele>
        <time>2025-05-16T09:55:28Z</time>
      </trkpt>
      <trkpt lat="43.337274994701147" lon="3.213000996038318">
        <ele>7.35</ele>
        <time>2025-05-16T09:55:30Z</time>
      </trkpt>
      <trkpt lat="43.337220009416342" lon="3.213080037385225">
        <ele>7.83</ele>
        <time>2025-05-16T09:55:31Z</time>
      </trkpt>
      <trkpt lat="43.337081959471107" lon="3.213394023478031">
        <ele>8.789999999999999</ele>
        <time>2025-05-16T09:55:34Z</time>
      </trkpt>
      <trkpt lat="43.337038960307837" lon="3.213501982390881">
        <ele>8.789999999999999</ele>
        <time>2025-05-16T09:55:35Z</time>
      </trkpt>
      <trkpt lat="43.336987998336554" lon="3.21362997405231">
        <ele>8.789999999999999</ele>
        <time>2025-05-16T09:55:36Z</time>
      </trkpt>
      <trkpt lat="43.336731009185314" lon="3.215381959453225">
        <ele>14.08</ele>
        <time>2025-05-16T09:55:50Z</time>
      </trkpt>
      <trkpt lat="43.336731009185314" lon="3.215496959164739">
        <ele>14.08</ele>
        <time>2025-05-16T09:55:51Z</time>
      </trkpt>
      <trkpt lat="43.336703013628721" lon="3.216856000944972">
        <ele>18.399999999999999</ele>
        <time>2025-05-16T09:56:02Z</time>
      </trkpt>
      <trkpt lat="43.336725980043411" lon="3.217596961185336">
        <ele>22.25</ele>
        <time>2025-05-16T09:56:11Z</time>
      </trkpt>
      <trkpt lat="43.336745006963611" lon="3.218045979738236">
        <ele>25.129999999999999</ele>
        <time>2025-05-16T09:56:22Z</time>
      </trkpt>
      <trkpt lat="43.336751963943243" lon="3.2184830121696">
        <ele>27.530000000000001</ele>
        <time>2025-05-16T09:56:32Z</time>
      </trkpt>
      <trkpt lat="43.336751963943243" lon="3.218578984960914">
        <ele>28.02</ele>
        <time>2025-05-16T09:56:33Z</time>
      </trkpt>
      <trkpt lat="43.336751963943243" lon="3.218665989115834">
        <ele>28.02</ele>
        <time>2025-05-16T09:56:34Z</time>
      </trkpt>
      <trkpt lat="43.336749030277133" lon="3.218747964128852">
        <ele>28.5</ele>
        <time>2025-05-16T09:56:35Z</time>
      </trkpt>
      <trkpt lat="43.336742995306849" lon="3.218818958848715">
        <ele>28.5</ele>
        <time>2025-05-16T09:56:36Z</time>
      </trkpt>
      <trkpt lat="43.336736960336566" lon="3.218896994367242">
        <ele>28.5</ele>
        <time>2025-05-16T09:56:37Z</time>
      </trkpt>
      <trkpt lat="43.336730003356934" lon="3.218980981037021">
        <ele>28.5</ele>
        <time>2025-05-16T09:56:38Z</time>
      </trkpt>
      <trkpt lat="43.336719023063779" lon="3.219068991020322">
        <ele>28.5</ele>
        <time>2025-05-16T09:56:39Z</time>
      </trkpt>
      <trkpt lat="43.336707036942244" lon="3.219162030145526">
        <ele>28.98</ele>
        <time>2025-05-16T09:56:40Z</time>
      </trkpt>
      <trkpt lat="43.336685998365283" lon="3.219348024576902">
        <ele>29.460000000000001</ele>
        <time>2025-05-16T09:56:42Z</time>
      </trkpt>
      <trkpt lat="43.336674012243748" lon="3.219442991539836">
        <ele>29.940000000000001</ele>
        <time>2025-05-16T09:56:43Z</time>
      </trkpt>
      <trkpt lat="43.336623972281814" lon="3.220060989260674">
        <ele>29.940000000000001</ele>
        <time>2025-05-16T09:56:49Z</time>
      </trkpt>
      <trkpt lat="43.336391961202025" lon="3.221473004668951">
        <ele>25.609999999999999</ele>
        <time>2025-05-16T09:57:01Z</time>
      </trkpt>
      <trkpt lat="43.336305962875485" lon="3.222183035686612">
        <ele>21.77</ele>
        <time>2025-05-16T09:57:10Z</time>
      </trkpt>
      <trkpt lat="43.336290037259459" lon="3.222289988771081">
        <ele>19.84</ele>
        <time>2025-05-16T09:57:19Z</time>
      </trkpt>
      <trkpt lat="43.336285008117557" lon="3.222315972670913">
        <ele>19.84</ele>
        <time>2025-05-16T09:57:23Z</time>
      </trkpt>
      <trkpt lat="43.336277967318892" lon="3.22235100902617">
        <ele>18.879999999999999</ele>
        <time>2025-05-16T09:57:24Z</time>
      </trkpt>
      <trkpt lat="43.33627000451088" lon="3.22239400818944">
        <ele>18.879999999999999</ele>
        <time>2025-05-16T09:57:25Z</time>
      </trkpt>
      <trkpt lat="43.336260030046105" lon="3.222439019009471">
        <ele>18.399999999999999</ele>
        <time>2025-05-16T09:57:26Z</time>
      </trkpt>
      <trkpt lat="43.3362499717623" lon="3.222490986809135">
        <ele>17.920000000000002</ele>
        <time>2025-05-16T09:57:27Z</time>
      </trkpt>
      <trkpt lat="43.336107982322574" lon="3.222556030377746">
        <ele>17.920000000000002</ele>
        <time>2025-05-16T09:57:28Z</time>
      </trkpt>
      <trkpt lat="43.336018966510892" lon="3.222670024260879">
        <ele>16.960000000000001</ele>
        <time>2025-05-16T09:57:30Z</time>
      </trkpt>
      <trkpt lat="43.336011003702879" lon="3.222763985395432">
        <ele>16.48</ele>
        <time>2025-05-16T09:57:31Z</time>
      </trkpt>
      <trkpt lat="43.336004968732595" lon="3.222848977893591">
        <ele>16</ele>
        <time>2025-05-16T09:57:32Z</time>
      </trkpt>
      <trkpt lat="43.336050985381007" lon="3.222948973998427">
        <ele>15.52</ele>
        <time>2025-05-16T09:57:33Z</time>
      </trkpt>
      <trkpt lat="43.3360980078578" lon="3.22299599647522">
        <ele>15.039999999999999</ele>
        <time>2025-05-16T09:57:34Z</time>
      </trkpt>
      <trkpt lat="43.336107982322574" lon="3.223006976768374">
        <ele>15.039999999999999</ele>
        <time>2025-05-16T09:57:35Z</time>
      </trkpt>
      <trkpt lat="43.336208984255791" lon="3.223108984529972">
        <ele>14.56</ele>
        <time>2025-05-16T09:57:36Z</time>
      </trkpt>
      <trkpt lat="43.336219964548945" lon="3.22318802587688">
        <ele>14.08</ele>
        <time>2025-05-16T09:57:37Z</time>
      </trkpt>
      <trkpt lat="43.336232034489512" lon="3.223271006718278">
        <ele>14.08</ele>
        <time>2025-05-16T09:57:38Z</time>
      </trkpt>
      <trkpt lat="43.336239997297525" lon="3.223353987559676">
        <ele>13.6</ele>
        <time>2025-05-16T09:57:39Z</time>
      </trkpt>
      <trkpt lat="43.336245026439428" lon="3.223434034734964">
        <ele>13.6</ele>
        <time>2025-05-16T09:57:40Z</time>
      </trkpt>
      <trkpt lat="43.336260030046105" lon="3.223676020279527">
        <ele>13.6</ele>
        <time>2025-05-16T09:57:43Z</time>
      </trkpt>
      <trkpt lat="43.33633597008884" lon="3.224917966872454">
        <ele>13.6</ele>
        <time>2025-05-16T09:57:53Z</time>
      </trkpt>
      <trkpt lat="43.336261035874486" lon="3.225491037592292">
        <ele>14.56</ele>
        <time>2025-05-16T09:57:57Z</time>
      </trkpt>
      <trkpt lat="43.336221976205707" lon="3.225636966526508">
        <ele>15.52</ele>
        <time>2025-05-16T09:57:58Z</time>
      </trkpt>
      <trkpt lat="43.336187023669481" lon="3.225770993158221">
        <ele>16</ele>
        <time>2025-05-16T09:57:59Z</time>
      </trkpt>
      <trkpt lat="43.335843030363321" lon="3.226549001410604">
        <ele>16</ele>
        <time>2025-05-16T09:58:08Z</time>
      </trkpt>
      <trkpt lat="43.335757032036781" lon="3.226728960871697">
        <ele>15.52</ele>
        <time>2025-05-16T09:58:11Z</time>
      </trkpt>
      <trkpt lat="43.335686959326267" lon="3.226873967796564">
        <ele>15.039999999999999</ele>
        <time>2025-05-16T09:58:14Z</time>
      </trkpt>
      <trkpt lat="43.335658963769674" lon="3.22692995890975">
        <ele>15.039999999999999</ele>
        <time>2025-05-16T09:58:15Z</time>
      </trkpt>
      <trkpt lat="43.335619987919927" lon="3.2269929908216">
        <ele>14.56</ele>
        <time>2025-05-16T09:58:16Z</time>
      </trkpt>
      <trkpt lat="43.335571959614754" lon="3.227041019126773">
        <ele>14.08</ele>
        <time>2025-05-16T09:58:17Z</time>
      </trkpt>
      <trkpt lat="43.335546981543303" lon="3.227077983319759">
        <ele>13.6</ele>
        <time>2025-05-16T09:58:18Z</time>
      </trkpt>
      <trkpt lat="43.335514962673187" lon="3.227126011624932">
        <ele>13.119999999999999</ele>
        <time>2025-05-16T09:58:19Z</time>
      </trkpt>
      <trkpt lat="43.335479004308581" lon="3.227178985252976">
        <ele>12.630000000000001</ele>
        <time>2025-05-16T09:58:20Z</time>
      </trkpt>
      <trkpt lat="43.335397029295564" lon="3.227303959429264">
        <ele>11.67</ele>
        <time>2025-05-16T09:58:22Z</time>
      </trkpt>
      <trkpt lat="43.335314970463514" lon="3.227451983839274">
        <ele>10.23</ele>
        <time>2025-05-16T09:58:24Z</time>
      </trkpt>
      <trkpt lat="43.335230983793736" lon="3.227603025734425">
        <ele>9.75</ele>
        <time>2025-05-16T09:58:26Z</time>
      </trkpt>
      <trkpt lat="43.335199970752001" lon="3.227659016847611">
        <ele>9.75</ele>
        <time>2025-05-16T09:58:27Z</time>
      </trkpt>
      <trkpt lat="43.335172981023788" lon="3.227706039324403">
        <ele>9.27</ele>
        <time>2025-05-16T09:58:28Z</time>
      </trkpt>
      <trkpt lat="43.334992015734315" lon="3.227835036814213">
        <ele>9.27</ele>
        <time>2025-05-16T09:58:30Z</time>
      </trkpt>
      <trkpt lat="43.334992015734315" lon="3.227835036814213">
        <ele>9.27</ele>
        <time>2025-05-16T09:58:31Z</time>
      </trkpt>
      <trkpt lat="43.334905011579394" lon="3.227896979078651">
        <ele>10.23</ele>
        <time>2025-05-16T09:58:33Z</time>
      </trkpt>
      <trkpt lat="43.334841979667544" lon="3.227962022647262">
        <ele>10.710000000000001</ele>
        <time>2025-05-16T09:58:34Z</time>
      </trkpt>
      <trkpt lat="43.334841979667544" lon="3.228065958246589">
        <ele>11.19</ele>
        <time>2025-05-16T09:58:35Z</time>
      </trkpt>
      <trkpt lat="43.334840973839164" lon="3.228182969614863">
        <ele>11.67</ele>
        <time>2025-05-16T09:58:36Z</time>
      </trkpt>
      <trkpt lat="43.334809960797429" lon="3.228305010125041">
        <ele>11.67</ele>
        <time>2025-05-16T09:58:37Z</time>
      </trkpt>
      <trkpt lat="43.334752963855863" lon="3.228406012058258">
        <ele>11.67</ele>
        <time>2025-05-16T09:58:38Z</time>
      </trkpt>
      <trkpt lat="43.334693033248186" lon="3.228513970971108">
        <ele>11.67</ele>
        <time>2025-05-16T09:58:39Z</time>
      </trkpt>
      <trkpt lat="43.33407998085022" lon="3.229758013039827">
        <ele>10.710000000000001</ele>
        <time>2025-05-16T09:58:48Z</time>
      </trkpt>
      <trkpt lat="43.333618976175785" lon="3.23122501373291">
        <ele>10.710000000000001</ele>
        <time>2025-05-16T09:58:58Z</time>
      </trkpt>
      <trkpt lat="43.33362802863121" lon="3.231381000950933">
        <ele>10.710000000000001</ele>
        <time>2025-05-16T09:58:59Z</time>
      </trkpt>
      <trkpt lat="43.333512023091316" lon="3.231675960123539">
        <ele>11.19</ele>
        <time>2025-05-16T09:59:01Z</time>
      </trkpt>
      <trkpt lat="43.333506993949413" lon="3.231733040884137">
        <ele>11.67</ele>
        <time>2025-05-16T09:59:02Z</time>
      </trkpt>
      <trkpt lat="43.33349802531302" lon="3.231854997575283">
        <ele>12.15</ele>
        <time>2025-05-16T09:59:03Z</time>
      </trkpt>
      <trkpt lat="43.333433987572789" lon="3.232022970914841">
        <ele>12.630000000000001</ele>
        <time>2025-05-16T09:59:04Z</time>
      </trkpt>
      <trkpt lat="43.333357963711023" lon="3.232116010040045">
        <ele>13.119999999999999</ele>
        <time>2025-05-16T09:59:05Z</time>
      </trkpt>
      <trkpt lat="43.333287974819541" lon="3.232218017801642">
        <ele>13.119999999999999</ele>
        <time>2025-05-16T09:59:06Z</time>
      </trkpt>
      <trkpt lat="43.333241958171129" lon="3.232355983927846">
        <ele>13.6</ele>
        <time>2025-05-16T09:59:07Z</time>
      </trkpt>
      <trkpt lat="43.332771984860301" lon="3.233774034306407">
        <ele>13.6</ele>
        <time>2025-05-16T09:59:17Z</time>
      </trkpt>
      <trkpt lat="43.33234098739922" lon="3.2350920047611">
        <ele>8.310000000000001</ele>
        <time>2025-05-16T09:59:26Z</time>
      </trkpt>
      <trkpt lat="43.331698011606932" lon="3.237052028998733">
        <ele>7.35</ele>
        <time>2025-05-16T09:59:38Z</time>
      </trkpt>
      <trkpt lat="43.331430964171886" lon="3.237835988402367">
        <ele>7.83</ele>
        <time>2025-05-16T09:59:44Z</time>
      </trkpt>
      <trkpt lat="43.331040032207966" lon="3.238833015784621">
        <ele>8.310000000000001</ele>
        <time>2025-05-16T09:59:52Z</time>
      </trkpt>
      <trkpt lat="43.330467967316508" lon="3.240087032318115">
        <ele>5.91</ele>
        <time>2025-05-16T09:59:59Z</time>
      </trkpt>
      <trkpt lat="43.330353973433375" lon="3.240275038406253">
        <ele>5.91</ele>
        <time>2025-05-16T10:00:00Z</time>
      </trkpt>
      <trkpt lat="43.329253010451794" lon="3.241813033819199">
        <ele>4.94</ele>
        <time>2025-05-16T10:00:09Z</time>
      </trkpt>
      <trkpt lat="43.327444028109312" lon="3.244188968092203">
        <ele>5.42</ele>
        <time>2025-05-16T10:00:23Z</time>
      </trkpt>
      <trkpt lat="43.32660399377346" lon="3.245412977412343">
        <ele>8.789999999999999</ele>
        <time>2025-05-16T10:00:30Z</time>
      </trkpt>
      <trkpt lat="43.326121028512716" lon="3.246062994003296">
        <ele>10.710000000000001</ele>
        <time>2025-05-16T10:00:34Z</time>
      </trkpt>
      <trkpt lat="43.325989013537765" lon="3.246203977614641">
        <ele>11.19</ele>
        <time>2025-05-16T10:00:35Z</time>
      </trkpt>
      <trkpt lat="43.325846018269658" lon="3.246318977326155">
        <ele>11.19</ele>
        <time>2025-05-16T10:00:36Z</time>
      </trkpt>
      <trkpt lat="43.325691036880016" lon="3.246426014229655">
        <ele>11.67</ele>
        <time>2025-05-16T10:00:37Z</time>
      </trkpt>
      <trkpt lat="43.325531026348472" lon="3.246473036706448">
        <ele>12.15</ele>
        <time>2025-05-16T10:00:38Z</time>
      </trkpt>
      <trkpt lat="43.325371015816927" lon="3.246519975364208">
        <ele>13.119999999999999</ele>
        <time>2025-05-16T10:00:39Z</time>
      </trkpt>
      <trkpt lat="43.325215028598905" lon="3.246564986184239">
        <ele>13.6</ele>
        <time>2025-05-16T10:00:40Z</time>
      </trkpt>
      <trkpt lat="43.324902970343828" lon="3.246657019481063">
        <ele>13.6</ele>
        <time>2025-05-16T10:00:42Z</time>
      </trkpt>
      <trkpt lat="43.324763998389244" lon="3.246732037514448">
        <ele>13.6</ele>
        <time>2025-05-16T10:00:43Z</time>
      </trkpt>
      <trkpt lat="43.324629971757531" lon="3.246831027790904">
        <ele>13.119999999999999</ele>
        <time>2025-05-16T10:00:44Z</time>
      </trkpt>
      <trkpt lat="43.324504997581244" lon="3.246934041380882">
        <ele>13.119999999999999</ele>
        <time>2025-05-16T10:00:45Z</time>
      </trkpt>
      <trkpt lat="43.324403995648026" lon="3.247077958658338">
        <ele>13.119999999999999</ele>
        <time>2025-05-16T10:00:46Z</time>
      </trkpt>
      <trkpt lat="43.324302993714809" lon="3.247221037745476">
        <ele>13.119999999999999</ele>
        <time>2025-05-16T10:00:47Z</time>
      </trkpt>
      <trkpt lat="43.324210960417986" lon="3.247365038841963">
        <ele>12.630000000000001</ele>
        <time>2025-05-16T10:00:48Z</time>
      </trkpt>
      <trkpt lat="43.324147006496787" lon="3.247542986646295">
        <ele>12.630000000000001</ele>
        <time>2025-05-16T10:00:49Z</time>
      </trkpt>
      <trkpt lat="43.324083974584937" lon="3.247716994956136">
        <ele>12.15</ele>
        <time>2025-05-16T10:00:50Z</time>
      </trkpt>
      <trkpt lat="43.324020020663738" lon="3.247891003265977">
        <ele>11.67</ele>
        <time>2025-05-16T10:00:51Z</time>
      </trkpt>
      <trkpt lat="43.32363897934556" lon="3.249753965064883">
        <ele>7.83</ele>
        <time>2025-05-16T10:01:00Z</time>
      </trkpt>
      <trkpt lat="43.323643002659082" lon="3.25225898064673">
        <ele>6.87</ele>
        <time>2025-05-16T10:01:11Z</time>
      </trkpt>
      <trkpt lat="43.323694970458746" lon="3.255798993632197">
        <ele>7.83</ele>
        <time>2025-05-16T10:01:26Z</time>
      </trkpt>
      <trkpt lat="43.323758002370596" lon="3.259445959702134">
        <ele>9.27</ele>
        <time>2025-05-16T10:01:42Z</time>
      </trkpt>
      <trkpt lat="43.323749033734202" lon="3.262010989710689">
        <ele>9.75</ele>
        <time>2025-05-16T10:01:53Z</time>
      </trkpt>
      <trkpt lat="43.323450973257422" lon="3.263814020901918">
        <ele>8.789999999999999</ele>
        <time>2025-05-16T10:02:01Z</time>
      </trkpt>
      <trkpt lat="43.323169006034732" lon="3.265079017728567">
        <ele>8.789999999999999</ele>
        <time>2025-05-16T10:02:08Z</time>
      </trkpt>
      <trkpt lat="43.323131036013365" lon="3.265247996896505">
        <ele>8.789999999999999</ele>
        <time>2025-05-16T10:02:09Z</time>
      </trkpt>
      <trkpt lat="43.323093988001347" lon="3.265415970236063">
        <ele>8.789999999999999</ele>
        <time>2025-05-16T10:02:10Z</time>
      </trkpt>
      <trkpt lat="43.322632983326912" lon="3.26751303859055">
        <ele>7.83</ele>
        <time>2025-05-16T10:02:22Z</time>
      </trkpt>
      <trkpt lat="43.322275998070836" lon="3.26912596821785">
        <ele>7.35</ele>
        <time>2025-05-16T10:02:31Z</time>
      </trkpt>
      <trkpt lat="43.321846006438136" lon="3.271042993292213">
        <ele>5.42</ele>
        <time>2025-05-16T10:02:42Z</time>
      </trkpt>
      <trkpt lat="43.321636961773038" lon="3.271967014297843">
        <ele>3.98</ele>
        <time>2025-05-16T10:02:48Z</time>
      </trkpt>
      <trkpt lat="43.321605026721954" lon="3.272112021222711">
        <ele>3.98</ele>
        <time>2025-05-16T10:02:49Z</time>
      </trkpt>
      <trkpt lat="43.321570996195078" lon="3.272260967642069">
        <ele>3.5</ele>
        <time>2025-05-16T10:02:50Z</time>
      </trkpt>
      <trkpt lat="43.32135901786387" lon="3.273200998082757">
        <ele>3.02</ele>
        <time>2025-05-16T10:02:57Z</time>
      </trkpt>
      <trkpt lat="43.32110496237874" lon="3.274354012683034">
        <ele>1.58</ele>
        <time>2025-05-16T10:03:06Z</time>
      </trkpt>
      <trkpt lat="43.320859037339687" lon="3.275540973991156">
        <ele>1.1</ele>
        <time>2025-05-16T10:03:13Z</time>
      </trkpt>
      <trkpt lat="43.320770021528006" lon="3.276053024455905">
        <ele>1.1</ele>
        <time>2025-05-16T10:03:16Z</time>
      </trkpt>
      <trkpt lat="43.320741020143032" lon="3.276219991967082">
        <ele>1.1</ele>
        <time>2025-05-16T10:03:17Z</time>
      </trkpt>
      <trkpt lat="43.320619985461235" lon="3.277008980512619">
        <ele>1.1</ele>
        <time>2025-05-16T10:03:22Z</time>
      </trkpt>
      <trkpt lat="43.320551002398133" lon="3.278688965365291">
        <ele>1.1</ele>
        <time>2025-05-16T10:03:33Z</time>
      </trkpt>
      <trkpt lat="43.320551002398133" lon="3.279204033315182">
        <ele>2.06</ele>
        <time>2025-05-16T10:03:37Z</time>
      </trkpt>
      <trkpt lat="43.320551002398133" lon="3.279376029968262">
        <ele>2.06</ele>
        <time>2025-05-16T10:03:38Z</time>
      </trkpt>
      <trkpt lat="43.320473972707987" lon="3.279534028843045">
        <ele>2.06</ele>
        <time>2025-05-16T10:03:40Z</time>
      </trkpt>
      <trkpt lat="43.320443965494633" lon="3.279623966664076">
        <ele>2.06</ele>
        <time>2025-05-16T10:03:41Z</time>
      </trkpt>
      <trkpt lat="43.320443965494633" lon="3.279733015224338">
        <ele>1.58</ele>
        <time>2025-05-16T10:03:42Z</time>
      </trkpt>
      <trkpt lat="43.320487970486283" lon="3.279827982187271">
        <ele>1.1</ele>
        <time>2025-05-16T10:03:43Z</time>
      </trkpt>
      <trkpt lat="43.320541027933359" lon="3.279950022697449">
        <ele>0.62</ele>
        <time>2025-05-16T10:03:44Z</time>
      </trkpt>
      <trkpt lat="43.32056600600481" lon="3.280087988823652">
        <ele>0.62</ele>
        <time>2025-05-16T10:03:45Z</time>
      </trkpt>
      <trkpt lat="43.320592995733023" lon="3.280236013233662">
        <ele>0.62</ele>
        <time>2025-05-16T10:03:46Z</time>
      </trkpt>
      <trkpt lat="43.320739008486271" lon="3.281833017244935">
        <ele>1.1</ele>
        <time>2025-05-16T10:03:56Z</time>
      </trkpt>
      <trkpt lat="43.320812014862895" lon="3.28358500264585">
        <ele>1.58</ele>
        <time>2025-05-16T10:04:07Z</time>
      </trkpt>
      <trkpt lat="43.320860965177417" lon="3.28526197001338">
        <ele>2.06</ele>
        <time>2025-05-16T10:04:16Z</time>
      </trkpt>
      <trkpt lat="43.320960039272904" lon="3.287226017564535">
        <ele>0.62</ele>
        <time>2025-05-16T10:04:28Z</time>
      </trkpt>
      <trkpt lat="43.320965990424156" lon="3.287341017276049">
        <ele>0.14</ele>
        <time>2025-05-16T10:04:29Z</time>
      </trkpt>
      <trkpt lat="43.320971019566059" lon="3.287443025037646">
        <ele>0.14</ele>
        <time>2025-05-16T10:04:30Z</time>
      </trkpt>
      <trkpt lat="43.32097596488893" lon="3.28753899782896">
        <ele>-0.34</ele>
        <time>2025-05-16T10:04:31Z</time>
      </trkpt>
      <trkpt lat="43.320883009582758" lon="3.287676963955164">
        <ele>-0.82</ele>
        <time>2025-05-16T10:04:32Z</time>
      </trkpt>
      <trkpt lat="43.320808997377753" lon="3.287722980603576">
        <ele>-1.3</ele>
        <time>2025-05-16T10:04:33Z</time>
      </trkpt>
      <trkpt lat="43.320799022912979" lon="3.287801016122103">
        <ele>-1.79</ele>
        <time>2025-05-16T10:04:34Z</time>
      </trkpt>
      <trkpt lat="43.320793993771076" lon="3.287912998348475">
        <ele>-2.27</ele>
        <time>2025-05-16T10:04:35Z</time>
      </trkpt>
      <trkpt lat="43.320830035954714" lon="3.288006959483028">
        <ele>-2.75</ele>
        <time>2025-05-16T10:04:36Z</time>
      </trkpt>
      <trkpt lat="43.320851996541023" lon="3.288065968081355">
        <ele>-3.71</ele>
        <time>2025-05-16T10:04:37Z</time>
      </trkpt>
      <trkpt lat="43.320980994030833" lon="3.288195971399546">
        <ele>-3.71</ele>
        <time>2025-05-16T10:04:38Z</time>
      </trkpt>
      <trkpt lat="43.320980994030833" lon="3.288366962224245">
        <ele>-3.71</ele>
        <time>2025-05-16T10:04:39Z</time>
      </trkpt>
      <trkpt lat="43.320986023172736" lon="3.288468969985843">
        <ele>-4.19</ele>
        <time>2025-05-16T10:04:40Z</time>
      </trkpt>
      <trkpt lat="43.32099599763751" lon="3.288630992174149">
        <ele>-4.19</ele>
        <time>2025-05-16T10:04:41Z</time>
      </trkpt>
      <trkpt lat="43.321028016507626" lon="3.289296012371779">
        <ele>-3.71</ele>
        <time>2025-05-16T10:04:45Z</time>
      </trkpt>
      <trkpt lat="43.321032039821148" lon="3.289462979882956">
        <ele>-3.71</ele>
        <time>2025-05-16T10:04:46Z</time>
      </trkpt>
      <trkpt lat="43.321063974872231" lon="3.290821015834808">
        <ele>-1.79</ele>
        <time>2025-05-16T10:04:54Z</time>
      </trkpt>
      <trkpt lat="43.321055006235838" lon="3.290982032194734">
        <ele>-1.3</ele>
        <time>2025-05-16T10:04:55Z</time>
      </trkpt>
      <trkpt lat="43.321002032607794" lon="3.291263999417424">
        <ele>-0.82</ele>
        <time>2025-05-16T10:04:57Z</time>
      </trkpt>
      <trkpt lat="43.32090999931097" lon="3.291527023538947">
        <ele>0.14</ele>
        <time>2025-05-16T10:05:01Z</time>
      </trkpt>
      <trkpt lat="43.320900024846196" lon="3.29155501909554">
        <ele>0.14</ele>
        <time>2025-05-16T10:05:02Z</time>
      </trkpt>
      <trkpt lat="43.320874040946364" lon="3.291630037128925">
        <ele>0.14</ele>
        <time>2025-05-16T10:05:04Z</time>
      </trkpt>
      <trkpt lat="43.320851996541023" lon="3.291692985221744">
        <ele>0.14</ele>
        <time>2025-05-16T10:05:05Z</time>
      </trkpt>
      <trkpt lat="43.320788964629173" lon="3.291712012141943">
        <ele>0.14</ele>
        <time>2025-05-16T10:05:06Z</time>
      </trkpt>
      <trkpt lat="43.320705983787775" lon="3.291735984385014">
        <ele>0.14</ele>
        <time>2025-05-16T10:05:07Z</time>
      </trkpt>
      <trkpt lat="43.320613028481603" lon="3.291779989376664">
        <ele>0.62</ele>
        <time>2025-05-16T10:05:08Z</time>
      </trkpt>
      <trkpt lat="43.320526024326682" lon="3.291860036551952">
        <ele>0.62</ele>
        <time>2025-05-16T10:05:09Z</time>
      </trkpt>
      <trkpt lat="43.320429967716336" lon="3.291948968544602">
        <ele>0.62</ele>
        <time>2025-05-16T10:05:10Z</time>
      </trkpt>
      <trkpt lat="43.32033097743988" lon="3.292049970477819">
        <ele>0.62</ele>
        <time>2025-05-16T10:05:11Z</time>
      </trkpt>
      <trkpt lat="43.32026400603354" lon="3.292207969352603">
        <ele>0.62</ele>
        <time>2025-05-16T10:05:12Z</time>
      </trkpt>
      <trkpt lat="43.320193011313677" lon="3.292375020682812">
        <ele>0.14</ele>
        <time>2025-05-16T10:05:13Z</time>
      </trkpt>
      <trkpt lat="43.320122016593814" lon="3.292542994022369">
        <ele>0.14</ele>
        <time>2025-05-16T10:05:14Z</time>
      </trkpt>
      <trkpt lat="43.320070970803499" lon="3.292725970968604">
        <ele>0.14</ele>
        <time>2025-05-16T10:05:15Z</time>
      </trkpt>
      <trkpt lat="43.320027971640229" lon="3.292922023683786">
        <ele>-0.34</ele>
        <time>2025-05-16T10:05:16Z</time>
      </trkpt>
      <trkpt lat="43.320014979690313" lon="3.293127967044711">
        <ele>-0.34</ele>
        <time>2025-05-16T10:05:17Z</time>
      </trkpt>
      <trkpt lat="43.320031994953752" lon="3.293337011709809">
        <ele>-0.82</ele>
        <time>2025-05-16T10:05:18Z</time>
      </trkpt>
      <trkpt lat="43.320095026865602" lon="3.293529963120818">
        <ele>-0.82</ele>
        <time>2025-05-16T10:05:19Z</time>
      </trkpt>
      <trkpt lat="43.320175996050239" lon="3.293709000572562">
        <ele>-1.3</ele>
        <time>2025-05-16T10:05:20Z</time>
      </trkpt>
      <trkpt lat="43.320212960243225" lon="3.293913016095758">
        <ele>-0.82</ele>
        <time>2025-05-16T10:05:21Z</time>
      </trkpt>
      <trkpt lat="43.320242967456579" lon="3.294122982770205">
        <ele>-0.82</ele>
        <time>2025-05-16T10:05:22Z</time>
      </trkpt>
      <trkpt lat="43.320271968841553" lon="3.294332027435303">
        <ele>-0.34</ele>
        <time>2025-05-16T10:05:23Z</time>
      </trkpt>
      <trkpt lat="43.320226036012173" lon="3.294547023251653">
        <ele>-0.34</ele>
        <time>2025-05-16T10:05:24Z</time>
      </trkpt>
      <trkpt lat="43.320177001878619" lon="3.294772999361157">
        <ele>-0.34</ele>
        <time>2025-05-16T10:05:25Z</time>
      </trkpt>
      <trkpt lat="43.320116987451911" lon="3.294996041804552">
        <ele>-0.34</ele>
        <time>2025-05-16T10:05:26Z</time>
      </trkpt>
      <trkpt lat="43.320054961368442" lon="3.295219000428915">
        <ele>0.14</ele>
        <time>2025-05-16T10:05:27Z</time>
      </trkpt>
      <trkpt lat="43.319661011919379" lon="3.296752972528338">
        <ele>0.62</ele>
        <time>2025-05-16T10:05:35Z</time>
      </trkpt>
      <trkpt lat="43.319260021671653" lon="3.298177979886532">
        <ele>-0.34</ele>
        <time>2025-05-16T10:05:43Z</time>
      </trkpt>
      <trkpt lat="43.318879986181855" lon="3.299495028331876">
        <ele>0.14</ele>
        <time>2025-05-16T10:05:51Z</time>
      </trkpt>
      <trkpt lat="43.318538004532456" lon="3.300691964104772">
        <ele>1.1</ele>
        <time>2025-05-16T10:06:00Z</time>
      </trkpt>
      <trkpt lat="43.317934004589915" lon="3.302936973050237">
        <ele>1.58</ele>
        <time>2025-05-16T10:06:12Z</time>
      </trkpt>
      <trkpt lat="43.31736596301198" lon="3.305269991979003">
        <ele>2.06</ele>
        <time>2025-05-16T10:06:23Z</time>
      </trkpt>
      <trkpt lat="43.316688034683466" lon="3.308258978649974">
        <ele>3.5</ele>
        <time>2025-05-16T10:06:35Z</time>
      </trkpt>
      <trkpt lat="43.315786980092525" lon="3.311219969764352">
        <ele>3.5</ele>
        <time>2025-05-16T10:06:47Z</time>
      </trkpt>
      <trkpt lat="43.314860025420785" lon="3.313338998705149">
        <ele>4.94</ele>
        <time>2025-05-16T10:06:57Z</time>
      </trkpt>
      <trkpt lat="43.314406983554363" lon="3.315417040139437">
        <ele>6.39</ele>
        <time>2025-05-16T10:07:05Z</time>
      </trkpt>
      <trkpt lat="43.314145971089602" lon="3.318137973546982">
        <ele>8.310000000000001</ele>
        <time>2025-05-16T10:07:14Z</time>
      </trkpt>
      <trkpt lat="43.313716985285282" lon="3.322684988379479">
        <ele>18.879999999999999</ele>
        <time>2025-05-16T10:07:29Z</time>
      </trkpt>
      <trkpt lat="43.313370980322361" lon="3.326971996575594">
        <ele>21.77</ele>
        <time>2025-05-16T10:07:43Z</time>
      </trkpt>
      <trkpt lat="43.313126983121037" lon="3.329672981053591">
        <ele>21.77</ele>
        <time>2025-05-16T10:07:53Z</time>
      </trkpt>
      <trkpt lat="43.31319697201252" lon="3.332223007455468">
        <ele>20.32</ele>
        <time>2025-05-16T10:08:04Z</time>
      </trkpt>
      <trkpt lat="43.313324963673949" lon="3.335848012939096">
        <ele>17.920000000000002</ele>
        <time>2025-05-16T10:08:19Z</time>
      </trkpt>
      <trkpt lat="43.313329992815852" lon="3.337099011987448">
        <ele>15.52</ele>
        <time>2025-05-16T10:08:26Z</time>
      </trkpt>
      <trkpt lat="43.31332697533071" lon="3.337205965071917">
        <ele>15.52</ele>
        <time>2025-05-16T10:08:27Z</time>
      </trkpt>
      <trkpt lat="43.313322030007839" lon="3.33731995895505">
        <ele>15.52</ele>
        <time>2025-05-16T10:08:28Z</time>
      </trkpt>
      <trkpt lat="43.313276013359427" lon="3.337420038878918">
        <ele>15.52</ele>
        <time>2025-05-16T10:08:29Z</time>
      </trkpt>
      <trkpt lat="43.313191020861268" lon="3.337550964206457">
        <ele>15.52</ele>
        <time>2025-05-16T10:08:30Z</time>
      </trkpt>
      <trkpt lat="43.313191020861268" lon="3.337669987231493">
        <ele>15.039999999999999</ele>
        <time>2025-05-16T10:08:31Z</time>
      </trkpt>
      <trkpt lat="43.313266960904002" lon="3.337782975286245">
        <ele>15.039999999999999</ele>
        <time>2025-05-16T10:08:32Z</time>
      </trkpt>
      <trkpt lat="43.313310965895653" lon="3.337890012189746">
        <ele>15.039999999999999</ele>
        <time>2025-05-16T10:08:33Z</time>
      </trkpt>
      <trkpt lat="43.313336027786136" lon="3.338024960830808">
        <ele>14.56</ele>
        <time>2025-05-16T10:08:34Z</time>
      </trkpt>
      <trkpt lat="43.313363017514348" lon="3.338169967755675">
        <ele>14.56</ele>
        <time>2025-05-16T10:08:35Z</time>
      </trkpt>
      <trkpt lat="43.313363017514348" lon="3.338344981893897">
        <ele>14.56</ele>
        <time>2025-05-16T10:08:36Z</time>
      </trkpt>
      <trkpt lat="43.313441975042224" lon="3.340202998369932">
        <ele>12.15</ele>
        <time>2025-05-16T10:08:46Z</time>
      </trkpt>
      <trkpt lat="43.31351799890399" lon="3.342588990926743">
        <ele>8.789999999999999</ele>
        <time>2025-05-16T10:08:57Z</time>
      </trkpt>
      <trkpt lat="43.313621012493968" lon="3.345202971249819">
        <ele>7.83</ele>
        <time>2025-05-16T10:09:09Z</time>
      </trkpt>
      <trkpt lat="43.313717991113663" lon="3.348131021484733">
        <ele>7.35</ele>
        <time>2025-05-16T10:09:22Z</time>
      </trkpt>
      <trkpt lat="43.31384296528995" lon="3.351217992603779">
        <ele>5.42</ele>
        <time>2025-05-16T10:09:33Z</time>
      </trkpt>
      <trkpt lat="43.314008004963398" lon="3.355671968311071">
        <ele>6.87</ele>
        <time>2025-05-16T10:09:49Z</time>
      </trkpt>
      <trkpt lat="43.314039018005133" lon="3.357769036665559">
        <ele>7.35</ele>
        <time>2025-05-16T10:09:58Z</time>
      </trkpt>
      <trkpt lat="43.314090985804796" lon="3.359552035108209">
        <ele>8.789999999999999</ele>
        <time>2025-05-16T10:10:08Z</time>
      </trkpt>
      <trkpt lat="43.314073970541358" lon="3.360203979536891">
        <ele>9.27</ele>
        <time>2025-05-16T10:10:12Z</time>
      </trkpt>
      <trkpt lat="43.314046980813146" lon="3.36032803170383">
        <ele>9.27</ele>
        <time>2025-05-16T10:10:13Z</time>
      </trkpt>
      <trkpt lat="43.313985960558057" lon="3.360420987010002">
        <ele>9.27</ele>
        <time>2025-05-16T10:10:14Z</time>
      </trkpt>
      <trkpt lat="43.313985038548708" lon="3.360560964792967">
        <ele>9.75</ele>
        <time>2025-05-16T10:10:15Z</time>
      </trkpt>
      <trkpt lat="43.314010016620159" lon="3.36063195951283">
        <ele>9.27</ele>
        <time>2025-05-16T10:10:16Z</time>
      </trkpt>
      <trkpt lat="43.31405402161181" lon="3.360703038051724">
        <ele>8.789999999999999</ele>
        <time>2025-05-16T10:10:17Z</time>
      </trkpt>
      <trkpt lat="43.314092997461557" lon="3.360764980316162">
        <ele>8.789999999999999</ele>
        <time>2025-05-16T10:10:18Z</time>
      </trkpt>
      <trkpt lat="43.314101966097951" lon="3.360943011939526">
        <ele>8.789999999999999</ele>
        <time>2025-05-16T10:10:19Z</time>
      </trkpt>
      <trkpt lat="43.314109006896615" lon="3.361069997772574">
        <ele>8.789999999999999</ele>
        <time>2025-05-16T10:10:20Z</time>
      </trkpt>
      <trkpt lat="43.314115963876247" lon="3.3612119872123">
        <ele>8.310000000000001</ele>
        <time>2025-05-16T10:10:21Z</time>
      </trkpt>
      <trkpt lat="43.314125016331673" lon="3.361370991915464">
        <ele>8.310000000000001</ele>
        <time>2025-05-16T10:10:22Z</time>
      </trkpt>
      <trkpt lat="43.314219983294606" lon="3.363353982567787">
        <ele>6.87</ele>
        <time>2025-05-16T10:10:32Z</time>
      </trkpt>
      <trkpt lat="43.314385022968054" lon="3.366512032225728">
        <ele>5.91</ele>
        <time>2025-05-16T10:10:46Z</time>
      </trkpt>
      <trkpt lat="43.314500022679567" lon="3.369925981387496">
        <ele>6.87</ele>
        <time>2025-05-16T10:11:01Z</time>
      </trkpt>
      <trkpt lat="43.314619967713952" lon="3.373599015176296">
        <ele>10.23</ele>
        <time>2025-05-16T10:11:16Z</time>
      </trkpt>
      <trkpt lat="43.314690962433815" lon="3.377081025391817">
        <ele>14.08</ele>
        <time>2025-05-16T10:11:31Z</time>
      </trkpt>
      <trkpt lat="43.314824989065528" lon="3.381228977814317">
        <ele>18.879999999999999</ele>
        <time>2025-05-16T10:11:48Z</time>
      </trkpt>
      <trkpt lat="43.314810991287231" lon="3.382917009294033">
        <ele>20.32</ele>
        <time>2025-05-16T10:11:54Z</time>
      </trkpt>
      <trkpt lat="43.314287960529327" lon="3.385389000177383">
        <ele>18.399999999999999</ele>
        <time>2025-05-16T10:12:02Z</time>
      </trkpt>
      <trkpt lat="43.313809018582106" lon="3.38755396194756">
        <ele>12.15</ele>
        <time>2025-05-16T10:12:08Z</time>
      </trkpt>
      <trkpt lat="43.313199989497662" lon="3.390121003612876">
        <ele>6.39</ele>
        <time>2025-05-16T10:12:17Z</time>
      </trkpt>
      <trkpt lat="43.312798999249935" lon="3.391976002603769">
        <ele>5.42</ele>
        <time>2025-05-16T10:12:25Z</time>
      </trkpt>
      <trkpt lat="43.312201034277678" lon="3.394725015386939">
        <ele>4.46</ele>
        <time>2025-05-16T10:12:37Z</time>
      </trkpt>
      <trkpt lat="43.311686972156167" lon="3.396904980763793">
        <ele>3.98</ele>
        <time>2025-05-16T10:12:47Z</time>
      </trkpt>
      <trkpt lat="43.311407016590238" lon="3.397788014262915">
        <ele>3.98</ele>
        <time>2025-05-16T10:12:51Z</time>
      </trkpt>
      <trkpt lat="43.311319006606936" lon="3.398007033392787">
        <ele>3.98</ele>
        <time>2025-05-16T10:12:52Z</time>
      </trkpt>
      <trkpt lat="43.311213981360197" lon="3.398211970925331">
        <ele>3.98</ele>
        <time>2025-05-16T10:12:53Z</time>
      </trkpt>
      <trkpt lat="43.311092024669051" lon="3.398410035297275">
        <ele>4.46</ele>
        <time>2025-05-16T10:12:54Z</time>
      </trkpt>
      <trkpt lat="43.310966966673732" lon="3.398612961173058">
        <ele>4.94</ele>
        <time>2025-05-16T10:12:55Z</time>
      </trkpt>
      <trkpt lat="43.310482995584607" lon="3.399466993287206">
        <ele>6.39</ele>
        <time>2025-05-16T10:12:59Z</time>
      </trkpt>
      <trkpt lat="43.310390962287784" lon="3.39969296939671">
        <ele>6.39</ele>
        <time>2025-05-16T10:13:00Z</time>
      </trkpt>
      <trkpt lat="43.310337988659739" lon="3.399924980476499">
        <ele>7.35</ele>
        <time>2025-05-16T10:13:01Z</time>
      </trkpt>
      <trkpt lat="43.310324996709824" lon="3.400178030133247">
        <ele>7.83</ele>
        <time>2025-05-16T10:13:02Z</time>
      </trkpt>
      <trkpt lat="43.310326002538204" lon="3.400410041213036">
        <ele>8.310000000000001</ele>
        <time>2025-05-16T10:13:03Z</time>
      </trkpt>
      <trkpt lat="43.310365984216332" lon="3.400644985958934">
        <ele>9.27</ele>
        <time>2025-05-16T10:13:04Z</time>
      </trkpt>
      <trkpt lat="43.31040496006608" lon="3.400869034230709">
        <ele>9.75</ele>
        <time>2025-05-16T10:13:05Z</time>
      </trkpt>
      <trkpt lat="43.310465980321169" lon="3.401070032268763">
        <ele>10.23</ele>
        <time>2025-05-16T10:13:06Z</time>
      </trkpt>
      <trkpt lat="43.310562958940864" lon="3.40126097202301">
        <ele>10.23</ele>
        <time>2025-05-16T10:13:07Z</time>
      </trkpt>
      <trkpt lat="43.310684999451041" lon="3.401440009474754">
        <ele>10.23</ele>
        <time>2025-05-16T10:13:08Z</time>
      </trkpt>
      <trkpt lat="43.310815002769232" lon="3.401613011956215">
        <ele>10.23</ele>
        <time>2025-05-16T10:13:09Z</time>
      </trkpt>
      <trkpt lat="43.310947017744184" lon="3.401789031922817">
        <ele>9.75</ele>
        <time>2025-05-16T10:13:10Z</time>
      </trkpt>
      <trkpt lat="43.311488991603255" lon="3.402575002983213">
        <ele>6.87</ele>
        <time>2025-05-16T10:13:14Z</time>
      </trkpt>
      <trkpt lat="43.311554035171866" lon="3.402826962992549">
        <ele>6.39</ele>
        <time>2025-05-16T10:13:15Z</time>
      </trkpt>
      <trkpt lat="43.311615977436304" lon="3.403065009042621">
        <ele>5.91</ele>
        <time>2025-05-16T10:13:16Z</time>
      </trkpt>
      <trkpt lat="43.311957037076354" lon="3.40529702603817">
        <ele>4.94</ele>
        <time>2025-05-16T10:13:26Z</time>
      </trkpt>
      <trkpt lat="43.312186030671" lon="3.406830998137593">
        <ele>8.310000000000001</ele>
        <time>2025-05-16T10:13:34Z</time>
      </trkpt>
      <trkpt lat="43.312242021784186" lon="3.407088993117213">
        <ele>8.310000000000001</ele>
        <time>2025-05-16T10:13:36Z</time>
      </trkpt>
      <trkpt lat="43.312274040654302" lon="3.407187983393669">
        <ele>8.310000000000001</ele>
        <time>2025-05-16T10:13:37Z</time>
      </trkpt>
      <trkpt lat="43.312403038144112" lon="3.407485960051417">
        <ele>8.310000000000001</ele>
        <time>2025-05-16T10:13:40Z</time>
      </trkpt>
      <trkpt lat="43.312413012608886" lon="3.407588973641396">
        <ele>8.789999999999999</ele>
        <time>2025-05-16T10:13:41Z</time>
      </trkpt>
      <trkpt lat="43.312340006232262" lon="3.407781003043056">
        <ele>8.789999999999999</ele>
        <time>2025-05-16T10:13:43Z</time>
      </trkpt>
      <trkpt lat="43.312349980697036" lon="3.40785501524806">
        <ele>8.789999999999999</ele>
        <time>2025-05-16T10:13:44Z</time>
      </trkpt>
      <trkpt lat="43.312432039529085" lon="3.407998010516167">
        <ele>9.27</ele>
        <time>2025-05-16T10:13:46Z</time>
      </trkpt>
      <trkpt lat="43.312418963760138" lon="3.408101024106145">
        <ele>9.27</ele>
        <time>2025-05-16T10:13:47Z</time>
      </trkpt>
      <trkpt lat="43.312418963760138" lon="3.408194985240698">
        <ele>9.27</ele>
        <time>2025-05-16T10:13:48Z</time>
      </trkpt>
      <trkpt lat="43.312436984851956" lon="3.408409981057048">
        <ele>8.789999999999999</ele>
        <time>2025-05-16T10:13:50Z</time>
      </trkpt>
      <trkpt lat="43.31244695931673" lon="3.408516012132168">
        <ele>8.789999999999999</ele>
        <time>2025-05-16T10:13:51Z</time>
      </trkpt>
      <trkpt lat="43.312452994287014" lon="3.408618019893765">
        <ele>8.310000000000001</ele>
        <time>2025-05-16T10:13:52Z</time>
      </trkpt>
      <trkpt lat="43.312461040914059" lon="3.408725978806615">
        <ele>8.310000000000001</ele>
        <time>2025-05-16T10:13:53Z</time>
      </trkpt>
      <trkpt lat="43.312472021207213" lon="3.408818012103438">
        <ele>8.310000000000001</ele>
        <time>2025-05-16T10:13:54Z</time>
      </trkpt>
      <trkpt lat="43.312484007328749" lon="3.408896969631314">
        <ele>8.310000000000001</ele>
        <time>2025-05-16T10:13:55Z</time>
      </trkpt>
      <trkpt lat="43.312499010935426" lon="3.409000989049673">
        <ele>8.310000000000001</ele>
        <time>2025-05-16T10:13:56Z</time>
      </trkpt>
      <trkpt lat="43.312518959864974" lon="3.409126969054341">
        <ele>8.310000000000001</ele>
        <time>2025-05-16T10:13:57Z</time>
      </trkpt>
      <trkpt lat="43.312543015927076" lon="3.409262001514435">
        <ele>7.83</ele>
        <time>2025-05-16T10:13:58Z</time>
      </trkpt>
      <trkpt lat="43.312750970944762" lon="3.41060696169734">
        <ele>6.39</ele>
        <time>2025-05-16T10:14:08Z</time>
      </trkpt>
      <trkpt lat="43.312806962057948" lon="3.411017004400492">
        <ele>6.39</ele>
        <time>2025-05-16T10:14:12Z</time>
      </trkpt>
      <trkpt lat="43.312824983149767" lon="3.411114988848567">
        <ele>6.39</ele>
        <time>2025-05-16T10:14:13Z</time>
      </trkpt>
      <trkpt lat="43.312839986756444" lon="3.411229988560081">
        <ele>6.39</ele>
        <time>2025-05-16T10:14:14Z</time>
      </trkpt>
      <trkpt lat="43.312854990363121" lon="3.411355968564749">
        <ele>6.39</ele>
        <time>2025-05-16T10:14:15Z</time>
      </trkpt>
      <trkpt lat="43.312870999798179" lon="3.411483038216829">
        <ele>6.87</ele>
        <time>2025-05-16T10:14:16Z</time>
      </trkpt>
      <trkpt lat="43.312887009233236" lon="3.411604994907975">
        <ele>7.35</ele>
        <time>2025-05-16T10:14:17Z</time>
      </trkpt>
      <trkpt lat="43.31300200894475" lon="3.412369005382061">
        <ele>10.23</ele>
        <time>2025-05-16T10:14:23Z</time>
      </trkpt>
      <trkpt lat="43.313020030036569" lon="3.412487022578716">
        <ele>10.710000000000001</ele>
        <time>2025-05-16T10:14:24Z</time>
      </trkpt>
      <trkpt lat="43.313117008656263" lon="3.413105020299554">
        <ele>13.119999999999999</ele>
        <time>2025-05-16T10:14:30Z</time>
      </trkpt>
      <trkpt lat="43.313135029748082" lon="3.413296965882182">
        <ele>14.56</ele>
        <time>2025-05-16T10:14:32Z</time>
      </trkpt>
      <trkpt lat="43.313140980899334" lon="3.413395034149289">
        <ele>15.039999999999999</ele>
        <time>2025-05-16T10:14:33Z</time>
      </trkpt>
      <trkpt lat="43.313180040568113" lon="3.413809016346932">
        <ele>16.48</ele>
        <time>2025-05-16T10:14:37Z</time>
      </trkpt>
      <trkpt lat="43.313191020861268" lon="3.413909012451768">
        <ele>16.48</ele>
        <time>2025-05-16T10:14:38Z</time>
      </trkpt>
      <trkpt lat="43.313141986727715" lon="3.414039015769959">
        <ele>16</ele>
        <time>2025-05-16T10:14:39Z</time>
      </trkpt>
      <trkpt lat="43.313215998932719" lon="3.414121996611357">
        <ele>16</ele>
        <time>2025-05-16T10:14:40Z</time>
      </trkpt>
      <trkpt lat="43.313241982832551" lon="3.414232973009348">
        <ele>16</ele>
        <time>2025-05-16T10:14:41Z</time>
      </trkpt>
      <trkpt lat="43.313268972560763" lon="3.414346966892481">
        <ele>15.52</ele>
        <time>2025-05-16T10:14:42Z</time>
      </trkpt>
      <trkpt lat="43.313384978100657" lon="3.414911990985274">
        <ele>14.56</ele>
        <time>2025-05-16T10:14:47Z</time>
      </trkpt>
      <trkpt lat="43.313426971435547" lon="3.415263025090098">
        <ele>13.6</ele>
        <time>2025-05-16T10:14:50Z</time>
      </trkpt>
      <trkpt lat="43.313444992527366" lon="3.41537400148809">
        <ele>14.08</ele>
        <time>2025-05-16T10:14:51Z</time>
      </trkpt>
      <trkpt lat="43.313573990017176" lon="3.41627798974514">
        <ele>13.6</ele>
        <time>2025-05-16T10:14:59Z</time>
      </trkpt>
      <trkpt lat="43.313749004155397" lon="3.41739596799016">
        <ele>11.67</ele>
        <time>2025-05-16T10:15:09Z</time>
      </trkpt>
      <trkpt lat="43.31379703246057" lon="3.417742978781462">
        <ele>13.119999999999999</ele>
        <time>2025-05-16T10:15:12Z</time>
      </trkpt>
      <trkpt lat="43.313810024410486" lon="3.417834006249905">
        <ele>13.6</ele>
        <time>2025-05-16T10:15:13Z</time>
      </trkpt>
      <trkpt lat="43.313825028017163" lon="3.417937019839883">
        <ele>14.08</ele>
        <time>2025-05-16T10:15:14Z</time>
      </trkpt>
      <trkpt lat="43.313860986381769" lon="3.418161990121007">
        <ele>14.56</ele>
        <time>2025-05-16T10:15:16Z</time>
      </trkpt>
      <trkpt lat="43.313878001645207" lon="3.418268021196127">
        <ele>14.56</ele>
        <time>2025-05-16T10:15:17Z</time>
      </trkpt>
      <trkpt lat="43.313895016908646" lon="3.418371034786105">
        <ele>14.56</ele>
        <time>2025-05-16T10:15:18Z</time>
      </trkpt>
      <trkpt lat="43.313921000808477" lon="3.418592987582088">
        <ele>14.08</ele>
        <time>2025-05-16T10:15:20Z</time>
      </trkpt>
      <trkpt lat="43.313931981101632" lon="3.418634980916977">
        <ele>14.08</ele>
        <time>2025-05-16T10:15:21Z</time>
      </trkpt>
      <trkpt lat="43.313946984708309" lon="3.418688960373402">
        <ele>14.08</ele>
        <time>2025-05-16T10:15:22Z</time>
      </trkpt>
      <trkpt lat="43.313965005800128" lon="3.41885601170361">
        <ele>14.08</ele>
        <time>2025-05-16T10:15:25Z</time>
      </trkpt>
      <trkpt lat="43.313970034942031" lon="3.419661009684205">
        <ele>14.08</ele>
        <time>2025-05-16T10:15:34Z</time>
      </trkpt>
      <trkpt lat="43.313963999971747" lon="3.419773997738957">
        <ele>14.08</ele>
        <time>2025-05-16T10:15:35Z</time>
      </trkpt>
      <trkpt lat="43.31396802328527" lon="3.419868964701891">
        <ele>14.08</ele>
        <time>2025-05-16T10:15:36Z</time>
      </trkpt>
      <trkpt lat="43.313972968608141" lon="3.419978013262153">
        <ele>14.56</ele>
        <time>2025-05-16T10:15:37Z</time>
      </trkpt>
      <trkpt lat="43.313977997750044" lon="3.420094018802047">
        <ele>15.52</ele>
        <time>2025-05-16T10:15:38Z</time>
      </trkpt>
      <trkpt lat="43.313983026891947" lon="3.420211030170322">
        <ele>16</ele>
        <time>2025-05-16T10:15:39Z</time>
      </trkpt>
      <trkpt lat="43.313985038548708" lon="3.420328963547945">
        <ele>16</ele>
        <time>2025-05-16T10:15:40Z</time>
      </trkpt>
      <trkpt lat="43.313985038548708" lon="3.420442035421729">
        <ele>16.48</ele>
        <time>2025-05-16T10:15:41Z</time>
      </trkpt>
      <trkpt lat="43.313985038548708" lon="3.420554017648101">
        <ele>16.48</ele>
        <time>2025-05-16T10:15:42Z</time>
      </trkpt>
      <trkpt lat="43.313985038548708" lon="3.420668011531234">
        <ele>16.960000000000001</ele>
        <time>2025-05-16T10:15:43Z</time>
      </trkpt>
      <trkpt lat="43.313993001356721" lon="3.421527994796634">
        <ele>16.960000000000001</ele>
        <time>2025-05-16T10:15:50Z</time>
      </trkpt>
      <trkpt lat="43.313996018841863" lon="3.421656992286444">
        <ele>16.960000000000001</ele>
        <time>2025-05-16T10:15:51Z</time>
      </trkpt>
      <trkpt lat="43.313999958336353" lon="3.421785989776254">
        <ele>16.960000000000001</ele>
        <time>2025-05-16T10:15:52Z</time>
      </trkpt>
      <trkpt lat="43.314006999135017" lon="3.422226961702108">
        <ele>17.920000000000002</ele>
        <time>2025-05-16T10:15:56Z</time>
      </trkpt>
      <trkpt lat="43.314006999135017" lon="3.422312960028648">
        <ele>18.399999999999999</ele>
        <time>2025-05-16T10:15:57Z</time>
      </trkpt>
      <trkpt lat="43.314028037711978" lon="3.423227006569505">
        <ele>20.809999999999999</ele>
        <time>2025-05-16T10:16:05Z</time>
      </trkpt>
      <trkpt lat="43.314028037711978" lon="3.423575023189187">
        <ele>20.809999999999999</ele>
        <time>2025-05-16T10:16:08Z</time>
      </trkpt>
      <trkpt lat="43.314028037711978" lon="3.423705026507378">
        <ele>20.32</ele>
        <time>2025-05-16T10:16:09Z</time>
      </trkpt>
      <trkpt lat="43.314028037711978" lon="3.42384098097682">
        <ele>20.32</ele>
        <time>2025-05-16T10:16:10Z</time>
      </trkpt>
      <trkpt lat="43.314049998298287" lon="3.425778960809112">
        <ele>16.48</ele>
        <time>2025-05-16T10:16:22Z</time>
      </trkpt>
      <trkpt lat="43.314062990248203" lon="3.427740996703506">
        <ele>13.6</ele>
        <time>2025-05-16T10:16:31Z</time>
      </trkpt>
      <trkpt lat="43.314094003289938" lon="3.430216005071998">
        <ele>12.15</ele>
        <time>2025-05-16T10:16:40Z</time>
      </trkpt>
      <trkpt lat="43.314126022160053" lon="3.433155035600066">
        <ele>10.23</ele>
        <time>2025-05-16T10:16:50Z</time>
      </trkpt>
      <trkpt lat="43.314172038808465" lon="3.437039963901043">
        <ele>9.27</ele>
        <time>2025-05-16T10:17:04Z</time>
      </trkpt>
      <trkpt lat="43.314220989122987" lon="3.440907038748264">
        <ele>7.35</ele>
        <time>2025-05-16T10:17:18Z</time>
      </trkpt>
      <trkpt lat="43.314273962751031" lon="3.445342993363738">
        <ele>6.87</ele>
        <time>2025-05-16T10:17:34Z</time>
      </trkpt>
      <trkpt lat="43.314330037683249" lon="3.449484994634986">
        <ele>9.75</ele>
        <time>2025-05-16T10:17:49Z</time>
      </trkpt>
      <trkpt lat="43.314357027411461" lon="3.453097008168697">
        <ele>12.630000000000001</ele>
        <time>2025-05-16T10:18:02Z</time>
      </trkpt>
      <trkpt lat="43.314392985776067" lon="3.456701980903745">
        <ele>12.15</ele>
        <time>2025-05-16T10:18:15Z</time>
      </trkpt>
      <trkpt lat="43.31442198716104" lon="3.458228996023536">
        <ele>11.67</ele>
        <time>2025-05-16T10:18:22Z</time>
      </trkpt>
      <trkpt lat="43.314443025738001" lon="3.459855001419783">
        <ele>13.119999999999999</ele>
        <time>2025-05-16T10:18:31Z</time>
      </trkpt>
      <trkpt lat="43.314468003809452" lon="3.46212599426508">
        <ele>11.19</ele>
        <time>2025-05-16T10:18:44Z</time>
      </trkpt>
      <trkpt lat="43.314469009637833" lon="3.463557958602905">
        <ele>8.789999999999999</ele>
        <time>2025-05-16T10:18:55Z</time>
      </trkpt>
      <trkpt lat="43.314454006031156" lon="3.46367203630507">
        <ele>8.789999999999999</ele>
        <time>2025-05-16T10:18:56Z</time>
      </trkpt>
      <trkpt lat="43.314435984939337" lon="3.463804973289371">
        <ele>8.789999999999999</ele>
        <time>2025-05-16T10:18:57Z</time>
      </trkpt>
      <trkpt lat="43.314417963847518" lon="3.463885020464659">
        <ele>8.310000000000001</ele>
        <time>2025-05-16T10:18:58Z</time>
      </trkpt>
      <trkpt lat="43.314394997432828" lon="3.463983004912734">
        <ele>8.310000000000001</ele>
        <time>2025-05-16T10:18:59Z</time>
      </trkpt>
      <trkpt lat="43.314243033528328" lon="3.46406196244061">
        <ele>7.83</ele>
        <time>2025-05-16T10:19:00Z</time>
      </trkpt>
      <trkpt lat="43.314210008829832" lon="3.464095992967486">
        <ele>7.83</ele>
        <time>2025-05-16T10:19:01Z</time>
      </trkpt>
      <trkpt lat="43.31414395943284" lon="3.464178973808885">
        <ele>7.35</ele>
        <time>2025-05-16T10:19:02Z</time>
      </trkpt>
      <trkpt lat="43.31409802660346" lon="3.464319035410881">
        <ele>7.35</ele>
        <time>2025-05-16T10:19:03Z</time>
      </trkpt>
      <trkpt lat="43.314124010503292" lon="3.464424982666969">
        <ele>7.35</ele>
        <time>2025-05-16T10:19:04Z</time>
      </trkpt>
      <trkpt lat="43.314189976081252" lon="3.464524978771806">
        <ele>6.87</ele>
        <time>2025-05-16T10:19:05Z</time>
      </trkpt>
      <trkpt lat="43.314243033528328" lon="3.464577030390501">
        <ele>6.87</ele>
        <time>2025-05-16T10:19:06Z</time>
      </trkpt>
      <trkpt lat="43.314372031018138" lon="3.464655987918377">
        <ele>6.39</ele>
        <time>2025-05-16T10:19:07Z</time>
      </trkpt>
      <trkpt lat="43.314403966069221" lon="3.464772999286652">
        <ele>6.39</ele>
        <time>2025-05-16T10:19:08Z</time>
      </trkpt>
      <trkpt lat="43.314432967454195" lon="3.4648999851197">
        <ele>6.39</ele>
        <time>2025-05-16T10:19:09Z</time>
      </trkpt>
      <trkpt lat="43.314458029344678" lon="3.465016996487975">
        <ele>6.39</ele>
        <time>2025-05-16T10:19:10Z</time>
      </trkpt>
      <trkpt lat="43.314504968002439" lon="3.465336011722684">
        <ele>6.39</ele>
        <time>2025-05-16T10:19:13Z</time>
      </trkpt>
      <trkpt lat="43.314521983265877" lon="3.466502018272877">
        <ele>8.310000000000001</ele>
        <time>2025-05-16T10:19:24Z</time>
      </trkpt>
      <trkpt lat="43.314521983265877" lon="3.466611988842487">
        <ele>7.83</ele>
        <time>2025-05-16T10:19:25Z</time>
      </trkpt>
      <trkpt lat="43.314521983265877" lon="3.466721037402749">
        <ele>7.83</ele>
        <time>2025-05-16T10:19:26Z</time>
      </trkpt>
      <trkpt lat="43.314521983265877" lon="3.466834025457501">
        <ele>8.310000000000001</ele>
        <time>2025-05-16T10:19:27Z</time>
      </trkpt>
      <trkpt lat="43.314521983265877" lon="3.466943996027112">
        <ele>8.310000000000001</ele>
        <time>2025-05-16T10:19:28Z</time>
      </trkpt>
      <trkpt lat="43.314521983265877" lon="3.46706603653729">
        <ele>8.310000000000001</ele>
        <time>2025-05-16T10:19:29Z</time>
      </trkpt>
      <trkpt lat="43.314521983265877" lon="3.467126972973347">
        <ele>7.83</ele>
        <time>2025-05-16T10:19:30Z</time>
      </trkpt>
      <trkpt lat="43.314521983265877" lon="3.467214982956648">
        <ele>6.87</ele>
        <time>2025-05-16T10:19:31Z</time>
      </trkpt>
      <trkpt lat="43.314548972994089" lon="3.467514971271157">
        <ele>4.46</ele>
        <time>2025-05-16T10:19:35Z</time>
      </trkpt>
      <trkpt lat="43.314574034884572" lon="3.467596024274826">
        <ele>3.98</ele>
        <time>2025-05-16T10:19:36Z</time>
      </trkpt>
      <trkpt lat="43.31457001157105" lon="3.467701971530914">
        <ele>3.5</ele>
        <time>2025-05-16T10:19:37Z</time>
      </trkpt>
      <trkpt lat="43.314629020169377" lon="3.467773972079158">
        <ele>3.5</ele>
        <time>2025-05-16T10:19:38Z</time>
      </trkpt>
      <trkpt lat="43.314670007675886" lon="3.46782099455595">
        <ele>3.02</ele>
        <time>2025-05-16T10:19:39Z</time>
      </trkpt>
      <trkpt lat="43.314716024324298" lon="3.467873968183994">
        <ele>2.54</ele>
        <time>2025-05-16T10:19:40Z</time>
      </trkpt>
      <trkpt lat="43.31476204097271" lon="3.46792702563107">
        <ele>2.06</ele>
        <time>2025-05-16T10:19:41Z</time>
      </trkpt>
      <trkpt lat="43.314814008772373" lon="3.467985028401017">
        <ele>1.58</ele>
        <time>2025-05-16T10:19:42Z</time>
      </trkpt>
      <trkpt lat="43.314866982400417" lon="3.468046970665455">
        <ele>1.1</ele>
        <time>2025-05-16T10:19:43Z</time>
      </trkpt>
      <trkpt lat="43.314918028190732" lon="3.468103967607021">
        <ele>1.1</ele>
        <time>2025-05-16T10:19:44Z</time>
      </trkpt>
      <trkpt lat="43.314965972676873" lon="3.468154007568955">
        <ele>0.14</ele>
        <time>2025-05-16T10:19:45Z</time>
      </trkpt>
      <trkpt lat="43.315014000982046" lon="3.468202035874128">
        <ele>-0.34</ele>
        <time>2025-05-16T10:19:46Z</time>
      </trkpt>
      <trkpt lat="43.3150630351156" lon="3.468251992017031">
        <ele>-0.82</ele>
        <time>2025-05-16T10:19:47Z</time>
      </trkpt>
      <trkpt lat="43.315110979601741" lon="3.468299014493823">
        <ele>-1.3</ele>
        <time>2025-05-16T10:19:48Z</time>
      </trkpt>
      <trkpt lat="43.315163031220436" lon="3.468350982293487">
        <ele>-1.3</ele>
        <time>2025-05-16T10:19:49Z</time>
      </trkpt>
      <trkpt lat="43.315212987363338" lon="3.468433041125536">
        <ele>-1.3</ele>
        <time>2025-05-16T10:19:50Z</time>
      </trkpt>
      <trkpt lat="43.315224973484874" lon="3.468533037230372">
        <ele>-1.3</ele>
        <time>2025-05-16T10:19:51Z</time>
      </trkpt>
      <trkpt lat="43.315198989585042" lon="3.468661028891802">
        <ele>-1.3</ele>
        <time>2025-05-16T10:19:52Z</time>
      </trkpt>
      <trkpt lat="43.315164037048817" lon="3.468764964491129">
        <ele>-1.3</ele>
        <time>2025-05-16T10:19:53Z</time>
      </trkpt>
      <trkpt lat="43.315122965723276" lon="3.468862026929855">
        <ele>-0.82</ele>
        <time>2025-05-16T10:19:54Z</time>
      </trkpt>
      <trkpt lat="43.314789030700922" lon="3.469693008810282">
        <ele>0.62</ele>
        <time>2025-05-16T10:20:03Z</time>
      </trkpt>
      <trkpt lat="43.314778972417116" lon="3.469787975773215">
        <ele>0.62</ele>
        <time>2025-05-16T10:20:04Z</time>
      </trkpt>
      <trkpt lat="43.314787019044161" lon="3.469885038211942">
        <ele>0.62</ele>
        <time>2025-05-16T10:20:05Z</time>
      </trkpt>
      <trkpt lat="43.31480504013598" lon="3.46999098546803">
        <ele>0.62</ele>
        <time>2025-05-16T10:20:06Z</time>
      </trkpt>
      <trkpt lat="43.314854996278882" lon="3.470072038471699">
        <ele>0.62</ele>
        <time>2025-05-16T10:20:07Z</time>
      </trkpt>
      <trkpt lat="43.314905036240816" lon="3.470153007656336">
        <ele>0.14</ele>
        <time>2025-05-16T10:20:08Z</time>
      </trkpt>
      <trkpt lat="43.31495700404048" lon="3.470236994326115">
        <ele>-0.34</ele>
        <time>2025-05-16T10:20:09Z</time>
      </trkpt>
      <trkpt lat="43.315193960443139" lon="3.470627004280686">
        <ele>-0.34</ele>
        <time>2025-05-16T10:20:14Z</time>
      </trkpt>
      <trkpt lat="43.315222961828113" lon="3.470703028142452">
        <ele>-0.82</ele>
        <time>2025-05-16T10:20:15Z</time>
      </trkpt>
      <trkpt lat="43.315249029546976" lon="3.470808975398541">
        <ele>-0.82</ele>
        <time>2025-05-16T10:20:16Z</time>
      </trkpt>
      <trkpt lat="43.315241988748312" lon="3.47089103423059">
        <ele>-1.3</ele>
        <time>2025-05-16T10:20:17Z</time>
      </trkpt>
      <trkpt lat="43.315144004300237" lon="3.471036041155458">
        <ele>-1.3</ele>
        <time>2025-05-16T10:20:18Z</time>
      </trkpt>
      <trkpt lat="43.315144004300237" lon="3.471038974821568">
        <ele>-1.79</ele>
        <time>2025-05-16T10:20:19Z</time>
      </trkpt>
      <trkpt lat="43.315124977380037" lon="3.471122961491346">
        <ele>-1.79</ele>
        <time>2025-05-16T10:20:20Z</time>
      </trkpt>
      <trkpt lat="43.31510704010725" lon="3.471203008666635">
        <ele>-2.27</ele>
        <time>2025-05-16T10:20:21Z</time>
      </trkpt>
      <trkpt lat="43.315123971551657" lon="3.471285989508033">
        <ele>-2.27</ele>
        <time>2025-05-16T10:20:22Z</time>
      </trkpt>
      <trkpt lat="43.315160013735294" lon="3.471341980621219">
        <ele>-2.27</ele>
        <time>2025-05-16T10:20:23Z</time>
      </trkpt>
      <trkpt lat="43.315207958221436" lon="3.471357990056276">
        <ele>-2.27</ele>
        <time>2025-05-16T10:20:24Z</time>
      </trkpt>
      <trkpt lat="43.315244000405073" lon="3.471465026959777">
        <ele>-2.27</ele>
        <time>2025-05-16T10:20:25Z</time>
      </trkpt>
      <trkpt lat="43.315275013446808" lon="3.471556976437569">
        <ele>-2.27</ele>
        <time>2025-05-16T10:20:26Z</time>
      </trkpt>
      <trkpt lat="43.315312983468175" lon="3.47164498642087">
        <ele>-2.27</ele>
        <time>2025-05-16T10:20:27Z</time>
      </trkpt>
      <trkpt lat="43.315351037308574" lon="3.47173199057579">
        <ele>-2.27</ele>
        <time>2025-05-16T10:20:28Z</time>
      </trkpt>
      <trkpt lat="43.31538800150156" lon="3.471818994730711">
        <ele>-2.27</ele>
        <time>2025-05-16T10:20:29Z</time>
      </trkpt>
      <trkpt lat="43.315424965694547" lon="3.471907004714012">
        <ele>-1.79</ele>
        <time>2025-05-16T10:20:30Z</time>
      </trkpt>
      <trkpt lat="43.315463019534945" lon="3.471995014697313">
        <ele>-1.79</ele>
        <time>2025-05-16T10:20:31Z</time>
      </trkpt>
      <trkpt lat="43.315500989556313" lon="3.472084030508995">
        <ele>-1.3</ele>
        <time>2025-05-16T10:20:32Z</time>
      </trkpt>
      <trkpt lat="43.31553996540606" lon="3.472177991643548">
        <ele>-0.82</ele>
        <time>2025-05-16T10:20:33Z</time>
      </trkpt>
      <trkpt lat="43.315758984535933" lon="3.472707979381084">
        <ele>1.58</ele>
        <time>2025-05-16T10:20:39Z</time>
      </trkpt>
      <trkpt lat="43.315825033932924" lon="3.472883999347687">
        <ele>1.1</ele>
        <time>2025-05-16T10:20:41Z</time>
      </trkpt>
      <trkpt lat="43.315853029489517" lon="3.472971003502607">
        <ele>1.1</ele>
        <time>2025-05-16T10:20:42Z</time>
      </trkpt>
      <trkpt lat="43.31603198312223" lon="3.473511971533299">
        <ele>0.62</ele>
        <time>2025-05-16T10:20:48Z</time>
      </trkpt>
      <trkpt lat="43.316112030297518" lon="3.474027961492539">
        <ele>-0.34</ele>
        <time>2025-05-16T10:20:53Z</time>
      </trkpt>
      <trkpt lat="43.316128039732575" lon="3.474130975082517">
        <ele>-0.82</ele>
        <time>2025-05-16T10:20:54Z</time>
      </trkpt>
      <trkpt lat="43.316142959520221" lon="3.474236000329256">
        <ele>-1.3</ele>
        <time>2025-05-16T10:20:55Z</time>
      </trkpt>
      <trkpt lat="43.316156035289168" lon="3.474332978948951">
        <ele>-1.79</ele>
        <time>2025-05-16T10:20:56Z</time>
      </trkpt>
      <trkpt lat="43.316169027239084" lon="3.474430963397026">
        <ele>-1.79</ele>
        <time>2025-05-16T10:20:57Z</time>
      </trkpt>
      <trkpt lat="43.316191993653774" lon="3.47463003359735">
        <ele>-2.75</ele>
        <time>2025-05-16T10:20:59Z</time>
      </trkpt>
      <trkpt lat="43.316230969503522" lon="3.47471795976162">
        <ele>-3.23</ele>
        <time>2025-05-16T10:21:00Z</time>
      </trkpt>
      <trkpt lat="43.316276986151934" lon="3.474790966138244">
        <ele>-3.23</ele>
        <time>2025-05-16T10:21:01Z</time>
      </trkpt>
      <trkpt lat="43.316326020285487" lon="3.47486699000001">
        <ele>-3.71</ele>
        <time>2025-05-16T10:21:02Z</time>
      </trkpt>
      <trkpt lat="43.316372036933899" lon="3.474971009418368">
        <ele>-3.71</ele>
        <time>2025-05-16T10:21:03Z</time>
      </trkpt>
      <trkpt lat="43.316453006118536" lon="3.474898003041744">
        <ele>-3.71</ele>
        <time>2025-05-16T10:21:04Z</time>
      </trkpt>
      <trkpt lat="43.316518971696496" lon="3.474913006648421">
        <ele>-3.23</ele>
        <time>2025-05-16T10:21:05Z</time>
      </trkpt>
      <trkpt lat="43.316596001386642" lon="3.47493002191186">
        <ele>-2.75</ele>
        <time>2025-05-16T10:21:06Z</time>
      </trkpt>
      <trkpt lat="43.316680993884802" lon="3.474951982498169">
        <ele>-2.75</ele>
        <time>2025-05-16T10:21:07Z</time>
      </trkpt>
      <trkpt lat="43.316771015524864" lon="3.474977966398001">
        <ele>-2.27</ele>
        <time>2025-05-16T10:21:08Z</time>
      </trkpt>
      <trkpt lat="43.317311983555555" lon="3.475149041041732">
        <ele>-1.3</ele>
        <time>2025-05-16T10:21:14Z</time>
      </trkpt>
      <trkpt lat="43.317405022680759" lon="3.475179970264435">
        <ele>-1.3</ele>
        <time>2025-05-16T10:21:15Z</time>
      </trkpt>
      <trkpt lat="43.317505018785596" lon="3.475209977477789">
        <ele>-0.82</ele>
        <time>2025-05-16T10:21:16Z</time>
      </trkpt>
      <trkpt lat="43.317598979920149" lon="3.475235039368272">
        <ele>-1.3</ele>
        <time>2025-05-16T10:21:17Z</time>
      </trkpt>
      <trkpt lat="43.317685984075069" lon="3.475260017439723">
        <ele>-1.3</ele>
        <time>2025-05-16T10:21:18Z</time>
      </trkpt>
      <trkpt lat="43.317763013765216" lon="3.475281978026032">
        <ele>-1.3</ele>
        <time>2025-05-16T10:21:19Z</time>
      </trkpt>
      <trkpt lat="43.317956971004605" lon="3.475338974967599">
        <ele>-1.79</ele>
        <time>2025-05-16T10:21:22Z</time>
      </trkpt>
      <trkpt lat="43.318011034280062" lon="3.475355990231037">
        <ele>-1.79</ele>
        <time>2025-05-16T10:21:23Z</time>
      </trkpt>
      <trkpt lat="43.318257965147495" lon="3.475431008264422">
        <ele>-2.75</ele>
        <time>2025-05-16T10:21:28Z</time>
      </trkpt>
      <trkpt lat="43.318343963474035" lon="3.475457997992635">
        <ele>-3.71</ele>
        <time>2025-05-16T10:21:35Z</time>
      </trkpt>
      <trkpt lat="43.318366007879376" lon="3.475464032962918">
        <ele>-3.23</ele>
        <time>2025-05-16T10:21:48Z</time>
      </trkpt>
      <trkpt lat="43.318712012842298" lon="3.47557601518929">
        <ele>0.14</ele>
        <time>2025-05-16T10:21:58Z</time>
      </trkpt>
      <trkpt lat="43.319314001128078" lon="3.475762009620667">
        <ele>0.62</ele>
        <time>2025-05-16T10:22:04Z</time>
      </trkpt>
      <trkpt lat="43.320418987423182" lon="3.476121006533504">
        <ele>-0.82</ele>
        <time>2025-05-16T10:22:12Z</time>
      </trkpt>
      <trkpt lat="43.321770988404751" lon="3.476725006476045">
        <ele>5.42</ele>
        <time>2025-05-16T10:22:21Z</time>
      </trkpt>
      <trkpt lat="43.323179986327887" lon="3.477665958926082">
        <ele>7.35</ele>
        <time>2025-05-16T10:22:30Z</time>
      </trkpt>
      <trkpt lat="43.324624020606279" lon="3.47879902459681">
        <ele>7.83</ele>
        <time>2025-05-16T10:22:39Z</time>
      </trkpt>
      <trkpt lat="43.325961017981172" lon="3.479899987578392">
        <ele>13.6</ele>
        <time>2025-05-16T10:22:48Z</time>
      </trkpt>
      <trkpt lat="43.326065959408879" lon="3.480019010603428">
        <ele>14.08</ele>
        <time>2025-05-16T10:22:49Z</time>
      </trkpt>
      <trkpt lat="43.326138965785503" lon="3.480140967294574">
        <ele>14.56</ele>
        <time>2025-05-16T10:22:50Z</time>
      </trkpt>
      <trkpt lat="43.32619696855545" lon="3.480264013633132">
        <ele>15.039999999999999</ele>
        <time>2025-05-16T10:22:51Z</time>
      </trkpt>
      <trkpt lat="43.326242985203862" lon="3.48038898780942">
        <ele>15.039999999999999</ele>
        <time>2025-05-16T10:22:52Z</time>
      </trkpt>
      <trkpt lat="43.3262790273875" lon="3.480525026097894">
        <ele>15.039999999999999</ele>
        <time>2025-05-16T10:22:53Z</time>
      </trkpt>
      <trkpt lat="43.326508020982146" lon="3.48144100047648">
        <ele>12.630000000000001</ele>
        <time>2025-05-16T10:23:00Z</time>
      </trkpt>
      <trkpt lat="43.3265380281955" lon="3.48154996521771">
        <ele>12.15</ele>
        <time>2025-05-16T10:23:01Z</time>
      </trkpt>
      <trkpt lat="43.326548002660275" lon="3.481641998514533">
        <ele>12.15</ele>
        <time>2025-05-16T10:23:02Z</time>
      </trkpt>
      <trkpt lat="43.32647399045527" lon="3.48182899877429">
        <ele>11.67</ele>
        <time>2025-05-16T10:23:03Z</time>
      </trkpt>
      <trkpt lat="43.32647399045527" lon="3.481835033744574">
        <ele>11.67</ele>
        <time>2025-05-16T10:23:04Z</time>
      </trkpt>
      <trkpt lat="43.326482037082314" lon="3.48193502984941">
        <ele>11.67</ele>
        <time>2025-05-16T10:23:05Z</time>
      </trkpt>
      <trkpt lat="43.326514977961779" lon="3.482010969892144">
        <ele>11.67</ele>
        <time>2025-05-16T10:23:06Z</time>
      </trkpt>
      <trkpt lat="43.32658002153039" lon="3.48208598792553">
        <ele>11.67</ele>
        <time>2025-05-16T10:23:07Z</time>
      </trkpt>
      <trkpt lat="43.32662402652204" lon="3.482108032330871">
        <ele>11.67</ele>
        <time>2025-05-16T10:23:08Z</time>
      </trkpt>
      <trkpt lat="43.326756963506341" lon="3.482024967670441">
        <ele>11.67</ele>
        <time>2025-05-16T10:23:09Z</time>
      </trkpt>
      <trkpt lat="43.326832987368107" lon="3.482069978490472">
        <ele>11.67</ele>
        <time>2025-05-16T10:23:10Z</time>
      </trkpt>
      <trkpt lat="43.326914040371776" lon="3.482153965160251">
        <ele>12.15</ele>
        <time>2025-05-16T10:23:11Z</time>
      </trkpt>
      <trkpt lat="43.326988974586129" lon="3.482248010113835">
        <ele>12.630000000000001</ele>
        <time>2025-05-16T10:23:12Z</time>
      </trkpt>
      <trkpt lat="43.327820040285587" lon="3.483186028897762">
        <ele>13.119999999999999</ele>
        <time>2025-05-16T10:23:21Z</time>
      </trkpt>
      <trkpt lat="43.327984996140003" lon="3.483361965045333">
        <ele>12.630000000000001</ele>
        <time>2025-05-16T10:23:23Z</time>
      </trkpt>
      <trkpt lat="43.328064037486911" lon="3.483446035534143">
        <ele>12.630000000000001</ele>
        <time>2025-05-16T10:23:24Z</time>
      </trkpt>
      <trkpt lat="43.328903988003731" lon="3.484336026012898">
        <ele>11.67</ele>
        <time>2025-05-16T10:23:33Z</time>
      </trkpt>
      <trkpt lat="43.329763971269131" lon="3.485290976241231">
        <ele>11.19</ele>
        <time>2025-05-16T10:23:41Z</time>
      </trkpt>
      <trkpt lat="43.330969959497452" lon="3.486634008586407">
        <ele>12.15</ele>
        <time>2025-05-16T10:23:50Z</time>
      </trkpt>
      <trkpt lat="43.332004034891725" lon="3.487771013751626">
        <ele>14.56</ele>
        <time>2025-05-16T10:23:57Z</time>
      </trkpt>
      <trkpt lat="43.332902994006872" lon="3.488758988678455">
        <ele>17.920000000000002</ele>
        <time>2025-05-16T10:24:02Z</time>
      </trkpt>
      <trkpt lat="43.334328001365066" lon="3.490322967991233">
        <ele>23.690000000000001</ele>
        <time>2025-05-16T10:24:09Z</time>
      </trkpt>
      <trkpt lat="43.335547987371683" lon="3.491844031959772">
        <ele>24.170000000000002</ele>
        <time>2025-05-16T10:24:17Z</time>
      </trkpt>
      <trkpt lat="43.338139001280069" lon="3.495334004983306">
        <ele>14.56</ele>
        <time>2025-05-16T10:24:35Z</time>
      </trkpt>
      <trkpt lat="43.340435978025198" lon="3.498430028557777">
        <ele>12.630000000000001</ele>
        <time>2025-05-16T10:24:51Z</time>
      </trkpt>
      <trkpt lat="43.341889986768365" lon="3.500375971198082">
        <ele>14.08</ele>
        <time>2025-05-16T10:25:01Z</time>
      </trkpt>
      <trkpt lat="43.344046985730529" lon="3.503282982856035">
        <ele>13.6</ele>
        <time>2025-05-16T10:25:16Z</time>
      </trkpt>
      <trkpt lat="43.346357960253954" lon="3.506381018087268">
        <ele>16.960000000000001</ele>
        <time>2025-05-16T10:25:32Z</time>
      </trkpt>
      <trkpt lat="43.348512025550008" lon="3.509295992553234">
        <ele>19.359999999999999</ele>
        <time>2025-05-16T10:25:47Z</time>
      </trkpt>
      <trkpt lat="43.350745970383286" lon="3.512524031102657">
        <ele>22.73</ele>
        <time>2025-05-16T10:26:03Z</time>
      </trkpt>
      <trkpt lat="43.352150022983551" lon="3.515039021149278">
        <ele>16.960000000000001</ele>
        <time>2025-05-16T10:26:15Z</time>
      </trkpt>
      <trkpt lat="43.352452022954822" lon="3.515601027756929">
        <ele>14.08</ele>
        <time>2025-05-16T10:26:21Z</time>
      </trkpt>
      <trkpt lat="43.352890983223915" lon="3.516423963010311">
        <ele>13.119999999999999</ele>
        <time>2025-05-16T10:26:28Z</time>
      </trkpt>
      <trkpt lat="43.35341895930469" lon="3.517434988170862">
        <ele>11.67</ele>
        <time>2025-05-16T10:26:37Z</time>
      </trkpt>
      <trkpt lat="43.353937966749072" lon="3.518368983641267">
        <ele>11.19</ele>
        <time>2025-05-16T10:26:45Z</time>
      </trkpt>
      <trkpt lat="43.354786969721317" lon="3.51990002207458">
        <ele>9.75</ele>
        <time>2025-05-16T10:26:57Z</time>
      </trkpt>
      <trkpt lat="43.354996014386415" lon="3.520401008427143">
        <ele>8.310000000000001</ele>
        <time>2025-05-16T10:27:01Z</time>
      </trkpt>
      <trkpt lat="43.355033984407783" lon="3.520495975390077">
        <ele>8.310000000000001</ele>
        <time>2025-05-16T10:27:02Z</time>
      </trkpt>
      <trkpt lat="43.35504999384284" lon="3.520579040050507">
        <ele>7.83</ele>
        <time>2025-05-16T10:27:03Z</time>
      </trkpt>
      <trkpt lat="43.355076983571053" lon="3.520710971206427">
        <ele>7.83</ele>
        <time>2025-05-16T10:27:04Z</time>
      </trkpt>
      <trkpt lat="43.355072038248181" lon="3.520746007561684">
        <ele>7.83</ele>
        <time>2025-05-16T10:27:05Z</time>
      </trkpt>
      <trkpt lat="43.355055022984743" lon="3.520861007273197">
        <ele>7.35</ele>
        <time>2025-05-16T10:27:06Z</time>
      </trkpt>
      <trkpt lat="43.355072038248181" lon="3.520919010043144">
        <ele>7.83</ele>
        <time>2025-05-16T10:27:07Z</time>
      </trkpt>
      <trkpt lat="43.355098022148013" lon="3.521010959520936">
        <ele>7.83</ele>
        <time>2025-05-16T10:27:08Z</time>
      </trkpt>
      <trkpt lat="43.355098022148013" lon="3.521010959520936">
        <ele>7.83</ele>
        <time>2025-05-16T10:27:09Z</time>
      </trkpt>
      <trkpt lat="43.355233976617455" lon="3.521165018901229">
        <ele>7.35</ele>
        <time>2025-05-16T10:27:10Z</time>
      </trkpt>
      <trkpt lat="43.35524101741612" lon="3.521259985864162">
        <ele>7.35</ele>
        <time>2025-05-16T10:27:11Z</time>
      </trkpt>
      <trkpt lat="43.355247974395752" lon="3.521355958655477">
        <ele>6.87</ele>
        <time>2025-05-16T10:27:12Z</time>
      </trkpt>
      <trkpt lat="43.355294996872544" lon="3.521977979689837">
        <ele>4.94</ele>
        <time>2025-05-16T10:27:19Z</time>
      </trkpt>
      <trkpt lat="43.355302037671208" lon="3.522071018815041">
        <ele>4.46</ele>
        <time>2025-05-16T10:27:20Z</time>
      </trkpt>
      <trkpt lat="43.355308994650841" lon="3.522164979949594">
        <ele>3.98</ele>
        <time>2025-05-16T10:27:21Z</time>
      </trkpt>
      <trkpt lat="43.355316035449505" lon="3.522261958569288">
        <ele>3.5</ele>
        <time>2025-05-16T10:27:22Z</time>
      </trkpt>
      <trkpt lat="43.355325004085898" lon="3.522375030443072">
        <ele>3.02</ele>
        <time>2025-05-16T10:27:23Z</time>
      </trkpt>
      <trkpt lat="43.355331961065531" lon="3.522481983527541">
        <ele>2.54</ele>
        <time>2025-05-16T10:27:24Z</time>
      </trkpt>
      <trkpt lat="43.355340007692575" lon="3.5225860029459">
        <ele>1.1</ele>
        <time>2025-05-16T10:27:25Z</time>
      </trkpt>
      <trkpt lat="43.355348976328969" lon="3.522705025970936">
        <ele>0.62</ele>
        <time>2025-05-16T10:27:26Z</time>
      </trkpt>
      <trkpt lat="43.355359034612775" lon="3.522831005975604">
        <ele>0.14</ele>
        <time>2025-05-16T10:27:27Z</time>
      </trkpt>
      <trkpt lat="43.35537102073431" lon="3.522956985980272">
        <ele>-0.34</ele>
        <time>2025-05-16T10:27:28Z</time>
      </trkpt>
      <trkpt lat="43.355382001027465" lon="3.523087995126844">
        <ele>-0.82</ele>
        <time>2025-05-16T10:27:29Z</time>
      </trkpt>
      <trkpt lat="43.355419971048832" lon="3.523607002571225">
        <ele>-1.3</ele>
        <time>2025-05-16T10:27:33Z</time>
      </trkpt>
      <trkpt lat="43.355432962998748" lon="3.523839013651013">
        <ele>-2.27</ele>
        <time>2025-05-16T10:27:35Z</time>
      </trkpt>
      <trkpt lat="43.355440003797412" lon="3.523970022797585">
        <ele>-3.23</ele>
        <time>2025-05-16T10:27:36Z</time>
      </trkpt>
      <trkpt lat="43.355442015454173" lon="3.524097008630633">
        <ele>-3.23</ele>
        <time>2025-05-16T10:27:37Z</time>
      </trkpt>
      <trkpt lat="43.355442015454173" lon="3.524213014170528">
        <ele>-3.71</ele>
        <time>2025-05-16T10:27:38Z</time>
      </trkpt>
      <trkpt lat="43.355449978262186" lon="3.52432700805366">
        <ele>-4.19</ele>
        <time>2025-05-16T10:27:39Z</time>
      </trkpt>
      <trkpt lat="43.355533964931965" lon="3.52524901740253">
        <ele>-7.55</ele>
        <time>2025-05-16T10:27:48Z</time>
      </trkpt>
      <trkpt lat="43.355576964095235" lon="3.52587103843689">
        <ele>-7.55</ele>
        <time>2025-05-16T10:27:54Z</time>
      </trkpt>
      <trkpt lat="43.355584004893899" lon="3.525971034541726">
        <ele>-6.59</ele>
        <time>2025-05-16T10:27:55Z</time>
      </trkpt>
      <trkpt lat="43.355590039864182" lon="3.526061978191137">
        <ele>-5.63</ele>
        <time>2025-05-16T10:27:56Z</time>
      </trkpt>
      <trkpt lat="43.355625998228788" lon="3.526563970372081">
        <ele>0.14</ele>
        <time>2025-05-16T10:28:02Z</time>
      </trkpt>
      <trkpt lat="43.355632033199072" lon="3.526638988405466">
        <ele>1.58</ele>
        <time>2025-05-16T10:28:03Z</time>
      </trkpt>
      <trkpt lat="43.355637984350324" lon="3.526716018095613">
        <ele>2.54</ele>
        <time>2025-05-16T10:28:04Z</time>
      </trkpt>
      <trkpt lat="43.355644019320607" lon="3.52679698728025">
        <ele>3.5</ele>
        <time>2025-05-16T10:28:05Z</time>
      </trkpt>
      <trkpt lat="43.355649970471859" lon="3.526879968121648">
        <ele>4.94</ele>
        <time>2025-05-16T10:28:06Z</time>
      </trkpt>
      <trkpt lat="43.355656005442142" lon="3.526954986155033">
        <ele>5.91</ele>
        <time>2025-05-16T10:28:07Z</time>
      </trkpt>
      <trkpt lat="43.355656005442142" lon="3.52703201584518">
        <ele>6.87</ele>
        <time>2025-05-16T10:28:08Z</time>
      </trkpt>
      <trkpt lat="43.355656005442142" lon="3.527105022221804">
        <ele>7.83</ele>
        <time>2025-05-16T10:28:09Z</time>
      </trkpt>
      <trkpt lat="43.355656005442142" lon="3.527178028598428">
        <ele>8.789999999999999</ele>
        <time>2025-05-16T10:28:10Z</time>
      </trkpt>
      <trkpt lat="43.355631027370691" lon="3.527235025539994">
        <ele>10.23</ele>
        <time>2025-05-16T10:28:11Z</time>
      </trkpt>
      <trkpt lat="43.355602025985718" lon="3.527285987511277">
        <ele>11.19</ele>
        <time>2025-05-16T10:28:12Z</time>
      </trkpt>
      <trkpt lat="43.355579981580377" lon="3.527323035523295">
        <ele>12.15</ele>
        <time>2025-05-16T10:28:13Z</time>
      </trkpt>
      <trkpt lat="43.355528013780713" lon="3.527372991666198">
        <ele>15.039999999999999</ele>
        <time>2025-05-16T10:28:21Z</time>
      </trkpt>
      <trkpt lat="43.355293991044164" lon="3.527552029117942">
        <ele>19.359999999999999</ele>
        <time>2025-05-16T10:28:29Z</time>
      </trkpt>
      <trkpt lat="43.355147978290915" lon="3.52765797637403">
        <ele>18.879999999999999</ele>
        <time>2025-05-16T10:28:33Z</time>
      </trkpt>
      <trkpt lat="43.355141021311283" lon="3.527663005515933">
        <ele>18.399999999999999</ele>
        <time>2025-05-16T10:28:34Z</time>
      </trkpt>
      <trkpt lat="43.355076983571053" lon="3.527749003842473">
        <ele>17.440000000000001</ele>
        <time>2025-05-16T10:28:36Z</time>
      </trkpt>
      <trkpt lat="43.354990985244513" lon="3.527833996340632">
        <ele>17.440000000000001</ele>
        <time>2025-05-16T10:28:37Z</time>
      </trkpt>
      <trkpt lat="43.3549830224365" lon="3.527847994118929">
        <ele>16.960000000000001</ele>
        <time>2025-05-16T10:28:38Z</time>
      </trkpt>
      <trkpt lat="43.354858970269561" lon="3.528167009353638">
        <ele>16.48</ele>
        <time>2025-05-16T10:28:43Z</time>
      </trkpt>
      <trkpt lat="43.354839021340013" lon="3.528234986588359">
        <ele>16</ele>
        <time>2025-05-16T10:28:44Z</time>
      </trkpt>
      <trkpt lat="43.354796022176743" lon="3.528380999341607">
        <ele>15.039999999999999</ele>
        <time>2025-05-16T10:28:46Z</time>
      </trkpt>
      <trkpt lat="43.35477096028626" lon="3.528461968526244">
        <ele>15.039999999999999</ele>
        <time>2025-05-16T10:28:47Z</time>
      </trkpt>
      <trkpt lat="43.354542972519994" lon="3.529372997581959">
        <ele>11.67</ele>
        <time>2025-05-16T10:28:58Z</time>
      </trkpt>
      <trkpt lat="43.354540038853884" lon="3.529400993138552">
        <ele>11.19</ele>
        <time>2025-05-16T10:28:59Z</time>
      </trkpt>
      <trkpt lat="43.354476001113653" lon="3.529508030042052">
        <ele>10.710000000000001</ele>
        <time>2025-05-16T10:29:00Z</time>
      </trkpt>
      <trkpt lat="43.354497039690614" lon="3.529561003670096">
        <ele>10.23</ele>
        <time>2025-05-16T10:29:01Z</time>
      </trkpt>
      <trkpt lat="43.354519000276923" lon="3.529614983126521">
        <ele>9.75</ele>
        <time>2025-05-16T10:29:02Z</time>
      </trkpt>
      <trkpt lat="43.354558981955051" lon="3.529591010883451">
        <ele>9.75</ele>
        <time>2025-05-16T10:29:03Z</time>
      </trkpt>
      <trkpt lat="43.35459703579545" lon="3.529568966478109">
        <ele>9.27</ele>
        <time>2025-05-16T10:29:04Z</time>
      </trkpt>
      <trkpt lat="43.3546859677881" lon="3.529584975913167">
        <ele>9.27</ele>
        <time>2025-05-16T10:29:05Z</time>
      </trkpt>
      <trkpt lat="43.35472896695137" lon="3.52961003780365">
        <ele>8.789999999999999</ele>
        <time>2025-05-16T10:29:06Z</time>
      </trkpt>
      <trkpt lat="43.354871040210128" lon="3.529674997553229">
        <ele>7.83</ele>
        <time>2025-05-16T10:29:09Z</time>
      </trkpt>
      <trkpt lat="43.35492099635303" lon="3.529694024473429">
        <ele>7.83</ele>
        <time>2025-05-16T10:29:10Z</time>
      </trkpt>
      <trkpt lat="43.354972964152694" lon="3.529714979231358">
        <ele>7.35</ele>
        <time>2025-05-16T10:29:11Z</time>
      </trkpt>
      <trkpt lat="43.355829007923603" lon="3.530052015557885">
        <ele>6.39</ele>
        <time>2025-05-16T10:29:25Z</time>
      </trkpt>
      <trkpt lat="43.356026988476515" lon="3.530129967257381">
        <ele>6.39</ele>
        <time>2025-05-16T10:29:28Z</time>
      </trkpt>
      <trkpt lat="43.356831986457109" lon="3.530436996370554">
        <ele>8.310000000000001</ele>
        <time>2025-05-16T10:29:40Z</time>
      </trkpt>
      <trkpt lat="43.357266001403332" lon="3.530580997467041">
        <ele>8.310000000000001</ele>
        <time>2025-05-16T10:29:47Z</time>
      </trkpt>
      <trkpt lat="43.357360968366265" lon="3.530520983040333">
        <ele>8.789999999999999</ele>
        <time>2025-05-16T10:29:48Z</time>
      </trkpt>
      <trkpt lat="43.357422994449735" lon="3.530483013018966">
        <ele>9.27</ele>
        <time>2025-05-16T10:29:49Z</time>
      </trkpt>
      <trkpt lat="43.357464987784624" lon="3.530435990542173">
        <ele>9.75</ele>
        <time>2025-05-16T10:29:50Z</time>
      </trkpt>
      <trkpt lat="43.357506981119514" lon="3.530374970287085">
        <ele>10.23</ele>
        <time>2025-05-16T10:29:51Z</time>
      </trkpt>
      <trkpt lat="43.357538999989629" lon="3.530301963910461">
        <ele>10.710000000000001</ele>
        <time>2025-05-16T10:29:52Z</time>
      </trkpt>
      <trkpt lat="43.357569007202983" lon="3.530232980847359">
        <ele>10.710000000000001</ele>
        <time>2025-05-16T10:29:53Z</time>
      </trkpt>
      <trkpt lat="43.357598008587956" lon="3.530166009441018">
        <ele>11.19</ele>
        <time>2025-05-16T10:29:54Z</time>
      </trkpt>
      <trkpt lat="43.357802024111152" lon="3.529700981453061">
        <ele>12.15</ele>
        <time>2025-05-16T10:30:01Z</time>
      </trkpt>
      <trkpt lat="43.357822978869081" lon="3.529614983126521">
        <ele>13.119999999999999</ele>
        <time>2025-05-16T10:30:03Z</time>
      </trkpt>
      <trkpt lat="43.357921969145536" lon="3.529614983126521">
        <ele>13.119999999999999</ele>
        <time>2025-05-16T10:30:04Z</time>
      </trkpt>
      <trkpt lat="43.357973014935851" lon="3.529614983126521">
        <ele>13.119999999999999</ele>
        <time>2025-05-16T10:30:05Z</time>
      </trkpt>
      <trkpt lat="43.358020037412643" lon="3.529639961197972">
        <ele>13.119999999999999</ele>
        <time>2025-05-16T10:30:06Z</time>
      </trkpt>
      <trkpt lat="43.358089020475745" lon="3.529677009209991">
        <ele>13.119999999999999</ele>
        <time>2025-05-16T10:30:07Z</time>
      </trkpt>
      <trkpt lat="43.358571985736489" lon="3.529935004189611">
        <ele>12.15</ele>
        <time>2025-05-16T10:30:14Z</time>
      </trkpt>
      <trkpt lat="43.358632000163198" lon="3.529967023059726">
        <ele>12.15</ele>
        <time>2025-05-16T10:30:15Z</time>
      </trkpt>
      <trkpt lat="43.35887398570776" lon="3.530095014721155">
        <ele>12.15</ele>
        <time>2025-05-16T10:30:19Z</time>
      </trkpt>
      <trkpt lat="43.358939029276371" lon="3.530130973085761">
        <ele>12.630000000000001</ele>
        <time>2025-05-16T10:30:20Z</time>
      </trkpt>
      <trkpt lat="43.358997032046318" lon="3.530175983905792">
        <ele>12.630000000000001</ele>
        <time>2025-05-16T10:30:21Z</time>
      </trkpt>
      <trkpt lat="43.35904598236084" lon="3.530215965583921">
        <ele>12.630000000000001</ele>
        <time>2025-05-16T10:30:22Z</time>
      </trkpt>
      <trkpt lat="43.359076995402575" lon="3.530361978337169">
        <ele>12.630000000000001</ele>
        <time>2025-05-16T10:30:23Z</time>
      </trkpt>
      <trkpt lat="43.359156036749482" lon="3.530306993052363">
        <ele>13.119999999999999</ele>
        <time>2025-05-16T10:30:24Z</time>
      </trkpt>
      <trkpt lat="43.359231976792216" lon="3.530321996659041">
        <ele>13.119999999999999</ele>
        <time>2025-05-16T10:30:25Z</time>
      </trkpt>
      <trkpt lat="43.359315041452646" lon="3.530338006094098">
        <ele>13.6</ele>
        <time>2025-05-16T10:30:26Z</time>
      </trkpt>
      <trkpt lat="43.359402967616916" lon="3.530356027185917">
        <ele>14.08</ele>
        <time>2025-05-16T10:30:27Z</time>
      </trkpt>
      <trkpt lat="43.360370993614197" lon="3.530558031052351">
        <ele>17.920000000000002</ele>
        <time>2025-05-16T10:30:37Z</time>
      </trkpt>
      <trkpt lat="43.360973987728357" lon="3.530626008287072">
        <ele>21.289999999999999</ele>
        <time>2025-05-16T10:30:45Z</time>
      </trkpt>
      <trkpt lat="43.361084964126348" lon="3.530637994408608">
        <ele>21.77</ele>
        <time>2025-05-16T10:30:46Z</time>
      </trkpt>
      <trkpt lat="43.362201014533639" lon="3.53060002438724">
        <ele>21.289999999999999</ele>
        <time>2025-05-16T10:30:53Z</time>
      </trkpt>
      <trkpt lat="43.364324988797307" lon="3.530502039939165">
        <ele>16.960000000000001</ele>
        <time>2025-05-16T10:31:05Z</time>
      </trkpt>
      <trkpt lat="43.365912018343806" lon="3.530753999948502">
        <ele>15.039999999999999</ele>
        <time>2025-05-16T10:31:16Z</time>
      </trkpt>
      <trkpt lat="43.367065032944083" lon="3.531173011288047">
        <ele>13.6</ele>
        <time>2025-05-16T10:31:22Z</time>
      </trkpt>
      <trkpt lat="43.368839984759688" lon="3.531830990687013">
        <ele>12.15</ele>
        <time>2025-05-16T10:31:31Z</time>
      </trkpt>
      <trkpt lat="43.371230000630021" lon="3.532704971730709">
        <ele>11.67</ele>
        <time>2025-05-16T10:31:45Z</time>
      </trkpt>
      <trkpt lat="43.373887985944748" lon="3.533553974702954">
        <ele>21.289999999999999</ele>
        <time>2025-05-16T10:31:59Z</time>
      </trkpt>
      <trkpt lat="43.376888958737254" lon="3.53429401293397">
        <ele>23.690000000000001</ele>
        <time>2025-05-16T10:32:14Z</time>
      </trkpt>
      <trkpt lat="43.379482990130782" lon="3.534934977069497">
        <ele>18.399999999999999</ele>
        <time>2025-05-16T10:32:27Z</time>
      </trkpt>
      <trkpt lat="43.383247973397374" lon="3.535861009731889">
        <ele>10.710000000000001</ele>
        <time>2025-05-16T10:32:46Z</time>
      </trkpt>
      <trkpt lat="43.386023975908756" lon="3.536544973030686">
        <ele>8.789999999999999</ele>
        <time>2025-05-16T10:33:00Z</time>
      </trkpt>
      <trkpt lat="43.389183031395078" lon="3.53730596601963">
        <ele>16.48</ele>
        <time>2025-05-16T10:33:16Z</time>
      </trkpt>
      <trkpt lat="43.391206003725529" lon="3.537761019542813">
        <ele>22.25</ele>
        <time>2025-05-16T10:33:26Z</time>
      </trkpt>
      <trkpt lat="43.393823001533747" lon="3.538158992305398">
        <ele>20.32</ele>
        <time>2025-05-16T10:33:39Z</time>
      </trkpt>
      <trkpt lat="43.396831015124917" lon="3.538602981716394">
        <ele>16.48</ele>
        <time>2025-05-16T10:33:54Z</time>
      </trkpt>
      <trkpt lat="43.399085998535156" lon="3.538930965587497">
        <ele>18.879999999999999</ele>
        <time>2025-05-16T10:34:06Z</time>
      </trkpt>
      <trkpt lat="43.400541013106704" lon="3.539145961403847">
        <ele>20.32</ele>
        <time>2025-05-16T10:34:15Z</time>
      </trkpt>
      <trkpt lat="43.402607990428805" lon="3.539566984400153">
        <ele>15.039999999999999</ele>
        <time>2025-05-16T10:34:27Z</time>
      </trkpt>
      <trkpt lat="43.404042972251773" lon="3.540194034576416">
        <ele>12.15</ele>
        <time>2025-05-16T10:34:36Z</time>
      </trkpt>
      <trkpt lat="43.406331986188889" lon="3.541267002001405">
        <ele>10.23</ele>
        <time>2025-05-16T10:34:49Z</time>
      </trkpt>
      <trkpt lat="43.40833299793303" lon="3.542212983593345">
        <ele>12.15</ele>
        <time>2025-05-16T10:35:00Z</time>
      </trkpt>
      <trkpt lat="43.411411000415683" lon="3.543656012043357">
        <ele>17.440000000000001</ele>
        <time>2025-05-16T10:35:17Z</time>
      </trkpt>
      <trkpt lat="43.412675997242332" lon="3.544240985065699">
        <ele>20.32</ele>
        <time>2025-05-16T10:35:25Z</time>
      </trkpt>
      <trkpt lat="43.414581958204508" lon="3.545160982757807">
        <ele>21.289999999999999</ele>
        <time>2025-05-16T10:35:36Z</time>
      </trkpt>
      <trkpt lat="43.416017023846507" lon="3.545913007110357">
        <ele>20.809999999999999</ele>
        <time>2025-05-16T10:35:45Z</time>
      </trkpt>
      <trkpt lat="43.418463030830026" lon="3.547256961464882">
        <ele>17.920000000000002</ele>
        <time>2025-05-16T10:36:00Z</time>
      </trkpt>
      <trkpt lat="43.420810969546437" lon="3.548541991040111">
        <ele>16.48</ele>
        <time>2025-05-16T10:36:14Z</time>
      </trkpt>
      <trkpt lat="43.422689018771052" lon="3.549779998138547">
        <ele>14.08</ele>
        <time>2025-05-16T10:36:26Z</time>
      </trkpt>
      <trkpt lat="43.422807035967708" lon="3.549951994791627">
        <ele>14.08</ele>
        <time>2025-05-16T10:36:27Z</time>
      </trkpt>
      <trkpt lat="43.422922035679221" lon="3.550119968131185">
        <ele>14.08</ele>
        <time>2025-05-16T10:36:28Z</time>
      </trkpt>
      <trkpt lat="43.423765003681183" lon="3.551760977134109">
        <ele>14.08</ele>
        <time>2025-05-16T10:36:37Z</time>
      </trkpt>
      <trkpt lat="43.424862027168274" lon="3.554001040756702">
        <ele>16.48</ele>
        <time>2025-05-16T10:36:48Z</time>
      </trkpt>
      <trkpt lat="43.426171028986573" lon="3.5566829983145">
        <ele>19.84</ele>
        <time>2025-05-16T10:37:00Z</time>
      </trkpt>
      <trkpt lat="43.427423033863306" lon="3.559226989746094">
        <ele>21.289999999999999</ele>
        <time>2025-05-16T10:37:11Z</time>
      </trkpt>
      <trkpt lat="43.428664980456233" lon="3.561743991449475">
        <ele>23.690000000000001</ele>
        <time>2025-05-16T10:37:22Z</time>
      </trkpt>
      <trkpt lat="43.430150002241135" lon="3.564717974513769">
        <ele>29.940000000000001</ele>
        <time>2025-05-16T10:37:36Z</time>
      </trkpt>
      <trkpt lat="43.431778019294143" lon="3.56710103340447">
        <ele>29.460000000000001</ele>
        <time>2025-05-16T10:37:48Z</time>
      </trkpt>
      <trkpt lat="43.433201014995575" lon="3.568852012977004">
        <ele>24.170000000000002</ele>
        <time>2025-05-16T10:37:58Z</time>
      </trkpt>
      <trkpt lat="43.434597020968795" lon="3.570549013093114">
        <ele>21.77</ele>
        <time>2025-05-16T10:38:09Z</time>
      </trkpt>
      <trkpt lat="43.435802003368735" lon="3.572049038484693">
        <ele>22.73</ele>
        <time>2025-05-16T10:38:20Z</time>
      </trkpt>
      <trkpt lat="43.437020983546972" lon="3.573545962572098">
        <ele>18.879999999999999</ele>
        <time>2025-05-16T10:38:30Z</time>
      </trkpt>
      <trkpt lat="43.438161006197333" lon="3.574958983808756">
        <ele>16.960000000000001</ele>
        <time>2025-05-16T10:38:39Z</time>
      </trkpt>
      <trkpt lat="43.438869025558233" lon="3.575845034793019">
        <ele>16.48</ele>
        <time>2025-05-16T10:38:46Z</time>
      </trkpt>
      <trkpt lat="43.439423991367221" lon="3.576606027781963">
        <ele>16.48</ele>
        <time>2025-05-16T10:38:55Z</time>
      </trkpt>
      <trkpt lat="43.43952901661396" lon="3.576824963092804">
        <ele>16.48</ele>
        <time>2025-05-16T10:39:04Z</time>
      </trkpt>
      <trkpt lat="43.439577966928482" lon="3.576928982511163">
        <ele>16.48</ele>
        <time>2025-05-16T10:39:08Z</time>
      </trkpt>
      <trkpt lat="43.439619960263371" lon="3.577014980837703">
        <ele>16.48</ele>
        <time>2025-05-16T10:39:09Z</time>
      </trkpt>
      <trkpt lat="43.439649967476726" lon="3.577226037159562">
        <ele>16.48</ele>
        <time>2025-05-16T10:39:11Z</time>
      </trkpt>
      <trkpt lat="43.439662959426641" lon="3.577315974980593">
        <ele>16.48</ele>
        <time>2025-05-16T10:39:12Z</time>
      </trkpt>
      <trkpt lat="43.439627001062036" lon="3.577517978847027">
        <ele>16</ele>
        <time>2025-05-16T10:39:13Z</time>
      </trkpt>
      <trkpt lat="43.439599005505443" lon="3.577681006863713">
        <ele>16</ele>
        <time>2025-05-16T10:39:14Z</time>
      </trkpt>
      <trkpt lat="43.439542008563876" lon="3.577814027667046">
        <ele>16</ele>
        <time>2025-05-16T10:39:15Z</time>
      </trkpt>
      <trkpt lat="43.439475959166884" lon="3.577971020713449">
        <ele>15.52</ele>
        <time>2025-05-16T10:39:16Z</time>
      </trkpt>
      <trkpt lat="43.438802976161242" lon="3.579591996967793">
        <ele>15.039999999999999</ele>
        <time>2025-05-16T10:39:24Z</time>
      </trkpt>
      <trkpt lat="43.437407976016402" lon="3.582789022475481">
        <ele>12.15</ele>
        <time>2025-05-16T10:39:37Z</time>
      </trkpt>
      <trkpt lat="43.436227971687913" lon="3.585467040538788">
        <ele>12.15</ele>
        <time>2025-05-16T10:39:48Z</time>
      </trkpt>
      <trkpt lat="43.435273021459579" lon="3.587670978158712">
        <ele>17.440000000000001</ele>
        <time>2025-05-16T10:39:58Z</time>
      </trkpt>
      <trkpt lat="43.434188989922404" lon="3.590048002079129">
        <ele>24.170000000000002</ele>
        <time>2025-05-16T10:40:09Z</time>
      </trkpt>
      <trkpt lat="43.433252982795238" lon="3.592180022969842">
        <ele>27.050000000000001</ele>
        <time>2025-05-16T10:40:22Z</time>
      </trkpt>
      <trkpt lat="43.432528031989932" lon="3.593805022537708">
        <ele>27.050000000000001</ele>
        <time>2025-05-16T10:40:34Z</time>
      </trkpt>
      <trkpt lat="43.431738037616014" lon="3.595603024587035">
        <ele>24.649999999999999</ele>
        <time>2025-05-16T10:40:47Z</time>
      </trkpt>
      <trkpt lat="43.431364959105849" lon="3.596353037282825">
        <ele>21.77</ele>
        <time>2025-05-16T10:40:55Z</time>
      </trkpt>
      <trkpt lat="43.431122973561287" lon="3.596392013132572">
        <ele>20.809999999999999</ele>
        <time>2025-05-16T10:40:59Z</time>
      </trkpt>
      <trkpt lat="43.431122973561287" lon="3.596392013132572">
        <ele>20.32</ele>
        <time>2025-05-16T10:41:00Z</time>
      </trkpt>
      <trkpt lat="43.431115010753274" lon="3.596392013132572">
        <ele>20.32</ele>
        <time>2025-05-16T10:41:01Z</time>
      </trkpt>
      <trkpt lat="43.4309789724648" lon="3.596392013132572">
        <ele>19.84</ele>
        <time>2025-05-16T10:41:03Z</time>
      </trkpt>
      <trkpt lat="43.43089297413826" lon="3.596462002024055">
        <ele>19.84</ele>
        <time>2025-05-16T10:41:04Z</time>
      </trkpt>
      <trkpt lat="43.430833965539932" lon="3.596540037542582">
        <ele>19.359999999999999</ele>
        <time>2025-05-16T10:41:05Z</time>
      </trkpt>
      <trkpt lat="43.430791972205043" lon="3.59662301838398">
        <ele>19.359999999999999</ele>
        <time>2025-05-16T10:41:06Z</time>
      </trkpt>
      <trkpt lat="43.430794989690185" lon="3.596768025308847">
        <ele>19.359999999999999</ele>
        <time>2025-05-16T10:41:07Z</time>
      </trkpt>
      <trkpt lat="43.430810999125242" lon="3.596884030848742">
        <ele>19.359999999999999</ele>
        <time>2025-05-16T10:41:08Z</time>
      </trkpt>
      <trkpt lat="43.430831031873822" lon="3.597006993368268">
        <ele>19.84</ele>
        <time>2025-05-16T10:41:09Z</time>
      </trkpt>
      <trkpt lat="43.430857015773654" lon="3.597121993079782">
        <ele>19.84</ele>
        <time>2025-05-16T10:41:10Z</time>
      </trkpt>
      <trkpt lat="43.430887022987008" lon="3.597249984741211">
        <ele>19.84</ele>
        <time>2025-05-16T10:41:11Z</time>
      </trkpt>
      <trkpt lat="43.430878976359963" lon="3.59735500998795">
        <ele>19.84</ele>
        <time>2025-05-16T10:41:12Z</time>
      </trkpt>
      <trkpt lat="43.430869001895189" lon="3.597477972507477">
        <ele>20.32</ele>
        <time>2025-05-16T10:41:13Z</time>
      </trkpt>
      <trkpt lat="43.430832037702203" lon="3.597604036331177">
        <ele>19.84</ele>
        <time>2025-05-16T10:41:14Z</time>
      </trkpt>
      <trkpt lat="43.43078400939703" lon="3.597713001072407">
        <ele>19.84</ele>
        <time>2025-05-16T10:41:15Z</time>
      </trkpt>
      <trkpt lat="43.430733969435096" lon="3.597824983298779">
        <ele>19.84</ele>
        <time>2025-05-16T10:41:16Z</time>
      </trkpt>
      <trkpt lat="43.430306995287538" lon="3.598796026781201">
        <ele>18.399999999999999</ele>
        <time>2025-05-16T10:41:26Z</time>
      </trkpt>
      <trkpt lat="43.429857976734638" lon="3.599830018356443">
        <ele>16.48</ele>
        <time>2025-05-16T10:41:37Z</time>
      </trkpt>
      <trkpt lat="43.429733002558351" lon="3.600119026377797">
        <ele>14.08</ele>
        <time>2025-05-16T10:41:44Z</time>
      </trkpt>
      <trkpt lat="43.429733002558351" lon="3.600119026377797">
        <ele>14.08</ele>
        <time>2025-05-16T10:42:04Z</time>
      </trkpt>
      <trkpt lat="43.429657984524965" lon="3.600299991667271">
        <ele>16</ele>
        <time>2025-05-16T10:42:30Z</time>
      </trkpt>
      <trkpt lat="43.429187005385756" lon="3.601345969364047">
        <ele>20.32</ele>
        <time>2025-05-16T10:42:41Z</time>
      </trkpt>
      <trkpt lat="43.428724994882941" lon="3.602394964545965">
        <ele>19.84</ele>
        <time>2025-05-16T10:42:52Z</time>
      </trkpt>
      <trkpt lat="43.428590968251228" lon="3.602695036679506">
        <ele>19.84</ele>
        <time>2025-05-16T10:42:55Z</time>
      </trkpt>
      <trkpt lat="43.428109008818865" lon="3.603765992447734">
        <ele>17.440000000000001</ele>
        <time>2025-05-16T10:43:06Z</time>
      </trkpt>
      <trkpt lat="43.427932988852262" lon="3.604173017665744">
        <ele>16.960000000000001</ele>
        <time>2025-05-16T10:43:10Z</time>
      </trkpt>
      <trkpt lat="43.427889989688993" lon="3.604275025427342">
        <ele>16.960000000000001</ele>
        <time>2025-05-16T10:43:11Z</time>
      </trkpt>
      <trkpt lat="43.427702989429235" lon="3.604707028716803">
        <ele>17.440000000000001</ele>
        <time>2025-05-16T10:43:18Z</time>
      </trkpt>
      <trkpt lat="43.427610034123063" lon="3.604884976521134">
        <ele>17.440000000000001</ele>
        <time>2025-05-16T10:43:26Z</time>
      </trkpt>
      <trkpt lat="43.427422028034925" lon="3.60504599288106">
        <ele>17.440000000000001</ele>
        <time>2025-05-16T10:43:33Z</time>
      </trkpt>
      <trkpt lat="43.427410963922739" lon="3.605115981772542">
        <ele>17.440000000000001</ele>
        <time>2025-05-16T10:43:34Z</time>
      </trkpt>
      <trkpt lat="43.427424961701035" lon="3.605203991755843">
        <ele>17.440000000000001</ele>
        <time>2025-05-16T10:43:35Z</time>
      </trkpt>
      <trkpt lat="43.427453963086009" lon="3.605231987312436">
        <ele>17.440000000000001</ele>
        <time>2025-05-16T10:43:36Z</time>
      </trkpt>
      <trkpt lat="43.427568040788174" lon="3.605245985090733">
        <ele>17.440000000000001</ele>
        <time>2025-05-16T10:43:37Z</time>
      </trkpt>
      <trkpt lat="43.427601987496018" lon="3.605313962325454">
        <ele>16.960000000000001</ele>
        <time>2025-05-16T10:43:38Z</time>
      </trkpt>
      <trkpt lat="43.427746994420886" lon="3.605603976175189">
        <ele>15.52</ele>
        <time>2025-05-16T10:43:47Z</time>
      </trkpt>
      <trkpt lat="43.427900969982147" lon="3.605858031660318">
        <ele>15.039999999999999</ele>
        <time>2025-05-16T10:43:57Z</time>
      </trkpt>
      <trkpt lat="43.428069027140737" lon="3.606131030246615">
        <ele>12.630000000000001</ele>
        <time>2025-05-16T10:44:04Z</time>
      </trkpt>
      <trkpt lat="43.428025022149086" lon="3.606219962239265">
        <ele>12.15</ele>
        <time>2025-05-16T10:44:05Z</time>
      </trkpt>
      <trkpt lat="43.427986968308687" lon="3.606243012472987">
        <ele>11.19</ele>
        <time>2025-05-16T10:44:06Z</time>
      </trkpt>
      <trkpt lat="43.427940029650927" lon="3.606272013857961">
        <ele>10.710000000000001</ele>
        <time>2025-05-16T10:44:07Z</time>
      </trkpt>
      <trkpt lat="43.427889989688993" lon="3.606303026899695">
        <ele>10.23</ele>
        <time>2025-05-16T10:44:08Z</time>
      </trkpt>
      <trkpt lat="43.427284983918071" lon="3.60667996108532">
        <ele>4.46</ele>
        <time>2025-05-16T10:44:19Z</time>
      </trkpt>
      <trkpt lat="43.427064958959818" lon="3.606819016858935">
        <ele>1.58</ele>
        <time>2025-05-16T10:44:27Z</time>
      </trkpt>
      <trkpt lat="43.427048027515411" lon="3.60682899132371">
        <ele>1.1</ele>
        <time>2025-05-16T10:44:28Z</time>
      </trkpt>
      <trkpt lat="43.427017014473677" lon="3.606848018243909">
        <ele>0.14</ele>
        <time>2025-05-16T10:44:35Z</time>
      </trkpt>
      <trkpt lat="43.426999999210238" lon="3.606858998537064">
        <ele>0.14</ele>
        <time>2025-05-16T10:44:36Z</time>
      </trkpt>
      <trkpt lat="43.426999999210238" lon="3.606858998537064">
        <ele>0.14</ele>
        <time>2025-05-16T10:44:51Z</time>
      </trkpt>
      <trkpt lat="43.426999999210238" lon="3.606858998537064">
        <ele>1.58</ele>
        <time>2025-05-16T10:44:55Z</time>
      </trkpt>
      <trkpt lat="43.426940990611911" lon="3.606835026293993">
        <ele>2.06</ele>
        <time>2025-05-16T10:44:56Z</time>
      </trkpt>
      <trkpt lat="43.426872007548809" lon="3.606650959700346">
        <ele>3.02</ele>
        <time>2025-05-16T10:45:04Z</time>
      </trkpt>
      <trkpt lat="43.426864966750145" lon="3.606630004942417">
        <ele>2.54</ele>
        <time>2025-05-16T10:45:05Z</time>
      </trkpt>
      <trkpt lat="43.426824985072017" lon="3.606525985524058">
        <ele>1.58</ele>
        <time>2025-05-16T10:45:10Z</time>
      </trkpt>
      <trkpt lat="43.4268310200423" lon="3.606540989130735">
        <ele>1.58</ele>
        <time>2025-05-16T10:45:11Z</time>
      </trkpt>
      <trkpt lat="43.426820039749146" lon="3.606547024101019">
        <ele>1.1</ele>
        <time>2025-05-16T10:45:12Z</time>
      </trkpt>
      <trkpt lat="43.426799001172185" lon="3.606556998565793">
        <ele>1.1</ele>
        <time>2025-05-16T10:45:13Z</time>
      </trkpt>
      <trkpt lat="43.426777040585876" lon="3.606566973030567">
        <ele>0.62</ele>
        <time>2025-05-16T10:45:14Z</time>
      </trkpt>
      <trkpt lat="43.426749967038631" lon="3.606579964980483">
        <ele>0.62</ele>
        <time>2025-05-16T10:45:15Z</time>
      </trkpt>
      <trkpt lat="43.426722977310419" lon="3.60659203492105">
        <ele>0.62</ele>
        <time>2025-05-16T10:45:16Z</time>
      </trkpt>
      <trkpt lat="43.426693975925446" lon="3.606606032699347">
        <ele>0.14</ele>
        <time>2025-05-16T10:45:17Z</time>
      </trkpt>
      <trkpt lat="43.426298014819622" lon="3.606813987717032">
        <ele>-2.75</ele>
        <time>2025-05-16T10:45:30Z</time>
      </trkpt>
      <trkpt lat="43.425957961007953" lon="3.607056979089975">
        <ele>-5.15</ele>
        <time>2025-05-16T10:45:44Z</time>
      </trkpt>
      <trkpt lat="43.42592996545136" lon="3.607077011838555">
        <ele>-2.27</ele>
        <time>2025-05-16T10:45:56Z</time>
      </trkpt>
      <trkpt lat="43.425895012915134" lon="3.607101989910007">
        <ele>-2.27</ele>
        <time>2025-05-16T10:46:02Z</time>
      </trkpt>
      <trkpt lat="43.425780013203621" lon="3.607035018503666">
        <ele>-2.27</ele>
        <time>2025-05-16T10:46:03Z</time>
      </trkpt>
      <trkpt lat="43.425853019580245" lon="3.606840977445245">
        <ele>-3.23</ele>
        <time>2025-05-16T10:52:05Z</time>
      </trkpt>
      <trkpt lat="43.425899958238006" lon="3.606694964691997">
        <ele>1.1</ele>
        <time>2025-05-16T10:52:16Z</time>
      </trkpt>
      <trkpt lat="43.425909010693431" lon="3.606653977185488">
        <ele>0.14</ele>
        <time>2025-05-16T10:52:17Z</time>
      </trkpt>
      <trkpt lat="43.425909010693431" lon="3.606540989130735">
        <ele>1.1</ele>
        <time>2025-05-16T10:52:18Z</time>
      </trkpt>
      <trkpt lat="43.425904987379909" lon="3.606535959988833">
        <ele>0.62</ele>
        <time>2025-05-16T10:52:19Z</time>
      </trkpt>
      <trkpt lat="43.425846984609962" lon="3.606440993025899">
        <ele>-0.82</ele>
        <time>2025-05-16T10:52:21Z</time>
      </trkpt>
      <trkpt lat="43.425733996555209" lon="3.606258016079664">
        <ele>-5.15</ele>
        <time>2025-05-16T10:52:25Z</time>
      </trkpt>
      <trkpt lat="43.425710024312139" lon="3.606219962239265">
        <ele>-6.59</ele>
        <time>2025-05-16T10:52:26Z</time>
      </trkpt>
      <trkpt lat="43.425689991563559" lon="3.606188027188182">
        <ele>-7.07</ele>
        <time>2025-05-16T10:52:27Z</time>
      </trkpt>
      <trkpt lat="43.42562997713685" lon="3.606090964749456">
        <ele>-7.55</ele>
        <time>2025-05-16T10:52:29Z</time>
      </trkpt>
      <trkpt lat="43.42562997713685" lon="3.606090964749456">
        <ele>-8.029999999999999</ele>
        <time>2025-05-16T10:52:30Z</time>
      </trkpt>
      <trkpt lat="43.425613967701793" lon="3.606071015819907">
        <ele>-8.029999999999999</ele>
        <time>2025-05-16T10:52:31Z</time>
      </trkpt>
      <trkpt lat="43.425601981580257" lon="3.60605601221323">
        <ele>-8.51</ele>
        <time>2025-05-16T10:52:32Z</time>
      </trkpt>
      <trkpt lat="43.425554037094116" lon="3.605966996401548">
        <ele>-7.55</ele>
        <time>2025-05-16T10:52:33Z</time>
      </trkpt>
      <trkpt lat="43.425577003508806" lon="3.605931038036943">
        <ele>-5.63</ele>
        <time>2025-05-16T10:52:34Z</time>
      </trkpt>
      <trkpt lat="43.425599969923496" lon="3.605896001681685">
        <ele>-4.67</ele>
        <time>2025-05-16T10:52:35Z</time>
      </trkpt>
      <trkpt lat="43.425624025985599" lon="3.605857025831938">
        <ele>-3.23</ele>
        <time>2025-05-16T10:52:36Z</time>
      </trkpt>
      <trkpt lat="43.425698960199952" lon="3.605739008635283">
        <ele>-3.23</ele>
        <time>2025-05-16T10:52:39Z</time>
      </trkpt>
      <trkpt lat="43.42609902843833" lon="3.605095027014613">
        <ele>-5.15</ele>
        <time>2025-05-16T10:52:49Z</time>
      </trkpt>
      <trkpt lat="43.426544023677707" lon="3.60444400459528">
        <ele>0.14</ele>
        <time>2025-05-16T10:52:58Z</time>
      </trkpt>
      <trkpt lat="43.426634967327118" lon="3.60431500710547">
        <ele>1.1</ele>
        <time>2025-05-16T10:53:00Z</time>
      </trkpt>
      <trkpt lat="43.426674026995897" lon="3.604258010163903">
        <ele>1.58</ele>
        <time>2025-05-16T10:53:01Z</time>
      </trkpt>
      <trkpt lat="43.426711997017264" lon="3.604204030707479">
        <ele>2.54</ele>
        <time>2025-05-16T10:53:02Z</time>
      </trkpt>
      <trkpt lat="43.42674401588738" lon="3.604158014059067">
        <ele>3.5</ele>
        <time>2025-05-16T10:53:03Z</time>
      </trkpt>
      <trkpt lat="43.426768993958831" lon="3.60412297770381">
        <ele>3.98</ele>
        <time>2025-05-16T10:53:04Z</time>
      </trkpt>
      <trkpt lat="43.42678802087903" lon="3.604094982147217">
        <ele>4.46</ele>
        <time>2025-05-16T10:53:05Z</time>
      </trkpt>
      <trkpt lat="43.42680998146534" lon="3.604331016540527">
        <ele>5.42</ele>
        <time>2025-05-16T10:53:06Z</time>
      </trkpt>
      <trkpt lat="43.426829008385539" lon="3.60435800626874">
        <ele>5.91</ele>
        <time>2025-05-16T10:53:07Z</time>
      </trkpt>
      <trkpt lat="43.426884999498725" lon="3.604437969624996">
        <ele>6.39</ele>
        <time>2025-05-16T10:53:08Z</time>
      </trkpt>
      <trkpt lat="43.426944008097053" lon="3.604522962123156">
        <ele>6.87</ele>
        <time>2025-05-16T10:53:09Z</time>
      </trkpt>
      <trkpt lat="43.426994970068336" lon="3.60459596849978">
        <ele>6.87</ele>
        <time>2025-05-16T10:53:10Z</time>
      </trkpt>
      <trkpt lat="43.427044004201889" lon="3.604666041210294">
        <ele>7.35</ele>
        <time>2025-05-16T10:53:11Z</time>
      </trkpt>
      <trkpt lat="43.427093038335443" lon="3.604736030101776">
        <ele>7.83</ele>
        <time>2025-05-16T10:53:12Z</time>
      </trkpt>
      <trkpt lat="43.427185993641615" lon="3.604867961257696">
        <ele>8.310000000000001</ele>
        <time>2025-05-16T10:53:14Z</time>
      </trkpt>
      <trkpt lat="43.427223041653633" lon="3.604921018704772">
        <ele>8.310000000000001</ele>
        <time>2025-05-16T10:53:15Z</time>
      </trkpt>
      <trkpt lat="43.42728297226131" lon="3.605006011202931">
        <ele>8.789999999999999</ele>
        <time>2025-05-16T10:53:17Z</time>
      </trkpt>
      <trkpt lat="43.427315996959805" lon="3.605053033679724">
        <ele>8.789999999999999</ele>
        <time>2025-05-16T10:53:18Z</time>
      </trkpt>
      <trkpt lat="43.427353966981173" lon="3.60510902479291">
        <ele>9.27</ele>
        <time>2025-05-16T10:53:19Z</time>
      </trkpt>
      <trkpt lat="43.427701983600855" lon="3.605514960363507">
        <ele>10.23</ele>
        <time>2025-05-16T10:53:25Z</time>
      </trkpt>
      <trkpt lat="43.428390976041555" lon="3.60667702741921">
        <ele>10.23</ele>
        <time>2025-05-16T10:53:36Z</time>
      </trkpt>
      <trkpt lat="43.429285995662212" lon="3.608169006183744">
        <ele>10.710000000000001</ele>
        <time>2025-05-16T10:53:48Z</time>
      </trkpt>
      <trkpt lat="43.429552037268877" lon="3.608643002808094">
        <ele>10.710000000000001</ele>
        <time>2025-05-16T10:53:52Z</time>
      </trkpt>
      <trkpt lat="43.429562011733651" lon="3.608819022774696">
        <ele>10.710000000000001</ele>
        <time>2025-05-16T10:53:53Z</time>
      </trkpt>
      <trkpt lat="43.429492022842169" lon="3.608986996114254">
        <ele>11.19</ele>
        <time>2025-05-16T10:53:54Z</time>
      </trkpt>
      <trkpt lat="43.429492022842169" lon="3.609051033854485">
        <ele>11.67</ele>
        <time>2025-05-16T10:53:55Z</time>
      </trkpt>
      <trkpt lat="43.429532004520297" lon="3.609196040779352">
        <ele>12.15</ele>
        <time>2025-05-16T10:53:56Z</time>
      </trkpt>
      <trkpt lat="43.429555976763368" lon="3.609244991093874">
        <ele>12.15</ele>
        <time>2025-05-16T10:53:57Z</time>
      </trkpt>
      <trkpt lat="43.429691009223461" lon="3.609325038269162">
        <ele>12.15</ele>
        <time>2025-05-16T10:53:58Z</time>
      </trkpt>
      <trkpt lat="43.429782958701253" lon="3.609383041039109">
        <ele>11.67</ele>
        <time>2025-05-16T10:53:59Z</time>
      </trkpt>
      <trkpt lat="43.429873986169696" lon="3.60945101827383">
        <ele>11.19</ele>
        <time>2025-05-16T10:54:00Z</time>
      </trkpt>
      <trkpt lat="43.429969036951661" lon="3.609522012993693">
        <ele>11.19</ele>
        <time>2025-05-16T10:54:01Z</time>
      </trkpt>
      <trkpt lat="43.430066015571356" lon="3.609595019370318">
        <ele>10.710000000000001</ele>
        <time>2025-05-16T10:54:02Z</time>
      </trkpt>
      <trkpt lat="43.430155031383038" lon="3.60968898050487">
        <ele>10.710000000000001</ele>
        <time>2025-05-16T10:54:03Z</time>
      </trkpt>
      <trkpt lat="43.430230971425772" lon="3.609800040721893">
        <ele>10.23</ele>
        <time>2025-05-16T10:54:04Z</time>
      </trkpt>
      <trkpt lat="43.430300960317254" lon="3.609928032383323">
        <ele>9.75</ele>
        <time>2025-05-16T10:54:05Z</time>
      </trkpt>
      <trkpt lat="43.431206038221717" lon="3.611421016976237">
        <ele>9.27</ele>
        <time>2025-05-16T10:54:16Z</time>
      </trkpt>
      <trkpt lat="43.432354023680091" lon="3.613355979323387">
        <ele>8.310000000000001</ele>
        <time>2025-05-16T10:54:27Z</time>
      </trkpt>
      <trkpt lat="43.433879027143121" lon="3.615903994068503">
        <ele>8.789999999999999</ele>
        <time>2025-05-16T10:54:40Z</time>
      </trkpt>
      <trkpt lat="43.434993987902999" lon="3.617668971419334">
        <ele>8.310000000000001</ele>
        <time>2025-05-16T10:54:50Z</time>
      </trkpt>
      <trkpt lat="43.435048973187804" lon="3.617845997214317">
        <ele>8.310000000000001</ele>
        <time>2025-05-16T10:54:51Z</time>
      </trkpt>
      <trkpt lat="43.435074035078287" lon="3.617996033281088">
        <ele>8.310000000000001</ele>
        <time>2025-05-16T10:54:52Z</time>
      </trkpt>
      <trkpt lat="43.435091972351074" lon="3.618107009679079">
        <ele>8.310000000000001</ele>
        <time>2025-05-16T10:54:53Z</time>
      </trkpt>
      <trkpt lat="43.435075962916017" lon="3.618468018248677">
        <ele>8.310000000000001</ele>
        <time>2025-05-16T10:54:55Z</time>
      </trkpt>
      <trkpt lat="43.435163972899318" lon="3.618613025173545">
        <ele>8.310000000000001</ele>
        <time>2025-05-16T10:54:56Z</time>
      </trkpt>
      <trkpt lat="43.435252988710999" lon="3.618682008236647">
        <ele>8.310000000000001</ele>
        <time>2025-05-16T10:54:57Z</time>
      </trkpt>
      <trkpt lat="43.435366982594132" lon="3.61868703737855">
        <ele>8.789999999999999</ele>
        <time>2025-05-16T10:54:58Z</time>
      </trkpt>
      <trkpt lat="43.435500003397465" lon="3.618726013228297">
        <ele>8.789999999999999</ele>
        <time>2025-05-16T10:54:59Z</time>
      </trkpt>
      <trkpt lat="43.435581978410482" lon="3.618843024596572">
        <ele>8.310000000000001</ele>
        <time>2025-05-16T10:55:00Z</time>
      </trkpt>
      <trkpt lat="43.435714999213815" lon="3.618944026529789">
        <ele>8.310000000000001</ele>
        <time>2025-05-16T10:55:01Z</time>
      </trkpt>
      <trkpt lat="43.435797980055213" lon="3.619090961292386">
        <ele>8.310000000000001</ele>
        <time>2025-05-16T10:55:02Z</time>
      </trkpt>
      <trkpt lat="43.435894036665559" lon="3.619261030107737">
        <ele>7.83</ele>
        <time>2025-05-16T10:55:03Z</time>
      </trkpt>
      <trkpt lat="43.436852004379034" lon="3.620877983048558">
        <ele>7.83</ele>
        <time>2025-05-16T10:55:11Z</time>
      </trkpt>
      <trkpt lat="43.438113983720541" lon="3.62298896536231">
        <ele>9.75</ele>
        <time>2025-05-16T10:55:21Z</time>
      </trkpt>
      <trkpt lat="43.439686009660363" lon="3.625652985647321">
        <ele>9.27</ele>
        <time>2025-05-16T10:55:34Z</time>
      </trkpt>
      <trkpt lat="43.441228028386831" lon="3.628166969865561">
        <ele>8.789999999999999</ele>
        <time>2025-05-16T10:55:47Z</time>
      </trkpt>
      <trkpt lat="43.443032987415791" lon="3.631212031468749">
        <ele>10.23</ele>
        <time>2025-05-16T10:56:01Z</time>
      </trkpt>
      <trkpt lat="43.444447014480829" lon="3.633683016523719">
        <ele>20.32</ele>
        <time>2025-05-16T10:56:13Z</time>
      </trkpt>
      <trkpt lat="43.445291994139552" lon="3.635958032682538">
        <ele>24.170000000000002</ele>
        <time>2025-05-16T10:56:22Z</time>
      </trkpt>
      <trkpt lat="43.446329003199935" lon="3.638907037675381">
        <ele>23.690000000000001</ele>
        <time>2025-05-16T10:56:32Z</time>
      </trkpt>
      <trkpt lat="43.447640016674995" lon="3.642226019874215">
        <ele>19.84</ele>
        <time>2025-05-16T10:56:45Z</time>
      </trkpt>
      <trkpt lat="43.448724970221519" lon="3.644502041861415">
        <ele>16.960000000000001</ele>
        <time>2025-05-16T10:56:56Z</time>
      </trkpt>
      <trkpt lat="43.448796970769763" lon="3.644651994109154">
        <ele>16.48</ele>
        <time>2025-05-16T10:56:57Z</time>
      </trkpt>
      <trkpt lat="43.448857991024852" lon="3.644777974113822">
        <ele>16</ele>
        <time>2025-05-16T10:56:58Z</time>
      </trkpt>
      <trkpt lat="43.448909958824515" lon="3.644903032109141">
        <ele>15.52</ele>
        <time>2025-05-16T10:56:59Z</time>
      </trkpt>
      <trkpt lat="43.448890009894967" lon="3.645207965746522">
        <ele>15.039999999999999</ele>
        <time>2025-05-16T10:57:01Z</time>
      </trkpt>
      <trkpt lat="43.448932003229856" lon="3.645319025963545">
        <ele>14.56</ele>
        <time>2025-05-16T10:57:02Z</time>
      </trkpt>
      <trkpt lat="43.449023030698299" lon="3.645402006804943">
        <ele>14.56</ele>
        <time>2025-05-16T10:57:03Z</time>
      </trkpt>
      <trkpt lat="43.449270967394114" lon="3.645537961274386">
        <ele>14.56</ele>
        <time>2025-05-16T10:57:05Z</time>
      </trkpt>
      <trkpt lat="43.449342967942357" lon="3.645683974027634">
        <ele>14.56</ele>
        <time>2025-05-16T10:57:06Z</time>
      </trkpt>
      <trkpt lat="43.450086023658514" lon="3.647252982482314">
        <ele>14.08</ele>
        <time>2025-05-16T10:57:16Z</time>
      </trkpt>
      <trkpt lat="43.451098976656795" lon="3.649426996707916">
        <ele>15.52</ele>
        <time>2025-05-16T10:57:28Z</time>
      </trkpt>
      <trkpt lat="43.452179990708828" lon="3.651768984273076">
        <ele>17.920000000000002</ele>
        <time>2025-05-16T10:57:41Z</time>
      </trkpt>
      <trkpt lat="43.452750965952873" lon="3.653014032170177">
        <ele>18.879999999999999</ele>
        <time>2025-05-16T10:57:49Z</time>
      </trkpt>
      <trkpt lat="43.452975014224648" lon="3.653595987707377">
        <ele>17.920000000000002</ele>
        <time>2025-05-16T10:57:56Z</time>
      </trkpt>
      <trkpt lat="43.45302295871079" lon="3.653869992122054">
        <ele>17.440000000000001</ele>
        <time>2025-05-16T10:58:02Z</time>
      </trkpt>
      <trkpt lat="43.453045003116131" lon="3.654105020686984">
        <ele>16.48</ele>
        <time>2025-05-16T10:58:06Z</time>
      </trkpt>
      <trkpt lat="43.453079033643007" lon="3.654238041490316">
        <ele>16.48</ele>
        <time>2025-05-16T10:58:08Z</time>
      </trkpt>
      <trkpt lat="43.453110968694091" lon="3.654286991804838">
        <ele>16.48</ele>
        <time>2025-05-16T10:58:09Z</time>
      </trkpt>
      <trkpt lat="43.453137958422303" lon="3.654326973482966">
        <ele>16.960000000000001</ele>
        <time>2025-05-16T10:58:10Z</time>
      </trkpt>
      <trkpt lat="43.453216999769211" lon="3.654338037595153">
        <ele>16.960000000000001</ele>
        <time>2025-05-16T10:58:11Z</time>
      </trkpt>
      <trkpt lat="43.453289000317454" lon="3.654349017888308">
        <ele>17.440000000000001</ele>
        <time>2025-05-16T10:58:12Z</time>
      </trkpt>
      <trkpt lat="43.453324036672711" lon="3.654405009001494">
        <ele>17.920000000000002</ele>
        <time>2025-05-16T10:58:13Z</time>
      </trkpt>
      <trkpt lat="43.453366030007601" lon="3.654471980407834">
        <ele>18.399999999999999</ele>
        <time>2025-05-16T10:58:14Z</time>
      </trkpt>
      <trkpt lat="43.453410034999251" lon="3.654546998441219">
        <ele>18.399999999999999</ele>
        <time>2025-05-16T10:58:15Z</time>
      </trkpt>
      <trkpt lat="43.453454039990902" lon="3.654631990939379">
        <ele>18.879999999999999</ele>
        <time>2025-05-16T10:58:16Z</time>
      </trkpt>
      <trkpt lat="43.454033983871341" lon="3.655823981389403">
        <ele>20.809999999999999</ele>
        <time>2025-05-16T10:58:26Z</time>
      </trkpt>
      <trkpt lat="43.454883992671967" lon="3.657608991488814">
        <ele>23.210000000000001</ele>
        <time>2025-05-16T10:58:36Z</time>
      </trkpt>
      <trkpt lat="43.456097021698952" lon="3.659921977669001">
        <ele>30.420000000000002</ele>
        <time>2025-05-16T10:58:47Z</time>
      </trkpt>
      <trkpt lat="43.457359001040459" lon="3.661213964223862">
        <ele>30.899999999999999</ele>
        <time>2025-05-16T10:58:55Z</time>
      </trkpt>
      <trkpt lat="43.45951097086072" lon="3.663251018151641">
        <ele>23.690000000000001</ele>
        <time>2025-05-16T10:59:10Z</time>
      </trkpt>
      <trkpt lat="43.461070004850626" lon="3.664649035781622">
        <ele>14.08</ele>
        <time>2025-05-16T10:59:20Z</time>
      </trkpt>
      <trkpt lat="43.463089959695935" lon="3.666546028107405">
        <ele>5.91</ele>
        <time>2025-05-16T10:59:32Z</time>
      </trkpt>
      <trkpt lat="43.464969014748931" lon="3.66838401183486">
        <ele>3.98</ele>
        <time>2025-05-16T10:59:44Z</time>
      </trkpt>
      <trkpt lat="43.466549003496766" lon="3.670192994177342">
        <ele>3.98</ele>
        <time>2025-05-16T10:59:54Z</time>
      </trkpt>
      <trkpt lat="43.467667987570167" lon="3.671961994841695">
        <ele>3.98</ele>
        <time>2025-05-16T11:00:02Z</time>
      </trkpt>
      <trkpt lat="43.469031974673271" lon="3.674381012097001">
        <ele>4.46</ele>
        <time>2025-05-16T11:00:13Z</time>
      </trkpt>
      <trkpt lat="43.470243997871876" lon="3.676575981080532">
        <ele>3.98</ele>
        <time>2025-05-16T11:00:23Z</time>
      </trkpt>
      <trkpt lat="43.471123008057475" lon="3.678731974214315">
        <ele>4.46</ele>
        <time>2025-05-16T11:00:32Z</time>
      </trkpt>
      <trkpt lat="43.471580995246768" lon="3.680440038442612">
        <ele>4.46</ele>
        <time>2025-05-16T11:00:40Z</time>
      </trkpt>
      <trkpt lat="43.472267976030707" lon="3.68295100517571">
        <ele>5.91</ele>
        <time>2025-05-16T11:00:51Z</time>
      </trkpt>
      <trkpt lat="43.472586991265416" lon="3.684500986710191">
        <ele>6.87</ele>
        <time>2025-05-16T11:00:59Z</time>
      </trkpt>
      <trkpt lat="43.472599983215332" lon="3.684826958924532">
        <ele>6.87</ele>
        <time>2025-05-16T11:01:01Z</time>
      </trkpt>
      <trkpt lat="43.472583973780274" lon="3.68497297167778">
        <ele>7.35</ele>
        <time>2025-05-16T11:01:02Z</time>
      </trkpt>
      <trkpt lat="43.472565030679107" lon="3.68512200191617">
        <ele>7.83</ele>
        <time>2025-05-16T11:01:03Z</time>
      </trkpt>
      <trkpt lat="43.472546003758907" lon="3.68527396582067">
        <ele>8.310000000000001</ele>
        <time>2025-05-16T11:01:04Z</time>
      </trkpt>
      <trkpt lat="43.472500992938876" lon="3.685427019372582">
        <ele>8.789999999999999</ele>
        <time>2025-05-16T11:01:05Z</time>
      </trkpt>
      <trkpt lat="43.472435027360916" lon="3.685562973842025">
        <ele>9.75</ele>
        <time>2025-05-16T11:01:06Z</time>
      </trkpt>
      <trkpt lat="43.472369983792305" lon="3.685695994645357">
        <ele>10.710000000000001</ele>
        <time>2025-05-16T11:01:07Z</time>
      </trkpt>
      <trkpt lat="43.472117017954588" lon="3.686245009303093">
        <ele>14.08</ele>
        <time>2025-05-16T11:01:11Z</time>
      </trkpt>
      <trkpt lat="43.472083993256092" lon="3.686400996521115">
        <ele>15.039999999999999</ele>
        <time>2025-05-16T11:01:12Z</time>
      </trkpt>
      <trkpt lat="43.471947032958269" lon="3.687000973150134">
        <ele>16.960000000000001</ele>
        <time>2025-05-16T11:01:16Z</time>
      </trkpt>
      <trkpt lat="43.471900010481477" lon="3.687150003388524">
        <ele>17.440000000000001</ele>
        <time>2025-05-16T11:01:17Z</time>
      </trkpt>
      <trkpt lat="43.471832033246756" lon="3.687300039455295">
        <ele>17.440000000000001</ele>
        <time>2025-05-16T11:01:18Z</time>
      </trkpt>
      <trkpt lat="43.471746034920216" lon="3.687424007803202">
        <ele>17.440000000000001</ele>
        <time>2025-05-16T11:01:19Z</time>
      </trkpt>
      <trkpt lat="43.471646038815379" lon="3.687548981979489">
        <ele>17.440000000000001</ele>
        <time>2025-05-16T11:01:20Z</time>
      </trkpt>
      <trkpt lat="43.471531039103866" lon="3.687645038589835">
        <ele>16.960000000000001</ele>
        <time>2025-05-16T11:01:21Z</time>
      </trkpt>
      <trkpt lat="43.47141302190721" lon="3.687745034694672">
        <ele>16.960000000000001</ele>
        <time>2025-05-16T11:01:22Z</time>
      </trkpt>
      <trkpt lat="43.471297016367316" lon="3.687842013314366">
        <ele>17.440000000000001</ele>
        <time>2025-05-16T11:01:23Z</time>
      </trkpt>
      <trkpt lat="43.471184028312564" lon="3.6879369802773">
        <ele>17.440000000000001</ele>
        <time>2025-05-16T11:01:24Z</time>
      </trkpt>
      <trkpt lat="43.470223965123296" lon="3.688549026846886">
        <ele>16.960000000000001</ele>
        <time>2025-05-16T11:01:30Z</time>
      </trkpt>
      <trkpt lat="43.468896020203829" lon="3.689803965389729">
        <ele>17.920000000000002</ele>
        <time>2025-05-16T11:01:39Z</time>
      </trkpt>
      <trkpt lat="43.467210000380874" lon="3.691479004919529">
        <ele>22.25</ele>
        <time>2025-05-16T11:01:51Z</time>
      </trkpt>
      <trkpt lat="43.465888006612659" lon="3.692227005958557">
        <ele>25.609999999999999</ele>
        <time>2025-05-16T11:01:59Z</time>
      </trkpt>
      <trkpt lat="43.464367026463151" lon="3.692636964842677">
        <ele>27.050000000000001</ele>
        <time>2025-05-16T11:02:08Z</time>
      </trkpt>
      <trkpt lat="43.462269958108664" lon="3.693196037784219">
        <ele>27.050000000000001</ele>
        <time>2025-05-16T11:02:20Z</time>
      </trkpt>
      <trkpt lat="43.460758030414581" lon="3.69412399828434">
        <ele>27.050000000000001</ele>
        <time>2025-05-16T11:02:28Z</time>
      </trkpt>
      <trkpt lat="43.459322964772582" lon="3.695594016462565">
        <ele>28.02</ele>
        <time>2025-05-16T11:02:36Z</time>
      </trkpt>
      <trkpt lat="43.458111025393009" lon="3.697760989889503">
        <ele>34.259999999999998</ele>
        <time>2025-05-16T11:02:45Z</time>
      </trkpt>
      <trkpt lat="43.456730023026466" lon="3.7009990029037">
        <ele>48.200000000000003</ele>
        <time>2025-05-16T11:02:58Z</time>
      </trkpt>
      <trkpt lat="43.455559993162751" lon="3.703238982707262">
        <ele>58.299999999999997</ele>
        <time>2025-05-16T11:03:07Z</time>
      </trkpt>
      <trkpt lat="43.454112019389868" lon="3.704824000597">
        <ele>68.390000000000001</ele>
        <time>2025-05-16T11:03:15Z</time>
      </trkpt>
      <trkpt lat="43.452416025102139" lon="3.705737041309476">
        <ele>77.040000000000006</ele>
        <time>2025-05-16T11:03:23Z</time>
      </trkpt>
      <trkpt lat="43.450426999479532" lon="3.706312961876392">
        <ele>80.890000000000001</ele>
        <time>2025-05-16T11:03:32Z</time>
      </trkpt>
      <trkpt lat="43.448991011828184" lon="3.707095999270678">
        <ele>78.480000000000004</ele>
        <time>2025-05-16T11:03:39Z</time>
      </trkpt>
      <trkpt lat="43.447401970624924" lon="3.708795011043549">
        <ele>70.310000000000002</ele>
        <time>2025-05-16T11:03:48Z</time>
      </trkpt>
      <trkpt lat="43.446282986551523" lon="3.710572980344296">
        <ele>62.619999999999997</ele>
        <time>2025-05-16T11:03:56Z</time>
      </trkpt>
      <trkpt lat="43.444839958101511" lon="3.713376978412271">
        <ele>51.090000000000003</ele>
        <time>2025-05-16T11:04:07Z</time>
      </trkpt>
      <trkpt lat="43.443427020683885" lon="3.715200964361429">
        <ele>41.469999999999999</ele>
        <time>2025-05-16T11:04:16Z</time>
      </trkpt>
      <trkpt lat="43.441939987242222" lon="3.716456992551684">
        <ele>37.149999999999999</ele>
        <time>2025-05-16T11:04:24Z</time>
      </trkpt>
      <trkpt lat="43.440309958532453" lon="3.717159982770681">
        <ele>33.780000000000001</ele>
        <time>2025-05-16T11:04:32Z</time>
      </trkpt>
      <trkpt lat="43.437556000426412" lon="3.717737998813391">
        <ele>31.379999999999999</ele>
        <time>2025-05-16T11:04:45Z</time>
      </trkpt>
      <trkpt lat="43.435177970677614" lon="3.718741983175278">
        <ele>27.530000000000001</ele>
        <time>2025-05-16T11:04:56Z</time>
      </trkpt>
      <trkpt lat="43.432877976447344" lon="3.720288025215268">
        <ele>24.649999999999999</ele>
        <time>2025-05-16T11:05:07Z</time>
      </trkpt>
      <trkpt lat="43.430835977196693" lon="3.721276000142098">
        <ele>24.649999999999999</ele>
        <time>2025-05-16T11:05:17Z</time>
      </trkpt>
      <trkpt lat="43.428603960201144" lon="3.721794001758099">
        <ele>22.73</ele>
        <time>2025-05-16T11:05:27Z</time>
      </trkpt>
      <trkpt lat="43.425938012078404" lon="3.722496991977096">
        <ele>17.920000000000002</ele>
        <time>2025-05-16T11:05:40Z</time>
      </trkpt>
      <trkpt lat="43.424957999959588" lon="3.722708970308304">
        <ele>14.56</ele>
        <time>2025-05-16T11:05:47Z</time>
      </trkpt>
      <trkpt lat="43.424498001113534" lon="3.722802009433508">
        <ele>11.67</ele>
        <time>2025-05-16T11:05:53Z</time>
      </trkpt>
      <trkpt lat="43.424453996121883" lon="3.722810978069902">
        <ele>10.710000000000001</ele>
        <time>2025-05-16T11:05:54Z</time>
      </trkpt>
      <trkpt lat="43.424400016665459" lon="3.722818018868566">
        <ele>10.23</ele>
        <time>2025-05-16T11:05:55Z</time>
      </trkpt>
      <trkpt lat="43.424335978925228" lon="3.722796980291605">
        <ele>9.75</ele>
        <time>2025-05-16T11:05:56Z</time>
      </trkpt>
      <trkpt lat="43.424260038882494" lon="3.722761021926999">
        <ele>9.75</ele>
        <time>2025-05-16T11:05:57Z</time>
      </trkpt>
      <trkpt lat="43.42418703250587" lon="3.722696984186769">
        <ele>9.75</ele>
        <time>2025-05-16T11:05:58Z</time>
      </trkpt>
      <trkpt lat="43.424085024744272" lon="3.722606040537357">
        <ele>9.75</ele>
        <time>2025-05-16T11:05:59Z</time>
      </trkpt>
      <trkpt lat="43.42401503585279" lon="3.722596988081932">
        <ele>9.75</ele>
        <time>2025-05-16T11:06:00Z</time>
      </trkpt>
      <trkpt lat="43.423918979242444" lon="3.722583996132016">
        <ele>9.75</ele>
        <time>2025-05-16T11:06:01Z</time>
      </trkpt>
      <trkpt lat="43.423388991504908" lon="3.722535967826843">
        <ele>9.27</ele>
        <time>2025-05-16T11:06:07Z</time>
      </trkpt>
      <trkpt lat="43.423317996785045" lon="3.722575027495623">
        <ele>9.75</ele>
        <time>2025-05-16T11:06:08Z</time>
      </trkpt>
      <trkpt lat="43.423248007893562" lon="3.72261299751699">
        <ele>9.75</ele>
        <time>2025-05-16T11:06:09Z</time>
      </trkpt>
      <trkpt lat="43.423177013173699" lon="3.722661025822163">
        <ele>10.23</ele>
        <time>2025-05-16T11:06:10Z</time>
      </trkpt>
      <trkpt lat="43.423130996525288" lon="3.722753981128335">
        <ele>10.23</ele>
        <time>2025-05-16T11:06:11Z</time>
      </trkpt>
      <trkpt lat="43.423119010403752" lon="3.72284802608192">
        <ele>10.710000000000001</ele>
        <time>2025-05-16T11:06:12Z</time>
      </trkpt>
      <trkpt lat="43.423119010403752" lon="3.722938969731331">
        <ele>11.19</ele>
        <time>2025-05-16T11:06:13Z</time>
      </trkpt>
      <trkpt lat="43.423038041219115" lon="3.723098980262876">
        <ele>11.67</ele>
        <time>2025-05-16T11:06:15Z</time>
      </trkpt>
      <trkpt lat="43.422988001257181" lon="3.723163018003106">
        <ele>12.15</ele>
        <time>2025-05-16T11:06:16Z</time>
      </trkpt>
      <trkpt lat="43.422917006537318" lon="3.723223032429814">
        <ele>12.15</ele>
        <time>2025-05-16T11:06:17Z</time>
      </trkpt>
      <trkpt lat="43.422832014039159" lon="3.723296960815787">
        <ele>12.630000000000001</ele>
        <time>2025-05-16T11:06:18Z</time>
      </trkpt>
      <trkpt lat="43.422710979357362" lon="3.723399974405766">
        <ele>12.630000000000001</ele>
        <time>2025-05-16T11:06:19Z</time>
      </trkpt>
      <trkpt lat="43.422610983252525" lon="3.723427969962359">
        <ele>12.15</ele>
        <time>2025-05-16T11:06:20Z</time>
      </trkpt>
      <trkpt lat="43.421512031927705" lon="3.723826026543975">
        <ele>11.67</ele>
        <time>2025-05-16T11:06:28Z</time>
      </trkpt>
      <trkpt lat="43.419974958524108" lon="3.724408987909555">
        <ele>11.67</ele>
        <time>2025-05-16T11:06:36Z</time>
      </trkpt>
      <trkpt lat="43.418766958639026" lon="3.724594982340932">
        <ele>14.08</ele>
        <time>2025-05-16T11:06:43Z</time>
      </trkpt>
      <trkpt lat="43.417975036427379" lon="3.724510995671153">
        <ele>16</ele>
        <time>2025-05-16T11:06:49Z</time>
      </trkpt>
      <trkpt lat="43.417889038100839" lon="3.724472019821405">
        <ele>16</ele>
        <time>2025-05-16T11:06:50Z</time>
      </trkpt>
      <trkpt lat="43.417811002582312" lon="3.724435977637768">
        <ele>15.52</ele>
        <time>2025-05-16T11:06:51Z</time>
      </trkpt>
      <trkpt lat="43.41776599176228" lon="3.724344028159976">
        <ele>15.039999999999999</ele>
        <time>2025-05-16T11:06:52Z</time>
      </trkpt>
      <trkpt lat="43.417728021740913" lon="3.724237997084856">
        <ele>14.56</ele>
        <time>2025-05-16T11:06:53Z</time>
      </trkpt>
      <trkpt lat="43.417693991214037" lon="3.724122997373343">
        <ele>14.08</ele>
        <time>2025-05-16T11:06:54Z</time>
      </trkpt>
      <trkpt lat="43.417520988732576" lon="3.723288998007774">
        <ele>11.67</ele>
        <time>2025-05-16T11:07:00Z</time>
      </trkpt>
      <trkpt lat="43.417480001226068" lon="3.723133010789752">
        <ele>11.19</ele>
        <time>2025-05-16T11:07:01Z</time>
      </trkpt>
      <trkpt lat="43.417427027598023" lon="3.722979035228491">
        <ele>10.710000000000001</ele>
        <time>2025-05-16T11:07:02Z</time>
      </trkpt>
      <trkpt lat="43.416579030454159" lon="3.721271976828575">
        <ele>6.39</ele>
        <time>2025-05-16T11:07:13Z</time>
      </trkpt>
      <trkpt lat="43.41578702442348" lon="3.719528960064054">
        <ele>4.94</ele>
        <time>2025-05-16T11:07:24Z</time>
      </trkpt>
      <trkpt lat="43.415017984807491" lon="3.717826008796692">
        <ele>5.91</ele>
        <time>2025-05-16T11:07:37Z</time>
      </trkpt>
      <trkpt lat="43.414721013978124" lon="3.717192001640797">
        <ele>6.39</ele>
        <time>2025-05-16T11:07:45Z</time>
      </trkpt>
      <trkpt lat="43.41441297903657" lon="3.716601999476552">
        <ele>6.87</ele>
        <time>2025-05-16T11:07:54Z</time>
      </trkpt>
      <trkpt lat="43.41379196383059" lon="3.715164000168443">
        <ele>7.35</ele>
        <time>2025-05-16T11:08:06Z</time>
      </trkpt>
      <trkpt lat="43.413034994155169" lon="3.713516034185886">
        <ele>5.91</ele>
        <time>2025-05-16T11:08:16Z</time>
      </trkpt>
      <trkpt lat="43.412464018911123" lon="3.712315997108817">
        <ele>5.91</ele>
        <time>2025-05-16T11:08:25Z</time>
      </trkpt>
      <trkpt lat="43.412165036424994" lon="3.711679978296161">
        <ele>6.87</ele>
        <time>2025-05-16T11:08:34Z</time>
      </trkpt>
      <trkpt lat="43.411495992913842" lon="3.710152041167021">
        <ele>4.94</ele>
        <time>2025-05-16T11:08:46Z</time>
      </trkpt>
      <trkpt lat="43.410655958577991" lon="3.708278015255928">
        <ele>5.42</ele>
        <time>2025-05-16T11:08:59Z</time>
      </trkpt>
      <trkpt lat="43.409832017496228" lon="3.706474984064698">
        <ele>6.87</ele>
        <time>2025-05-16T11:09:13Z</time>
      </trkpt>
      <trkpt lat="43.409517025575042" lon="3.705818010494113">
        <ele>6.39</ele>
        <time>2025-05-16T11:09:22Z</time>
      </trkpt>
      <trkpt lat="43.409408982843161" lon="3.705626986920834">
        <ele>6.39</ele>
        <time>2025-05-16T11:09:26Z</time>
      </trkpt>
      <trkpt lat="43.409111006185412" lon="3.705021981149912">
        <ele>6.39</ele>
        <time>2025-05-16T11:09:36Z</time>
      </trkpt>
      <trkpt lat="43.409069012850523" lon="3.705012006685138">
        <ele>6.39</ele>
        <time>2025-05-16T11:09:37Z</time>
      </trkpt>
      <trkpt lat="43.409019978716969" lon="3.704999014735222">
        <ele>6.39</ele>
        <time>2025-05-16T11:09:38Z</time>
      </trkpt>
      <trkpt lat="43.408950995653868" lon="3.70501602999866">
        <ele>6.39</ele>
        <time>2025-05-16T11:09:39Z</time>
      </trkpt>
      <trkpt lat="43.408935992047191" lon="3.705032039433718">
        <ele>6.87</ele>
        <time>2025-05-16T11:09:40Z</time>
      </trkpt>
      <trkpt lat="43.408958958461881" lon="3.70514796115458">
        <ele>6.39</ele>
        <time>2025-05-16T11:09:41Z</time>
      </trkpt>
      <trkpt lat="43.408973962068558" lon="3.705223985016346">
        <ele>6.39</ele>
        <time>2025-05-16T11:09:42Z</time>
      </trkpt>
      <trkpt lat="43.408948983997107" lon="3.705346025526524">
        <ele>6.87</ele>
        <time>2025-05-16T11:09:43Z</time>
      </trkpt>
      <trkpt lat="43.408920988440514" lon="3.705438980832696">
        <ele>6.87</ele>
        <time>2025-05-16T11:09:44Z</time>
      </trkpt>
      <trkpt lat="43.40889098122716" lon="3.705541994422674">
        <ele>6.87</ele>
        <time>2025-05-16T11:09:45Z</time>
      </trkpt>
      <trkpt lat="43.408858040347695" lon="3.705651964992285">
        <ele>6.87</ele>
        <time>2025-05-16T11:09:46Z</time>
      </trkpt>
      <trkpt lat="43.408742034807801" lon="3.706039963290095">
        <ele>6.87</ele>
        <time>2025-05-16T11:09:50Z</time>
      </trkpt>
      <trkpt lat="43.408711021766067" lon="3.706109030172229">
        <ele>7.35</ele>
        <time>2025-05-16T11:09:51Z</time>
      </trkpt>
      <trkpt lat="43.40867598541081" lon="3.706186981871724">
        <ele>7.35</ele>
        <time>2025-05-16T11:09:52Z</time>
      </trkpt>
      <trkpt lat="43.408523015677929" lon="3.706523012369871">
        <ele>8.789999999999999</ele>
        <time>2025-05-16T11:09:57Z</time>
      </trkpt>
      <trkpt lat="43.408421007916331" lon="3.706748988479376">
        <ele>11.19</ele>
        <time>2025-05-16T11:10:03Z</time>
      </trkpt>
      <trkpt lat="43.408421007916331" lon="3.706748988479376">
        <ele>11.19</ele>
        <time>2025-05-16T11:10:04Z</time>
      </trkpt>
      <trkpt lat="43.408421007916331" lon="3.706748988479376">
        <ele>11.67</ele>
        <time>2025-05-16T11:10:05Z</time>
      </trkpt>
      <trkpt lat="43.408427964895964" lon="3.706760974600911">
        <ele>12.15</ele>
        <time>2025-05-16T11:10:06Z</time>
      </trkpt>
      <trkpt lat="43.408421007916331" lon="3.706747982650995">
        <ele>12.15</ele>
        <time>2025-05-16T11:10:07Z</time>
      </trkpt>
      <trkpt lat="43.408679002895951" lon="3.706179019063711">
        <ele>7.83</ele>
        <time>2025-05-16T11:10:13Z</time>
      </trkpt>
      <trkpt lat="43.408920988440514" lon="3.705439986661077">
        <ele>4.46</ele>
        <time>2025-05-16T11:10:21Z</time>
      </trkpt>
      <trkpt lat="43.408932974562049" lon="3.705401010811329">
        <ele>4.46</ele>
        <time>2025-05-16T11:10:28Z</time>
      </trkpt>
      <trkpt lat="43.40906398370862" lon="3.705289028584957">
        <ele>4.46</ele>
        <time>2025-05-16T11:10:38Z</time>
      </trkpt>
      <trkpt lat="43.409091979265213" lon="3.705256003886461">
        <ele>4.46</ele>
        <time>2025-05-16T11:10:39Z</time>
      </trkpt>
      <trkpt lat="43.409136990085244" lon="3.705202024430037">
        <ele>4.46</ele>
        <time>2025-05-16T11:10:40Z</time>
      </trkpt>
      <trkpt lat="43.409166997298598" lon="3.705131029710174">
        <ele>4.46</ele>
        <time>2025-05-16T11:10:41Z</time>
      </trkpt>
      <trkpt lat="43.409156017005444" lon="3.705066991969943">
        <ele>4.46</ele>
        <time>2025-05-16T11:10:42Z</time>
      </trkpt>
      <trkpt lat="43.409087033942342" lon="3.70501602999866">
        <ele>3.98</ele>
        <time>2025-05-16T11:10:43Z</time>
      </trkpt>
      <trkpt lat="43.409021990373731" lon="3.705000020563602">
        <ele>3.5</ele>
        <time>2025-05-16T11:10:44Z</time>
      </trkpt>
      <trkpt lat="43.40897798538208" lon="3.704989040270448">
        <ele>3.5</ele>
        <time>2025-05-16T11:10:45Z</time>
      </trkpt>
      <trkpt lat="43.408831972628832" lon="3.704962972551584">
        <ele>2.54</ele>
        <time>2025-05-16T11:10:47Z</time>
      </trkpt>
      <trkpt lat="43.408769024536014" lon="3.704922990873456">
        <ele>2.54</ele>
        <time>2025-05-16T11:10:48Z</time>
      </trkpt>
      <trkpt lat="43.408703980967402" lon="3.704882003366947">
        <ele>2.54</ele>
        <time>2025-05-16T11:10:49Z</time>
      </trkpt>
      <trkpt lat="43.408634997904301" lon="3.704839004203677">
        <ele>2.54</ele>
        <time>2025-05-16T11:10:50Z</time>
      </trkpt>
      <trkpt lat="43.408565009012818" lon="3.704786030575633">
        <ele>2.54</ele>
        <time>2025-05-16T11:10:51Z</time>
      </trkpt>
      <trkpt lat="43.408497031778097" lon="3.704734984785318">
        <ele>2.54</ele>
        <time>2025-05-16T11:10:52Z</time>
      </trkpt>
      <trkpt lat="43.408428970724344" lon="3.704684022814035">
        <ele>2.54</ele>
        <time>2025-05-16T11:10:53Z</time>
      </trkpt>
      <trkpt lat="43.408151026815176" lon="3.704475983977318">
        <ele>2.54</ele>
        <time>2025-05-16T11:11:00Z</time>
      </trkpt>
      <trkpt lat="43.407826982438564" lon="3.704256964847446">
        <ele>2.54</ele>
        <time>2025-05-16T11:11:07Z</time>
      </trkpt>
      <trkpt lat="43.407750958576798" lon="3.704204997047782">
        <ele>2.54</ele>
        <time>2025-05-16T11:11:08Z</time>
      </trkpt>
      <trkpt lat="43.407583991065621" lon="3.704087985679507">
        <ele>3.02</ele>
        <time>2025-05-16T11:11:10Z</time>
      </trkpt>
      <trkpt lat="43.407413000240922" lon="3.703971980139613">
        <ele>3.02</ele>
        <time>2025-05-16T11:11:12Z</time>
      </trkpt>
      <trkpt lat="43.4072379861027" lon="3.703853040933609">
        <ele>0.62</ele>
        <time>2025-05-16T11:11:14Z</time>
      </trkpt>
      <trkpt lat="43.407056014984846" lon="3.703729994595051">
        <ele>-0.82</ele>
        <time>2025-05-16T11:11:16Z</time>
      </trkpt>
      <trkpt lat="43.406826015561819" lon="3.703563027083874">
        <ele>-1.3</ele>
        <time>2025-05-16T11:11:19Z</time>
      </trkpt>
      <trkpt lat="43.406758960336447" lon="3.703510975465179">
        <ele>-1.3</ele>
        <time>2025-05-16T11:11:20Z</time>
      </trkpt>
      <trkpt lat="43.405938036739826" lon="3.702919967472553">
        <ele>-2.75</ele>
        <time>2025-05-16T11:11:31Z</time>
      </trkpt>
      <trkpt lat="43.405748018994927" lon="3.702793987467885">
        <ele>-2.75</ele>
        <time>2025-05-16T11:11:34Z</time>
      </trkpt>
      <trkpt lat="43.405679035931826" lon="3.702748976647854">
        <ele>-2.75</ele>
        <time>2025-05-16T11:11:35Z</time>
      </trkpt>
      <trkpt lat="43.405223982408643" lon="3.702448988333345">
        <ele>-5.15</ele>
        <time>2025-05-16T11:11:44Z</time>
      </trkpt>
      <trkpt lat="43.405189029872417" lon="3.702426021918654">
        <ele>-5.63</ele>
        <time>2025-05-16T11:11:45Z</time>
      </trkpt>
      <trkpt lat="43.40491603128612" lon="3.702171966433525">
        <ele>-5.15</ele>
        <time>2025-05-16T11:11:50Z</time>
      </trkpt>
      <trkpt lat="43.404888035729527" lon="3.702058978378773">
        <ele>-4.67</ele>
        <time>2025-05-16T11:11:51Z</time>
      </trkpt>
      <trkpt lat="43.404859034344554" lon="3.701941967010498">
        <ele>-4.19</ele>
        <time>2025-05-16T11:11:52Z</time>
      </trkpt>
      <trkpt lat="43.404764989390969" lon="3.701289016753435">
        <ele>1.1</ele>
        <time>2025-05-16T11:12:00Z</time>
      </trkpt>
      <trkpt lat="43.404750991612673" lon="3.701083995401859">
        <ele>2.06</ele>
        <time>2025-05-16T11:12:03Z</time>
      </trkpt>
      <trkpt lat="43.40474403463304" lon="3.700962038710713">
        <ele>2.54</ele>
        <time>2025-05-16T11:12:04Z</time>
      </trkpt>
      <trkpt lat="43.40472299605608" lon="3.700864976271987">
        <ele>2.54</ele>
        <time>2025-05-16T11:12:05Z</time>
      </trkpt>
      <trkpt lat="43.404704974964261" lon="3.700689040124416">
        <ele>2.54</ele>
        <time>2025-05-16T11:12:07Z</time>
      </trkpt>
      <trkpt lat="43.404693994671106" lon="3.700605975463986">
        <ele>2.54</ele>
        <time>2025-05-16T11:12:08Z</time>
      </trkpt>
      <trkpt lat="43.404685026034713" lon="3.700531963258982">
        <ele>2.54</ele>
        <time>2025-05-16T11:12:09Z</time>
      </trkpt>
      <trkpt lat="43.404675973579288" lon="3.700468009337783">
        <ele>2.54</ele>
        <time>2025-05-16T11:12:10Z</time>
      </trkpt>
      <trkpt lat="43.404669016599655" lon="3.700412018224597">
        <ele>2.54</ele>
        <time>2025-05-16T11:12:11Z</time>
      </trkpt>
      <trkpt lat="43.404644960537553" lon="3.700224012136459">
        <ele>2.54</ele>
        <time>2025-05-16T11:12:14Z</time>
      </trkpt>
      <trkpt lat="43.404609002172947" lon="3.699942966923118">
        <ele>2.06</ele>
        <time>2025-05-16T11:12:22Z</time>
      </trkpt>
      <trkpt lat="43.404606990516186" lon="3.699923017993569">
        <ele>2.06</ele>
        <time>2025-05-16T11:12:51Z</time>
      </trkpt>
      <trkpt lat="43.404598021879792" lon="3.699855040758848">
        <ele>1.58</ele>
        <time>2025-05-16T11:12:52Z</time>
      </trkpt>
      <trkpt lat="43.404585029929876" lon="3.69975202716887">
        <ele>2.06</ele>
        <time>2025-05-16T11:12:53Z</time>
      </trkpt>
      <trkpt lat="43.40457497164607" lon="3.699647001922131">
        <ele>2.06</ele>
        <time>2025-05-16T11:12:54Z</time>
      </trkpt>
      <trkpt lat="43.404567008838058" lon="3.699533008038998">
        <ele>2.54</ele>
        <time>2025-05-16T11:12:55Z</time>
      </trkpt>
      <trkpt lat="43.404506994411349" lon="3.69895700365305">
        <ele>2.54</ele>
        <time>2025-05-16T11:13:00Z</time>
      </trkpt>
      <trkpt lat="43.404471036046743" lon="3.69863597676158">
        <ele>2.54</ele>
        <time>2025-05-16T11:13:03Z</time>
      </trkpt>
      <trkpt lat="43.404459971934557" lon="3.698545033112168">
        <ele>2.54</ele>
        <time>2025-05-16T11:13:04Z</time>
      </trkpt>
      <trkpt lat="43.404387971386313" lon="3.697983026504517">
        <ele>1.1</ele>
        <time>2025-05-16T11:13:10Z</time>
      </trkpt>
      <trkpt lat="43.404375985264778" lon="3.697895016521215">
        <ele>0.62</ele>
        <time>2025-05-16T11:13:11Z</time>
      </trkpt>
      <trkpt lat="43.404361987486482" lon="3.697800971567631">
        <ele>0.14</ele>
        <time>2025-05-16T11:13:12Z</time>
      </trkpt>
      <trkpt lat="43.404346983879805" lon="3.697693012654781">
        <ele>-0.82</ele>
        <time>2025-05-16T11:13:13Z</time>
      </trkpt>
      <trkpt lat="43.404329968616366" lon="3.697573989629746">
        <ele>-0.82</ele>
        <time>2025-05-16T11:13:14Z</time>
      </trkpt>
      <trkpt lat="43.404313959181309" lon="3.697466030716896">
        <ele>-1.3</ele>
        <time>2025-05-16T11:13:15Z</time>
      </trkpt>
      <trkpt lat="43.404285041615367" lon="3.697290010750294">
        <ele>-1.3</ele>
        <time>2025-05-16T11:13:17Z</time>
      </trkpt>
      <trkpt lat="43.404189990833402" lon="3.69680997915566">
        <ele>1.58</ele>
        <time>2025-05-16T11:13:25Z</time>
      </trkpt>
      <trkpt lat="43.404189990833402" lon="3.69680997915566">
        <ele>1.58</ele>
        <time>2025-05-16T11:13:31Z</time>
      </trkpt>
      <trkpt lat="43.403766034170985" lon="3.696866976097226">
        <ele>3.98</ele>
        <time>2025-05-16T11:13:38Z</time>
      </trkpt>
      <trkpt lat="43.403018033131957" lon="3.697018017992377">
        <ele>3.98</ele>
        <time>2025-05-16T11:13:48Z</time>
      </trkpt>
      <trkpt lat="43.402436999604106" lon="3.697148021310568">
        <ele>3.98</ele>
        <time>2025-05-16T11:13:59Z</time>
      </trkpt>
      <trkpt lat="43.402329040691257" lon="3.697157995775342">
        <ele>4.46</ele>
        <time>2025-05-16T11:14:01Z</time>
      </trkpt>
      <trkpt lat="43.402219992130995" lon="3.697167970240116">
        <ele>4.46</ele>
        <time>2025-05-16T11:14:03Z</time>
      </trkpt>
      <trkpt lat="43.402124019339681" lon="3.697177022695541">
        <ele>4.46</ele>
        <time>2025-05-16T11:14:05Z</time>
      </trkpt>
      <trkpt lat="43.402075991034508" lon="3.697172999382019">
        <ele>3.98</ele>
        <time>2025-05-16T11:14:06Z</time>
      </trkpt>
      <trkpt lat="43.402027040719986" lon="3.697165036574006">
        <ele>3.98</ele>
        <time>2025-05-16T11:14:07Z</time>
      </trkpt>
      <trkpt lat="43.401978006586432" lon="3.697157995775342">
        <ele>3.98</ele>
        <time>2025-05-16T11:14:08Z</time>
      </trkpt>
      <trkpt lat="43.401926038786769" lon="3.697150032967329">
        <ele>3.98</ele>
        <time>2025-05-16T11:14:09Z</time>
      </trkpt>
      <trkpt lat="43.401832999661565" lon="3.697135029360652">
        <ele>4.46</ele>
        <time>2025-05-16T11:14:11Z</time>
      </trkpt>
      <trkpt lat="43.401790000498295" lon="3.697178028523922">
        <ele>4.94</ele>
        <time>2025-05-16T11:14:12Z</time>
      </trkpt>
      <trkpt lat="43.40175898745656" lon="3.697209963575006">
        <ele>5.42</ele>
        <time>2025-05-16T11:14:13Z</time>
      </trkpt>
      <trkpt lat="43.401747001335025" lon="3.697221027687192">
        <ele>6.39</ele>
        <time>2025-05-16T11:14:14Z</time>
      </trkpt>
      <trkpt lat="43.401747001335025" lon="3.697241982445121">
        <ele>7.35</ele>
        <time>2025-05-16T11:14:15Z</time>
      </trkpt>
      <trkpt lat="43.401747001335025" lon="3.697307026013732">
        <ele>8.310000000000001</ele>
        <time>2025-05-16T11:14:16Z</time>
      </trkpt>
      <trkpt lat="43.401747001335025" lon="3.697350025177002">
        <ele>8.789999999999999</ele>
        <time>2025-05-16T11:14:17Z</time>
      </trkpt>
      <trkpt lat="43.40175898745656" lon="3.697459995746613">
        <ele>9.27</ele>
        <time>2025-05-16T11:14:18Z</time>
      </trkpt>
      <trkpt lat="43.401768961921334" lon="3.697542976588011">
        <ele>9.27</ele>
        <time>2025-05-16T11:14:19Z</time>
      </trkpt>
      <trkpt lat="43.401768961921334" lon="3.69764699600637">
        <ele>9.27</ele>
        <time>2025-05-16T11:14:20Z</time>
      </trkpt>
      <trkpt lat="43.401780026033521" lon="3.697720002382994">
        <ele>9.75</ele>
        <time>2025-05-16T11:14:21Z</time>
      </trkpt>
      <trkpt lat="43.401792012155056" lon="3.697871966287494">
        <ele>10.23</ele>
        <time>2025-05-16T11:14:23Z</time>
      </trkpt>
      <trkpt lat="43.401796035468578" lon="3.698013033717871">
        <ele>10.710000000000001</ele>
        <time>2025-05-16T11:14:25Z</time>
      </trkpt>
      <trkpt lat="43.401806009933352" lon="3.698439002037048">
        <ele>11.67</ele>
        <time>2025-05-16T11:14:30Z</time>
      </trkpt>
      <trkpt lat="43.401807015761733" lon="3.698503039777279">
        <ele>11.67</ele>
        <time>2025-05-16T11:14:31Z</time>
      </trkpt>
      <trkpt lat="43.401809027418494" lon="3.698552995920181">
        <ele>11.67</ele>
        <time>2025-05-16T11:14:32Z</time>
      </trkpt>
      <trkpt lat="43.401810033246875" lon="3.698599012568593">
        <ele>11.19</ele>
        <time>2025-05-16T11:14:33Z</time>
      </trkpt>
      <trkpt lat="43.401811961084604" lon="3.69867998175323">
        <ele>11.19</ele>
        <time>2025-05-16T11:14:34Z</time>
      </trkpt>
      <trkpt lat="43.401842974126339" lon="3.69867998175323">
        <ele>10.710000000000001</ele>
        <time>2025-05-16T11:14:35Z</time>
      </trkpt>
      <trkpt lat="43.401892008259892" lon="3.698677970096469">
        <ele>10.710000000000001</ele>
        <time>2025-05-16T11:14:36Z</time>
      </trkpt>
      <trkpt lat="43.401940958574414" lon="3.698676964268088">
        <ele>10.23</ele>
        <time>2025-05-16T11:14:37Z</time>
      </trkpt>
      <trkpt lat="43.402003990486264" lon="3.698675036430359">
        <ele>10.23</ele>
        <time>2025-05-16T11:14:38Z</time>
      </trkpt>
      <trkpt lat="43.402076996862888" lon="3.698674030601978">
        <ele>10.23</ele>
        <time>2025-05-16T11:14:39Z</time>
      </trkpt>
      <trkpt lat="43.402627017349005" lon="3.698659026995301">
        <ele>7.83</ele>
        <time>2025-05-16T11:14:48Z</time>
      </trkpt>
      <trkpt lat="43.402657024562359" lon="3.698653997853398">
        <ele>7.35</ele>
        <time>2025-05-16T11:14:49Z</time>
      </trkpt>
      <trkpt lat="43.402701029554009" lon="3.698647040873766">
        <ele>7.35</ele>
        <time>2025-05-16T11:14:50Z</time>
      </trkpt>
      <trkpt lat="43.402999006211758" lon="3.698599012568593">
        <ele>7.83</ele>
        <time>2025-05-16T11:14:55Z</time>
      </trkpt>
      <trkpt lat="43.403053991496563" lon="3.698589960113168">
        <ele>7.83</ele>
        <time>2025-05-16T11:14:56Z</time>
      </trkpt>
      <trkpt lat="43.403254989534616" lon="3.698557019233704">
        <ele>8.789999999999999</ele>
        <time>2025-05-16T11:14:59Z</time>
      </trkpt>
      <trkpt lat="43.40332699008286" lon="3.698545033112168">
        <ele>9.27</ele>
        <time>2025-05-16T11:15:00Z</time>
      </trkpt>
      <trkpt lat="43.403393961489201" lon="3.698534974828363">
        <ele>9.27</ele>
        <time>2025-05-16T11:15:01Z</time>
      </trkpt>
      <trkpt lat="43.403572998940945" lon="3.698491975665093">
        <ele>10.23</ele>
        <time>2025-05-16T11:15:04Z</time>
      </trkpt>
      <trkpt lat="43.403625972568989" lon="3.698477977886796">
        <ele>10.710000000000001</ele>
        <time>2025-05-16T11:15:05Z</time>
      </trkpt>
      <trkpt lat="43.403681041672826" lon="3.6984639801085">
        <ele>10.710000000000001</ele>
        <time>2025-05-16T11:15:06Z</time>
      </trkpt>
      <trkpt lat="43.403850020840764" lon="3.69842098094523">
        <ele>11.19</ele>
        <time>2025-05-16T11:15:09Z</time>
      </trkpt>
      <trkpt lat="43.403902994468808" lon="3.698406983166933">
        <ele>11.19</ele>
        <time>2025-05-16T11:15:10Z</time>
      </trkpt>
      <trkpt lat="43.403962003067136" lon="3.698391979560256">
        <ele>11.19</ele>
        <time>2025-05-16T11:15:11Z</time>
      </trkpt>
      <trkpt lat="43.404140034690499" lon="3.698346968740225">
        <ele>11.67</ele>
        <time>2025-05-16T11:15:14Z</time>
      </trkpt>
      <trkpt lat="43.404198959469795" lon="3.698331965133548">
        <ele>11.67</ele>
        <time>2025-05-16T11:15:15Z</time>
      </trkpt>
      <trkpt lat="43.404243970289826" lon="3.698319979012013">
        <ele>11.67</ele>
        <time>2025-05-16T11:15:16Z</time>
      </trkpt>
      <trkpt lat="43.404270960018039" lon="3.69831302203238">
        <ele>11.19</ele>
        <time>2025-05-16T11:15:17Z</time>
      </trkpt>
      <trkpt lat="43.404270960018039" lon="3.69831302203238">
        <ele>11.19</ele>
        <time>2025-05-16T11:15:26Z</time>
      </trkpt>
      <trkpt lat="43.404278000816703" lon="3.698311010375619">
        <ele>11.19</ele>
        <time>2025-05-16T11:15:38Z</time>
      </trkpt>
      <trkpt lat="43.404313959181309" lon="3.698302041739225">
        <ele>10.710000000000001</ele>
        <time>2025-05-16T11:15:39Z</time>
      </trkpt>
      <trkpt lat="43.404365004971623" lon="3.698288965970278">
        <ele>10.710000000000001</ele>
        <time>2025-05-16T11:15:40Z</time>
      </trkpt>
      <trkpt lat="43.404426025226712" lon="3.698246972635388">
        <ele>10.710000000000001</ele>
        <time>2025-05-16T11:15:41Z</time>
      </trkpt>
      <trkpt lat="43.404416972771287" lon="3.69818695820868">
        <ele>10.23</ele>
        <time>2025-05-16T11:15:42Z</time>
      </trkpt>
      <trkpt lat="43.404406998306513" lon="3.698115041479468">
        <ele>10.23</ele>
        <time>2025-05-16T11:15:43Z</time>
      </trkpt>
      <trkpt lat="43.404395012184978" lon="3.698031976819038">
        <ele>9.75</ele>
        <time>2025-05-16T11:15:44Z</time>
      </trkpt>
      <trkpt lat="43.40435897000134" lon="3.697781022638083">
        <ele>8.310000000000001</ele>
        <time>2025-05-16T11:15:47Z</time>
      </trkpt>
      <trkpt lat="43.40420700609684" lon="3.696883991360664">
        <ele>4.46</ele>
        <time>2025-05-16T11:15:58Z</time>
      </trkpt>
      <trkpt lat="43.404193008318543" lon="3.696814002469182">
        <ele>4.46</ele>
        <time>2025-05-16T11:15:59Z</time>
      </trkpt>
      <trkpt lat="43.404151014983654" lon="3.696771003305912">
        <ele>4.46</ele>
        <time>2025-05-16T11:16:00Z</time>
      </trkpt>
      <trkpt lat="43.404117990285158" lon="3.696779971942306">
        <ele>4.46</ele>
        <time>2025-05-16T11:16:01Z</time>
      </trkpt>
      <trkpt lat="43.404052024707198" lon="3.696796987205744">
        <ele>4.46</ele>
        <time>2025-05-16T11:16:02Z</time>
      </trkpt>
      <trkpt lat="43.403290025889874" lon="3.696969989687204">
        <ele>4.46</ele>
        <time>2025-05-16T11:16:11Z</time>
      </trkpt>
      <trkpt lat="43.403057008981705" lon="3.697013994678855">
        <ele>3.98</ele>
        <time>2025-05-16T11:16:14Z</time>
      </trkpt>
      <trkpt lat="43.403007974848151" lon="3.697019023820758">
        <ele>3.98</ele>
        <time>2025-05-16T11:16:15Z</time>
      </trkpt>
      <trkpt lat="43.402974028140306" lon="3.697022963315249">
        <ele>3.5</ele>
        <time>2025-05-16T11:16:16Z</time>
      </trkpt>
      <trkpt lat="43.402927005663514" lon="3.697027992457151">
        <ele>3.02</ele>
        <time>2025-05-16T11:16:17Z</time>
      </trkpt>
      <trkpt lat="43.402927005663514" lon="3.697027992457151">
        <ele>2.54</ele>
        <time>2025-05-16T11:16:18Z</time>
      </trkpt>
      <trkpt lat="43.402927005663514" lon="3.697027992457151">
        <ele>2.06</ele>
        <time>2025-05-16T11:16:19Z</time>
      </trkpt>
      <trkpt lat="43.402890963479877" lon="3.69702598080039">
        <ele>2.06</ele>
        <time>2025-05-16T11:16:20Z</time>
      </trkpt>
      <trkpt lat="43.402864979580045" lon="3.69702497497201">
        <ele>1.58</ele>
        <time>2025-05-16T11:16:21Z</time>
      </trkpt>
      <trkpt lat="43.402553005144" lon="3.697008965536952">
        <ele>-0.34</ele>
        <time>2025-05-16T11:16:29Z</time>
      </trkpt>
      <trkpt lat="43.402479998767376" lon="3.696974013000727">
        <ele>-1.3</ele>
        <time>2025-05-16T11:16:31Z</time>
      </trkpt>
      <trkpt lat="43.402390982955694" lon="3.696898994967341">
        <ele>-1.79</ele>
        <time>2025-05-16T11:16:34Z</time>
      </trkpt>
      <trkpt lat="43.40238100849092" lon="3.6968959774822">
        <ele>-2.27</ele>
        <time>2025-05-16T11:16:35Z</time>
      </trkpt>
      <trkpt lat="43.402329962700605" lon="3.696878962218761">
        <ele>-2.27</ele>
        <time>2025-05-16T11:16:36Z</time>
      </trkpt>
      <trkpt lat="43.402282018214464" lon="3.696863036602736">
        <ele>-2.75</ele>
        <time>2025-05-16T11:16:37Z</time>
      </trkpt>
      <trkpt lat="43.402232984080911" lon="3.696847027167678">
        <ele>-3.71</ele>
        <time>2025-05-16T11:16:38Z</time>
      </trkpt>
      <trkpt lat="43.402185039594769" lon="3.69683101773262">
        <ele>-4.67</ele>
        <time>2025-05-16T11:16:39Z</time>
      </trkpt>
      <trkpt lat="43.402141034603119" lon="3.696816014125943">
        <ele>-5.15</ele>
        <time>2025-05-16T11:16:40Z</time>
      </trkpt>
      <trkpt lat="43.40210197493434" lon="3.696803022176027">
        <ele>-6.11</ele>
        <time>2025-05-16T11:16:41Z</time>
      </trkpt>
      <trkpt lat="43.401695033535361" lon="3.696682993322611">
        <ele>-12.84</ele>
        <time>2025-05-16T11:16:52Z</time>
      </trkpt>
      <trkpt lat="43.401464028283954" lon="3.696628008037806">
        <ele>-18.129999999999999</ele>
        <time>2025-05-16T11:17:03Z</time>
      </trkpt>
      <trkpt lat="43.401248026639223" lon="3.696564976125956">
        <ele>-22.449999999999999</ele>
        <time>2025-05-16T11:17:15Z</time>
      </trkpt>
      <trkpt lat="43.401248026639223" lon="3.696564976125956">
        <ele>-21.969999999999999</ele>
        <time>2025-05-16T11:17:30Z</time>
      </trkpt>
      <trkpt lat="43.401248026639223" lon="3.696564976125956">
        <ele>-22.449999999999999</ele>
        <time>2025-05-16T11:18:08Z</time>
      </trkpt>
      <trkpt lat="43.401175020262599" lon="3.696536980569363">
        <ele>-22.93</ele>
        <time>2025-05-16T11:18:22Z</time>
      </trkpt>
      <trkpt lat="43.401138978078961" lon="3.696523988619447">
        <ele>-22.449999999999999</ele>
        <time>2025-05-16T11:18:23Z</time>
      </trkpt>
      <trkpt lat="43.401101008057594" lon="3.69650999084115">
        <ele>-19.09</ele>
        <time>2025-05-16T11:18:24Z</time>
      </trkpt>
      <trkpt lat="43.401073012501001" lon="3.696499010547996">
        <ele>-16.690000000000001</ele>
        <time>2025-05-16T11:18:25Z</time>
      </trkpt>
      <trkpt lat="43.401045016944408" lon="3.696488030254841">
        <ele>-14.76</ele>
        <time>2025-05-16T11:18:26Z</time>
      </trkpt>
      <trkpt lat="43.401020038872957" lon="3.696478977799416">
        <ele>-11.880000000000001</ele>
        <time>2025-05-16T11:18:27Z</time>
      </trkpt>
      <trkpt lat="43.400995982810855" lon="3.696470009163022">
        <ele>-9.960000000000001</ele>
        <time>2025-05-16T11:18:28Z</time>
      </trkpt>
      <trkpt lat="43.400972010567784" lon="3.6964659858495">
        <ele>-8.51</ele>
        <time>2025-05-16T11:18:29Z</time>
      </trkpt>
      <trkpt lat="43.400947032496333" lon="3.696460034698248">
        <ele>-7.55</ele>
        <time>2025-05-16T11:18:30Z</time>
      </trkpt>
      <trkpt lat="43.400947032496333" lon="3.696460034698248">
        <ele>-6.59</ele>
        <time>2025-05-16T11:18:31Z</time>
      </trkpt>
      <trkpt lat="43.400947032496333" lon="3.696460034698248">
        <ele>-4.67</ele>
        <time>2025-05-16T11:18:44Z</time>
      </trkpt>
      <trkpt lat="43.400845024734735" lon="3.696436984464526">
        <ele>-3.71</ele>
        <time>2025-05-16T11:18:53Z</time>
      </trkpt>
      <trkpt lat="43.400722984224558" lon="3.696404965594411">
        <ele>-1.79</ele>
        <time>2025-05-16T11:19:06Z</time>
      </trkpt>
      <trkpt lat="43.400679985061288" lon="3.696392979472876">
        <ele>-1.79</ele>
        <time>2025-05-16T11:19:09Z</time>
      </trkpt>
      <trkpt lat="43.400655006989837" lon="3.696386022493243">
        <ele>-1.79</ele>
        <time>2025-05-16T11:19:10Z</time>
      </trkpt>
      <trkpt lat="43.400632040575147" lon="3.69637998752296">
        <ele>-1.3</ele>
        <time>2025-05-16T11:19:11Z</time>
      </trkpt>
      <trkpt lat="43.400613013654947" lon="3.696374958381057">
        <ele>-1.3</ele>
        <time>2025-05-16T11:19:12Z</time>
      </trkpt>
      <trkpt lat="43.400594992563128" lon="3.696370013058186">
        <ele>-0.82</ele>
        <time>2025-05-16T11:19:13Z</time>
      </trkpt>
      <trkpt lat="43.400578983128071" lon="3.696365989744663">
        <ele>-0.82</ele>
        <time>2025-05-16T11:19:14Z</time>
      </trkpt>
      <trkpt lat="43.400578983128071" lon="3.696365989744663">
        <ele>-0.82</ele>
        <time>2025-05-16T11:19:15Z</time>
      </trkpt>
      <trkpt lat="43.400594992563128" lon="3.696359032765031">
        <ele>23.210000000000001</ele>
        <time>2025-05-16T11:23:12Z</time>
      </trkpt>
      <trkpt lat="43.400559034198523" lon="3.69637998752296">
        <ele>12.630000000000001</ele>
        <time>2025-05-16T11:23:26Z</time>
      </trkpt>
      <trkpt lat="43.400249993428588" lon="3.696278985589743">
        <ele>9.75</ele>
        <time>2025-05-16T11:23:33Z</time>
      </trkpt>
      <trkpt lat="43.400109009817243" lon="3.696239003911614">
        <ele>8.789999999999999</ele>
        <time>2025-05-16T11:23:36Z</time>
      </trkpt>
      <trkpt lat="43.400050001218915" lon="3.696222994476557">
        <ele>8.310000000000001</ele>
        <time>2025-05-16T11:23:37Z</time>
      </trkpt>
      <trkpt lat="43.399994010105729" lon="3.696206985041499">
        <ele>7.83</ele>
        <time>2025-05-16T11:23:38Z</time>
      </trkpt>
      <trkpt lat="43.399935001507401" lon="3.696190975606442">
        <ele>7.35</ele>
        <time>2025-05-16T11:23:39Z</time>
      </trkpt>
      <trkpt lat="43.399869035929441" lon="3.696173038333654">
        <ele>6.87</ele>
        <time>2025-05-16T11:23:40Z</time>
      </trkpt>
      <trkpt lat="43.399809021502733" lon="3.696149988099933">
        <ele>6.39</ele>
        <time>2025-05-16T11:23:41Z</time>
      </trkpt>
      <trkpt lat="43.399736015126109" lon="3.696127021685243">
        <ele>5.42</ele>
        <time>2025-05-16T11:23:42Z</time>
      </trkpt>
      <trkpt lat="43.39952495880425" lon="3.696127021685243">
        <ele>5.91</ele>
        <time>2025-05-16T11:23:45Z</time>
      </trkpt>
      <trkpt lat="43.399455975741148" lon="3.696127021685243">
        <ele>5.91</ele>
        <time>2025-05-16T11:23:46Z</time>
      </trkpt>
      <trkpt lat="43.399348016828299" lon="3.696127021685243">
        <ele>9.75</ele>
        <time>2025-05-16T11:23:52Z</time>
      </trkpt>
      <trkpt lat="43.399280039593577" lon="3.696127021685243">
        <ele>11.67</ele>
        <time>2025-05-16T11:23:57Z</time>
      </trkpt>
      <trkpt lat="43.399272998794913" lon="3.696175971999764">
        <ele>11.19</ele>
        <time>2025-05-16T11:23:58Z</time>
      </trkpt>
      <trkpt lat="43.399257995188236" lon="3.696276973932982">
        <ele>11.67</ele>
        <time>2025-05-16T11:23:59Z</time>
      </trkpt>
      <trkpt lat="43.399291019886732" lon="3.696297006681562">
        <ele>12.15</ele>
        <time>2025-05-16T11:24:00Z</time>
      </trkpt>
      <trkpt lat="43.399346005171537" lon="3.696331959217787">
        <ele>11.67</ele>
        <time>2025-05-16T11:24:01Z</time>
      </trkpt>
      <trkpt lat="43.399409959092736" lon="3.696372024714947">
        <ele>11.19</ele>
        <time>2025-05-16T11:24:02Z</time>
      </trkpt>
      <trkpt lat="43.39954499155283" lon="3.696456011384726">
        <ele>9.75</ele>
        <time>2025-05-16T11:24:04Z</time>
      </trkpt>
      <trkpt lat="43.399600982666016" lon="3.696491969749332">
        <ele>9.27</ele>
        <time>2025-05-16T11:24:05Z</time>
      </trkpt>
      <trkpt lat="43.399662002921104" lon="3.696512002497912">
        <ele>8.789999999999999</ele>
        <time>2025-05-16T11:24:06Z</time>
      </trkpt>
      <trkpt lat="43.399713970720768" lon="3.696526000276208">
        <ele>8.789999999999999</ele>
        <time>2025-05-16T11:24:07Z</time>
      </trkpt>
      <trkpt lat="43.399771973490715" lon="3.696541003882885">
        <ele>8.789999999999999</ele>
        <time>2025-05-16T11:24:08Z</time>
      </trkpt>
      <trkpt lat="43.399838022887707" lon="3.696559024974704">
        <ele>8.310000000000001</ele>
        <time>2025-05-16T11:24:09Z</time>
      </trkpt>
      <trkpt lat="43.400050001218915" lon="3.696614010259509">
        <ele>7.83</ele>
        <time>2025-05-16T11:24:13Z</time>
      </trkpt>
      <trkpt lat="43.400097023695707" lon="3.696627002209425">
        <ele>7.83</ele>
        <time>2025-05-16T11:24:14Z</time>
      </trkpt>
      <trkpt lat="43.400267008692026" lon="3.696672013029456">
        <ele>6.87</ele>
        <time>2025-05-16T11:24:18Z</time>
      </trkpt>
      <trkpt lat="43.400439005345106" lon="3.696717023849487">
        <ele>7.83</ele>
        <time>2025-05-16T11:24:28Z</time>
      </trkpt>
      <trkpt lat="43.400536989793181" lon="3.696743007749319">
        <ele>8.789999999999999</ele>
        <time>2025-05-16T11:25:02Z</time>
      </trkpt>
      <trkpt lat="43.400599015876651" lon="3.696760023012757">
        <ele>8.310000000000001</ele>
        <time>2025-05-16T11:25:03Z</time>
      </trkpt>
      <trkpt lat="43.401440978050232" lon="3.697015000507236">
        <ele>7.35</ele>
        <time>2025-05-16T11:25:13Z</time>
      </trkpt>
      <trkpt lat="43.401695033535361" lon="3.697134023532271">
        <ele>6.87</ele>
        <time>2025-05-16T11:25:18Z</time>
      </trkpt>
      <trkpt lat="43.401723029091954" lon="3.697181968018413">
        <ele>6.87</ele>
        <time>2025-05-16T11:25:19Z</time>
      </trkpt>
      <trkpt lat="43.401747001335025" lon="3.697225973010063">
        <ele>6.87</ele>
        <time>2025-05-16T11:25:20Z</time>
      </trkpt>
      <trkpt lat="43.401747001335025" lon="3.697292022407055">
        <ele>6.87</ele>
        <time>2025-05-16T11:25:21Z</time>
      </trkpt>
      <trkpt lat="43.401748007163405" lon="3.697355976328254">
        <ele>6.87</ele>
        <time>2025-05-16T11:25:22Z</time>
      </trkpt>
      <trkpt lat="43.401794023811817" lon="3.697950001806021">
        <ele>7.35</ele>
        <time>2025-05-16T11:25:34Z</time>
      </trkpt>
      <trkpt lat="43.401795029640198" lon="3.697985038161278">
        <ele>7.35</ele>
        <time>2025-05-16T11:25:41Z</time>
      </trkpt>
      <trkpt lat="43.401796035468578" lon="3.698023008182645">
        <ele>7.35</ele>
        <time>2025-05-16T11:25:42Z</time>
      </trkpt>
      <trkpt lat="43.401798969134688" lon="3.698171032592654">
        <ele>7.35</ele>
        <time>2025-05-16T11:25:44Z</time>
      </trkpt>
      <trkpt lat="43.40180198661983" lon="3.698258036747575">
        <ele>7.35</ele>
        <time>2025-05-16T11:25:45Z</time>
      </trkpt>
      <trkpt lat="43.401802992448211" lon="3.698342023417354">
        <ele>7.35</ele>
        <time>2025-05-16T11:25:46Z</time>
      </trkpt>
      <trkpt lat="43.401805004104972" lon="3.69842198677361">
        <ele>7.35</ele>
        <time>2025-05-16T11:25:47Z</time>
      </trkpt>
      <trkpt lat="43.401807015761733" lon="3.698504967615008">
        <ele>7.35</ele>
        <time>2025-05-16T11:25:48Z</time>
      </trkpt>
      <trkpt lat="43.401810033246875" lon="3.698594989255071">
        <ele>7.35</ele>
        <time>2025-05-16T11:25:49Z</time>
      </trkpt>
      <trkpt lat="43.401812966912985" lon="3.698760028928518">
        <ele>6.87</ele>
        <time>2025-05-16T11:25:51Z</time>
      </trkpt>
      <trkpt lat="43.401814978569746" lon="3.698853990063071">
        <ele>6.39</ele>
        <time>2025-05-16T11:25:52Z</time>
      </trkpt>
      <trkpt lat="43.401816990226507" lon="3.69895800948143">
        <ele>6.39</ele>
        <time>2025-05-16T11:25:53Z</time>
      </trkpt>
      <trkpt lat="43.401825036853552" lon="3.699403004720807">
        <ele>5.42</ele>
        <time>2025-05-16T11:25:57Z</time>
      </trkpt>
      <trkpt lat="43.401826964691281" lon="3.699513981118798">
        <ele>4.94</ele>
        <time>2025-05-16T11:25:58Z</time>
      </trkpt>
      <trkpt lat="43.401828976348042" lon="3.699613977223635">
        <ele>4.46</ele>
        <time>2025-05-16T11:25:59Z</time>
      </trkpt>
      <trkpt lat="43.401829982176423" lon="3.699683966115117">
        <ele>3.98</ele>
        <time>2025-05-16T11:26:00Z</time>
      </trkpt>
      <trkpt lat="43.401830988004804" lon="3.699724031612277">
        <ele>3.5</ele>
        <time>2025-05-16T11:26:01Z</time>
      </trkpt>
      <trkpt lat="43.401831993833184" lon="3.699760995805264">
        <ele>3.5</ele>
        <time>2025-05-16T11:26:02Z</time>
      </trkpt>
      <trkpt lat="43.401831993833184" lon="3.69979795999825">
        <ele>3.02</ele>
        <time>2025-05-16T11:26:03Z</time>
      </trkpt>
      <trkpt lat="43.401920003816485" lon="3.69984095916152">
        <ele>3.02</ele>
        <time>2025-05-16T11:26:04Z</time>
      </trkpt>
      <trkpt lat="43.40197398327291" lon="3.699842970818281">
        <ele>3.5</ele>
        <time>2025-05-16T11:26:05Z</time>
      </trkpt>
      <trkpt lat="43.402038021013141" lon="3.699843976646662">
        <ele>3.5</ele>
        <time>2025-05-16T11:26:06Z</time>
      </trkpt>
      <trkpt lat="43.402109015733004" lon="3.699845988303423">
        <ele>3.5</ele>
        <time>2025-05-16T11:26:07Z</time>
      </trkpt>
      <trkpt lat="43.402512017637491" lon="3.699855962768197">
        <ele>3.02</ele>
        <time>2025-05-16T11:26:13Z</time>
      </trkpt>
      <trkpt lat="43.402570020407438" lon="3.699857974424958">
        <ele>3.02</ele>
        <time>2025-05-16T11:26:14Z</time>
      </trkpt>
      <trkpt lat="43.402621988207102" lon="3.699858980253339">
        <ele>3.02</ele>
        <time>2025-05-16T11:26:15Z</time>
      </trkpt>
      <trkpt lat="43.402670016512275" lon="3.6998609919101">
        <ele>2.54</ele>
        <time>2025-05-16T11:26:16Z</time>
      </trkpt>
      <trkpt lat="43.402678985148668" lon="3.699878007173538">
        <ele>2.54</ele>
        <time>2025-05-16T11:26:17Z</time>
      </trkpt>
      <trkpt lat="43.402703963220119" lon="3.699927963316441">
        <ele>2.54</ele>
        <time>2025-05-16T11:26:18Z</time>
      </trkpt>
      <trkpt lat="43.402732964605093" lon="3.699986971914768">
        <ele>2.06</ele>
        <time>2025-05-16T11:26:19Z</time>
      </trkpt>
      <trkpt lat="43.402737993746996" lon="3.700031982734799">
        <ele>1.58</ele>
        <time>2025-05-16T11:26:20Z</time>
      </trkpt>
      <trkpt lat="43.402744028717279" lon="3.700113035738468">
        <ele>1.58</ele>
        <time>2025-05-16T11:26:21Z</time>
      </trkpt>
      <trkpt lat="43.402815023437142" lon="3.700980981811881">
        <ele>-0.82</ele>
        <time>2025-05-16T11:26:29Z</time>
      </trkpt>
      <trkpt lat="43.402841007336974" lon="3.70106203481555">
        <ele>-0.82</ele>
        <time>2025-05-16T11:26:30Z</time>
      </trkpt>
      <trkpt lat="43.40289699845016" lon="3.70110503397882">
        <ele>-0.82</ele>
        <time>2025-05-16T11:26:31Z</time>
      </trkpt>
      <trkpt lat="43.402958018705249" lon="3.701101010665298">
        <ele>-0.82</ele>
        <time>2025-05-16T11:26:32Z</time>
      </trkpt>
      <trkpt lat="43.403034964576364" lon="3.701096987351775">
        <ele>-0.82</ele>
        <time>2025-05-16T11:26:33Z</time>
      </trkpt>
      <trkpt lat="43.403125992044806" lon="3.701092964038253">
        <ele>-0.82</ele>
        <time>2025-05-16T11:26:34Z</time>
      </trkpt>
      <trkpt lat="43.403622033074498" lon="3.701066980138421">
        <ele>-0.82</ele>
        <time>2025-05-16T11:26:40Z</time>
      </trkpt>
      <trkpt lat="43.403888996690512" lon="3.701052982360125">
        <ele>0.14</ele>
        <time>2025-05-16T11:26:44Z</time>
      </trkpt>
      <trkpt lat="43.403968960046768" lon="3.701048959046602">
        <ele>0.14</ele>
        <time>2025-05-16T11:26:45Z</time>
      </trkpt>
      <trkpt lat="43.404472041875124" lon="3.701040996238589">
        <ele>-1.79</ele>
        <time>2025-05-16T11:26:51Z</time>
      </trkpt>
      <trkpt lat="43.404539013281465" lon="3.701034039258957">
        <ele>-1.79</ele>
        <time>2025-05-16T11:26:52Z</time>
      </trkpt>
      <trkpt lat="43.40465703047812" lon="3.70102196931839">
        <ele>-2.75</ele>
        <time>2025-05-16T11:26:54Z</time>
      </trkpt>
      <trkpt lat="43.404688965529203" lon="3.701020963490009">
        <ele>-3.23</ele>
        <time>2025-05-16T11:26:55Z</time>
      </trkpt>
      <trkpt lat="43.404730958864093" lon="3.70106304064393">
        <ele>-3.23</ele>
        <time>2025-05-16T11:26:56Z</time>
      </trkpt>
      <trkpt lat="43.404750991612673" lon="3.701087012887001">
        <ele>-3.23</ele>
        <time>2025-05-16T11:26:57Z</time>
      </trkpt>
      <trkpt lat="43.404753003269434" lon="3.701202012598515">
        <ele>-2.75</ele>
        <time>2025-05-16T11:26:58Z</time>
      </trkpt>
      <trkpt lat="43.404769012704492" lon="3.701313994824886">
        <ele>-2.27</ele>
        <time>2025-05-16T11:26:59Z</time>
      </trkpt>
      <trkpt lat="43.404878983274102" lon="3.702023020014167">
        <ele>-0.34</ele>
        <time>2025-05-16T11:27:06Z</time>
      </trkpt>
      <trkpt lat="43.404905973002315" lon="3.702132990583777">
        <ele>-0.82</ele>
        <time>2025-05-16T11:27:07Z</time>
      </trkpt>
      <trkpt lat="43.4049619641155" lon="3.702239021658897">
        <ele>-0.82</ele>
        <time>2025-05-16T11:27:08Z</time>
      </trkpt>
      <trkpt lat="43.405033964663744" lon="3.702311022207141">
        <ele>-0.82</ele>
        <time>2025-05-16T11:27:09Z</time>
      </trkpt>
      <trkpt lat="43.405114011839032" lon="3.702376987785101">
        <ele>-0.82</ele>
        <time>2025-05-16T11:27:10Z</time>
      </trkpt>
      <trkpt lat="43.40519699268043" lon="3.702430967241526">
        <ele>-0.82</ele>
        <time>2025-05-16T11:27:11Z</time>
      </trkpt>
      <trkpt lat="43.405278967693448" lon="3.702485030516982">
        <ele>-0.34</ele>
        <time>2025-05-16T11:27:12Z</time>
      </trkpt>
      <trkpt lat="43.405358009040356" lon="3.702536998316646">
        <ele>-0.34</ele>
        <time>2025-05-16T11:27:13Z</time>
      </trkpt>
      <trkpt lat="43.405838962644339" lon="3.702854001894593">
        <ele>0.62</ele>
        <time>2025-05-16T11:27:19Z</time>
      </trkpt>
      <trkpt lat="43.406388983130455" lon="3.703246023505926">
        <ele>1.1</ele>
        <time>2025-05-16T11:27:25Z</time>
      </trkpt>
      <trkpt lat="43.407046040520072" lon="3.703723037615418">
        <ele>2.54</ele>
        <time>2025-05-16T11:27:34Z</time>
      </trkpt>
      <trkpt lat="43.40764501132071" lon="3.704130984842777">
        <ele>1.1</ele>
        <time>2025-05-16T11:27:42Z</time>
      </trkpt>
      <trkpt lat="43.407722963020205" lon="3.704184964299202">
        <ele>1.1</ele>
        <time>2025-05-16T11:27:43Z</time>
      </trkpt>
      <trkpt lat="43.407915998250246" lon="3.704315973445773">
        <ele>0.14</ele>
        <time>2025-05-16T11:27:46Z</time>
      </trkpt>
      <trkpt lat="43.408190002664924" lon="3.704504985362291">
        <ele>-0.34</ele>
        <time>2025-05-16T11:27:51Z</time>
      </trkpt>
      <trkpt lat="43.408585041761398" lon="3.70480103418231">
        <ele>0.14</ele>
        <time>2025-05-16T11:27:57Z</time>
      </trkpt>
      <trkpt lat="43.40869702398777" lon="3.704876974225044">
        <ele>0.14</ele>
        <time>2025-05-16T11:27:59Z</time>
      </trkpt>
      <trkpt lat="43.408806994557381" lon="3.704946041107178">
        <ele>0.62</ele>
        <time>2025-05-16T11:28:05Z</time>
      </trkpt>
      <trkpt lat="43.409064989537001" lon="3.705290034413338">
        <ele>1.58</ele>
        <time>2025-05-16T11:28:12Z</time>
      </trkpt>
      <trkpt lat="43.409133972600102" lon="3.705323981121182">
        <ele>2.06</ele>
        <time>2025-05-16T11:28:13Z</time>
      </trkpt>
      <trkpt lat="43.409288031980395" lon="3.705412996932864">
        <ele>2.06</ele>
        <time>2025-05-16T11:28:15Z</time>
      </trkpt>
      <trkpt lat="43.409347962588072" lon="3.705519028007984">
        <ele>2.54</ele>
        <time>2025-05-16T11:28:16Z</time>
      </trkpt>
      <trkpt lat="43.409404037520289" lon="3.70561701245606">
        <ele>2.54</ele>
        <time>2025-05-16T11:28:17Z</time>
      </trkpt>
      <trkpt lat="43.409464973956347" lon="3.70572698302567">
        <ele>2.54</ele>
        <time>2025-05-16T11:28:18Z</time>
      </trkpt>
      <trkpt lat="43.409534962847829" lon="3.705849023535848">
        <ele>2.54</ele>
        <time>2025-05-16T11:28:19Z</time>
      </trkpt>
      <trkpt lat="43.410200988873839" lon="3.707285011187196">
        <ele>2.54</ele>
        <time>2025-05-16T11:28:28Z</time>
      </trkpt>
      <trkpt lat="43.411109000444412" lon="3.70933698490262">
        <ele>3.02</ele>
        <time>2025-05-16T11:28:42Z</time>
      </trkpt>
      <trkpt lat="43.411777038127184" lon="3.710779007524252">
        <ele>3.98</ele>
        <time>2025-05-16T11:28:53Z</time>
      </trkpt>
      <trkpt lat="43.412166964262724" lon="3.711682995781303">
        <ele>4.46</ele>
        <time>2025-05-16T11:29:00Z</time>
      </trkpt>
      <trkpt lat="43.412219015881419" lon="3.711812999099493">
        <ele>4.94</ele>
        <time>2025-05-16T11:29:02Z</time>
      </trkpt>
      <trkpt lat="43.412292022258043" lon="3.711960017681122">
        <ele>4.94</ele>
        <time>2025-05-16T11:29:03Z</time>
      </trkpt>
      <trkpt lat="43.412380032241344" lon="3.712141988798976">
        <ele>5.42</ele>
        <time>2025-05-16T11:29:05Z</time>
      </trkpt>
      <trkpt lat="43.412430994212627" lon="3.712248019874096">
        <ele>5.42</ele>
        <time>2025-05-16T11:29:06Z</time>
      </trkpt>
      <trkpt lat="43.413030970841646" lon="3.713507987558842">
        <ele>5.42</ele>
        <time>2025-05-16T11:29:16Z</time>
      </trkpt>
      <trkpt lat="43.414165964350104" lon="3.715979978442192">
        <ele>5.42</ele>
        <time>2025-05-16T11:29:33Z</time>
      </trkpt>
      <trkpt lat="43.414299990981817" lon="3.716276027262211">
        <ele>5.42</ele>
        <time>2025-05-16T11:29:35Z</time>
      </trkpt>
      <trkpt lat="43.414400992915034" lon="3.716563023626804">
        <ele>5.42</ele>
        <time>2025-05-16T11:29:37Z</time>
      </trkpt>
      <trkpt lat="43.414436029270291" lon="3.716680034995079">
        <ele>5.91</ele>
        <time>2025-05-16T11:29:38Z</time>
      </trkpt>
      <trkpt lat="43.414420019835234" lon="3.716888995841146">
        <ele>5.91</ele>
        <time>2025-05-16T11:29:40Z</time>
      </trkpt>
      <trkpt lat="43.414450027048588" lon="3.7169190030545">
        <ele>5.42</ele>
        <time>2025-05-16T11:29:41Z</time>
      </trkpt>
      <trkpt lat="43.414573995396495" lon="3.71694004163146">
        <ele>5.42</ele>
        <time>2025-05-16T11:29:42Z</time>
      </trkpt>
      <trkpt lat="43.414668962359428" lon="3.717102985829115">
        <ele>5.42</ele>
        <time>2025-05-16T11:29:44Z</time>
      </trkpt>
      <trkpt lat="43.414733000099659" lon="3.717211028560996">
        <ele>5.42</ele>
        <time>2025-05-16T11:29:45Z</time>
      </trkpt>
      <trkpt lat="43.414793014526367" lon="3.717332985252142">
        <ele>5.42</ele>
        <time>2025-05-16T11:29:46Z</time>
      </trkpt>
      <trkpt lat="43.414855040609837" lon="3.717470029368997">
        <ele>5.42</ele>
        <time>2025-05-16T11:29:47Z</time>
      </trkpt>
      <trkpt lat="43.414921006187797" lon="3.717613024637103">
        <ele>5.42</ele>
        <time>2025-05-16T11:29:48Z</time>
      </trkpt>
      <trkpt lat="43.414987977594137" lon="3.717760965228081">
        <ele>5.42</ele>
        <time>2025-05-16T11:29:49Z</time>
      </trkpt>
      <trkpt lat="43.415853995829821" lon="3.719672961160541">
        <ele>5.42</ele>
        <time>2025-05-16T11:30:02Z</time>
      </trkpt>
      <trkpt lat="43.416739040985703" lon="3.721614964306355">
        <ele>6.87</ele>
        <time>2025-05-16T11:30:15Z</time>
      </trkpt>
      <trkpt lat="43.41729199513793" lon="3.723029997199774">
        <ele>9.75</ele>
        <time>2025-05-16T11:30:22Z</time>
      </trkpt>
      <trkpt lat="43.417333988472819" lon="3.723232001066208">
        <ele>10.710000000000001</ele>
        <time>2025-05-16T11:30:23Z</time>
      </trkpt>
      <trkpt lat="43.417366007342935" lon="3.723416989669204">
        <ele>11.19</ele>
        <time>2025-05-16T11:30:24Z</time>
      </trkpt>
      <trkpt lat="43.417338011786342" lon="3.723589992150664">
        <ele>11.67</ele>
        <time>2025-05-16T11:30:25Z</time>
      </trkpt>
      <trkpt lat="43.41731496155262" lon="3.723738016560674">
        <ele>12.15</ele>
        <time>2025-05-16T11:30:26Z</time>
      </trkpt>
      <trkpt lat="43.417279003188014" lon="3.7238609790802">
        <ele>12.630000000000001</ele>
        <time>2025-05-16T11:30:27Z</time>
      </trkpt>
      <trkpt lat="43.417233992367983" lon="3.723958041518927">
        <ele>13.119999999999999</ele>
        <time>2025-05-16T11:30:28Z</time>
      </trkpt>
      <trkpt lat="43.417189987376332" lon="3.724050996825099">
        <ele>13.6</ele>
        <time>2025-05-16T11:30:29Z</time>
      </trkpt>
      <trkpt lat="43.417113041505218" lon="3.724146969616413">
        <ele>13.6</ele>
        <time>2025-05-16T11:30:30Z</time>
      </trkpt>
      <trkpt lat="43.417026959359646" lon="3.724183011800051">
        <ele>14.08</ele>
        <time>2025-05-16T11:30:31Z</time>
      </trkpt>
      <trkpt lat="43.416936015710235" lon="3.724218970164657">
        <ele>14.08</ele>
        <time>2025-05-16T11:30:32Z</time>
      </trkpt>
      <trkpt lat="43.416676009073853" lon="3.724349979311228">
        <ele>14.56</ele>
        <time>2025-05-16T11:30:35Z</time>
      </trkpt>
      <trkpt lat="43.416599985212088" lon="3.724424997344613">
        <ele>14.56</ele>
        <time>2025-05-16T11:30:36Z</time>
      </trkpt>
      <trkpt lat="43.416539970785379" lon="3.724513007327914">
        <ele>14.56</ele>
        <time>2025-05-16T11:30:37Z</time>
      </trkpt>
      <trkpt lat="43.416480962187052" lon="3.724619960412383">
        <ele>14.08</ele>
        <time>2025-05-16T11:30:38Z</time>
      </trkpt>
      <trkpt lat="43.416453972458839" lon="3.724735965952277">
        <ele>14.08</ele>
        <time>2025-05-16T11:30:39Z</time>
      </trkpt>
      <trkpt lat="43.416435029357672" lon="3.724872004240751">
        <ele>14.08</ele>
        <time>2025-05-16T11:30:40Z</time>
      </trkpt>
      <trkpt lat="43.416448021307588" lon="3.725006030872464">
        <ele>14.08</ele>
        <time>2025-05-16T11:30:41Z</time>
      </trkpt>
      <trkpt lat="43.416498983278871" lon="3.725139973685145">
        <ele>14.08</ele>
        <time>2025-05-16T11:30:42Z</time>
      </trkpt>
      <trkpt lat="43.416566960513592" lon="3.725258996710181">
        <ele>14.08</ele>
        <time>2025-05-16T11:30:43Z</time>
      </trkpt>
      <trkpt lat="43.416659999638796" lon="3.725352035835385">
        <ele>14.56</ele>
        <time>2025-05-16T11:30:44Z</time>
      </trkpt>
      <trkpt lat="43.416724959388375" lon="3.725416995584965">
        <ele>14.56</ele>
        <time>2025-05-16T11:30:45Z</time>
      </trkpt>
      <trkpt lat="43.416800983250141" lon="3.725579017773271">
        <ele>14.56</ele>
        <time>2025-05-16T11:30:46Z</time>
      </trkpt>
      <trkpt lat="43.416868038475513" lon="3.725721007212997">
        <ele>14.56</ele>
        <time>2025-05-16T11:30:47Z</time>
      </trkpt>
      <trkpt lat="43.416940961033106" lon="3.725876994431019">
        <ele>14.56</ele>
        <time>2025-05-16T11:30:48Z</time>
      </trkpt>
      <trkpt lat="43.417021008208394" lon="3.726045973598957">
        <ele>14.56</ele>
        <time>2025-05-16T11:30:49Z</time>
      </trkpt>
      <trkpt lat="43.417985010892153" lon="3.728231973946095">
        <ele>8.310000000000001</ele>
        <time>2025-05-16T11:31:00Z</time>
      </trkpt>
      <trkpt lat="43.419126039370894" lon="3.731621028855443">
        <ele>6.39</ele>
        <time>2025-05-16T11:31:14Z</time>
      </trkpt>
      <trkpt lat="43.419872028753161" lon="3.733839970082045">
        <ele>5.91</ele>
        <time>2025-05-16T11:31:24Z</time>
      </trkpt>
      <trkpt lat="43.420992018654943" lon="3.736981004476547">
        <ele>4.94</ele>
        <time>2025-05-16T11:31:38Z</time>
      </trkpt>
      <trkpt lat="43.422145033255219" lon="3.740315996110439">
        <ele>4.94</ele>
        <time>2025-05-16T11:31:53Z</time>
      </trkpt>
      <trkpt lat="43.423276003450155" lon="3.743762969970703">
        <ele>4.94</ele>
        <time>2025-05-16T11:32:08Z</time>
      </trkpt>
      <trkpt lat="43.42410497367382" lon="3.746081991121173">
        <ele>5.42</ele>
        <time>2025-05-16T11:32:18Z</time>
      </trkpt>
      <trkpt lat="43.425168972462416" lon="3.748541995882988">
        <ele>8.789999999999999</ele>
        <time>2025-05-16T11:32:29Z</time>
      </trkpt>
      <trkpt lat="43.426333973184228" lon="3.75045801512897">
        <ele>11.67</ele>
        <time>2025-05-16T11:32:39Z</time>
      </trkpt>
      <trkpt lat="43.428317969664931" lon="3.752656001597643">
        <ele>5.91</ele>
        <time>2025-05-16T11:32:52Z</time>
      </trkpt>
      <trkpt lat="43.430041037499905" lon="3.754312014207244">
        <ele>4.94</ele>
        <time>2025-05-16T11:33:03Z</time>
      </trkpt>
      <trkpt lat="43.432077001780272" lon="3.755882028490305">
        <ele>4.94</ele>
        <time>2025-05-16T11:33:15Z</time>
      </trkpt>
      <trkpt lat="43.434172980487347" lon="3.757713977247477">
        <ele>5.91</ele>
        <time>2025-05-16T11:33:28Z</time>
      </trkpt>
      <trkpt lat="43.436599038541317" lon="3.760161995887756">
        <ele>5.91</ele>
        <time>2025-05-16T11:33:44Z</time>
      </trkpt>
      <trkpt lat="43.438181038945913" lon="3.761729998514056">
        <ele>5.91</ele>
        <time>2025-05-16T11:33:54Z</time>
      </trkpt>
      <trkpt lat="43.439795980229974" lon="3.762925006449223">
        <ele>5.91</ele>
        <time>2025-05-16T11:34:03Z</time>
      </trkpt>
      <trkpt lat="43.441759021952748" lon="3.763619028031826">
        <ele>6.87</ele>
        <time>2025-05-16T11:34:13Z</time>
      </trkpt>
      <trkpt lat="43.443767996504903" lon="3.763610981404781">
        <ele>10.23</ele>
        <time>2025-05-16T11:34:23Z</time>
      </trkpt>
      <trkpt lat="43.445729026570916" lon="3.762973034754396">
        <ele>11.67</ele>
        <time>2025-05-16T11:34:33Z</time>
      </trkpt>
      <trkpt lat="43.448075959458947" lon="3.762177005410194">
        <ele>5.91</ele>
        <time>2025-05-16T11:34:45Z</time>
      </trkpt>
      <trkpt lat="43.449459979310632" lon="3.762514963746071">
        <ele>4.94</ele>
        <time>2025-05-16T11:34:52Z</time>
      </trkpt>
      <trkpt lat="43.450709972530603" lon="3.763367990031838">
        <ele>4.94</ele>
        <time>2025-05-16T11:34:59Z</time>
      </trkpt>
      <trkpt lat="43.453727038577199" lon="3.766151033341885">
        <ele>5.42</ele>
        <time>2025-05-16T11:35:17Z</time>
      </trkpt>
      <trkpt lat="43.455991996452212" lon="3.767953980714083">
        <ele>5.42</ele>
        <time>2025-05-16T11:35:30Z</time>
      </trkpt>
      <trkpt lat="43.457939028739929" lon="3.768691001459956">
        <ele>4.94</ele>
        <time>2025-05-16T11:35:40Z</time>
      </trkpt>
      <trkpt lat="43.459946997463703" lon="3.768730983138084">
        <ele>7.83</ele>
        <time>2025-05-16T11:35:50Z</time>
      </trkpt>
      <trkpt lat="43.461901992559433" lon="3.768134023994207">
        <ele>12.15</ele>
        <time>2025-05-16T11:36:00Z</time>
      </trkpt>
      <trkpt lat="43.464487977325916" lon="3.766682026907802">
        <ele>8.789999999999999</ele>
        <time>2025-05-16T11:36:14Z</time>
      </trkpt>
      <trkpt lat="43.464804980903864" lon="3.766609020531178">
        <ele>8.789999999999999</ele>
        <time>2025-05-16T11:36:16Z</time>
      </trkpt>
      <trkpt lat="43.464958034455776" lon="3.76657297834754">
        <ele>8.310000000000001</ele>
        <time>2025-05-16T11:36:17Z</time>
      </trkpt>
      <trkpt lat="43.465111004188657" lon="3.766598962247372">
        <ele>8.310000000000001</ele>
        <time>2025-05-16T11:36:18Z</time>
      </trkpt>
      <trkpt lat="43.465257016941905" lon="3.766624024137855">
        <ele>7.83</ele>
        <time>2025-05-16T11:36:19Z</time>
      </trkpt>
      <trkpt lat="43.465394983068109" lon="3.766647996380925">
        <ele>7.83</ele>
        <time>2025-05-16T11:36:20Z</time>
      </trkpt>
      <trkpt lat="43.465520963072777" lon="3.766683032736182">
        <ele>7.35</ele>
        <time>2025-05-16T11:36:21Z</time>
      </trkpt>
      <trkpt lat="43.465746017172933" lon="3.766769031062722">
        <ele>7.35</ele>
        <time>2025-05-16T11:36:23Z</time>
      </trkpt>
      <trkpt lat="43.465836960822344" lon="3.766803983598948">
        <ele>7.35</ele>
        <time>2025-05-16T11:36:24Z</time>
      </trkpt>
      <trkpt lat="43.465906027704477" lon="3.76706600189209">
        <ele>7.35</ele>
        <time>2025-05-16T11:36:25Z</time>
      </trkpt>
      <trkpt lat="43.465979034081101" lon="3.767178989946842">
        <ele>7.35</ele>
        <time>2025-05-16T11:36:27Z</time>
      </trkpt>
      <trkpt lat="43.46606302075088" lon="3.767234981060028">
        <ele>7.35</ele>
        <time>2025-05-16T11:36:28Z</time>
      </trkpt>
      <trkpt lat="43.466178020462394" lon="3.767243027687073">
        <ele>7.83</ele>
        <time>2025-05-16T11:36:29Z</time>
      </trkpt>
      <trkpt lat="43.466264018788934" lon="3.767170021310449">
        <ele>8.310000000000001</ele>
        <time>2025-05-16T11:36:30Z</time>
      </trkpt>
      <trkpt lat="43.466329984366894" lon="3.767092991620302">
        <ele>8.310000000000001</ele>
        <time>2025-05-16T11:36:31Z</time>
      </trkpt>
      <trkpt lat="43.466352028772235" lon="3.766966005787253">
        <ele>8.789999999999999</ele>
        <time>2025-05-16T11:36:32Z</time>
      </trkpt>
      <trkpt lat="43.466355968266726" lon="3.76693700440228">
        <ele>9.27</ele>
        <time>2025-05-16T11:36:33Z</time>
      </trkpt>
      <trkpt lat="43.466489994898438" lon="3.766684038564563">
        <ele>9.27</ele>
        <time>2025-05-16T11:36:34Z</time>
      </trkpt>
      <trkpt lat="43.466610023751855" lon="3.766602985560894">
        <ele>9.27</ele>
        <time>2025-05-16T11:36:35Z</time>
      </trkpt>
      <trkpt lat="43.466743966564536" lon="3.766511958092451">
        <ele>9.27</ele>
        <time>2025-05-16T11:36:36Z</time>
      </trkpt>
      <trkpt lat="43.466888973489404" lon="3.766413973644376">
        <ele>8.789999999999999</ele>
        <time>2025-05-16T11:36:37Z</time>
      </trkpt>
      <trkpt lat="43.467893041670322" lon="3.766014995053411">
        <ele>8.310000000000001</ele>
        <time>2025-05-16T11:36:43Z</time>
      </trkpt>
      <trkpt lat="43.468051040545106" lon="3.766014995053411">
        <ele>8.789999999999999</ele>
        <time>2025-05-16T11:36:44Z</time>
      </trkpt>
      <trkpt lat="43.468207027763128" lon="3.766033016145229">
        <ele>8.789999999999999</ele>
        <time>2025-05-16T11:36:45Z</time>
      </trkpt>
      <trkpt lat="43.468364020809531" lon="3.766059000045061">
        <ele>9.27</ele>
        <time>2025-05-16T11:36:46Z</time>
      </trkpt>
      <trkpt lat="43.468521013855934" lon="3.766097975894809">
        <ele>9.27</ele>
        <time>2025-05-16T11:36:47Z</time>
      </trkpt>
      <trkpt lat="43.468678006902337" lon="3.766171988099814">
        <ele>9.27</ele>
        <time>2025-05-16T11:36:48Z</time>
      </trkpt>
      <trkpt lat="43.468837011605501" lon="3.766247006133199">
        <ele>9.27</ele>
        <time>2025-05-16T11:36:49Z</time>
      </trkpt>
      <trkpt lat="43.46898403018713" lon="3.766361000016332">
        <ele>9.27</ele>
        <time>2025-05-16T11:36:50Z</time>
      </trkpt>
      <trkpt lat="43.46913599409163" lon="3.766481028869748">
        <ele>9.27</ele>
        <time>2025-05-16T11:36:51Z</time>
      </trkpt>
      <trkpt lat="43.469288041815162" lon="3.766601979732513">
        <ele>9.75</ele>
        <time>2025-05-16T11:36:52Z</time>
      </trkpt>
      <trkpt lat="43.470857972279191" lon="3.767846021801233">
        <ele>11.19</ele>
        <time>2025-05-16T11:37:03Z</time>
      </trkpt>
      <trkpt lat="43.472522031515837" lon="3.769223000854254">
        <ele>10.710000000000001</ele>
        <time>2025-05-16T11:37:14Z</time>
      </trkpt>
      <trkpt lat="43.473953995853662" lon="3.770207036286593">
        <ele>13.6</ele>
        <time>2025-05-16T11:37:23Z</time>
      </trkpt>
      <trkpt lat="43.475466007366776" lon="3.770792009308934">
        <ele>12.630000000000001</ele>
        <time>2025-05-16T11:37:32Z</time>
      </trkpt>
      <trkpt lat="43.477833978831768" lon="3.771794987842441">
        <ele>10.710000000000001</ele>
        <time>2025-05-16T11:37:46Z</time>
      </trkpt>
      <trkpt lat="43.480273028835654" lon="3.772770976647735">
        <ele>11.19</ele>
        <time>2025-05-16T11:38:00Z</time>
      </trkpt>
      <trkpt lat="43.481537019833922" lon="3.772887988016009">
        <ele>11.67</ele>
        <time>2025-05-16T11:38:07Z</time>
      </trkpt>
      <trkpt lat="43.48329596221447" lon="3.772753039374948">
        <ele>8.310000000000001</ele>
        <time>2025-05-16T11:38:17Z</time>
      </trkpt>
      <trkpt lat="43.4857879858464" lon="3.77252496778965">
        <ele>6.87</ele>
        <time>2025-05-16T11:38:30Z</time>
      </trkpt>
      <trkpt lat="43.488345975056291" lon="3.772453973069787">
        <ele>7.83</ele>
        <time>2025-05-16T11:38:43Z</time>
      </trkpt>
      <trkpt lat="43.488552002236247" lon="3.772520022466779">
        <ele>7.83</ele>
        <time>2025-05-16T11:38:44Z</time>
      </trkpt>
      <trkpt lat="43.488750988617539" lon="3.77260803245008">
        <ele>7.35</ele>
        <time>2025-05-16T11:38:45Z</time>
      </trkpt>
      <trkpt lat="43.490817965939641" lon="3.773915022611618">
        <ele>8.789999999999999</ele>
        <time>2025-05-16T11:38:56Z</time>
      </trkpt>
      <trkpt lat="43.493637973442674" lon="3.7757240049541">
        <ele>16.48</ele>
        <time>2025-05-16T11:39:11Z</time>
      </trkpt>
      <trkpt lat="43.495073961094022" lon="3.776662023738027">
        <ele>19.84</ele>
        <time>2025-05-16T11:39:19Z</time>
      </trkpt>
      <trkpt lat="43.49620602093637" lon="3.777601970359683">
        <ele>19.84</ele>
        <time>2025-05-16T11:39:25Z</time>
      </trkpt>
      <trkpt lat="43.496380029246211" lon="3.777821995317936">
        <ele>19.84</ele>
        <time>2025-05-16T11:39:26Z</time>
      </trkpt>
      <trkpt lat="43.497492978349328" lon="3.779776990413666">
        <ele>18.399999999999999</ele>
        <time>2025-05-16T11:39:34Z</time>
      </trkpt>
      <trkpt lat="43.498799968510866" lon="3.782317964360118">
        <ele>11.67</ele>
        <time>2025-05-16T11:39:45Z</time>
      </trkpt>
      <trkpt lat="43.500264035537839" lon="3.785101007670164">
        <ele>9.27</ele>
        <time>2025-05-16T11:39:58Z</time>
      </trkpt>
      <trkpt lat="43.500712970271707" lon="3.785924026742578">
        <ele>11.19</ele>
        <time>2025-05-16T11:40:04Z</time>
      </trkpt>
      <trkpt lat="43.500768961384892" lon="3.786040032282472">
        <ele>11.19</ele>
        <time>2025-05-16T11:40:05Z</time>
      </trkpt>
      <trkpt lat="43.500819001346827" lon="3.786161988973618">
        <ele>10.710000000000001</ele>
        <time>2025-05-16T11:40:06Z</time>
      </trkpt>
      <trkpt lat="43.50082796998322" lon="3.786265002563596">
        <ele>10.23</ele>
        <time>2025-05-16T11:40:07Z</time>
      </trkpt>
      <trkpt lat="43.500798968598247" lon="3.786439010873437">
        <ele>10.23</ele>
        <time>2025-05-16T11:40:08Z</time>
      </trkpt>
      <trkpt lat="43.500736020505428" lon="3.786502964794636">
        <ele>9.27</ele>
        <time>2025-05-16T11:40:09Z</time>
      </trkpt>
      <trkpt lat="43.500658990815282" lon="3.786578988656402">
        <ele>8.789999999999999</ele>
        <time>2025-05-16T11:40:10Z</time>
      </trkpt>
      <trkpt lat="43.500577015802264" lon="3.786664986982942">
        <ele>7.83</ele>
        <time>2025-05-16T11:40:11Z</time>
      </trkpt>
      <trkpt lat="43.50048397667706" lon="3.786763977259398">
        <ele>6.87</ele>
        <time>2025-05-16T11:40:12Z</time>
      </trkpt>
      <trkpt lat="43.499519973993301" lon="3.787755975499749">
        <ele>3.02</ele>
        <time>2025-05-16T11:40:20Z</time>
      </trkpt>
      <trkpt lat="43.499370021745563" lon="3.78788698464632">
        <ele>3.02</ele>
        <time>2025-05-16T11:40:21Z</time>
      </trkpt>
      <trkpt lat="43.497932022437453" lon="3.78936898894608">
        <ele>3.5</ele>
        <time>2025-05-16T11:40:31Z</time>
      </trkpt>
      <trkpt lat="43.497026022523642" lon="3.790786033496261">
        <ele>3.02</ele>
        <time>2025-05-16T11:40:39Z</time>
      </trkpt>
      <trkpt lat="43.496218007057905" lon="3.79267699085176">
        <ele>4.46</ele>
        <time>2025-05-16T11:40:47Z</time>
      </trkpt>
      <trkpt lat="43.495433041825891" lon="3.794220015406609">
        <ele>9.27</ele>
        <time>2025-05-16T11:40:55Z</time>
      </trkpt>
      <trkpt lat="43.494909005239606" lon="3.795218970626593">
        <ele>5.91</ele>
        <time>2025-05-16T11:41:01Z</time>
      </trkpt>
      <trkpt lat="43.494852008298039" lon="3.795326007530093">
        <ele>5.42</ele>
        <time>2025-05-16T11:41:02Z</time>
      </trkpt>
      <trkpt lat="43.494843039661646" lon="3.795345034450293">
        <ele>4.94</ele>
        <time>2025-05-16T11:41:03Z</time>
      </trkpt>
      <trkpt lat="43.494904981926084" lon="3.795515019446611">
        <ele>4.46</ele>
        <time>2025-05-16T11:41:04Z</time>
      </trkpt>
      <trkpt lat="43.494946975260973" lon="3.795508984476328">
        <ele>3.98</ele>
        <time>2025-05-16T11:41:05Z</time>
      </trkpt>
      <trkpt lat="43.495009001344442" lon="3.795499010011554">
        <ele>3.5</ele>
        <time>2025-05-16T11:41:06Z</time>
      </trkpt>
      <trkpt lat="43.495087036862969" lon="3.795486018061638">
        <ele>3.02</ele>
        <time>2025-05-16T11:41:07Z</time>
      </trkpt>
      <trkpt lat="43.495186027139425" lon="3.795479983091354">
        <ele>2.54</ele>
        <time>2025-05-16T11:41:08Z</time>
      </trkpt>
      <trkpt lat="43.496184982359409" lon="3.795589031651616">
        <ele>2.54</ele>
        <time>2025-05-16T11:41:15Z</time>
      </trkpt>
      <trkpt lat="43.49732500500977" lon="3.795822970569134">
        <ele>2.06</ele>
        <time>2025-05-16T11:41:21Z</time>
      </trkpt>
      <trkpt lat="43.497509993612766" lon="3.795904023572803">
        <ele>1.58</ele>
        <time>2025-05-16T11:41:22Z</time>
      </trkpt>
      <trkpt lat="43.497662963345647" lon="3.796055987477303">
        <ele>0.62</ele>
        <time>2025-05-16T11:41:23Z</time>
      </trkpt>
      <trkpt lat="43.497822973877192" lon="3.796214992180467">
        <ele>0.14</ele>
        <time>2025-05-16T11:41:24Z</time>
      </trkpt>
      <trkpt lat="43.497984996065497" lon="3.796377014368773">
        <ele>-0.34</ele>
        <time>2025-05-16T11:41:25Z</time>
      </trkpt>
      <trkpt lat="43.499372033402324" lon="3.798060016706586">
        <ele>0.14</ele>
        <time>2025-05-16T11:41:34Z</time>
      </trkpt>
      <trkpt lat="43.501280006021261" lon="3.800513986498117">
        <ele>2.06</ele>
        <time>2025-05-16T11:41:48Z</time>
      </trkpt>
      <trkpt lat="43.503155037760735" lon="3.803029982373118">
        <ele>3.98</ele>
        <time>2025-05-16T11:42:01Z</time>
      </trkpt>
      <trkpt lat="43.505464000627398" lon="3.806127011775971">
        <ele>4.46</ele>
        <time>2025-05-16T11:42:17Z</time>
      </trkpt>
      <trkpt lat="43.506631013005972" lon="3.807877991348505">
        <ele>3.98</ele>
        <time>2025-05-16T11:42:26Z</time>
      </trkpt>
      <trkpt lat="43.507880000397563" lon="3.809996014460921">
        <ele>5.42</ele>
        <time>2025-05-16T11:42:36Z</time>
      </trkpt>
      <trkpt lat="43.509199982509017" lon="3.811442982405424">
        <ele>5.42</ele>
        <time>2025-05-16T11:42:45Z</time>
      </trkpt>
      <trkpt lat="43.510611997917295" lon="3.813156997784972">
        <ele>5.91</ele>
        <time>2025-05-16T11:42:54Z</time>
      </trkpt>
      <trkpt lat="43.512447969987988" lon="3.815606022253633">
        <ele>4.94</ele>
        <time>2025-05-16T11:43:07Z</time>
      </trkpt>
      <trkpt lat="43.514218982309103" lon="3.818008024245501">
        <ele>5.42</ele>
        <time>2025-05-16T11:43:20Z</time>
      </trkpt>
      <trkpt lat="43.51590902544558" lon="3.820295026525855">
        <ele>5.42</ele>
        <time>2025-05-16T11:43:32Z</time>
      </trkpt>
      <trkpt lat="43.517980026081204" lon="3.823128025978804">
        <ele>4.94</ele>
        <time>2025-05-16T11:43:47Z</time>
      </trkpt>
      <trkpt lat="43.519412996247411" lon="3.825028035789728">
        <ele>6.39</ele>
        <time>2025-05-16T11:43:57Z</time>
      </trkpt>
      <trkpt lat="43.521059034392238" lon="3.827345967292786">
        <ele>6.87</ele>
        <time>2025-05-16T11:44:09Z</time>
      </trkpt>
      <trkpt lat="43.521686000749469" lon="3.82907398045063">
        <ele>7.35</ele>
        <time>2025-05-16T11:44:16Z</time>
      </trkpt>
      <trkpt lat="43.522493010386825" lon="3.831797009333968">
        <ele>6.39</ele>
        <time>2025-05-16T11:44:27Z</time>
      </trkpt>
      <trkpt lat="43.523466987535357" lon="3.834712989628315">
        <ele>6.39</ele>
        <time>2025-05-16T11:44:39Z</time>
      </trkpt>
      <trkpt lat="43.524572979658842" lon="3.837842037901282">
        <ele>5.42</ele>
        <time>2025-05-16T11:44:52Z</time>
      </trkpt>
      <trkpt lat="43.525417037308216" lon="3.839370980858803">
        <ele>3.98</ele>
        <time>2025-05-16T11:44:59Z</time>
      </trkpt>
      <trkpt lat="43.526237960904837" lon="3.84060999378562">
        <ele>5.42</ele>
        <time>2025-05-16T11:45:05Z</time>
      </trkpt>
      <trkpt lat="43.527691969648004" lon="3.842834969982505">
        <ele>7.35</ele>
        <time>2025-05-16T11:45:16Z</time>
      </trkpt>
      <trkpt lat="43.52856301702559" lon="3.844546973705292">
        <ele>7.35</ele>
        <time>2025-05-16T11:45:24Z</time>
      </trkpt>
      <trkpt lat="43.529030978679657" lon="3.845661012455821">
        <ele>8.789999999999999</ele>
        <time>2025-05-16T11:45:31Z</time>
      </trkpt>
      <trkpt lat="43.529071966186166" lon="3.845774000510573">
        <ele>9.27</ele>
        <time>2025-05-16T11:45:32Z</time>
      </trkpt>
      <trkpt lat="43.529108008369803" lon="3.845872990787029">
        <ele>9.27</ele>
        <time>2025-05-16T11:45:33Z</time>
      </trkpt>
      <trkpt lat="43.529033996164799" lon="3.846072982996702">
        <ele>9.75</ele>
        <time>2025-05-16T11:45:34Z</time>
      </trkpt>
      <trkpt lat="43.529040031135082" lon="3.84611296467483">
        <ele>9.75</ele>
        <time>2025-05-16T11:45:35Z</time>
      </trkpt>
      <trkpt lat="43.529053023084998" lon="3.846206003800035">
        <ele>10.23</ele>
        <time>2025-05-16T11:45:36Z</time>
      </trkpt>
      <trkpt lat="43.529116977006197" lon="3.84630499407649">
        <ele>10.23</ele>
        <time>2025-05-16T11:45:37Z</time>
      </trkpt>
      <trkpt lat="43.529119994491339" lon="3.846309017390013">
        <ele>10.710000000000001</ele>
        <time>2025-05-16T11:45:38Z</time>
      </trkpt>
      <trkpt lat="43.529237005859613" lon="3.846451006829739">
        <ele>10.710000000000001</ele>
        <time>2025-05-16T11:45:39Z</time>
      </trkpt>
      <trkpt lat="43.529244968667626" lon="3.846557959914208">
        <ele>10.710000000000001</ele>
        <time>2025-05-16T11:45:40Z</time>
      </trkpt>
      <trkpt lat="43.529257038608193" lon="3.846678994596005">
        <ele>10.710000000000001</ele>
        <time>2025-05-16T11:45:41Z</time>
      </trkpt>
      <trkpt lat="43.529272964224219" lon="3.846814027056098">
        <ele>11.19</ele>
        <time>2025-05-16T11:45:42Z</time>
      </trkpt>
      <trkpt lat="43.529633972793818" lon="3.847947008907795">
        <ele>13.119999999999999</ele>
        <time>2025-05-16T11:45:49Z</time>
      </trkpt>
      <trkpt lat="43.530007973313332" lon="3.848583027720451">
        <ele>14.56</ele>
        <time>2025-05-16T11:45:54Z</time>
      </trkpt>
      <trkpt lat="43.530034963041544" lon="3.848724011331797">
        <ele>14.56</ele>
        <time>2025-05-16T11:45:55Z</time>
      </trkpt>
      <trkpt lat="43.530078968033195" lon="3.848953004926443">
        <ele>15.039999999999999</ele>
        <time>2025-05-16T11:45:57Z</time>
      </trkpt>
      <trkpt lat="43.530106963589787" lon="3.849099017679691">
        <ele>15.039999999999999</ele>
        <time>2025-05-16T11:45:58Z</time>
      </trkpt>
      <trkpt lat="43.530106963589787" lon="3.849099017679691">
        <ele>14.56</ele>
        <time>2025-05-16T11:46:00Z</time>
      </trkpt>
      <trkpt lat="43.530069999396801" lon="3.849266991019249">
        <ele>14.56</ele>
        <time>2025-05-16T11:46:01Z</time>
      </trkpt>
      <trkpt lat="43.530117021873593" lon="3.849304039031267">
        <ele>14.56</ele>
        <time>2025-05-16T11:46:02Z</time>
      </trkpt>
      <trkpt lat="43.530129007995129" lon="3.849313007667661">
        <ele>14.56</ele>
        <time>2025-05-16T11:46:03Z</time>
      </trkpt>
      <trkpt lat="43.530161026865244" lon="3.84924796409905">
        <ele>14.08</ele>
        <time>2025-05-16T11:46:04Z</time>
      </trkpt>
      <trkpt lat="43.530265968292952" lon="3.849185016006231">
        <ele>14.08</ele>
        <time>2025-05-16T11:46:05Z</time>
      </trkpt>
      <trkpt lat="43.530336963012815" lon="3.849185016006231">
        <ele>13.6</ele>
        <time>2025-05-16T11:46:06Z</time>
      </trkpt>
      <trkpt lat="43.530385997146368" lon="3.849185016006231">
        <ele>13.6</ele>
        <time>2025-05-16T11:46:07Z</time>
      </trkpt>
      <trkpt lat="43.530480964109302" lon="3.849261039867997">
        <ele>13.6</ele>
        <time>2025-05-16T11:46:08Z</time>
      </trkpt>
      <trkpt lat="43.530533015727997" lon="3.849342009052634">
        <ele>13.119999999999999</ele>
        <time>2025-05-16T11:46:09Z</time>
      </trkpt>
      <trkpt lat="43.530590012669563" lon="3.849446028470993">
        <ele>13.6</ele>
        <time>2025-05-16T11:46:10Z</time>
      </trkpt>
      <trkpt lat="43.531301971524954" lon="3.850616980344057">
        <ele>15.039999999999999</ele>
        <time>2025-05-16T11:46:19Z</time>
      </trkpt>
      <trkpt lat="43.53232498280704" lon="3.851985996589065">
        <ele>17.440000000000001</ele>
        <time>2025-05-16T11:46:30Z</time>
      </trkpt>
      <trkpt lat="43.532595969736576" lon="3.852436020970345">
        <ele>17.920000000000002</ele>
        <time>2025-05-16T11:46:35Z</time>
      </trkpt>
      <trkpt lat="43.532661013305187" lon="3.852682029828429">
        <ele>17.920000000000002</ele>
        <time>2025-05-16T11:46:38Z</time>
      </trkpt>
      <trkpt lat="43.532665958628058" lon="3.852714970707893">
        <ele>17.920000000000002</ele>
        <time>2025-05-16T11:46:39Z</time>
      </trkpt>
      <trkpt lat="43.532678028568625" lon="3.852787977084518">
        <ele>17.920000000000002</ele>
        <time>2025-05-16T11:46:40Z</time>
      </trkpt>
      <trkpt lat="43.532749023288488" lon="3.852827036753297">
        <ele>17.920000000000002</ele>
        <time>2025-05-16T11:46:41Z</time>
      </trkpt>
      <trkpt lat="43.532767966389656" lon="3.852831982076168">
        <ele>17.440000000000001</ele>
        <time>2025-05-16T11:46:42Z</time>
      </trkpt>
      <trkpt lat="43.532821023836732" lon="3.852743972092867">
        <ele>17.440000000000001</ele>
        <time>2025-05-16T11:46:43Z</time>
      </trkpt>
      <trkpt lat="43.532832004129887" lon="3.852725028991699">
        <ele>17.440000000000001</ele>
        <time>2025-05-16T11:46:44Z</time>
      </trkpt>
      <trkpt lat="43.532884977757931" lon="3.852568035945296">
        <ele>17.440000000000001</ele>
        <time>2025-05-16T11:46:45Z</time>
      </trkpt>
      <trkpt lat="43.532939041033387" lon="3.852497041225433">
        <ele>17.440000000000001</ele>
        <time>2025-05-16T11:46:46Z</time>
      </trkpt>
      <trkpt lat="43.532995032146573" lon="3.852422023192048">
        <ele>16.960000000000001</ele>
        <time>2025-05-16T11:46:47Z</time>
      </trkpt>
      <trkpt lat="43.53305202908814" lon="3.852345999330282">
        <ele>16.960000000000001</ele>
        <time>2025-05-16T11:46:48Z</time>
      </trkpt>
      <trkpt lat="43.533347994089127" lon="3.852059002965689">
        <ele>16.48</ele>
        <time>2025-05-16T11:46:52Z</time>
      </trkpt>
      <trkpt lat="43.533434998244047" lon="3.851992031559348">
        <ele>16</ele>
        <time>2025-05-16T11:46:53Z</time>
      </trkpt>
      <trkpt lat="43.533525019884109" lon="3.851921958848834">
        <ele>15.52</ele>
        <time>2025-05-16T11:46:54Z</time>
      </trkpt>
      <trkpt lat="43.53363499045372" lon="3.851905027404428">
        <ele>15.52</ele>
        <time>2025-05-16T11:46:55Z</time>
      </trkpt>
      <trkpt lat="43.533749990165234" lon="3.851898992434144">
        <ele>15.039999999999999</ele>
        <time>2025-05-16T11:46:56Z</time>
      </trkpt>
      <trkpt lat="43.533868007361889" lon="3.851893041282892">
        <ele>15.039999999999999</ele>
        <time>2025-05-16T11:46:57Z</time>
      </trkpt>
      <trkpt lat="43.533984012901783" lon="3.851897986605763">
        <ele>15.039999999999999</ele>
        <time>2025-05-16T11:46:58Z</time>
      </trkpt>
      <trkpt lat="43.534089038148522" lon="3.851964036002755">
        <ele>15.039999999999999</ele>
        <time>2025-05-16T11:46:59Z</time>
      </trkpt>
      <trkpt lat="43.534196997061372" lon="3.852033019065857">
        <ele>15.039999999999999</ele>
        <time>2025-05-16T11:47:00Z</time>
      </trkpt>
      <trkpt lat="43.534289030358195" lon="3.852132009342313">
        <ele>15.039999999999999</ele>
        <time>2025-05-16T11:47:01Z</time>
      </trkpt>
      <trkpt lat="43.534381985664368" lon="3.852235022932291">
        <ele>14.56</ele>
        <time>2025-05-16T11:47:02Z</time>
      </trkpt>
      <trkpt lat="43.534477958455682" lon="3.852340970188379">
        <ele>15.039999999999999</ele>
        <time>2025-05-16T11:47:03Z</time>
      </trkpt>
      <trkpt lat="43.534574015066028" lon="3.85244800709188">
        <ele>15.039999999999999</ele>
        <time>2025-05-16T11:47:04Z</time>
      </trkpt>
      <trkpt lat="43.5346669703722" lon="3.852555966004729">
        <ele>15.039999999999999</ele>
        <time>2025-05-16T11:47:05Z</time>
      </trkpt>
      <trkpt lat="43.535882011055946" lon="3.853963036090136">
        <ele>18.879999999999999</ele>
        <time>2025-05-16T11:47:18Z</time>
      </trkpt>
      <trkpt lat="43.53689999319613" lon="3.855085037648678">
        <ele>17.920000000000002</ele>
        <time>2025-05-16T11:47:27Z</time>
      </trkpt>
      <trkpt lat="43.537041982635856" lon="3.855175981298089">
        <ele>17.920000000000002</ele>
        <time>2025-05-16T11:47:28Z</time>
      </trkpt>
      <trkpt lat="43.537177015095949" lon="3.855259967967868">
        <ele>17.920000000000002</ele>
        <time>2025-05-16T11:47:29Z</time>
      </trkpt>
      <trkpt lat="43.537319004535675" lon="3.855300033465028">
        <ele>17.920000000000002</ele>
        <time>2025-05-16T11:47:30Z</time>
      </trkpt>
      <trkpt lat="43.537452025339007" lon="3.855338003486395">
        <ele>17.920000000000002</ele>
        <time>2025-05-16T11:47:31Z</time>
      </trkpt>
      <trkpt lat="43.537572976201773" lon="3.855373039841652">
        <ele>17.440000000000001</ele>
        <time>2025-05-16T11:47:32Z</time>
      </trkpt>
      <trkpt lat="43.537786966189742" lon="3.855433976277709">
        <ele>16.960000000000001</ele>
        <time>2025-05-16T11:47:34Z</time>
      </trkpt>
      <trkpt lat="43.537881011143327" lon="3.855460966005921">
        <ele>16.960000000000001</ele>
        <time>2025-05-16T11:47:35Z</time>
      </trkpt>
      <trkpt lat="43.537958040833473" lon="3.855534978210926">
        <ele>16.960000000000001</ele>
        <time>2025-05-16T11:47:36Z</time>
      </trkpt>
      <trkpt lat="43.538012020289898" lon="3.855618964880705">
        <ele>16.48</ele>
        <time>2025-05-16T11:47:37Z</time>
      </trkpt>
      <trkpt lat="43.53806097060442" lon="3.855697000399232">
        <ele>16.48</ele>
        <time>2025-05-16T11:47:38Z</time>
      </trkpt>
      <trkpt lat="43.538106987252831" lon="3.855769000947475">
        <ele>16</ele>
        <time>2025-05-16T11:47:39Z</time>
      </trkpt>
      <trkpt lat="43.538148980587721" lon="3.855833960697055">
        <ele>15.52</ele>
        <time>2025-05-16T11:47:40Z</time>
      </trkpt>
      <trkpt lat="43.538185022771358" lon="3.855891041457653">
        <ele>15.039999999999999</ele>
        <time>2025-05-16T11:47:41Z</time>
      </trkpt>
      <trkpt lat="43.538201032206416" lon="3.856012998148799">
        <ele>14.56</ele>
        <time>2025-05-16T11:47:42Z</time>
      </trkpt>
      <trkpt lat="43.538180999457836" lon="3.856092961505055">
        <ele>14.08</ele>
        <time>2025-05-16T11:47:43Z</time>
      </trkpt>
      <trkpt lat="43.538159960880876" lon="3.856176026165485">
        <ele>13.6</ele>
        <time>2025-05-16T11:47:44Z</time>
      </trkpt>
      <trkpt lat="43.538073040544987" lon="3.856255989521742">
        <ele>13.119999999999999</ele>
        <time>2025-05-16T11:47:45Z</time>
      </trkpt>
      <trkpt lat="43.53799500502646" lon="3.856311980634928">
        <ele>12.630000000000001</ele>
        <time>2025-05-16T11:47:46Z</time>
      </trkpt>
      <trkpt lat="43.537913030013442" lon="3.856371995061636">
        <ele>12.15</ele>
        <time>2025-05-16T11:47:47Z</time>
      </trkpt>
      <trkpt lat="43.537834994494915" lon="3.856436032801867">
        <ele>12.15</ele>
        <time>2025-05-16T11:47:48Z</time>
      </trkpt>
      <trkpt lat="43.537440961226821" lon="3.856864012777805">
        <ele>11.67</ele>
        <time>2025-05-16T11:47:55Z</time>
      </trkpt>
      <trkpt lat="43.536892030388117" lon="3.857468012720347">
        <ele>13.119999999999999</ele>
        <time>2025-05-16T11:48:03Z</time>
      </trkpt>
      <trkpt lat="43.536176970228553" lon="3.858241997659206">
        <ele>14.08</ele>
        <time>2025-05-16T11:48:12Z</time>
      </trkpt>
      <trkpt lat="43.536140006035566" lon="3.858279967680574">
        <ele>13.6</ele>
        <time>2025-05-16T11:48:13Z</time>
      </trkpt>
      <trkpt lat="43.53610304184258" lon="3.858316009864211">
        <ele>13.6</ele>
        <time>2025-05-16T11:48:14Z</time>
      </trkpt>
      <trkpt lat="43.536072028800845" lon="3.858347022905946">
        <ele>13.6</ele>
        <time>2025-05-16T11:48:15Z</time>
      </trkpt>
      <trkpt lat="43.535986030474305" lon="3.858433021232486">
        <ele>13.119999999999999</ele>
        <time>2025-05-16T11:48:16Z</time>
      </trkpt>
      <trkpt lat="43.535986030474305" lon="3.85839999653399">
        <ele>13.119999999999999</ele>
        <time>2025-05-16T11:48:17Z</time>
      </trkpt>
      <trkpt lat="43.535986030474305" lon="3.858433021232486">
        <ele>12.630000000000001</ele>
        <time>2025-05-16T11:48:18Z</time>
      </trkpt>
      <trkpt lat="43.536072028800845" lon="3.858433021232486">
        <ele>12.630000000000001</ele>
        <time>2025-05-16T11:48:19Z</time>
      </trkpt>
      <trkpt lat="43.536072028800845" lon="3.858433021232486">
        <ele>12.630000000000001</ele>
        <time>2025-05-16T11:48:20Z</time>
      </trkpt>
      <trkpt lat="43.536072028800845" lon="3.858347022905946">
        <ele>12.630000000000001</ele>
        <time>2025-05-16T11:48:21Z</time>
      </trkpt>
      <trkpt lat="43.536072028800845" lon="3.858393961563706">
        <ele>12.630000000000001</ele>
        <time>2025-05-16T11:48:22Z</time>
      </trkpt>
      <trkpt lat="43.536157021299005" lon="3.858262030407786">
        <ele>12.630000000000001</ele>
        <time>2025-05-16T11:48:23Z</time>
      </trkpt>
      <trkpt lat="43.536208989098668" lon="3.858209978789091">
        <ele>12.630000000000001</ele>
        <time>2025-05-16T11:48:24Z</time>
      </trkpt>
      <trkpt lat="43.536270009353757" lon="3.858143007382751">
        <ele>12.630000000000001</ele>
        <time>2025-05-16T11:48:25Z</time>
      </trkpt>
      <trkpt lat="43.536347039043903" lon="3.858060026541352">
        <ele>12.630000000000001</ele>
        <time>2025-05-16T11:48:26Z</time>
      </trkpt>
      <trkpt lat="43.536434965208173" lon="3.857964975759387">
        <ele>12.630000000000001</ele>
        <time>2025-05-16T11:48:27Z</time>
      </trkpt>
      <trkpt lat="43.537311963737011" lon="3.857009019702673">
        <ele>11.19</ele>
        <time>2025-05-16T11:48:37Z</time>
      </trkpt>
      <trkpt lat="43.537954017519951" lon="3.856341987848282">
        <ele>12.15</ele>
        <time>2025-05-16T11:48:45Z</time>
      </trkpt>
      <trkpt lat="43.538020988926291" lon="3.856293959543109">
        <ele>12.15</ele>
        <time>2025-05-16T11:48:46Z</time>
      </trkpt>
      <trkpt lat="43.538088966161013" lon="3.856244003400207">
        <ele>12.15</ele>
        <time>2025-05-16T11:48:47Z</time>
      </trkpt>
      <trkpt lat="43.538200026378036" lon="3.856293959543109">
        <ele>12.15</ele>
        <time>2025-05-16T11:48:48Z</time>
      </trkpt>
      <trkpt lat="43.53823397308588" lon="3.856362020596862">
        <ele>12.630000000000001</ele>
        <time>2025-05-16T11:48:49Z</time>
      </trkpt>
      <trkpt lat="43.53827596642077" lon="3.85644500143826">
        <ele>12.630000000000001</ele>
        <time>2025-05-16T11:48:50Z</time>
      </trkpt>
      <trkpt lat="43.53827697224915" lon="3.856558995321393">
        <ele>12.630000000000001</ele>
        <time>2025-05-16T11:48:51Z</time>
      </trkpt>
      <trkpt lat="43.538271021097898" lon="3.856684975326061">
        <ele>13.119999999999999</ele>
        <time>2025-05-16T11:48:52Z</time>
      </trkpt>
      <trkpt lat="43.538263980299234" lon="3.856827970594168">
        <ele>13.119999999999999</ele>
        <time>2025-05-16T11:48:53Z</time>
      </trkpt>
      <trkpt lat="43.538240008056164" lon="3.856986975297332">
        <ele>12.630000000000001</ele>
        <time>2025-05-16T11:48:54Z</time>
      </trkpt>
      <trkpt lat="43.537937002256513" lon="3.858425980433822">
        <ele>11.19</ele>
        <time>2025-05-16T11:49:01Z</time>
      </trkpt>
      <trkpt lat="43.537617987021804" lon="3.860573004931212">
        <ele>9.27</ele>
        <time>2025-05-16T11:49:09Z</time>
      </trkpt>
      <trkpt lat="43.537795012816787" lon="3.863209029659629">
        <ele>9.75</ele>
        <time>2025-05-16T11:49:18Z</time>
      </trkpt>
      <trkpt lat="43.538064993917942" lon="3.865646990016103">
        <ele>9.27</ele>
        <time>2025-05-16T11:49:27Z</time>
      </trkpt>
      <trkpt lat="43.538097012788057" lon="3.865924011915922">
        <ele>9.27</ele>
        <time>2025-05-16T11:49:28Z</time>
      </trkpt>
      <trkpt lat="43.538340004161" lon="3.868103977292776">
        <ele>6.39</ele>
        <time>2025-05-16T11:49:37Z</time>
      </trkpt>
      <trkpt lat="43.538410998880863" lon="3.869139980524778">
        <ele>5.42</ele>
        <time>2025-05-16T11:49:43Z</time>
      </trkpt>
      <trkpt lat="43.538401024416089" lon="3.869221033528447">
        <ele>5.42</ele>
        <time>2025-05-16T11:49:44Z</time>
      </trkpt>
      <trkpt lat="43.538389960303903" lon="3.869311977177858">
        <ele>5.42</ele>
        <time>2025-05-16T11:49:45Z</time>
      </trkpt>
      <trkpt lat="43.538332963362336" lon="3.869457989931107">
        <ele>5.42</ele>
        <time>2025-05-16T11:49:46Z</time>
      </trkpt>
      <trkpt lat="43.538317959755659" lon="3.869655970484018">
        <ele>5.42</ele>
        <time>2025-05-16T11:49:47Z</time>
      </trkpt>
      <trkpt lat="43.538373028859496" lon="3.869756972417235">
        <ele>5.91</ele>
        <time>2025-05-16T11:49:48Z</time>
      </trkpt>
      <trkpt lat="43.538436982780695" lon="3.869869960471988">
        <ele>5.91</ele>
        <time>2025-05-16T11:49:49Z</time>
      </trkpt>
      <trkpt lat="43.538479981943965" lon="3.869970040395856">
        <ele>5.42</ele>
        <time>2025-05-16T11:49:50Z</time>
      </trkpt>
      <trkpt lat="43.538503032177687" lon="3.870129967108369">
        <ele>5.42</ele>
        <time>2025-05-16T11:49:51Z</time>
      </trkpt>
      <trkpt lat="43.538528010249138" lon="3.870307998731732">
        <ele>5.42</ele>
        <time>2025-05-16T11:49:52Z</time>
      </trkpt>
      <trkpt lat="43.53868299163878" lon="3.871919000521302">
        <ele>4.46</ele>
        <time>2025-05-16T11:49:59Z</time>
      </trkpt>
      <trkpt lat="43.538849959149957" lon="3.874452011659741">
        <ele>3.5</ele>
        <time>2025-05-16T11:50:08Z</time>
      </trkpt>
      <trkpt lat="43.538950961083174" lon="3.877579970285296">
        <ele>3.5</ele>
        <time>2025-05-16T11:50:20Z</time>
      </trkpt>
      <trkpt lat="43.539119018241763" lon="3.880856959149241">
        <ele>3.02</ele>
        <time>2025-05-16T11:50:32Z</time>
      </trkpt>
      <trkpt lat="43.539310041815042" lon="3.884293036535382">
        <ele>2.06</ele>
        <time>2025-05-16T11:50:45Z</time>
      </trkpt>
      <trkpt lat="43.539468040689826" lon="3.887667004019022">
        <ele>-0.34</ele>
        <time>2025-05-16T11:50:58Z</time>
      </trkpt>
      <trkpt lat="43.539644982665777" lon="3.891627034172416">
        <ele>-0.82</ele>
        <time>2025-05-16T11:51:12Z</time>
      </trkpt>
      <trkpt lat="43.539781020954251" lon="3.894488029181957">
        <ele>-0.82</ele>
        <time>2025-05-16T11:51:24Z</time>
      </trkpt>
      <trkpt lat="43.539784960448742" lon="3.895631991326809">
        <ele>-0.82</ele>
        <time>2025-05-16T11:51:30Z</time>
      </trkpt>
      <trkpt lat="43.539749002084136" lon="3.895816979929805">
        <ele>-0.34</ele>
        <time>2025-05-16T11:51:31Z</time>
      </trkpt>
      <trkpt lat="43.539709020406008" lon="3.895994005724788">
        <ele>-0.34</ele>
        <time>2025-05-16T11:51:32Z</time>
      </trkpt>
      <trkpt lat="43.539608018472791" lon="3.896474037319422">
        <ele>-0.34</ele>
        <time>2025-05-16T11:51:35Z</time>
      </trkpt>
      <trkpt lat="43.539595026522875" lon="3.896623989567161">
        <ele>0.14</ele>
        <time>2025-05-16T11:51:36Z</time>
      </trkpt>
      <trkpt lat="43.539594020694494" lon="3.896750975400209">
        <ele>0.62</ele>
        <time>2025-05-16T11:51:37Z</time>
      </trkpt>
      <trkpt lat="43.539597038179636" lon="3.896848037838936">
        <ele>0.62</ele>
        <time>2025-05-16T11:51:38Z</time>
      </trkpt>
      <trkpt lat="43.539598966017365" lon="3.896920038387179">
        <ele>0.62</ele>
        <time>2025-05-16T11:51:39Z</time>
      </trkpt>
      <trkpt lat="43.539600977674127" lon="3.896976029500365">
        <ele>1.1</ele>
        <time>2025-05-16T11:51:40Z</time>
      </trkpt>
      <trkpt lat="43.539608018472791" lon="3.897208962589502">
        <ele>1.1</ele>
        <time>2025-05-16T11:51:45Z</time>
      </trkpt>
      <trkpt lat="43.539609024301171" lon="3.897243998944759">
        <ele>1.1</ele>
        <time>2025-05-16T11:51:46Z</time>
      </trkpt>
      <trkpt lat="43.539611035957932" lon="3.897294038906694">
        <ele>1.1</ele>
        <time>2025-05-16T11:51:47Z</time>
      </trkpt>
      <trkpt lat="43.539609024301171" lon="3.897379031404853">
        <ele>1.1</ele>
        <time>2025-05-16T11:51:48Z</time>
      </trkpt>
      <trkpt lat="43.539588991552591" lon="3.897483972832561">
        <ele>1.1</ele>
        <time>2025-05-16T11:51:49Z</time>
      </trkpt>
      <trkpt lat="43.539567030966282" lon="3.897601990029216">
        <ele>1.1</ele>
        <time>2025-05-16T11:51:50Z</time>
      </trkpt>
      <trkpt lat="43.539552027359605" lon="3.897719001397491">
        <ele>1.1</ele>
        <time>2025-05-16T11:51:51Z</time>
      </trkpt>
      <trkpt lat="43.539573987945914" lon="3.897855039685965">
        <ele>1.1</ele>
        <time>2025-05-16T11:51:52Z</time>
      </trkpt>
      <trkpt lat="43.539580022916198" lon="3.898005997762084">
        <ele>0.62</ele>
        <time>2025-05-16T11:51:53Z</time>
      </trkpt>
      <trkpt lat="43.539546998217702" lon="3.898144969716668">
        <ele>0.14</ele>
        <time>2025-05-16T11:51:54Z</time>
      </trkpt>
      <trkpt lat="43.539506010711193" lon="3.898323001340032">
        <ele>0.14</ele>
        <time>2025-05-16T11:51:55Z</time>
      </trkpt>
      <trkpt lat="43.539428981021047" lon="3.898445041850209">
        <ele>0.14</ele>
        <time>2025-05-16T11:51:56Z</time>
      </trkpt>
      <trkpt lat="43.539337031543255" lon="3.898591976612806">
        <ele>0.14</ele>
        <time>2025-05-16T11:51:57Z</time>
      </trkpt>
      <trkpt lat="43.538604034110904" lon="3.899729987606406">
        <ele>0.14</ele>
        <time>2025-05-16T11:52:03Z</time>
      </trkpt>
      <trkpt lat="43.536259029060602" lon="3.903376031666994">
        <ele>-0.34</ele>
        <time>2025-05-16T11:52:19Z</time>
      </trkpt>
      <trkpt lat="43.534550964832306" lon="3.906113980337977">
        <ele>0.62</ele>
        <time>2025-05-16T11:52:31Z</time>
      </trkpt>
      <trkpt lat="43.534460021182895" lon="3.906388990581036">
        <ele>0.62</ele>
        <time>2025-05-16T11:52:32Z</time>
      </trkpt>
      <trkpt lat="43.534404030069709" lon="3.906679004430771">
        <ele>0.62</ele>
        <time>2025-05-16T11:52:33Z</time>
      </trkpt>
      <trkpt lat="43.534373017027974" lon="3.9069779869169">
        <ele>1.1</ele>
        <time>2025-05-16T11:52:34Z</time>
      </trkpt>
      <trkpt lat="43.534364970400929" lon="3.907281998544931">
        <ele>1.1</ele>
        <time>2025-05-16T11:52:35Z</time>
      </trkpt>
      <trkpt lat="43.534357007592916" lon="3.907588021829724">
        <ele>1.1</ele>
        <time>2025-05-16T11:52:36Z</time>
      </trkpt>
      <trkpt lat="43.53438600897789" lon="3.90790100209415">
        <ele>1.1</ele>
        <time>2025-05-16T11:52:37Z</time>
      </trkpt>
      <trkpt lat="43.534739976748824" lon="3.911368008702993">
        <ele>-0.34</ele>
        <time>2025-05-16T11:52:48Z</time>
      </trkpt>
      <trkpt lat="43.534684991464019" lon="3.91383295878768">
        <ele>-0.82</ele>
        <time>2025-05-16T11:52:56Z</time>
      </trkpt>
      <trkpt lat="43.534219963476062" lon="3.915768004953861">
        <ele>0.62</ele>
        <time>2025-05-16T11:53:03Z</time>
      </trkpt>
      <trkpt lat="43.533283034339547" lon="3.917906982824206">
        <ele>3.5</ele>
        <time>2025-05-16T11:53:12Z</time>
      </trkpt>
      <trkpt lat="43.532221969217062" lon="3.919544974341989">
        <ele>-1.79</ele>
        <time>2025-05-16T11:53:20Z</time>
      </trkpt>
      <trkpt lat="43.530985973775387" lon="3.921356974169612">
        <ele>-4.19</ele>
        <time>2025-05-16T11:53:31Z</time>
      </trkpt>
      <trkpt lat="43.530250964686275" lon="3.922410998493433">
        <ele>-3.71</ele>
        <time>2025-05-16T11:53:40Z</time>
      </trkpt>
      <trkpt lat="43.53017401881516" lon="3.92248903401196">
        <ele>-4.19</ele>
        <time>2025-05-16T11:53:41Z</time>
      </trkpt>
      <trkpt lat="43.530095983296633" lon="3.922541001811624">
        <ele>-4.19</ele>
        <time>2025-05-16T11:53:42Z</time>
      </trkpt>
      <trkpt lat="43.53000202216208" lon="3.922586012631655">
        <ele>-4.67</ele>
        <time>2025-05-16T11:53:43Z</time>
      </trkpt>
      <trkpt lat="43.529818039387465" lon="3.922539995983243">
        <ele>-5.15</ele>
        <time>2025-05-16T11:53:45Z</time>
      </trkpt>
      <trkpt lat="43.529726006090641" lon="3.92255399376154">
        <ele>-5.15</ele>
        <time>2025-05-16T11:53:46Z</time>
      </trkpt>
      <trkpt lat="43.529642019420862" lon="3.922613002359867">
        <ele>-5.15</ele>
        <time>2025-05-16T11:53:47Z</time>
      </trkpt>
      <trkpt lat="43.529577981680632" lon="3.922695983201265">
        <ele>-4.67</ele>
        <time>2025-05-16T11:53:48Z</time>
      </trkpt>
      <trkpt lat="43.529527019709349" lon="3.922794973477721">
        <ele>-4.67</ele>
        <time>2025-05-16T11:53:49Z</time>
      </trkpt>
      <trkpt lat="43.529516039416194" lon="3.922910979017615">
        <ele>-4.67</ele>
        <time>2025-05-16T11:53:50Z</time>
      </trkpt>
      <trkpt lat="43.52951000444591" lon="3.923036959022284">
        <ele>-4.19</ele>
        <time>2025-05-16T11:53:51Z</time>
      </trkpt>
      <trkpt lat="43.529535988345742" lon="3.923152964562178">
        <ele>-3.71</ele>
        <time>2025-05-16T11:53:52Z</time>
      </trkpt>
      <trkpt lat="43.52957303635776" lon="3.923261007294059">
        <ele>-3.23</ele>
        <time>2025-05-16T11:53:53Z</time>
      </trkpt>
      <trkpt lat="43.52961796335876" lon="3.923351028934121">
        <ele>-2.75</ele>
        <time>2025-05-16T11:53:54Z</time>
      </trkpt>
      <trkpt lat="43.529689041897655" lon="3.923416994512081">
        <ele>-2.27</ele>
        <time>2025-05-16T11:53:55Z</time>
      </trkpt>
      <trkpt lat="43.529742015525699" lon="3.923450019210577">
        <ele>-1.3</ele>
        <time>2025-05-16T11:53:56Z</time>
      </trkpt>
      <trkpt lat="43.529862966388464" lon="3.923450019210577">
        <ele>-1.3</ele>
        <time>2025-05-16T11:53:57Z</time>
      </trkpt>
      <trkpt lat="43.529957011342049" lon="3.923450019210577">
        <ele>-0.82</ele>
        <time>2025-05-16T11:53:58Z</time>
      </trkpt>
      <trkpt lat="43.530062036588788" lon="3.923506010323763">
        <ele>-0.34</ele>
        <time>2025-05-16T11:53:59Z</time>
      </trkpt>
      <trkpt lat="43.530163960531354" lon="3.923560995608568">
        <ele>0.14</ele>
        <time>2025-05-16T11:54:00Z</time>
      </trkpt>
      <trkpt lat="43.530265968292952" lon="3.92362997867167">
        <ele>1.1</ele>
        <time>2025-05-16T11:54:01Z</time>
      </trkpt>
      <trkpt lat="43.530361019074917" lon="3.923725029453635">
        <ele>1.58</ele>
        <time>2025-05-16T11:54:02Z</time>
      </trkpt>
      <trkpt lat="43.530457997694612" lon="3.92382200807333">
        <ele>2.54</ele>
        <time>2025-05-16T11:54:03Z</time>
      </trkpt>
      <trkpt lat="43.531658034771681" lon="3.925044005736709">
        <ele>7.83</ele>
        <time>2025-05-16T11:54:14Z</time>
      </trkpt>
      <trkpt lat="43.532039998099208" lon="3.925554966554046">
        <ele>5.91</ele>
        <time>2025-05-16T11:54:18Z</time>
      </trkpt>
      <trkpt lat="43.532107975333929" lon="3.925678012892604">
        <ele>4.94</ele>
        <time>2025-05-16T11:54:19Z</time>
      </trkpt>
      <trkpt lat="43.53215298615396" lon="3.925783038139343">
        <ele>4.46</ele>
        <time>2025-05-16T11:54:20Z</time>
      </trkpt>
      <trkpt lat="43.532175030559301" lon="3.925895020365715">
        <ele>3.98</ele>
        <time>2025-05-16T11:54:21Z</time>
      </trkpt>
      <trkpt lat="43.532180981710553" lon="3.926002979278565">
        <ele>3.5</ele>
        <time>2025-05-16T11:54:22Z</time>
      </trkpt>
      <trkpt lat="43.532158015295863" lon="3.926127031445503">
        <ele>3.5</ele>
        <time>2025-05-16T11:54:23Z</time>
      </trkpt>
      <trkpt lat="43.532146029174328" lon="3.926196014508605">
        <ele>3.02</ele>
        <time>2025-05-16T11:54:24Z</time>
      </trkpt>
      <trkpt lat="43.532146029174328" lon="3.926196014508605">
        <ele>2.54</ele>
        <time>2025-05-16T11:54:25Z</time>
      </trkpt>
      <trkpt lat="43.532135970890522" lon="3.92655098810792">
        <ele>1.58</ele>
        <time>2025-05-16T11:54:26Z</time>
      </trkpt>
      <trkpt lat="43.532060030847788" lon="3.926646960899234">
        <ele>1.1</ele>
        <time>2025-05-16T11:54:27Z</time>
      </trkpt>
      <trkpt lat="43.532013008370996" lon="3.926717033609748">
        <ele>0.14</ele>
        <time>2025-05-16T11:54:28Z</time>
      </trkpt>
      <trkpt lat="43.531951988115907" lon="3.926807977259159">
        <ele>-0.34</ele>
        <time>2025-05-16T11:54:29Z</time>
      </trkpt>
      <trkpt lat="43.531488971784711" lon="3.927508033812046">
        <ele>-4.19</ele>
        <time>2025-05-16T11:54:39Z</time>
      </trkpt>
      <trkpt lat="43.531139027327299" lon="3.928088983520865">
        <ele>-6.11</ele>
        <time>2025-05-16T11:54:48Z</time>
      </trkpt>
      <trkpt lat="43.53109703399241" lon="3.928157966583967">
        <ele>-6.59</ele>
        <time>2025-05-16T11:54:49Z</time>
      </trkpt>
      <trkpt lat="43.530925959348679" lon="3.928442029282451">
        <ele>-7.07</ele>
        <time>2025-05-16T11:54:53Z</time>
      </trkpt>
      <trkpt lat="43.530877009034157" lon="3.928510006517172">
        <ele>-7.07</ele>
        <time>2025-05-16T11:54:54Z</time>
      </trkpt>
      <trkpt lat="43.530822023749352" lon="3.928583012893796">
        <ele>-7.07</ele>
        <time>2025-05-16T11:54:55Z</time>
      </trkpt>
      <trkpt lat="43.530355989933014" lon="3.929396979510784">
        <ele>-7.07</ele>
        <time>2025-05-16T11:55:07Z</time>
      </trkpt>
      <trkpt lat="43.530269991606474" lon="3.929541986435652">
        <ele>-6.59</ele>
        <time>2025-05-16T11:55:09Z</time>
      </trkpt>
      <trkpt lat="43.529865983873606" lon="3.930233996361494">
        <ele>-1.79</ele>
        <time>2025-05-16T11:55:20Z</time>
      </trkpt>
      <trkpt lat="43.529806975275278" lon="3.930337009951472">
        <ele>-1.3</ele>
        <time>2025-05-16T11:55:22Z</time>
      </trkpt>
      <trkpt lat="43.529717037454247" lon="3.930379003286362">
        <ele>-1.3</ele>
        <time>2025-05-16T11:55:23Z</time>
      </trkpt>
      <trkpt lat="43.529674960300326" lon="3.930340027436614">
        <ele>-0.82</ele>
        <time>2025-05-16T11:55:24Z</time>
      </trkpt>
      <trkpt lat="43.529619975015521" lon="3.93028998747468">
        <ele>-0.82</ele>
        <time>2025-05-16T11:55:25Z</time>
      </trkpt>
      <trkpt lat="43.529565995559096" lon="3.930239025503397">
        <ele>-0.82</ele>
        <time>2025-05-16T11:55:26Z</time>
      </trkpt>
      <trkpt lat="43.529334990307689" lon="3.929994022473693">
        <ele>-0.34</ele>
        <time>2025-05-16T11:55:31Z</time>
      </trkpt>
      <trkpt lat="43.529299031943083" lon="3.929940965026617">
        <ele>0.14</ele>
        <time>2025-05-16T11:55:32Z</time>
      </trkpt>
      <trkpt lat="43.528837021440268" lon="3.929284997284412">
        <ele>1.58</ele>
        <time>2025-05-16T11:55:43Z</time>
      </trkpt>
      <trkpt lat="43.528822017833591" lon="3.929264964535832">
        <ele>3.02</ele>
        <time>2025-05-16T11:55:52Z</time>
      </trkpt>
      <trkpt lat="43.528822017833591" lon="3.929264964535832">
        <ele>4.46</ele>
        <time>2025-05-16T11:55:58Z</time>
      </trkpt>
      <trkpt lat="43.528749011456966" lon="3.929240992292762">
        <ele>4.94</ele>
        <time>2025-05-16T11:55:59Z</time>
      </trkpt>
      <trkpt lat="43.528750017285347" lon="3.929239986464381">
        <ele>5.42</ele>
        <time>2025-05-16T11:56:00Z</time>
      </trkpt>
      <trkpt lat="43.528777007013559" lon="3.929200004786253">
        <ele>5.42</ele>
        <time>2025-05-16T11:56:01Z</time>
      </trkpt>
      <trkpt lat="43.528772983700037" lon="3.929524971172214">
        <ele>5.91</ele>
        <time>2025-05-16T11:56:02Z</time>
      </trkpt>
      <trkpt lat="43.528816988691688" lon="3.929571993649006">
        <ele>5.91</ele>
        <time>2025-05-16T11:56:03Z</time>
      </trkpt>
      <trkpt lat="43.528867028653622" lon="3.929625973105431">
        <ele>5.91</ele>
        <time>2025-05-16T11:56:04Z</time>
      </trkpt>
      <trkpt lat="43.529097028076649" lon="3.929872987791896">
        <ele>5.42</ele>
        <time>2025-05-16T11:56:11Z</time>
      </trkpt>
      <trkpt lat="43.529107002541423" lon="3.929884973913431">
        <ele>5.42</ele>
        <time>2025-05-16T11:56:22Z</time>
      </trkpt>
      <trkpt lat="43.52912301197648" lon="3.929901989176869">
        <ele>5.91</ele>
        <time>2025-05-16T11:56:23Z</time>
      </trkpt>
      <trkpt lat="43.529257960617542" lon="3.93005495890975">
        <ele>5.42</ele>
        <time>2025-05-16T11:56:33Z</time>
      </trkpt>
      <trkpt lat="43.529329961165786" lon="3.930272972211242">
        <ele>5.42</ele>
        <time>2025-05-16T11:56:46Z</time>
      </trkpt>
      <trkpt lat="43.529323004186153" lon="3.93046198412776">
        <ele>4.46</ele>
        <time>2025-05-16T11:56:49Z</time>
      </trkpt>
      <trkpt lat="43.529319986701012" lon="3.930561980232596">
        <ele>3.98</ele>
        <time>2025-05-16T11:56:51Z</time>
      </trkpt>
      <trkpt lat="43.52931797504425" lon="3.930606991052628">
        <ele>3.98</ele>
        <time>2025-05-16T11:56:52Z</time>
      </trkpt>
      <trkpt lat="43.52931797504425" lon="3.930606991052628">
        <ele>3.98</ele>
        <time>2025-05-16T11:56:54Z</time>
      </trkpt>
      <trkpt lat="43.529257038608193" lon="3.930563991889358">
        <ele>3.5</ele>
        <time>2025-05-16T11:57:07Z</time>
      </trkpt>
      <trkpt lat="43.529096022248268" lon="3.930455027148128">
        <ele>2.06</ele>
        <time>2025-05-16T11:57:17Z</time>
      </trkpt>
      <trkpt lat="43.529087975621223" lon="3.930370034649968">
        <ele>0.62</ele>
        <time>2025-05-16T11:57:21Z</time>
      </trkpt>
      <trkpt lat="43.529334990307689" lon="3.930143974721432">
        <ele>0.14</ele>
        <time>2025-05-16T11:57:32Z</time>
      </trkpt>
      <trkpt lat="43.529334990307689" lon="3.929994022473693">
        <ele>0.14</ele>
        <time>2025-05-16T11:57:39Z</time>
      </trkpt>
      <trkpt lat="43.529283022508025" lon="3.930083960294724">
        <ele>0.14</ele>
        <time>2025-05-16T11:57:40Z</time>
      </trkpt>
      <trkpt lat="43.529310012236238" lon="3.930114973336458">
        <ele>0.14</ele>
        <time>2025-05-16T11:57:41Z</time>
      </trkpt>
      <trkpt lat="43.529334990307689" lon="3.930143974721432">
        <ele>-0.34</ele>
        <time>2025-05-16T11:57:42Z</time>
      </trkpt>
      <trkpt lat="43.529332978650928" lon="3.930198037996888">
        <ele>-0.34</ele>
        <time>2025-05-16T11:57:43Z</time>
      </trkpt>
      <trkpt lat="43.529329961165786" lon="3.930284036323428">
        <ele>-0.82</ele>
        <time>2025-05-16T11:57:44Z</time>
      </trkpt>
      <trkpt lat="43.529326021671295" lon="3.930371962487698">
        <ele>-1.3</ele>
        <time>2025-05-16T11:57:45Z</time>
      </trkpt>
      <trkpt lat="43.529323004186153" lon="3.930458966642618">
        <ele>-1.79</ele>
        <time>2025-05-16T11:57:46Z</time>
      </trkpt>
      <trkpt lat="43.529319986701012" lon="3.930543959140778">
        <ele>-2.27</ele>
        <time>2025-05-16T11:57:47Z</time>
      </trkpt>
      <trkpt lat="43.52931696921587" lon="3.930630041286349">
        <ele>-2.75</ele>
        <time>2025-05-16T11:57:48Z</time>
      </trkpt>
      <trkpt lat="43.52931403554976" lon="3.930720984935761">
        <ele>-2.75</ele>
        <time>2025-05-16T11:57:49Z</time>
      </trkpt>
      <trkpt lat="43.529313029721379" lon="3.931076964363456">
        <ele>-3.23</ele>
        <time>2025-05-16T11:57:53Z</time>
      </trkpt>
      <trkpt lat="43.529311018064618" lon="3.931275028735399">
        <ele>-3.23</ele>
        <time>2025-05-16T11:57:56Z</time>
      </trkpt>
      <trkpt lat="43.529301965609193" lon="3.931346023455262">
        <ele>-3.23</ele>
        <time>2025-05-16T11:57:57Z</time>
      </trkpt>
      <trkpt lat="43.529291991144419" lon="3.931432021781802">
        <ele>-3.23</ele>
        <time>2025-05-16T11:57:58Z</time>
      </trkpt>
      <trkpt lat="43.529280005022883" lon="3.931881040334702">
        <ele>-3.71</ele>
        <time>2025-05-16T11:58:03Z</time>
      </trkpt>
      <trkpt lat="43.5292739700526" lon="3.931978018954396">
        <ele>-3.23</ele>
        <time>2025-05-16T11:58:04Z</time>
      </trkpt>
      <trkpt lat="43.529262989759445" lon="3.93207399174571">
        <ele>-2.75</ele>
        <time>2025-05-16T11:58:05Z</time>
      </trkpt>
      <trkpt lat="43.529247986152768" lon="3.932166025042534">
        <ele>-2.75</ele>
        <time>2025-05-16T11:58:06Z</time>
      </trkpt>
      <trkpt lat="43.529227031394839" lon="3.932289993390441">
        <ele>-1.79</ele>
        <time>2025-05-16T11:58:07Z</time>
      </trkpt>
      <trkpt lat="43.529174979776144" lon="3.932623006403446">
        <ele>-0.82</ele>
        <time>2025-05-16T11:58:11Z</time>
      </trkpt>
      <trkpt lat="43.529161987826228" lon="3.932700958102942">
        <ele>-0.34</ele>
        <time>2025-05-16T11:58:12Z</time>
      </trkpt>
      <trkpt lat="43.529147990047932" lon="3.932785028591752">
        <ele>0.14</ele>
        <time>2025-05-16T11:58:13Z</time>
      </trkpt>
      <trkpt lat="43.529134998098016" lon="3.93286700360477">
        <ele>0.62</ele>
        <time>2025-05-16T11:58:14Z</time>
      </trkpt>
      <trkpt lat="43.5291220061481" lon="3.932945039123297">
        <ele>1.1</ele>
        <time>2025-05-16T11:58:15Z</time>
      </trkpt>
      <trkpt lat="43.529109014198184" lon="3.933020979166031">
        <ele>1.1</ele>
        <time>2025-05-16T11:58:16Z</time>
      </trkpt>
      <trkpt lat="43.529044976457953" lon="3.933497993275523">
        <ele>3.02</ele>
        <time>2025-05-16T11:58:22Z</time>
      </trkpt>
      <trkpt lat="43.52903600782156" lon="3.933565970510244">
        <ele>3.02</ele>
        <time>2025-05-16T11:58:23Z</time>
      </trkpt>
      <trkpt lat="43.528996026143432" lon="3.933868976309896">
        <ele>3.98</ele>
        <time>2025-05-16T11:58:27Z</time>
      </trkpt>
      <trkpt lat="43.528941040858626" lon="3.934225039556623">
        <ele>3.98</ele>
        <time>2025-05-16T11:58:34Z</time>
      </trkpt>
      <trkpt lat="43.528904998674989" lon="3.93441203981638">
        <ele>3.98</ele>
        <time>2025-05-16T11:58:44Z</time>
      </trkpt>
      <trkpt lat="43.528899969533086" lon="3.93443601205945">
        <ele>3.98</ele>
        <time>2025-05-16T11:58:56Z</time>
      </trkpt>
      <trkpt lat="43.528896030038595" lon="3.934460990130901">
        <ele>4.46</ele>
        <time>2025-05-16T11:59:14Z</time>
      </trkpt>
      <trkpt lat="43.528926959261298" lon="3.934714961796999">
        <ele>3.02</ele>
        <time>2025-05-16T11:59:19Z</time>
      </trkpt>
      <trkpt lat="43.528885971754789" lon="3.934870027005673">
        <ele>2.54</ele>
        <time>2025-05-16T11:59:20Z</time>
      </trkpt>
      <trkpt lat="43.528981022536755" lon="3.934929035604">
        <ele>2.06</ele>
        <time>2025-05-16T11:59:21Z</time>
      </trkpt>
      <trkpt lat="43.529028967022896" lon="3.934929035604">
        <ele>1.58</ele>
        <time>2025-05-16T11:59:22Z</time>
      </trkpt>
      <trkpt lat="43.52907900698483" lon="3.934854017570615">
        <ele>1.1</ele>
        <time>2025-05-16T11:59:23Z</time>
      </trkpt>
      <trkpt lat="43.529097028076649" lon="3.934825016185641">
        <ele>0.62</ele>
        <time>2025-05-16T11:59:24Z</time>
      </trkpt>
      <trkpt lat="43.529087975621223" lon="3.93480196595192">
        <ele>0.62</ele>
        <time>2025-05-16T11:59:25Z</time>
      </trkpt>
      <trkpt lat="43.529072972014546" lon="3.934771036729217">
        <ele>0.14</ele>
        <time>2025-05-16T11:59:26Z</time>
      </trkpt>
      <trkpt lat="43.52905604057014" lon="3.93473600037396">
        <ele>-0.34</ele>
        <time>2025-05-16T11:59:27Z</time>
      </trkpt>
      <trkpt lat="43.529027039185166" lon="3.934731977060437">
        <ele>-0.82</ele>
        <time>2025-05-16T11:59:28Z</time>
      </trkpt>
      <trkpt lat="43.52905604057014" lon="3.93473600037396">
        <ele>-1.3</ele>
        <time>2025-05-16T11:59:29Z</time>
      </trkpt>
      <trkpt lat="43.528903992846608" lon="3.934613037854433">
        <ele>-1.79</ele>
        <time>2025-05-16T11:59:30Z</time>
      </trkpt>
      <trkpt lat="43.52888697758317" lon="3.934537013992667">
        <ele>-2.27</ele>
        <time>2025-05-16T11:59:31Z</time>
      </trkpt>
      <trkpt lat="43.528900975361466" lon="3.934434000402689">
        <ele>-2.75</ele>
        <time>2025-05-16T11:59:32Z</time>
      </trkpt>
      <trkpt lat="43.528914973139763" lon="3.934356970712543">
        <ele>-3.23</ele>
        <time>2025-05-16T11:59:33Z</time>
      </trkpt>
      <trkpt lat="43.528931988403201" lon="3.934267032891512">
        <ele>-3.71</ele>
        <time>2025-05-16T11:59:34Z</time>
      </trkpt>
      <trkpt lat="43.529003988951445" lon="3.933811979368329">
        <ele>-4.67</ele>
        <time>2025-05-16T11:59:39Z</time>
      </trkpt>
      <trkpt lat="43.529041958972812" lon="3.933517020195723">
        <ele>-5.15</ele>
        <time>2025-05-16T11:59:43Z</time>
      </trkpt>
      <trkpt lat="43.529068026691675" lon="3.93331996165216">
        <ele>-5.15</ele>
        <time>2025-05-16T11:59:46Z</time>
      </trkpt>
      <trkpt lat="43.529074983671308" lon="3.933263970538974">
        <ele>-5.15</ele>
        <time>2025-05-16T11:59:47Z</time>
      </trkpt>
      <trkpt lat="43.529082024469972" lon="3.93321099691093">
        <ele>-5.63</ele>
        <time>2025-05-16T11:59:48Z</time>
      </trkpt>
      <trkpt lat="43.529087975621223" lon="3.933163974434137">
        <ele>-5.63</ele>
        <time>2025-05-16T11:59:49Z</time>
      </trkpt>
      <trkpt lat="43.529162993654609" lon="3.93310496583581">
        <ele>-5.63</ele>
        <time>2025-05-16T11:59:50Z</time>
      </trkpt>
      <trkpt lat="43.529211021959782" lon="3.933120975270867">
        <ele>-6.11</ele>
        <time>2025-05-16T11:59:51Z</time>
      </trkpt>
      <trkpt lat="43.529291991144419" lon="3.93314796499908">
        <ele>-5.63</ele>
        <time>2025-05-16T11:59:52Z</time>
      </trkpt>
      <trkpt lat="43.52935804054141" lon="3.933157017454505">
        <ele>-5.63</ele>
        <time>2025-05-16T11:59:53Z</time>
      </trkpt>
      <trkpt lat="43.529695998877287" lon="3.933200016617775">
        <ele>-3.71</ele>
        <time>2025-05-16T11:59:58Z</time>
      </trkpt>
      <trkpt lat="43.529740003868937" lon="3.933204961940646">
        <ele>-3.71</ele>
        <time>2025-05-16T11:59:59Z</time>
      </trkpt>
      <trkpt lat="43.529806975275278" lon="3.933214014396071">
        <ele>-3.23</ele>
        <time>2025-05-16T12:00:00Z</time>
      </trkpt>
      <trkpt lat="43.529804963618517" lon="3.933160034939647">
        <ele>-2.75</ele>
        <time>2025-05-16T12:00:01Z</time>
      </trkpt>
      <trkpt lat="43.529802029952407" lon="3.933087028563023">
        <ele>-2.75</ele>
        <time>2025-05-16T12:00:02Z</time>
      </trkpt>
      <trkpt lat="43.529799012467265" lon="3.932998012751341">
        <ele>-2.27</ele>
        <time>2025-05-16T12:00:03Z</time>
      </trkpt>
      <trkpt lat="43.529795994982123" lon="3.932900028303266">
        <ele>-2.27</ele>
        <time>2025-05-16T12:00:04Z</time>
      </trkpt>
      <trkpt lat="43.529791971668601" lon="3.932801960036159">
        <ele>-2.27</ele>
        <time>2025-05-16T12:00:05Z</time>
      </trkpt>
      <trkpt lat="43.529789038002491" lon="3.932706993073225">
        <ele>-2.27</ele>
        <time>2025-05-16T12:00:06Z</time>
      </trkpt>
      <trkpt lat="43.529786020517349" lon="3.932623006403446">
        <ele>-1.79</ele>
        <time>2025-05-16T12:00:07Z</time>
      </trkpt>
      <trkpt lat="43.529783003032207" lon="3.932543965056539">
        <ele>-1.79</ele>
        <time>2025-05-16T12:00:08Z</time>
      </trkpt>
      <trkpt lat="43.529780991375446" lon="3.932474981993437">
        <ele>-1.79</ele>
        <time>2025-05-16T12:00:09Z</time>
      </trkpt>
      <trkpt lat="43.529778979718685" lon="3.932411028072238">
        <ele>-1.3</ele>
        <time>2025-05-16T12:00:10Z</time>
      </trkpt>
      <trkpt lat="43.529749978333712" lon="3.931551966816187">
        <ele>0.14</ele>
        <time>2025-05-16T12:00:19Z</time>
      </trkpt>
      <trkpt lat="43.529738998040557" lon="3.931205961853266">
        <ele>0.62</ele>
        <time>2025-05-16T12:00:22Z</time>
      </trkpt>
      <trkpt lat="43.529734974727035" lon="3.931093979626894">
        <ele>1.1</ele>
        <time>2025-05-16T12:00:23Z</time>
      </trkpt>
      <trkpt lat="43.52972500026226" lon="3.930784016847611">
        <ele>0.62</ele>
        <time>2025-05-16T12:00:26Z</time>
      </trkpt>
      <trkpt lat="43.529721982777119" lon="3.930686032399535">
        <ele>1.1</ele>
        <time>2025-05-16T12:00:27Z</time>
      </trkpt>
      <trkpt lat="43.529732963070273" lon="3.930592993274331">
        <ele>1.1</ele>
        <time>2025-05-16T12:00:28Z</time>
      </trkpt>
      <trkpt lat="43.529758024960756" lon="3.930457038804889">
        <ele>1.1</ele>
        <time>2025-05-16T12:00:30Z</time>
      </trkpt>
      <trkpt lat="43.529729023575783" lon="3.930390989407897">
        <ele>1.1</ele>
        <time>2025-05-16T12:00:31Z</time>
      </trkpt>
      <trkpt lat="43.529689963907003" lon="3.930354025214911">
        <ele>1.1</ele>
        <time>2025-05-16T12:00:32Z</time>
      </trkpt>
      <trkpt lat="43.529644031077623" lon="3.930311026051641">
        <ele>1.1</ele>
        <time>2025-05-16T12:00:33Z</time>
      </trkpt>
      <trkpt lat="43.529600026085973" lon="3.930270038545132">
        <ele>1.1</ele>
        <time>2025-05-16T12:00:34Z</time>
      </trkpt>
      <trkpt lat="43.529248991981149" lon="3.929865024983883">
        <ele>0.62</ele>
        <time>2025-05-16T12:00:45Z</time>
      </trkpt>
      <trkpt lat="43.529047993943095" lon="3.929582973942161">
        <ele>-0.34</ele>
        <time>2025-05-16T12:00:54Z</time>
      </trkpt>
      <trkpt lat="43.529001977294683" lon="3.929518014192581">
        <ele>-0.34</ele>
        <time>2025-05-16T12:01:04Z</time>
      </trkpt>
      <trkpt lat="43.529001977294683" lon="3.929518014192581">
        <ele>-0.34</ele>
        <time>2025-05-16T12:02:09Z</time>
      </trkpt>
      <trkpt lat="43.529044976457953" lon="3.929466968402267">
        <ele>3.5</ele>
        <time>2025-05-16T12:02:32Z</time>
      </trkpt>
      <trkpt lat="43.52901304140687" lon="3.929780032485724">
        <ele>3.5</ele>
        <time>2025-05-16T12:02:34Z</time>
      </trkpt>
      <trkpt lat="43.528974987566471" lon="3.929739966988564">
        <ele>3.5</ele>
        <time>2025-05-16T12:02:35Z</time>
      </trkpt>
      <trkpt lat="43.529022010043263" lon="3.929790006950498">
        <ele>4.94</ele>
        <time>2025-05-16T12:02:49Z</time>
      </trkpt>
      <trkpt lat="43.52916601113975" lon="3.929950017482042">
        <ele>3.98</ele>
        <time>2025-05-16T12:03:06Z</time>
      </trkpt>
      <trkpt lat="43.529205992817879" lon="3.929994022473693">
        <ele>3.98</ele>
        <time>2025-05-16T12:03:09Z</time>
      </trkpt>
      <trkpt lat="43.529214039444923" lon="3.930003996938467">
        <ele>3.98</ele>
        <time>2025-05-16T12:03:10Z</time>
      </trkpt>
      <trkpt lat="43.529334990307689" lon="3.929994022473693">
        <ele>3.98</ele>
        <time>2025-05-16T12:03:11Z</time>
      </trkpt>
      <trkpt lat="43.529334990307689" lon="3.929994022473693">
        <ele>3.5</ele>
        <time>2025-05-16T12:03:12Z</time>
      </trkpt>
      <trkpt lat="43.529334990307689" lon="3.929994022473693">
        <ele>-0.34</ele>
        <time>2025-05-16T12:03:25Z</time>
      </trkpt>
      <trkpt lat="43.529334990307689" lon="3.929994022473693">
        <ele>-0.34</ele>
        <time>2025-05-16T12:03:41Z</time>
      </trkpt>
      <trkpt lat="43.529301965609193" lon="3.929768968373537">
        <ele>-1.79</ele>
        <time>2025-05-16T12:37:19Z</time>
      </trkpt>
      <trkpt lat="43.529287967830896" lon="3.929758993908763">
        <ele>1.58</ele>
        <time>2025-05-16T12:38:08Z</time>
      </trkpt>
      <trkpt lat="43.529282016679645" lon="3.929762011393905">
        <ele>2.06</ele>
        <time>2025-05-16T12:38:53Z</time>
      </trkpt>
      <trkpt lat="43.529286962002516" lon="3.929764023050666">
        <ele>2.06</ele>
        <time>2025-05-16T12:39:41Z</time>
      </trkpt>
      <trkpt lat="43.529282016679645" lon="3.929767040535808">
        <ele>3.02</ele>
        <time>2025-05-16T12:40:23Z</time>
      </trkpt>
      <trkpt lat="43.529281010851264" lon="3.929768968373537">
        <ele>3.02</ele>
        <time>2025-05-16T12:40:49Z</time>
      </trkpt>
      <trkpt lat="43.529281010851264" lon="3.929767962545157">
        <ele>2.54</ele>
        <time>2025-05-16T12:41:26Z</time>
      </trkpt>
      <trkpt lat="43.529277993366122" lon="3.929763017222285">
        <ele>3.02</ele>
        <time>2025-05-16T12:42:10Z</time>
      </trkpt>
      <trkpt lat="43.529275981709361" lon="3.929764023050666">
        <ele>2.54</ele>
        <time>2025-05-16T12:42:59Z</time>
      </trkpt>
      <trkpt lat="43.5292739700526" lon="3.929762011393905">
        <ele>3.02</ele>
        <time>2025-05-16T12:43:31Z</time>
      </trkpt>
      <trkpt lat="43.5292739700526" lon="3.929762011393905">
        <ele>3.02</ele>
        <time>2025-05-16T12:43:35Z</time>
      </trkpt>
      <trkpt lat="43.529248991981149" lon="3.929870976135135">
        <ele>1.1</ele>
        <time>2025-05-16T12:43:44Z</time>
      </trkpt>
      <trkpt lat="43.529205992817879" lon="3.929994022473693">
        <ele>0.62</ele>
        <time>2025-05-16T12:43:46Z</time>
      </trkpt>
      <trkpt lat="43.52923097088933" lon="3.930023023858666">
        <ele>0.62</ele>
        <time>2025-05-16T12:43:47Z</time>
      </trkpt>
      <trkpt lat="43.529269024729729" lon="3.930067028850317">
        <ele>0.14</ele>
        <time>2025-05-16T12:43:48Z</time>
      </trkpt>
      <trkpt lat="43.529305988922715" lon="3.930111033841968">
        <ele>0.14</ele>
        <time>2025-05-16T12:43:49Z</time>
      </trkpt>
      <trkpt lat="43.529334990307689" lon="3.930143974721432">
        <ele>-0.34</ele>
        <time>2025-05-16T12:43:50Z</time>
      </trkpt>
      <trkpt lat="43.529334990307689" lon="3.930143974721432">
        <ele>-0.34</ele>
        <time>2025-05-16T12:43:51Z</time>
      </trkpt>
      <trkpt lat="43.529334990307689" lon="3.930143974721432">
        <ele>-0.82</ele>
        <time>2025-05-16T12:43:52Z</time>
      </trkpt>
      <trkpt lat="43.529334990307689" lon="3.930143974721432">
        <ele>-0.82</ele>
        <time>2025-05-16T12:43:53Z</time>
      </trkpt>
      <trkpt lat="43.529329961165786" lon="3.930276995524764">
        <ele>-0.82</ele>
        <time>2025-05-16T12:43:54Z</time>
      </trkpt>
      <trkpt lat="43.529328033328056" lon="3.930342039093375">
        <ele>-1.3</ele>
        <time>2025-05-16T12:43:55Z</time>
      </trkpt>
      <trkpt lat="43.529325015842915" lon="3.930406998842955">
        <ele>-1.3</ele>
        <time>2025-05-16T12:43:56Z</time>
      </trkpt>
      <trkpt lat="43.529323004186153" lon="3.930472964420915">
        <ele>-1.79</ele>
        <time>2025-05-16T12:43:57Z</time>
      </trkpt>
      <trkpt lat="43.529319986701012" lon="3.930545970797539">
        <ele>-2.27</ele>
        <time>2025-05-16T12:43:58Z</time>
      </trkpt>
      <trkpt lat="43.52931696921587" lon="3.930626017972827">
        <ele>-2.75</ele>
        <time>2025-05-16T12:43:59Z</time>
      </trkpt>
      <trkpt lat="43.529291991144419" lon="3.93153503537178">
        <ele>-6.11</ele>
        <time>2025-05-16T12:44:09Z</time>
      </trkpt>
      <trkpt lat="43.529206998646259" lon="3.932424020022154">
        <ele>-9</ele>
        <time>2025-05-16T12:44:19Z</time>
      </trkpt>
      <trkpt lat="43.529136003926396" lon="3.932857029139996">
        <ele>-10.44</ele>
        <time>2025-05-16T12:44:24Z</time>
      </trkpt>
      <trkpt lat="43.529127035290003" lon="3.932914026081562">
        <ele>-10.92</ele>
        <time>2025-05-16T12:44:25Z</time>
      </trkpt>
      <trkpt lat="43.529119994491339" lon="3.932956019416452">
        <ele>-11.4</ele>
        <time>2025-05-16T12:44:26Z</time>
      </trkpt>
      <trkpt lat="43.529113959521055" lon="3.932989966124296">
        <ele>-11.4</ele>
        <time>2025-05-16T12:44:27Z</time>
      </trkpt>
      <trkpt lat="43.529211021959782" lon="3.933120975270867">
        <ele>-11.880000000000001</ele>
        <time>2025-05-16T12:44:28Z</time>
      </trkpt>
      <trkpt lat="43.529233988374472" lon="3.933129021897912">
        <ele>-11.880000000000001</ele>
        <time>2025-05-16T12:44:29Z</time>
      </trkpt>
      <trkpt lat="43.529272964224219" lon="3.933142013847828">
        <ele>-12.359999999999999</ele>
        <time>2025-05-16T12:44:30Z</time>
      </trkpt>
      <trkpt lat="43.529330966994166" lon="3.933153999969363">
        <ele>-12.359999999999999</ele>
        <time>2025-05-16T12:44:31Z</time>
      </trkpt>
      <trkpt lat="43.529401961714029" lon="3.933162968605757">
        <ele>-12.359999999999999</ele>
        <time>2025-05-16T12:44:32Z</time>
      </trkpt>
      <trkpt lat="43.529539005830884" lon="3.933180989697576">
        <ele>-12.84</ele>
        <time>2025-05-16T12:44:34Z</time>
      </trkpt>
      <trkpt lat="43.529586028307676" lon="3.933187024667859">
        <ele>-12.84</ele>
        <time>2025-05-16T12:44:35Z</time>
      </trkpt>
      <trkpt lat="43.529626009985805" lon="3.933192975819111">
        <ele>-12.84</ele>
        <time>2025-05-16T12:44:36Z</time>
      </trkpt>
      <trkpt lat="43.529665991663933" lon="3.933196999132633">
        <ele>-12.84</ele>
        <time>2025-05-16T12:44:37Z</time>
      </trkpt>
      <trkpt lat="43.529697004705667" lon="3.933200016617775">
        <ele>-13.32</ele>
        <time>2025-05-16T12:44:38Z</time>
      </trkpt>
      <trkpt lat="43.529806975275278" lon="3.933213008567691">
        <ele>-13.800000000000001</ele>
        <time>2025-05-16T12:44:39Z</time>
      </trkpt>
      <trkpt lat="43.529804041609168" lon="3.933149976655841">
        <ele>-13.800000000000001</ele>
        <time>2025-05-16T12:44:40Z</time>
      </trkpt>
      <trkpt lat="43.529802029952407" lon="3.933077976107597">
        <ele>-13.800000000000001</ele>
        <time>2025-05-16T12:44:41Z</time>
      </trkpt>
      <trkpt lat="43.529799012467265" lon="3.932991977781057">
        <ele>-13.32</ele>
        <time>2025-05-16T12:44:42Z</time>
      </trkpt>
      <trkpt lat="43.529795994982123" lon="3.932899022474885">
        <ele>-13.32</ele>
        <time>2025-05-16T12:44:43Z</time>
      </trkpt>
      <trkpt lat="43.529750984162092" lon="3.931607035920024">
        <ele>-9.960000000000001</ele>
        <time>2025-05-16T12:44:54Z</time>
      </trkpt>
      <trkpt lat="43.529720976948738" lon="3.930658958852291">
        <ele>-5.63</ele>
        <time>2025-05-16T12:45:02Z</time>
      </trkpt>
      <trkpt lat="43.52974796667695" lon="3.930509006604552">
        <ele>-5.15</ele>
        <time>2025-05-16T12:45:03Z</time>
      </trkpt>
      <trkpt lat="43.529775040224195" lon="3.930400041863322">
        <ele>-4.67</ele>
        <time>2025-05-16T12:45:04Z</time>
      </trkpt>
      <trkpt lat="43.529827008023858" lon="3.930301973596215">
        <ele>-4.19</ele>
        <time>2025-05-16T12:45:05Z</time>
      </trkpt>
      <trkpt lat="43.529884004965425" lon="3.930202983319759">
        <ele>-3.71</ele>
        <time>2025-05-16T12:45:06Z</time>
      </trkpt>
      <trkpt lat="43.530305027961731" lon="3.929483983665705">
        <ele>-3.71</ele>
        <time>2025-05-16T12:45:15Z</time>
      </trkpt>
      <trkpt lat="43.530833004042506" lon="3.9285690151155">
        <ele>-3.23</ele>
        <time>2025-05-16T12:45:27Z</time>
      </trkpt>
      <trkpt lat="43.53088597767055" lon="3.928498020395637">
        <ele>-3.23</ele>
        <time>2025-05-16T12:45:28Z</time>
      </trkpt>
      <trkpt lat="43.530940962955356" lon="3.928417973220348">
        <ele>-3.23</ele>
        <time>2025-05-16T12:45:29Z</time>
      </trkpt>
      <trkpt lat="43.531324015930295" lon="3.927779020741582">
        <ele>-1.79</ele>
        <time>2025-05-16T12:45:38Z</time>
      </trkpt>
      <trkpt lat="43.531935978680849" lon="3.926833039149642">
        <ele>-2.27</ele>
        <time>2025-05-16T12:45:50Z</time>
      </trkpt>
      <trkpt lat="43.53204402141273" lon="3.926670011132956">
        <ele>-2.27</ele>
        <time>2025-05-16T12:45:52Z</time>
      </trkpt>
      <trkpt lat="43.532089032232761" lon="3.926611002534628">
        <ele>-2.27</ele>
        <time>2025-05-16T12:45:53Z</time>
      </trkpt>
      <trkpt lat="43.532170001417398" lon="3.926510000601411">
        <ele>-2.75</ele>
        <time>2025-05-16T12:45:56Z</time>
      </trkpt>
      <trkpt lat="43.532251976430416" lon="3.926444035023451">
        <ele>-2.27</ele>
        <time>2025-05-16T12:45:57Z</time>
      </trkpt>
      <trkpt lat="43.532317019999027" lon="3.926478987559676">
        <ele>-2.27</ele>
        <time>2025-05-16T12:45:58Z</time>
      </trkpt>
      <trkpt lat="43.532390026375651" lon="3.926519975066185">
        <ele>-1.79</ele>
        <time>2025-05-16T12:45:59Z</time>
      </trkpt>
      <trkpt lat="43.532484993338585" lon="3.926504971459508">
        <ele>-1.79</ele>
        <time>2025-05-16T12:46:00Z</time>
      </trkpt>
      <trkpt lat="43.532566968351603" lon="3.926458032801747">
        <ele>-1.79</ele>
        <time>2025-05-16T12:46:01Z</time>
      </trkpt>
      <trkpt lat="43.532618014141917" lon="3.926341021433473">
        <ele>-1.79</ele>
        <time>2025-05-16T12:46:02Z</time>
      </trkpt>
      <trkpt lat="43.532660007476807" lon="3.926232978701592">
        <ele>-2.27</ele>
        <time>2025-05-16T12:46:03Z</time>
      </trkpt>
      <trkpt lat="43.532665958628058" lon="3.926111022010446">
        <ele>-2.27</ele>
        <time>2025-05-16T12:46:04Z</time>
      </trkpt>
      <trkpt lat="43.532637963071465" lon="3.925998033955693">
        <ele>-1.79</ele>
        <time>2025-05-16T12:46:05Z</time>
      </trkpt>
      <trkpt lat="43.532587001100183" lon="3.925898037850857">
        <ele>-1.79</ele>
        <time>2025-05-16T12:46:06Z</time>
      </trkpt>
      <trkpt lat="43.532510977238417" lon="3.925851015374064">
        <ele>-1.79</ele>
        <time>2025-05-16T12:46:07Z</time>
      </trkpt>
      <trkpt lat="43.532446017488837" lon="3.925810027867556">
        <ele>-1.3</ele>
        <time>2025-05-16T12:46:08Z</time>
      </trkpt>
      <trkpt lat="43.532358007505536" lon="3.925732998177409">
        <ele>-1.3</ele>
        <time>2025-05-16T12:46:09Z</time>
      </trkpt>
      <trkpt lat="43.532276032492518" lon="3.925660997629166">
        <ele>-0.82</ele>
        <time>2025-05-16T12:46:10Z</time>
      </trkpt>
      <trkpt lat="43.532188022509217" lon="3.9255849737674">
        <ele>-0.82</ele>
        <time>2025-05-16T12:46:11Z</time>
      </trkpt>
      <trkpt lat="43.531324015930295" lon="3.924709986895323">
        <ele>4.94</ele>
        <time>2025-05-16T12:46:22Z</time>
      </trkpt>
      <trkpt lat="43.530557993799448" lon="3.923922004178166">
        <ele>4.46</ele>
        <time>2025-05-16T12:46:31Z</time>
      </trkpt>
      <trkpt lat="43.530529998242855" lon="3.923765011131764">
        <ele>3.98</ele>
        <time>2025-05-16T12:46:32Z</time>
      </trkpt>
      <trkpt lat="43.530437964946032" lon="3.923505004495382">
        <ele>3.02</ele>
        <time>2025-05-16T12:46:34Z</time>
      </trkpt>
      <trkpt lat="43.53038901463151" lon="3.923367038369179">
        <ele>2.06</ele>
        <time>2025-05-16T12:46:35Z</time>
      </trkpt>
      <trkpt lat="43.530360013246536" lon="3.92322001978755">
        <ele>1.58</ele>
        <time>2025-05-16T12:46:36Z</time>
      </trkpt>
      <trkpt lat="43.530350960791111" lon="3.923053974285722">
        <ele>1.1</ele>
        <time>2025-05-16T12:46:37Z</time>
      </trkpt>
      <trkpt lat="43.530350038781762" lon="3.922888012602925">
        <ele>0.62</ele>
        <time>2025-05-16T12:46:38Z</time>
      </trkpt>
      <trkpt lat="43.530391026288271" lon="3.922744011506438">
        <ele>0.14</ele>
        <time>2025-05-16T12:46:39Z</time>
      </trkpt>
      <trkpt lat="43.530426984652877" lon="3.922617025673389">
        <ele>-0.34</ele>
        <time>2025-05-16T12:46:40Z</time>
      </trkpt>
      <trkpt lat="43.530459003522992" lon="3.922503031790257">
        <ele>-0.34</ele>
        <time>2025-05-16T12:46:41Z</time>
      </trkpt>
      <trkpt lat="43.530489010736346" lon="3.922393983229995">
        <ele>-0.82</ele>
        <time>2025-05-16T12:46:42Z</time>
      </trkpt>
      <trkpt lat="43.530521029606462" lon="3.922280995175242">
        <ele>-1.3</ele>
        <time>2025-05-16T12:46:43Z</time>
      </trkpt>
      <trkpt lat="43.530545001849532" lon="3.922127019613981">
        <ele>-1.3</ele>
        <time>2025-05-16T12:46:44Z</time>
      </trkpt>
      <trkpt lat="43.531211027875543" lon="3.921181038022041">
        <ele>-1.79</ele>
        <time>2025-05-16T12:46:51Z</time>
      </trkpt>
      <trkpt lat="43.532156003639102" lon="3.9197619818151">
        <ele>-3.23</ele>
        <time>2025-05-16T12:47:01Z</time>
      </trkpt>
      <trkpt lat="43.532310985028744" lon="3.919542040675879">
        <ele>-3.71</ele>
        <time>2025-05-16T12:47:03Z</time>
      </trkpt>
      <trkpt lat="43.532354990020394" lon="3.919479008764029">
        <ele>-3.71</ele>
        <time>2025-05-16T12:47:04Z</time>
      </trkpt>
      <trkpt lat="43.532375022768974" lon="3.919452019035816">
        <ele>-3.71</ele>
        <time>2025-05-16T12:47:12Z</time>
      </trkpt>
      <trkpt lat="43.532375022768974" lon="3.919452019035816">
        <ele>-3.71</ele>
        <time>2025-05-16T12:47:13Z</time>
      </trkpt>
      <trkpt lat="43.532661013305187" lon="3.919415976852179">
        <ele>-2.75</ele>
        <time>2025-05-16T12:47:23Z</time>
      </trkpt>
      <trkpt lat="43.532675011083484" lon="3.91939602792263">
        <ele>-2.75</ele>
        <time>2025-05-16T12:47:36Z</time>
      </trkpt>
      <trkpt lat="43.532675011083484" lon="3.91939602792263">
        <ele>-2.27</ele>
        <time>2025-05-16T12:48:14Z</time>
      </trkpt>
      <trkpt lat="43.532675011083484" lon="3.91939602792263">
        <ele>-1.79</ele>
        <time>2025-05-16T12:49:11Z</time>
      </trkpt>
      <trkpt lat="43.532675011083484" lon="3.91939602792263">
        <ele>-1.79</ele>
        <time>2025-05-16T12:49:58Z</time>
      </trkpt>
      <trkpt lat="43.532675011083484" lon="3.91939602792263">
        <ele>-1.3</ele>
        <time>2025-05-16T12:50:40Z</time>
      </trkpt>
      <trkpt lat="43.532675011083484" lon="3.91939602792263">
        <ele>-1.3</ele>
        <time>2025-05-16T12:51:28Z</time>
      </trkpt>
      <trkpt lat="43.532675011083484" lon="3.91939602792263">
        <ele>-1.3</ele>
        <time>2025-05-16T12:52:08Z</time>
      </trkpt>
      <trkpt lat="43.532675011083484" lon="3.91939602792263">
        <ele>-1.79</ele>
        <time>2025-05-16T12:52:57Z</time>
      </trkpt>
      <trkpt lat="43.532675011083484" lon="3.91939602792263">
        <ele>-1.79</ele>
        <time>2025-05-16T12:53:42Z</time>
      </trkpt>
      <trkpt lat="43.532850025221705" lon="3.919359985738993">
        <ele>-5.15</ele>
        <time>2025-05-16T12:57:27Z</time>
      </trkpt>
      <trkpt lat="43.532824041321874" lon="3.919410025700927">
        <ele>-14.279999999999999</ele>
        <time>2025-05-16T12:57:46Z</time>
      </trkpt>
      <trkpt lat="43.532813983038068" lon="3.919368032366037">
        <ele>-12.84</ele>
        <time>2025-05-16T12:58:13Z</time>
      </trkpt>
      <trkpt lat="43.532808031886816" lon="3.91920299269259">
        <ele>-4.19</ele>
        <time>2025-05-16T12:58:26Z</time>
      </trkpt>
      <trkpt lat="43.532819012179971" lon="3.919125963002443">
        <ele>2.06</ele>
        <time>2025-05-16T12:58:36Z</time>
      </trkpt>
      <trkpt lat="43.532810965552926" lon="3.919114982709289">
        <ele>2.54</ele>
        <time>2025-05-16T12:58:37Z</time>
      </trkpt>
      <trkpt lat="43.532767966389656" lon="3.91901096329093">
        <ele>1.1</ele>
        <time>2025-05-16T12:58:45Z</time>
      </trkpt>
      <trkpt lat="43.532767966389656" lon="3.918975004926324">
        <ele>1.1</ele>
        <time>2025-05-16T12:58:46Z</time>
      </trkpt>
      <trkpt lat="43.532767966389656" lon="3.918913984671235">
        <ele>1.1</ele>
        <time>2025-05-16T12:58:47Z</time>
      </trkpt>
      <trkpt lat="43.53279403410852" lon="3.918818011879921">
        <ele>1.1</ele>
        <time>2025-05-16T12:58:48Z</time>
      </trkpt>
      <trkpt lat="43.532853964716196" lon="3.918728996068239">
        <ele>1.1</ele>
        <time>2025-05-16T12:58:49Z</time>
      </trkpt>
      <trkpt lat="43.532899981364608" lon="3.918653978034854">
        <ele>1.1</ele>
        <time>2025-05-16T12:58:50Z</time>
      </trkpt>
      <trkpt lat="43.532961001619697" lon="3.918555993586779">
        <ele>1.1</ele>
        <time>2025-05-16T12:58:52Z</time>
      </trkpt>
      <trkpt lat="43.533674972131848" lon="3.917299965396524">
        <ele>3.98</ele>
        <time>2025-05-16T12:59:00Z</time>
      </trkpt>
      <trkpt lat="43.534395983442664" lon="3.915426023304462">
        <ele>3.02</ele>
        <time>2025-05-16T12:59:10Z</time>
      </trkpt>
      <trkpt lat="43.53483603335917" lon="3.91320800408721">
        <ele>-1.79</ele>
        <time>2025-05-16T12:59:20Z</time>
      </trkpt>
      <trkpt lat="43.534813988953829" lon="3.910912033170462">
        <ele>-2.27</ele>
        <time>2025-05-16T12:59:28Z</time>
      </trkpt>
      <trkpt lat="43.534463960677385" lon="3.907940983772278">
        <ele>-3.23</ele>
        <time>2025-05-16T12:59:38Z</time>
      </trkpt>
      <trkpt lat="43.534445017576218" lon="3.90702199190855">
        <ele>-2.75</ele>
        <time>2025-05-16T12:59:41Z</time>
      </trkpt>
      <trkpt lat="43.534477036446333" lon="3.906716974452138">
        <ele>-3.23</ele>
        <time>2025-05-16T12:59:42Z</time>
      </trkpt>
      <trkpt lat="43.534544007852674" lon="3.906429978087544">
        <ele>-3.23</ele>
        <time>2025-05-16T12:59:43Z</time>
      </trkpt>
      <trkpt lat="43.534626988694072" lon="3.906148010864854">
        <ele>-3.23</ele>
        <time>2025-05-16T12:59:44Z</time>
      </trkpt>
      <trkpt lat="43.53475296869874" lon="3.905885992571712">
        <ele>-3.23</ele>
        <time>2025-05-16T12:59:45Z</time>
      </trkpt>
      <trkpt lat="43.534878026694059" lon="3.90562498010695">
        <ele>-3.23</ele>
        <time>2025-05-16T12:59:46Z</time>
      </trkpt>
      <trkpt lat="43.535024961456656" lon="3.905396992340684">
        <ele>-3.23</ele>
        <time>2025-05-16T12:59:47Z</time>
      </trkpt>
      <trkpt lat="43.536534961313009" lon="3.903104960918427">
        <ele>-3.71</ele>
        <time>2025-05-16T12:59:57Z</time>
      </trkpt>
      <trkpt lat="43.538520969450474" lon="3.900025030598044">
        <ele>-2.75</ele>
        <time>2025-05-16T13:00:11Z</time>
      </trkpt>
      <trkpt lat="43.53928598575294" lon="3.898839997127652">
        <ele>-2.75</ele>
        <time>2025-05-16T13:00:18Z</time>
      </trkpt>
      <trkpt lat="43.539632996544242" lon="3.89834102243185">
        <ele>-2.27</ele>
        <time>2025-05-16T13:00:23Z</time>
      </trkpt>
      <trkpt lat="43.539694016799331" lon="3.898305986076593">
        <ele>-2.27</ele>
        <time>2025-05-16T13:00:24Z</time>
      </trkpt>
      <trkpt lat="43.539752019569278" lon="3.898272039368749">
        <ele>-2.27</ele>
        <time>2025-05-16T13:00:25Z</time>
      </trkpt>
      <trkpt lat="43.539812033995986" lon="3.898237003013492">
        <ele>-2.27</ele>
        <time>2025-05-16T13:00:26Z</time>
      </trkpt>
      <trkpt lat="43.539879005402327" lon="3.898218981921673">
        <ele>-1.79</ele>
        <time>2025-05-16T13:00:27Z</time>
      </trkpt>
      <trkpt lat="43.539956035092473" lon="3.898227028548718">
        <ele>-1.79</ele>
        <time>2025-05-16T13:00:28Z</time>
      </trkpt>
      <trkpt lat="43.540042033419013" lon="3.898237003013492">
        <ele>-1.79</ele>
        <time>2025-05-16T13:00:29Z</time>
      </trkpt>
      <trkpt lat="43.540127025917172" lon="3.898194003850222">
        <ele>-1.79</ele>
        <time>2025-05-16T13:00:30Z</time>
      </trkpt>
      <trkpt lat="43.540201960131526" lon="3.898120997473598">
        <ele>-1.79</ele>
        <time>2025-05-16T13:00:31Z</time>
      </trkpt>
      <trkpt lat="43.540261974558234" lon="3.898019995540381">
        <ele>-1.79</ele>
        <time>2025-05-16T13:00:32Z</time>
      </trkpt>
      <trkpt lat="43.540324000641704" lon="3.897916981950402">
        <ele>-1.79</ele>
        <time>2025-05-16T13:00:33Z</time>
      </trkpt>
      <trkpt lat="43.54038099758327" lon="3.897821009159088">
        <ele>-1.3</ele>
        <time>2025-05-16T13:00:34Z</time>
      </trkpt>
      <trkpt lat="43.540431959554553" lon="3.897731993347406">
        <ele>-1.3</ele>
        <time>2025-05-16T13:00:42Z</time>
      </trkpt>
      <trkpt lat="43.542406987398863" lon="3.896835967898369">
        <ele>-2.75</ele>
        <time>2025-05-16T13:00:49Z</time>
      </trkpt>
      <trkpt lat="43.544973023235798" lon="3.895830977708101">
        <ele>-5.15</ele>
        <time>2025-05-16T13:01:01Z</time>
      </trkpt>
      <trkpt lat="43.547307970002294" lon="3.894904023036361">
        <ele>-5.15</ele>
        <time>2025-05-16T13:01:12Z</time>
      </trkpt>
      <trkpt lat="43.549854978919029" lon="3.893904983997345">
        <ele>-5.15</ele>
        <time>2025-05-16T13:01:24Z</time>
      </trkpt>
      <trkpt lat="43.551999991759658" lon="3.893374996259809">
        <ele>-4.67</ele>
        <time>2025-05-16T13:01:34Z</time>
      </trkpt>
      <trkpt lat="43.554395958781242" lon="3.893103003501892">
        <ele>-3.23</ele>
        <time>2025-05-16T13:01:45Z</time>
      </trkpt>
      <trkpt lat="43.557110019028187" lon="3.892850959673524">
        <ele>-6.11</ele>
        <time>2025-05-16T13:01:58Z</time>
      </trkpt>
      <trkpt lat="43.55896501801908" lon="3.893241975456476">
        <ele>-5.63</ele>
        <time>2025-05-16T13:02:07Z</time>
      </trkpt>
      <trkpt lat="43.561526024714112" lon="3.893948988988996">
        <ele>-2.27</ele>
        <time>2025-05-16T13:02:19Z</time>
      </trkpt>
      <trkpt lat="43.563523013144732" lon="3.894316032528877">
        <ele>-0.82</ele>
        <time>2025-05-16T13:02:28Z</time>
      </trkpt>
      <trkpt lat="43.565727034583688" lon="3.894853983074427">
        <ele>-1.3</ele>
        <time>2025-05-16T13:02:38Z</time>
      </trkpt>
      <trkpt lat="43.568134987726808" lon="3.89544197358191">
        <ele>-0.34</ele>
        <time>2025-05-16T13:02:49Z</time>
      </trkpt>
      <trkpt lat="43.570763971656561" lon="3.896099030971527">
        <ele>0.14</ele>
        <time>2025-05-16T13:03:01Z</time>
      </trkpt>
      <trkpt lat="43.572335997596383" lon="3.896474959328771">
        <ele>0.14</ele>
        <time>2025-05-16T13:03:08Z</time>
      </trkpt>
      <trkpt lat="43.576056975871325" lon="3.897362016141415">
        <ele>-0.82</ele>
        <time>2025-05-16T13:03:25Z</time>
      </trkpt>
      <trkpt lat="43.578911013901234" lon="3.898054026067257">
        <ele>-1.3</ele>
        <time>2025-05-16T13:03:38Z</time>
      </trkpt>
      <trkpt lat="43.581079998984933" lon="3.898335993289948">
        <ele>0.62</ele>
        <time>2025-05-16T13:03:48Z</time>
      </trkpt>
      <trkpt lat="43.582312976941466" lon="3.897973978891969">
        <ele>0.62</ele>
        <time>2025-05-16T13:03:55Z</time>
      </trkpt>
      <trkpt lat="43.583585014566779" lon="3.897363021969795">
        <ele>1.1</ele>
        <time>2025-05-16T13:04:04Z</time>
      </trkpt>
      <trkpt lat="43.583717029541731" lon="3.89728800393641">
        <ele>1.1</ele>
        <time>2025-05-16T13:04:05Z</time>
      </trkpt>
      <trkpt lat="43.583848960697651" lon="3.897219020873308">
        <ele>1.1</ele>
        <time>2025-05-16T13:04:06Z</time>
      </trkpt>
      <trkpt lat="43.583972007036209" lon="3.897122964262962">
        <ele>1.1</ele>
        <time>2025-05-16T13:04:07Z</time>
      </trkpt>
      <trkpt lat="43.585087973624468" lon="3.896211013197899">
        <ele>3.02</ele>
        <time>2025-05-16T13:04:15Z</time>
      </trkpt>
      <trkpt lat="43.586192959919572" lon="3.895066967234016">
        <ele>8.310000000000001</ele>
        <time>2025-05-16T13:04:24Z</time>
      </trkpt>
      <trkpt lat="43.586461013182998" lon="3.894853983074427">
        <ele>9.75</ele>
        <time>2025-05-16T13:04:26Z</time>
      </trkpt>
      <trkpt lat="43.586600990965962" lon="3.894768990576267">
        <ele>10.23</ele>
        <time>2025-05-16T13:04:28Z</time>
      </trkpt>
      <trkpt lat="43.587026037275791" lon="3.894615015015006">
        <ele>11.19</ele>
        <time>2025-05-16T13:04:30Z</time>
      </trkpt>
      <trkpt lat="43.587162997573614" lon="3.894592970609665">
        <ele>11.19</ele>
        <time>2025-05-16T13:04:31Z</time>
      </trkpt>
      <trkpt lat="43.587312027812004" lon="3.894619960337877">
        <ele>11.19</ele>
        <time>2025-05-16T13:04:32Z</time>
      </trkpt>
      <trkpt lat="43.587458962574601" lon="3.894673017784953">
        <ele>11.67</ele>
        <time>2025-05-16T13:04:33Z</time>
      </trkpt>
      <trkpt lat="43.587606986984611" lon="3.894746024161577">
        <ele>11.67</ele>
        <time>2025-05-16T13:04:34Z</time>
      </trkpt>
      <trkpt lat="43.587740007787943" lon="3.894861023873091">
        <ele>11.67</ele>
        <time>2025-05-16T13:04:35Z</time>
      </trkpt>
      <trkpt lat="43.587876968085766" lon="3.894993038848043">
        <ele>11.67</ele>
        <time>2025-05-16T13:04:36Z</time>
      </trkpt>
      <trkpt lat="43.588984971866012" lon="3.896399019286037">
        <ele>11.19</ele>
        <time>2025-05-16T13:04:44Z</time>
      </trkpt>
      <trkpt lat="43.590297996997833" lon="3.898591976612806">
        <ele>10.23</ele>
        <time>2025-05-16T13:04:54Z</time>
      </trkpt>
      <trkpt lat="43.591338023543358" lon="3.90057697892189">
        <ele>9.75</ele>
        <time>2025-05-16T13:05:02Z</time>
      </trkpt>
      <trkpt lat="43.592534959316254" lon="3.902904968708754">
        <ele>8.789999999999999</ele>
        <time>2025-05-16T13:05:11Z</time>
      </trkpt>
      <trkpt lat="43.594199018552899" lon="3.906172988936305">
        <ele>7.35</ele>
        <time>2025-05-16T13:05:24Z</time>
      </trkpt>
      <trkpt lat="43.596072038635612" lon="3.909967979416251">
        <ele>9.27</ele>
        <time>2025-05-16T13:05:38Z</time>
      </trkpt>
      <trkpt lat="43.597714975476265" lon="3.913410007953644">
        <ele>16.48</ele>
        <time>2025-05-16T13:05:51Z</time>
      </trkpt>
      <trkpt lat="43.598699010908604" lon="3.915494000539184">
        <ele>17.440000000000001</ele>
        <time>2025-05-16T13:05:59Z</time>
      </trkpt>
      <trkpt lat="43.600018993020058" lon="3.918289029970765">
        <ele>16</ele>
        <time>2025-05-16T13:06:10Z</time>
      </trkpt>
      <trkpt lat="43.600833965465426" lon="3.920078985393047">
        <ele>16</ele>
        <time>2025-05-16T13:06:17Z</time>
      </trkpt>
      <trkpt lat="43.602238018065691" lon="3.923338958993554">
        <ele>17.440000000000001</ele>
        <time>2025-05-16T13:06:29Z</time>
      </trkpt>
      <trkpt lat="43.603825969621539" lon="3.927234029397368">
        <ele>23.210000000000001</ele>
        <time>2025-05-16T13:06:43Z</time>
      </trkpt>
      <trkpt lat="43.604791983962059" lon="3.929697973653674">
        <ele>26.09</ele>
        <time>2025-05-16T13:06:52Z</time>
      </trkpt>
      <trkpt lat="43.605965031310916" lon="3.932342967018485">
        <ele>30.899999999999999</ele>
        <time>2025-05-16T13:07:02Z</time>
      </trkpt>
      <trkpt lat="43.607164984568954" lon="3.934541959315538">
        <ele>35.229999999999997</ele>
        <time>2025-05-16T13:07:11Z</time>
      </trkpt>
      <trkpt lat="43.609318966045976" lon="3.937731022015214">
        <ele>38.109999999999999</ele>
        <time>2025-05-16T13:07:25Z</time>
      </trkpt>
      <trkpt lat="43.610626040026546" lon="3.939453000202775">
        <ele>37.630000000000003</ele>
        <time>2025-05-16T13:07:33Z</time>
      </trkpt>
      <trkpt lat="43.612582040950656" lon="3.941981988027692">
        <ele>34.740000000000002</ele>
        <time>2025-05-16T13:07:45Z</time>
      </trkpt>
      <trkpt lat="43.61469998024404" lon="3.9447480160743">
        <ele>31.379999999999999</ele>
        <time>2025-05-16T13:07:58Z</time>
      </trkpt>
      <trkpt lat="43.615957014262676" lon="3.946541994810104">
        <ele>32.82</ele>
        <time>2025-05-16T13:08:06Z</time>
      </trkpt>
      <trkpt lat="43.617699025198817" lon="3.949353033676744">
        <ele>28.5</ele>
        <time>2025-05-16T13:08:18Z</time>
      </trkpt>
      <trkpt lat="43.618878023698926" lon="3.951971037313342">
        <ele>24.170000000000002</ele>
        <time>2025-05-16T13:08:28Z</time>
      </trkpt>
      <trkpt lat="43.619428966194391" lon="3.953936006873846">
        <ele>19.359999999999999</ele>
        <time>2025-05-16T13:08:35Z</time>
      </trkpt>
      <trkpt lat="43.62026103772223" lon="3.956193001940846">
        <ele>19.84</ele>
        <time>2025-05-16T13:08:43Z</time>
      </trkpt>
      <trkpt lat="43.621592000126839" lon="3.95828403532505">
        <ele>17.440000000000001</ele>
        <time>2025-05-16T13:08:52Z</time>
      </trkpt>
      <trkpt lat="43.623243989422917" lon="3.959857989102602">
        <ele>18.399999999999999</ele>
        <time>2025-05-16T13:09:01Z</time>
      </trkpt>
      <trkpt lat="43.624765975400805" lon="3.961683986708522">
        <ele>17.920000000000002</ele>
        <time>2025-05-16T13:09:10Z</time>
      </trkpt>
      <trkpt lat="43.627405017614365" lon="3.965028030797839">
        <ele>14.56</ele>
        <time>2025-05-16T13:09:26Z</time>
      </trkpt>
      <trkpt lat="43.629940962418914" lon="3.967577973380685">
        <ele>17.920000000000002</ele>
        <time>2025-05-16T13:09:40Z</time>
      </trkpt>
      <trkpt lat="43.632069965824485" lon="3.969289977103472">
        <ele>22.73</ele>
        <time>2025-05-16T13:09:51Z</time>
      </trkpt>
      <trkpt lat="43.634989969432354" lon="3.970841970294714">
        <ele>29.460000000000001</ele>
        <time>2025-05-16T13:10:05Z</time>
      </trkpt>
      <trkpt lat="43.638655040413141" lon="3.972343001514673">
        <ele>31.379999999999999</ele>
        <time>2025-05-16T13:10:22Z</time>
      </trkpt>
      <trkpt lat="43.641100041568279" lon="3.973894994705916">
        <ele>30.899999999999999</ele>
        <time>2025-05-16T13:10:34Z</time>
      </trkpt>
      <trkpt lat="43.643534984439611" lon="3.976106978952885">
        <ele>27.050000000000001</ele>
        <time>2025-05-16T13:10:47Z</time>
      </trkpt>
      <trkpt lat="43.645677985623479" lon="3.978831013664603">
        <ele>23.210000000000001</ele>
        <time>2025-05-16T13:11:00Z</time>
      </trkpt>
      <trkpt lat="43.647263003513217" lon="3.981396965682507">
        <ele>22.25</ele>
        <time>2025-05-16T13:11:10Z</time>
      </trkpt>
      <trkpt lat="43.649021023884416" lon="3.984404979273677">
        <ele>21.289999999999999</ele>
        <time>2025-05-16T13:11:21Z</time>
      </trkpt>
      <trkpt lat="43.650465980172157" lon="3.986894991248846">
        <ele>18.879999999999999</ele>
        <time>2025-05-16T13:11:31Z</time>
      </trkpt>
      <trkpt lat="43.651984026655555" lon="3.989100018516183">
        <ele>18.879999999999999</ele>
        <time>2025-05-16T13:11:41Z</time>
      </trkpt>
      <trkpt lat="43.652948029339314" lon="3.990788972005248">
        <ele>19.359999999999999</ele>
        <time>2025-05-16T13:11:49Z</time>
      </trkpt>
      <trkpt lat="43.653178028762341" lon="3.991378974169493">
        <ele>19.84</ele>
        <time>2025-05-16T13:11:52Z</time>
      </trkpt>
      <trkpt lat="43.653233014047146" lon="3.991590030491352">
        <ele>19.84</ele>
        <time>2025-05-16T13:11:53Z</time>
      </trkpt>
      <trkpt lat="43.653289005160332" lon="3.991807959973812">
        <ele>20.32</ele>
        <time>2025-05-16T13:11:54Z</time>
      </trkpt>
      <trkpt lat="43.653324041515589" lon="3.99203603155911">
        <ele>20.809999999999999</ele>
        <time>2025-05-16T13:11:55Z</time>
      </trkpt>
      <trkpt lat="43.653356982395053" lon="3.992264019325376">
        <ele>21.289999999999999</ele>
        <time>2025-05-16T13:11:56Z</time>
      </trkpt>
      <trkpt lat="43.653386989608407" lon="3.992504999041557">
        <ele>21.77</ele>
        <time>2025-05-16T13:11:57Z</time>
      </trkpt>
      <trkpt lat="43.653531996533275" lon="3.994516991078854">
        <ele>25.609999999999999</ele>
        <time>2025-05-16T13:12:06Z</time>
      </trkpt>
      <trkpt lat="43.653467958793044" lon="3.994798958301544">
        <ele>26.09</ele>
        <time>2025-05-16T13:12:07Z</time>
      </trkpt>
      <trkpt lat="43.653527973219752" lon="3.994979001581669">
        <ele>26.57</ele>
        <time>2025-05-16T13:12:08Z</time>
      </trkpt>
      <trkpt lat="43.653596034273505" lon="3.995183017104864">
        <ele>27.050000000000001</ele>
        <time>2025-05-16T13:12:09Z</time>
      </trkpt>
      <trkpt lat="43.653681026771665" lon="3.995346967130899">
        <ele>27.050000000000001</ele>
        <time>2025-05-16T13:12:10Z</time>
      </trkpt>
      <trkpt lat="43.653993001207709" lon="3.99607895873487">
        <ele>26.57</ele>
        <time>2025-05-16T13:12:14Z</time>
      </trkpt>
      <trkpt lat="43.654054021462798" lon="3.996286997571588">
        <ele>26.57</ele>
        <time>2025-05-16T13:12:15Z</time>
      </trkpt>
      <trkpt lat="43.654363984242082" lon="3.998377025127411">
        <ele>23.210000000000001</ele>
        <time>2025-05-16T13:12:24Z</time>
      </trkpt>
      <trkpt lat="43.654477978125215" lon="3.999349996447563">
        <ele>21.77</ele>
        <time>2025-05-16T13:12:30Z</time>
      </trkpt>
      <trkpt lat="43.654506979510188" lon="3.999545965343714">
        <ele>21.289999999999999</ele>
        <time>2025-05-16T13:12:32Z</time>
      </trkpt>
      <trkpt lat="43.654516031965613" lon="3.999603968113661">
        <ele>20.809999999999999</ele>
        <time>2025-05-16T13:12:33Z</time>
      </trkpt>
      <trkpt lat="43.654518965631723" lon="3.999624000862241">
        <ele>20.809999999999999</ele>
        <time>2025-05-16T13:12:34Z</time>
      </trkpt>
      <trkpt lat="43.65448703058064" lon="3.999909991398454">
        <ele>19.84</ele>
        <time>2025-05-16T13:12:40Z</time>
      </trkpt>
      <trkpt lat="43.654475966468453" lon="4.000010993331671">
        <ele>19.359999999999999</ele>
        <time>2025-05-16T13:12:41Z</time>
      </trkpt>
      <trkpt lat="43.654428021982312" lon="4.000081988051534">
        <ele>19.359999999999999</ele>
        <time>2025-05-16T13:12:42Z</time>
      </trkpt>
      <trkpt lat="43.654357027262449" lon="4.000161029398441">
        <ele>18.879999999999999</ele>
        <time>2025-05-16T13:12:43Z</time>
      </trkpt>
      <trkpt lat="43.654279997572303" lon="4.000211991369724">
        <ele>18.879999999999999</ele>
        <time>2025-05-16T13:12:44Z</time>
      </trkpt>
      <trkpt lat="43.654214031994343" lon="4.000286003574729">
        <ele>18.879999999999999</ele>
        <time>2025-05-16T13:12:45Z</time>
      </trkpt>
      <trkpt lat="43.654147982597351" lon="4.000369990244508">
        <ele>18.399999999999999</ele>
        <time>2025-05-16T13:12:46Z</time>
      </trkpt>
      <trkpt lat="43.65410003811121" lon="4.000483984127641">
        <ele>18.399999999999999</ele>
        <time>2025-05-16T13:12:47Z</time>
      </trkpt>
      <trkpt lat="43.654078999534249" lon="4.000609964132309">
        <ele>18.399999999999999</ele>
        <time>2025-05-16T13:12:48Z</time>
      </trkpt>
      <trkpt lat="43.654057960957289" lon="4.000733010470867">
        <ele>17.920000000000002</ele>
        <time>2025-05-16T13:12:49Z</time>
      </trkpt>
      <trkpt lat="43.654071036726236" lon="4.00086997076869">
        <ele>17.440000000000001</ele>
        <time>2025-05-16T13:12:50Z</time>
      </trkpt>
      <trkpt lat="43.654112024232745" lon="4.000979019328952">
        <ele>17.440000000000001</ele>
        <time>2025-05-16T13:12:51Z</time>
      </trkpt>
      <trkpt lat="43.654153011739254" lon="4.001088989898562">
        <ele>16.960000000000001</ele>
        <time>2025-05-16T13:12:52Z</time>
      </trkpt>
      <trkpt lat="43.654148988425732" lon="4.001226034015417">
        <ele>16</ele>
        <time>2025-05-16T13:12:53Z</time>
      </trkpt>
      <trkpt lat="43.654114035889506" lon="4.001330975443125">
        <ele>15.52</ele>
        <time>2025-05-16T13:12:54Z</time>
      </trkpt>
      <trkpt lat="43.653234019875526" lon="4.00503896176815">
        <ele>12.630000000000001</ele>
        <time>2025-05-16T13:13:16Z</time>
      </trkpt>
      <trkpt lat="43.652777960523963" lon="4.005928030237556">
        <ele>9.75</ele>
        <time>2025-05-16T13:13:20Z</time>
      </trkpt>
      <trkpt lat="43.652518959715962" lon="4.006443014368415">
        <ele>8.310000000000001</ele>
        <time>2025-05-16T13:13:23Z</time>
      </trkpt>
      <trkpt lat="43.652459029108286" lon="4.006633032113314">
        <ele>8.310000000000001</ele>
        <time>2025-05-16T13:13:24Z</time>
      </trkpt>
      <trkpt lat="43.6524030379951" lon="4.006826989352703">
        <ele>8.789999999999999</ele>
        <time>2025-05-16T13:13:25Z</time>
      </trkpt>
      <trkpt lat="43.652359033003449" lon="4.00703301653266">
        <ele>8.789999999999999</ele>
        <time>2025-05-16T13:13:26Z</time>
      </trkpt>
      <trkpt lat="43.652337994426489" lon="4.007236026227474">
        <ele>9.27</ele>
        <time>2025-05-16T13:13:27Z</time>
      </trkpt>
      <trkpt lat="43.652330031618476" lon="4.007428977638483">
        <ele>9.27</ele>
        <time>2025-05-16T13:13:28Z</time>
      </trkpt>
      <trkpt lat="43.652330031618476" lon="4.007610026746988">
        <ele>9.75</ele>
        <time>2025-05-16T13:13:29Z</time>
      </trkpt>
      <trkpt lat="43.652317961677909" lon="4.007771965116262">
        <ele>9.75</ele>
        <time>2025-05-16T13:13:30Z</time>
      </trkpt>
      <trkpt lat="43.652296001091599" lon="4.007910015061498">
        <ele>9.75</ele>
        <time>2025-05-16T13:13:31Z</time>
      </trkpt>
      <trkpt lat="43.65225400775671" lon="4.008020991459489">
        <ele>9.75</ele>
        <time>2025-05-16T13:13:32Z</time>
      </trkpt>
      <trkpt lat="43.652172032743692" lon="4.008205980062485">
        <ele>9.75</ele>
        <time>2025-05-16T13:13:34Z</time>
      </trkpt>
      <trkpt lat="43.652136996388435" lon="4.008335983380675">
        <ele>9.27</ele>
        <time>2025-05-16T13:13:35Z</time>
      </trkpt>
      <trkpt lat="43.652164991945028" lon="4.008423993363977">
        <ele>9.75</ele>
        <time>2025-05-16T13:13:36Z</time>
      </trkpt>
      <trkpt lat="43.652203967794776" lon="4.008545028045774">
        <ele>9.75</ele>
        <time>2025-05-16T13:13:37Z</time>
      </trkpt>
      <trkpt lat="43.652245961129665" lon="4.008676959201694">
        <ele>9.75</ele>
        <time>2025-05-16T13:13:38Z</time>
      </trkpt>
      <trkpt lat="43.652384011074901" lon="4.009064035490155">
        <ele>9.75</ele>
        <time>2025-05-16T13:13:41Z</time>
      </trkpt>
      <trkpt lat="43.652479983866215" lon="4.009116003289819">
        <ele>10.23</ele>
        <time>2025-05-16T13:13:42Z</time>
      </trkpt>
      <trkpt lat="43.652558019384742" lon="4.009103011339903">
        <ele>10.23</ele>
        <time>2025-05-16T13:13:43Z</time>
      </trkpt>
      <trkpt lat="43.652631025761366" lon="4.009046014398336">
        <ele>10.710000000000001</ele>
        <time>2025-05-16T13:13:44Z</time>
      </trkpt>
      <trkpt lat="43.652705037966371" lon="4.008988011628389">
        <ele>11.19</ele>
        <time>2025-05-16T13:13:45Z</time>
      </trkpt>
      <trkpt lat="43.652725992724299" lon="4.008898995816708">
        <ele>11.19</ele>
        <time>2025-05-16T13:13:46Z</time>
      </trkpt>
      <trkpt lat="43.652737978845835" lon="4.008807968348265">
        <ele>11.67</ele>
        <time>2025-05-16T13:13:47Z</time>
      </trkpt>
      <trkpt lat="43.652715012431145" lon="4.008729010820389">
        <ele>12.15</ele>
        <time>2025-05-16T13:13:48Z</time>
      </trkpt>
      <trkpt lat="43.652680981904268" lon="4.008623985573649">
        <ele>12.15</ele>
        <time>2025-05-16T13:13:49Z</time>
      </trkpt>
      <trkpt lat="43.652303963899612" lon="4.007861986756325">
        <ele>14.08</ele>
        <time>2025-05-16T13:13:55Z</time>
      </trkpt>
      <trkpt lat="43.652330031618476" lon="4.007692001760006">
        <ele>14.08</ele>
        <time>2025-05-16T13:13:56Z</time>
      </trkpt>
      <trkpt lat="43.652330031618476" lon="4.00757197290659">
        <ele>14.08</ele>
        <time>2025-05-16T13:13:57Z</time>
      </trkpt>
      <trkpt lat="43.652330031618476" lon="4.007391007617116">
        <ele>14.56</ele>
        <time>2025-05-16T13:13:58Z</time>
      </trkpt>
      <trkpt lat="43.652341011911631" lon="4.007197972387075">
        <ele>15.039999999999999</ele>
        <time>2025-05-16T13:13:59Z</time>
      </trkpt>
      <trkpt lat="43.652366995811462" lon="4.006996974349022">
        <ele>15.039999999999999</ele>
        <time>2025-05-16T13:14:00Z</time>
      </trkpt>
      <trkpt lat="43.652409994974732" lon="4.006796982139349">
        <ele>15.039999999999999</ele>
        <time>2025-05-16T13:14:01Z</time>
      </trkpt>
      <trkpt lat="43.652470009401441" lon="4.006599001586437">
        <ele>14.56</ele>
        <time>2025-05-16T13:14:02Z</time>
      </trkpt>
      <trkpt lat="43.65253203548491" lon="4.006401021033526">
        <ele>14.08</ele>
        <time>2025-05-16T13:14:03Z</time>
      </trkpt>
      <trkpt lat="43.652624990791082" lon="4.006213014945388">
        <ele>13.6</ele>
        <time>2025-05-16T13:14:04Z</time>
      </trkpt>
      <trkpt lat="43.652720041573048" lon="4.006035989150405">
        <ele>13.6</ele>
        <time>2025-05-16T13:14:05Z</time>
      </trkpt>
      <trkpt lat="43.652811991050839" lon="4.005864998325706">
        <ele>12.630000000000001</ele>
        <time>2025-05-16T13:14:06Z</time>
      </trkpt>
      <trkpt lat="43.65289899520576" lon="4.005697024986148">
        <ele>12.15</ele>
        <time>2025-05-16T13:14:07Z</time>
      </trkpt>
      <trkpt lat="43.653542976826429" lon="4.00422197766602">
        <ele>14.08</ele>
        <time>2025-05-16T13:14:16Z</time>
      </trkpt>
      <trkpt lat="43.653783034533262" lon="4.002576023340225">
        <ele>19.84</ele>
        <time>2025-05-16T13:14:24Z</time>
      </trkpt>
      <trkpt lat="43.653847994282842" lon="4.002180984243751">
        <ele>20.32</ele>
        <time>2025-05-16T13:14:26Z</time>
      </trkpt>
      <trkpt lat="43.653896022588015" lon="4.002001024782658">
        <ele>20.809999999999999</ele>
        <time>2025-05-16T13:14:27Z</time>
      </trkpt>
      <trkpt lat="43.653972968459129" lon="4.00185601785779">
        <ele>21.289999999999999</ele>
        <time>2025-05-16T13:14:28Z</time>
      </trkpt>
      <trkpt lat="43.654062990099192" lon="4.00174998678267">
        <ele>21.289999999999999</ele>
        <time>2025-05-16T13:14:29Z</time>
      </trkpt>
      <trkpt lat="43.654144965112209" lon="4.001653008162975">
        <ele>21.77</ele>
        <time>2025-05-16T13:14:30Z</time>
      </trkpt>
      <trkpt lat="43.6542749684304" lon="4.001500960439444">
        <ele>22.25</ele>
        <time>2025-05-16T13:14:32Z</time>
      </trkpt>
      <trkpt lat="43.654326014220715" lon="4.001441029831767">
        <ele>22.73</ele>
        <time>2025-05-16T13:14:33Z</time>
      </trkpt>
      <trkpt lat="43.654411006718874" lon="4.001341033726931">
        <ele>22.73</ele>
        <time>2025-05-16T13:14:34Z</time>
      </trkpt>
      <trkpt lat="43.654459035024047" lon="4.001343967393041">
        <ele>22.73</ele>
        <time>2025-05-16T13:14:35Z</time>
      </trkpt>
      <trkpt lat="43.654556013643742" lon="4.001350002363324">
        <ele>23.210000000000001</ele>
        <time>2025-05-16T13:14:36Z</time>
      </trkpt>
      <trkpt lat="43.654879974201322" lon="4.001401970162988">
        <ele>23.210000000000001</ele>
        <time>2025-05-16T13:14:39Z</time>
      </trkpt>
      <trkpt lat="43.654968990013003" lon="4.001427032053471">
        <ele>23.210000000000001</ele>
        <time>2025-05-16T13:14:40Z</time>
      </trkpt>
      <trkpt lat="43.655031016096473" lon="4.001543037593365">
        <ele>23.210000000000001</ele>
        <time>2025-05-16T13:14:41Z</time>
      </trkpt>
      <trkpt lat="43.655080972239375" lon="4.001636998727918">
        <ele>23.210000000000001</ele>
        <time>2025-05-16T13:14:42Z</time>
      </trkpt>
      <trkpt lat="43.655118020251393" lon="4.001705981791019">
        <ele>23.210000000000001</ele>
        <time>2025-05-16T13:14:43Z</time>
      </trkpt>
      <trkpt lat="43.655145009979606" lon="4.001764990389347">
        <ele>23.210000000000001</ele>
        <time>2025-05-16T13:14:44Z</time>
      </trkpt>
      <trkpt lat="43.655160013586283" lon="4.001822993159294">
        <ele>22.73</ele>
        <time>2025-05-16T13:14:45Z</time>
      </trkpt>
      <trkpt lat="43.655286999419332" lon="4.002297995612025">
        <ele>21.77</ele>
        <time>2025-05-16T13:14:56Z</time>
      </trkpt>
      <trkpt lat="43.655409961938858" lon="4.002713989466429">
        <ele>21.77</ele>
        <time>2025-05-16T13:15:07Z</time>
      </trkpt>
      <trkpt lat="43.655454972758889" lon="4.002877017483115">
        <ele>21.77</ele>
        <time>2025-05-16T13:15:10Z</time>
      </trkpt>
      <trkpt lat="43.6555200163275" lon="4.003116991370916">
        <ele>21.77</ele>
        <time>2025-05-16T13:15:14Z</time>
      </trkpt>
      <trkpt lat="43.655583970248699" lon="4.003346990793943">
        <ele>21.289999999999999</ele>
        <time>2025-05-16T13:15:17Z</time>
      </trkpt>
      <trkpt lat="43.655608026310802" lon="4.003433994948864">
        <ele>20.809999999999999</ele>
        <time>2025-05-16T13:15:18Z</time>
      </trkpt>
      <trkpt lat="43.655633004382253" lon="4.003526028245688">
        <ele>20.809999999999999</ele>
        <time>2025-05-16T13:15:19Z</time>
      </trkpt>
      <trkpt lat="43.655658988282084" lon="4.003615966066718">
        <ele>20.809999999999999</ele>
        <time>2025-05-16T13:15:20Z</time>
      </trkpt>
      <trkpt lat="43.655680026859045" lon="4.003695007413626">
        <ele>20.32</ele>
        <time>2025-05-16T13:15:21Z</time>
      </trkpt>
      <trkpt lat="43.655698969960213" lon="4.003761978819966">
        <ele>20.32</ele>
        <time>2025-05-16T13:15:22Z</time>
      </trkpt>
      <trkpt lat="43.65571497939527" lon="4.003818975761533">
        <ele>20.32</ele>
        <time>2025-05-16T13:15:23Z</time>
      </trkpt>
      <trkpt lat="43.655728977173567" lon="4.003871027380228">
        <ele>20.32</ele>
        <time>2025-05-16T13:15:24Z</time>
      </trkpt>
      <trkpt lat="43.655742974951863" lon="4.003918971866369">
        <ele>19.84</ele>
        <time>2025-05-16T13:15:25Z</time>
      </trkpt>
      <trkpt lat="43.655893011018634" lon="4.004463041201234">
        <ele>18.399999999999999</ele>
        <time>2025-05-16T13:15:36Z</time>
      </trkpt>
      <trkpt lat="43.655908014625311" lon="4.004518026486039">
        <ele>18.399999999999999</ele>
        <time>2025-05-16T13:15:37Z</time>
      </trkpt>
      <trkpt lat="43.655936010181904" lon="4.004621962085366">
        <ele>17.920000000000002</ele>
        <time>2025-05-16T13:15:39Z</time>
      </trkpt>
      <trkpt lat="43.656016979366541" lon="4.004917005077004">
        <ele>18.399999999999999</ele>
        <time>2025-05-16T13:15:43Z</time>
      </trkpt>
      <trkpt lat="43.656039023771882" lon="4.004996968433261">
        <ele>18.879999999999999</ele>
        <time>2025-05-16T13:15:44Z</time>
      </trkpt>
      <trkpt lat="43.656107001006603" lon="4.005241971462965">
        <ele>19.359999999999999</ele>
        <time>2025-05-16T13:15:47Z</time>
      </trkpt>
      <trkpt lat="43.656386034563184" lon="4.00628300383687">
        <ele>19.84</ele>
        <time>2025-05-16T13:15:57Z</time>
      </trkpt>
      <trkpt lat="43.65650899708271" lon="4.006743002682924">
        <ele>19.84</ele>
        <time>2025-05-16T13:16:03Z</time>
      </trkpt>
      <trkpt lat="43.656525006517768" lon="4.00679899379611">
        <ele>19.84</ele>
        <time>2025-05-16T13:16:04Z</time>
      </trkpt>
      <trkpt lat="43.656759029254317" lon="4.007644979283214">
        <ele>20.32</ele>
        <time>2025-05-16T13:16:15Z</time>
      </trkpt>
      <trkpt lat="43.657036973163486" lon="4.008649969473481">
        <ele>17.440000000000001</ele>
        <time>2025-05-16T13:16:24Z</time>
      </trkpt>
      <trkpt lat="43.657359005883336" lon="4.009819999337196">
        <ele>19.359999999999999</ele>
        <time>2025-05-16T13:16:33Z</time>
      </trkpt>
      <trkpt lat="43.657778017222881" lon="4.01126797311008">
        <ele>20.32</ele>
        <time>2025-05-16T13:16:44Z</time>
      </trkpt>
      <trkpt lat="43.658042969182134" lon="4.012286039069295">
        <ele>21.77</ele>
        <time>2025-05-16T13:16:52Z</time>
      </trkpt>
      <trkpt lat="43.65835502743721" lon="4.013409968465567">
        <ele>18.879999999999999</ele>
        <time>2025-05-16T13:17:01Z</time>
      </trkpt>
      <trkpt lat="43.658386962488294" lon="4.013531003147364">
        <ele>17.920000000000002</ele>
        <time>2025-05-16T13:17:02Z</time>
      </trkpt>
      <trkpt lat="43.658664990216494" lon="4.014931032434106">
        <ele>16.960000000000001</ele>
        <time>2025-05-16T13:17:13Z</time>
      </trkpt>
      <trkpt lat="43.658687034621835" lon="4.015062041580677">
        <ele>16.960000000000001</ele>
        <time>2025-05-16T13:17:14Z</time>
      </trkpt>
      <trkpt lat="43.659097999334335" lon="4.016516972333193">
        <ele>16.960000000000001</ele>
        <time>2025-05-16T13:17:25Z</time>
      </trkpt>
      <trkpt lat="43.659657994285226" lon="4.01850700378418">
        <ele>16.960000000000001</ele>
        <time>2025-05-16T13:17:39Z</time>
      </trkpt>
      <trkpt lat="43.659920012578368" lon="4.020170979201794">
        <ele>16</ele>
        <time>2025-05-16T13:17:49Z</time>
      </trkpt>
      <trkpt lat="43.660123022273183" lon="4.021634962409735">
        <ele>16</ele>
        <time>2025-05-16T13:17:58Z</time>
      </trkpt>
      <trkpt lat="43.660356039181352" lon="4.023112021386623">
        <ele>16.48</ele>
        <time>2025-05-16T13:18:05Z</time>
      </trkpt>
      <trkpt lat="43.660757029429078" lon="4.025714015588164">
        <ele>14.56</ele>
        <time>2025-05-16T13:18:15Z</time>
      </trkpt>
      <trkpt lat="43.661046037450433" lon="4.027761965990067">
        <ele>15.039999999999999</ele>
        <time>2025-05-16T13:18:23Z</time>
      </trkpt>
      <trkpt lat="43.661108985543251" lon="4.02800302952528">
        <ele>15.039999999999999</ele>
        <time>2025-05-16T13:18:24Z</time>
      </trkpt>
      <trkpt lat="43.661932004615664" lon="4.030375024303794">
        <ele>15.039999999999999</ele>
        <time>2025-05-16T13:18:34Z</time>
      </trkpt>
      <trkpt lat="43.662711018696427" lon="4.032563036307693">
        <ele>16</ele>
        <time>2025-05-16T13:18:43Z</time>
      </trkpt>
      <trkpt lat="43.663267996162176" lon="4.034070018678904">
        <ele>15.52</ele>
        <time>2025-05-16T13:18:50Z</time>
      </trkpt>
      <trkpt lat="43.664198974147439" lon="4.036565981805325">
        <ele>15.039999999999999</ele>
        <time>2025-05-16T13:19:02Z</time>
      </trkpt>
      <trkpt lat="43.6647570412606" lon="4.038040023297072">
        <ele>13.6</ele>
        <time>2025-05-16T13:19:09Z</time>
      </trkpt>
      <trkpt lat="43.665044959634542" lon="4.038669001311064">
        <ele>13.6</ele>
        <time>2025-05-16T13:19:14Z</time>
      </trkpt>
      <trkpt lat="43.665069015696645" lon="4.038757011294365">
        <ele>14.08</ele>
        <time>2025-05-16T13:19:15Z</time>
      </trkpt>
      <trkpt lat="43.665094999596477" lon="4.038848038762808">
        <ele>14.08</ele>
        <time>2025-05-16T13:19:16Z</time>
      </trkpt>
      <trkpt lat="43.665151996538043" lon="4.039023974910379">
        <ele>14.08</ele>
        <time>2025-05-16T13:19:18Z</time>
      </trkpt>
      <trkpt lat="43.665274037048221" lon="4.039358999580145">
        <ele>13.6</ele>
        <time>2025-05-16T13:19:21Z</time>
      </trkpt>
      <trkpt lat="43.665700005367398" lon="4.040631959214807">
        <ele>14.08</ele>
        <time>2025-05-16T13:19:28Z</time>
      </trkpt>
      <trkpt lat="43.666407018899918" lon="4.042563987895846">
        <ele>15.039999999999999</ele>
        <time>2025-05-16T13:19:36Z</time>
      </trkpt>
      <trkpt lat="43.667604038491845" lon="4.045545011758804">
        <ele>15.039999999999999</ele>
        <time>2025-05-16T13:19:48Z</time>
      </trkpt>
      <trkpt lat="43.669253010302782" lon="4.048396032303572">
        <ele>14.08</ele>
        <time>2025-05-16T13:20:01Z</time>
      </trkpt>
      <trkpt lat="43.671054029837251" lon="4.05086500570178">
        <ele>14.08</ele>
        <time>2025-05-16T13:20:14Z</time>
      </trkpt>
      <trkpt lat="43.672825964167714" lon="4.052939023822546">
        <ele>18.879999999999999</ele>
        <time>2025-05-16T13:20:26Z</time>
      </trkpt>
      <trkpt lat="43.674861006438732" lon="4.055589968338609">
        <ele>17.440000000000001</ele>
        <time>2025-05-16T13:20:41Z</time>
      </trkpt>
      <trkpt lat="43.67548000998795" lon="4.056610967963934">
        <ele>16</ele>
        <time>2025-05-16T13:20:48Z</time>
      </trkpt>
      <trkpt lat="43.675548993051052" lon="4.056714987382293">
        <ele>16</ele>
        <time>2025-05-16T13:20:49Z</time>
      </trkpt>
      <trkpt lat="43.675503982231021" lon="4.057001983746886">
        <ele>16</ele>
        <time>2025-05-16T13:20:50Z</time>
      </trkpt>
      <trkpt lat="43.675529966130853" lon="4.05720398761332">
        <ele>15.52</ele>
        <time>2025-05-16T13:20:52Z</time>
      </trkpt>
      <trkpt lat="43.675589980557561" lon="4.057323010638356">
        <ele>16</ele>
        <time>2025-05-16T13:20:53Z</time>
      </trkpt>
      <trkpt lat="43.675712021067739" lon="4.057473968714476">
        <ele>15.52</ele>
        <time>2025-05-16T13:20:54Z</time>
      </trkpt>
      <trkpt lat="43.675698023289442" lon="4.057638002559543">
        <ele>15.039999999999999</ele>
        <time>2025-05-16T13:20:55Z</time>
      </trkpt>
      <trkpt lat="43.675685031339526" lon="4.057823996990919">
        <ele>14.56</ele>
        <time>2025-05-16T13:20:56Z</time>
      </trkpt>
      <trkpt lat="43.67567103356123" lon="4.058030024170876">
        <ele>14.56</ele>
        <time>2025-05-16T13:20:57Z</time>
      </trkpt>
      <trkpt lat="43.675571037456393" lon="4.059409014880657">
        <ele>14.56</ele>
        <time>2025-05-16T13:21:02Z</time>
      </trkpt>
      <trkpt lat="43.675189996138215" lon="4.063023962080479">
        <ele>13.119999999999999</ele>
        <time>2025-05-16T13:21:13Z</time>
      </trkpt>
      <trkpt lat="43.674758998677135" lon="4.06657001003623">
        <ele>16.48</ele>
        <time>2025-05-16T13:21:25Z</time>
      </trkpt>
      <trkpt lat="43.674478959292173" lon="4.069672990590334">
        <ele>10.710000000000001</ele>
        <time>2025-05-16T13:21:37Z</time>
      </trkpt>
      <trkpt lat="43.674732008948922" lon="4.071960998699069">
        <ele>7.35</ele>
        <time>2025-05-16T13:21:47Z</time>
      </trkpt>
      <trkpt lat="43.675137022510171" lon="4.074660977348685">
        <ele>7.83</ele>
        <time>2025-05-16T13:21:59Z</time>
      </trkpt>
      <trkpt lat="43.675424018874764" lon="4.076783023774624">
        <ele>7.35</ele>
        <time>2025-05-16T13:22:10Z</time>
      </trkpt>
      <trkpt lat="43.675481015816331" lon="4.077283004298806">
        <ele>7.35</ele>
        <time>2025-05-16T13:22:14Z</time>
      </trkpt>
      <trkpt lat="43.675471963360906" lon="4.07737897709012">
        <ele>6.87</ele>
        <time>2025-05-16T13:22:15Z</time>
      </trkpt>
      <trkpt lat="43.675456959754229" lon="4.077480984851718">
        <ele>6.87</ele>
        <time>2025-05-16T13:22:16Z</time>
      </trkpt>
      <trkpt lat="43.675440028309822" lon="4.077601013705134">
        <ele>6.87</ele>
        <time>2025-05-16T13:22:17Z</time>
      </trkpt>
      <trkpt lat="43.67539401166141" lon="4.077692963182926">
        <ele>6.87</ele>
        <time>2025-05-16T13:22:18Z</time>
      </trkpt>
      <trkpt lat="43.675332991406322" lon="4.077819027006626">
        <ele>6.87</ele>
        <time>2025-05-16T13:22:19Z</time>
      </trkpt>
      <trkpt lat="43.675358975306153" lon="4.077922962605953">
        <ele>6.87</ele>
        <time>2025-05-16T13:22:20Z</time>
      </trkpt>
      <trkpt lat="43.675384037196636" lon="4.078022036701441">
        <ele>6.87</ele>
        <time>2025-05-16T13:22:21Z</time>
      </trkpt>
      <trkpt lat="43.675448996946216" lon="4.078114992007613">
        <ele>6.87</ele>
        <time>2025-05-16T13:22:22Z</time>
      </trkpt>
      <trkpt lat="43.675517980009317" lon="4.078178023919463">
        <ele>6.87</ele>
        <time>2025-05-16T13:22:23Z</time>
      </trkpt>
      <trkpt lat="43.675581011921167" lon="4.078266033902764">
        <ele>6.39</ele>
        <time>2025-05-16T13:22:24Z</time>
      </trkpt>
      <trkpt lat="43.675632979720831" lon="4.078362006694078">
        <ele>6.39</ele>
        <time>2025-05-16T13:22:25Z</time>
      </trkpt>
      <trkpt lat="43.675697017461061" lon="4.078524028882384">
        <ele>5.91</ele>
        <time>2025-05-16T13:22:26Z</time>
      </trkpt>
      <trkpt lat="43.675984013825655" lon="4.080407023429871">
        <ele>5.91</ele>
        <time>2025-05-16T13:22:38Z</time>
      </trkpt>
      <trkpt lat="43.676421968266368" lon="4.083074983209372">
        <ele>4.94</ele>
        <time>2025-05-16T13:22:53Z</time>
      </trkpt>
      <trkpt lat="43.676679041236639" lon="4.084784975275397">
        <ele>6.39</ele>
        <time>2025-05-16T13:23:04Z</time>
      </trkpt>
      <trkpt lat="43.676866963505745" lon="4.085509004071355">
        <ele>7.83</ele>
        <time>2025-05-16T13:23:12Z</time>
      </trkpt>
      <trkpt lat="43.676901999861002" lon="4.085615035146475">
        <ele>8.310000000000001</ele>
        <time>2025-05-16T13:23:19Z</time>
      </trkpt>
      <trkpt lat="43.677003001794219" lon="4.085932960733771">
        <ele>8.789999999999999</ele>
        <time>2025-05-16T13:23:24Z</time>
      </trkpt>
      <trkpt lat="43.677025968208909" lon="4.085987024009228">
        <ele>8.789999999999999</ele>
        <time>2025-05-16T13:23:25Z</time>
      </trkpt>
      <trkpt lat="43.67704700678587" lon="4.086034968495369">
        <ele>8.789999999999999</ele>
        <time>2025-05-16T13:23:26Z</time>
      </trkpt>
      <trkpt lat="43.677064022049308" lon="4.086075033992529">
        <ele>8.789999999999999</ele>
        <time>2025-05-16T13:23:27Z</time>
      </trkpt>
      <trkpt lat="43.677077013999224" lon="4.086105963215232">
        <ele>8.789999999999999</ele>
        <time>2025-05-16T13:23:28Z</time>
      </trkpt>
      <trkpt lat="43.677096962928772" lon="4.086150974035263">
        <ele>9.27</ele>
        <time>2025-05-16T13:23:39Z</time>
      </trkpt>
      <trkpt lat="43.677124036476016" lon="4.086215011775494">
        <ele>9.27</ele>
        <time>2025-05-16T13:23:54Z</time>
      </trkpt>
      <trkpt lat="43.677238030359149" lon="4.086479041725397">
        <ele>9.27</ele>
        <time>2025-05-16T13:24:19Z</time>
      </trkpt>
      <trkpt lat="43.677369961515069" lon="4.086784981191158">
        <ele>9.75</ele>
        <time>2025-05-16T13:24:31Z</time>
      </trkpt>
      <trkpt lat="43.677369961515069" lon="4.086784981191158">
        <ele>9.75</ele>
        <time>2025-05-16T13:25:17Z</time>
      </trkpt>
      <trkpt lat="43.677538018673658" lon="4.08717499114573">
        <ele>10.710000000000001</ele>
        <time>2025-05-16T13:25:23Z</time>
      </trkpt>
      <trkpt lat="43.678060965612531" lon="4.088368993252516">
        <ele>7.35</ele>
        <time>2025-05-16T13:25:35Z</time>
      </trkpt>
      <trkpt lat="43.678519958630204" lon="4.089543968439102">
        <ele>8.789999999999999</ele>
        <time>2025-05-16T13:25:44Z</time>
      </trkpt>
      <trkpt lat="43.678650967776775" lon="4.089948982000351">
        <ele>8.310000000000001</ele>
        <time>2025-05-16T13:25:47Z</time>
      </trkpt>
      <trkpt lat="43.678691033273935" lon="4.090078985318542">
        <ele>8.310000000000001</ele>
        <time>2025-05-16T13:25:48Z</time>
      </trkpt>
      <trkpt lat="43.679061010479927" lon="4.091252032667399">
        <ele>6.87</ele>
        <time>2025-05-16T13:25:58Z</time>
      </trkpt>
      <trkpt lat="43.679122030735016" lon="4.091466022655368">
        <ele>3.98</ele>
        <time>2025-05-16T13:26:08Z</time>
      </trkpt>
      <trkpt lat="43.679256979376078" lon="4.091894002631307">
        <ele>3.02</ele>
        <time>2025-05-16T13:26:15Z</time>
      </trkpt>
      <trkpt lat="43.679540036246181" lon="4.093022961169481">
        <ele>3.5</ele>
        <time>2025-05-16T13:26:24Z</time>
      </trkpt>
      <trkpt lat="43.679609019309282" lon="4.093292020261288">
        <ele>3.5</ele>
        <time>2025-05-16T13:26:26Z</time>
      </trkpt>
      <trkpt lat="43.680015960708261" lon="4.095183983445168">
        <ele>3.5</ele>
        <time>2025-05-16T13:26:39Z</time>
      </trkpt>
      <trkpt lat="43.680317960679531" lon="4.096689959987998">
        <ele>3.02</ele>
        <time>2025-05-16T13:26:48Z</time>
      </trkpt>
      <trkpt lat="43.680504038929939" lon="4.098546970635653">
        <ele>3.5</ele>
        <time>2025-05-16T13:26:57Z</time>
      </trkpt>
      <trkpt lat="43.680343022570014" lon="4.099738039076328">
        <ele>3.5</ele>
        <time>2025-05-16T13:27:04Z</time>
      </trkpt>
      <trkpt lat="43.680304968729615" lon="4.099864019080997">
        <ele>3.5</ele>
        <time>2025-05-16T13:27:05Z</time>
      </trkpt>
      <trkpt lat="43.680247971788049" lon="4.099953034892678">
        <ele>3.98</ele>
        <time>2025-05-16T13:27:06Z</time>
      </trkpt>
      <trkpt lat="43.680179994553328" lon="4.100011037662625">
        <ele>3.98</ele>
        <time>2025-05-16T13:27:07Z</time>
      </trkpt>
      <trkpt lat="43.680130038410425" lon="4.100138023495674">
        <ele>3.98</ele>
        <time>2025-05-16T13:27:08Z</time>
      </trkpt>
      <trkpt lat="43.680118974298239" lon="4.100252017378807">
        <ele>3.98</ele>
        <time>2025-05-16T13:27:09Z</time>
      </trkpt>
      <trkpt lat="43.680173959583044" lon="4.100373974069953">
        <ele>4.46</ele>
        <time>2025-05-16T13:27:10Z</time>
      </trkpt>
      <trkpt lat="43.680202960968018" lon="4.100514035671949">
        <ele>4.46</ele>
        <time>2025-05-16T13:27:11Z</time>
      </trkpt>
      <trkpt lat="43.680202960968018" lon="4.100664993748069">
        <ele>4.46</ele>
        <time>2025-05-16T13:27:12Z</time>
      </trkpt>
      <trkpt lat="43.680202960968018" lon="4.100829027593136">
        <ele>3.98</ele>
        <time>2025-05-16T13:27:13Z</time>
      </trkpt>
      <trkpt lat="43.680201033130288" lon="4.101009992882609">
        <ele>3.98</ele>
        <time>2025-05-16T13:27:14Z</time>
      </trkpt>
      <trkpt lat="43.6799690220505" lon="4.102658964693546">
        <ele>3.5</ele>
        <time>2025-05-16T13:27:22Z</time>
      </trkpt>
      <trkpt lat="43.679639026522636" lon="4.104872960597277">
        <ele>3.02</ele>
        <time>2025-05-16T13:27:31Z</time>
      </trkpt>
      <trkpt lat="43.679295033216476" lon="4.107251996174455">
        <ele>3.98</ele>
        <time>2025-05-16T13:27:41Z</time>
      </trkpt>
      <trkpt lat="43.678941987454891" lon="4.109578980132937">
        <ele>2.06</ele>
        <time>2025-05-16T13:27:51Z</time>
      </trkpt>
      <trkpt lat="43.678534040227532" lon="4.112221039831638">
        <ele>2.54</ele>
        <time>2025-05-16T13:28:02Z</time>
      </trkpt>
      <trkpt lat="43.678505960851908" lon="4.112436035647988">
        <ele>2.54</ele>
        <time>2025-05-16T13:28:03Z</time>
      </trkpt>
      <trkpt lat="43.678158028051257" lon="4.114711973816156">
        <ele>0.62</ele>
        <time>2025-05-16T13:28:14Z</time>
      </trkpt>
      <trkpt lat="43.677943032234907" lon="4.116107979789376">
        <ele>0.14</ele>
        <time>2025-05-16T13:28:23Z</time>
      </trkpt>
      <trkpt lat="43.677919982001185" lon="4.116182997822762">
        <ele>0.14</ele>
        <time>2025-05-16T13:28:24Z</time>
      </trkpt>
      <trkpt lat="43.677890980616212" lon="4.116246029734612">
        <ele>-0.34</ele>
        <time>2025-05-16T13:28:25Z</time>
      </trkpt>
      <trkpt lat="43.677843036130071" lon="4.116305038332939">
        <ele>-0.34</ele>
        <time>2025-05-16T13:28:26Z</time>
      </trkpt>
      <trkpt lat="43.67773599922657" lon="4.116310989484191">
        <ele>-0.34</ele>
        <time>2025-05-16T13:28:27Z</time>
      </trkpt>
      <trkpt lat="43.677684031426907" lon="4.116338985040784">
        <ele>-0.34</ele>
        <time>2025-05-16T13:28:28Z</time>
      </trkpt>
      <trkpt lat="43.677611025050282" lon="4.116378966718912">
        <ele>-0.34</ele>
        <time>2025-05-16T13:28:29Z</time>
      </trkpt>
      <trkpt lat="43.677537012845278" lon="4.116419032216072">
        <ele>-0.34</ele>
        <time>2025-05-16T13:28:30Z</time>
      </trkpt>
      <trkpt lat="43.67747699841857" lon="4.116490026935935">
        <ele>-0.34</ele>
        <time>2025-05-16T13:28:31Z</time>
      </trkpt>
      <trkpt lat="43.677437016740441" lon="4.116578036919236">
        <ele>-0.34</ele>
        <time>2025-05-16T13:28:32Z</time>
      </trkpt>
      <trkpt lat="43.677399968728423" lon="4.116707034409046">
        <ele>-0.34</ele>
        <time>2025-05-16T13:28:33Z</time>
      </trkpt>
      <trkpt lat="43.677426958456635" lon="4.116811975836754">
        <ele>-0.34</ele>
        <time>2025-05-16T13:28:34Z</time>
      </trkpt>
      <trkpt lat="43.677455959841609" lon="4.116927981376648">
        <ele>0.14</ele>
        <time>2025-05-16T13:28:35Z</time>
      </trkpt>
      <trkpt lat="43.67750097066164" lon="4.117045998573303">
        <ele>0.14</ele>
        <time>2025-05-16T13:28:36Z</time>
      </trkpt>
      <trkpt lat="43.677575988695025" lon="4.117130991071463">
        <ele>0.14</ele>
        <time>2025-05-16T13:28:37Z</time>
      </trkpt>
      <trkpt lat="43.677685037255287" lon="4.117398038506508">
        <ele>0.14</ele>
        <time>2025-05-16T13:28:39Z</time>
      </trkpt>
      <trkpt lat="43.677704986184835" lon="4.117546984925866">
        <ele>0.14</ele>
        <time>2025-05-16T13:28:40Z</time>
      </trkpt>
      <trkpt lat="43.677705992013216" lon="4.117713030427694">
        <ele>0.14</ele>
        <time>2025-05-16T13:28:41Z</time>
      </trkpt>
      <trkpt lat="43.67769199423492" lon="4.117883015424013">
        <ele>0.14</ele>
        <time>2025-05-16T13:28:42Z</time>
      </trkpt>
      <trkpt lat="43.677676990628242" lon="4.118054006248713">
        <ele>0.14</ele>
        <time>2025-05-16T13:28:43Z</time>
      </trkpt>
      <trkpt lat="43.677299972623587" lon="4.120260961353779">
        <ele>1.58</ele>
        <time>2025-05-16T13:28:56Z</time>
      </trkpt>
      <trkpt lat="43.677056981250644" lon="4.122057035565376">
        <ele>2.06</ele>
        <time>2025-05-16T13:29:07Z</time>
      </trkpt>
      <trkpt lat="43.67685598321259" lon="4.123306022956967">
        <ele>1.1</ele>
        <time>2025-05-16T13:29:16Z</time>
      </trkpt>
      <trkpt lat="43.676845002919436" lon="4.123363019898534">
        <ele>1.1</ele>
        <time>2025-05-16T13:29:17Z</time>
      </trkpt>
      <trkpt lat="43.676808038726449" lon="4.123552031815052">
        <ele>-0.34</ele>
        <time>2025-05-16T13:29:22Z</time>
      </trkpt>
      <trkpt lat="43.676808038726449" lon="4.123552031815052">
        <ele>-0.82</ele>
        <time>2025-05-16T13:29:23Z</time>
      </trkpt>
      <trkpt lat="43.676808038726449" lon="4.123552031815052">
        <ele>-0.82</ele>
        <time>2025-05-16T13:29:39Z</time>
      </trkpt>
      <trkpt lat="43.676735032349825" lon="4.123924020677805">
        <ele>-0.82</ele>
        <time>2025-05-16T13:29:46Z</time>
      </trkpt>
      <trkpt lat="43.676678035408258" lon="4.12421596236527">
        <ele>-1.79</ele>
        <time>2025-05-16T13:29:50Z</time>
      </trkpt>
      <trkpt lat="43.676667977124453" lon="4.124270025640726">
        <ele>-2.27</ele>
        <time>2025-05-16T13:29:51Z</time>
      </trkpt>
      <trkpt lat="43.676608968526125" lon="4.124572025611997">
        <ele>-4.19</ele>
        <time>2025-05-16T13:30:01Z</time>
      </trkpt>
      <trkpt lat="43.676608968526125" lon="4.124572025611997">
        <ele>-4.19</ele>
        <time>2025-05-16T13:30:33Z</time>
      </trkpt>
      <trkpt lat="43.676550965756178" lon="4.124866984784603">
        <ele>-3.71</ele>
        <time>2025-05-16T13:30:51Z</time>
      </trkpt>
      <trkpt lat="43.67636002600193" lon="4.125767033547163">
        <ele>-4.67</ele>
        <time>2025-05-16T13:31:01Z</time>
      </trkpt>
      <trkpt lat="43.676114017143846" lon="4.127106964588165">
        <ele>-4.19</ele>
        <time>2025-05-16T13:31:14Z</time>
      </trkpt>
      <trkpt lat="43.676097001880407" lon="4.127188017591834">
        <ele>-3.71</ele>
        <time>2025-05-16T13:31:15Z</time>
      </trkpt>
      <trkpt lat="43.676084009930491" lon="4.127251971513033">
        <ele>-3.71</ele>
        <time>2025-05-16T13:31:16Z</time>
      </trkpt>
      <trkpt lat="43.676074035465717" lon="4.127296982333064">
        <ele>-3.71</ele>
        <time>2025-05-16T13:31:17Z</time>
      </trkpt>
      <trkpt lat="43.676066994667053" lon="4.127333024516702">
        <ele>-3.23</ele>
        <time>2025-05-16T13:31:18Z</time>
      </trkpt>
      <trkpt lat="43.676060037687421" lon="4.127368982881308">
        <ele>-2.75</ele>
        <time>2025-05-16T13:31:19Z</time>
      </trkpt>
      <trkpt lat="43.676054002717137" lon="4.127397984266281">
        <ele>-2.75</ele>
        <time>2025-05-16T13:31:20Z</time>
      </trkpt>
      <trkpt lat="43.676048973575234" lon="4.127421034500003">
        <ele>-2.75</ele>
        <time>2025-05-16T13:31:21Z</time>
      </trkpt>
      <trkpt lat="43.676045034080744" lon="4.127440983429551">
        <ele>-2.27</ele>
        <time>2025-05-16T13:31:22Z</time>
      </trkpt>
      <trkpt lat="43.676040004938841" lon="4.127464033663273">
        <ele>-2.27</ele>
        <time>2025-05-16T13:31:23Z</time>
      </trkpt>
      <trkpt lat="43.676034975796938" lon="4.127487000077963">
        <ele>-1.79</ele>
        <time>2025-05-16T13:31:24Z</time>
      </trkpt>
      <trkpt lat="43.676031036302447" lon="4.127506026998162">
        <ele>-2.27</ele>
        <time>2025-05-16T13:31:25Z</time>
      </trkpt>
      <trkpt lat="43.676028018817306" lon="4.127523964270949">
        <ele>-2.27</ele>
        <time>2025-05-16T13:31:26Z</time>
      </trkpt>
      <trkpt lat="43.675998011603951" lon="4.127671988680959">
        <ele>-2.27</ele>
        <time>2025-05-16T13:31:37Z</time>
      </trkpt>
      <trkpt lat="43.675792990252376" lon="4.128689970821142">
        <ele>-1.79</ele>
        <time>2025-05-16T13:31:47Z</time>
      </trkpt>
      <trkpt lat="43.67554203607142" lon="4.130053035914898">
        <ele>-0.82</ele>
        <time>2025-05-16T13:31:58Z</time>
      </trkpt>
      <trkpt lat="43.675512028858066" lon="4.13029502145946">
        <ele>-1.3</ele>
        <time>2025-05-16T13:32:01Z</time>
      </trkpt>
      <trkpt lat="43.675503982231021" lon="4.130366016179323">
        <ele>-1.3</ele>
        <time>2025-05-16T13:32:02Z</time>
      </trkpt>
      <trkpt lat="43.675511023029685" lon="4.130433993414044">
        <ele>-1.3</ele>
        <time>2025-05-16T13:32:03Z</time>
      </trkpt>
      <trkpt lat="43.675518985837698" lon="4.130515968427062">
        <ele>-1.3</ele>
        <time>2025-05-16T13:32:04Z</time>
      </trkpt>
      <trkpt lat="43.675527032464743" lon="4.130605990067124">
        <ele>-1.3</ele>
        <time>2025-05-16T13:32:05Z</time>
      </trkpt>
      <trkpt lat="43.675531977787614" lon="4.13070498034358">
        <ele>-1.3</ele>
        <time>2025-05-16T13:32:06Z</time>
      </trkpt>
      <trkpt lat="43.675548993051052" lon="4.131040005013347">
        <ele>-1.79</ele>
        <time>2025-05-16T13:32:10Z</time>
      </trkpt>
      <trkpt lat="43.675553016364574" lon="4.131089961156249">
        <ele>-1.79</ele>
        <time>2025-05-16T13:32:11Z</time>
      </trkpt>
      <trkpt lat="43.675556033849716" lon="4.131132960319519">
        <ele>-1.79</ele>
        <time>2025-05-16T13:32:12Z</time>
      </trkpt>
      <trkpt lat="43.675557961687446" lon="4.131163973361254">
        <ele>-1.79</ele>
        <time>2025-05-16T13:32:13Z</time>
      </trkpt>
      <trkpt lat="43.675559973344207" lon="4.131194986402988">
        <ele>-2.27</ele>
        <time>2025-05-16T13:32:14Z</time>
      </trkpt>
      <trkpt lat="43.675579000264406" lon="4.131453987210989">
        <ele>-1.79</ele>
        <time>2025-05-16T13:32:25Z</time>
      </trkpt>
      <trkpt lat="43.675610013306141" lon="4.131662026047707">
        <ele>-0.34</ele>
        <time>2025-05-16T13:32:31Z</time>
      </trkpt>
      <trkpt lat="43.67562803439796" lon="4.13171298801899">
        <ele>-0.34</ele>
        <time>2025-05-16T13:32:32Z</time>
      </trkpt>
      <trkpt lat="43.675645971670747" lon="4.131831005215645">
        <ele>0.14</ele>
        <time>2025-05-16T13:32:33Z</time>
      </trkpt>
      <trkpt lat="43.675581011921167" lon="4.131950028240681">
        <ele>0.14</ele>
        <time>2025-05-16T13:32:34Z</time>
      </trkpt>
      <trkpt lat="43.675546981394291" lon="4.131975006312132">
        <ele>0.62</ele>
        <time>2025-05-16T13:32:35Z</time>
      </trkpt>
      <trkpt lat="43.67543701082468" lon="4.131997972726822">
        <ele>0.62</ele>
        <time>2025-05-16T13:32:36Z</time>
      </trkpt>
      <trkpt lat="43.675360986962914" lon="4.13201398216188">
        <ele>0.62</ele>
        <time>2025-05-16T13:32:37Z</time>
      </trkpt>
      <trkpt lat="43.674781965091825" lon="4.132114984095097">
        <ele>-0.34</ele>
        <time>2025-05-16T13:32:44Z</time>
      </trkpt>
      <trkpt lat="43.673797007650137" lon="4.132104003801942">
        <ele>2.54</ele>
        <time>2025-05-16T13:32:55Z</time>
      </trkpt>
      <trkpt lat="43.673400962725282" lon="4.132233001291752">
        <ele>3.5</ele>
        <time>2025-05-16T13:33:00Z</time>
      </trkpt>
      <trkpt lat="43.673032997176051" lon="4.132317993789911">
        <ele>4.94</ele>
        <time>2025-05-16T13:33:05Z</time>
      </trkpt>
      <trkpt lat="43.672952027991414" lon="4.132343977689743">
        <ele>4.94</ele>
        <time>2025-05-16T13:33:06Z</time>
      </trkpt>
      <trkpt lat="43.672871980816126" lon="4.132369039580226">
        <ele>5.42</ele>
        <time>2025-05-16T13:33:07Z</time>
      </trkpt>
      <trkpt lat="43.672345010563731" lon="4.132535001263022">
        <ele>6.87</ele>
        <time>2025-05-16T13:33:13Z</time>
      </trkpt>
      <trkpt lat="43.672341993078589" lon="4.132590992376208">
        <ele>7.35</ele>
        <time>2025-05-16T13:33:14Z</time>
      </trkpt>
      <trkpt lat="43.672325983643532" lon="4.132710015401244">
        <ele>7.83</ele>
        <time>2025-05-16T13:33:15Z</time>
      </trkpt>
      <trkpt lat="43.672308968380094" lon="4.132839012891054">
        <ele>8.310000000000001</ele>
        <time>2025-05-16T13:33:16Z</time>
      </trkpt>
      <trkpt lat="43.672290025278926" lon="4.132970022037625">
        <ele>8.789999999999999</ele>
        <time>2025-05-16T13:33:17Z</time>
      </trkpt>
      <trkpt lat="43.672270998358727" lon="4.133100025355816">
        <ele>9.27</ele>
        <time>2025-05-16T13:33:18Z</time>
      </trkpt>
      <trkpt lat="43.672177037224174" lon="4.134223032742739">
        <ele>8.310000000000001</ele>
        <time>2025-05-16T13:33:28Z</time>
      </trkpt>
      <trkpt lat="43.672173013910651" lon="4.134308025240898">
        <ele>8.789999999999999</ele>
        <time>2025-05-16T13:33:35Z</time>
      </trkpt>
      <trkpt lat="43.672160021960735" lon="4.134615976363421">
        <ele>8.310000000000001</ele>
        <time>2025-05-16T13:33:51Z</time>
      </trkpt>
      <trkpt lat="43.672259012237191" lon="4.135571010410786">
        <ele>5.42</ele>
        <time>2025-05-16T13:33:59Z</time>
      </trkpt>
      <trkpt lat="43.672253983095288" lon="4.135659020394087">
        <ele>5.42</ele>
        <time>2025-05-16T13:34:00Z</time>
      </trkpt>
      <trkpt lat="43.672249037772417" lon="4.135734038427472">
        <ele>4.94</ele>
        <time>2025-05-16T13:34:01Z</time>
      </trkpt>
      <trkpt lat="43.672246020287275" lon="4.135786006227136">
        <ele>3.5</ele>
        <time>2025-05-16T13:34:07Z</time>
      </trkpt>
      <trkpt lat="43.672246020287275" lon="4.135786006227136">
        <ele>3.02</ele>
        <time>2025-05-16T13:34:15Z</time>
      </trkpt>
      <trkpt lat="43.672237973660231" lon="4.135878039523959">
        <ele>2.54</ele>
        <time>2025-05-16T13:34:16Z</time>
      </trkpt>
      <trkpt lat="43.672235962003469" lon="4.135900000110269">
        <ele>2.54</ele>
        <time>2025-05-16T13:34:17Z</time>
      </trkpt>
      <trkpt lat="43.672232022508979" lon="4.135932018980384">
        <ele>2.06</ele>
        <time>2025-05-16T13:34:18Z</time>
      </trkpt>
      <trkpt lat="43.672226993367076" lon="4.135980969294906">
        <ele>2.06</ele>
        <time>2025-05-16T13:34:19Z</time>
      </trkpt>
      <trkpt lat="43.672210983932018" lon="4.136385982856154">
        <ele>1.58</ele>
        <time>2025-05-16T13:34:25Z</time>
      </trkpt>
      <trkpt lat="43.672190029174089" lon="4.136606007814407">
        <ele>1.1</ele>
        <time>2025-05-16T13:34:28Z</time>
      </trkpt>
      <trkpt lat="43.672177959233522" lon="4.136716984212399">
        <ele>0.62</ele>
        <time>2025-05-16T13:34:29Z</time>
      </trkpt>
      <trkpt lat="43.672243002802134" lon="4.136700974777341">
        <ele>1.1</ele>
        <time>2025-05-16T13:34:30Z</time>
      </trkpt>
      <trkpt lat="43.672280972823501" lon="4.136692006140947">
        <ele>0.62</ele>
        <time>2025-05-16T13:34:31Z</time>
      </trkpt>
      <trkpt lat="43.672329001128674" lon="4.136680020019412">
        <ele>0.62</ele>
        <time>2025-05-16T13:34:32Z</time>
      </trkpt>
      <trkpt lat="43.672388009727001" lon="4.136678008362651">
        <ele>0.62</ele>
        <time>2025-05-16T13:34:33Z</time>
      </trkpt>
      <trkpt lat="43.672517007216811" lon="4.136687982827425">
        <ele>0.14</ele>
        <time>2025-05-16T13:34:35Z</time>
      </trkpt>
      <trkpt lat="43.672607028856874" lon="4.13669602945447">
        <ele>-0.34</ele>
        <time>2025-05-16T13:34:36Z</time>
      </trkpt>
      <trkpt lat="43.672830993309617" lon="4.136898033320904">
        <ele>-1.79</ele>
        <time>2025-05-16T13:34:40Z</time>
      </trkpt>
      <trkpt lat="43.672890001907945" lon="4.136965004727244">
        <ele>-2.27</ele>
        <time>2025-05-16T13:34:41Z</time>
      </trkpt>
      <trkpt lat="43.673535995185375" lon="4.137528017163277">
        <ele>-4.19</ele>
        <time>2025-05-16T13:34:51Z</time>
      </trkpt>
      <trkpt lat="43.673601960763335" lon="4.137563975527883">
        <ele>-3.71</ele>
        <time>2025-05-16T13:34:52Z</time>
      </trkpt>
      <trkpt lat="43.673730958253145" lon="4.137636981904507">
        <ele>-3.71</ele>
        <time>2025-05-16T13:34:54Z</time>
      </trkpt>
      <trkpt lat="43.673800025135279" lon="4.137679981067777">
        <ele>-3.23</ele>
        <time>2025-05-16T13:34:55Z</time>
      </trkpt>
      <trkpt lat="43.673873031511903" lon="4.137725997716188">
        <ele>-3.23</ele>
        <time>2025-05-16T13:34:56Z</time>
      </trkpt>
      <trkpt lat="43.67393396794796" lon="4.137756004929543">
        <ele>-2.75</ele>
        <time>2025-05-16T13:34:57Z</time>
      </trkpt>
      <trkpt lat="43.674004962667823" lon="4.137791963294148">
        <ele>-2.75</ele>
        <time>2025-05-16T13:34:58Z</time>
      </trkpt>
      <trkpt lat="43.674350967630744" lon="4.137926995754242">
        <ele>-1.79</ele>
        <time>2025-05-16T13:35:03Z</time>
      </trkpt>
      <trkpt lat="43.674544002860785" lon="4.137992039322853">
        <ele>-1.79</ele>
        <time>2025-05-16T13:35:06Z</time>
      </trkpt>
      <trkpt lat="43.674680963158607" lon="4.138024980202317">
        <ele>-1.79</ele>
        <time>2025-05-16T13:35:08Z</time>
      </trkpt>
      <trkpt lat="43.675111038610339" lon="4.138068985193968">
        <ele>-1.79</ele>
        <time>2025-05-16T13:35:14Z</time>
      </trkpt>
      <trkpt lat="43.675182033330202" lon="4.138068985193968">
        <ele>-1.79</ele>
        <time>2025-05-16T13:35:15Z</time>
      </trkpt>
      <trkpt lat="43.675250010564923" lon="4.138074014335871">
        <ele>-1.3</ele>
        <time>2025-05-16T13:35:16Z</time>
      </trkpt>
      <trkpt lat="43.675321005284786" lon="4.138088012114167">
        <ele>-1.3</ele>
        <time>2025-05-16T13:35:17Z</time>
      </trkpt>
      <trkpt lat="43.675386970862746" lon="4.138075020164251">
        <ele>-1.3</ele>
        <time>2025-05-16T13:35:18Z</time>
      </trkpt>
      <trkpt lat="43.675440028309822" lon="4.138059010729194">
        <ele>-0.82</ele>
        <time>2025-05-16T13:35:19Z</time>
      </trkpt>
      <trkpt lat="43.675473975017667" lon="4.13804903626442">
        <ele>-0.82</ele>
        <time>2025-05-16T13:35:20Z</time>
      </trkpt>
      <trkpt lat="43.675494007766247" lon="4.138043001294136">
        <ele>-0.34</ele>
        <time>2025-05-16T13:35:21Z</time>
      </trkpt>
      <trkpt lat="43.675494007766247" lon="4.138043001294136">
        <ele>-0.34</ele>
        <time>2025-05-16T13:35:35Z</time>
      </trkpt>
      <trkpt lat="43.675701962783933" lon="4.138108966872096">
        <ele>3.5</ele>
        <time>2025-05-16T13:35:57Z</time>
      </trkpt>
      <trkpt lat="43.675704980269074" lon="4.138176022097468">
        <ele>3.5</ele>
        <time>2025-05-16T13:35:58Z</time>
      </trkpt>
      <trkpt lat="43.675707997754216" lon="4.138256991282105">
        <ele>3.5</ele>
        <time>2025-05-16T13:35:59Z</time>
      </trkpt>
      <trkpt lat="43.675718978047371" lon="4.138520015403628">
        <ele>1.1</ele>
        <time>2025-05-16T13:36:06Z</time>
      </trkpt>
      <trkpt lat="43.675718978047371" lon="4.138520015403628">
        <ele>1.1</ele>
        <time>2025-05-16T13:36:30Z</time>
      </trkpt>
      <trkpt lat="43.675761977210641" lon="4.138606013730168">
        <ele>-0.34</ele>
        <time>2025-05-16T13:36:56Z</time>
      </trkpt>
      <trkpt lat="43.675804976373911" lon="4.138691006228328">
        <ele>-0.82</ele>
        <time>2025-05-16T13:36:57Z</time>
      </trkpt>
      <trkpt lat="43.676372012123466" lon="4.139500027522445">
        <ele>-1.3</ele>
        <time>2025-05-16T13:37:07Z</time>
      </trkpt>
      <trkpt lat="43.677089000120759" lon="4.140498982742429">
        <ele>-1.79</ele>
        <time>2025-05-16T13:37:18Z</time>
      </trkpt>
      <trkpt lat="43.677355963736773" lon="4.140918999910355">
        <ele>-1.79</ele>
        <time>2025-05-16T13:37:22Z</time>
      </trkpt>
      <trkpt lat="43.678064988926053" lon="4.141975035890937">
        <ele>3.98</ele>
        <time>2025-05-16T13:37:31Z</time>
      </trkpt>
      <trkpt lat="43.678646022453904" lon="4.142832001671195">
        <ele>9.27</ele>
        <time>2025-05-16T13:37:41Z</time>
      </trkpt>
      <trkpt lat="43.679583035409451" lon="4.144237982109189">
        <ele>8.310000000000001</ele>
        <time>2025-05-16T13:37:53Z</time>
      </trkpt>
      <trkpt lat="43.680580984801054" lon="4.145702971145511">
        <ele>7.35</ele>
        <time>2025-05-16T13:38:05Z</time>
      </trkpt>
      <trkpt lat="43.680841997265816" lon="4.146069008857012">
        <ele>6.87</ele>
        <time>2025-05-16T13:38:11Z</time>
      </trkpt>
      <trkpt lat="43.68087200447917" lon="4.146112008020282">
        <ele>6.87</ele>
        <time>2025-05-16T13:38:13Z</time>
      </trkpt>
      <trkpt lat="43.680882984772325" lon="4.146127011626959">
        <ele>7.35</ele>
        <time>2025-05-16T13:38:14Z</time>
      </trkpt>
      <trkpt lat="43.68089597672224" lon="4.146146038547158">
        <ele>7.35</ele>
        <time>2025-05-16T13:38:15Z</time>
      </trkpt>
      <trkpt lat="43.680912991985679" lon="4.14617202244699">
        <ele>7.35</ele>
        <time>2025-05-16T13:38:16Z</time>
      </trkpt>
      <trkpt lat="43.680939981713891" lon="4.146212004125118">
        <ele>6.87</ele>
        <time>2025-05-16T13:38:17Z</time>
      </trkpt>
      <trkpt lat="43.680974012240767" lon="4.146261960268021">
        <ele>6.87</ele>
        <time>2025-05-16T13:38:18Z</time>
      </trkpt>
      <trkpt lat="43.681011982262135" lon="4.146320968866348">
        <ele>6.87</ele>
        <time>2025-05-16T13:38:19Z</time>
      </trkpt>
      <trkpt lat="43.680953979492188" lon="4.146523978561163">
        <ele>6.39</ele>
        <time>2025-05-16T13:38:20Z</time>
      </trkpt>
      <trkpt lat="43.680968983098865" lon="4.146573012694717">
        <ele>6.39</ele>
        <time>2025-05-16T13:38:21Z</time>
      </trkpt>
      <trkpt lat="43.680994966998696" lon="4.146665968000889">
        <ele>5.91</ele>
        <time>2025-05-16T13:38:22Z</time>
      </trkpt>
      <trkpt lat="43.681079959496856" lon="4.146733023226261">
        <ele>5.42</ele>
        <time>2025-05-16T13:38:23Z</time>
      </trkpt>
      <trkpt lat="43.681148020550609" lon="4.146780967712402">
        <ele>5.42</ele>
        <time>2025-05-16T13:38:24Z</time>
      </trkpt>
      <trkpt lat="43.681148020550609" lon="4.146780967712402">
        <ele>5.91</ele>
        <time>2025-05-16T13:38:25Z</time>
      </trkpt>
      <trkpt lat="43.681349018588662" lon="4.146836958825588">
        <ele>5.91</ele>
        <time>2025-05-16T13:38:26Z</time>
      </trkpt>
      <trkpt lat="43.681415989995003" lon="4.146947013214231">
        <ele>5.91</ele>
        <time>2025-05-16T13:38:27Z</time>
      </trkpt>
      <trkpt lat="43.682246971875429" lon="4.148197006434202">
        <ele>7.35</ele>
        <time>2025-05-16T13:38:37Z</time>
      </trkpt>
      <trkpt lat="43.683077031746507" lon="4.149757968261838">
        <ele>6.39</ele>
        <time>2025-05-16T13:38:49Z</time>
      </trkpt>
      <trkpt lat="43.68310896679759" lon="4.149860981851816">
        <ele>6.39</ele>
        <time>2025-05-16T13:38:50Z</time>
      </trkpt>
      <trkpt lat="43.683134028688073" lon="4.149942034855485">
        <ele>5.91</ele>
        <time>2025-05-16T13:38:51Z</time>
      </trkpt>
      <trkpt lat="43.68314903229475" lon="4.149991990998387">
        <ele>5.91</ele>
        <time>2025-05-16T13:38:52Z</time>
      </trkpt>
      <trkpt lat="43.683165041729808" lon="4.150043036788702">
        <ele>5.42</ele>
        <time>2025-05-16T13:39:01Z</time>
      </trkpt>
      <trkpt lat="43.683165041729808" lon="4.150087963789702">
        <ele>5.91</ele>
        <time>2025-05-16T13:39:02Z</time>
      </trkpt>
      <trkpt lat="43.683165041729808" lon="4.150171028450131">
        <ele>5.42</ele>
        <time>2025-05-16T13:39:03Z</time>
      </trkpt>
      <trkpt lat="43.683131011202931" lon="4.150214027613401">
        <ele>5.91</ele>
        <time>2025-05-16T13:39:04Z</time>
      </trkpt>
      <trkpt lat="43.683013999834657" lon="4.15036397986114">
        <ele>5.91</ele>
        <time>2025-05-16T13:39:06Z</time>
      </trkpt>
      <trkpt lat="43.682992961257696" lon="4.150461964309216">
        <ele>5.91</ele>
        <time>2025-05-16T13:39:07Z</time>
      </trkpt>
      <trkpt lat="43.682974018156528" lon="4.150588028132916">
        <ele>6.39</ele>
        <time>2025-05-16T13:39:08Z</time>
      </trkpt>
      <trkpt lat="43.682980975136161" lon="4.150692969560623">
        <ele>6.39</ele>
        <time>2025-05-16T13:39:09Z</time>
      </trkpt>
      <trkpt lat="43.682992961257696" lon="4.150858009234071">
        <ele>6.39</ele>
        <time>2025-05-16T13:39:10Z</time>
      </trkpt>
      <trkpt lat="43.68302003480494" lon="4.15092196315527">
        <ele>5.91</ele>
        <time>2025-05-16T13:39:11Z</time>
      </trkpt>
      <trkpt lat="43.683092035353184" lon="4.151038974523544">
        <ele>5.91</ele>
        <time>2025-05-16T13:39:12Z</time>
      </trkpt>
      <trkpt lat="43.683165041729808" lon="4.151102006435394">
        <ele>6.39</ele>
        <time>2025-05-16T13:39:13Z</time>
      </trkpt>
      <trkpt lat="43.683259002864361" lon="4.151165960356593">
        <ele>6.39</ele>
        <time>2025-05-16T13:39:14Z</time>
      </trkpt>
      <trkpt lat="43.683348018676043" lon="4.151188004761934">
        <ele>6.87</ele>
        <time>2025-05-16T13:39:15Z</time>
      </trkpt>
      <trkpt lat="43.683460000902414" lon="4.151165960356593">
        <ele>6.87</ele>
        <time>2025-05-16T13:39:16Z</time>
      </trkpt>
      <trkpt lat="43.683544993400574" lon="4.15111499838531">
        <ele>6.87</ele>
        <time>2025-05-16T13:39:17Z</time>
      </trkpt>
      <trkpt lat="43.683614982292056" lon="4.151073005050421">
        <ele>6.87</ele>
        <time>2025-05-16T13:39:18Z</time>
      </trkpt>
      <trkpt lat="43.683722019195557" lon="4.151096977293491">
        <ele>6.87</ele>
        <time>2025-05-16T13:39:19Z</time>
      </trkpt>
      <trkpt lat="43.683826960623264" lon="4.151121033355594">
        <ele>6.39</ele>
        <time>2025-05-16T13:39:20Z</time>
      </trkpt>
      <trkpt lat="43.683927962556481" lon="4.151176018640399">
        <ele>6.39</ele>
        <time>2025-05-16T13:39:21Z</time>
      </trkpt>
      <trkpt lat="43.684023013338447" lon="4.15128699503839">
        <ele>6.39</ele>
        <time>2025-05-16T13:39:22Z</time>
      </trkpt>
      <trkpt lat="43.684124015271664" lon="4.151404006406665">
        <ele>6.87</ele>
        <time>2025-05-16T13:39:23Z</time>
      </trkpt>
      <trkpt lat="43.685221960768104" lon="4.152782997116447">
        <ele>7.83</ele>
        <time>2025-05-16T13:39:33Z</time>
      </trkpt>
      <trkpt lat="43.685603002086282" lon="4.153451034799218">
        <ele>9.75</ele>
        <time>2025-05-16T13:39:38Z</time>
      </trkpt>
      <trkpt lat="43.685825038701296" lon="4.154098033905029">
        <ele>10.23</ele>
        <time>2025-05-16T13:39:43Z</time>
      </trkpt>
      <trkpt lat="43.68581498041749" lon="4.154233988374472">
        <ele>10.23</ele>
        <time>2025-05-16T13:39:44Z</time>
      </trkpt>
      <trkpt lat="43.685808023437858" lon="4.154318980872631">
        <ele>10.710000000000001</ele>
        <time>2025-05-16T13:39:45Z</time>
      </trkpt>
      <trkpt lat="43.685784973204136" lon="4.154415037482977">
        <ele>10.710000000000001</ele>
        <time>2025-05-16T13:39:46Z</time>
      </trkpt>
      <trkpt lat="43.685740968212485" lon="4.154502041637898">
        <ele>10.710000000000001</ele>
        <time>2025-05-16T13:39:47Z</time>
      </trkpt>
      <trkpt lat="43.685709033161402" lon="4.15459600277245">
        <ele>10.710000000000001</ele>
        <time>2025-05-16T13:39:48Z</time>
      </trkpt>
      <trkpt lat="43.685686988756061" lon="4.1547039616853">
        <ele>10.710000000000001</ele>
        <time>2025-05-16T13:39:49Z</time>
      </trkpt>
      <trkpt lat="43.68568598292768" lon="4.15480999276042">
        <ele>11.19</ele>
        <time>2025-05-16T13:39:50Z</time>
      </trkpt>
      <trkpt lat="43.685713978484273" lon="4.154927004128695">
        <ele>11.19</ele>
        <time>2025-05-16T13:39:51Z</time>
      </trkpt>
      <trkpt lat="43.685741974040866" lon="4.155047032982111">
        <ele>10.710000000000001</ele>
        <time>2025-05-16T13:39:52Z</time>
      </trkpt>
      <trkpt lat="43.685781033709645" lon="4.155143005773425">
        <ele>10.710000000000001</ele>
        <time>2025-05-16T13:39:53Z</time>
      </trkpt>
      <trkpt lat="43.685862002894282" lon="4.155204026028514">
        <ele>10.710000000000001</ele>
        <time>2025-05-16T13:39:54Z</time>
      </trkpt>
      <trkpt lat="43.6859439779073" lon="4.155264962464571">
        <ele>10.710000000000001</ele>
        <time>2025-05-16T13:39:55Z</time>
      </trkpt>
      <trkpt lat="43.686018995940685" lon="4.155321037396789">
        <ele>10.23</ele>
        <time>2025-05-16T13:39:56Z</time>
      </trkpt>
      <trkpt lat="43.686107005923986" lon="4.15530301630497">
        <ele>10.23</ele>
        <time>2025-05-16T13:39:57Z</time>
      </trkpt>
      <trkpt lat="43.686199961230159" lon="4.155284995213151">
        <ele>10.23</ele>
        <time>2025-05-16T13:39:58Z</time>
      </trkpt>
      <trkpt lat="43.686232985928655" lon="4.155278038233519">
        <ele>10.23</ele>
        <time>2025-05-16T13:39:59Z</time>
      </trkpt>
      <trkpt lat="43.686384027823806" lon="4.155350960791111">
        <ele>10.23</ele>
        <time>2025-05-16T13:40:00Z</time>
      </trkpt>
      <trkpt lat="43.686481006443501" lon="4.155397983267903">
        <ele>10.23</ele>
        <time>2025-05-16T13:40:01Z</time>
      </trkpt>
      <trkpt lat="43.68658603169024" lon="4.155448023229837">
        <ele>9.75</ele>
        <time>2025-05-16T13:40:02Z</time>
      </trkpt>
      <trkpt lat="43.686698013916612" lon="4.155502002686262">
        <ele>9.75</ele>
        <time>2025-05-16T13:40:03Z</time>
      </trkpt>
      <trkpt lat="43.687086012214422" lon="4.155642986297607">
        <ele>9.27</ele>
        <time>2025-05-16T13:40:06Z</time>
      </trkpt>
      <trkpt lat="43.68723202496767" lon="4.155697971582413">
        <ele>8.789999999999999</ele>
        <time>2025-05-16T13:40:07Z</time>
      </trkpt>
      <trkpt lat="43.687346018850803" lon="4.155818000435829">
        <ele>8.789999999999999</ele>
        <time>2025-05-16T13:40:08Z</time>
      </trkpt>
      <trkpt lat="43.687444003298879" lon="4.155952027067542">
        <ele>8.789999999999999</ele>
        <time>2025-05-16T13:40:09Z</time>
      </trkpt>
      <trkpt lat="43.687539976090193" lon="4.156083036214113">
        <ele>9.27</ele>
        <time>2025-05-16T13:40:10Z</time>
      </trkpt>
      <trkpt lat="43.68856499902904" lon="4.157574009150267">
        <ele>12.630000000000001</ele>
        <time>2025-05-16T13:40:21Z</time>
      </trkpt>
      <trkpt lat="43.689303025603294" lon="4.158690981566906">
        <ele>12.630000000000001</ele>
        <time>2025-05-16T13:40:29Z</time>
      </trkpt>
      <trkpt lat="43.689942983910441" lon="4.159641992300749">
        <ele>15.52</ele>
        <time>2025-05-16T13:40:37Z</time>
      </trkpt>
      <trkpt lat="43.690641028806567" lon="4.160682018846273">
        <ele>17.920000000000002</ele>
        <time>2025-05-16T13:40:45Z</time>
      </trkpt>
      <trkpt lat="43.691299008205533" lon="4.161663958802819">
        <ele>18.399999999999999</ele>
        <time>2025-05-16T13:40:53Z</time>
      </trkpt>
      <trkpt lat="43.692225962877274" lon="4.162969021126628">
        <ele>16.48</ele>
        <time>2025-05-16T13:41:03Z</time>
      </trkpt>
      <trkpt lat="43.692434001713991" lon="4.163287030532956">
        <ele>16</ele>
        <time>2025-05-16T13:41:06Z</time>
      </trkpt>
      <trkpt lat="43.692498039454222" lon="4.163385014981031">
        <ele>16</ele>
        <time>2025-05-16T13:41:07Z</time>
      </trkpt>
      <trkpt lat="43.693035989999771" lon="4.164593014866114">
        <ele>16</ele>
        <time>2025-05-16T13:41:17Z</time>
      </trkpt>
      <trkpt lat="43.693634960800409" lon="4.165998995304108">
        <ele>10.23</ele>
        <time>2025-05-16T13:41:26Z</time>
      </trkpt>
      <trkpt lat="43.694297969341278" lon="4.167451998218894">
        <ele>9.27</ele>
        <time>2025-05-16T13:41:35Z</time>
      </trkpt>
      <trkpt lat="43.694453034549952" lon="4.167832033708692">
        <ele>9.27</ele>
        <time>2025-05-16T13:41:38Z</time>
      </trkpt>
      <trkpt lat="43.69442998431623" lon="4.16808801703155">
        <ele>9.27</ele>
        <time>2025-05-16T13:41:39Z</time>
      </trkpt>
      <trkpt lat="43.69442998431623" lon="4.168208967894316">
        <ele>9.27</ele>
        <time>2025-05-16T13:41:42Z</time>
      </trkpt>
      <trkpt lat="43.694468960165977" lon="4.168262025341392">
        <ele>9.75</ele>
        <time>2025-05-16T13:41:43Z</time>
      </trkpt>
      <trkpt lat="43.694521011784673" lon="4.168323967605829">
        <ele>9.75</ele>
        <time>2025-05-16T13:41:44Z</time>
      </trkpt>
      <trkpt lat="43.69455898180604" lon="4.168366966769099">
        <ele>9.75</ele>
        <time>2025-05-16T13:41:45Z</time>
      </trkpt>
      <trkpt lat="43.69475201703608" lon="4.168495964258909">
        <ele>9.75</ele>
        <time>2025-05-16T13:41:46Z</time>
      </trkpt>
      <trkpt lat="43.69477498345077" lon="4.168525971472263">
        <ele>9.27</ele>
        <time>2025-05-16T13:41:47Z</time>
      </trkpt>
      <trkpt lat="43.69486098177731" lon="4.168651029467583">
        <ele>8.789999999999999</ele>
        <time>2025-05-16T13:41:48Z</time>
      </trkpt>
      <trkpt lat="43.694935999810696" lon="4.168799975886941">
        <ele>8.310000000000001</ele>
        <time>2025-05-16T13:41:49Z</time>
      </trkpt>
      <trkpt lat="43.695648964494467" lon="4.170270999893546">
        <ele>7.35</ele>
        <time>2025-05-16T13:41:57Z</time>
      </trkpt>
      <trkpt lat="43.69679200462997" lon="4.172716001048684">
        <ele>7.35</ele>
        <time>2025-05-16T13:42:09Z</time>
      </trkpt>
      <trkpt lat="43.697734968736768" lon="4.174735033884645">
        <ele>7.35</ele>
        <time>2025-05-16T13:42:20Z</time>
      </trkpt>
      <trkpt lat="43.698370987549424" lon="4.176098015159369">
        <ele>8.310000000000001</ele>
        <time>2025-05-16T13:42:26Z</time>
      </trkpt>
      <trkpt lat="43.698925031349063" lon="4.177282964810729">
        <ele>8.310000000000001</ele>
        <time>2025-05-16T13:42:33Z</time>
      </trkpt>
      <trkpt lat="43.700046027079225" lon="4.179681027308106">
        <ele>7.83</ele>
        <time>2025-05-16T13:42:45Z</time>
      </trkpt>
      <trkpt lat="43.700787993147969" lon="4.181266967207193">
        <ele>7.83</ele>
        <time>2025-05-16T13:42:54Z</time>
      </trkpt>
      <trkpt lat="43.701737998053432" lon="4.183304021134973">
        <ele>7.83</ele>
        <time>2025-05-16T13:43:06Z</time>
      </trkpt>
      <trkpt lat="43.70295999571681" lon="4.185930993407965">
        <ele>7.83</ele>
        <time>2025-05-16T13:43:21Z</time>
      </trkpt>
      <trkpt lat="43.704020977020264" lon="4.188172984868288">
        <ele>10.23</ele>
        <time>2025-05-16T13:43:33Z</time>
      </trkpt>
      <trkpt lat="43.704596981406212" lon="4.189388025552034">
        <ele>8.789999999999999</ele>
        <time>2025-05-16T13:43:40Z</time>
      </trkpt>
      <trkpt lat="43.705231994390488" lon="4.19101201929152">
        <ele>9.27</ele>
        <time>2025-05-16T13:43:48Z</time>
      </trkpt>
      <trkpt lat="43.705475991591811" lon="4.19141803868115">
        <ele>10.23</ele>
        <time>2025-05-16T13:43:53Z</time>
      </trkpt>
      <trkpt lat="43.705512033775449" lon="4.191482998430729">
        <ele>10.23</ele>
        <time>2025-05-16T13:43:54Z</time>
      </trkpt>
      <trkpt lat="43.705538017675281" lon="4.191587017849088">
        <ele>10.23</ele>
        <time>2025-05-16T13:43:55Z</time>
      </trkpt>
      <trkpt lat="43.705522008240223" lon="4.191691959276795">
        <ele>10.23</ele>
        <time>2025-05-16T13:43:56Z</time>
      </trkpt>
      <trkpt lat="43.705505998805165" lon="4.191794972866774">
        <ele>10.23</ele>
        <time>2025-05-16T13:43:57Z</time>
      </trkpt>
      <trkpt lat="43.705522008240223" lon="4.191911984235048">
        <ele>9.75</ele>
        <time>2025-05-16T13:43:58Z</time>
      </trkpt>
      <trkpt lat="43.705545980483294" lon="4.192024972289801">
        <ele>10.23</ele>
        <time>2025-05-16T13:43:59Z</time>
      </trkpt>
      <trkpt lat="43.705593002960086" lon="4.192147012799978">
        <ele>10.23</ele>
        <time>2025-05-16T13:44:00Z</time>
      </trkpt>
      <trkpt lat="43.705665003508329" lon="4.192219013348222">
        <ele>10.23</ele>
        <time>2025-05-16T13:44:01Z</time>
      </trkpt>
      <trkpt lat="43.705741027370095" lon="4.192295037209988">
        <ele>10.23</ele>
        <time>2025-05-16T13:44:02Z</time>
      </trkpt>
      <trkpt lat="43.705832976847887" lon="4.192349016666412">
        <ele>9.75</ele>
        <time>2025-05-16T13:44:03Z</time>
      </trkpt>
      <trkpt lat="43.705928027629852" lon="4.192371983081102">
        <ele>9.75</ele>
        <time>2025-05-16T13:44:04Z</time>
      </trkpt>
      <trkpt lat="43.706022994592786" lon="4.192349016666412">
        <ele>10.23</ele>
        <time>2025-05-16T13:44:05Z</time>
      </trkpt>
      <trkpt lat="43.706103041768074" lon="4.192313980311155">
        <ele>9.75</ele>
        <time>2025-05-16T13:44:06Z</time>
      </trkpt>
      <trkpt lat="43.70620496571064" lon="4.192412970587611">
        <ele>9.75</ele>
        <time>2025-05-16T13:44:07Z</time>
      </trkpt>
      <trkpt lat="43.706302028149366" lon="4.192507015541196">
        <ele>10.23</ele>
        <time>2025-05-16T13:44:08Z</time>
      </trkpt>
      <trkpt lat="43.706414010375738" lon="4.192615980282426">
        <ele>10.23</ele>
        <time>2025-05-16T13:44:09Z</time>
      </trkpt>
      <trkpt lat="43.706534961238503" lon="4.192732991650701">
        <ele>10.23</ele>
        <time>2025-05-16T13:44:10Z</time>
      </trkpt>
      <trkpt lat="43.707543974742293" lon="4.193711997941136">
        <ele>11.19</ele>
        <time>2025-05-16T13:44:17Z</time>
      </trkpt>
      <trkpt lat="43.709600977599621" lon="4.195595998317003">
        <ele>10.710000000000001</ele>
        <time>2025-05-16T13:44:31Z</time>
      </trkpt>
      <trkpt lat="43.711079964414239" lon="4.196981023997068">
        <ele>11.19</ele>
        <time>2025-05-16T13:44:41Z</time>
      </trkpt>
      <trkpt lat="43.712980980053544" lon="4.198753964155912">
        <ele>13.119999999999999</ele>
        <time>2025-05-16T13:44:54Z</time>
      </trkpt>
      <trkpt lat="43.714536996558309" lon="4.200168997049332">
        <ele>11.19</ele>
        <time>2025-05-16T13:45:04Z</time>
      </trkpt>
      <trkpt lat="43.716179011389613" lon="4.201676985248923">
        <ele>12.15</ele>
        <time>2025-05-16T13:45:15Z</time>
      </trkpt>
      <trkpt lat="43.717606030404568" lon="4.203007025644183">
        <ele>11.67</ele>
        <time>2025-05-16T13:45:25Z</time>
      </trkpt>
      <trkpt lat="43.718725014477968" lon="4.204231034964323">
        <ele>11.19</ele>
        <time>2025-05-16T13:45:34Z</time>
      </trkpt>
      <trkpt lat="43.719687005504966" lon="4.205932980403304">
        <ele>13.119999999999999</ele>
        <time>2025-05-16T13:45:43Z</time>
      </trkpt>
      <trkpt lat="43.720458978787065" lon="4.2073630169034">
        <ele>12.630000000000001</ele>
        <time>2025-05-16T13:45:51Z</time>
      </trkpt>
      <trkpt lat="43.721252996474504" lon="4.208797998726368">
        <ele>12.15</ele>
        <time>2025-05-16T13:45:59Z</time>
      </trkpt>
      <trkpt lat="43.722253041341901" lon="4.210641011595726">
        <ele>15.039999999999999</ele>
        <time>2025-05-16T13:46:09Z</time>
      </trkpt>
      <trkpt lat="43.723075976595283" lon="4.212119998410344">
        <ele>17.920000000000002</ele>
        <time>2025-05-16T13:46:17Z</time>
      </trkpt>
      <trkpt lat="43.723965967074037" lon="4.213653970509768">
        <ele>18.879999999999999</ele>
        <time>2025-05-16T13:46:26Z</time>
      </trkpt>
      <trkpt lat="43.725017979741096" lon="4.215639978647232">
        <ele>16.48</ele>
        <time>2025-05-16T13:46:36Z</time>
      </trkpt>
      <trkpt lat="43.726319018751383" lon="4.218000993132591">
        <ele>16</ele>
        <time>2025-05-16T13:46:48Z</time>
      </trkpt>
      <trkpt lat="43.726938022300601" lon="4.219135986641049">
        <ele>15.52</ele>
        <time>2025-05-16T13:46:55Z</time>
      </trkpt>
      <trkpt lat="43.727288972586393" lon="4.219816010445356">
        <ele>15.52</ele>
        <time>2025-05-16T13:47:01Z</time>
      </trkpt>
      <trkpt lat="43.727333983406425" lon="4.219902008771896">
        <ele>15.039999999999999</ele>
        <time>2025-05-16T13:47:02Z</time>
      </trkpt>
      <trkpt lat="43.727376982569695" lon="4.219983983784914">
        <ele>15.039999999999999</ele>
        <time>2025-05-16T13:47:03Z</time>
      </trkpt>
      <trkpt lat="43.727485025301576" lon="4.220191016793251">
        <ele>15.52</ele>
        <time>2025-05-16T13:47:06Z</time>
      </trkpt>
      <trkpt lat="43.727600025013089" lon="4.220486981794238">
        <ele>16</ele>
        <time>2025-05-16T13:47:14Z</time>
      </trkpt>
      <trkpt lat="43.727618968114257" lon="4.220549007877708">
        <ele>16.48</ele>
        <time>2025-05-16T13:47:35Z</time>
      </trkpt>
      <trkpt lat="43.727863971143961" lon="4.221292985603213">
        <ele>16.48</ele>
        <time>2025-05-16T13:47:43Z</time>
      </trkpt>
      <trkpt lat="43.728197989985347" lon="4.22233703546226">
        <ele>16.960000000000001</ele>
        <time>2025-05-16T13:47:51Z</time>
      </trkpt>
      <trkpt lat="43.728416003286839" lon="4.223017981275916">
        <ele>15.52</ele>
        <time>2025-05-16T13:47:58Z</time>
      </trkpt>
      <trkpt lat="43.728693025186658" lon="4.223897997289896">
        <ele>16.48</ele>
        <time>2025-05-16T13:48:05Z</time>
      </trkpt>
      <trkpt lat="43.729455024003983" lon="4.225947959348559">
        <ele>16.960000000000001</ele>
        <time>2025-05-16T13:48:16Z</time>
      </trkpt>
      <trkpt lat="43.730544000864029" lon="4.22781796194613">
        <ele>17.440000000000001</ele>
        <time>2025-05-16T13:48:26Z</time>
      </trkpt>
      <trkpt lat="43.730689007788897" lon="4.228062964975834">
        <ele>17.440000000000001</ele>
        <time>2025-05-16T13:48:27Z</time>
      </trkpt>
      <trkpt lat="43.731477996334434" lon="4.229402979835868">
        <ele>17.440000000000001</ele>
        <time>2025-05-16T13:48:33Z</time>
      </trkpt>
      <trkpt lat="43.732742993161082" lon="4.231545981019735">
        <ele>19.359999999999999</ele>
        <time>2025-05-16T13:48:44Z</time>
      </trkpt>
      <trkpt lat="43.733969014137983" lon="4.233621004968882">
        <ele>20.32</ele>
        <time>2025-05-16T13:48:55Z</time>
      </trkpt>
      <trkpt lat="43.73469497077167" lon="4.23488499596715">
        <ele>17.920000000000002</ele>
        <time>2025-05-16T13:49:03Z</time>
      </trkpt>
      <trkpt lat="43.734891023486853" lon="4.235301995649934">
        <ele>16.960000000000001</ele>
        <time>2025-05-16T13:49:09Z</time>
      </trkpt>
      <trkpt lat="43.734919019043446" lon="4.235386988148093">
        <ele>16.960000000000001</ele>
        <time>2025-05-16T13:49:10Z</time>
      </trkpt>
      <trkpt lat="43.734894040971994" lon="4.235476003959775">
        <ele>16.960000000000001</ele>
        <time>2025-05-16T13:49:11Z</time>
      </trkpt>
      <trkpt lat="43.734882976859808" lon="4.235713966190815">
        <ele>16.960000000000001</ele>
        <time>2025-05-16T13:49:13Z</time>
      </trkpt>
      <trkpt lat="43.734921030700207" lon="4.23585201613605">
        <ele>17.440000000000001</ele>
        <time>2025-05-16T13:49:14Z</time>
      </trkpt>
      <trkpt lat="43.734989007934928" lon="4.235919993370771">
        <ele>17.440000000000001</ele>
        <time>2025-05-16T13:49:15Z</time>
      </trkpt>
      <trkpt lat="43.735085986554623" lon="4.235952012240887">
        <ele>17.440000000000001</ele>
        <time>2025-05-16T13:49:16Z</time>
      </trkpt>
      <trkpt lat="43.735182965174317" lon="4.235940026119351">
        <ele>17.440000000000001</ele>
        <time>2025-05-16T13:49:17Z</time>
      </trkpt>
      <trkpt lat="43.735282961279154" lon="4.23604597337544">
        <ele>16.960000000000001</ele>
        <time>2025-05-16T13:49:18Z</time>
      </trkpt>
      <trkpt lat="43.735368959605694" lon="4.236158039420843">
        <ele>16.48</ele>
        <time>2025-05-16T13:49:19Z</time>
      </trkpt>
      <trkpt lat="43.73546501621604" lon="4.236284019425511">
        <ele>16.48</ele>
        <time>2025-05-16T13:49:20Z</time>
      </trkpt>
      <trkpt lat="43.736365986987948" lon="4.237655969336629">
        <ele>17.440000000000001</ele>
        <time>2025-05-16T13:49:28Z</time>
      </trkpt>
      <trkpt lat="43.738307990133762" lon="4.240933964028955">
        <ele>16.960000000000001</ele>
        <time>2025-05-16T13:49:44Z</time>
      </trkpt>
      <trkpt lat="43.740220991894603" lon="4.244217993691564">
        <ele>14.08</ele>
        <time>2025-05-16T13:50:00Z</time>
      </trkpt>
      <trkpt lat="43.741811038926244" lon="4.246885031461716">
        <ele>15.039999999999999</ele>
        <time>2025-05-16T13:50:13Z</time>
      </trkpt>
      <trkpt lat="43.743450036272407" lon="4.249239005148411">
        <ele>14.56</ele>
        <time>2025-05-16T13:50:25Z</time>
      </trkpt>
      <trkpt lat="43.745250971987844" lon="4.251551991328597">
        <ele>13.6</ele>
        <time>2025-05-16T13:50:38Z</time>
      </trkpt>
      <trkpt lat="43.746470035985112" lon="4.253103984519839">
        <ele>14.08</ele>
        <time>2025-05-16T13:50:49Z</time>
      </trkpt>
      <trkpt lat="43.747163973748684" lon="4.254636028781533">
        <ele>13.6</ele>
        <time>2025-05-16T13:50:58Z</time>
      </trkpt>
      <trkpt lat="43.747246032580733" lon="4.25510298460722">
        <ele>12.630000000000001</ele>
        <time>2025-05-16T13:51:01Z</time>
      </trkpt>
      <trkpt lat="43.747250977903605" lon="4.255222007632256">
        <ele>12.630000000000001</ele>
        <time>2025-05-16T13:51:02Z</time>
      </trkpt>
      <trkpt lat="43.747255001217127" lon="4.255329966545105">
        <ele>12.15</ele>
        <time>2025-05-16T13:51:03Z</time>
      </trkpt>
      <trkpt lat="43.747130027040839" lon="4.255486037582159">
        <ele>12.15</ele>
        <time>2025-05-16T13:51:04Z</time>
      </trkpt>
      <trkpt lat="43.747108988463879" lon="4.255542028695345">
        <ele>12.15</ele>
        <time>2025-05-16T13:51:05Z</time>
      </trkpt>
      <trkpt lat="43.747064983472228" lon="4.25566297955811">
        <ele>12.630000000000001</ele>
        <time>2025-05-16T13:51:06Z</time>
      </trkpt>
      <trkpt lat="43.747058026492596" lon="4.255813015624881">
        <ele>12.630000000000001</ele>
        <time>2025-05-16T13:51:07Z</time>
      </trkpt>
      <trkpt lat="43.747076969593763" lon="4.255934972316027">
        <ele>12.630000000000001</ele>
        <time>2025-05-16T13:51:08Z</time>
      </trkpt>
      <trkpt lat="43.74711200594902" lon="4.256045026704669">
        <ele>12.630000000000001</ele>
        <time>2025-05-16T13:51:09Z</time>
      </trkpt>
      <trkpt lat="43.747162967920303" lon="4.256136976182461">
        <ele>12.15</ele>
        <time>2025-05-16T13:51:10Z</time>
      </trkpt>
      <trkpt lat="43.747173026204109" lon="4.256296986714006">
        <ele>12.15</ele>
        <time>2025-05-16T13:51:11Z</time>
      </trkpt>
      <trkpt lat="43.747142013162374" lon="4.256446016952395">
        <ele>11.67</ele>
        <time>2025-05-16T13:51:12Z</time>
      </trkpt>
      <trkpt lat="43.747107982635498" lon="4.256611978635192">
        <ele>11.67</ele>
        <time>2025-05-16T13:51:13Z</time>
      </trkpt>
      <trkpt lat="43.747065989300609" lon="4.256815994158387">
        <ele>11.67</ele>
        <time>2025-05-16T13:51:14Z</time>
      </trkpt>
      <trkpt lat="43.746604984626174" lon="4.258659007027745">
        <ele>12.630000000000001</ele>
        <time>2025-05-16T13:51:23Z</time>
      </trkpt>
      <trkpt lat="43.746719984337687" lon="4.260715004056692">
        <ele>12.630000000000001</ele>
        <time>2025-05-16T13:51:31Z</time>
      </trkpt>
      <trkpt lat="43.74726003035903" lon="4.263410959392786">
        <ele>15.52</ele>
        <time>2025-05-16T13:51:41Z</time>
      </trkpt>
      <trkpt lat="43.748300978913903" lon="4.265930978581309">
        <ele>15.52</ele>
        <time>2025-05-16T13:51:51Z</time>
      </trkpt>
      <trkpt lat="43.74966798350215" lon="4.268127959221602">
        <ele>14.08</ele>
        <time>2025-05-16T13:52:02Z</time>
      </trkpt>
      <trkpt lat="43.751806961372495" lon="4.271237980574369">
        <ele>14.08</ele>
        <time>2025-05-16T13:52:18Z</time>
      </trkpt>
      <trkpt lat="43.752698041498661" lon="4.272542959079146">
        <ele>15.52</ele>
        <time>2025-05-16T13:52:25Z</time>
      </trkpt>
      <trkpt lat="43.754748003557324" lon="4.275571005418897">
        <ele>16.48</ele>
        <time>2025-05-16T13:52:41Z</time>
      </trkpt>
      <trkpt lat="43.75647802837193" lon="4.278126982972026">
        <ele>16.48</ele>
        <time>2025-05-16T13:52:55Z</time>
      </trkpt>
      <trkpt lat="43.757554013282061" lon="4.279341017827392">
        <ele>16</ele>
        <time>2025-05-16T13:53:03Z</time>
      </trkpt>
      <trkpt lat="43.758910959586501" lon="4.279969995841384">
        <ele>15.52</ele>
        <time>2025-05-16T13:53:11Z</time>
      </trkpt>
      <trkpt lat="43.760412996634841" lon="4.279919033870101">
        <ele>15.039999999999999</ele>
        <time>2025-05-16T13:53:19Z</time>
      </trkpt>
      <trkpt lat="43.762822039425373" lon="4.279368007555604">
        <ele>16.960000000000001</ele>
        <time>2025-05-16T13:53:32Z</time>
      </trkpt>
      <trkpt lat="43.765011979267001" lon="4.278837013989687">
        <ele>17.440000000000001</ele>
        <time>2025-05-16T13:53:44Z</time>
      </trkpt>
      <trkpt lat="43.766969991847873" lon="4.278390007093549">
        <ele>17.920000000000002</ele>
        <time>2025-05-16T13:53:56Z</time>
      </trkpt>
      <trkpt lat="43.767404006794095" lon="4.278459995985031">
        <ele>18.399999999999999</ele>
        <time>2025-05-16T13:54:00Z</time>
      </trkpt>
      <trkpt lat="43.767467960715294" lon="4.278494026511908">
        <ele>18.399999999999999</ele>
        <time>2025-05-16T13:54:01Z</time>
      </trkpt>
      <trkpt lat="43.767526969313622" lon="4.278525961562991">
        <ele>18.399999999999999</ele>
        <time>2025-05-16T13:54:02Z</time>
      </trkpt>
      <trkpt lat="43.767514983192086" lon="4.278638027608395">
        <ele>18.879999999999999</ele>
        <time>2025-05-16T13:54:03Z</time>
      </trkpt>
      <trkpt lat="43.767550019547343" lon="4.278720002621412">
        <ele>18.879999999999999</ele>
        <time>2025-05-16T13:54:04Z</time>
      </trkpt>
      <trkpt lat="43.767640963196754" lon="4.278850005939603">
        <ele>18.879999999999999</ele>
        <time>2025-05-16T13:54:05Z</time>
      </trkpt>
      <trkpt lat="43.767764009535313" lon="4.278926029801369">
        <ele>18.879999999999999</ele>
        <time>2025-05-16T13:54:06Z</time>
      </trkpt>
      <trkpt lat="43.767870962619781" lon="4.278932986781001">
        <ele>18.399999999999999</ele>
        <time>2025-05-16T13:54:07Z</time>
      </trkpt>
      <trkpt lat="43.767964001744986" lon="4.278917983174324">
        <ele>18.399999999999999</ele>
        <time>2025-05-16T13:54:08Z</time>
      </trkpt>
      <trkpt lat="43.768072966486216" lon="4.278745986521244">
        <ele>18.399999999999999</ele>
        <time>2025-05-16T13:54:09Z</time>
      </trkpt>
      <trkpt lat="43.768144967034459" lon="4.278745986521244">
        <ele>18.399999999999999</ele>
        <time>2025-05-16T13:54:10Z</time>
      </trkpt>
      <trkpt lat="43.768243035301566" lon="4.278745986521244">
        <ele>18.399999999999999</ele>
        <time>2025-05-16T13:54:11Z</time>
      </trkpt>
      <trkpt lat="43.768335990607738" lon="4.278769958764315">
        <ele>17.920000000000002</ele>
        <time>2025-05-16T13:54:12Z</time>
      </trkpt>
      <trkpt lat="43.768439004197717" lon="4.278807006776333">
        <ele>17.920000000000002</ele>
        <time>2025-05-16T13:54:13Z</time>
      </trkpt>
      <trkpt lat="43.768545035272837" lon="4.278843970969319">
        <ele>18.399999999999999</ele>
        <time>2025-05-16T13:54:14Z</time>
      </trkpt>
      <trkpt lat="43.76865902915597" lon="4.278902979567647">
        <ele>17.920000000000002</ele>
        <time>2025-05-16T13:54:15Z</time>
      </trkpt>
      <trkpt lat="43.769231010228395" lon="4.279474960640073">
        <ele>17.920000000000002</ele>
        <time>2025-05-16T13:54:21Z</time>
      </trkpt>
      <trkpt lat="43.769330000504851" lon="4.279580991715193">
        <ele>18.399999999999999</ele>
        <time>2025-05-16T13:54:22Z</time>
      </trkpt>
      <trkpt lat="43.770386036485434" lon="4.280740041285753">
        <ele>19.84</ele>
        <time>2025-05-16T13:54:32Z</time>
      </trkpt>
      <trkpt lat="43.771823029965162" lon="4.282319024205208">
        <ele>24.170000000000002</ele>
        <time>2025-05-16T13:54:45Z</time>
      </trkpt>
      <trkpt lat="43.772274982184172" lon="4.282820010557771">
        <ele>25.609999999999999</ele>
        <time>2025-05-16T13:54:50Z</time>
      </trkpt>
      <trkpt lat="43.772348994389176" lon="4.282893016934395">
        <ele>25.609999999999999</ele>
        <time>2025-05-16T13:54:51Z</time>
      </trkpt>
      <trkpt lat="43.772918041795492" lon="4.283501962199807">
        <ele>26.09</ele>
        <time>2025-05-16T13:55:00Z</time>
      </trkpt>
      <trkpt lat="43.773024994879961" lon="4.28361201658845">
        <ele>26.09</ele>
        <time>2025-05-16T13:55:06Z</time>
      </trkpt>
      <trkpt lat="43.773078974336386" lon="4.28367898799479">
        <ele>26.09</ele>
        <time>2025-05-16T13:55:17Z</time>
      </trkpt>
      <trkpt lat="43.773501003161073" lon="4.284168994054198">
        <ele>25.609999999999999</ele>
        <time>2025-05-16T13:55:25Z</time>
      </trkpt>
      <trkpt lat="43.77422796562314" lon="4.284962005913258">
        <ele>25.609999999999999</ele>
        <time>2025-05-16T13:55:34Z</time>
      </trkpt>
      <trkpt lat="43.774606995284557" lon="4.2853759881109">
        <ele>25.609999999999999</ele>
        <time>2025-05-16T13:55:38Z</time>
      </trkpt>
      <trkpt lat="43.775831004604697" lon="4.286774005740881">
        <ele>27.050000000000001</ele>
        <time>2025-05-16T13:55:50Z</time>
      </trkpt>
      <trkpt lat="43.777258023619652" lon="4.288345025852323">
        <ele>29.460000000000001</ele>
        <time>2025-05-16T13:56:03Z</time>
      </trkpt>
      <trkpt lat="43.778424030169845" lon="4.28992903791368">
        <ele>29.460000000000001</ele>
        <time>2025-05-16T13:56:14Z</time>
      </trkpt>
      <trkpt lat="43.779139006510377" lon="4.291043998673558">
        <ele>31.379999999999999</ele>
        <time>2025-05-16T13:56:21Z</time>
      </trkpt>
      <trkpt lat="43.780274000018835" lon="4.292763965204358">
        <ele>33.780000000000001</ele>
        <time>2025-05-16T13:56:32Z</time>
      </trkpt>
      <trkpt lat="43.781286031007767" lon="4.29435501806438">
        <ele>33.780000000000001</ele>
        <time>2025-05-16T13:56:42Z</time>
      </trkpt>
      <trkpt lat="43.782270988449454" lon="4.295867029577494">
        <ele>32.82</ele>
        <time>2025-05-16T13:56:52Z</time>
      </trkpt>
      <trkpt lat="43.782852021977305" lon="4.296949971467257">
        <ele>29.940000000000001</ele>
        <time>2025-05-16T13:56:59Z</time>
      </trkpt>
      <trkpt lat="43.782914970070124" lon="4.297094978392124">
        <ele>29.940000000000001</ele>
        <time>2025-05-16T13:57:00Z</time>
      </trkpt>
      <trkpt lat="43.783258041366935" lon="4.298257967457175">
        <ele>28.5</ele>
        <time>2025-05-16T13:57:09Z</time>
      </trkpt>
      <trkpt lat="43.783274972811341" lon="4.298355029895902">
        <ele>28.5</ele>
        <time>2025-05-16T13:57:10Z</time>
      </trkpt>
      <trkpt lat="43.783290982246399" lon="4.298441028222442">
        <ele>28.5</ele>
        <time>2025-05-16T13:57:11Z</time>
      </trkpt>
      <trkpt lat="43.783302968367934" lon="4.298511017113924">
        <ele>28.5</ele>
        <time>2025-05-16T13:57:12Z</time>
      </trkpt>
      <trkpt lat="43.783314032480121" lon="4.298572959378362">
        <ele>28.5</ele>
        <time>2025-05-16T13:57:13Z</time>
      </trkpt>
      <trkpt lat="43.783329036086798" lon="4.298658035695553">
        <ele>28.5</ele>
        <time>2025-05-16T13:57:14Z</time>
      </trkpt>
      <trkpt lat="43.783278996124864" lon="4.298790972679853">
        <ele>28.98</ele>
        <time>2025-05-16T13:57:15Z</time>
      </trkpt>
      <trkpt lat="43.783226022496819" lon="4.298840006813407">
        <ele>28.98</ele>
        <time>2025-05-16T13:57:16Z</time>
      </trkpt>
      <trkpt lat="43.783168019726872" lon="4.298892980441451">
        <ele>28.98</ele>
        <time>2025-05-16T13:57:17Z</time>
      </trkpt>
      <trkpt lat="43.783105993643403" lon="4.298950983211398">
        <ele>29.460000000000001</ele>
        <time>2025-05-16T13:57:18Z</time>
      </trkpt>
      <trkpt lat="43.783041033893824" lon="4.299012003466487">
        <ele>29.460000000000001</ele>
        <time>2025-05-16T13:57:19Z</time>
      </trkpt>
      <trkpt lat="43.78296903334558" lon="4.299063971266151">
        <ele>28.98</ele>
        <time>2025-05-16T13:57:20Z</time>
      </trkpt>
      <trkpt lat="43.782717995345592" lon="4.29923496209085">
        <ele>27.530000000000001</ele>
        <time>2025-05-16T13:57:24Z</time>
      </trkpt>
      <trkpt lat="43.782682036980987" lon="4.299260023981333">
        <ele>27.050000000000001</ele>
        <time>2025-05-16T13:57:25Z</time>
      </trkpt>
      <trkpt lat="43.782608024775982" lon="4.299309980124235">
        <ele>26.57</ele>
        <time>2025-05-16T13:57:28Z</time>
      </trkpt>
      <trkpt lat="43.78258396871388" lon="4.299325989559293">
        <ele>26.57</ele>
        <time>2025-05-16T13:57:29Z</time>
      </trkpt>
      <trkpt lat="43.782556978985667" lon="4.299345016479492">
        <ele>26.09</ele>
        <time>2025-05-16T13:57:30Z</time>
      </trkpt>
      <trkpt lat="43.782566031441092" lon="4.299364965409041">
        <ele>25.609999999999999</ele>
        <time>2025-05-16T13:57:31Z</time>
      </trkpt>
      <trkpt lat="43.78258103504777" lon="4.299392960965633">
        <ele>25.129999999999999</ele>
        <time>2025-05-16T13:57:32Z</time>
      </trkpt>
      <trkpt lat="43.782592015340924" lon="4.299416011199355">
        <ele>24.649999999999999</ele>
        <time>2025-05-16T13:57:33Z</time>
      </trkpt>
      <trkpt lat="43.782592015340924" lon="4.299416011199355">
        <ele>24.170000000000002</ele>
        <time>2025-05-16T13:57:42Z</time>
      </trkpt>
      <trkpt lat="43.782592015340924" lon="4.299416011199355">
        <ele>23.690000000000001</ele>
        <time>2025-05-16T13:58:25Z</time>
      </trkpt>
      <trkpt lat="43.782592015340924" lon="4.299416011199355">
        <ele>23.210000000000001</ele>
        <time>2025-05-16T13:59:05Z</time>
      </trkpt>
      <trkpt lat="43.782592015340924" lon="4.299416011199355">
        <ele>23.210000000000001</ele>
        <time>2025-05-16T13:59:55Z</time>
      </trkpt>
      <trkpt lat="43.782539963722229" lon="4.2995569948107">
        <ele>26.09</ele>
        <time>2025-05-16T14:05:19Z</time>
      </trkpt>
      <trkpt lat="43.78258396871388" lon="4.299468984827399">
        <ele>27.050000000000001</ele>
        <time>2025-05-16T14:05:34Z</time>
      </trkpt>
      <trkpt lat="43.782590003684163" lon="4.299322972074151">
        <ele>26.09</ele>
        <time>2025-05-16T14:05:38Z</time>
      </trkpt>
      <trkpt lat="43.782609030604362" lon="4.299308974295855">
        <ele>25.609999999999999</ele>
        <time>2025-05-16T14:05:39Z</time>
      </trkpt>
      <trkpt lat="43.782639959827065" lon="4.299289025366306">
        <ele>25.609999999999999</ele>
        <time>2025-05-16T14:05:40Z</time>
      </trkpt>
      <trkpt lat="43.782683964818716" lon="4.299258012324572">
        <ele>25.609999999999999</ele>
        <time>2025-05-16T14:05:41Z</time>
      </trkpt>
      <trkpt lat="43.782740961760283" lon="4.299219036474824">
        <ele>25.129999999999999</ele>
        <time>2025-05-16T14:05:42Z</time>
      </trkpt>
      <trkpt lat="43.783131977543235" lon="4.298927010968328">
        <ele>25.609999999999999</ele>
        <time>2025-05-16T14:05:47Z</time>
      </trkpt>
      <trkpt lat="43.783174976706505" lon="4.298887029290199">
        <ele>25.609999999999999</ele>
        <time>2025-05-16T14:05:49Z</time>
      </trkpt>
      <trkpt lat="43.783219987526536" lon="4.298846041783691">
        <ele>25.129999999999999</ele>
        <time>2025-05-16T14:05:58Z</time>
      </trkpt>
      <trkpt lat="43.783350996673107" lon="4.298851992934942">
        <ele>25.129999999999999</ele>
        <time>2025-05-16T14:06:04Z</time>
      </trkpt>
      <trkpt lat="43.783350996673107" lon="4.298851992934942">
        <ele>25.609999999999999</ele>
        <time>2025-05-16T14:06:05Z</time>
      </trkpt>
      <trkpt lat="43.783350996673107" lon="4.298851992934942">
        <ele>25.609999999999999</ele>
        <time>2025-05-16T14:06:06Z</time>
      </trkpt>
      <trkpt lat="43.78333498723805" lon="4.298994988203049">
        <ele>25.609999999999999</ele>
        <time>2025-05-16T14:06:07Z</time>
      </trkpt>
      <trkpt lat="43.783325012773275" lon="4.299081992357969">
        <ele>26.09</ele>
        <time>2025-05-16T14:06:08Z</time>
      </trkpt>
      <trkpt lat="43.783296011388302" lon="4.299337975680828">
        <ele>26.09</ele>
        <time>2025-05-16T14:06:09Z</time>
      </trkpt>
      <trkpt lat="43.783278996124864" lon="4.299494968727231">
        <ele>26.09</ele>
        <time>2025-05-16T14:06:10Z</time>
      </trkpt>
      <trkpt lat="43.78305796533823" lon="4.300721995532513">
        <ele>26.09</ele>
        <time>2025-05-16T14:06:16Z</time>
      </trkpt>
      <trkpt lat="43.782468969002366" lon="4.30338098667562">
        <ele>26.57</ele>
        <time>2025-05-16T14:06:26Z</time>
      </trkpt>
      <trkpt lat="43.781877039000392" lon="4.30670902132988">
        <ele>25.609999999999999</ele>
        <time>2025-05-16T14:06:38Z</time>
      </trkpt>
      <trkpt lat="43.781986003741622" lon="4.308630991727114">
        <ele>25.609999999999999</ele>
        <time>2025-05-16T14:06:45Z</time>
      </trkpt>
      <trkpt lat="43.782633002847433" lon="4.310655975714326">
        <ele>25.129999999999999</ele>
        <time>2025-05-16T14:06:53Z</time>
      </trkpt>
      <trkpt lat="43.783831028267741" lon="4.312537964433432">
        <ele>23.690000000000001</ele>
        <time>2025-05-16T14:07:03Z</time>
      </trkpt>
      <trkpt lat="43.786749020218849" lon="4.31601301766932">
        <ele>25.129999999999999</ele>
        <time>2025-05-16T14:07:21Z</time>
      </trkpt>
      <trkpt lat="43.788861008360982" lon="4.318166999146342">
        <ele>26.09</ele>
        <time>2025-05-16T14:07:34Z</time>
      </trkpt>
      <trkpt lat="43.790564965456724" lon="4.319045003503561">
        <ele>27.050000000000001</ele>
        <time>2025-05-16T14:07:44Z</time>
      </trkpt>
      <trkpt lat="43.792561031877995" lon="4.319221023470163">
        <ele>28.02</ele>
        <time>2025-05-16T14:07:53Z</time>
      </trkpt>
      <trkpt lat="43.793953014537692" lon="4.318851968273521">
        <ele>30.899999999999999</ele>
        <time>2025-05-16T14:08:01Z</time>
      </trkpt>
      <trkpt lat="43.796241022646427" lon="4.317777995020151">
        <ele>31.379999999999999</ele>
        <time>2025-05-16T14:08:13Z</time>
      </trkpt>
      <trkpt lat="43.798228036612272" lon="4.317338028922677">
        <ele>32.82</ele>
        <time>2025-05-16T14:08:22Z</time>
      </trkpt>
      <trkpt lat="43.799478029832244" lon="4.317446993663907">
        <ele>34.259999999999998</ele>
        <time>2025-05-16T14:08:30Z</time>
      </trkpt>
      <trkpt lat="43.799576014280319" lon="4.317484963685274">
        <ele>34.259999999999998</ele>
        <time>2025-05-16T14:08:31Z</time>
      </trkpt>
      <trkpt lat="43.799652960151434" lon="4.317513965070248">
        <ele>34.259999999999998</ele>
        <time>2025-05-16T14:08:32Z</time>
      </trkpt>
      <trkpt lat="43.79977198317647" lon="4.317648997530341">
        <ele>34.740000000000002</ele>
        <time>2025-05-16T14:08:34Z</time>
      </trkpt>
      <trkpt lat="43.799850018694997" lon="4.317786963656545">
        <ele>34.740000000000002</ele>
        <time>2025-05-16T14:08:35Z</time>
      </trkpt>
      <trkpt lat="43.79994498565793" lon="4.317834991961718">
        <ele>34.740000000000002</ele>
        <time>2025-05-16T14:08:36Z</time>
      </trkpt>
      <trkpt lat="43.800175990909338" lon="4.317792998626828">
        <ele>35.229999999999997</ele>
        <time>2025-05-16T14:08:37Z</time>
      </trkpt>
      <trkpt lat="43.800341030582786" lon="4.317771038040519">
        <ele>35.229999999999997</ele>
        <time>2025-05-16T14:08:39Z</time>
      </trkpt>
      <trkpt lat="43.800477990880609" lon="4.317833986133337">
        <ele>35.229999999999997</ele>
        <time>2025-05-16T14:08:40Z</time>
      </trkpt>
      <trkpt lat="43.80063196644187" lon="4.3179049808532">
        <ele>35.229999999999997</ele>
        <time>2025-05-16T14:08:41Z</time>
      </trkpt>
      <trkpt lat="43.800796000286937" lon="4.317979998886585">
        <ele>35.229999999999997</ele>
        <time>2025-05-16T14:08:42Z</time>
      </trkpt>
      <trkpt lat="43.801924036815763" lon="4.318863032385707">
        <ele>35.710000000000001</ele>
        <time>2025-05-16T14:08:49Z</time>
      </trkpt>
      <trkpt lat="43.803409980610013" lon="4.320348976179957">
        <ele>34.740000000000002</ele>
        <time>2025-05-16T14:08:59Z</time>
      </trkpt>
      <trkpt lat="43.804896008223295" lon="4.321788987144828">
        <ele>36.670000000000002</ele>
        <time>2025-05-16T14:09:09Z</time>
      </trkpt>
      <trkpt lat="43.805971993133426" lon="4.32301601395011">
        <ele>37.630000000000003</ele>
        <time>2025-05-16T14:09:19Z</time>
      </trkpt>
      <trkpt lat="43.807530021294951" lon="4.325182987377048">
        <ele>39.07</ele>
        <time>2025-05-16T14:09:37Z</time>
      </trkpt>
      <trkpt lat="43.80907597951591" lon="4.327390026301146">
        <ele>38.109999999999999</ele>
        <time>2025-05-16T14:09:55Z</time>
      </trkpt>
      <trkpt lat="43.809937974438071" lon="4.328586962074041">
        <ele>37.630000000000003</ele>
        <time>2025-05-16T14:10:04Z</time>
      </trkpt>
      <trkpt lat="43.810339970514178" lon="4.329136982560158">
        <ele>39.07</ele>
        <time>2025-05-16T14:10:11Z</time>
      </trkpt>
      <trkpt lat="43.810803992673755" lon="4.329789010807872">
        <ele>39.07</ele>
        <time>2025-05-16T14:10:19Z</time>
      </trkpt>
      <trkpt lat="43.811017982661724" lon="4.330082964152098">
        <ele>38.109999999999999</ele>
        <time>2025-05-16T14:10:27Z</time>
      </trkpt>
      <trkpt lat="43.811123007908463" lon="4.330207016319037">
        <ele>38.109999999999999</ele>
        <time>2025-05-16T14:10:53Z</time>
      </trkpt>
      <trkpt lat="43.811614019796252" lon="4.330906989052892">
        <ele>37.630000000000003</ele>
        <time>2025-05-16T14:11:00Z</time>
      </trkpt>
      <trkpt lat="43.812568970024586" lon="4.332218002527952">
        <ele>38.590000000000003</ele>
        <time>2025-05-16T14:11:11Z</time>
      </trkpt>
      <trkpt lat="43.812816990539432" lon="4.332554033026099">
        <ele>39.07</ele>
        <time>2025-05-16T14:11:16Z</time>
      </trkpt>
      <trkpt lat="43.812850015237927" lon="4.332598960027099">
        <ele>38.590000000000003</ele>
        <time>2025-05-16T14:11:17Z</time>
      </trkpt>
      <trkpt lat="43.813246982172132" lon="4.33316096663475">
        <ele>39.07</ele>
        <time>2025-05-16T14:11:30Z</time>
      </trkpt>
      <trkpt lat="43.813367011025548" lon="4.333332041278482">
        <ele>37.630000000000003</ele>
        <time>2025-05-16T14:11:41Z</time>
      </trkpt>
      <trkpt lat="43.813633974641562" lon="4.333700006827712">
        <ele>37.630000000000003</ele>
        <time>2025-05-16T14:11:54Z</time>
      </trkpt>
      <trkpt lat="43.81386598572135" lon="4.334176015108824">
        <ele>38.109999999999999</ele>
        <time>2025-05-16T14:12:05Z</time>
      </trkpt>
      <trkpt lat="43.813885012641549" lon="4.334658980369568">
        <ele>39.549999999999997</ele>
        <time>2025-05-16T14:12:15Z</time>
      </trkpt>
      <trkpt lat="43.813842013478279" lon="4.334750007838011">
        <ele>39.549999999999997</ele>
        <time>2025-05-16T14:12:16Z</time>
      </trkpt>
      <trkpt lat="43.813847964629531" lon="4.334787977859378">
        <ele>40.030000000000001</ele>
        <time>2025-05-16T14:12:18Z</time>
      </trkpt>
      <trkpt lat="43.813852993771434" lon="4.334821002557874">
        <ele>40.030000000000001</ele>
        <time>2025-05-16T14:12:19Z</time>
      </trkpt>
      <trkpt lat="43.813990959897637" lon="4.335124008357525">
        <ele>38.109999999999999</ele>
        <time>2025-05-16T14:12:31Z</time>
      </trkpt>
      <trkpt lat="43.814077964052558" lon="4.335201038047671">
        <ele>37.630000000000003</ele>
        <time>2025-05-16T14:12:34Z</time>
      </trkpt>
      <trkpt lat="43.814122974872589" lon="4.335300028324127">
        <ele>37.630000000000003</ele>
        <time>2025-05-16T14:12:35Z</time>
      </trkpt>
      <trkpt lat="43.814164968207479" lon="4.335389966145158">
        <ele>37.630000000000003</ele>
        <time>2025-05-16T14:12:36Z</time>
      </trkpt>
      <trkpt lat="43.814637959003448" lon="4.336645994335413">
        <ele>39.07</ele>
        <time>2025-05-16T14:12:46Z</time>
      </trkpt>
      <trkpt lat="43.81494197063148" lon="4.338038982823491">
        <ele>40.509999999999998</ele>
        <time>2025-05-16T14:12:55Z</time>
      </trkpt>
      <trkpt lat="43.815083038061857" lon="4.338695034384728">
        <ele>40.990000000000002</ele>
        <time>2025-05-16T14:13:03Z</time>
      </trkpt>
      <trkpt lat="43.815136011689901" lon="4.33896099217236">
        <ele>42.439999999999998</ele>
        <time>2025-05-16T14:13:14Z</time>
      </trkpt>
      <trkpt lat="43.815189991146326" lon="4.339319989085197">
        <ele>42.439999999999998</ele>
        <time>2025-05-16T14:13:27Z</time>
      </trkpt>
      <trkpt lat="43.815228966996074" lon="4.339565997943282">
        <ele>42.439999999999998</ele>
        <time>2025-05-16T14:13:36Z</time>
      </trkpt>
      <trkpt lat="43.815250005573034" lon="4.339705975726247">
        <ele>41.950000000000003</ele>
        <time>2025-05-16T14:13:49Z</time>
      </trkpt>
      <trkpt lat="43.815280012786388" lon="4.339909991249442">
        <ele>42.439999999999998</ele>
        <time>2025-05-16T14:13:59Z</time>
      </trkpt>
      <trkpt lat="43.815328041091561" lon="4.340341994538903">
        <ele>42.920000000000002</ele>
        <time>2025-05-16T14:14:11Z</time>
      </trkpt>
      <trkpt lat="43.815343966707587" lon="4.340500999242067">
        <ele>42.920000000000002</ele>
        <time>2025-05-16T14:14:17Z</time>
      </trkpt>
      <trkpt lat="43.815246988087893" lon="4.340671990066767">
        <ele>42.920000000000002</ele>
        <time>2025-05-16T14:14:20Z</time>
      </trkpt>
      <trkpt lat="43.815221004188061" lon="4.340768968686461">
        <ele>42.920000000000002</ele>
        <time>2025-05-16T14:14:21Z</time>
      </trkpt>
      <trkpt lat="43.815193008631468" lon="4.340873993933201">
        <ele>42.920000000000002</ele>
        <time>2025-05-16T14:14:22Z</time>
      </trkpt>
      <trkpt lat="43.815179010853171" lon="4.34097901917994">
        <ele>42.920000000000002</ele>
        <time>2025-05-16T14:14:24Z</time>
      </trkpt>
      <trkpt lat="43.815228966996074" lon="4.341199966147542">
        <ele>42.439999999999998</ele>
        <time>2025-05-16T14:14:26Z</time>
      </trkpt>
      <trkpt lat="43.815293004736304" lon="4.341286970302463">
        <ele>42.439999999999998</ele>
        <time>2025-05-16T14:14:27Z</time>
      </trkpt>
      <trkpt lat="43.815451003611088" lon="4.341444969177246">
        <ele>41.950000000000003</ele>
        <time>2025-05-16T14:14:28Z</time>
      </trkpt>
      <trkpt lat="43.815542031079531" lon="4.3414749763906">
        <ele>41.950000000000003</ele>
        <time>2025-05-16T14:14:29Z</time>
      </trkpt>
      <trkpt lat="43.815638003870845" lon="4.34153700247407">
        <ele>41.469999999999999</ele>
        <time>2025-05-16T14:14:31Z</time>
      </trkpt>
      <trkpt lat="43.815729031339288" lon="4.341615037992597">
        <ele>40.990000000000002</ele>
        <time>2025-05-16T14:14:32Z</time>
      </trkpt>
      <trkpt lat="43.815787034109235" lon="4.341711010783911">
        <ele>40.990000000000002</ele>
        <time>2025-05-16T14:14:33Z</time>
      </trkpt>
      <trkpt lat="43.815855011343956" lon="4.341823998838663">
        <ele>40.990000000000002</ele>
        <time>2025-05-16T14:14:34Z</time>
      </trkpt>
      <trkpt lat="43.815947966650128" lon="4.342135973274708">
        <ele>40.990000000000002</ele>
        <time>2025-05-16T14:14:36Z</time>
      </trkpt>
      <trkpt lat="43.816002029925585" lon="4.342324985191226">
        <ele>40.990000000000002</ele>
        <time>2025-05-16T14:14:37Z</time>
      </trkpt>
      <trkpt lat="43.816478038206697" lon="4.343899022787809">
        <ele>40.509999999999998</ele>
        <time>2025-05-16T14:14:45Z</time>
      </trkpt>
      <trkpt lat="43.81665900349617" lon="4.344483995810151">
        <ele>40.030000000000001</ele>
        <time>2025-05-16T14:14:48Z</time>
      </trkpt>
      <trkpt lat="43.816719017922878" lon="4.344676025211811">
        <ele>39.549999999999997</ele>
        <time>2025-05-16T14:14:49Z</time>
      </trkpt>
      <trkpt lat="43.816781966015697" lon="4.344878029078245">
        <ele>39.07</ele>
        <time>2025-05-16T14:14:50Z</time>
      </trkpt>
      <trkpt lat="43.817486967891455" lon="4.34686697088182">
        <ele>36.670000000000002</ele>
        <time>2025-05-16T14:15:00Z</time>
      </trkpt>
      <trkpt lat="43.817538013681769" lon="4.347010971978307">
        <ele>36.670000000000002</ele>
        <time>2025-05-16T14:15:01Z</time>
      </trkpt>
      <trkpt lat="43.817583024501801" lon="4.347138041630387">
        <ele>36.670000000000002</ele>
        <time>2025-05-16T14:15:03Z</time>
      </trkpt>
      <trkpt lat="43.817597022280097" lon="4.347302997484803">
        <ele>37.149999999999999</ele>
        <time>2025-05-16T14:15:04Z</time>
      </trkpt>
      <trkpt lat="43.817571038380265" lon="4.347592005506158">
        <ele>37.149999999999999</ele>
        <time>2025-05-16T14:15:07Z</time>
      </trkpt>
      <trkpt lat="43.817610014230013" lon="4.347664006054401">
        <ele>37.149999999999999</ele>
        <time>2025-05-16T14:15:08Z</time>
      </trkpt>
      <trkpt lat="43.817700035870075" lon="4.347831979393959">
        <ele>37.149999999999999</ele>
        <time>2025-05-16T14:15:09Z</time>
      </trkpt>
      <trkpt lat="43.817870020866394" lon="4.347977992147207">
        <ele>37.630000000000003</ele>
        <time>2025-05-16T14:15:12Z</time>
      </trkpt>
      <trkpt lat="43.817932968959212" lon="4.348103972151876">
        <ele>37.630000000000003</ele>
        <time>2025-05-16T14:15:13Z</time>
      </trkpt>
      <trkpt lat="43.818000024184585" lon="4.348246967419982">
        <ele>37.630000000000003</ele>
        <time>2025-05-16T14:15:14Z</time>
      </trkpt>
      <trkpt lat="43.818604024127126" lon="4.350195005536079">
        <ele>38.109999999999999</ele>
        <time>2025-05-16T14:15:25Z</time>
      </trkpt>
      <trkpt lat="43.818934019654989" lon="4.351478023454547">
        <ele>38.590000000000003</ele>
        <time>2025-05-16T14:15:33Z</time>
      </trkpt>
      <trkpt lat="43.819005014374852" lon="4.351780023425818">
        <ele>38.590000000000003</ele>
        <time>2025-05-16T14:15:36Z</time>
      </trkpt>
      <trkpt lat="43.819018006324768" lon="4.351840037852526">
        <ele>39.07</ele>
        <time>2025-05-16T14:15:38Z</time>
      </trkpt>
      <trkpt lat="43.819061005488038" lon="4.352029971778393">
        <ele>39.549999999999997</ele>
        <time>2025-05-16T14:15:43Z</time>
      </trkpt>
      <trkpt lat="43.819012977182865" lon="4.35232400894165">
        <ele>39.549999999999997</ele>
        <time>2025-05-16T14:15:45Z</time>
      </trkpt>
      <trkpt lat="43.819011971354485" lon="4.352330965921283">
        <ele>40.030000000000001</ele>
        <time>2025-05-16T14:15:46Z</time>
      </trkpt>
      <trkpt lat="43.818998979404569" lon="4.352441020309925">
        <ele>40.030000000000001</ele>
        <time>2025-05-16T14:15:47Z</time>
      </trkpt>
      <trkpt lat="43.819017000496387" lon="4.352555014193058">
        <ele>40.030000000000001</ele>
        <time>2025-05-16T14:15:48Z</time>
      </trkpt>
      <trkpt lat="43.819055976346135" lon="4.35264503583312">
        <ele>40.030000000000001</ele>
        <time>2025-05-16T14:15:49Z</time>
      </trkpt>
      <trkpt lat="43.819122025743127" lon="4.352701026946306">
        <ele>40.030000000000001</ele>
        <time>2025-05-16T14:15:50Z</time>
      </trkpt>
      <trkpt lat="43.81919302046299" lon="4.35281996615231">
        <ele>40.030000000000001</ele>
        <time>2025-05-16T14:15:51Z</time>
      </trkpt>
      <trkpt lat="43.819208024069667" lon="4.352948041632772">
        <ele>40.030000000000001</ele>
        <time>2025-05-16T14:15:52Z</time>
      </trkpt>
      <trkpt lat="43.819225039333105" lon="4.353098999708891">
        <ele>39.549999999999997</ele>
        <time>2025-05-16T14:15:53Z</time>
      </trkpt>
      <trkpt lat="43.819244988262653" lon="4.353262027725577">
        <ele>40.030000000000001</ele>
        <time>2025-05-16T14:15:54Z</time>
      </trkpt>
      <trkpt lat="43.819574983790517" lon="4.355641985312104">
        <ele>40.030000000000001</ele>
        <time>2025-05-16T14:16:06Z</time>
      </trkpt>
      <trkpt lat="43.819819986820221" lon="4.357245024293661">
        <ele>39.549999999999997</ele>
        <time>2025-05-16T14:16:17Z</time>
      </trkpt>
      <trkpt lat="43.819863991811872" lon="4.357531014829874">
        <ele>40.030000000000001</ele>
        <time>2025-05-16T14:16:24Z</time>
      </trkpt>
      <trkpt lat="43.819871032610536" lon="4.357580970972776">
        <ele>40.030000000000001</ele>
        <time>2025-05-16T14:16:32Z</time>
      </trkpt>
      <trkpt lat="43.819871032610536" lon="4.357634028419852">
        <ele>40.509999999999998</ele>
        <time>2025-05-16T14:16:33Z</time>
      </trkpt>
      <trkpt lat="43.819845970720053" lon="4.357751961797476">
        <ele>40.509999999999998</ele>
        <time>2025-05-16T14:16:34Z</time>
      </trkpt>
      <trkpt lat="43.819799032062292" lon="4.357829997316003">
        <ele>40.509999999999998</ele>
        <time>2025-05-16T14:16:35Z</time>
      </trkpt>
      <trkpt lat="43.819748992100358" lon="4.357912978157401">
        <ele>40.509999999999998</ele>
        <time>2025-05-16T14:16:36Z</time>
      </trkpt>
      <trkpt lat="43.8197329826653" lon="4.358012974262238">
        <ele>40.509999999999998</ele>
        <time>2025-05-16T14:16:37Z</time>
      </trkpt>
      <trkpt lat="43.819722002372146" lon="4.358120011165738">
        <ele>40.509999999999998</ele>
        <time>2025-05-16T14:16:38Z</time>
      </trkpt>
      <trkpt lat="43.819778999313712" lon="4.358329977840185">
        <ele>40.509999999999998</ele>
        <time>2025-05-16T14:16:39Z</time>
      </trkpt>
      <trkpt lat="43.819778999313712" lon="4.358329977840185">
        <ele>40.509999999999998</ele>
        <time>2025-05-16T14:16:40Z</time>
      </trkpt>
      <trkpt lat="43.819843959063292" lon="4.358412036672235">
        <ele>40.030000000000001</ele>
        <time>2025-05-16T14:16:41Z</time>
      </trkpt>
      <trkpt lat="43.819918977096677" lon="4.358486970886588">
        <ele>39.549999999999997</ele>
        <time>2025-05-16T14:16:42Z</time>
      </trkpt>
      <trkpt lat="43.820001035928726" lon="4.358526030555368">
        <ele>39.07</ele>
        <time>2025-05-16T14:16:43Z</time>
      </trkpt>
      <trkpt lat="43.820094997063279" lon="4.35866299085319">
        <ele>39.07</ele>
        <time>2025-05-16T14:16:44Z</time>
      </trkpt>
      <trkpt lat="43.820130033418536" lon="4.358797017484903">
        <ele>39.07</ele>
        <time>2025-05-16T14:16:45Z</time>
      </trkpt>
      <trkpt lat="43.820587014779449" lon="4.360655033960939">
        <ele>40.990000000000002</ele>
        <time>2025-05-16T14:16:54Z</time>
      </trkpt>
      <trkpt lat="43.821270978078246" lon="4.363138005137444">
        <ele>42.439999999999998</ele>
        <time>2025-05-16T14:17:08Z</time>
      </trkpt>
      <trkpt lat="43.821597034111619" lon="4.364132015034556">
        <ele>42.439999999999998</ele>
        <time>2025-05-16T14:17:14Z</time>
      </trkpt>
      <trkpt lat="43.821760984137654" lon="4.364623026922345">
        <ele>42.439999999999998</ele>
        <time>2025-05-16T14:17:22Z</time>
      </trkpt>
      <trkpt lat="43.821786968037486" lon="4.36469997279346">
        <ele>42.920000000000002</ele>
        <time>2025-05-16T14:17:33Z</time>
      </trkpt>
      <trkpt lat="43.821814963594079" lon="4.364840034395456">
        <ele>43.880000000000003</ele>
        <time>2025-05-16T14:17:38Z</time>
      </trkpt>
      <trkpt lat="43.821791997179389" lon="4.365001972764731">
        <ele>43.399999999999999</ele>
        <time>2025-05-16T14:17:41Z</time>
      </trkpt>
      <trkpt lat="43.821809012442827" lon="4.365096017718315">
        <ele>43.399999999999999</ele>
        <time>2025-05-16T14:17:42Z</time>
      </trkpt>
      <trkpt lat="43.82183700799942" lon="4.365187967196107">
        <ele>43.399999999999999</ele>
        <time>2025-05-16T14:17:43Z</time>
      </trkpt>
      <trkpt lat="43.821903979405761" lon="4.365243958309293">
        <ele>42.920000000000002</ele>
        <time>2025-05-16T14:17:44Z</time>
      </trkpt>
      <trkpt lat="43.821953013539314" lon="4.365284023806453">
        <ele>41.950000000000003</ele>
        <time>2025-05-16T14:17:45Z</time>
      </trkpt>
      <trkpt lat="43.822091985493898" lon="4.365346971899271">
        <ele>41.469999999999999</ele>
        <time>2025-05-16T14:17:46Z</time>
      </trkpt>
      <trkpt lat="43.822141019627452" lon="4.365459959954023">
        <ele>41.469999999999999</ele>
        <time>2025-05-16T14:17:47Z</time>
      </trkpt>
      <trkpt lat="43.8221799954772" lon="4.365552999079227">
        <ele>41.469999999999999</ele>
        <time>2025-05-16T14:17:48Z</time>
      </trkpt>
      <trkpt lat="43.822369007393718" lon="4.365975027903915">
        <ele>40.990000000000002</ele>
        <time>2025-05-16T14:17:57Z</time>
      </trkpt>
      <trkpt lat="43.822582997381687" lon="4.366420023143292">
        <ele>42.439999999999998</ele>
        <time>2025-05-16T14:18:06Z</time>
      </trkpt>
      <trkpt lat="43.822649968788028" lon="4.366970965638757">
        <ele>43.880000000000003</ele>
        <time>2025-05-16T14:18:15Z</time>
      </trkpt>
      <trkpt lat="43.82267402485013" lon="4.367015976458788">
        <ele>45.32</ele>
        <time>2025-05-16T14:18:18Z</time>
      </trkpt>
      <trkpt lat="43.822948029264808" lon="4.367167018353939">
        <ele>46.280000000000001</ele>
        <time>2025-05-16T14:18:33Z</time>
      </trkpt>
      <trkpt lat="43.823098987340927" lon="4.367478992789984">
        <ele>45.799999999999997</ele>
        <time>2025-05-16T14:18:42Z</time>
      </trkpt>
      <trkpt lat="43.823227984830737" lon="4.3677509855479">
        <ele>45.799999999999997</ele>
        <time>2025-05-16T14:18:51Z</time>
      </trkpt>
      <trkpt lat="43.823350025340915" lon="4.368018032982945">
        <ele>46.759999999999998</ele>
        <time>2025-05-16T14:19:00Z</time>
      </trkpt>
      <trkpt lat="43.823467036709189" lon="4.368546009063721">
        <ele>52.049999999999997</ele>
        <time>2025-05-16T14:19:09Z</time>
      </trkpt>
      <trkpt lat="43.823648001998663" lon="4.3688889965415">
        <ele>55.890000000000001</ele>
        <time>2025-05-16T14:19:19Z</time>
      </trkpt>
      <trkpt lat="43.823905996978283" lon="4.369213040918112">
        <ele>56.859999999999999</ele>
        <time>2025-05-16T14:19:33Z</time>
      </trkpt>
      <trkpt lat="43.824036000296474" lon="4.369512023404241">
        <ele>56.859999999999999</ele>
        <time>2025-05-16T14:19:42Z</time>
      </trkpt>
      <trkpt lat="43.824039017781615" lon="4.369549993425608">
        <ele>56.369999999999997</ele>
        <time>2025-05-16T14:19:45Z</time>
      </trkpt>
      <trkpt lat="43.824054021388292" lon="4.369746968150139">
        <ele>55.890000000000001</ele>
        <time>2025-05-16T14:19:48Z</time>
      </trkpt>
      <trkpt lat="43.824141025543213" lon="4.369864985346794">
        <ele>55.409999999999997</ele>
        <time>2025-05-16T14:19:50Z</time>
      </trkpt>
      <trkpt lat="43.824227023869753" lon="4.369961963966489">
        <ele>54.93</ele>
        <time>2025-05-16T14:19:52Z</time>
      </trkpt>
      <trkpt lat="43.824227023869753" lon="4.369961963966489">
        <ele>54.450000000000003</ele>
        <time>2025-05-16T14:19:53Z</time>
      </trkpt>
      <trkpt lat="43.824240015819669" lon="4.369961963966489">
        <ele>53.969999999999999</ele>
        <time>2025-05-16T14:19:55Z</time>
      </trkpt>
      <trkpt lat="43.824296006932855" lon="4.369961963966489">
        <ele>53.009999999999998</ele>
        <time>2025-05-16T14:19:58Z</time>
      </trkpt>
      <trkpt lat="43.824490970000625" lon="4.370193975046277">
        <ele>52.530000000000001</ele>
        <time>2025-05-16T14:20:01Z</time>
      </trkpt>
      <trkpt lat="43.824546961113811" lon="4.370276033878326">
        <ele>52.530000000000001</ele>
        <time>2025-05-16T14:20:03Z</time>
      </trkpt>
      <trkpt lat="43.825263027101755" lon="4.371288986876607">
        <ele>53.009999999999998</ele>
        <time>2025-05-16T14:20:15Z</time>
      </trkpt>
      <trkpt lat="43.825384983792901" lon="4.371456038206816">
        <ele>52.530000000000001</ele>
        <time>2025-05-16T14:20:18Z</time>
      </trkpt>
      <trkpt lat="43.825815981253982" lon="4.372183000668883">
        <ele>49.649999999999999</ele>
        <time>2025-05-16T14:20:31Z</time>
      </trkpt>
      <trkpt lat="43.825916983187199" lon="4.372352985665202">
        <ele>49.159999999999997</ele>
        <time>2025-05-16T14:20:33Z</time>
      </trkpt>
      <trkpt lat="43.82596199400723" lon="4.372428003698587">
        <ele>49.159999999999997</ele>
        <time>2025-05-16T14:20:34Z</time>
      </trkpt>
      <trkpt lat="43.826484018936753" lon="4.373320005834103">
        <ele>52.530000000000001</ele>
        <time>2025-05-16T14:20:45Z</time>
      </trkpt>
      <trkpt lat="43.826705971732736" lon="4.373685037717223">
        <ele>53.969999999999999</ele>
        <time>2025-05-16T14:20:50Z</time>
      </trkpt>
      <trkpt lat="43.826804962009192" lon="4.373847981914878">
        <ele>55.409999999999997</ele>
        <time>2025-05-16T14:20:52Z</time>
      </trkpt>
      <trkpt lat="43.826976958662271" lon="4.374131038784981">
        <ele>55.890000000000001</ele>
        <time>2025-05-16T14:20:55Z</time>
      </trkpt>
      <trkpt lat="43.827107967808843" lon="4.374370006844401">
        <ele>56.859999999999999</ele>
        <time>2025-05-16T14:21:05Z</time>
      </trkpt>
      <trkpt lat="43.827237971127033" lon="4.374580979347229">
        <ele>56.859999999999999</ele>
        <time>2025-05-16T14:21:10Z</time>
      </trkpt>
      <trkpt lat="43.827274013310671" lon="4.374639987945557">
        <ele>56.369999999999997</ele>
        <time>2025-05-16T14:21:11Z</time>
      </trkpt>
      <trkpt lat="43.827231014147401" lon="4.374854983761907">
        <ele>56.369999999999997</ele>
        <time>2025-05-16T14:21:13Z</time>
      </trkpt>
      <trkpt lat="43.827247023582458" lon="4.374909969046712">
        <ele>56.369999999999997</ele>
        <time>2025-05-16T14:21:14Z</time>
      </trkpt>
      <trkpt lat="43.827364034950733" lon="4.375057993456721">
        <ele>55.890000000000001</ele>
        <time>2025-05-16T14:21:15Z</time>
      </trkpt>
      <trkpt lat="43.82738197222352" lon="4.375068973749876">
        <ele>55.409999999999997</ele>
        <time>2025-05-16T14:21:16Z</time>
      </trkpt>
      <trkpt lat="43.827546006068587" lon="4.375061010941863">
        <ele>53.009999999999998</ele>
        <time>2025-05-16T14:21:18Z</time>
      </trkpt>
      <trkpt lat="43.827589005231857" lon="4.375127982348204">
        <ele>52.049999999999997</ele>
        <time>2025-05-16T14:21:19Z</time>
      </trkpt>
      <trkpt lat="43.82763996720314" lon="4.375209035351872">
        <ele>51.57</ele>
        <time>2025-05-16T14:21:20Z</time>
      </trkpt>
      <trkpt lat="43.827694030478597" lon="4.375319005921483">
        <ele>51.090000000000003</ele>
        <time>2025-05-16T14:21:21Z</time>
      </trkpt>
      <trkpt lat="43.82875400595367" lon="4.377107033506036">
        <ele>48.68</ele>
        <time>2025-05-16T14:21:35Z</time>
      </trkpt>
      <trkpt lat="43.829659000039101" lon="4.378633964806795">
        <ele>48.200000000000003</ele>
        <time>2025-05-16T14:21:46Z</time>
      </trkpt>
      <trkpt lat="43.830480007454753" lon="4.380019996315241">
        <ele>48.68</ele>
        <time>2025-05-16T14:21:57Z</time>
      </trkpt>
      <trkpt lat="43.830607999116182" lon="4.380251001566649">
        <ele>49.159999999999997</ele>
        <time>2025-05-16T14:21:59Z</time>
      </trkpt>
      <trkpt lat="43.830662984400988" lon="4.380353009328246">
        <ele>49.159999999999997</ele>
        <time>2025-05-16T14:22:00Z</time>
      </trkpt>
      <trkpt lat="43.830777984112501" lon="4.380713012069464">
        <ele>49.159999999999997</ele>
        <time>2025-05-16T14:22:05Z</time>
      </trkpt>
      <trkpt lat="43.830787958577275" lon="4.380761040374637">
        <ele>48.68</ele>
        <time>2025-05-16T14:22:06Z</time>
      </trkpt>
      <trkpt lat="43.830799022689462" lon="4.380817031487823">
        <ele>48.200000000000003</ele>
        <time>2025-05-16T14:22:07Z</time>
      </trkpt>
      <trkpt lat="43.830812014639378" lon="4.380880985409021">
        <ele>47.719999999999999</ele>
        <time>2025-05-16T14:22:08Z</time>
      </trkpt>
      <trkpt lat="43.830826012417674" lon="4.380947034806013">
        <ele>47.719999999999999</ele>
        <time>2025-05-16T14:22:09Z</time>
      </trkpt>
      <trkpt lat="43.830841016024351" lon="4.381020963191986">
        <ele>47.719999999999999</ele>
        <time>2025-05-16T14:22:10Z</time>
      </trkpt>
      <trkpt lat="43.83085903711617" lon="4.381106039509177">
        <ele>47.719999999999999</ele>
        <time>2025-05-16T14:22:11Z</time>
      </trkpt>
      <trkpt lat="43.830878986045718" lon="4.381206035614014">
        <ele>47.240000000000002</ele>
        <time>2025-05-16T14:22:12Z</time>
      </trkpt>
      <trkpt lat="43.83086197078228" lon="4.38139203004539">
        <ele>46.280000000000001</ele>
        <time>2025-05-16T14:22:14Z</time>
      </trkpt>
      <trkpt lat="43.830868005752563" lon="4.381472999230027">
        <ele>46.280000000000001</ele>
        <time>2025-05-16T14:22:15Z</time>
      </trkpt>
      <trkpt lat="43.830896001309156" lon="4.381556985899806">
        <ele>45.799999999999997</ele>
        <time>2025-05-16T14:22:16Z</time>
      </trkpt>
      <trkpt lat="43.830926008522511" lon="4.381644995883107">
        <ele>45.32</ele>
        <time>2025-05-16T14:22:17Z</time>
      </trkpt>
      <trkpt lat="43.830971019342542" lon="4.381712973117828">
        <ele>45.32</ele>
        <time>2025-05-16T14:22:18Z</time>
      </trkpt>
      <trkpt lat="43.831036984920502" lon="4.381745997816324">
        <ele>44.840000000000003</ele>
        <time>2025-05-16T14:22:19Z</time>
      </trkpt>
      <trkpt lat="43.831103034317493" lon="4.381764018908143">
        <ele>44.840000000000003</ele>
        <time>2025-05-16T14:22:20Z</time>
      </trkpt>
      <trkpt lat="43.831174029037356" lon="4.381764018908143">
        <ele>44.359999999999999</ele>
        <time>2025-05-16T14:22:21Z</time>
      </trkpt>
      <trkpt lat="43.831262039020658" lon="4.381794026121497">
        <ele>43.880000000000003</ele>
        <time>2025-05-16T14:22:22Z</time>
      </trkpt>
      <trkpt lat="43.831343008205295" lon="4.381835013628006">
        <ele>43.880000000000003</ele>
        <time>2025-05-16T14:22:23Z</time>
      </trkpt>
      <trkpt lat="43.831416014581919" lon="4.381870971992612">
        <ele>44.359999999999999</ele>
        <time>2025-05-16T14:22:24Z</time>
      </trkpt>
      <trkpt lat="43.831522967666388" lon="4.381999969482422">
        <ele>44.359999999999999</ele>
        <time>2025-05-16T14:22:25Z</time>
      </trkpt>
      <trkpt lat="43.831565966829658" lon="4.382075993344188">
        <ele>44.359999999999999</ele>
        <time>2025-05-16T14:22:26Z</time>
      </trkpt>
      <trkpt lat="43.83163696154952" lon="4.382199961692095">
        <ele>44.359999999999999</ele>
        <time>2025-05-16T14:22:27Z</time>
      </trkpt>
      <trkpt lat="43.831711979582906" lon="4.38233700580895">
        <ele>44.359999999999999</ele>
        <time>2025-05-16T14:22:28Z</time>
      </trkpt>
      <trkpt lat="43.831779034808278" lon="4.382478995248675">
        <ele>44.359999999999999</ele>
        <time>2025-05-16T14:22:29Z</time>
      </trkpt>
      <trkpt lat="43.83184801787138" lon="4.382626013830304">
        <ele>44.840000000000003</ele>
        <time>2025-05-16T14:22:30Z</time>
      </trkpt>
      <trkpt lat="43.832282032817602" lon="4.383882964029908">
        <ele>44.840000000000003</ele>
        <time>2025-05-16T14:22:39Z</time>
      </trkpt>
      <trkpt lat="43.832426033914089" lon="4.384352015331388">
        <ele>44.840000000000003</ele>
        <time>2025-05-16T14:22:44Z</time>
      </trkpt>
      <trkpt lat="43.832454029470682" lon="4.384441031143069">
        <ele>44.840000000000003</ele>
        <time>2025-05-16T14:22:45Z</time>
      </trkpt>
      <trkpt lat="43.832528963685036" lon="4.384634988382459">
        <ele>44.359999999999999</ele>
        <time>2025-05-16T14:22:47Z</time>
      </trkpt>
      <trkpt lat="43.833023998886347" lon="4.385546017438173">
        <ele>44.840000000000003</ele>
        <time>2025-05-16T14:22:56Z</time>
      </trkpt>
      <trkpt lat="43.833092981949449" lon="4.385651964694262">
        <ele>45.32</ele>
        <time>2025-05-16T14:22:57Z</time>
      </trkpt>
      <trkpt lat="43.833672003820539" lon="4.386429972946644">
        <ele>46.759999999999998</ele>
        <time>2025-05-16T14:23:04Z</time>
      </trkpt>
      <trkpt lat="43.834510026499629" lon="4.387250980362296">
        <ele>48.200000000000003</ele>
        <time>2025-05-16T14:23:12Z</time>
      </trkpt>
      <trkpt lat="43.834874974563718" lon="4.387512998655438">
        <ele>47.240000000000002</ele>
        <time>2025-05-16T14:23:17Z</time>
      </trkpt>
      <trkpt lat="43.834933983162045" lon="4.387554991990328">
        <ele>47.240000000000002</ele>
        <time>2025-05-16T14:23:18Z</time>
      </trkpt>
      <trkpt lat="43.835164988413453" lon="4.387689018622041">
        <ele>46.759999999999998</ele>
        <time>2025-05-16T14:23:21Z</time>
      </trkpt>
      <trkpt lat="43.835297003388405" lon="4.387760013341904">
        <ele>46.280000000000001</ele>
        <time>2025-05-16T14:23:24Z</time>
      </trkpt>
      <trkpt lat="43.835922963917255" lon="4.388029994443059">
        <ele>46.759999999999998</ele>
        <time>2025-05-16T14:23:32Z</time>
      </trkpt>
      <trkpt lat="43.836024971678853" lon="4.388064024969935">
        <ele>45.799999999999997</ele>
        <time>2025-05-16T14:23:36Z</time>
      </trkpt>
      <trkpt lat="43.836105018854141" lon="4.388091014698148">
        <ele>45.799999999999997</ele>
        <time>2025-05-16T14:23:37Z</time>
      </trkpt>
      <trkpt lat="43.836148018017411" lon="4.388105012476444">
        <ele>45.32</ele>
        <time>2025-05-16T14:23:38Z</time>
      </trkpt>
      <trkpt lat="43.836540961638093" lon="4.388325037434697">
        <ele>43.880000000000003</ele>
        <time>2025-05-16T14:23:49Z</time>
      </trkpt>
      <trkpt lat="43.836540961638093" lon="4.388325037434697">
        <ele>43.880000000000003</ele>
        <time>2025-05-16T14:23:52Z</time>
      </trkpt>
      <trkpt lat="43.836572980508208" lon="4.38835202716291">
        <ele>43.880000000000003</ele>
        <time>2025-05-16T14:23:53Z</time>
      </trkpt>
      <trkpt lat="43.836611034348607" lon="4.388383962213993">
        <ele>43.880000000000003</ele>
        <time>2025-05-16T14:23:55Z</time>
      </trkpt>
      <trkpt lat="43.836672976613045" lon="4.388437019661069">
        <ele>44.359999999999999</ele>
        <time>2025-05-16T14:23:56Z</time>
      </trkpt>
      <trkpt lat="43.836727039888501" lon="4.388500973582268">
        <ele>44.359999999999999</ele>
        <time>2025-05-16T14:23:57Z</time>
      </trkpt>
      <trkpt lat="43.836784958839417" lon="4.38856802880764">
        <ele>44.359999999999999</ele>
        <time>2025-05-16T14:23:58Z</time>
      </trkpt>
      <trkpt lat="43.836856037378311" lon="4.388580014929175">
        <ele>44.359999999999999</ele>
        <time>2025-05-16T14:23:59Z</time>
      </trkpt>
      <trkpt lat="43.836998026818037" lon="4.388493010774255">
        <ele>44.359999999999999</ele>
        <time>2025-05-16T14:24:01Z</time>
      </trkpt>
      <trkpt lat="43.837056029587984" lon="4.388402989134193">
        <ele>44.359999999999999</ele>
        <time>2025-05-16T14:24:02Z</time>
      </trkpt>
      <trkpt lat="43.837187038734555" lon="4.388342974707484">
        <ele>43.880000000000003</ele>
        <time>2025-05-16T14:24:03Z</time>
      </trkpt>
      <trkpt lat="43.837288040667772" lon="4.388358984142542">
        <ele>43.880000000000003</ele>
        <time>2025-05-16T14:24:04Z</time>
      </trkpt>
      <trkpt lat="43.837516028434038" lon="4.38839603215456">
        <ele>43.880000000000003</ele>
        <time>2025-05-16T14:24:06Z</time>
      </trkpt>
      <trkpt lat="43.837910983711481" lon="4.388492004945874">
        <ele>43.399999999999999</ele>
        <time>2025-05-16T14:24:08Z</time>
      </trkpt>
      <trkpt lat="43.838731991127133" lon="4.388725021854043">
        <ele>41.950000000000003</ele>
        <time>2025-05-16T14:24:14Z</time>
      </trkpt>
      <trkpt lat="43.840209972113371" lon="4.389326004311442">
        <ele>39.07</ele>
        <time>2025-05-16T14:24:25Z</time>
      </trkpt>
      <trkpt lat="43.841047994792461" lon="4.389807963743806">
        <ele>40.030000000000001</ele>
        <time>2025-05-16T14:24:31Z</time>
      </trkpt>
      <trkpt lat="43.841158971190453" lon="4.389884993433952">
        <ele>39.549999999999997</ele>
        <time>2025-05-16T14:24:32Z</time>
      </trkpt>
      <trkpt lat="43.841251004487276" lon="4.389948025345802">
        <ele>40.030000000000001</ele>
        <time>2025-05-16T14:24:33Z</time>
      </trkpt>
      <trkpt lat="43.841415038332343" lon="4.390196967869997">
        <ele>40.509999999999998</ele>
        <time>2025-05-16T14:24:35Z</time>
      </trkpt>
      <trkpt lat="43.841450996696949" lon="4.390258993953466">
        <ele>40.990000000000002</ele>
        <time>2025-05-16T14:24:36Z</time>
      </trkpt>
      <trkpt lat="43.84151897393167" lon="4.390357984229922">
        <ele>41.469999999999999</ele>
        <time>2025-05-16T14:24:37Z</time>
      </trkpt>
      <trkpt lat="43.84173103608191" lon="4.390381034463644">
        <ele>41.950000000000003</ele>
        <time>2025-05-16T14:24:39Z</time>
      </trkpt>
      <trkpt lat="43.841826003044844" lon="4.390456974506378">
        <ele>41.950000000000003</ele>
        <time>2025-05-16T14:24:40Z</time>
      </trkpt>
      <trkpt lat="43.842895030975342" lon="4.391445033252239">
        <ele>42.920000000000002</ele>
        <time>2025-05-16T14:24:50Z</time>
      </trkpt>
      <trkpt lat="43.844322971999645" lon="4.393156031146646">
        <ele>44.840000000000003</ele>
        <time>2025-05-16T14:25:01Z</time>
      </trkpt>
      <trkpt lat="43.846172019839287" lon="4.39540296792984">
        <ele>50.609999999999999</ele>
        <time>2025-05-16T14:25:15Z</time>
      </trkpt>
      <trkpt lat="43.846864029765129" lon="4.396236967295408">
        <ele>51.57</ele>
        <time>2025-05-16T14:25:21Z</time>
      </trkpt>
      <trkpt lat="43.84721196256578" lon="4.396842978894711">
        <ele>52.530000000000001</ele>
        <time>2025-05-16T14:25:27Z</time>
      </trkpt>
      <trkpt lat="43.847236018627882" lon="4.396882960572839">
        <ele>52.530000000000001</ele>
        <time>2025-05-16T14:25:36Z</time>
      </trkpt>
      <trkpt lat="43.84725303389132" lon="4.396912967786193">
        <ele>53.490000000000002</ele>
        <time>2025-05-16T14:25:50Z</time>
      </trkpt>
      <trkpt lat="43.847270971164107" lon="4.396943980827928">
        <ele>53.969999999999999</ele>
        <time>2025-05-16T14:25:51Z</time>
      </trkpt>
      <trkpt lat="43.847585041075945" lon="4.397577987983823">
        <ele>55.890000000000001</ele>
        <time>2025-05-16T14:25:56Z</time>
      </trkpt>
      <trkpt lat="43.847839012742043" lon="4.398202020674944">
        <ele>55.890000000000001</ele>
        <time>2025-05-16T14:25:58Z</time>
      </trkpt>
      <trkpt lat="43.847949989140034" lon="4.39836798235774">
        <ele>56.859999999999999</ele>
        <time>2025-05-16T14:26:00Z</time>
      </trkpt>
      <trkpt lat="43.848924972116947" lon="4.399595009163022">
        <ele>56.369999999999997</ele>
        <time>2025-05-16T14:26:10Z</time>
      </trkpt>
      <trkpt lat="43.849500976502895" lon="4.400002034381032">
        <ele>55.890000000000001</ele>
        <time>2025-05-16T14:26:15Z</time>
      </trkpt>
      <trkpt lat="43.850148981437087" lon="4.400354996323586">
        <ele>55.409999999999997</ele>
        <time>2025-05-16T14:26:20Z</time>
      </trkpt>
      <trkpt lat="43.851303001865745" lon="4.400543002411723">
        <ele>55.409999999999997</ele>
        <time>2025-05-16T14:26:29Z</time>
      </trkpt>
      <trkpt lat="43.851716984063387" lon="4.400565968826413">
        <ele>55.890000000000001</ele>
        <time>2025-05-16T14:26:35Z</time>
      </trkpt>
      <trkpt lat="43.851885963231325" lon="4.400584995746613">
        <ele>56.369999999999997</ele>
        <time>2025-05-16T14:26:44Z</time>
      </trkpt>
      <trkpt lat="43.852615021169186" lon="4.400681974366307">
        <ele>56.859999999999999</ele>
        <time>2025-05-16T14:26:52Z</time>
      </trkpt>
      <trkpt lat="43.85357198305428" lon="4.401214979588985">
        <ele>58.780000000000001</ele>
        <time>2025-05-16T14:27:00Z</time>
      </trkpt>
      <trkpt lat="43.854683004319668" lon="4.402416022494435">
        <ele>62.619999999999997</ele>
        <time>2025-05-16T14:27:11Z</time>
      </trkpt>
      <trkpt lat="43.855284992605448" lon="4.403150025755167">
        <ele>63.579999999999998</ele>
        <time>2025-05-16T14:27:19Z</time>
      </trkpt>
      <trkpt lat="43.856256958097219" lon="4.404188962653279">
        <ele>65.510000000000005</ele>
        <time>2025-05-16T14:27:30Z</time>
      </trkpt>
      <trkpt lat="43.856546971946955" lon="4.404458021745086">
        <ele>65.510000000000005</ele>
        <time>2025-05-16T14:27:33Z</time>
      </trkpt>
      <trkpt lat="43.85679398663342" lon="4.404705036431551">
        <ele>65.989999999999995</ele>
        <time>2025-05-16T14:27:37Z</time>
      </trkpt>
      <trkpt lat="43.856856012716889" lon="4.404773013666272">
        <ele>65.989999999999995</ele>
        <time>2025-05-16T14:27:38Z</time>
      </trkpt>
      <trkpt lat="43.856969000771642" lon="4.4049839861691">
        <ele>65.989999999999995</ele>
        <time>2025-05-16T14:27:40Z</time>
      </trkpt>
      <trkpt lat="43.857004037126899" lon="4.405096974223852">
        <ele>65.989999999999995</ele>
        <time>2025-05-16T14:27:41Z</time>
      </trkpt>
      <trkpt lat="43.857136974111199" lon="4.405167968943715">
        <ele>65.989999999999995</ele>
        <time>2025-05-16T14:27:43Z</time>
      </trkpt>
      <trkpt lat="43.857220960780978" lon="4.405193030834198">
        <ele>65.510000000000005</ele>
        <time>2025-05-16T14:27:44Z</time>
      </trkpt>
      <trkpt lat="43.857313999906182" lon="4.405227983370423">
        <ele>65.030000000000001</ele>
        <time>2025-05-16T14:27:45Z</time>
      </trkpt>
      <trkpt lat="43.85741600766778" lon="4.405267965048552">
        <ele>65.030000000000001</ele>
        <time>2025-05-16T14:27:46Z</time>
      </trkpt>
      <trkpt lat="43.857625974342227" lon="4.405453037470579">
        <ele>64.549999999999997</ele>
        <time>2025-05-16T14:27:47Z</time>
      </trkpt>
      <trkpt lat="43.857723036780953" lon="4.405577005818486">
        <ele>64.069999999999993</ele>
        <time>2025-05-16T14:27:48Z</time>
      </trkpt>
      <trkpt lat="43.858475983142853" lon="4.406760027632117">
        <ele>64.549999999999997</ele>
        <time>2025-05-16T14:27:55Z</time>
      </trkpt>
      <trkpt lat="43.859170004725456" lon="4.408554006367922">
        <ele>65.510000000000005</ele>
        <time>2025-05-16T14:28:03Z</time>
      </trkpt>
      <trkpt lat="43.859467981383204" lon="4.410557029768825">
        <ele>66.469999999999999</ele>
        <time>2025-05-16T14:28:12Z</time>
      </trkpt>
      <trkpt lat="43.85943797416985" lon="4.413024997338653">
        <ele>65.510000000000005</ele>
        <time>2025-05-16T14:28:21Z</time>
      </trkpt>
      <trkpt lat="43.859309982508421" lon="4.41497303545475">
        <ele>65.510000000000005</ele>
        <time>2025-05-16T14:28:28Z</time>
      </trkpt>
      <trkpt lat="43.859274024143815" lon="4.415251985192299">
        <ele>65.030000000000001</ele>
        <time>2025-05-16T14:28:29Z</time>
      </trkpt>
      <trkpt lat="43.85921903885901" lon="4.415525989606977">
        <ele>65.030000000000001</ele>
        <time>2025-05-16T14:28:30Z</time>
      </trkpt>
      <trkpt lat="43.859160030260682" lon="4.415817009285092">
        <ele>65.030000000000001</ele>
        <time>2025-05-16T14:28:31Z</time>
      </trkpt>
      <trkpt lat="43.859066991135478" lon="4.416054971516132">
        <ele>65.030000000000001</ele>
        <time>2025-05-16T14:28:32Z</time>
      </trkpt>
      <trkpt lat="43.858970012515783" lon="4.416302992030978">
        <ele>65.030000000000001</ele>
        <time>2025-05-16T14:28:33Z</time>
      </trkpt>
      <trkpt lat="43.858846966177225" lon="4.416532991454005">
        <ele>65.030000000000001</ele>
        <time>2025-05-16T14:28:34Z</time>
      </trkpt>
      <trkpt lat="43.857643995434046" lon="4.418093031272292">
        <ele>64.069999999999993</ele>
        <time>2025-05-16T14:28:42Z</time>
      </trkpt>
      <trkpt lat="43.857551040127873" lon="4.418199984356761">
        <ele>64.069999999999993</ele>
        <time>2025-05-16T14:28:43Z</time>
      </trkpt>
      <trkpt lat="43.857310982421041" lon="4.418472982943058">
        <ele>63.579999999999998</ele>
        <time>2025-05-16T14:28:48Z</time>
      </trkpt>
      <trkpt lat="43.857250967994332" lon="4.41854196600616">
        <ele>63.100000000000001</ele>
        <time>2025-05-16T14:28:52Z</time>
      </trkpt>
      <trkpt lat="43.857093974947929" lon="4.418546995148063">
        <ele>62.619999999999997</ele>
        <time>2025-05-16T14:28:55Z</time>
      </trkpt>
      <trkpt lat="43.857023986056447" lon="4.418593011796475">
        <ele>62.619999999999997</ele>
        <time>2025-05-16T14:28:56Z</time>
      </trkpt>
      <trkpt lat="43.856912003830075" lon="4.418761990964413">
        <ele>62.140000000000001</ele>
        <time>2025-05-16T14:28:57Z</time>
      </trkpt>
      <trkpt lat="43.856880990788341" lon="4.418873973190785">
        <ele>62.140000000000001</ele>
        <time>2025-05-16T14:28:59Z</time>
      </trkpt>
      <trkpt lat="43.856897000223398" lon="4.419122999534011">
        <ele>61.659999999999997</ele>
        <time>2025-05-16T14:29:00Z</time>
      </trkpt>
      <trkpt lat="43.856953997164965" lon="4.419236993417144">
        <ele>61.659999999999997</ele>
        <time>2025-05-16T14:29:01Z</time>
      </trkpt>
      <trkpt lat="43.857044018805027" lon="4.419319974258542">
        <ele>61.659999999999997</ele>
        <time>2025-05-16T14:29:03Z</time>
      </trkpt>
      <trkpt lat="43.857117025181651" lon="4.419461963698268">
        <ele>61.659999999999997</ele>
        <time>2025-05-16T14:29:04Z</time>
      </trkpt>
      <trkpt lat="43.857140997424722" lon="4.419620968401432">
        <ele>62.140000000000001</ele>
        <time>2025-05-16T14:29:05Z</time>
      </trkpt>
      <trkpt lat="43.85713797993958" lon="4.419791037216783">
        <ele>62.619999999999997</ele>
        <time>2025-05-16T14:29:06Z</time>
      </trkpt>
      <trkpt lat="43.857138985767961" lon="4.421359039843082">
        <ele>62.140000000000001</ele>
        <time>2025-05-16T14:29:12Z</time>
      </trkpt>
      <trkpt lat="43.857181984931231" lon="4.421597002074122">
        <ele>62.140000000000001</ele>
        <time>2025-05-16T14:29:13Z</time>
      </trkpt>
      <trkpt lat="43.857234958559275" lon="4.421839993447065">
        <ele>61.659999999999997</ele>
        <time>2025-05-16T14:29:14Z</time>
      </trkpt>
      <trkpt lat="43.857402009889483" lon="4.422307033091784">
        <ele>60.700000000000003</ele>
        <time>2025-05-16T14:29:16Z</time>
      </trkpt>
      <trkpt lat="43.857509968802333" lon="4.422534015029669">
        <ele>59.740000000000002</ele>
        <time>2025-05-16T14:29:18Z</time>
      </trkpt>
      <trkpt lat="43.858892982825637" lon="4.425298031419516">
        <ele>55.409999999999997</ele>
        <time>2025-05-16T14:29:29Z</time>
      </trkpt>
      <trkpt lat="43.859696974977851" lon="4.426652966067195">
        <ele>55.409999999999997</ele>
        <time>2025-05-16T14:29:37Z</time>
      </trkpt>
      <trkpt lat="43.859837036579847" lon="4.426956977695227">
        <ele>55.890000000000001</ele>
        <time>2025-05-16T14:29:39Z</time>
      </trkpt>
      <trkpt lat="43.859894033521414" lon="4.427080024033785">
        <ele>56.369999999999997</ele>
        <time>2025-05-16T14:29:40Z</time>
      </trkpt>
      <trkpt lat="43.85995396412909" lon="4.427211033180356">
        <ele>56.369999999999997</ele>
        <time>2025-05-16T14:29:41Z</time>
      </trkpt>
      <trkpt lat="43.85999402962625" lon="4.427488977089524">
        <ele>57.340000000000003</ele>
        <time>2025-05-16T14:29:43Z</time>
      </trkpt>
      <trkpt lat="43.86014498770237" lon="4.427615962922573">
        <ele>57.340000000000003</ele>
        <time>2025-05-16T14:29:45Z</time>
      </trkpt>
      <trkpt lat="43.860333999618888" lon="4.427761975675821">
        <ele>57.340000000000003</ele>
        <time>2025-05-16T14:29:47Z</time>
      </trkpt>
      <trkpt lat="43.86042301543057" lon="4.427897008135915">
        <ele>57.82</ele>
        <time>2025-05-16T14:29:48Z</time>
      </trkpt>
      <trkpt lat="43.861142015084624" lon="4.42949996329844">
        <ele>59.740000000000002</ele>
        <time>2025-05-16T14:29:56Z</time>
      </trkpt>
      <trkpt lat="43.861528001725674" lon="4.430863028392196">
        <ele>60.700000000000003</ele>
        <time>2025-05-16T14:30:03Z</time>
      </trkpt>
      <trkpt lat="43.862019013613462" lon="4.432652983814478">
        <ele>60.219999999999999</ele>
        <time>2025-05-16T14:30:12Z</time>
      </trkpt>
      <trkpt lat="43.862741030752659" lon="4.434550981968641">
        <ele>56.859999999999999</ele>
        <time>2025-05-16T14:30:21Z</time>
      </trkpt>
      <trkpt lat="43.863723976537585" lon="4.437175020575523">
        <ele>57.82</ele>
        <time>2025-05-16T14:30:32Z</time>
      </trkpt>
      <trkpt lat="43.864794010296464" lon="4.440188985317946">
        <ele>59.259999999999998</ele>
        <time>2025-05-16T14:30:44Z</time>
      </trkpt>
      <trkpt lat="43.86583898216486" lon="4.443257013335824">
        <ele>61.659999999999997</ele>
        <time>2025-05-16T14:30:57Z</time>
      </trkpt>
      <trkpt lat="43.866027994081378" lon="4.44393795914948">
        <ele>62.619999999999997</ele>
        <time>2025-05-16T14:31:02Z</time>
      </trkpt>
      <trkpt lat="43.866052972152829" lon="4.4440439902246">
        <ele>63.579999999999998</ele>
        <time>2025-05-16T14:31:10Z</time>
      </trkpt>
      <trkpt lat="43.866063030436635" lon="4.44408799521625">
        <ele>63.579999999999998</ele>
        <time>2025-05-16T14:31:12Z</time>
      </trkpt>
      <trkpt lat="43.866046015173197" lon="4.44421598687768">
        <ele>63.579999999999998</ele>
        <time>2025-05-16T14:31:14Z</time>
      </trkpt>
      <trkpt lat="43.866020031273365" lon="4.444317994639278">
        <ele>63.579999999999998</ele>
        <time>2025-05-16T14:31:15Z</time>
      </trkpt>
      <trkpt lat="43.86607401072979" lon="4.444590993225575">
        <ele>63.100000000000001</ele>
        <time>2025-05-16T14:31:17Z</time>
      </trkpt>
      <trkpt lat="43.866151962429285" lon="4.444651007652283">
        <ele>63.100000000000001</ele>
        <time>2025-05-16T14:31:18Z</time>
      </trkpt>
      <trkpt lat="43.866232009604573" lon="4.444713033735752">
        <ele>63.100000000000001</ele>
        <time>2025-05-16T14:31:19Z</time>
      </trkpt>
      <trkpt lat="43.866296969354153" lon="4.444804983213544">
        <ele>63.100000000000001</ele>
        <time>2025-05-16T14:31:20Z</time>
      </trkpt>
      <trkpt lat="43.866357989609241" lon="4.444895004853606">
        <ele>63.100000000000001</ele>
        <time>2025-05-16T14:31:21Z</time>
      </trkpt>
      <trkpt lat="43.866426972672343" lon="4.444998018443584">
        <ele>63.100000000000001</ele>
        <time>2025-05-16T14:31:22Z</time>
      </trkpt>
      <trkpt lat="43.866541972383857" lon="4.445171020925045">
        <ele>63.100000000000001</ele>
        <time>2025-05-16T14:31:23Z</time>
      </trkpt>
      <trkpt lat="43.867082018405199" lon="4.446748998016119">
        <ele>64.069999999999993</ele>
        <time>2025-05-16T14:31:31Z</time>
      </trkpt>
      <trkpt lat="43.868038980290294" lon="4.449471021071076">
        <ele>64.549999999999997</ele>
        <time>2025-05-16T14:31:41Z</time>
      </trkpt>
      <trkpt lat="43.869198029860854" lon="4.452881030738354">
        <ele>65.510000000000005</ele>
        <time>2025-05-16T14:31:55Z</time>
      </trkpt>
      <trkpt lat="43.870685985311866" lon="4.45721598342061">
        <ele>66.950000000000003</ele>
        <time>2025-05-16T14:32:11Z</time>
      </trkpt>
      <trkpt lat="43.871796000748873" lon="4.459639023989439">
        <ele>68.390000000000001</ele>
        <time>2025-05-16T14:32:22Z</time>
      </trkpt>
      <trkpt lat="43.873543040826917" lon="4.463354973122478">
        <ele>68.870000000000005</ele>
        <time>2025-05-16T14:32:38Z</time>
      </trkpt>
      <trkpt lat="43.874311996623874" lon="4.464948959648609">
        <ele>69.829999999999998</ele>
        <time>2025-05-16T14:32:46Z</time>
      </trkpt>
      <trkpt lat="43.874617014080286" lon="4.465581960976124">
        <ele>70.310000000000002</ele>
        <time>2025-05-16T14:32:51Z</time>
      </trkpt>
      <trkpt lat="43.874636963009834" lon="4.465663013979793">
        <ele>70.310000000000002</ele>
        <time>2025-05-16T14:32:52Z</time>
      </trkpt>
      <trkpt lat="43.874652972444892" lon="4.465726967900991">
        <ele>70.310000000000002</ele>
        <time>2025-05-16T14:32:53Z</time>
      </trkpt>
      <trkpt lat="43.874665964394808" lon="4.465780025348067">
        <ele>70.310000000000002</ele>
        <time>2025-05-16T14:32:54Z</time>
      </trkpt>
      <trkpt lat="43.874680968001485" lon="4.465840961784124">
        <ele>70.310000000000002</ele>
        <time>2025-05-16T14:32:55Z</time>
      </trkpt>
      <trkpt lat="43.874701000750065" lon="4.465921008959413">
        <ele>70.310000000000002</ele>
        <time>2025-05-16T14:32:56Z</time>
      </trkpt>
      <trkpt lat="43.874724972993135" lon="4.466014970093966">
        <ele>70.310000000000002</ele>
        <time>2025-05-16T14:32:57Z</time>
      </trkpt>
      <trkpt lat="43.874751040711999" lon="4.466121001169086">
        <ele>70.310000000000002</ele>
        <time>2025-05-16T14:32:58Z</time>
      </trkpt>
      <trkpt lat="43.874760009348392" lon="4.466223008930683">
        <ele>70.310000000000002</ele>
        <time>2025-05-16T14:32:59Z</time>
      </trkpt>
      <trkpt lat="43.874832009896636" lon="4.466503970324993">
        <ele>69.829999999999998</ele>
        <time>2025-05-16T14:33:01Z</time>
      </trkpt>
      <trkpt lat="43.874975005164742" lon="4.466521991416812">
        <ele>69.349999999999994</ele>
        <time>2025-05-16T14:33:02Z</time>
      </trkpt>
      <trkpt lat="43.875022027641535" lon="4.466575970873237">
        <ele>68.870000000000005</ele>
        <time>2025-05-16T14:33:03Z</time>
      </trkpt>
      <trkpt lat="43.875100985169411" lon="4.46666699834168">
        <ele>68.390000000000001</ele>
        <time>2025-05-16T14:33:04Z</time>
      </trkpt>
      <trkpt lat="43.875182038173079" lon="4.466760037466884">
        <ele>67.909999999999997</ele>
        <time>2025-05-16T14:33:05Z</time>
      </trkpt>
      <trkpt lat="43.875266024842858" lon="4.466871013864875">
        <ele>67.430000000000007</ele>
        <time>2025-05-16T14:33:06Z</time>
      </trkpt>
      <trkpt lat="43.875320004299283" lon="4.466999005526304">
        <ele>66.950000000000003</ele>
        <time>2025-05-16T14:33:07Z</time>
      </trkpt>
      <trkpt lat="43.875371972098947" lon="4.467119034379721">
        <ele>66.469999999999999</ele>
        <time>2025-05-16T14:33:08Z</time>
      </trkpt>
      <trkpt lat="43.875420000404119" lon="4.467232022434473">
        <ele>65.510000000000005</ele>
        <time>2025-05-16T14:33:09Z</time>
      </trkpt>
      <trkpt lat="43.875469034537673" lon="4.467346016317606">
        <ele>64.549999999999997</ele>
        <time>2025-05-16T14:33:10Z</time>
      </trkpt>
      <trkpt lat="43.875874970108271" lon="4.468342959880829">
        <ele>61.659999999999997</ele>
        <time>2025-05-16T14:33:18Z</time>
      </trkpt>
      <trkpt lat="43.875983012840152" lon="4.468710003420711">
        <ele>59.740000000000002</ele>
        <time>2025-05-16T14:33:27Z</time>
      </trkpt>
      <trkpt lat="43.875999022275209" lon="4.468780998140574">
        <ele>58.299999999999997</ele>
        <time>2025-05-16T14:33:36Z</time>
      </trkpt>
      <trkpt lat="43.876031041145325" lon="4.468920975923538">
        <ele>56.859999999999999</ele>
        <time>2025-05-16T14:33:51Z</time>
      </trkpt>
      <trkpt lat="43.876214018091559" lon="4.469714993610978">
        <ele>57.340000000000003</ele>
        <time>2025-05-16T14:33:59Z</time>
      </trkpt>
      <trkpt lat="43.876242013648152" lon="4.469853965565562">
        <ele>59.259999999999998</ele>
        <time>2025-05-16T14:34:02Z</time>
      </trkpt>
      <trkpt lat="43.876535966992378" lon="4.471066994592547">
        <ele>61.659999999999997</ele>
        <time>2025-05-16T14:34:09Z</time>
      </trkpt>
      <trkpt lat="43.876976016908884" lon="4.472961975261569">
        <ele>63.579999999999998</ele>
        <time>2025-05-16T14:34:18Z</time>
      </trkpt>
      <trkpt lat="43.877469962462783" lon="4.475017972290516">
        <ele>65.989999999999995</ele>
        <time>2025-05-16T14:34:30Z</time>
      </trkpt>
      <trkpt lat="43.877991987392306" lon="4.477211013436317">
        <ele>66.950000000000003</ele>
        <time>2025-05-16T14:34:42Z</time>
      </trkpt>
      <trkpt lat="43.878577966243029" lon="4.479656014591456">
        <ele>67.430000000000007</ele>
        <time>2025-05-16T14:34:55Z</time>
      </trkpt>
      <trkpt lat="43.879085993394256" lon="4.48147002607584">
        <ele>68.870000000000005</ele>
        <time>2025-05-16T14:35:03Z</time>
      </trkpt>
      <trkpt lat="43.879457982257009" lon="4.482793025672436">
        <ele>70.790000000000006</ele>
        <time>2025-05-16T14:35:10Z</time>
      </trkpt>
      <trkpt lat="43.879989981651306" lon="4.484454989433289">
        <ele>73.680000000000007</ele>
        <time>2025-05-16T14:35:20Z</time>
      </trkpt>
      <trkpt lat="43.880325006321073" lon="4.485551007091999">
        <ele>74.159999999999997</ele>
        <time>2025-05-16T14:35:27Z</time>
      </trkpt>
      <trkpt lat="43.88068500906229" lon="4.486748026683927">
        <ele>76.079999999999998</ele>
        <time>2025-05-16T14:35:37Z</time>
      </trkpt>
      <trkpt lat="43.880764972418547" lon="4.487038962543011">
        <ele>75.599999999999994</ele>
        <time>2025-05-16T14:35:42Z</time>
      </trkpt>
      <trkpt lat="43.880785005167127" lon="4.487112974748015">
        <ele>75.120000000000005</ele>
        <time>2025-05-16T14:35:44Z</time>
      </trkpt>
      <trkpt lat="43.88096303679049" lon="4.487611027434468">
        <ele>73.680000000000007</ele>
        <time>2025-05-16T14:35:50Z</time>
      </trkpt>
      <trkpt lat="43.881013998761773" lon="4.487739019095898">
        <ele>73.200000000000003</ele>
        <time>2025-05-16T14:35:52Z</time>
      </trkpt>
      <trkpt lat="43.881117012351751" lon="4.488007994368672">
        <ele>71.269999999999996</ele>
        <time>2025-05-16T14:35:56Z</time>
      </trkpt>
      <trkpt lat="43.881251038983464" lon="4.488375037908554">
        <ele>69.349999999999994</ele>
        <time>2025-05-16T14:36:03Z</time>
      </trkpt>
      <trkpt lat="43.881376013159752" lon="4.488679971545935">
        <ele>69.349999999999994</ele>
        <time>2025-05-16T14:36:09Z</time>
      </trkpt>
      <trkpt lat="43.881401997059584" lon="4.488731017336249">
        <ele>69.349999999999994</ele>
        <time>2025-05-16T14:36:10Z</time>
      </trkpt>
      <trkpt lat="43.881453964859247" lon="4.488863032311201">
        <ele>69.349999999999994</ele>
        <time>2025-05-16T14:36:13Z</time>
      </trkpt>
      <trkpt lat="43.881547003984451" lon="4.489089008420706">
        <ele>69.829999999999998</ele>
        <time>2025-05-16T14:36:15Z</time>
      </trkpt>
      <trkpt lat="43.881691005080938" lon="4.489411963149905">
        <ele>71.269999999999996</ele>
        <time>2025-05-16T14:36:23Z</time>
      </trkpt>
      <trkpt lat="43.881751019507647" lon="4.489546995609999">
        <ele>72.719999999999999</ele>
        <time>2025-05-16T14:36:29Z</time>
      </trkpt>
      <trkpt lat="43.881778009235859" lon="4.489608015865088">
        <ele>72.719999999999999</ele>
        <time>2025-05-16T14:36:33Z</time>
      </trkpt>
      <trkpt lat="43.882066011428833" lon="4.490256020799279">
        <ele>73.680000000000007</ele>
        <time>2025-05-16T14:36:41Z</time>
      </trkpt>
      <trkpt lat="43.882174976170063" lon="4.490484008565545">
        <ele>75.120000000000005</ele>
        <time>2025-05-16T14:36:44Z</time>
      </trkpt>
      <trkpt lat="43.882932029664516" lon="4.492059973999858">
        <ele>78</ele>
        <time>2025-05-16T14:36:55Z</time>
      </trkpt>
      <trkpt lat="43.883591014891863" lon="4.493340980261564">
        <ele>80.890000000000001</ele>
        <time>2025-05-16T14:37:04Z</time>
      </trkpt>
      <trkpt lat="43.884299034252763" lon="4.494717959314585">
        <ele>81.370000000000005</ele>
        <time>2025-05-16T14:37:14Z</time>
      </trkpt>
      <trkpt lat="43.884963970631361" lon="4.496050011366606">
        <ele>80.890000000000001</ele>
        <time>2025-05-16T14:37:24Z</time>
      </trkpt>
      <trkpt lat="43.885667966678739" lon="4.49754299595952">
        <ele>80.890000000000001</ele>
        <time>2025-05-16T14:37:32Z</time>
      </trkpt>
      <trkpt lat="43.886555023491383" lon="4.499294981360436">
        <ele>81.370000000000005</ele>
        <time>2025-05-16T14:37:41Z</time>
      </trkpt>
      <trkpt lat="43.887460017576814" lon="4.501122990623117">
        <ele>83.769999999999996</ele>
        <time>2025-05-16T14:37:51Z</time>
      </trkpt>
      <trkpt lat="43.888606997206807" lon="4.503449974581599">
        <ele>87.620000000000005</ele>
        <time>2025-05-16T14:38:02Z</time>
      </trkpt>
      <trkpt lat="43.890142980962992" lon="4.506476009264588">
        <ele>84.730000000000004</ele>
        <time>2025-05-16T14:38:17Z</time>
      </trkpt>
      <trkpt lat="43.891323991119862" lon="4.508017022162676">
        <ele>83.769999999999996</ele>
        <time>2025-05-16T14:38:25Z</time>
      </trkpt>
      <trkpt lat="43.89292904175818" lon="4.50993999838829">
        <ele>87.620000000000005</ele>
        <time>2025-05-16T14:38:37Z</time>
      </trkpt>
      <trkpt lat="43.893260965123773" lon="4.51034601777792">
        <ele>87.140000000000001</ele>
        <time>2025-05-16T14:38:42Z</time>
      </trkpt>
      <trkpt lat="43.893857002258301" lon="4.511068034917116">
        <ele>86.659999999999997</ele>
        <time>2025-05-16T14:38:49Z</time>
      </trkpt>
      <trkpt lat="43.89469301328063" lon="4.512075958773494">
        <ele>87.140000000000001</ele>
        <time>2025-05-16T14:38:57Z</time>
      </trkpt>
      <trkpt lat="43.896458996459842" lon="4.514371007680893">
        <ele>90.019999999999996</ele>
        <time>2025-05-16T14:39:08Z</time>
      </trkpt>
      <trkpt lat="43.897826001048088" lon="4.515887964516878">
        <ele>89.540000000000006</ele>
        <time>2025-05-16T14:39:16Z</time>
      </trkpt>
      <trkpt lat="43.899276992306113" lon="4.51685699634254">
        <ele>86.659999999999997</ele>
        <time>2025-05-16T14:39:23Z</time>
      </trkpt>
      <trkpt lat="43.901488976553082" lon="4.518235987052321">
        <ele>86.659999999999997</ele>
        <time>2025-05-16T14:39:36Z</time>
      </trkpt>
      <trkpt lat="43.903527036309242" lon="4.51950098387897">
        <ele>86.180000000000007</ele>
        <time>2025-05-16T14:39:47Z</time>
      </trkpt>
      <trkpt lat="43.90644502826035" lon="4.521364029496908">
        <ele>93.870000000000005</ele>
        <time>2025-05-16T14:40:02Z</time>
      </trkpt>
      <trkpt lat="43.908429024741054" lon="4.522621985524893">
        <ele>98.670000000000002</ele>
        <time>2025-05-16T14:40:14Z</time>
      </trkpt>
      <trkpt lat="43.910225015133619" lon="4.524157969281077">
        <ele>105.88</ele>
        <time>2025-05-16T14:40:25Z</time>
      </trkpt>
      <trkpt lat="43.911889996379614" lon="4.525982039049268">
        <ele>102.52</ele>
        <time>2025-05-16T14:40:35Z</time>
      </trkpt>
      <trkpt lat="43.914275988936424" lon="4.52837398275733">
        <ele>92.420000000000002</ele>
        <time>2025-05-16T14:40:49Z</time>
      </trkpt>
      <trkpt lat="43.916388982906938" lon="4.530471973121166">
        <ele>83.769999999999996</ele>
        <time>2025-05-16T14:41:01Z</time>
      </trkpt>
      <trkpt lat="43.918767012655735" lon="4.532830975949764">
        <ele>77.519999999999996</ele>
        <time>2025-05-16T14:41:15Z</time>
      </trkpt>
      <trkpt lat="43.920929040759802" lon="4.535075984895229">
        <ele>70.310000000000002</ele>
        <time>2025-05-16T14:41:28Z</time>
      </trkpt>
      <trkpt lat="43.922638026997447" lon="4.537383019924164">
        <ele>62.140000000000001</ele>
        <time>2025-05-16T14:41:39Z</time>
      </trkpt>
      <trkpt lat="43.923688028007746" lon="4.539109021425247">
        <ele>57.82</ele>
        <time>2025-05-16T14:41:50Z</time>
      </trkpt>
      <trkpt lat="43.924425970762968" lon="4.540463034063578">
        <ele>57.340000000000003</ele>
        <time>2025-05-16T14:41:59Z</time>
      </trkpt>
      <trkpt lat="43.925258964300156" lon="4.542008992284536">
        <ele>56.859999999999999</ele>
        <time>2025-05-16T14:42:11Z</time>
      </trkpt>
      <trkpt lat="43.925787024199963" lon="4.543169969692826">
        <ele>55.409999999999997</ele>
        <time>2025-05-16T14:42:21Z</time>
      </trkpt>
      <trkpt lat="43.926098998636007" lon="4.543810011819005">
        <ele>53.969999999999999</ele>
        <time>2025-05-16T14:42:27Z</time>
      </trkpt>
      <trkpt lat="43.926235036924481" lon="4.544018972665072">
        <ele>53.009999999999998</ele>
        <time>2025-05-16T14:42:29Z</time>
      </trkpt>
      <trkpt lat="43.926313994452357" lon="4.544114023447037">
        <ele>52.530000000000001</ele>
        <time>2025-05-16T14:42:30Z</time>
      </trkpt>
      <trkpt lat="43.926397981122136" lon="4.544203961268067">
        <ele>52.530000000000001</ele>
        <time>2025-05-16T14:42:31Z</time>
      </trkpt>
      <trkpt lat="43.927417974919081" lon="4.54510903917253">
        <ele>46.280000000000001</ele>
        <time>2025-05-16T14:42:43Z</time>
      </trkpt>
      <trkpt lat="43.927577985450625" lon="4.54524097032845">
        <ele>45.32</ele>
        <time>2025-05-16T14:42:45Z</time>
      </trkpt>
      <trkpt lat="43.927660966292024" lon="4.545310037210584">
        <ele>45.32</ele>
        <time>2025-05-16T14:42:46Z</time>
      </trkpt>
      <trkpt lat="43.928416008129716" lon="4.546112017706037">
        <ele>45.32</ele>
        <time>2025-05-16T14:42:55Z</time>
      </trkpt>
      <trkpt lat="43.928498988971114" lon="4.546223999932408">
        <ele>45.32</ele>
        <time>2025-05-16T14:42:56Z</time>
      </trkpt>
      <trkpt lat="43.92902797088027" lon="4.54693503677845">
        <ele>48.68</ele>
        <time>2025-05-16T14:43:02Z</time>
      </trkpt>
      <trkpt lat="43.93029497936368" lon="4.548609992489219">
        <ele>51.57</ele>
        <time>2025-05-16T14:43:14Z</time>
      </trkpt>
      <trkpt lat="43.931429972872138" lon="4.550464991480112">
        <ele>48.200000000000003</ele>
        <time>2025-05-16T14:43:24Z</time>
      </trkpt>
      <trkpt lat="43.931817971169949" lon="4.551348024979234">
        <ele>46.280000000000001</ele>
        <time>2025-05-16T14:43:28Z</time>
      </trkpt>
      <trkpt lat="43.931878991425037" lon="4.551568971946836">
        <ele>45.32</ele>
        <time>2025-05-16T14:43:29Z</time>
      </trkpt>
      <trkpt lat="43.932002959772944" lon="4.552015978842974">
        <ele>42.439999999999998</ele>
        <time>2025-05-16T14:43:31Z</time>
      </trkpt>
      <trkpt lat="43.932095998898149" lon="4.552217982709408">
        <ele>40.990000000000002</ele>
        <time>2025-05-16T14:43:32Z</time>
      </trkpt>
      <trkpt lat="43.932218039408326" lon="4.552405988797545">
        <ele>39.549999999999997</ele>
        <time>2025-05-16T14:43:33Z</time>
      </trkpt>
      <trkpt lat="43.933324031531811" lon="4.554086979478598">
        <ele>29.940000000000001</ele>
        <time>2025-05-16T14:43:42Z</time>
      </trkpt>
      <trkpt lat="43.934030961245298" lon="4.555128011852503">
        <ele>23.690000000000001</ele>
        <time>2025-05-16T14:43:49Z</time>
      </trkpt>
      <trkpt lat="43.934170017018914" lon="4.555411990731955">
        <ele>23.210000000000001</ele>
        <time>2025-05-16T14:43:51Z</time>
      </trkpt>
      <trkpt lat="43.934241011738777" lon="4.555570995435119">
        <ele>22.73</ele>
        <time>2025-05-16T14:43:52Z</time>
      </trkpt>
      <trkpt lat="43.934285016730428" lon="4.555734023451805">
        <ele>22.25</ele>
        <time>2025-05-16T14:43:53Z</time>
      </trkpt>
      <trkpt lat="43.934330027550459" lon="4.555898979306221">
        <ele>21.77</ele>
        <time>2025-05-16T14:43:54Z</time>
      </trkpt>
      <trkpt lat="43.934373026713729" lon="4.556064018979669">
        <ele>21.289999999999999</ele>
        <time>2025-05-16T14:43:55Z</time>
      </trkpt>
      <trkpt lat="43.934476962313056" lon="4.556772960349917">
        <ele>18.879999999999999</ele>
        <time>2025-05-16T14:44:00Z</time>
      </trkpt>
      <trkpt lat="43.934532031416893" lon="4.556874968111515">
        <ele>18.399999999999999</ele>
        <time>2025-05-16T14:44:01Z</time>
      </trkpt>
      <trkpt lat="43.934582993388176" lon="4.55697001889348">
        <ele>18.399999999999999</ele>
        <time>2025-05-16T14:44:02Z</time>
      </trkpt>
      <trkpt lat="43.934654993936419" lon="4.557058028876782">
        <ele>18.399999999999999</ele>
        <time>2025-05-16T14:44:03Z</time>
      </trkpt>
      <trkpt lat="43.934745015576482" lon="4.55707797780633">
        <ele>17.920000000000002</ele>
        <time>2025-05-16T14:44:04Z</time>
      </trkpt>
      <trkpt lat="43.934838976711035" lon="4.557094993069768">
        <ele>17.920000000000002</ele>
        <time>2025-05-16T14:44:06Z</time>
      </trkpt>
      <trkpt lat="43.935126978904009" lon="4.557094993069768">
        <ele>17.440000000000001</ele>
        <time>2025-05-16T14:44:08Z</time>
      </trkpt>
      <trkpt lat="43.935229992493987" lon="4.557071020826697">
        <ele>17.440000000000001</ele>
        <time>2025-05-16T14:44:09Z</time>
      </trkpt>
      <trkpt lat="43.935431996360421" lon="4.556999020278454">
        <ele>17.440000000000001</ele>
        <time>2025-05-16T14:44:11Z</time>
      </trkpt>
      <trkpt lat="43.935623019933701" lon="4.556907992810011">
        <ele>17.920000000000002</ele>
        <time>2025-05-16T14:44:13Z</time>
      </trkpt>
      <trkpt lat="43.935713963583112" lon="4.556861976161599">
        <ele>17.920000000000002</ele>
        <time>2025-05-16T14:44:14Z</time>
      </trkpt>
      <trkpt lat="43.93656799569726" lon="4.55623802728951">
        <ele>19.359999999999999</ele>
        <time>2025-05-16T14:44:24Z</time>
      </trkpt>
      <trkpt lat="43.936680983752012" lon="4.556130990386009">
        <ele>19.84</ele>
        <time>2025-05-16T14:44:26Z</time>
      </trkpt>
      <trkpt lat="43.936730017885566" lon="4.556084973737598">
        <ele>20.32</ele>
        <time>2025-05-16T14:44:27Z</time>
      </trkpt>
      <trkpt lat="43.936819033697248" lon="4.556121015921235">
        <ele>20.809999999999999</ele>
        <time>2025-05-16T14:44:28Z</time>
      </trkpt>
      <trkpt lat="43.936865972355008" lon="4.556159991770983">
        <ele>20.809999999999999</ele>
        <time>2025-05-16T14:44:29Z</time>
      </trkpt>
      <trkpt lat="43.936937972903252" lon="4.556137025356293">
        <ele>21.289999999999999</ele>
        <time>2025-05-16T14:44:30Z</time>
      </trkpt>
      <trkpt lat="43.937007961794734" lon="4.556144988164306">
        <ele>21.289999999999999</ele>
        <time>2025-05-16T14:44:31Z</time>
      </trkpt>
      <trkpt lat="43.937033023685217" lon="4.556193016469479">
        <ele>21.77</ele>
        <time>2025-05-16T14:44:33Z</time>
      </trkpt>
      <trkpt lat="43.937060013413429" lon="4.556242972612381">
        <ele>22.25</ele>
        <time>2025-05-16T14:44:34Z</time>
      </trkpt>
      <trkpt lat="43.937092032283545" lon="4.556302987039089">
        <ele>22.25</ele>
        <time>2025-05-16T14:44:35Z</time>
      </trkpt>
      <trkpt lat="43.937250031158328" lon="4.556595012545586">
        <ele>24.170000000000002</ele>
        <time>2025-05-16T14:44:39Z</time>
      </trkpt>
      <trkpt lat="43.937291018664837" lon="4.556671036407352">
        <ele>24.649999999999999</ele>
        <time>2025-05-16T14:44:40Z</time>
      </trkpt>
      <trkpt lat="43.937775995582342" lon="4.55754904076457">
        <ele>27.530000000000001</ele>
        <time>2025-05-16T14:44:52Z</time>
      </trkpt>
      <trkpt lat="43.937802985310555" lon="4.557596985250711">
        <ele>27.530000000000001</ele>
        <time>2025-05-16T14:44:53Z</time>
      </trkpt>
      <trkpt lat="43.937827963382006" lon="4.557641996070743">
        <ele>28.02</ele>
        <time>2025-05-16T14:44:54Z</time>
      </trkpt>
      <trkpt lat="43.938117977231741" lon="4.55819696187973">
        <ele>29.460000000000001</ele>
        <time>2025-05-16T14:45:08Z</time>
      </trkpt>
      <trkpt lat="43.938231971114874" lon="4.558403994888067">
        <ele>31.379999999999999</ele>
        <time>2025-05-16T14:45:14Z</time>
      </trkpt>
      <trkpt lat="43.938258038833737" lon="4.558455040678382">
        <ele>31.859999999999999</ele>
        <time>2025-05-16T14:45:16Z</time>
      </trkpt>
      <trkpt lat="43.938279999420047" lon="4.558499967679381">
        <ele>31.859999999999999</ele>
        <time>2025-05-16T14:45:17Z</time>
      </trkpt>
      <trkpt lat="43.938359040766954" lon="4.558657966554165">
        <ele>32.340000000000003</ele>
        <time>2025-05-16T14:45:28Z</time>
      </trkpt>
      <trkpt lat="43.93852299079299" lon="4.558991985395551">
        <ele>32.340000000000003</ele>
        <time>2025-05-16T14:45:37Z</time>
      </trkpt>
      <trkpt lat="43.938592979684472" lon="4.559174962341785">
        <ele>32.82</ele>
        <time>2025-05-16T14:45:39Z</time>
      </trkpt>
      <trkpt lat="43.938618041574955" lon="4.559240005910397">
        <ele>32.340000000000003</ele>
        <time>2025-05-16T14:45:40Z</time>
      </trkpt>
      <trkpt lat="43.938632039353251" lon="4.55929197371006">
        <ele>32.340000000000003</ele>
        <time>2025-05-16T14:45:41Z</time>
      </trkpt>
      <trkpt lat="43.938662968575954" lon="4.559404961764813">
        <ele>32.340000000000003</ele>
        <time>2025-05-16T14:45:44Z</time>
      </trkpt>
      <trkpt lat="43.938662968575954" lon="4.559404961764813">
        <ele>32.340000000000003</ele>
        <time>2025-05-16T14:45:54Z</time>
      </trkpt>
      <trkpt lat="43.938662968575954" lon="4.559404961764813">
        <ele>32.340000000000003</ele>
        <time>2025-05-16T14:46:14Z</time>
      </trkpt>
      <trkpt lat="43.938675038516521" lon="4.559449972584844">
        <ele>32.82</ele>
        <time>2025-05-16T14:46:27Z</time>
      </trkpt>
      <trkpt lat="43.938718037679791" lon="4.559618029743433">
        <ele>33.299999999999997</ele>
        <time>2025-05-16T14:46:35Z</time>
      </trkpt>
      <trkpt lat="43.938750978559256" lon="4.559765970334411">
        <ele>31.859999999999999</ele>
        <time>2025-05-16T14:46:43Z</time>
      </trkpt>
      <trkpt lat="43.938779979944229" lon="4.559883987531066">
        <ele>31.859999999999999</ele>
        <time>2025-05-16T14:46:45Z</time>
      </trkpt>
      <trkpt lat="43.938820967450738" lon="4.559883987531066">
        <ele>31.379999999999999</ele>
        <time>2025-05-16T14:46:46Z</time>
      </trkpt>
      <trkpt lat="43.939463021233678" lon="4.559931010007858">
        <ele>29.940000000000001</ele>
        <time>2025-05-16T14:46:56Z</time>
      </trkpt>
      <trkpt lat="43.940151007845998" lon="4.55997996032238">
        <ele>27.530000000000001</ele>
        <time>2025-05-16T14:47:04Z</time>
      </trkpt>
      <trkpt lat="43.940224014222622" lon="4.559985995292664">
        <ele>27.050000000000001</ele>
        <time>2025-05-16T14:47:05Z</time>
      </trkpt>
      <trkpt lat="43.94028696231544" lon="4.559991024434567">
        <ele>26.57</ele>
        <time>2025-05-16T14:47:06Z</time>
      </trkpt>
      <trkpt lat="43.940344965085387" lon="4.559991024434567">
        <ele>26.09</ele>
        <time>2025-05-16T14:47:07Z</time>
      </trkpt>
      <trkpt lat="43.940409002825618" lon="4.559991024434567">
        <ele>25.609999999999999</ele>
        <time>2025-05-16T14:47:08Z</time>
      </trkpt>
      <trkpt lat="43.940490977838635" lon="4.560005022212863">
        <ele>25.129999999999999</ele>
        <time>2025-05-16T14:47:09Z</time>
      </trkpt>
      <trkpt lat="43.941360013559461" lon="4.560164026916027">
        <ele>23.210000000000001</ele>
        <time>2025-05-16T14:47:17Z</time>
      </trkpt>
      <trkpt lat="43.942092005163431" lon="4.560294030234218">
        <ele>22.25</ele>
        <time>2025-05-16T14:47:25Z</time>
      </trkpt>
      <trkpt lat="43.943752963095903" lon="4.560544984415174">
        <ele>24.170000000000002</ele>
        <time>2025-05-16T14:47:39Z</time>
      </trkpt>
      <trkpt lat="43.9438930246979" lon="4.560561999678612">
        <ele>24.170000000000002</ele>
        <time>2025-05-16T14:47:40Z</time>
      </trkpt>
      <trkpt lat="43.945048972964287" lon="4.560254970565438">
        <ele>23.690000000000001</ele>
        <time>2025-05-16T14:47:48Z</time>
      </trkpt>
      <trkpt lat="43.946441961452365" lon="4.559730011969805">
        <ele>24.170000000000002</ele>
        <time>2025-05-16T14:47:56Z</time>
      </trkpt>
      <trkpt lat="43.946619993075728" lon="4.559663040563464">
        <ele>24.170000000000002</ele>
        <time>2025-05-16T14:47:57Z</time>
      </trkpt>
      <trkpt lat="43.948267959058285" lon="4.559067003428936">
        <ele>25.129999999999999</ele>
        <time>2025-05-16T14:48:06Z</time>
      </trkpt>
      <trkpt lat="43.950355974957347" lon="4.55823602154851">
        <ele>24.649999999999999</ele>
        <time>2025-05-16T14:48:17Z</time>
      </trkpt>
      <trkpt lat="43.950844975188375" lon="4.557758001610637">
        <ele>24.649999999999999</ele>
        <time>2025-05-16T14:48:20Z</time>
      </trkpt>
      <trkpt lat="43.951147980988026" lon="4.557382995262742">
        <ele>24.170000000000002</ele>
        <time>2025-05-16T14:48:22Z</time>
      </trkpt>
      <trkpt lat="43.951871003955603" lon="4.556039040908217">
        <ele>23.210000000000001</ele>
        <time>2025-05-16T14:48:28Z</time>
      </trkpt>
      <trkpt lat="43.951945016160607" lon="4.55581096932292">
        <ele>23.210000000000001</ele>
        <time>2025-05-16T14:48:29Z</time>
      </trkpt>
      <trkpt lat="43.952289009466767" lon="4.554103994742036">
        <ele>24.170000000000002</ele>
        <time>2025-05-16T14:48:35Z</time>
      </trkpt>
      <trkpt lat="43.952320022508502" lon="4.553927974775434">
        <ele>24.170000000000002</ele>
        <time>2025-05-16T14:48:37Z</time>
      </trkpt>
      <trkpt lat="43.952629985287786" lon="4.552722992375493">
        <ele>26.09</ele>
        <time>2025-05-16T14:48:47Z</time>
      </trkpt>
      <trkpt lat="43.952926034107804" lon="4.551281975582242">
        <ele>27.530000000000001</ele>
        <time>2025-05-16T14:48:59Z</time>
      </trkpt>
      <trkpt lat="43.952950006350875" lon="4.551177034154534">
        <ele>27.530000000000001</ele>
        <time>2025-05-16T14:49:01Z</time>
      </trkpt>
      <trkpt lat="43.953220993280411" lon="4.550047991797328">
        <ele>28.5</ele>
        <time>2025-05-16T14:49:11Z</time>
      </trkpt>
      <trkpt lat="43.953266004100442" lon="4.549840036779642">
        <ele>28.98</ele>
        <time>2025-05-16T14:49:14Z</time>
      </trkpt>
      <trkpt lat="43.953311014920473" lon="4.549636021256447">
        <ele>29.460000000000001</ele>
        <time>2025-05-16T14:49:16Z</time>
      </trkpt>
      <trkpt lat="43.953638998791575" lon="4.548245966434479">
        <ele>33.299999999999997</ele>
        <time>2025-05-16T14:49:30Z</time>
      </trkpt>
      <trkpt lat="43.953891964629292" lon="4.547196971252561">
        <ele>32.340000000000003</ele>
        <time>2025-05-16T14:49:39Z</time>
      </trkpt>
      <trkpt lat="43.953921971842647" lon="4.54706596210599">
        <ele>32.340000000000003</ele>
        <time>2025-05-16T14:49:40Z</time>
      </trkpt>
      <trkpt lat="43.95395097322762" lon="4.54693696461618">
        <ele>32.340000000000003</ele>
        <time>2025-05-16T14:49:41Z</time>
      </trkpt>
      <trkpt lat="43.953977962955832" lon="4.546820037066937">
        <ele>32.340000000000003</ele>
        <time>2025-05-16T14:49:42Z</time>
      </trkpt>
      <trkpt lat="43.954083994030952" lon="4.54635601490736">
        <ele>31.859999999999999</ele>
        <time>2025-05-16T14:49:46Z</time>
      </trkpt>
      <trkpt lat="43.954164041206241" lon="4.546168008819223">
        <ele>31.859999999999999</ele>
        <time>2025-05-16T14:49:48Z</time>
      </trkpt>
      <trkpt lat="43.954217014834285" lon="4.546101037412882">
        <ele>31.859999999999999</ele>
        <time>2025-05-16T14:49:49Z</time>
      </trkpt>
      <trkpt lat="43.954275017604232" lon="4.546036999672651">
        <ele>31.859999999999999</ele>
        <time>2025-05-16T14:49:50Z</time>
      </trkpt>
      <trkpt lat="43.954438967630267" lon="4.546072036027908">
        <ele>32.340000000000003</ele>
        <time>2025-05-16T14:49:52Z</time>
      </trkpt>
      <trkpt lat="43.954539969563484" lon="4.546150993555784">
        <ele>32.340000000000003</ele>
        <time>2025-05-16T14:49:53Z</time>
      </trkpt>
      <trkpt lat="43.954724036157131" lon="4.546068012714386">
        <ele>31.859999999999999</ele>
        <time>2025-05-16T14:49:54Z</time>
      </trkpt>
      <trkpt lat="43.954723030328751" lon="4.546068012714386">
        <ele>31.859999999999999</ele>
        <time>2025-05-16T14:49:55Z</time>
      </trkpt>
      <trkpt lat="43.954779021441936" lon="4.545978996902704">
        <ele>31.859999999999999</ele>
        <time>2025-05-16T14:49:56Z</time>
      </trkpt>
      <trkpt lat="43.954828977584839" lon="4.545831978321075">
        <ele>31.379999999999999</ele>
        <time>2025-05-16T14:49:57Z</time>
      </trkpt>
      <trkpt lat="43.954840041697025" lon="4.545743968337774">
        <ele>31.379999999999999</ele>
        <time>2025-05-16T14:49:58Z</time>
      </trkpt>
      <trkpt lat="43.954784972593188" lon="4.545579012483358">
        <ele>31.379999999999999</ele>
        <time>2025-05-16T14:49:59Z</time>
      </trkpt>
      <trkpt lat="43.954714983701706" lon="4.545501982793212">
        <ele>31.859999999999999</ele>
        <time>2025-05-16T14:50:00Z</time>
      </trkpt>
      <trkpt lat="43.954668967053294" lon="4.545465018600225">
        <ele>31.859999999999999</ele>
        <time>2025-05-16T14:50:01Z</time>
      </trkpt>
      <trkpt lat="43.954668967053294" lon="4.545465018600225">
        <ele>31.859999999999999</ele>
        <time>2025-05-16T14:50:02Z</time>
      </trkpt>
      <trkpt lat="43.95448699593544" lon="4.545222027227283">
        <ele>31.859999999999999</ele>
        <time>2025-05-16T14:50:03Z</time>
      </trkpt>
      <trkpt lat="43.954480038955808" lon="4.545079031959176">
        <ele>31.859999999999999</ele>
        <time>2025-05-16T14:50:04Z</time>
      </trkpt>
      <trkpt lat="43.954479033127427" lon="4.544924972578883">
        <ele>31.379999999999999</ele>
        <time>2025-05-16T14:50:05Z</time>
      </trkpt>
      <trkpt lat="43.954499987885356" lon="4.544617021456361">
        <ele>30.899999999999999</ele>
        <time>2025-05-16T14:50:07Z</time>
      </trkpt>
      <trkpt lat="43.954510968178511" lon="4.544463967904449">
        <ele>30.420000000000002</ele>
        <time>2025-05-16T14:50:08Z</time>
      </trkpt>
      <trkpt lat="43.954521026462317" lon="4.544312003999949">
        <ele>30.420000000000002</ele>
        <time>2025-05-16T14:50:09Z</time>
      </trkpt>
      <trkpt lat="43.954532006755471" lon="4.544152999296784">
        <ele>29.940000000000001</ele>
        <time>2025-05-16T14:50:10Z</time>
      </trkpt>
      <trkpt lat="43.954541981220245" lon="4.54399298876524">
        <ele>29.460000000000001</ele>
        <time>2025-05-16T14:50:11Z</time>
      </trkpt>
      <trkpt lat="43.954577017575502" lon="4.54322000965476">
        <ele>28.98</ele>
        <time>2025-05-16T14:50:16Z</time>
      </trkpt>
      <trkpt lat="43.954699980095029" lon="4.541774969547987">
        <ele>28.98</ele>
        <time>2025-05-16T14:50:26Z</time>
      </trkpt>
      <trkpt lat="43.954713977873325" lon="4.541632980108261">
        <ele>28.98</ele>
        <time>2025-05-16T14:50:27Z</time>
      </trkpt>
      <trkpt lat="43.954782038927078" lon="4.54059898853302">
        <ele>28.5</ele>
        <time>2025-05-16T14:50:35Z</time>
      </trkpt>
      <trkpt lat="43.954790001735091" lon="4.540476026013494">
        <ele>28.5</ele>
        <time>2025-05-16T14:50:36Z</time>
      </trkpt>
      <trkpt lat="43.954825960099697" lon="4.539826009422541">
        <ele>29.940000000000001</ele>
        <time>2025-05-16T14:50:42Z</time>
      </trkpt>
      <trkpt lat="43.954829983413219" lon="4.539740011096001">
        <ele>30.420000000000002</ele>
        <time>2025-05-16T14:50:43Z</time>
      </trkpt>
      <trkpt lat="43.954833000898361" lon="4.539659963920713">
        <ele>30.899999999999999</ele>
        <time>2025-05-16T14:50:44Z</time>
      </trkpt>
      <trkpt lat="43.954836018383503" lon="4.539576983079314">
        <ele>30.899999999999999</ele>
        <time>2025-05-16T14:50:45Z</time>
      </trkpt>
      <trkpt lat="43.954971972852945" lon="4.539340026676655">
        <ele>31.379999999999999</ele>
        <time>2025-05-16T14:50:47Z</time>
      </trkpt>
      <trkpt lat="43.954982031136751" lon="4.539253022521734">
        <ele>31.859999999999999</ele>
        <time>2025-05-16T14:50:48Z</time>
      </trkpt>
      <trkpt lat="43.954975996166468" lon="4.539147997274995">
        <ele>32.340000000000003</ele>
        <time>2025-05-16T14:50:49Z</time>
      </trkpt>
      <trkpt lat="43.954923022538424" lon="4.539084965363145">
        <ele>32.82</ele>
        <time>2025-05-16T14:50:50Z</time>
      </trkpt>
      <trkpt lat="43.954884968698025" lon="4.539024028927088">
        <ele>33.299999999999997</ele>
        <time>2025-05-16T14:50:51Z</time>
      </trkpt>
      <trkpt lat="43.954839035868645" lon="4.538993015885353">
        <ele>33.780000000000001</ele>
        <time>2025-05-16T14:50:52Z</time>
      </trkpt>
      <trkpt lat="43.954777009785175" lon="4.538988992571831">
        <ele>34.259999999999998</ele>
        <time>2025-05-16T14:50:53Z</time>
      </trkpt>
      <trkpt lat="43.954706015065312" lon="4.538997039198875">
        <ele>34.740000000000002</ele>
        <time>2025-05-16T14:50:54Z</time>
      </trkpt>
      <trkpt lat="43.954552039504051" lon="4.538971977308393">
        <ele>34.740000000000002</ele>
        <time>2025-05-16T14:50:56Z</time>
      </trkpt>
      <trkpt lat="43.954476015642285" lon="4.538934007287026">
        <ele>34.740000000000002</ele>
        <time>2025-05-16T14:50:57Z</time>
      </trkpt>
      <trkpt lat="43.954336037859321" lon="4.538827976211906">
        <ele>34.740000000000002</ele>
        <time>2025-05-16T14:50:59Z</time>
      </trkpt>
      <trkpt lat="43.954084999859333" lon="4.538572998717427">
        <ele>35.229999999999997</ele>
        <time>2025-05-16T14:51:03Z</time>
      </trkpt>
      <trkpt lat="43.953430037945509" lon="4.537941003218293">
        <ele>35.710000000000001</ele>
        <time>2025-05-16T14:51:12Z</time>
      </trkpt>
      <trkpt lat="43.953356025740504" lon="4.537875959649682">
        <ele>35.710000000000001</ele>
        <time>2025-05-16T14:51:13Z</time>
      </trkpt>
      <trkpt lat="43.953291988000274" lon="4.53780303709209">
        <ele>36.189999999999998</ele>
        <time>2025-05-16T14:51:14Z</time>
      </trkpt>
      <trkpt lat="43.953229961916804" lon="4.537730030715466">
        <ele>36.189999999999998</ele>
        <time>2025-05-16T14:51:15Z</time>
      </trkpt>
      <trkpt lat="43.953165002167225" lon="4.537661969661713">
        <ele>36.189999999999998</ele>
        <time>2025-05-16T14:51:16Z</time>
      </trkpt>
      <trkpt lat="43.953030975535512" lon="4.537533978000283">
        <ele>36.189999999999998</ele>
        <time>2025-05-16T14:51:18Z</time>
      </trkpt>
      <trkpt lat="43.952492019161582" lon="4.536979012191296">
        <ele>39.549999999999997</ele>
        <time>2025-05-16T14:51:26Z</time>
      </trkpt>
      <trkpt lat="43.952426975592971" lon="4.536910029128194">
        <ele>40.030000000000001</ele>
        <time>2025-05-16T14:51:27Z</time>
      </trkpt>
      <trkpt lat="43.952247016131878" lon="4.536699978634715">
        <ele>41.950000000000003</ele>
        <time>2025-05-16T14:51:30Z</time>
      </trkpt>
      <trkpt lat="43.952204016968608" lon="4.53662202693522">
        <ele>41.950000000000003</ele>
        <time>2025-05-16T14:51:31Z</time>
      </trkpt>
      <trkpt lat="43.952173003926873" lon="4.536491017788649">
        <ele>41.950000000000003</ele>
        <time>2025-05-16T14:51:33Z</time>
      </trkpt>
      <trkpt lat="43.952206028625369" lon="4.536335030570626">
        <ele>42.439999999999998</ele>
        <time>2025-05-16T14:51:36Z</time>
      </trkpt>
      <trkpt lat="43.952342988923192" lon="4.53617300838232">
        <ele>41.950000000000003</ele>
        <time>2025-05-16T14:51:41Z</time>
      </trkpt>
      <trkpt lat="43.952366961166263" lon="4.53617200255394">
        <ele>41.469999999999999</ele>
        <time>2025-05-16T14:51:42Z</time>
      </trkpt>
      <trkpt lat="43.952407026663423" lon="4.536175020039082">
        <ele>41.469999999999999</ele>
        <time>2025-05-16T14:51:54Z</time>
      </trkpt>
      <trkpt lat="43.95240199752152" lon="4.53617300838232">
        <ele>41.950000000000003</ele>
        <time>2025-05-16T14:52:28Z</time>
      </trkpt>
      <trkpt lat="43.952400991693139" lon="4.536175020039082">
        <ele>41.950000000000003</ele>
        <time>2025-05-16T14:53:17Z</time>
      </trkpt>
      <trkpt lat="43.952411971986294" lon="4.536135960370302">
        <ele>41.469999999999999</ele>
        <time>2025-05-16T14:53:51Z</time>
      </trkpt>
      <trkpt lat="43.95242303609848" lon="4.536113999783993">
        <ele>41.469999999999999</ele>
        <time>2025-05-16T14:53:52Z</time>
      </trkpt>
      <trkpt lat="43.952438961714506" lon="4.536084998399019">
        <ele>40.990000000000002</ele>
        <time>2025-05-16T14:53:53Z</time>
      </trkpt>
      <trkpt lat="43.95246603526175" lon="4.536055997014046">
        <ele>41.469999999999999</ele>
        <time>2025-05-16T14:53:54Z</time>
      </trkpt>
      <trkpt lat="43.952502999454737" lon="4.536032024770975">
        <ele>41.469999999999999</ele>
        <time>2025-05-16T14:53:55Z</time>
      </trkpt>
      <trkpt lat="43.952538035809994" lon="4.536020960658789">
        <ele>41.469999999999999</ele>
        <time>2025-05-16T14:53:56Z</time>
      </trkpt>
      <trkpt lat="43.952562008053064" lon="4.536010986194015">
        <ele>40.990000000000002</ele>
        <time>2025-05-16T14:53:57Z</time>
      </trkpt>
      <trkpt lat="43.952581034973264" lon="4.53600101172924">
        <ele>40.509999999999998</ele>
        <time>2025-05-16T14:53:58Z</time>
      </trkpt>
      <trkpt lat="43.952635014429688" lon="4.535956000909209">
        <ele>37.630000000000003</ele>
        <time>2025-05-16T14:54:02Z</time>
      </trkpt>
      <trkpt lat="43.952671978622675" lon="4.535942003130913">
        <ele>34.259999999999998</ele>
        <time>2025-05-16T14:54:18Z</time>
      </trkpt>
      <trkpt lat="43.952781027182937" lon="4.535900009796023">
        <ele>31.859999999999999</ele>
        <time>2025-05-16T14:54:36Z</time>
      </trkpt>
      <trkpt lat="43.952897032722831" lon="4.535833960399032">
        <ele>31.859999999999999</ele>
        <time>2025-05-16T14:54:38Z</time>
      </trkpt>
      <trkpt lat="43.953215964138508" lon="4.535748967900872">
        <ele>29.940000000000001</ele>
        <time>2025-05-16T14:54:44Z</time>
      </trkpt>
      <trkpt lat="43.953259969130158" lon="4.535747040063143">
        <ele>28.98</ele>
        <time>2025-05-16T14:54:45Z</time>
      </trkpt>
      <trkpt lat="43.953358959406614" lon="4.535762965679169">
        <ele>27.050000000000001</ele>
        <time>2025-05-16T14:54:47Z</time>
      </trkpt>
      <trkpt lat="43.953408999368548" lon="4.535775035619736">
        <ele>26.09</ele>
        <time>2025-05-16T14:54:48Z</time>
      </trkpt>
      <trkpt lat="43.953459039330482" lon="4.535781992599368">
        <ele>25.129999999999999</ele>
        <time>2025-05-16T14:54:49Z</time>
      </trkpt>
      <trkpt lat="43.953504972159863" lon="4.53578501008451">
        <ele>24.170000000000002</ele>
        <time>2025-05-16T14:54:50Z</time>
      </trkpt>
      <trkpt lat="43.953591976314783" lon="4.535798002034426">
        <ele>22.73</ele>
        <time>2025-05-16T14:54:52Z</time>
      </trkpt>
      <trkpt lat="43.953966982662678" lon="4.535885006189346">
        <ele>15.52</ele>
        <time>2025-05-16T14:55:02Z</time>
      </trkpt>
      <trkpt lat="43.95431499928236" lon="4.535638997331262">
        <ele>14.08</ele>
        <time>2025-05-16T14:55:11Z</time>
      </trkpt>
      <trkpt lat="43.954304018989205" lon="4.535507988184691">
        <ele>15.52</ele>
        <time>2025-05-16T14:55:17Z</time>
      </trkpt>
      <trkpt lat="43.954299995675683" lon="4.53546398319304">
        <ele>15.52</ele>
        <time>2025-05-16T14:55:18Z</time>
      </trkpt>
      <trkpt lat="43.954296978190541" lon="4.535432970151305">
        <ele>16</ele>
        <time>2025-05-16T14:55:19Z</time>
      </trkpt>
      <trkpt lat="43.9542939607054" lon="4.535401035100222">
        <ele>16.48</ele>
        <time>2025-05-16T14:55:20Z</time>
      </trkpt>
      <trkpt lat="43.954291027039289" lon="4.535365998744965">
        <ele>16.960000000000001</ele>
        <time>2025-05-16T14:55:21Z</time>
      </trkpt>
      <trkpt lat="43.954288009554148" lon="4.535335991531611">
        <ele>16.960000000000001</ele>
        <time>2025-05-16T14:55:22Z</time>
      </trkpt>
      <trkpt lat="43.954284992069006" lon="4.535298021510243">
        <ele>16.960000000000001</ele>
        <time>2025-05-16T14:55:23Z</time>
      </trkpt>
      <trkpt lat="43.954281974583864" lon="4.535272037610412">
        <ele>16.960000000000001</ele>
        <time>2025-05-16T14:55:24Z</time>
      </trkpt>
      <trkpt lat="43.954281974583864" lon="4.535272037610412">
        <ele>17.440000000000001</ele>
        <time>2025-05-16T14:55:26Z</time>
      </trkpt>
      <trkpt lat="43.954275017604232" lon="4.535188972949982">
        <ele>17.920000000000002</ele>
        <time>2025-05-16T14:55:28Z</time>
      </trkpt>
      <trkpt lat="43.954273005947471" lon="4.535166006535292">
        <ele>17.920000000000002</ele>
        <time>2025-05-16T14:55:29Z</time>
      </trkpt>
      <trkpt lat="43.954261019825935" lon="4.535036003217101">
        <ele>18.399999999999999</ele>
        <time>2025-05-16T14:55:30Z</time>
      </trkpt>
      <trkpt lat="43.954030014574528" lon="4.535126024857163">
        <ele>18.879999999999999</ele>
        <time>2025-05-16T14:55:32Z</time>
      </trkpt>
      <trkpt lat="43.953684009611607" lon="4.534953022375703">
        <ele>29.940000000000001</ele>
        <time>2025-05-16T14:55:49Z</time>
      </trkpt>
      <trkpt lat="43.953402964398265" lon="4.534864006564021">
        <ele>35.710000000000001</ele>
        <time>2025-05-16T14:55:59Z</time>
      </trkpt>
      <trkpt lat="43.953462978824973" lon="4.534453041851521">
        <ele>38.109999999999999</ele>
        <time>2025-05-16T14:56:08Z</time>
      </trkpt>
      <trkpt lat="43.953467002138495" lon="4.534435020759702">
        <ele>37.630000000000003</ele>
        <time>2025-05-16T14:56:10Z</time>
      </trkpt>
      <trkpt lat="43.953479994088411" lon="4.534436026588082">
        <ele>37.630000000000003</ele>
        <time>2025-05-16T14:56:11Z</time>
      </trkpt>
      <trkpt lat="43.953494997695088" lon="4.534438038244844">
        <ele>37.630000000000003</ele>
        <time>2025-05-16T14:56:12Z</time>
      </trkpt>
      <trkpt lat="43.953511007130146" lon="4.534438960254192">
        <ele>38.109999999999999</ele>
        <time>2025-05-16T14:56:13Z</time>
      </trkpt>
      <trkpt lat="43.953530034050345" lon="4.534440971910954">
        <ele>38.109999999999999</ele>
        <time>2025-05-16T14:56:14Z</time>
      </trkpt>
      <trkpt lat="43.95362701267004" lon="4.534450024366379">
        <ele>38.109999999999999</ele>
        <time>2025-05-16T14:56:18Z</time>
      </trkpt>
      <trkpt lat="43.953703036531806" lon="4.534456981346011">
        <ele>39.07</ele>
        <time>2025-05-16T14:56:20Z</time>
      </trkpt>
      <trkpt lat="43.953703036531806" lon="4.534456981346011">
        <ele>39.07</ele>
        <time>2025-05-16T14:56:32Z</time>
      </trkpt>
      <trkpt lat="43.953702030703425" lon="4.534352961927652">
        <ele>40.030000000000001</ele>
        <time>2025-05-16T15:40:37Z</time>
      </trkpt>
      <trkpt lat="43.95368903875351" lon="4.534377017989755">
        <ele>47.240000000000002</ele>
        <time>2025-05-16T15:41:03Z</time>
      </trkpt>
      <trkpt lat="43.953701024875045" lon="4.534383974969387">
        <ele>45.32</ele>
        <time>2025-05-16T15:41:26Z</time>
      </trkpt>
      <trkpt lat="43.953664982691407" lon="4.53441197052598">
        <ele>45.799999999999997</ele>
        <time>2025-05-16T15:41:49Z</time>
      </trkpt>
      <trkpt lat="43.953668000176549" lon="4.534412976354361">
        <ele>45.799999999999997</ele>
        <time>2025-05-16T15:42:36Z</time>
      </trkpt>
      <trkpt lat="43.95366900600493" lon="4.534413982182741">
        <ele>45.799999999999997</ele>
        <time>2025-05-16T15:43:07Z</time>
      </trkpt>
      <trkpt lat="43.953668000176549" lon="4.534414988011122">
        <ele>45.799999999999997</ele>
        <time>2025-05-16T15:43:50Z</time>
      </trkpt>
      <trkpt lat="43.953612009063363" lon="4.534449018537998">
        <ele>45.799999999999997</ele>
        <time>2025-05-16T15:43:54Z</time>
      </trkpt>
      <trkpt lat="43.953580996021628" lon="4.534446001052856">
        <ele>45.799999999999997</ele>
        <time>2025-05-16T15:43:55Z</time>
      </trkpt>
      <trkpt lat="43.953442024067044" lon="4.534559994935989">
        <ele>46.280000000000001</ele>
        <time>2025-05-16T15:44:00Z</time>
      </trkpt>
      <trkpt lat="43.953430037945509" lon="4.534617997705936">
        <ele>46.280000000000001</ele>
        <time>2025-05-16T15:44:01Z</time>
      </trkpt>
      <trkpt lat="43.953360971063375" lon="4.535536989569664">
        <ele>45.799999999999997</ele>
        <time>2025-05-16T15:44:15Z</time>
      </trkpt>
      <trkpt lat="43.953285031020641" lon="4.535752991214395">
        <ele>46.280000000000001</ele>
        <time>2025-05-16T15:44:18Z</time>
      </trkpt>
      <trkpt lat="43.953243959695101" lon="4.535763971507549">
        <ele>46.759999999999998</ele>
        <time>2025-05-16T15:44:19Z</time>
      </trkpt>
      <trkpt lat="43.953199032694101" lon="4.535776041448116">
        <ele>46.759999999999998</ele>
        <time>2025-05-16T15:44:20Z</time>
      </trkpt>
      <trkpt lat="43.95315301604569" lon="4.535788027569652">
        <ele>47.240000000000002</ele>
        <time>2025-05-16T15:44:21Z</time>
      </trkpt>
      <trkpt lat="43.953105993568897" lon="4.535801019519568">
        <ele>47.240000000000002</ele>
        <time>2025-05-16T15:44:22Z</time>
      </trkpt>
      <trkpt lat="43.953059976920485" lon="4.535813005641103">
        <ele>47.240000000000002</ele>
        <time>2025-05-16T15:44:23Z</time>
      </trkpt>
      <trkpt lat="43.953017983585596" lon="4.535824991762638">
        <ele>47.719999999999999</ele>
        <time>2025-05-16T15:44:24Z</time>
      </trkpt>
      <trkpt lat="43.952972972765565" lon="4.535836977884173">
        <ele>47.719999999999999</ele>
        <time>2025-05-16T15:44:25Z</time>
      </trkpt>
      <trkpt lat="43.952758982777596" lon="4.53589397482574">
        <ele>48.200000000000003</ele>
        <time>2025-05-16T15:44:34Z</time>
      </trkpt>
      <trkpt lat="43.952758982777596" lon="4.53589397482574">
        <ele>47.719999999999999</ele>
        <time>2025-05-16T15:44:48Z</time>
      </trkpt>
      <trkpt lat="43.952706009149551" lon="4.535929011180997">
        <ele>47.719999999999999</ele>
        <time>2025-05-16T15:45:06Z</time>
      </trkpt>
      <trkpt lat="43.952679019421339" lon="4.535947032272816">
        <ele>47.240000000000002</ele>
        <time>2025-05-16T15:45:07Z</time>
      </trkpt>
      <trkpt lat="43.952657980844378" lon="4.535960024222732">
        <ele>47.240000000000002</ele>
        <time>2025-05-16T15:45:08Z</time>
      </trkpt>
      <trkpt lat="43.952516997233033" lon="4.536052979528904">
        <ele>46.759999999999998</ele>
        <time>2025-05-16T15:45:17Z</time>
      </trkpt>
      <trkpt lat="43.952169986441731" lon="4.536279961466789">
        <ele>44.840000000000003</ele>
        <time>2025-05-16T15:45:27Z</time>
      </trkpt>
      <trkpt lat="43.95216504111886" lon="4.53645296394825">
        <ele>43.399999999999999</ele>
        <time>2025-05-16T15:45:31Z</time>
      </trkpt>
      <trkpt lat="43.952174009755254" lon="4.536501998081803">
        <ele>43.399999999999999</ele>
        <time>2025-05-16T15:45:32Z</time>
      </trkpt>
      <trkpt lat="43.952181972563267" lon="4.536546003073454">
        <ele>42.920000000000002</ele>
        <time>2025-05-16T15:45:33Z</time>
      </trkpt>
      <trkpt lat="43.95218800753355" lon="4.536576010286808">
        <ele>42.920000000000002</ele>
        <time>2025-05-16T15:45:34Z</time>
      </trkpt>
      <trkpt lat="43.952193036675453" lon="4.53660199418664">
        <ele>42.920000000000002</ele>
        <time>2025-05-16T15:45:35Z</time>
      </trkpt>
      <trkpt lat="43.952198987826705" lon="4.536634013056755">
        <ele>42.920000000000002</ele>
        <time>2025-05-16T15:45:36Z</time>
      </trkpt>
      <trkpt lat="43.952214997261763" lon="4.536659996956587">
        <ele>42.920000000000002</ele>
        <time>2025-05-16T15:45:44Z</time>
      </trkpt>
      <trkpt lat="43.952326979488134" lon="4.536779019981623">
        <ele>43.399999999999999</ele>
        <time>2025-05-16T15:45:47Z</time>
      </trkpt>
      <trkpt lat="43.952428987249732" lon="4.536886978894472">
        <ele>43.880000000000003</ele>
        <time>2025-05-16T15:45:49Z</time>
      </trkpt>
      <trkpt lat="43.95259503275156" lon="4.537060987204313">
        <ele>43.399999999999999</ele>
        <time>2025-05-16T15:45:52Z</time>
      </trkpt>
      <trkpt lat="43.953268015757203" lon="4.537744028493762">
        <ele>42.439999999999998</ele>
        <time>2025-05-16T15:46:02Z</time>
      </trkpt>
      <trkpt lat="43.954114001244307" lon="4.538615997880697">
        <ele>41.950000000000003</ele>
        <time>2025-05-16T15:46:14Z</time>
      </trkpt>
      <trkpt lat="43.954671984538436" lon="4.53928797505796">
        <ele>42.920000000000002</ele>
        <time>2025-05-16T15:46:24Z</time>
      </trkpt>
      <trkpt lat="43.954710960388184" lon="4.539391994476318">
        <ele>42.920000000000002</ele>
        <time>2025-05-16T15:46:26Z</time>
      </trkpt>
      <trkpt lat="43.954710960388184" lon="4.539391994476318">
        <ele>42.920000000000002</ele>
        <time>2025-05-16T15:46:27Z</time>
      </trkpt>
      <trkpt lat="43.954835012555122" lon="4.539587963372469">
        <ele>42.439999999999998</ele>
        <time>2025-05-16T15:46:28Z</time>
      </trkpt>
      <trkpt lat="43.954831995069981" lon="4.539683014154434">
        <ele>42.439999999999998</ele>
        <time>2025-05-16T15:46:29Z</time>
      </trkpt>
      <trkpt lat="43.954827971756458" lon="4.539800025522709">
        <ele>42.439999999999998</ele>
        <time>2025-05-16T15:46:30Z</time>
      </trkpt>
      <trkpt lat="43.954823026433587" lon="4.539921982213855">
        <ele>42.439999999999998</ele>
        <time>2025-05-16T15:46:31Z</time>
      </trkpt>
      <trkpt lat="43.954817997291684" lon="4.540045028552413">
        <ele>41.950000000000003</ele>
        <time>2025-05-16T15:46:32Z</time>
      </trkpt>
      <trkpt lat="43.954737028107047" lon="4.541284963488579">
        <ele>40.030000000000001</ele>
        <time>2025-05-16T15:46:41Z</time>
      </trkpt>
      <trkpt lat="43.954646000638604" lon="4.542303029447794">
        <ele>37.149999999999999</ele>
        <time>2025-05-16T15:46:48Z</time>
      </trkpt>
      <trkpt lat="43.954634014517069" lon="4.542449964210391">
        <ele>36.670000000000002</ele>
        <time>2025-05-16T15:46:49Z</time>
      </trkpt>
      <trkpt lat="43.9545529615134" lon="4.543655030429363">
        <ele>33.780000000000001</ele>
        <time>2025-05-16T15:46:57Z</time>
      </trkpt>
      <trkpt lat="43.954548016190529" lon="4.543811017647386">
        <ele>33.780000000000001</ele>
        <time>2025-05-16T15:46:58Z</time>
      </trkpt>
      <trkpt lat="43.954542987048626" lon="4.543962981551886">
        <ele>33.780000000000001</ele>
        <time>2025-05-16T15:46:59Z</time>
      </trkpt>
      <trkpt lat="43.954506022855639" lon="4.544538985937834">
        <ele>33.780000000000001</ele>
        <time>2025-05-16T15:47:03Z</time>
      </trkpt>
      <trkpt lat="43.95448699593544" lon="4.545225966721773">
        <ele>34.740000000000002</ele>
        <time>2025-05-16T15:47:08Z</time>
      </trkpt>
      <trkpt lat="43.954491019248962" lon="4.545314982533455">
        <ele>35.229999999999997</ele>
        <time>2025-05-16T15:47:09Z</time>
      </trkpt>
      <trkpt lat="43.954494958743453" lon="4.545391006395221">
        <ele>35.710000000000001</ele>
        <time>2025-05-16T15:47:10Z</time>
      </trkpt>
      <trkpt lat="43.954347018152475" lon="4.545550011098385">
        <ele>36.189999999999998</ele>
        <time>2025-05-16T15:47:11Z</time>
      </trkpt>
      <trkpt lat="43.954347018152475" lon="4.545550011098385">
        <ele>36.189999999999998</ele>
        <time>2025-05-16T15:47:12Z</time>
      </trkpt>
      <trkpt lat="43.954328997060657" lon="4.545593010261655">
        <ele>36.670000000000002</ele>
        <time>2025-05-16T15:47:13Z</time>
      </trkpt>
      <trkpt lat="43.954290021210909" lon="4.545682026073337">
        <ele>37.149999999999999</ele>
        <time>2025-05-16T15:47:14Z</time>
      </trkpt>
      <trkpt lat="43.954030014574528" lon="4.546591965481639">
        <ele>36.189999999999998</ele>
        <time>2025-05-16T15:47:22Z</time>
      </trkpt>
      <trkpt lat="43.953643022105098" lon="4.548227023333311">
        <ele>34.259999999999998</ele>
        <time>2025-05-16T15:47:35Z</time>
      </trkpt>
      <trkpt lat="43.953298022970557" lon="4.549693018198013">
        <ele>34.259999999999998</ele>
        <time>2025-05-16T15:47:47Z</time>
      </trkpt>
      <trkpt lat="43.953064000234008" lon="4.550703959539533">
        <ele>34.259999999999998</ele>
        <time>2025-05-16T15:47:56Z</time>
      </trkpt>
      <trkpt lat="43.952783960849047" lon="4.551940960809588">
        <ele>32.82</ele>
        <time>2025-05-16T15:48:05Z</time>
      </trkpt>
      <trkpt lat="43.95242303609848" lon="4.553487002849579">
        <ele>29.940000000000001</ele>
        <time>2025-05-16T15:48:14Z</time>
      </trkpt>
      <trkpt lat="43.952050963416696" lon="4.555484997108579">
        <ele>28.02</ele>
        <time>2025-05-16T15:48:24Z</time>
      </trkpt>
      <trkpt lat="43.951896987855434" lon="4.555957987904549">
        <ele>27.530000000000001</ele>
        <time>2025-05-16T15:48:26Z</time>
      </trkpt>
      <trkpt lat="43.951820963993669" lon="4.556192010641098">
        <ele>28.02</ele>
        <time>2025-05-16T15:48:27Z</time>
      </trkpt>
      <trkpt lat="43.951727002859116" lon="4.556418992578983">
        <ele>27.530000000000001</ele>
        <time>2025-05-16T15:48:28Z</time>
      </trkpt>
      <trkpt lat="43.951604962348938" lon="4.556622002273798">
        <ele>27.530000000000001</ele>
        <time>2025-05-16T15:48:29Z</time>
      </trkpt>
      <trkpt lat="43.951477976515889" lon="4.556832974776626">
        <ele>27.530000000000001</ele>
        <time>2025-05-16T15:48:30Z</time>
      </trkpt>
      <trkpt lat="43.950579017400742" lon="4.558042986318469">
        <ele>28.02</ele>
        <time>2025-05-16T15:48:37Z</time>
      </trkpt>
      <trkpt lat="43.949403036385775" lon="4.558717980980873">
        <ele>28.02</ele>
        <time>2025-05-16T15:48:44Z</time>
      </trkpt>
      <trkpt lat="43.947816006839275" lon="4.559208992868662">
        <ele>24.649999999999999</ele>
        <time>2025-05-16T15:48:52Z</time>
      </trkpt>
      <trkpt lat="43.9463019836694" lon="4.559782985597849">
        <ele>22.25</ele>
        <time>2025-05-16T15:49:00Z</time>
      </trkpt>
      <trkpt lat="43.944629039615393" lon="4.560412969440222">
        <ele>19.359999999999999</ele>
        <time>2025-05-16T15:49:10Z</time>
      </trkpt>
      <trkpt lat="43.944301977753639" lon="4.560530986636877">
        <ele>18.879999999999999</ele>
        <time>2025-05-16T15:49:12Z</time>
      </trkpt>
      <trkpt lat="43.943652966991067" lon="4.560531992465258">
        <ele>18.399999999999999</ele>
        <time>2025-05-16T15:49:16Z</time>
      </trkpt>
      <trkpt lat="43.942434992641211" lon="4.560361001640558">
        <ele>19.84</ele>
        <time>2025-05-16T15:49:25Z</time>
      </trkpt>
      <trkpt lat="43.941624965518713" lon="4.560201996937394">
        <ele>21.77</ele>
        <time>2025-05-16T15:49:34Z</time>
      </trkpt>
      <trkpt lat="43.941187011078" lon="4.560133013874292">
        <ele>20.32</ele>
        <time>2025-05-16T15:49:39Z</time>
      </trkpt>
      <trkpt lat="43.94097201526165" lon="4.560094038024545">
        <ele>20.32</ele>
        <time>2025-05-16T15:49:42Z</time>
      </trkpt>
      <trkpt lat="43.940921975299716" lon="4.56008498556912">
        <ele>19.84</ele>
        <time>2025-05-16T15:49:43Z</time>
      </trkpt>
      <trkpt lat="43.940751990303397" lon="4.560053972527385">
        <ele>18.879999999999999</ele>
        <time>2025-05-16T15:49:46Z</time>
      </trkpt>
      <trkpt lat="43.94069298170507" lon="4.56004299223423">
        <ele>18.879999999999999</ele>
        <time>2025-05-16T15:49:47Z</time>
      </trkpt>
      <trkpt lat="43.940631039440632" lon="4.560032011941075">
        <ele>18.399999999999999</ele>
        <time>2025-05-16T15:49:48Z</time>
      </trkpt>
      <trkpt lat="43.940569013357162" lon="4.56002002581954">
        <ele>17.920000000000002</ele>
        <time>2025-05-16T15:49:49Z</time>
      </trkpt>
      <trkpt lat="43.940505981445313" lon="4.560008961707354">
        <ele>17.920000000000002</ele>
        <time>2025-05-16T15:49:50Z</time>
      </trkpt>
      <trkpt lat="43.940447978675365" lon="4.559996975585818">
        <ele>17.440000000000001</ele>
        <time>2025-05-16T15:49:51Z</time>
      </trkpt>
      <trkpt lat="43.940384024754167" lon="4.559991024434567">
        <ele>17.440000000000001</ele>
        <time>2025-05-16T15:49:52Z</time>
      </trkpt>
      <trkpt lat="43.940291991457343" lon="4.559991024434567">
        <ele>16.960000000000001</ele>
        <time>2025-05-16T15:49:53Z</time>
      </trkpt>
      <trkpt lat="43.940107002854347" lon="4.55997702665627">
        <ele>16.48</ele>
        <time>2025-05-16T15:49:56Z</time>
      </trkpt>
      <trkpt lat="43.940041959285736" lon="4.559971997514367">
        <ele>16</ele>
        <time>2025-05-16T15:49:57Z</time>
      </trkpt>
      <trkpt lat="43.939979011192918" lon="4.559967974200845">
        <ele>16</ele>
        <time>2025-05-16T15:49:58Z</time>
      </trkpt>
      <trkpt lat="43.939601993188262" lon="4.559940984472632">
        <ele>14.56</ele>
        <time>2025-05-16T15:50:04Z</time>
      </trkpt>
      <trkpt lat="43.939539967104793" lon="4.559936039149761">
        <ele>14.08</ele>
        <time>2025-05-16T15:50:05Z</time>
      </trkpt>
      <trkpt lat="43.939357995986938" lon="4.559922963380814">
        <ele>13.119999999999999</ele>
        <time>2025-05-16T15:50:08Z</time>
      </trkpt>
      <trkpt lat="43.939244002103806" lon="4.559915000572801">
        <ele>12.15</ele>
        <time>2025-05-16T15:50:10Z</time>
      </trkpt>
      <trkpt lat="43.939137971028686" lon="4.559907959774137">
        <ele>10.23</ele>
        <time>2025-05-16T15:50:17Z</time>
      </trkpt>
      <trkpt lat="43.939137971028686" lon="4.559907959774137">
        <ele>10.23</ele>
        <time>2025-05-16T15:50:39Z</time>
      </trkpt>
      <trkpt lat="43.939111987128854" lon="4.559906031936407">
        <ele>10.23</ele>
        <time>2025-05-16T15:50:52Z</time>
      </trkpt>
      <trkpt lat="43.939111987128854" lon="4.559906031936407">
        <ele>10.23</ele>
        <time>2025-05-16T15:50:53Z</time>
      </trkpt>
      <trkpt lat="43.939100001007318" lon="4.559904020279646">
        <ele>10.23</ele>
        <time>2025-05-16T15:50:54Z</time>
      </trkpt>
      <trkpt lat="43.939090026542544" lon="4.559903014451265">
        <ele>10.710000000000001</ele>
        <time>2025-05-16T15:50:55Z</time>
      </trkpt>
      <trkpt lat="43.939075022935867" lon="4.559902008622885">
        <ele>11.19</ele>
        <time>2025-05-16T15:50:56Z</time>
      </trkpt>
      <trkpt lat="43.939049039036036" lon="4.559898991137743">
        <ele>11.67</ele>
        <time>2025-05-16T15:50:57Z</time>
      </trkpt>
      <trkpt lat="43.938749972730875" lon="4.559752978384495">
        <ele>12.15</ele>
        <time>2025-05-16T15:51:03Z</time>
      </trkpt>
      <trkpt lat="43.938741004094481" lon="4.559710985049605">
        <ele>12.15</ele>
        <time>2025-05-16T15:51:04Z</time>
      </trkpt>
      <trkpt lat="43.938485020771623" lon="4.558910010382533">
        <ele>13.119999999999999</ele>
        <time>2025-05-16T15:51:13Z</time>
      </trkpt>
      <trkpt lat="43.937743976712227" lon="4.557493971660733">
        <ele>20.32</ele>
        <time>2025-05-16T15:51:27Z</time>
      </trkpt>
      <trkpt lat="43.937036041170359" lon="4.55619796179235">
        <ele>24.649999999999999</ele>
        <time>2025-05-16T15:51:40Z</time>
      </trkpt>
      <trkpt lat="43.93699798732996" lon="4.556070975959301">
        <ele>24.649999999999999</ele>
        <time>2025-05-16T15:51:41Z</time>
      </trkpt>
      <trkpt lat="43.937030006200075" lon="4.555956982076168">
        <ele>25.129999999999999</ele>
        <time>2025-05-16T15:51:42Z</time>
      </trkpt>
      <trkpt lat="43.937022965401411" lon="4.555926974862814">
        <ele>25.609999999999999</ele>
        <time>2025-05-16T15:51:43Z</time>
      </trkpt>
      <trkpt lat="43.937004022300243" lon="4.55585204064846">
        <ele>25.609999999999999</ele>
        <time>2025-05-16T15:51:44Z</time>
      </trkpt>
      <trkpt lat="43.936956999823451" lon="4.555769981816411">
        <ele>25.609999999999999</ele>
        <time>2025-05-16T15:51:45Z</time>
      </trkpt>
      <trkpt lat="43.936877958476543" lon="4.555751960724592">
        <ele>25.609999999999999</ele>
        <time>2025-05-16T15:51:46Z</time>
      </trkpt>
      <trkpt lat="43.936815010383725" lon="4.555777022615075">
        <ele>25.609999999999999</ele>
        <time>2025-05-16T15:51:47Z</time>
      </trkpt>
      <trkpt lat="43.93676396459341" lon="4.555844999849796">
        <ele>26.09</ele>
        <time>2025-05-16T15:51:48Z</time>
      </trkpt>
      <trkpt lat="43.936750972643495" lon="4.555871989578009">
        <ele>26.09</ele>
        <time>2025-05-16T15:51:49Z</time>
      </trkpt>
      <trkpt lat="43.936721971258521" lon="4.556093020364642">
        <ele>26.09</ele>
        <time>2025-05-16T15:51:50Z</time>
      </trkpt>
      <trkpt lat="43.936658017337322" lon="4.55615303479135">
        <ele>26.09</ele>
        <time>2025-05-16T15:51:51Z</time>
      </trkpt>
      <trkpt lat="43.93658903427422" lon="4.55621799454093">
        <ele>26.09</ele>
        <time>2025-05-16T15:51:52Z</time>
      </trkpt>
      <trkpt lat="43.936206987127662" lon="4.556553019210696">
        <ele>25.609999999999999</ele>
        <time>2025-05-16T15:51:57Z</time>
      </trkpt>
      <trkpt lat="43.935570968315005" lon="4.556933976709843">
        <ele>25.129999999999999</ele>
        <time>2025-05-16T15:52:05Z</time>
      </trkpt>
      <trkpt lat="43.935416992753744" lon="4.557003965601325">
        <ele>25.129999999999999</ele>
        <time>2025-05-16T15:52:07Z</time>
      </trkpt>
      <trkpt lat="43.935246001929045" lon="4.557064985856414">
        <ele>25.129999999999999</ele>
        <time>2025-05-16T15:52:09Z</time>
      </trkpt>
      <trkpt lat="43.935161009430885" lon="4.557094993069768">
        <ele>24.649999999999999</ele>
        <time>2025-05-16T15:52:10Z</time>
      </trkpt>
      <trkpt lat="43.93506595864892" lon="4.557094993069768">
        <ele>24.649999999999999</ele>
        <time>2025-05-16T15:52:11Z</time>
      </trkpt>
      <trkpt lat="43.934974009171128" lon="4.557094993069768">
        <ele>24.649999999999999</ele>
        <time>2025-05-16T15:52:12Z</time>
      </trkpt>
      <trkpt lat="43.934894967824221" lon="4.557094993069768">
        <ele>24.170000000000002</ele>
        <time>2025-05-16T15:52:13Z</time>
      </trkpt>
      <trkpt lat="43.934749960899353" lon="4.55707898363471">
        <ele>23.210000000000001</ele>
        <time>2025-05-16T15:52:15Z</time>
      </trkpt>
      <trkpt lat="43.934694975614548" lon="4.557066997513175">
        <ele>22.73</ele>
        <time>2025-05-16T15:52:16Z</time>
      </trkpt>
      <trkpt lat="43.934653988108039" lon="4.557058028876782">
        <ele>22.73</ele>
        <time>2025-05-16T15:52:17Z</time>
      </trkpt>
      <trkpt lat="43.934626998379827" lon="4.557051993906498">
        <ele>22.25</ele>
        <time>2025-05-16T15:52:18Z</time>
      </trkpt>
      <trkpt lat="43.934626998379827" lon="4.557051993906498">
        <ele>21.77</ele>
        <time>2025-05-16T15:52:19Z</time>
      </trkpt>
      <trkpt lat="43.934626998379827" lon="4.557051993906498">
        <ele>21.77</ele>
        <time>2025-05-16T15:52:20Z</time>
      </trkpt>
      <trkpt lat="43.934580981731415" lon="4.557079989463091">
        <ele>21.289999999999999</ele>
        <time>2025-05-16T15:52:21Z</time>
      </trkpt>
      <trkpt lat="43.934545023366809" lon="4.557103039696813">
        <ele>20.809999999999999</ele>
        <time>2025-05-16T15:52:22Z</time>
      </trkpt>
      <trkpt lat="43.934492971748114" lon="4.557134974747896">
        <ele>21.289999999999999</ele>
        <time>2025-05-16T15:52:23Z</time>
      </trkpt>
      <trkpt lat="43.934455001726747" lon="4.557159030809999">
        <ele>21.289999999999999</ele>
        <time>2025-05-16T15:52:24Z</time>
      </trkpt>
      <trkpt lat="43.934431029483676" lon="4.557221978902817">
        <ele>21.77</ele>
        <time>2025-05-16T15:52:25Z</time>
      </trkpt>
      <trkpt lat="43.934393981471658" lon="4.557317029684782">
        <ele>22.25</ele>
        <time>2025-05-16T15:52:26Z</time>
      </trkpt>
      <trkpt lat="43.934357017278671" lon="4.557413002476096">
        <ele>23.210000000000001</ele>
        <time>2025-05-16T15:52:27Z</time>
      </trkpt>
      <trkpt lat="43.934304965659976" lon="4.557545017451048">
        <ele>23.690000000000001</ele>
        <time>2025-05-16T15:52:28Z</time>
      </trkpt>
      <trkpt lat="43.934285016730428" lon="4.557630009949207">
        <ele>24.170000000000002</ele>
        <time>2025-05-16T15:52:29Z</time>
      </trkpt>
      <trkpt lat="43.934255009517074" lon="4.557762024924159">
        <ele>25.129999999999999</ele>
        <time>2025-05-16T15:52:30Z</time>
      </trkpt>
      <trkpt lat="43.934188960120082" lon="4.55804399214685">
        <ele>26.09</ele>
        <time>2025-05-16T15:52:32Z</time>
      </trkpt>
      <trkpt lat="43.933963989838958" lon="4.558763997629285">
        <ele>28.5</ele>
        <time>2025-05-16T15:52:37Z</time>
      </trkpt>
      <trkpt lat="43.933897018432617" lon="4.558898024260998">
        <ele>28.5</ele>
        <time>2025-05-16T15:52:38Z</time>
      </trkpt>
      <trkpt lat="43.933804985135794" lon="4.559001959860325">
        <ele>28.5</ele>
        <time>2025-05-16T15:52:39Z</time>
      </trkpt>
      <trkpt lat="43.933713035658002" lon="4.559100028127432">
        <ele>28.5</ele>
        <time>2025-05-16T15:52:40Z</time>
      </trkpt>
      <trkpt lat="43.933611027896404" lon="4.559177979826927">
        <ele>28.5</ele>
        <time>2025-05-16T15:52:41Z</time>
      </trkpt>
      <trkpt lat="43.933509020134807" lon="4.559256015345454">
        <ele>28.5</ele>
        <time>2025-05-16T15:52:42Z</time>
      </trkpt>
      <trkpt lat="43.933405000716448" lon="4.559335978701711">
        <ele>28.5</ele>
        <time>2025-05-16T15:52:43Z</time>
      </trkpt>
      <trkpt lat="43.933295030146837" lon="4.559402028098702">
        <ele>28.5</ele>
        <time>2025-05-16T15:52:44Z</time>
      </trkpt>
      <trkpt lat="43.932415014132857" lon="4.559788014739752">
        <ele>28.5</ele>
        <time>2025-05-16T15:52:52Z</time>
      </trkpt>
      <trkpt lat="43.931359983980656" lon="4.560008039698005">
        <ele>28.02</ele>
        <time>2025-05-16T15:53:00Z</time>
      </trkpt>
      <trkpt lat="43.929997002705932" lon="4.560241978615522">
        <ele>28.02</ele>
        <time>2025-05-16T15:53:09Z</time>
      </trkpt>
      <trkpt lat="43.928091963753104" lon="4.560839021578431">
        <ele>26.09</ele>
        <time>2025-05-16T15:53:19Z</time>
      </trkpt>
      <trkpt lat="43.926902990788221" lon="4.561331961303949">
        <ele>23.690000000000001</ele>
        <time>2025-05-16T15:53:26Z</time>
      </trkpt>
      <trkpt lat="43.924412978813052" lon="4.562453962862492">
        <ele>23.210000000000001</ele>
        <time>2025-05-16T15:53:38Z</time>
      </trkpt>
      <trkpt lat="43.923046980053186" lon="4.562956960871816">
        <ele>19.84</ele>
        <time>2025-05-16T15:53:46Z</time>
      </trkpt>
      <trkpt lat="43.921167002990842" lon="4.56386698409915">
        <ele>18.399999999999999</ele>
        <time>2025-05-16T15:53:57Z</time>
      </trkpt>
      <trkpt lat="43.919470002874732" lon="4.564729984849691">
        <ele>16.960000000000001</ele>
        <time>2025-05-16T15:54:07Z</time>
      </trkpt>
      <trkpt lat="43.917549960315228" lon="4.565286040306091">
        <ele>18.879999999999999</ele>
        <time>2025-05-16T15:54:18Z</time>
      </trkpt>
      <trkpt lat="43.915517013520002" lon="4.565685018897057">
        <ele>22.73</ele>
        <time>2025-05-16T15:54:30Z</time>
      </trkpt>
      <trkpt lat="43.914344971999526" lon="4.565809993073344">
        <ele>23.210000000000001</ele>
        <time>2025-05-16T15:54:38Z</time>
      </trkpt>
      <trkpt lat="43.913950016722083" lon="4.565871013328433">
        <ele>23.210000000000001</ele>
        <time>2025-05-16T15:54:42Z</time>
      </trkpt>
      <trkpt lat="43.91374901868403" lon="4.565742015838623">
        <ele>23.690000000000001</ele>
        <time>2025-05-16T15:54:44Z</time>
      </trkpt>
      <trkpt lat="43.91368598677218" lon="4.565732041373849">
        <ele>23.690000000000001</ele>
        <time>2025-05-16T15:54:45Z</time>
      </trkpt>
      <trkpt lat="43.91353402286768" lon="4.565914012491703">
        <ele>24.170000000000002</ele>
        <time>2025-05-16T15:54:46Z</time>
      </trkpt>
      <trkpt lat="43.913532011210918" lon="4.565915018320084">
        <ele>24.170000000000002</ele>
        <time>2025-05-16T15:54:47Z</time>
      </trkpt>
      <trkpt lat="43.913446012884378" lon="4.56595097668469">
        <ele>24.170000000000002</ele>
        <time>2025-05-16T15:54:48Z</time>
      </trkpt>
      <trkpt lat="43.913346016779542" lon="4.565991964191198">
        <ele>23.690000000000001</ele>
        <time>2025-05-16T15:54:49Z</time>
      </trkpt>
      <trkpt lat="43.913235040381551" lon="4.56603798083961">
        <ele>23.690000000000001</ele>
        <time>2025-05-16T15:54:50Z</time>
      </trkpt>
      <trkpt lat="43.913114005699754" lon="4.566089026629925">
        <ele>23.210000000000001</ele>
        <time>2025-05-16T15:54:51Z</time>
      </trkpt>
      <trkpt lat="43.912984002381563" lon="4.566134959459305">
        <ele>23.210000000000001</ele>
        <time>2025-05-16T15:54:52Z</time>
      </trkpt>
      <trkpt lat="43.912836983799934" lon="4.566168989986181">
        <ele>22.73</ele>
        <time>2025-05-16T15:54:53Z</time>
      </trkpt>
      <trkpt lat="43.911245008930564" lon="4.566568974405527">
        <ele>23.210000000000001</ele>
        <time>2025-05-16T15:55:02Z</time>
      </trkpt>
      <trkpt lat="43.910702029243112" lon="4.566685985773802">
        <ele>23.210000000000001</ele>
        <time>2025-05-16T15:55:05Z</time>
      </trkpt>
      <trkpt lat="43.910274971276522" lon="4.566795034334064">
        <ele>23.690000000000001</ele>
        <time>2025-05-16T15:55:07Z</time>
      </trkpt>
      <trkpt lat="43.907974977046251" lon="4.567480003461242">
        <ele>25.609999999999999</ele>
        <time>2025-05-16T15:55:19Z</time>
      </trkpt>
      <trkpt lat="43.906518034636974" lon="4.568209983408451">
        <ele>24.649999999999999</ele>
        <time>2025-05-16T15:55:27Z</time>
      </trkpt>
      <trkpt lat="43.905015997588634" lon="4.569264007732272">
        <ele>22.25</ele>
        <time>2025-05-16T15:55:36Z</time>
      </trkpt>
      <trkpt lat="43.903593001887202" lon="4.57005500793457">
        <ele>20.32</ele>
        <time>2025-05-16T15:55:44Z</time>
      </trkpt>
      <trkpt lat="43.901649992913008" lon="4.57067602314055">
        <ele>18.399999999999999</ele>
        <time>2025-05-16T15:55:54Z</time>
      </trkpt>
      <trkpt lat="43.89982801862061" lon="4.571283040568233">
        <ele>17.920000000000002</ele>
        <time>2025-05-16T15:56:04Z</time>
      </trkpt>
      <trkpt lat="43.897542022168636" lon="4.572056019678712">
        <ele>19.359999999999999</ele>
        <time>2025-05-16T15:56:16Z</time>
      </trkpt>
      <trkpt lat="43.896201001480222" lon="4.572515012696385">
        <ele>19.84</ele>
        <time>2025-05-16T15:56:23Z</time>
      </trkpt>
      <trkpt lat="43.894343990832567" lon="4.573150025680661">
        <ele>21.77</ele>
        <time>2025-05-16T15:56:33Z</time>
      </trkpt>
      <trkpt lat="43.893026020377874" lon="4.573598960414529">
        <ele>23.210000000000001</ele>
        <time>2025-05-16T15:56:40Z</time>
      </trkpt>
      <trkpt lat="43.891039006412029" lon="4.574253000319004">
        <ele>24.170000000000002</ele>
        <time>2025-05-16T15:56:50Z</time>
      </trkpt>
      <trkpt lat="43.889079988002777" lon="4.574892958626151">
        <ele>23.210000000000001</ele>
        <time>2025-05-16T15:57:00Z</time>
      </trkpt>
      <trkpt lat="43.887506034225225" lon="4.575247010216117">
        <ele>19.359999999999999</ele>
        <time>2025-05-16T15:57:08Z</time>
      </trkpt>
      <trkpt lat="43.886088989675045" lon="4.574995972216129">
        <ele>19.359999999999999</ele>
        <time>2025-05-16T15:57:15Z</time>
      </trkpt>
      <trkpt lat="43.884411016479135" lon="4.574607973918319">
        <ele>17.920000000000002</ele>
        <time>2025-05-16T15:57:24Z</time>
      </trkpt>
      <trkpt lat="43.882334986701608" lon="4.574410999193788">
        <ele>18.399999999999999</ele>
        <time>2025-05-16T15:57:36Z</time>
      </trkpt>
      <trkpt lat="43.881982024759054" lon="4.574494985863566">
        <ele>17.920000000000002</ele>
        <time>2025-05-16T15:57:38Z</time>
      </trkpt>
      <trkpt lat="43.881814973428845" lon="4.574549971148372">
        <ele>17.920000000000002</ele>
        <time>2025-05-16T15:57:39Z</time>
      </trkpt>
      <trkpt lat="43.880506977438927" lon="4.57520904019475">
        <ele>16.960000000000001</ele>
        <time>2025-05-16T15:57:48Z</time>
      </trkpt>
      <trkpt lat="43.880300028249621" lon="4.575338959693909">
        <ele>16.960000000000001</ele>
        <time>2025-05-16T15:57:50Z</time>
      </trkpt>
      <trkpt lat="43.880070028826594" lon="4.575286991894245">
        <ele>16.960000000000001</ele>
        <time>2025-05-16T15:57:52Z</time>
      </trkpt>
      <trkpt lat="43.879999034106731" lon="4.575396962463856">
        <ele>16.960000000000001</ele>
        <time>2025-05-16T15:57:53Z</time>
      </trkpt>
      <trkpt lat="43.879973972216249" lon="4.575440967455506">
        <ele>16.960000000000001</ele>
        <time>2025-05-16T15:57:54Z</time>
      </trkpt>
      <trkpt lat="43.879927033558488" lon="4.575690999627113">
        <ele>17.440000000000001</ele>
        <time>2025-05-16T15:57:55Z</time>
      </trkpt>
      <trkpt lat="43.879841035231948" lon="4.575784960761666">
        <ele>17.440000000000001</ele>
        <time>2025-05-16T15:57:56Z</time>
      </trkpt>
      <trkpt lat="43.879743972793221" lon="4.575896020978689">
        <ele>17.440000000000001</ele>
        <time>2025-05-16T15:57:57Z</time>
      </trkpt>
      <trkpt lat="43.879638025537133" lon="4.576020995154977">
        <ele>17.440000000000001</ele>
        <time>2025-05-16T15:57:58Z</time>
      </trkpt>
      <trkpt lat="43.878479981794953" lon="4.57731599919498">
        <ele>16</ele>
        <time>2025-05-16T15:58:07Z</time>
      </trkpt>
      <trkpt lat="43.876822963356972" lon="4.578769002109766">
        <ele>17.440000000000001</ele>
        <time>2025-05-16T15:58:17Z</time>
      </trkpt>
      <trkpt lat="43.87522797100246" lon="4.580099964514375">
        <ele>18.879999999999999</ele>
        <time>2025-05-16T15:58:26Z</time>
      </trkpt>
      <trkpt lat="43.873929027467966" lon="4.581203022971749">
        <ele>19.359999999999999</ele>
        <time>2025-05-16T15:58:34Z</time>
      </trkpt>
      <trkpt lat="43.872465966269374" lon="4.58247103728354">
        <ele>15.039999999999999</ele>
        <time>2025-05-16T15:58:43Z</time>
      </trkpt>
      <trkpt lat="43.870666036382318" lon="4.584030993282795">
        <ele>14.56</ele>
        <time>2025-05-16T15:58:55Z</time>
      </trkpt>
      <trkpt lat="43.869576975703239" lon="4.585044030100107">
        <ele>15.52</ele>
        <time>2025-05-16T15:59:04Z</time>
      </trkpt>
      <trkpt lat="43.868097988888621" lon="4.586421009153128">
        <ele>14.08</ele>
        <time>2025-05-16T15:59:16Z</time>
      </trkpt>
      <trkpt lat="43.867463981732726" lon="4.586728038266301">
        <ele>14.56</ele>
        <time>2025-05-16T15:59:23Z</time>
      </trkpt>
      <trkpt lat="43.867421988397837" lon="4.586771037429571">
        <ele>14.56</ele>
        <time>2025-05-16T15:59:24Z</time>
      </trkpt>
      <trkpt lat="43.867421988397837" lon="4.586971029639244">
        <ele>14.56</ele>
        <time>2025-05-16T15:59:25Z</time>
      </trkpt>
      <trkpt lat="43.867327021434903" lon="4.587096003815532">
        <ele>14.56</ele>
        <time>2025-05-16T15:59:26Z</time>
      </trkpt>
      <trkpt lat="43.867231970652938" lon="4.587162975221872">
        <ele>15.039999999999999</ele>
        <time>2025-05-16T15:59:27Z</time>
      </trkpt>
      <trkpt lat="43.867120994254947" lon="4.587243022397161">
        <ele>15.039999999999999</ele>
        <time>2025-05-16T15:59:28Z</time>
      </trkpt>
      <trkpt lat="43.867017980664968" lon="4.587327009066939">
        <ele>15.52</ele>
        <time>2025-05-16T15:59:29Z</time>
      </trkpt>
      <trkpt lat="43.86613997630775" lon="4.588037962093949">
        <ele>16.960000000000001</ele>
        <time>2025-05-16T15:59:36Z</time>
      </trkpt>
      <trkpt lat="43.866007961332798" lon="4.588146004825831">
        <ele>16.960000000000001</ele>
        <time>2025-05-16T15:59:37Z</time>
      </trkpt>
      <trkpt lat="43.865861026570201" lon="4.588183974847198">
        <ele>16.960000000000001</ele>
        <time>2025-05-16T15:59:38Z</time>
      </trkpt>
      <trkpt lat="43.865705039352179" lon="4.5882080309093">
        <ele>16.960000000000001</ele>
        <time>2025-05-16T15:59:39Z</time>
      </trkpt>
      <trkpt lat="43.86556196026504" lon="4.588195960968733">
        <ele>17.440000000000001</ele>
        <time>2025-05-16T15:59:40Z</time>
      </trkpt>
      <trkpt lat="43.865414019674063" lon="4.588182969018817">
        <ele>17.440000000000001</ele>
        <time>2025-05-16T15:59:41Z</time>
      </trkpt>
      <trkpt lat="43.864527968689799" lon="4.588105017319322">
        <ele>17.920000000000002</ele>
        <time>2025-05-16T15:59:47Z</time>
      </trkpt>
      <trkpt lat="43.864381033927202" lon="4.58812303841114">
        <ele>17.920000000000002</ele>
        <time>2025-05-16T15:59:48Z</time>
      </trkpt>
      <trkpt lat="43.864243989810348" lon="4.588206019252539">
        <ele>18.399999999999999</ele>
        <time>2025-05-16T15:59:49Z</time>
      </trkpt>
      <trkpt lat="43.863141015172005" lon="4.588874978944659">
        <ele>18.399999999999999</ele>
        <time>2025-05-16T15:59:57Z</time>
      </trkpt>
      <trkpt lat="43.862876985222101" lon="4.589087963104248">
        <ele>18.399999999999999</ele>
        <time>2025-05-16T15:59:59Z</time>
      </trkpt>
      <trkpt lat="43.862757040187716" lon="4.589229030534625">
        <ele>18.399999999999999</ele>
        <time>2025-05-16T16:00:00Z</time>
      </trkpt>
      <trkpt lat="43.861663034185767" lon="4.590531997382641">
        <ele>18.399999999999999</ele>
        <time>2025-05-16T16:00:08Z</time>
      </trkpt>
      <trkpt lat="43.860053038224578" lon="4.592110980302095">
        <ele>18.399999999999999</ele>
        <time>2025-05-16T16:00:18Z</time>
      </trkpt>
      <trkpt lat="43.859190037474036" lon="4.593010023236275">
        <ele>18.399999999999999</ele>
        <time>2025-05-16T16:00:24Z</time>
      </trkpt>
      <trkpt lat="43.858328964561224" lon="4.59435498341918">
        <ele>16.960000000000001</ele>
        <time>2025-05-16T16:00:31Z</time>
      </trkpt>
      <trkpt lat="43.858184963464737" lon="4.594509964808822">
        <ele>16.960000000000001</ele>
        <time>2025-05-16T16:00:32Z</time>
      </trkpt>
      <trkpt lat="43.858025036752224" lon="4.594643991440535">
        <ele>16.48</ele>
        <time>2025-05-16T16:00:33Z</time>
      </trkpt>
      <trkpt lat="43.857850022614002" lon="4.594734013080597">
        <ele>16</ele>
        <time>2025-05-16T16:00:34Z</time>
      </trkpt>
      <trkpt lat="43.857670985162258" lon="4.59482504054904">
        <ele>16</ele>
        <time>2025-05-16T16:00:35Z</time>
      </trkpt>
      <trkpt lat="43.856584019958973" lon="4.595426023006439">
        <ele>15.039999999999999</ele>
        <time>2025-05-16T16:00:41Z</time>
      </trkpt>
      <trkpt lat="43.856426021084189" lon="4.595592990517616">
        <ele>15.039999999999999</ele>
        <time>2025-05-16T16:00:42Z</time>
      </trkpt>
      <trkpt lat="43.856286965310574" lon="4.595782002434135">
        <ele>15.039999999999999</ele>
        <time>2025-05-16T16:00:43Z</time>
      </trkpt>
      <trkpt lat="43.855608031153679" lon="4.596723038703203">
        <ele>13.6</ele>
        <time>2025-05-16T16:00:48Z</time>
      </trkpt>
      <trkpt lat="43.855450032278895" lon="4.596864022314549">
        <ele>13.6</ele>
        <time>2025-05-16T16:00:49Z</time>
      </trkpt>
      <trkpt lat="43.855291027575731" lon="4.596984973177314">
        <ele>13.119999999999999</ele>
        <time>2025-05-16T16:00:50Z</time>
      </trkpt>
      <trkpt lat="43.855110984295607" lon="4.597064014524221">
        <ele>12.630000000000001</ele>
        <time>2025-05-16T16:00:51Z</time>
      </trkpt>
      <trkpt lat="43.85492398403585" lon="4.59714699536562">
        <ele>12.15</ele>
        <time>2025-05-16T16:00:52Z</time>
      </trkpt>
      <trkpt lat="43.853769041597843" lon="4.597697015851736">
        <ele>11.67</ele>
        <time>2025-05-16T16:00:59Z</time>
      </trkpt>
      <trkpt lat="43.853050963953137" lon="4.598319958895445">
        <ele>11.67</ele>
        <time>2025-05-16T16:01:05Z</time>
      </trkpt>
      <trkpt lat="43.852980975061655" lon="4.598471000790596">
        <ele>12.15</ele>
        <time>2025-05-16T16:01:06Z</time>
      </trkpt>
      <trkpt lat="43.852919032797217" lon="4.598636962473393">
        <ele>12.630000000000001</ele>
        <time>2025-05-16T16:01:07Z</time>
      </trkpt>
      <trkpt lat="43.852856000885367" lon="4.598804013803601">
        <ele>12.630000000000001</ele>
        <time>2025-05-16T16:01:08Z</time>
      </trkpt>
      <trkpt lat="43.852791963145137" lon="4.59897399879992">
        <ele>13.119999999999999</ele>
        <time>2025-05-16T16:01:09Z</time>
      </trkpt>
      <trkpt lat="43.852556012570858" lon="4.600630011409521">
        <ele>12.15</ele>
        <time>2025-05-16T16:01:18Z</time>
      </trkpt>
      <trkpt lat="43.852479988709092" lon="4.600968975573778">
        <ele>12.15</ele>
        <time>2025-05-16T16:01:20Z</time>
      </trkpt>
      <trkpt lat="43.852423997595906" lon="4.601126974448562">
        <ele>12.15</ele>
        <time>2025-05-16T16:01:21Z</time>
      </trkpt>
      <trkpt lat="43.852292988449335" lon="4.601417994126678">
        <ele>12.15</ele>
        <time>2025-05-16T16:01:23Z</time>
      </trkpt>
      <trkpt lat="43.852080004289746" lon="4.601823007687926">
        <ele>12.15</ele>
        <time>2025-05-16T16:01:26Z</time>
      </trkpt>
      <trkpt lat="43.851743973791599" lon="4.602414015680552">
        <ele>12.15</ele>
        <time>2025-05-16T16:01:31Z</time>
      </trkpt>
      <trkpt lat="43.851671973243356" lon="4.602542007341981">
        <ele>12.15</ele>
        <time>2025-05-16T16:01:32Z</time>
      </trkpt>
      <trkpt lat="43.851166963577271" lon="4.603416994214058">
        <ele>12.630000000000001</ele>
        <time>2025-05-16T16:01:40Z</time>
      </trkpt>
      <trkpt lat="43.851044001057744" lon="4.603628972545266">
        <ele>12.630000000000001</ele>
        <time>2025-05-16T16:01:48Z</time>
      </trkpt>
      <trkpt lat="43.850816013291478" lon="4.604014037176967">
        <ele>13.119999999999999</ele>
        <time>2025-05-16T16:01:56Z</time>
      </trkpt>
      <trkpt lat="43.850342016667128" lon="4.604749968275428">
        <ele>13.119999999999999</ele>
        <time>2025-05-16T16:02:03Z</time>
      </trkpt>
      <trkpt lat="43.849582029506564" lon="4.605565024539828">
        <ele>15.039999999999999</ele>
        <time>2025-05-16T16:02:11Z</time>
      </trkpt>
      <trkpt lat="43.848955985158682" lon="4.606204982846975">
        <ele>17.440000000000001</ele>
        <time>2025-05-16T16:02:17Z</time>
      </trkpt>
      <trkpt lat="43.848846014589071" lon="4.60634202696383">
        <ele>17.920000000000002</ele>
        <time>2025-05-16T16:02:18Z</time>
      </trkpt>
      <trkpt lat="43.84873503819108" lon="4.606480998918414">
        <ele>17.920000000000002</ele>
        <time>2025-05-16T16:02:19Z</time>
      </trkpt>
      <trkpt lat="43.847925011068583" lon="4.607441984117031">
        <ele>18.399999999999999</ele>
        <time>2025-05-16T16:02:27Z</time>
      </trkpt>
      <trkpt lat="43.846554988995194" lon="4.608733970671892">
        <ele>18.879999999999999</ele>
        <time>2025-05-16T16:02:40Z</time>
      </trkpt>
      <trkpt lat="43.845934979617596" lon="4.609579034149647">
        <ele>17.440000000000001</ele>
        <time>2025-05-16T16:02:47Z</time>
      </trkpt>
      <trkpt lat="43.845548992976546" lon="4.610151015222073">
        <ele>16</ele>
        <time>2025-05-16T16:02:58Z</time>
      </trkpt>
      <trkpt lat="43.845107015222311" lon="4.610930029302836">
        <ele>16.48</ele>
        <time>2025-05-16T16:03:05Z</time>
      </trkpt>
      <trkpt lat="43.844606028869748" lon="4.612330980598927">
        <ele>16.960000000000001</ele>
        <time>2025-05-16T16:03:12Z</time>
      </trkpt>
      <trkpt lat="43.844102025032043" lon="4.614326041191816">
        <ele>18.399999999999999</ele>
        <time>2025-05-16T16:03:20Z</time>
      </trkpt>
      <trkpt lat="43.843400962650776" lon="4.616938009858131">
        <ele>21.289999999999999</ele>
        <time>2025-05-16T16:03:31Z</time>
      </trkpt>
      <trkpt lat="43.842719011008739" lon="4.618131006136537">
        <ele>22.73</ele>
        <time>2025-05-16T16:03:37Z</time>
      </trkpt>
      <trkpt lat="43.842488005757332" lon="4.618441974744201">
        <ele>23.210000000000001</ele>
        <time>2025-05-16T16:03:39Z</time>
      </trkpt>
      <trkpt lat="43.842108976095915" lon="4.618806000798941">
        <ele>23.210000000000001</ele>
        <time>2025-05-16T16:03:43Z</time>
      </trkpt>
      <trkpt lat="43.841907978057861" lon="4.61887096054852">
        <ele>23.210000000000001</ele>
        <time>2025-05-16T16:03:44Z</time>
      </trkpt>
      <trkpt lat="43.841907978057861" lon="4.61887096054852">
        <ele>23.210000000000001</ele>
        <time>2025-05-16T16:03:45Z</time>
      </trkpt>
      <trkpt lat="43.841801024973392" lon="4.61887096054852">
        <ele>23.210000000000001</ele>
        <time>2025-05-16T16:03:47Z</time>
      </trkpt>
      <trkpt lat="43.841761965304613" lon="4.618950001895428">
        <ele>23.210000000000001</ele>
        <time>2025-05-16T16:03:48Z</time>
      </trkpt>
      <trkpt lat="43.841736987233162" lon="4.619000041857362">
        <ele>23.210000000000001</ele>
        <time>2025-05-16T16:03:49Z</time>
      </trkpt>
      <trkpt lat="43.841736987233162" lon="4.619000041857362">
        <ele>23.210000000000001</ele>
        <time>2025-05-16T16:03:50Z</time>
      </trkpt>
      <trkpt lat="43.841641014441848" lon="4.61923498660326">
        <ele>23.210000000000001</ele>
        <time>2025-05-16T16:03:51Z</time>
      </trkpt>
      <trkpt lat="43.841565996408463" lon="4.619317967444658">
        <ele>23.210000000000001</ele>
        <time>2025-05-16T16:03:52Z</time>
      </trkpt>
      <trkpt lat="43.841478992253542" lon="4.619413018226624">
        <ele>23.210000000000001</ele>
        <time>2025-05-16T16:03:53Z</time>
      </trkpt>
      <trkpt lat="43.841383019462228" lon="4.619519971311092">
        <ele>23.210000000000001</ele>
        <time>2025-05-16T16:03:54Z</time>
      </trkpt>
      <trkpt lat="43.841142039746046" lon="4.619713006541133">
        <ele>22.73</ele>
        <time>2025-05-16T16:03:56Z</time>
      </trkpt>
      <trkpt lat="43.839876037091017" lon="4.620521022006869">
        <ele>21.289999999999999</ele>
        <time>2025-05-16T16:04:04Z</time>
      </trkpt>
      <trkpt lat="43.839317969977856" lon="4.620797960087657">
        <ele>20.809999999999999</ele>
        <time>2025-05-16T16:04:07Z</time>
      </trkpt>
      <trkpt lat="43.839118983596563" lon="4.620869960635901">
        <ele>20.809999999999999</ele>
        <time>2025-05-16T16:04:08Z</time>
      </trkpt>
      <trkpt lat="43.837015964090824" lon="4.621010022237897">
        <ele>19.359999999999999</ele>
        <time>2025-05-16T16:04:18Z</time>
      </trkpt>
      <trkpt lat="43.835324998944998" lon="4.620626969262958">
        <ele>19.359999999999999</ele>
        <time>2025-05-16T16:04:26Z</time>
      </trkpt>
      <trkpt lat="43.834915962070227" lon="4.620514987036586">
        <ele>19.359999999999999</ele>
        <time>2025-05-16T16:04:28Z</time>
      </trkpt>
      <trkpt lat="43.834712030366063" lon="4.6204589959234">
        <ele>19.359999999999999</ele>
        <time>2025-05-16T16:04:29Z</time>
      </trkpt>
      <trkpt lat="43.83322399109602" lon="4.619789030402899">
        <ele>18.399999999999999</ele>
        <time>2025-05-16T16:04:37Z</time>
      </trkpt>
      <trkpt lat="43.831522967666388" lon="4.618819998577237">
        <ele>19.84</ele>
        <time>2025-05-16T16:04:47Z</time>
      </trkpt>
      <trkpt lat="43.830403983592987" lon="4.617335982620716">
        <ele>23.210000000000001</ele>
        <time>2025-05-16T16:04:55Z</time>
      </trkpt>
      <trkpt lat="43.828634982928634" lon="4.614872960373759">
        <ele>33.780000000000001</ele>
        <time>2025-05-16T16:05:08Z</time>
      </trkpt>
      <trkpt lat="43.827326986938715" lon="4.614165024831891">
        <ele>40.509999999999998</ele>
        <time>2025-05-16T16:05:15Z</time>
      </trkpt>
      <trkpt lat="43.824593983590603" lon="4.613486006855965">
        <ele>53.490000000000002</ele>
        <time>2025-05-16T16:05:28Z</time>
      </trkpt>
      <trkpt lat="43.821699041873217" lon="4.612781004980207">
        <ele>57.82</ele>
        <time>2025-05-16T16:05:41Z</time>
      </trkpt>
      <trkpt lat="43.81964698433876" lon="4.612255962565541">
        <ele>52.049999999999997</ele>
        <time>2025-05-16T16:05:51Z</time>
      </trkpt>
      <trkpt lat="43.8188920263201" lon="4.611936025321484">
        <ele>49.159999999999997</ele>
        <time>2025-05-16T16:05:57Z</time>
      </trkpt>
      <trkpt lat="43.81882899440825" lon="4.611895037814975">
        <ele>49.159999999999997</ele>
        <time>2025-05-16T16:05:58Z</time>
      </trkpt>
      <trkpt lat="43.818777026608586" lon="4.611768973991275">
        <ele>49.159999999999997</ele>
        <time>2025-05-16T16:05:59Z</time>
      </trkpt>
      <trkpt lat="43.818688010796905" lon="4.611597983166575">
        <ele>48.68</ele>
        <time>2025-05-16T16:06:01Z</time>
      </trkpt>
      <trkpt lat="43.818618021905422" lon="4.611538974568248">
        <ele>48.68</ele>
        <time>2025-05-16T16:06:02Z</time>
      </trkpt>
      <trkpt lat="43.818506961688399" lon="4.61152003146708">
        <ele>48.68</ele>
        <time>2025-05-16T16:06:03Z</time>
      </trkpt>
      <trkpt lat="43.818420963361859" lon="4.611529000103474">
        <ele>48.68</ele>
        <time>2025-05-16T16:06:04Z</time>
      </trkpt>
      <trkpt lat="43.818324990570545" lon="4.611588008701801">
        <ele>48.68</ele>
        <time>2025-05-16T16:06:05Z</time>
      </trkpt>
      <trkpt lat="43.818261958658695" lon="4.611639976501465">
        <ele>48.68</ele>
        <time>2025-05-16T16:06:06Z</time>
      </trkpt>
      <trkpt lat="43.818121980875731" lon="4.611838040873408">
        <ele>48.200000000000003</ele>
        <time>2025-05-16T16:06:07Z</time>
      </trkpt>
      <trkpt lat="43.818022990599275" lon="4.611809039488435">
        <ele>47.719999999999999</ele>
        <time>2025-05-16T16:06:08Z</time>
      </trkpt>
      <trkpt lat="43.817904973402619" lon="4.6117780264467">
        <ele>47.240000000000002</ele>
        <time>2025-05-16T16:06:09Z</time>
      </trkpt>
      <trkpt lat="43.81777698174119" lon="4.611750030890107">
        <ele>46.759999999999998</ele>
        <time>2025-05-16T16:06:10Z</time>
      </trkpt>
      <trkpt lat="43.815969005227089" lon="4.61134702898562">
        <ele>40.509999999999998</ele>
        <time>2025-05-16T16:06:23Z</time>
      </trkpt>
      <trkpt lat="43.814032031223178" lon="4.611053997650743">
        <ele>27.530000000000001</ele>
        <time>2025-05-16T16:06:34Z</time>
      </trkpt>
      <trkpt lat="43.811804037541151" lon="4.610916031524539">
        <ele>16</ele>
        <time>2025-05-16T16:06:46Z</time>
      </trkpt>
      <trkpt lat="43.809627005830407" lon="4.610721990466118">
        <ele>13.119999999999999</ele>
        <time>2025-05-16T16:06:58Z</time>
      </trkpt>
      <trkpt lat="43.80804299376905" lon="4.610375985503197">
        <ele>12.630000000000001</ele>
        <time>2025-05-16T16:07:07Z</time>
      </trkpt>
      <trkpt lat="43.805884988978505" lon="4.609363032504916">
        <ele>17.440000000000001</ele>
        <time>2025-05-16T16:07:21Z</time>
      </trkpt>
      <trkpt lat="43.803993025794625" lon="4.608721984550357">
        <ele>20.32</ele>
        <time>2025-05-16T16:07:32Z</time>
      </trkpt>
      <trkpt lat="43.802015986293554" lon="4.608155032619834">
        <ele>14.56</ele>
        <time>2025-05-16T16:07:44Z</time>
      </trkpt>
      <trkpt lat="43.800357040017843" lon="4.607808021828532">
        <ele>8.310000000000001</ele>
        <time>2025-05-16T16:07:54Z</time>
      </trkpt>
      <trkpt lat="43.798972014337778" lon="4.608116978779435">
        <ele>4.94</ele>
        <time>2025-05-16T16:08:02Z</time>
      </trkpt>
      <trkpt lat="43.797207958996296" lon="4.609254989773035">
        <ele>7.83</ele>
        <time>2025-05-16T16:08:13Z</time>
      </trkpt>
      <trkpt lat="43.79474401473999" lon="4.611095990985632">
        <ele>8.310000000000001</ele>
        <time>2025-05-16T16:08:28Z</time>
      </trkpt>
      <trkpt lat="43.793700970709324" lon="4.612327963113785">
        <ele>7.83</ele>
        <time>2025-05-16T16:08:35Z</time>
      </trkpt>
      <trkpt lat="43.792798994109035" lon="4.614323023706675">
        <ele>9.27</ele>
        <time>2025-05-16T16:08:44Z</time>
      </trkpt>
      <trkpt lat="43.792442008852959" lon="4.616372985765338">
        <ele>9.27</ele>
        <time>2025-05-16T16:08:52Z</time>
      </trkpt>
      <trkpt lat="43.792544016614556" lon="4.6184800285846">
        <ele>9.27</ele>
        <time>2025-05-16T16:09:00Z</time>
      </trkpt>
      <trkpt lat="43.793171988800168" lon="4.621187970042229">
        <ele>14.08</ele>
        <time>2025-05-16T16:09:11Z</time>
      </trkpt>
      <trkpt lat="43.793683033436537" lon="4.624039996415377">
        <ele>12.15</ele>
        <time>2025-05-16T16:09:22Z</time>
      </trkpt>
      <trkpt lat="43.793637016788125" lon="4.626295985653997">
        <ele>11.67</ele>
        <time>2025-05-16T16:09:31Z</time>
      </trkpt>
      <trkpt lat="43.793242983520031" lon="4.6283870190382">
        <ele>11.19</ele>
        <time>2025-05-16T16:09:40Z</time>
      </trkpt>
      <trkpt lat="43.792922040447593" lon="4.629383962601423">
        <ele>8.789999999999999</ele>
        <time>2025-05-16T16:09:47Z</time>
      </trkpt>
      <trkpt lat="43.792878035455942" lon="4.629470966756344">
        <ele>8.310000000000001</ele>
        <time>2025-05-16T16:09:48Z</time>
      </trkpt>
      <trkpt lat="43.792837969958782" lon="4.629550008103252">
        <ele>8.310000000000001</ele>
        <time>2025-05-16T16:09:49Z</time>
      </trkpt>
      <trkpt lat="43.792737973853946" lon="4.62967598810792">
        <ele>7.83</ele>
        <time>2025-05-16T16:09:51Z</time>
      </trkpt>
      <trkpt lat="43.792671002447605" lon="4.629717981442809">
        <ele>7.83</ele>
        <time>2025-05-16T16:09:52Z</time>
      </trkpt>
      <trkpt lat="43.792620040476322" lon="4.629750000312924">
        <ele>7.83</ele>
        <time>2025-05-16T16:09:53Z</time>
      </trkpt>
      <trkpt lat="43.79244402050972" lon="4.629842033609748">
        <ele>7.83</ele>
        <time>2025-05-16T16:09:54Z</time>
      </trkpt>
      <trkpt lat="43.79238199442625" lon="4.629763998091221">
        <ele>7.83</ele>
        <time>2025-05-16T16:09:55Z</time>
      </trkpt>
      <trkpt lat="43.792308988049626" lon="4.629669031128287">
        <ele>7.83</ele>
        <time>2025-05-16T16:09:56Z</time>
      </trkpt>
      <trkpt lat="43.792235981673002" lon="4.629557970911264">
        <ele>7.83</ele>
        <time>2025-05-16T16:09:57Z</time>
      </trkpt>
      <trkpt lat="43.792158029973507" lon="4.62943903170526">
        <ele>8.310000000000001</ele>
        <time>2025-05-16T16:09:58Z</time>
      </trkpt>
      <trkpt lat="43.791559981182218" lon="4.628587011247873">
        <ele>8.310000000000001</ele>
        <time>2025-05-16T16:10:04Z</time>
      </trkpt>
      <trkpt lat="43.791424026712775" lon="4.628454996272922">
        <ele>8.310000000000001</ele>
        <time>2025-05-16T16:10:05Z</time>
      </trkpt>
      <trkpt lat="43.791280025616288" lon="4.628321975469589">
        <ele>8.310000000000001</ele>
        <time>2025-05-16T16:10:06Z</time>
      </trkpt>
      <trkpt lat="43.791115991771221" lon="4.628226002678275">
        <ele>8.310000000000001</ele>
        <time>2025-05-16T16:10:07Z</time>
      </trkpt>
      <trkpt lat="43.79094198346138" lon="4.628138998523355">
        <ele>7.83</ele>
        <time>2025-05-16T16:10:08Z</time>
      </trkpt>
      <trkpt lat="43.790765041485429" lon="4.628049982711673">
        <ele>7.83</ele>
        <time>2025-05-16T16:10:09Z</time>
      </trkpt>
      <trkpt lat="43.790584998205304" lon="4.627963984385133">
        <ele>7.83</ele>
        <time>2025-05-16T16:10:10Z</time>
      </trkpt>
      <trkpt lat="43.788760006427765" lon="4.627503985539079">
        <ele>7.83</ele>
        <time>2025-05-16T16:10:19Z</time>
      </trkpt>
      <trkpt lat="43.786935014650226" lon="4.627669025212526">
        <ele>7.35</ele>
        <time>2025-05-16T16:10:28Z</time>
      </trkpt>
      <trkpt lat="43.78561302088201" lon="4.627396026626229">
        <ele>10.23</ele>
        <time>2025-05-16T16:10:35Z</time>
      </trkpt>
      <trkpt lat="43.784059016034007" lon="4.626377960667014">
        <ele>11.19</ele>
        <time>2025-05-16T16:10:44Z</time>
      </trkpt>
      <trkpt lat="43.781286031007767" lon="4.62439295835793">
        <ele>10.23</ele>
        <time>2025-05-16T16:11:00Z</time>
      </trkpt>
      <trkpt lat="43.779601017013192" lon="4.623076999559999">
        <ele>9.27</ele>
        <time>2025-05-16T16:11:10Z</time>
      </trkpt>
      <trkpt lat="43.777730008587241" lon="4.621845027431846">
        <ele>8.310000000000001</ele>
        <time>2025-05-16T16:11:21Z</time>
      </trkpt>
      <trkpt lat="43.775561023503542" lon="4.621359966695309">
        <ele>8.789999999999999</ele>
        <time>2025-05-16T16:11:32Z</time>
      </trkpt>
      <trkpt lat="43.773607034236193" lon="4.621288971975446">
        <ele>9.75</ele>
        <time>2025-05-16T16:11:42Z</time>
      </trkpt>
      <trkpt lat="43.771305028349161" lon="4.620702993124723">
        <ele>9.27</ele>
        <time>2025-05-16T16:11:54Z</time>
      </trkpt>
      <trkpt lat="43.768559033051133" lon="4.619981981813908">
        <ele>8.310000000000001</ele>
        <time>2025-05-16T16:12:08Z</time>
      </trkpt>
      <trkpt lat="43.766994969919324" lon="4.619051003828645">
        <ele>6.87</ele>
        <time>2025-05-16T16:12:17Z</time>
      </trkpt>
      <trkpt lat="43.764810981228948" lon="4.617876028642058">
        <ele>6.39</ele>
        <time>2025-05-16T16:12:29Z</time>
      </trkpt>
      <trkpt lat="43.761821994557977" lon="4.616842037066817">
        <ele>9.75</ele>
        <time>2025-05-16T16:12:44Z</time>
      </trkpt>
      <trkpt lat="43.758994024246931" lon="4.615778038278222">
        <ele>11.19</ele>
        <time>2025-05-16T16:12:58Z</time>
      </trkpt>
      <trkpt lat="43.756496971473098" lon="4.614264015108347">
        <ele>11.19</ele>
        <time>2025-05-16T16:13:12Z</time>
      </trkpt>
      <trkpt lat="43.75540598295629" lon="4.613097002729774">
        <ele>10.23</ele>
        <time>2025-05-16T16:13:19Z</time>
      </trkpt>
      <trkpt lat="43.754038978368044" lon="4.611939964815974">
        <ele>9.27</ele>
        <time>2025-05-16T16:13:27Z</time>
      </trkpt>
      <trkpt lat="43.752678008750081" lon="4.611666966229677">
        <ele>7.83</ele>
        <time>2025-05-16T16:13:34Z</time>
      </trkpt>
      <trkpt lat="43.751333970576525" lon="4.61205898784101">
        <ele>6.87</ele>
        <time>2025-05-16T16:13:41Z</time>
      </trkpt>
      <trkpt lat="43.748856028541923" lon="4.612801959738135">
        <ele>6.39</ele>
        <time>2025-05-16T16:13:54Z</time>
      </trkpt>
      <trkpt lat="43.746171975508332" lon="4.613146958872676">
        <ele>4.46</ele>
        <time>2025-05-16T16:14:07Z</time>
      </trkpt>
      <trkpt lat="43.74440498650074" lon="4.612941015511751">
        <ele>4.94</ele>
        <time>2025-05-16T16:14:16Z</time>
      </trkpt>
      <trkpt lat="43.741665026172996" lon="4.611912975087762">
        <ele>3.98</ele>
        <time>2025-05-16T16:14:30Z</time>
      </trkpt>
      <trkpt lat="43.739498974755406" lon="4.61137100122869">
        <ele>4.94</ele>
        <time>2025-05-16T16:14:41Z</time>
      </trkpt>
      <trkpt lat="43.738021999597549" lon="4.611447025090456">
        <ele>6.39</ele>
        <time>2025-05-16T16:14:49Z</time>
      </trkpt>
      <trkpt lat="43.735770033672452" lon="4.611142007634044">
        <ele>3.98</ele>
        <time>2025-05-16T16:15:01Z</time>
      </trkpt>
      <trkpt lat="43.733828030526638" lon="4.610208012163639">
        <ele>6.39</ele>
        <time>2025-05-16T16:15:11Z</time>
      </trkpt>
      <trkpt lat="43.731783013790846" lon="4.609380969777703">
        <ele>6.39</ele>
        <time>2025-05-16T16:15:21Z</time>
      </trkpt>
      <trkpt lat="43.729357039555907" lon="4.608611008152366">
        <ele>7.35</ele>
        <time>2025-05-16T16:15:33Z</time>
      </trkpt>
      <trkpt lat="43.726448016241193" lon="4.607514990493655">
        <ele>8.789999999999999</ele>
        <time>2025-05-16T16:15:48Z</time>
      </trkpt>
      <trkpt lat="43.724077027291059" lon="4.606962036341429">
        <ele>12.15</ele>
        <time>2025-05-16T16:16:00Z</time>
      </trkpt>
      <trkpt lat="43.723277980461717" lon="4.606838990002871">
        <ele>11.19</ele>
        <time>2025-05-16T16:16:04Z</time>
      </trkpt>
      <trkpt lat="43.723087040707469" lon="4.606753997504711">
        <ele>11.19</ele>
        <time>2025-05-16T16:16:05Z</time>
      </trkpt>
      <trkpt lat="43.722902974113822" lon="4.606642015278339">
        <ele>11.19</ele>
        <time>2025-05-16T16:16:06Z</time>
      </trkpt>
      <trkpt lat="43.722718991339207" lon="4.606530033051968">
        <ele>10.710000000000001</ele>
        <time>2025-05-16T16:16:07Z</time>
      </trkpt>
      <trkpt lat="43.722535008564591" lon="4.606415033340454">
        <ele>10.23</ele>
        <time>2025-05-16T16:16:08Z</time>
      </trkpt>
      <trkpt lat="43.721788013353944" lon="4.606017982587218">
        <ele>9.75</ele>
        <time>2025-05-16T16:16:12Z</time>
      </trkpt>
      <trkpt lat="43.721188958734274" lon="4.605921003967524">
        <ele>8.310000000000001</ele>
        <time>2025-05-16T16:16:15Z</time>
      </trkpt>
      <trkpt lat="43.720995001494884" lon="4.605916980654001">
        <ele>7.35</ele>
        <time>2025-05-16T16:16:16Z</time>
      </trkpt>
      <trkpt lat="43.719881968572736" lon="4.606033992022276">
        <ele>3.98</ele>
        <time>2025-05-16T16:16:23Z</time>
      </trkpt>
      <trkpt lat="43.719881968572736" lon="4.606033992022276">
        <ele>3.5</ele>
        <time>2025-05-16T16:16:27Z</time>
      </trkpt>
      <trkpt lat="43.719881968572736" lon="4.606033992022276">
        <ele>3.5</ele>
        <time>2025-05-16T16:16:52Z</time>
      </trkpt>
      <trkpt lat="43.719881968572736" lon="4.606033992022276">
        <ele>3.02</ele>
        <time>2025-05-16T16:17:33Z</time>
      </trkpt>
      <trkpt lat="43.719881968572736" lon="4.606033992022276">
        <ele>3.02</ele>
        <time>2025-05-16T16:18:18Z</time>
      </trkpt>
      <trkpt lat="43.719881968572736" lon="4.606033992022276">
        <ele>3.5</ele>
        <time>2025-05-16T16:18:58Z</time>
      </trkpt>
      <trkpt lat="43.719683988019824" lon="4.606054024770856">
        <ele>5.42</ele>
        <time>2025-05-16T16:19:20Z</time>
      </trkpt>
      <trkpt lat="43.718845965340734" lon="4.606105992570519">
        <ele>5.91</ele>
        <time>2025-05-16T16:19:27Z</time>
      </trkpt>
      <trkpt lat="43.717085011303425" lon="4.606283018365502">
        <ele>6.87</ele>
        <time>2025-05-16T16:19:37Z</time>
      </trkpt>
      <trkpt lat="43.715297989547253" lon="4.606401035562158">
        <ele>6.87</ele>
        <time>2025-05-16T16:19:46Z</time>
      </trkpt>
      <trkpt lat="43.712902022525668" lon="4.606383014470339">
        <ele>7.35</ele>
        <time>2025-05-16T16:19:58Z</time>
      </trkpt>
      <trkpt lat="43.710688026621938" lon="4.606967987492681">
        <ele>9.27</ele>
        <time>2025-05-16T16:20:09Z</time>
      </trkpt>
      <trkpt lat="43.708956995978951" lon="4.607434021309018">
        <ele>9.27</ele>
        <time>2025-05-16T16:20:18Z</time>
      </trkpt>
      <trkpt lat="43.708779970183969" lon="4.607434021309018">
        <ele>9.27</ele>
        <time>2025-05-16T16:20:19Z</time>
      </trkpt>
      <trkpt lat="43.708606967702508" lon="4.607433015480638">
        <ele>8.789999999999999</ele>
        <time>2025-05-16T16:20:20Z</time>
      </trkpt>
      <trkpt lat="43.708449974656105" lon="4.607389010488987">
        <ele>8.789999999999999</ele>
        <time>2025-05-16T16:20:21Z</time>
      </trkpt>
      <trkpt lat="43.708300022408366" lon="4.607347017154098">
        <ele>8.310000000000001</ele>
        <time>2025-05-16T16:20:22Z</time>
      </trkpt>
      <trkpt lat="43.708159038797021" lon="4.607291026040912">
        <ele>8.310000000000001</ele>
        <time>2025-05-16T16:20:23Z</time>
      </trkpt>
      <trkpt lat="43.708033980801702" lon="4.607225982472301">
        <ele>8.310000000000001</ele>
        <time>2025-05-16T16:20:24Z</time>
      </trkpt>
      <trkpt lat="43.707924010232091" lon="4.607167979702354">
        <ele>8.310000000000001</ele>
        <time>2025-05-16T16:20:25Z</time>
      </trkpt>
      <trkpt lat="43.707841029390693" lon="4.606876038014889">
        <ele>7.83</ele>
        <time>2025-05-16T16:20:26Z</time>
      </trkpt>
      <trkpt lat="43.707817979156971" lon="4.606849970296025">
        <ele>8.310000000000001</ele>
        <time>2025-05-16T16:20:27Z</time>
      </trkpt>
      <trkpt lat="43.707743966951966" lon="4.606765983626247">
        <ele>7.83</ele>
        <time>2025-05-16T16:20:28Z</time>
      </trkpt>
      <trkpt lat="43.707659980282187" lon="4.60670898668468">
        <ele>7.83</ele>
        <time>2025-05-16T16:20:29Z</time>
      </trkpt>
      <trkpt lat="43.707569036632776" lon="4.606721978634596">
        <ele>7.83</ele>
        <time>2025-05-16T16:20:30Z</time>
      </trkpt>
      <trkpt lat="43.707454958930612" lon="4.606646038591862">
        <ele>7.83</ele>
        <time>2025-05-16T16:20:31Z</time>
      </trkpt>
      <trkpt lat="43.707354040816426" lon="4.606549981981516">
        <ele>6.87</ele>
        <time>2025-05-16T16:20:32Z</time>
      </trkpt>
      <trkpt lat="43.707237029448152" lon="4.606439005583525">
        <ele>6.87</ele>
        <time>2025-05-16T16:20:33Z</time>
      </trkpt>
      <trkpt lat="43.707111971452832" lon="4.606305984780192">
        <ele>6.39</ele>
        <time>2025-05-16T16:20:34Z</time>
      </trkpt>
      <trkpt lat="43.707006024196744" lon="4.606130970641971">
        <ele>6.39</ele>
        <time>2025-05-16T16:20:35Z</time>
      </trkpt>
      <trkpt lat="43.705922998487949" lon="4.604189973324537">
        <ele>6.39</ele>
        <time>2025-05-16T16:20:44Z</time>
      </trkpt>
      <trkpt lat="43.704925971105695" lon="4.602642003446817">
        <ele>8.310000000000001</ele>
        <time>2025-05-16T16:20:52Z</time>
      </trkpt>
      <trkpt lat="43.703684024512768" lon="4.601851003244519">
        <ele>6.39</ele>
        <time>2025-05-16T16:20:59Z</time>
      </trkpt>
      <trkpt lat="43.701656023040414" lon="4.601400978863239">
        <ele>3.5</ele>
        <time>2025-05-16T16:21:09Z</time>
      </trkpt>
      <trkpt lat="43.700255993753672" lon="4.601104008033872">
        <ele>3.98</ele>
        <time>2025-05-16T16:21:18Z</time>
      </trkpt>
      <trkpt lat="43.699464993551373" lon="4.60092899389565">
        <ele>4.46</ele>
        <time>2025-05-16T16:21:25Z</time>
      </trkpt>
      <trkpt lat="43.699280004948378" lon="4.600864034146071">
        <ele>4.46</ele>
        <time>2025-05-16T16:21:27Z</time>
      </trkpt>
      <trkpt lat="43.699196018278599" lon="4.600834026932716">
        <ele>4.46</ele>
        <time>2025-05-16T16:21:28Z</time>
      </trkpt>
      <trkpt lat="43.699108008295298" lon="4.600589023903012">
        <ele>4.94</ele>
        <time>2025-05-16T16:21:29Z</time>
      </trkpt>
      <trkpt lat="43.699067020788789" lon="4.600568991154432">
        <ele>4.46</ele>
        <time>2025-05-16T16:21:30Z</time>
      </trkpt>
      <trkpt lat="43.698986973613501" lon="4.600529009476304">
        <ele>4.46</ele>
        <time>2025-05-16T16:21:31Z</time>
      </trkpt>
      <trkpt lat="43.698936011642218" lon="4.600503025576472">
        <ele>4.46</ele>
        <time>2025-05-16T16:21:32Z</time>
      </trkpt>
      <trkpt lat="43.698840038850904" lon="4.600580977275968">
        <ele>4.46</ele>
        <time>2025-05-16T16:21:33Z</time>
      </trkpt>
      <trkpt lat="43.698671981692314" lon="4.600663036108017">
        <ele>4.94</ele>
        <time>2025-05-16T16:21:34Z</time>
      </trkpt>
      <trkpt lat="43.698586989194155" lon="4.600596986711025">
        <ele>4.94</ele>
        <time>2025-05-16T16:21:35Z</time>
      </trkpt>
      <trkpt lat="43.69849001057446" lon="4.60051903501153">
        <ele>4.94</ele>
        <time>2025-05-16T16:21:36Z</time>
      </trkpt>
      <trkpt lat="43.697468005120754" lon="4.600085020065308">
        <ele>4.94</ele>
        <time>2025-05-16T16:21:43Z</time>
      </trkpt>
      <trkpt lat="43.695454001426697" lon="4.599128980189562">
        <ele>6.39</ele>
        <time>2025-05-16T16:21:55Z</time>
      </trkpt>
      <trkpt lat="43.694729972630739" lon="4.598780041560531">
        <ele>6.39</ele>
        <time>2025-05-16T16:22:01Z</time>
      </trkpt>
      <trkpt lat="43.694616984575987" lon="4.598725978285074">
        <ele>6.39</ele>
        <time>2025-05-16T16:22:03Z</time>
      </trkpt>
      <trkpt lat="43.694569962099195" lon="4.598703011870384">
        <ele>5.91</ele>
        <time>2025-05-16T16:22:04Z</time>
      </trkpt>
      <trkpt lat="43.694524029269814" lon="4.598680967465043">
        <ele>5.91</ele>
        <time>2025-05-16T16:22:05Z</time>
      </trkpt>
      <trkpt lat="43.69445102289319" lon="4.598421966657043">
        <ele>5.91</ele>
        <time>2025-05-16T16:22:06Z</time>
      </trkpt>
      <trkpt lat="43.69445102289319" lon="4.598421966657043">
        <ele>5.91</ele>
        <time>2025-05-16T16:22:07Z</time>
      </trkpt>
      <trkpt lat="43.694399977102876" lon="4.598236978054047">
        <ele>5.42</ele>
        <time>2025-05-16T16:22:09Z</time>
      </trkpt>
      <trkpt lat="43.694339962676167" lon="4.598166989162564">
        <ele>5.42</ele>
        <time>2025-05-16T16:22:10Z</time>
      </trkpt>
      <trkpt lat="43.69425899349153" lon="4.598104041069746">
        <ele>5.42</ele>
        <time>2025-05-16T16:22:11Z</time>
      </trkpt>
      <trkpt lat="43.694182969629765" lon="4.59807101637125">
        <ele>5.42</ele>
        <time>2025-05-16T16:22:12Z</time>
      </trkpt>
      <trkpt lat="43.694079034030437" lon="4.598077973350883">
        <ele>5.42</ele>
        <time>2025-05-16T16:22:13Z</time>
      </trkpt>
      <trkpt lat="43.69397702626884" lon="4.598141005262733">
        <ele>5.42</ele>
        <time>2025-05-16T16:22:14Z</time>
      </trkpt>
      <trkpt lat="43.693920029327273" lon="4.598233960568905">
        <ele>5.42</ele>
        <time>2025-05-16T16:22:15Z</time>
      </trkpt>
      <trkpt lat="43.693866971880198" lon="4.598352983593941">
        <ele>5.42</ele>
        <time>2025-05-16T16:22:16Z</time>
      </trkpt>
      <trkpt lat="43.69385196827352" lon="4.59847703576088">
        <ele>5.42</ele>
        <time>2025-05-16T16:22:17Z</time>
      </trkpt>
      <trkpt lat="43.693874012678862" lon="4.598616007715464">
        <ele>5.42</ele>
        <time>2025-05-16T16:22:18Z</time>
      </trkpt>
      <trkpt lat="43.693893039599061" lon="4.598722960799933">
        <ele>5.42</ele>
        <time>2025-05-16T16:22:19Z</time>
      </trkpt>
      <trkpt lat="43.693985994905233" lon="4.598806025460362">
        <ele>5.42</ele>
        <time>2025-05-16T16:22:20Z</time>
      </trkpt>
      <trkpt lat="43.694094037637115" lon="4.5990389585495">
        <ele>5.91</ele>
        <time>2025-05-16T16:22:21Z</time>
      </trkpt>
      <trkpt lat="43.694076016545296" lon="4.599202992394567">
        <ele>5.91</ele>
        <time>2025-05-16T16:22:22Z</time>
      </trkpt>
      <trkpt lat="43.694054977968335" lon="4.599385969340801">
        <ele>6.39</ele>
        <time>2025-05-16T16:22:23Z</time>
      </trkpt>
      <trkpt lat="43.694033017382026" lon="4.599580010399222">
        <ele>6.39</ele>
        <time>2025-05-16T16:22:24Z</time>
      </trkpt>
      <trkpt lat="43.694009967148304" lon="4.599781008437276">
        <ele>6.87</ele>
        <time>2025-05-16T16:22:25Z</time>
      </trkpt>
      <trkpt lat="43.693815004080534" lon="4.601458981633186">
        <ele>7.83</ele>
        <time>2025-05-16T16:22:34Z</time>
      </trkpt>
      <trkpt lat="43.693295996636152" lon="4.60301399230957">
        <ele>7.83</ele>
        <time>2025-05-16T16:22:42Z</time>
      </trkpt>
      <trkpt lat="43.69309701025486" lon="4.603366032242775">
        <ele>7.83</ele>
        <time>2025-05-16T16:22:44Z</time>
      </trkpt>
      <trkpt lat="43.692972036078572" lon="4.603514978662133">
        <ele>8.310000000000001</ele>
        <time>2025-05-16T16:22:45Z</time>
      </trkpt>
      <trkpt lat="43.691965034231544" lon="4.604255016893148">
        <ele>8.789999999999999</ele>
        <time>2025-05-16T16:22:52Z</time>
      </trkpt>
      <trkpt lat="43.6909069865942" lon="4.604618959128857">
        <ele>9.27</ele>
        <time>2025-05-16T16:23:00Z</time>
      </trkpt>
      <trkpt lat="43.690814031288028" lon="4.60464402101934">
        <ele>9.27</ele>
        <time>2025-05-16T16:23:01Z</time>
      </trkpt>
      <trkpt lat="43.690727027133107" lon="4.60466799326241">
        <ele>8.789999999999999</ele>
        <time>2025-05-16T16:23:02Z</time>
      </trkpt>
      <trkpt lat="43.690610015764832" lon="4.604579983279109">
        <ele>8.789999999999999</ele>
        <time>2025-05-16T16:23:03Z</time>
      </trkpt>
      <trkpt lat="43.690524017438293" lon="4.60453798994422">
        <ele>8.789999999999999</ele>
        <time>2025-05-16T16:23:04Z</time>
      </trkpt>
      <trkpt lat="43.690436007454991" lon="4.604595992714167">
        <ele>8.789999999999999</ele>
        <time>2025-05-16T16:23:05Z</time>
      </trkpt>
      <trkpt lat="43.690396025776863" lon="4.604622982442379">
        <ele>8.789999999999999</ele>
        <time>2025-05-16T16:23:06Z</time>
      </trkpt>
      <trkpt lat="43.690266022458673" lon="4.604794979095459">
        <ele>9.27</ele>
        <time>2025-05-16T16:23:07Z</time>
      </trkpt>
      <trkpt lat="43.690154040232301" lon="4.604828003793955">
        <ele>9.27</ele>
        <time>2025-05-16T16:23:08Z</time>
      </trkpt>
      <trkpt lat="43.690030993893743" lon="4.604864967986941">
        <ele>9.27</ele>
        <time>2025-05-16T16:23:09Z</time>
      </trkpt>
      <trkpt lat="43.688684022054076" lon="4.605227988213301">
        <ele>11.67</ele>
        <time>2025-05-16T16:23:18Z</time>
      </trkpt>
      <trkpt lat="43.687325986102223" lon="4.605609029531479">
        <ele>13.119999999999999</ele>
        <time>2025-05-16T16:23:27Z</time>
      </trkpt>
      <trkpt lat="43.686053026467562" lon="4.605969032272697">
        <ele>14.08</ele>
        <time>2025-05-16T16:23:35Z</time>
      </trkpt>
      <trkpt lat="43.684330964460969" lon="4.606323000043631">
        <ele>15.039999999999999</ele>
        <time>2025-05-16T16:23:45Z</time>
      </trkpt>
      <trkpt lat="43.682589959353209" lon="4.606411010026932">
        <ele>15.52</ele>
        <time>2025-05-16T16:23:55Z</time>
      </trkpt>
      <trkpt lat="43.680264987051487" lon="4.606678979471326">
        <ele>13.119999999999999</ele>
        <time>2025-05-16T16:24:08Z</time>
      </trkpt>
      <trkpt lat="43.679452026262879" lon="4.607154987752438">
        <ele>12.15</ele>
        <time>2025-05-16T16:24:14Z</time>
      </trkpt>
      <trkpt lat="43.679305007681251" lon="4.607228999957442">
        <ele>12.15</ele>
        <time>2025-05-16T16:24:16Z</time>
      </trkpt>
      <trkpt lat="43.679215991869569" lon="4.607212990522385">
        <ele>12.15</ele>
        <time>2025-05-16T16:24:18Z</time>
      </trkpt>
      <trkpt lat="43.67915203794837" lon="4.607186000794172">
        <ele>12.15</ele>
        <time>2025-05-16T16:24:19Z</time>
      </trkpt>
      <trkpt lat="43.679104009643197" lon="4.607135960832238">
        <ele>12.630000000000001</ele>
        <time>2025-05-16T16:24:20Z</time>
      </trkpt>
      <trkpt lat="43.678964031860232" lon="4.606977039948106">
        <ele>12.630000000000001</ele>
        <time>2025-05-16T16:24:22Z</time>
      </trkpt>
      <trkpt lat="43.678891025483608" lon="4.606897998601198">
        <ele>12.630000000000001</ele>
        <time>2025-05-16T16:24:23Z</time>
      </trkpt>
      <trkpt lat="43.678791029378772" lon="4.606839995831251">
        <ele>12.630000000000001</ele>
        <time>2025-05-16T16:24:24Z</time>
      </trkpt>
      <trkpt lat="43.678693966940045" lon="4.606842007488012">
        <ele>12.15</ele>
        <time>2025-05-16T16:24:25Z</time>
      </trkpt>
      <trkpt lat="43.678608974441886" lon="4.606852987781167">
        <ele>12.15</ele>
        <time>2025-05-16T16:24:26Z</time>
      </trkpt>
      <trkpt lat="43.678519036620855" lon="4.606930017471314">
        <ele>12.15</ele>
        <time>2025-05-16T16:24:27Z</time>
      </trkpt>
      <trkpt lat="43.678457010537386" lon="4.607017021626234">
        <ele>12.15</ele>
        <time>2025-05-16T16:24:28Z</time>
      </trkpt>
      <trkpt lat="43.678398001939058" lon="4.607106959447265">
        <ele>12.15</ele>
        <time>2025-05-16T16:24:29Z</time>
      </trkpt>
      <trkpt lat="43.678330024704337" lon="4.607246015220881">
        <ele>12.15</ele>
        <time>2025-05-16T16:24:30Z</time>
      </trkpt>
      <trkpt lat="43.678322983905673" lon="4.607409965246916">
        <ele>12.15</ele>
        <time>2025-05-16T16:24:31Z</time>
      </trkpt>
      <trkpt lat="43.678336981683969" lon="4.607520019635558">
        <ele>12.15</ele>
        <time>2025-05-16T16:24:32Z</time>
      </trkpt>
      <trkpt lat="43.678379980847239" lon="4.607691010460258">
        <ele>12.15</ele>
        <time>2025-05-16T16:24:33Z</time>
      </trkpt>
      <trkpt lat="43.678379980847239" lon="4.60784699767828">
        <ele>12.630000000000001</ele>
        <time>2025-05-16T16:24:34Z</time>
      </trkpt>
      <trkpt lat="43.678363971412182" lon="4.608012959361076">
        <ele>12.630000000000001</ele>
        <time>2025-05-16T16:24:35Z</time>
      </trkpt>
      <trkpt lat="43.678343016654253" lon="4.608203982934356">
        <ele>13.119999999999999</ele>
        <time>2025-05-16T16:24:37Z</time>
      </trkpt>
      <trkpt lat="43.678202033042908" lon="4.610992977395654">
        <ele>10.23</ele>
        <time>2025-05-16T16:24:48Z</time>
      </trkpt>
      <trkpt lat="43.677941020578146" lon="4.613713994622231">
        <ele>14.08</ele>
        <time>2025-05-16T16:24:58Z</time>
      </trkpt>
      <trkpt lat="43.67728496901691" lon="4.615672007203102">
        <ele>18.879999999999999</ele>
        <time>2025-05-16T16:25:06Z</time>
      </trkpt>
      <trkpt lat="43.676190041005611" lon="4.617455005645752">
        <ele>21.77</ele>
        <time>2025-05-16T16:25:15Z</time>
      </trkpt>
      <trkpt lat="43.674524975940585" lon="4.619602030143142">
        <ele>19.84</ele>
        <time>2025-05-16T16:25:27Z</time>
      </trkpt>
      <trkpt lat="43.674032036215067" lon="4.620052976533771">
        <ele>17.920000000000002</ele>
        <time>2025-05-16T16:25:31Z</time>
      </trkpt>
      <trkpt lat="43.673935979604721" lon="4.620107039809227">
        <ele>17.440000000000001</ele>
        <time>2025-05-16T16:25:32Z</time>
      </trkpt>
      <trkpt lat="43.673839000985026" lon="4.62013503536582">
        <ele>16.960000000000001</ele>
        <time>2025-05-16T16:25:33Z</time>
      </trkpt>
      <trkpt lat="43.673748979344964" lon="4.620160013437271">
        <ele>16.48</ele>
        <time>2025-05-16T16:25:34Z</time>
      </trkpt>
      <trkpt lat="43.673659041523933" lon="4.620159007608891">
        <ele>15.52</ele>
        <time>2025-05-16T16:25:35Z</time>
      </trkpt>
      <trkpt lat="43.673584023490548" lon="4.620083989575505">
        <ele>15.039999999999999</ele>
        <time>2025-05-16T16:25:36Z</time>
      </trkpt>
      <trkpt lat="43.673514034599066" lon="4.620014000684023">
        <ele>14.56</ele>
        <time>2025-05-16T16:25:37Z</time>
      </trkpt>
      <trkpt lat="43.673457037657499" lon="4.619867987930775">
        <ele>14.08</ele>
        <time>2025-05-16T16:25:38Z</time>
      </trkpt>
      <trkpt lat="43.673451002687216" lon="4.61970797739923">
        <ele>13.6</ele>
        <time>2025-05-16T16:25:39Z</time>
      </trkpt>
      <trkpt lat="43.673489978536963" lon="4.619577974081039">
        <ele>13.119999999999999</ele>
        <time>2025-05-16T16:25:40Z</time>
      </trkpt>
      <trkpt lat="43.673572037369013" lon="4.619463980197907">
        <ele>12.630000000000001</ele>
        <time>2025-05-16T16:25:41Z</time>
      </trkpt>
      <trkpt lat="43.673662981018424" lon="4.619390973821282">
        <ele>12.15</ele>
        <time>2025-05-16T16:25:42Z</time>
      </trkpt>
      <trkpt lat="43.673758031800389" lon="4.619315033778548">
        <ele>11.67</ele>
        <time>2025-05-16T16:25:43Z</time>
      </trkpt>
      <trkpt lat="43.673857022076845" lon="4.619246972724795">
        <ele>11.67</ele>
        <time>2025-05-16T16:25:44Z</time>
      </trkpt>
      <trkpt lat="43.673960035666823" lon="4.619205985218287">
        <ele>11.67</ele>
        <time>2025-05-16T16:25:45Z</time>
      </trkpt>
      <trkpt lat="43.67457702755928" lon="4.618979003280401">
        <ele>11.19</ele>
        <time>2025-05-16T16:25:52Z</time>
      </trkpt>
      <trkpt lat="43.67466595955193" lon="4.618979003280401">
        <ele>10.23</ele>
        <time>2025-05-16T16:25:53Z</time>
      </trkpt>
      <trkpt lat="43.674758998677135" lon="4.618979003280401">
        <ele>9.27</ele>
        <time>2025-05-16T16:25:54Z</time>
      </trkpt>
      <trkpt lat="43.674851031973958" lon="4.618979003280401">
        <ele>8.789999999999999</ele>
        <time>2025-05-16T16:25:55Z</time>
      </trkpt>
      <trkpt lat="43.674955973401666" lon="4.619013033807278">
        <ele>8.310000000000001</ele>
        <time>2025-05-16T16:25:56Z</time>
      </trkpt>
      <trkpt lat="43.675034008920193" lon="4.619103977456689">
        <ele>7.83</ele>
        <time>2025-05-16T16:25:57Z</time>
      </trkpt>
      <trkpt lat="43.675074996426702" lon="4.619172038510442">
        <ele>7.35</ele>
        <time>2025-05-16T16:25:58Z</time>
      </trkpt>
      <trkpt lat="43.675146996974945" lon="4.619258036836982">
        <ele>6.87</ele>
        <time>2025-05-16T16:25:59Z</time>
      </trkpt>
      <trkpt lat="43.675159988924861" lon="4.619344035163522">
        <ele>6.87</ele>
        <time>2025-05-16T16:26:00Z</time>
      </trkpt>
      <trkpt lat="43.675123024731874" lon="4.619417963549495">
        <ele>6.39</ele>
        <time>2025-05-16T16:26:01Z</time>
      </trkpt>
      <trkpt lat="43.675081031396985" lon="4.619503039866686">
        <ele>6.39</ele>
        <time>2025-05-16T16:26:02Z</time>
      </trkpt>
      <trkpt lat="43.675044989213347" lon="4.619571017101407">
        <ele>6.39</ele>
        <time>2025-05-16T16:26:03Z</time>
      </trkpt>
      <trkpt lat="43.675001990050077" lon="4.619638994336128">
        <ele>5.91</ele>
        <time>2025-05-16T16:26:04Z</time>
      </trkpt>
      <trkpt lat="43.674954967573285" lon="4.619714012369514">
        <ele>6.39</ele>
        <time>2025-05-16T16:26:05Z</time>
      </trkpt>
      <trkpt lat="43.674901993945241" lon="4.619796993210912">
        <ele>6.39</ele>
        <time>2025-05-16T16:26:06Z</time>
      </trkpt>
      <trkpt lat="43.674846002832055" lon="4.619885003194213">
        <ele>7.35</ele>
        <time>2025-05-16T16:26:07Z</time>
      </trkpt>
      <trkpt lat="43.67479101754725" lon="4.619972007349134">
        <ele>7.83</ele>
        <time>2025-05-16T16:26:08Z</time>
      </trkpt>
      <trkpt lat="43.674741983413696" lon="4.620049959048629">
        <ele>8.310000000000001</ele>
        <time>2025-05-16T16:26:09Z</time>
      </trkpt>
      <trkpt lat="43.674645004794002" lon="4.620203012600541">
        <ele>9.75</ele>
        <time>2025-05-16T16:26:11Z</time>
      </trkpt>
      <trkpt lat="43.674593036994338" lon="4.620288005098701">
        <ele>10.710000000000001</ele>
        <time>2025-05-16T16:26:12Z</time>
      </trkpt>
      <trkpt lat="43.674524975940585" lon="4.620398981496692">
        <ele>13.119999999999999</ele>
        <time>2025-05-16T16:26:17Z</time>
      </trkpt>
      <trkpt lat="43.67444702424109" lon="4.620525967329741">
        <ele>15.039999999999999</ele>
        <time>2025-05-16T16:26:44Z</time>
      </trkpt>
      <trkpt lat="43.674412993714213" lon="4.620581958442926">
        <ele>16</ele>
        <time>2025-05-16T16:26:45Z</time>
      </trkpt>
      <trkpt lat="43.674205960705876" lon="4.620942967012525">
        <ele>19.359999999999999</ele>
        <time>2025-05-16T16:26:51Z</time>
      </trkpt>
      <trkpt lat="43.674174025654793" lon="4.62101798504591">
        <ele>19.84</ele>
        <time>2025-05-16T16:26:52Z</time>
      </trkpt>
      <trkpt lat="43.674141000956297" lon="4.621094008907676">
        <ele>20.32</ele>
        <time>2025-05-16T16:26:53Z</time>
      </trkpt>
      <trkpt lat="43.674108982086182" lon="4.6211670152843">
        <ele>20.809999999999999</ele>
        <time>2025-05-16T16:26:54Z</time>
      </trkpt>
      <trkpt lat="43.67410303093493" lon="4.621227029711008">
        <ele>21.77</ele>
        <time>2025-05-16T16:26:55Z</time>
      </trkpt>
      <trkpt lat="43.674094984307885" lon="4.621315961703658">
        <ele>22.25</ele>
        <time>2025-05-16T16:26:56Z</time>
      </trkpt>
      <trkpt lat="43.674089033156633" lon="4.621386034414172">
        <ele>22.73</ele>
        <time>2025-05-16T16:26:57Z</time>
      </trkpt>
      <trkpt lat="43.674115017056465" lon="4.621471026912332">
        <ele>22.73</ele>
        <time>2025-05-16T16:26:58Z</time>
      </trkpt>
      <trkpt lat="43.674137983471155" lon="4.621549984440208">
        <ele>23.210000000000001</ele>
        <time>2025-05-16T16:26:59Z</time>
      </trkpt>
      <trkpt lat="43.674165979027748" lon="4.621634976938367">
        <ele>23.210000000000001</ele>
        <time>2025-05-16T16:27:00Z</time>
      </trkpt>
      <trkpt lat="43.674199003726244" lon="4.621724998578429">
        <ele>23.210000000000001</ele>
        <time>2025-05-16T16:27:01Z</time>
      </trkpt>
      <trkpt lat="43.674231022596359" lon="4.62181300856173">
        <ele>23.690000000000001</ele>
        <time>2025-05-16T16:27:02Z</time>
      </trkpt>
      <trkpt lat="43.674264969304204" lon="4.621905041858554">
        <ele>23.690000000000001</ele>
        <time>2025-05-16T16:27:03Z</time>
      </trkpt>
      <trkpt lat="43.6742979940027" lon="4.621996991336346">
        <ele>23.690000000000001</ele>
        <time>2025-05-16T16:27:04Z</time>
      </trkpt>
      <trkpt lat="43.674331018701196" lon="4.622086007148027">
        <ele>23.210000000000001</ele>
        <time>2025-05-16T16:27:05Z</time>
      </trkpt>
      <trkpt lat="43.67436203174293" lon="4.622170999646187">
        <ele>23.210000000000001</ele>
        <time>2025-05-16T16:27:06Z</time>
      </trkpt>
      <trkpt lat="43.674388015642762" lon="4.622245011851192">
        <ele>22.73</ele>
        <time>2025-05-16T16:27:07Z</time>
      </trkpt>
      <trkpt lat="43.674411987885833" lon="4.622310977429152">
        <ele>22.73</ele>
        <time>2025-05-16T16:27:08Z</time>
      </trkpt>
      <trkpt lat="43.674435960128903" lon="4.622375015169382">
        <ele>22.25</ele>
        <time>2025-05-16T16:27:09Z</time>
      </trkpt>
      <trkpt lat="43.674459010362625" lon="4.62243402376771">
        <ele>21.77</ele>
        <time>2025-05-16T16:27:10Z</time>
      </trkpt>
      <trkpt lat="43.674480970948935" lon="4.622493032366037">
        <ele>21.77</ele>
        <time>2025-05-16T16:27:11Z</time>
      </trkpt>
      <trkpt lat="43.674501003697515" lon="4.622545000165701">
        <ele>21.289999999999999</ele>
        <time>2025-05-16T16:27:12Z</time>
      </trkpt>
      <trkpt lat="43.674519024789333" lon="4.622593028470874">
        <ele>20.809999999999999</ele>
        <time>2025-05-16T16:27:13Z</time>
      </trkpt>
      <trkpt lat="43.674536040052772" lon="4.622638039290905">
        <ele>20.32</ele>
        <time>2025-05-16T16:27:14Z</time>
      </trkpt>
      <trkpt lat="43.674549032002687" lon="4.622673997655511">
        <ele>20.32</ele>
        <time>2025-05-16T16:27:15Z</time>
      </trkpt>
      <trkpt lat="43.674561018124223" lon="4.622704004868865">
        <ele>19.84</ele>
        <time>2025-05-16T16:27:16Z</time>
      </trkpt>
      <trkpt lat="43.674591025337577" lon="4.622783968225122">
        <ele>16.960000000000001</ele>
        <time>2025-05-16T16:27:26Z</time>
      </trkpt>
      <trkpt lat="43.674696972593665" lon="4.623065013438463">
        <ele>15.52</ele>
        <time>2025-05-16T16:27:59Z</time>
      </trkpt>
      <trkpt lat="43.674723040312529" lon="4.623135002329946">
        <ele>15.039999999999999</ele>
        <time>2025-05-16T16:28:00Z</time>
      </trkpt>
      <trkpt lat="43.67474801838398" lon="4.623199040070176">
        <ele>15.52</ele>
        <time>2025-05-16T16:28:01Z</time>
      </trkpt>
      <trkpt lat="43.674825970083475" lon="4.623406995087862">
        <ele>15.039999999999999</ele>
        <time>2025-05-16T16:28:04Z</time>
      </trkpt>
      <trkpt lat="43.674855977296829" lon="4.623607993125916">
        <ele>15.52</ele>
        <time>2025-05-16T16:28:06Z</time>
      </trkpt>
      <trkpt lat="43.674866035580635" lon="4.623700026422739">
        <ele>15.52</ele>
        <time>2025-05-16T16:28:07Z</time>
      </trkpt>
      <trkpt lat="43.674876010045409" lon="4.623788958415389">
        <ele>15.52</ele>
        <time>2025-05-16T16:28:08Z</time>
      </trkpt>
      <trkpt lat="43.674884978681803" lon="4.62387403473258">
        <ele>16</ele>
        <time>2025-05-16T16:28:09Z</time>
      </trkpt>
      <trkpt lat="43.674893025308847" lon="4.623956009745598">
        <ele>16</ele>
        <time>2025-05-16T16:28:10Z</time>
      </trkpt>
      <trkpt lat="43.67490098811686" lon="4.624034967273474">
        <ele>16</ele>
        <time>2025-05-16T16:28:11Z</time>
      </trkpt>
      <trkpt lat="43.67492001503706" lon="4.624210987240076">
        <ele>16.48</ele>
        <time>2025-05-16T16:28:14Z</time>
      </trkpt>
      <trkpt lat="43.674924960359931" lon="4.62426396086812">
        <ele>16.48</ele>
        <time>2025-05-16T16:28:15Z</time>
      </trkpt>
      <trkpt lat="43.674927977845073" lon="4.624307965859771">
        <ele>16.48</ele>
        <time>2025-05-16T16:28:16Z</time>
      </trkpt>
      <trkpt lat="43.674932001158595" lon="4.624355994164944">
        <ele>16.48</ele>
        <time>2025-05-16T16:28:17Z</time>
      </trkpt>
      <trkpt lat="43.674935018643737" lon="4.624407961964607">
        <ele>16.960000000000001</ele>
        <time>2025-05-16T16:28:18Z</time>
      </trkpt>
      <trkpt lat="43.674938036128879" lon="4.62445599026978">
        <ele>16.960000000000001</ele>
        <time>2025-05-16T16:28:19Z</time>
      </trkpt>
      <trkpt lat="43.674939963966608" lon="4.624484991654754">
        <ele>16.960000000000001</ele>
        <time>2025-05-16T16:28:20Z</time>
      </trkpt>
      <trkpt lat="43.674939963966608" lon="4.624484991654754">
        <ele>16.960000000000001</ele>
        <time>2025-05-16T16:28:34Z</time>
      </trkpt>
      <trkpt lat="43.674945998936892" lon="4.624571995809674">
        <ele>16.48</ele>
        <time>2025-05-16T16:28:46Z</time>
      </trkpt>
      <trkpt lat="43.674947004765272" lon="4.6247139852494">
        <ele>16.960000000000001</ele>
        <time>2025-05-16T16:28:48Z</time>
      </trkpt>
      <trkpt lat="43.674952033907175" lon="4.624795038253069">
        <ele>17.440000000000001</ele>
        <time>2025-05-16T16:28:49Z</time>
      </trkpt>
      <trkpt lat="43.674957985058427" lon="4.624879024922848">
        <ele>17.440000000000001</ele>
        <time>2025-05-16T16:28:50Z</time>
      </trkpt>
      <trkpt lat="43.67496402002871" lon="4.624967034906149">
        <ele>17.440000000000001</ele>
        <time>2025-05-16T16:28:51Z</time>
      </trkpt>
      <trkpt lat="43.674969971179962" lon="4.625053033232689">
        <ele>17.440000000000001</ele>
        <time>2025-05-16T16:28:52Z</time>
      </trkpt>
      <trkpt lat="43.674978017807007" lon="4.625136014074087">
        <ele>17.440000000000001</ele>
        <time>2025-05-16T16:28:53Z</time>
      </trkpt>
      <trkpt lat="43.674984974786639" lon="4.625204997137189">
        <ele>17.440000000000001</ele>
        <time>2025-05-16T16:28:54Z</time>
      </trkpt>
      <trkpt lat="43.674988998100162" lon="4.625266017392278">
        <ele>17.440000000000001</ele>
        <time>2025-05-16T16:28:55Z</time>
      </trkpt>
      <trkpt lat="43.675010958686471" lon="4.625695003196597">
        <ele>16.960000000000001</ele>
        <time>2025-05-16T16:29:03Z</time>
      </trkpt>
      <trkpt lat="43.675015987828374" lon="4.625900024548173">
        <ele>16.48</ele>
        <time>2025-05-16T16:29:07Z</time>
      </trkpt>
      <trkpt lat="43.675017999485135" lon="4.625941012054682">
        <ele>16.48</ele>
        <time>2025-05-16T16:29:08Z</time>
      </trkpt>
      <trkpt lat="43.675019005313516" lon="4.625974036753178">
        <ele>16</ele>
        <time>2025-05-16T16:29:09Z</time>
      </trkpt>
      <trkpt lat="43.675019005313516" lon="4.625974036753178">
        <ele>16</ele>
        <time>2025-05-16T16:29:21Z</time>
      </trkpt>
      <trkpt lat="43.675024034455419" lon="4.626075960695744">
        <ele>16</ele>
        <time>2025-05-16T16:29:25Z</time>
      </trkpt>
      <trkpt lat="43.675025962293148" lon="4.626104962080717">
        <ele>15.52</ele>
        <time>2025-05-16T16:29:26Z</time>
      </trkpt>
      <trkpt lat="43.675052030012012" lon="4.626290034502745">
        <ele>15.52</ele>
        <time>2025-05-16T16:29:29Z</time>
      </trkpt>
      <trkpt lat="43.67507298476994" lon="4.626353988423944">
        <ele>15.52</ele>
        <time>2025-05-16T16:29:30Z</time>
      </trkpt>
      <trkpt lat="43.675125958397985" lon="4.626479968428612">
        <ele>15.52</ele>
        <time>2025-05-16T16:29:32Z</time>
      </trkpt>
      <trkpt lat="43.675152026116848" lon="4.626605026423931">
        <ele>15.039999999999999</ele>
        <time>2025-05-16T16:29:34Z</time>
      </trkpt>
      <trkpt lat="43.675184966996312" lon="4.626849023625255">
        <ele>14.56</ele>
        <time>2025-05-16T16:29:37Z</time>
      </trkpt>
      <trkpt lat="43.675196031108499" lon="4.626933010295034">
        <ele>14.56</ele>
        <time>2025-05-16T16:29:38Z</time>
      </trkpt>
      <trkpt lat="43.675206005573273" lon="4.62701003998518">
        <ele>14.56</ele>
        <time>2025-05-16T16:29:39Z</time>
      </trkpt>
      <trkpt lat="43.675216985866427" lon="4.627095032483339">
        <ele>14.56</ele>
        <time>2025-05-16T16:29:40Z</time>
      </trkpt>
      <trkpt lat="43.675226960331202" lon="4.62718203663826">
        <ele>14.08</ele>
        <time>2025-05-16T16:29:41Z</time>
      </trkpt>
      <trkpt lat="43.675231989473104" lon="4.6272680349648">
        <ele>14.08</ele>
        <time>2025-05-16T16:29:42Z</time>
      </trkpt>
      <trkpt lat="43.675237018615007" lon="4.627352021634579">
        <ele>14.08</ele>
        <time>2025-05-16T16:29:43Z</time>
      </trkpt>
      <trkpt lat="43.675242969766259" lon="4.62744003161788">
        <ele>13.6</ele>
        <time>2025-05-16T16:29:44Z</time>
      </trkpt>
      <trkpt lat="43.675246993079782" lon="4.627517983317375">
        <ele>13.119999999999999</ele>
        <time>2025-05-16T16:29:45Z</time>
      </trkpt>
      <trkpt lat="43.675254033878446" lon="4.627620996907353">
        <ele>12.630000000000001</ele>
        <time>2025-05-16T16:29:52Z</time>
      </trkpt>
      <trkpt lat="43.675271971151233" lon="4.627902964130044">
        <ele>12.630000000000001</ele>
        <time>2025-05-16T16:30:07Z</time>
      </trkpt>
      <trkpt lat="43.675316981971264" lon="4.628588017076254">
        <ele>13.119999999999999</ele>
        <time>2025-05-16T16:30:16Z</time>
      </trkpt>
      <trkpt lat="43.675332991406322" lon="4.62890200316906">
        <ele>14.08</ele>
        <time>2025-05-16T16:30:19Z</time>
      </trkpt>
      <trkpt lat="43.675332991406322" lon="4.629014991223812">
        <ele>14.56</ele>
        <time>2025-05-16T16:30:20Z</time>
      </trkpt>
      <trkpt lat="43.675317987799644" lon="4.629233004525304">
        <ele>15.52</ele>
        <time>2025-05-16T16:30:22Z</time>
      </trkpt>
      <trkpt lat="43.675311030820012" lon="4.629336018115282">
        <ele>16</ele>
        <time>2025-05-16T16:30:23Z</time>
      </trkpt>
      <trkpt lat="43.675268031656742" lon="4.629960972815752">
        <ele>17.440000000000001</ele>
        <time>2025-05-16T16:30:30Z</time>
      </trkpt>
      <trkpt lat="43.675261996686459" lon="4.630052000284195">
        <ele>17.440000000000001</ele>
        <time>2025-05-16T16:30:31Z</time>
      </trkpt>
      <trkpt lat="43.675195025280118" lon="4.630797989666462">
        <ele>17.440000000000001</ele>
        <time>2025-05-16T16:30:40Z</time>
      </trkpt>
      <trkpt lat="43.675110032781959" lon="4.63182301260531">
        <ele>16.48</ele>
        <time>2025-05-16T16:30:52Z</time>
      </trkpt>
      <trkpt lat="43.675068039447069" lon="4.632262978702784">
        <ele>19.359999999999999</ele>
        <time>2025-05-16T16:31:02Z</time>
      </trkpt>
      <trkpt lat="43.675063010305166" lon="4.632331961765885">
        <ele>21.289999999999999</ele>
        <time>2025-05-16T16:31:04Z</time>
      </trkpt>
      <trkpt lat="43.675059992820024" lon="4.632380995899439">
        <ele>21.289999999999999</ele>
        <time>2025-05-16T16:31:05Z</time>
      </trkpt>
      <trkpt lat="43.675055969506502" lon="4.632437992841005">
        <ele>21.77</ele>
        <time>2025-05-16T16:31:06Z</time>
      </trkpt>
      <trkpt lat="43.675054041668773" lon="4.632475040853024">
        <ele>21.77</ele>
        <time>2025-05-16T16:31:07Z</time>
      </trkpt>
      <trkpt lat="43.675090000033379" lon="4.632499013096094">
        <ele>21.77</ele>
        <time>2025-05-16T16:31:08Z</time>
      </trkpt>
      <trkpt lat="43.675138028338552" lon="4.63253203779459">
        <ele>21.77</ele>
        <time>2025-05-16T16:31:09Z</time>
      </trkpt>
      <trkpt lat="43.675182033330202" lon="4.632561039179564">
        <ele>21.289999999999999</ele>
        <time>2025-05-16T16:31:10Z</time>
      </trkpt>
      <trkpt lat="43.675195025280118" lon="4.632500018924475">
        <ele>21.289999999999999</ele>
        <time>2025-05-16T16:31:11Z</time>
      </trkpt>
      <trkpt lat="43.675207011401653" lon="4.632441010326147">
        <ele>21.289999999999999</ele>
        <time>2025-05-16T16:31:12Z</time>
      </trkpt>
      <trkpt lat="43.67524397559464" lon="4.632273958995938">
        <ele>20.809999999999999</ele>
        <time>2025-05-16T16:31:16Z</time>
      </trkpt>
      <trkpt lat="43.675335003063083" lon="4.63191001676023">
        <ele>19.84</ele>
        <time>2025-05-16T16:31:21Z</time>
      </trkpt>
      <trkpt lat="43.675356963649392" lon="4.631842961534858">
        <ele>19.84</ele>
        <time>2025-05-16T16:31:22Z</time>
      </trkpt>
      <trkpt lat="43.675381019711494" lon="4.631770960986614">
        <ele>19.359999999999999</ele>
        <time>2025-05-16T16:31:23Z</time>
      </trkpt>
      <trkpt lat="43.675405997782946" lon="4.631698038429022">
        <ele>19.359999999999999</ele>
        <time>2025-05-16T16:31:24Z</time>
      </trkpt>
      <trkpt lat="43.675430975854397" lon="4.631624026224017">
        <ele>18.879999999999999</ele>
        <time>2025-05-16T16:31:25Z</time>
      </trkpt>
      <trkpt lat="43.675456959754229" lon="4.631543979048729">
        <ele>18.879999999999999</ele>
        <time>2025-05-16T16:31:26Z</time>
      </trkpt>
      <trkpt lat="43.675514962524176" lon="4.631369970738888">
        <ele>18.399999999999999</ele>
        <time>2025-05-16T16:31:28Z</time>
      </trkpt>
      <trkpt lat="43.675543963909149" lon="4.631281960755587">
        <ele>17.920000000000002</ele>
        <time>2025-05-16T16:31:29Z</time>
      </trkpt>
      <trkpt lat="43.675572965294123" lon="4.631195962429047">
        <ele>17.920000000000002</ele>
        <time>2025-05-16T16:31:30Z</time>
      </trkpt>
      <trkpt lat="43.675600960850716" lon="4.631111975759268">
        <ele>17.440000000000001</ele>
        <time>2025-05-16T16:31:31Z</time>
      </trkpt>
      <trkpt lat="43.675632979720831" lon="4.631032012403011">
        <ele>16.960000000000001</ele>
        <time>2025-05-16T16:31:32Z</time>
      </trkpt>
      <trkpt lat="43.675663992762566" lon="4.630961017683148">
        <ele>16.960000000000001</ele>
        <time>2025-05-16T16:31:33Z</time>
      </trkpt>
      <trkpt lat="43.675692994147539" lon="4.630895974114537">
        <ele>16.960000000000001</ele>
        <time>2025-05-16T16:31:34Z</time>
      </trkpt>
      <trkpt lat="43.675719983875751" lon="4.630835959687829">
        <ele>16.48</ele>
        <time>2025-05-16T16:31:35Z</time>
      </trkpt>
      <trkpt lat="43.67586700245738" lon="4.630502024665475">
        <ele>17.920000000000002</ele>
        <time>2025-05-16T16:31:43Z</time>
      </trkpt>
      <trkpt lat="43.675914024934173" lon="4.630394987761974">
        <ele>18.879999999999999</ele>
        <time>2025-05-16T16:31:46Z</time>
      </trkpt>
      <trkpt lat="43.675925005227327" lon="4.630369003862143">
        <ele>18.879999999999999</ele>
        <time>2025-05-16T16:31:47Z</time>
      </trkpt>
      <trkpt lat="43.675965992733836" lon="4.630350982770324">
        <ele>19.359999999999999</ele>
        <time>2025-05-16T16:31:48Z</time>
      </trkpt>
      <trkpt lat="43.675998011603951" lon="4.630350982770324">
        <ele>19.359999999999999</ele>
        <time>2025-05-16T16:31:49Z</time>
      </trkpt>
      <trkpt lat="43.676026007160544" lon="4.63036397472024">
        <ele>19.359999999999999</ele>
        <time>2025-05-16T16:31:50Z</time>
      </trkpt>
      <trkpt lat="43.676057020202279" lon="4.630378978326917">
        <ele>19.84</ele>
        <time>2025-05-16T16:31:51Z</time>
      </trkpt>
      <trkpt lat="43.676090966910124" lon="4.630394987761974">
        <ele>20.32</ele>
        <time>2025-05-16T16:31:52Z</time>
      </trkpt>
      <trkpt lat="43.676122985780239" lon="4.630409991368651">
        <ele>20.32</ele>
        <time>2025-05-16T16:31:53Z</time>
      </trkpt>
      <trkpt lat="43.676161961629987" lon="4.63042801246047">
        <ele>20.809999999999999</ele>
        <time>2025-05-16T16:31:54Z</time>
      </trkpt>
      <trkpt lat="43.676192974671721" lon="4.630442010238767">
        <ele>21.289999999999999</ele>
        <time>2025-05-16T16:31:55Z</time>
      </trkpt>
      <trkpt lat="43.676220970228314" lon="4.630455002188683">
        <ele>21.289999999999999</ele>
        <time>2025-05-16T16:31:56Z</time>
      </trkpt>
      <trkpt lat="43.676258018240333" lon="4.630472017452121">
        <ele>21.289999999999999</ele>
        <time>2025-05-16T16:31:57Z</time>
      </trkpt>
      <trkpt lat="43.676288025453687" lon="4.630487021058798">
        <ele>21.289999999999999</ele>
        <time>2025-05-16T16:31:58Z</time>
      </trkpt>
      <trkpt lat="43.676315015181899" lon="4.630499007180333">
        <ele>21.289999999999999</ele>
        <time>2025-05-16T16:31:59Z</time>
      </trkpt>
      <trkpt lat="43.676344016566873" lon="4.630501018837094">
        <ele>21.289999999999999</ele>
        <time>2025-05-16T16:32:01Z</time>
      </trkpt>
      <trkpt lat="43.676370000466704" lon="4.630501018837094">
        <ele>21.289999999999999</ele>
        <time>2025-05-16T16:32:02Z</time>
      </trkpt>
      <trkpt lat="43.676451975479722" lon="4.630501018837094">
        <ele>21.77</ele>
        <time>2025-05-16T16:32:05Z</time>
      </trkpt>
      <trkpt lat="43.676509978249669" lon="4.630501018837094">
        <ele>21.77</ele>
        <time>2025-05-16T16:32:08Z</time>
      </trkpt>
      <trkpt lat="43.67664098739624" lon="4.630501018837094">
        <ele>20.809999999999999</ele>
        <time>2025-05-16T16:32:11Z</time>
      </trkpt>
      <trkpt lat="43.676718017086387" lon="4.630437986925244">
        <ele>20.809999999999999</ele>
        <time>2025-05-16T16:32:13Z</time>
      </trkpt>
      <trkpt lat="43.676792029291391" lon="4.630415020510554">
        <ele>20.809999999999999</ele>
        <time>2025-05-16T16:32:14Z</time>
      </trkpt>
      <trkpt lat="43.676809966564178" lon="4.630417032167316">
        <ele>20.809999999999999</ele>
        <time>2025-05-16T16:32:15Z</time>
      </trkpt>
      <trkpt lat="43.67707097902894" lon="4.630436981096864">
        <ele>21.77</ele>
        <time>2025-05-16T16:32:23Z</time>
      </trkpt>
      <trkpt lat="43.67707097902894" lon="4.630436981096864">
        <ele>21.77</ele>
        <time>2025-05-16T16:32:24Z</time>
      </trkpt>
      <trkpt lat="43.67711397819221" lon="4.630462964996696">
        <ele>22.25</ele>
        <time>2025-05-16T16:32:25Z</time>
      </trkpt>
      <trkpt lat="43.67711397819221" lon="4.630462964996696">
        <ele>21.77</ele>
        <time>2025-05-16T16:32:30Z</time>
      </trkpt>
      <trkpt lat="43.67707097902894" lon="4.630436981096864">
        <ele>21.289999999999999</ele>
        <time>2025-05-16T16:32:41Z</time>
      </trkpt>
      <trkpt lat="43.67707097902894" lon="4.630436981096864">
        <ele>21.77</ele>
        <time>2025-05-16T16:32:42Z</time>
      </trkpt>
      <trkpt lat="43.677038038149476" lon="4.630434969440103">
        <ele>21.77</ele>
        <time>2025-05-16T16:32:43Z</time>
      </trkpt>
      <trkpt lat="43.676991015672684" lon="4.630431029945612">
        <ele>21.289999999999999</ele>
        <time>2025-05-16T16:32:44Z</time>
      </trkpt>
      <trkpt lat="43.676937958225608" lon="4.63042700663209">
        <ele>21.289999999999999</ele>
        <time>2025-05-16T16:32:45Z</time>
      </trkpt>
      <trkpt lat="43.676885990425944" lon="4.630422983318567">
        <ele>21.289999999999999</ele>
        <time>2025-05-16T16:32:46Z</time>
      </trkpt>
      <trkpt lat="43.676847014576197" lon="4.630419965833426">
        <ele>20.809999999999999</ele>
        <time>2025-05-16T16:32:47Z</time>
      </trkpt>
      <trkpt lat="43.676792029291391" lon="4.630415020510554">
        <ele>20.809999999999999</ele>
        <time>2025-05-16T16:32:48Z</time>
      </trkpt>
      <trkpt lat="43.67678901180625" lon="4.630412003025413">
        <ele>20.809999999999999</ele>
        <time>2025-05-16T16:32:49Z</time>
      </trkpt>
      <trkpt lat="43.676798986271024" lon="4.630333967506886">
        <ele>20.32</ele>
        <time>2025-05-16T16:32:50Z</time>
      </trkpt>
      <trkpt lat="43.676818013191223" lon="4.630291974171996">
        <ele>19.84</ele>
        <time>2025-05-16T16:32:51Z</time>
      </trkpt>
      <trkpt lat="43.676843997091055" lon="4.630239000543952">
        <ele>19.84</ele>
        <time>2025-05-16T16:32:52Z</time>
      </trkpt>
      <trkpt lat="43.676870986819267" lon="4.630180997774005">
        <ele>19.359999999999999</ele>
        <time>2025-05-16T16:32:53Z</time>
      </trkpt>
      <trkpt lat="43.676899988204241" lon="4.630118971690536">
        <ele>19.359999999999999</ele>
        <time>2025-05-16T16:32:54Z</time>
      </trkpt>
      <trkpt lat="43.676929995417595" lon="4.630056023597717">
        <ele>18.879999999999999</ele>
        <time>2025-05-16T16:32:55Z</time>
      </trkpt>
      <trkpt lat="43.676966959610581" lon="4.629919985309243">
        <ele>17.920000000000002</ele>
        <time>2025-05-16T16:32:57Z</time>
      </trkpt>
      <trkpt lat="43.676971988752484" lon="4.629855025559664">
        <ele>17.440000000000001</ele>
        <time>2025-05-16T16:32:58Z</time>
      </trkpt>
      <trkpt lat="43.6769849807024" lon="4.629427967593074">
        <ele>17.440000000000001</ele>
        <time>2025-05-16T16:33:05Z</time>
      </trkpt>
      <trkpt lat="43.677030997350812" lon="4.629432996734977">
        <ele>17.440000000000001</ele>
        <time>2025-05-16T16:33:11Z</time>
      </trkpt>
      <trkpt lat="43.67704801261425" lon="4.629435008391738">
        <ele>17.440000000000001</ele>
        <time>2025-05-16T16:33:12Z</time>
      </trkpt>
      <trkpt lat="43.67719897069037" lon="4.629450011998415">
        <ele>17.440000000000001</ele>
        <time>2025-05-16T16:33:13Z</time>
      </trkpt>
      <trkpt lat="43.677393011748791" lon="4.629450011998415">
        <ele>16.48</ele>
        <time>2025-05-16T16:33:23Z</time>
      </trkpt>
      <trkpt lat="43.677393011748791" lon="4.629450011998415">
        <ele>18.399999999999999</ele>
        <time>2025-05-16T16:33:42Z</time>
      </trkpt>
      <trkpt lat="43.677393011748791" lon="4.6289880014956">
        <ele>18.879999999999999</ele>
        <time>2025-05-16T16:33:51Z</time>
      </trkpt>
      <trkpt lat="43.677393011748791" lon="4.6289880014956">
        <ele>18.879999999999999</ele>
        <time>2025-05-16T16:34:04Z</time>
      </trkpt>
      <trkpt lat="43.677400974556804" lon="4.628845006227493">
        <ele>17.920000000000002</ele>
        <time>2025-05-16T16:34:23Z</time>
      </trkpt>
      <trkpt lat="43.677427964285016" lon="4.628831008449197">
        <ele>17.920000000000002</ele>
        <time>2025-05-16T16:34:24Z</time>
      </trkpt>
      <trkpt lat="43.677541958168149" lon="4.628853974863887">
        <ele>17.920000000000002</ele>
        <time>2025-05-16T16:34:26Z</time>
      </trkpt>
      <trkpt lat="43.67758696898818" lon="4.628865960985422">
        <ele>17.920000000000002</ele>
        <time>2025-05-16T16:34:27Z</time>
      </trkpt>
      <trkpt lat="43.677743962034583" lon="4.628905020654202">
        <ele>18.399999999999999</ele>
        <time>2025-05-16T16:34:32Z</time>
      </trkpt>
      <trkpt lat="43.67775603197515" lon="4.628908038139343">
        <ele>18.879999999999999</ele>
        <time>2025-05-16T16:34:33Z</time>
      </trkpt>
      <trkpt lat="43.677769023925066" lon="4.628910971805453">
        <ele>18.879999999999999</ele>
        <time>2025-05-16T16:34:34Z</time>
      </trkpt>
      <trkpt lat="43.67777899838984" lon="4.628976015374064">
        <ele>19.359999999999999</ele>
        <time>2025-05-16T16:34:35Z</time>
      </trkpt>
      <trkpt lat="43.67777899838984" lon="4.62905497290194">
        <ele>19.84</ele>
        <time>2025-05-16T16:34:36Z</time>
      </trkpt>
      <trkpt lat="43.67777899838984" lon="4.629388991743326">
        <ele>21.289999999999999</ele>
        <time>2025-05-16T16:34:43Z</time>
      </trkpt>
      <trkpt lat="43.67771596647799" lon="4.629431990906596">
        <ele>21.289999999999999</ele>
        <time>2025-05-16T16:34:44Z</time>
      </trkpt>
      <trkpt lat="43.67766902782023" lon="4.629434002563357">
        <ele>21.289999999999999</ele>
        <time>2025-05-16T16:34:45Z</time>
      </trkpt>
      <trkpt lat="43.677614964544773" lon="4.629437020048499">
        <ele>21.77</ele>
        <time>2025-05-16T16:34:46Z</time>
      </trkpt>
      <trkpt lat="43.677561990916729" lon="4.629440037533641">
        <ele>22.25</ele>
        <time>2025-05-16T16:34:47Z</time>
      </trkpt>
      <trkpt lat="43.677516980096698" lon="4.629442971199751">
        <ele>22.25</ele>
        <time>2025-05-16T16:34:48Z</time>
      </trkpt>
      <trkpt lat="43.67747699841857" lon="4.629444982856512">
        <ele>22.73</ele>
        <time>2025-05-16T16:34:49Z</time>
      </trkpt>
      <trkpt lat="43.677446991205215" lon="4.629446994513273">
        <ele>22.73</ele>
        <time>2025-05-16T16:34:50Z</time>
      </trkpt>
      <trkpt lat="43.677393011748791" lon="4.629450011998415">
        <ele>23.210000000000001</ele>
        <time>2025-05-16T16:34:51Z</time>
      </trkpt>
      <trkpt lat="43.677393011748791" lon="4.629450011998415">
        <ele>23.210000000000001</ele>
        <time>2025-05-16T16:34:52Z</time>
      </trkpt>
      <trkpt lat="43.677415978163481" lon="4.629555959254503">
        <ele>23.210000000000001</ele>
        <time>2025-05-16T16:34:53Z</time>
      </trkpt>
      <trkpt lat="43.677428970113397" lon="4.629614967852831">
        <ele>23.690000000000001</ele>
        <time>2025-05-16T16:34:54Z</time>
      </trkpt>
      <trkpt lat="43.6774339992553" lon="4.629694009199739">
        <ele>23.690000000000001</ele>
        <time>2025-05-16T16:34:55Z</time>
      </trkpt>
      <trkpt lat="43.677430981770158" lon="4.629771960899234">
        <ele>23.690000000000001</ele>
        <time>2025-05-16T16:34:56Z</time>
      </trkpt>
      <trkpt lat="43.677427964285016" lon="4.629857037216425">
        <ele>24.170000000000002</ele>
        <time>2025-05-16T16:34:57Z</time>
      </trkpt>
      <trkpt lat="43.677424024790525" lon="4.630001038312912">
        <ele>24.170000000000002</ele>
        <time>2025-05-16T16:34:59Z</time>
      </trkpt>
      <trkpt lat="43.677421007305384" lon="4.630068009719253">
        <ele>24.649999999999999</ele>
        <time>2025-05-16T16:35:00Z</time>
      </trkpt>
      <trkpt lat="43.677418995648623" lon="4.630131963640451">
        <ele>24.649999999999999</ele>
        <time>2025-05-16T16:35:01Z</time>
      </trkpt>
      <trkpt lat="43.677416983991861" lon="4.630180997774005">
        <ele>24.649999999999999</ele>
        <time>2025-05-16T16:35:02Z</time>
      </trkpt>
      <trkpt lat="43.677382031455636" lon="4.630316030234098">
        <ele>25.129999999999999</ele>
        <time>2025-05-16T16:35:03Z</time>
      </trkpt>
      <trkpt lat="43.677320005372167" lon="4.630372021347284">
        <ele>25.609999999999999</ele>
        <time>2025-05-16T16:35:05Z</time>
      </trkpt>
      <trkpt lat="43.677287986502051" lon="4.630401022732258">
        <ele>26.09</ele>
        <time>2025-05-16T16:35:06Z</time>
      </trkpt>
      <trkpt lat="43.677258985117078" lon="4.63042801246047">
        <ele>26.09</ele>
        <time>2025-05-16T16:35:07Z</time>
      </trkpt>
      <trkpt lat="43.677229983732104" lon="4.630453996360302">
        <ele>26.09</ele>
        <time>2025-05-16T16:35:08Z</time>
      </trkpt>
      <trkpt lat="43.677200982347131" lon="4.630479980260134">
        <ele>26.57</ele>
        <time>2025-05-16T16:35:09Z</time>
      </trkpt>
      <trkpt lat="43.677178015932441" lon="4.630501018837094">
        <ele>26.57</ele>
        <time>2025-05-16T16:35:10Z</time>
      </trkpt>
      <trkpt lat="43.677178015932441" lon="4.630501018837094">
        <ele>27.050000000000001</ele>
        <time>2025-05-16T16:35:11Z</time>
      </trkpt>
      <trkpt lat="43.677159994840622" lon="4.630559021607041">
        <ele>27.050000000000001</ele>
        <time>2025-05-16T16:35:12Z</time>
      </trkpt>
      <trkpt lat="43.677147002890706" lon="4.630602020770311">
        <ele>27.530000000000001</ele>
        <time>2025-05-16T16:35:13Z</time>
      </trkpt>
      <trkpt lat="43.67713300511241" lon="4.630648959428072">
        <ele>27.530000000000001</ele>
        <time>2025-05-16T16:35:14Z</time>
      </trkpt>
      <trkpt lat="43.677116995677352" lon="4.630700005218387">
        <ele>27.530000000000001</ele>
        <time>2025-05-16T16:35:15Z</time>
      </trkpt>
      <trkpt lat="43.677101992070675" lon="4.63074903935194">
        <ele>28.02</ele>
        <time>2025-05-16T16:35:16Z</time>
      </trkpt>
      <trkpt lat="43.67709101177752" lon="4.63079203851521">
        <ele>28.02</ele>
        <time>2025-05-16T16:35:17Z</time>
      </trkpt>
      <trkpt lat="43.677087994292378" lon="4.630846017971635">
        <ele>27.530000000000001</ele>
        <time>2025-05-16T16:35:18Z</time>
      </trkpt>
      <trkpt lat="43.677083970978856" lon="4.630895974114537">
        <ele>27.530000000000001</ele>
        <time>2025-05-16T16:35:19Z</time>
      </trkpt>
      <trkpt lat="43.677081959322095" lon="4.630937967449427">
        <ele>27.530000000000001</ele>
        <time>2025-05-16T16:35:20Z</time>
      </trkpt>
      <trkpt lat="43.677080031484365" lon="4.630969986319542">
        <ele>27.050000000000001</ele>
        <time>2025-05-16T16:35:21Z</time>
      </trkpt>
      <trkpt lat="43.67707097902894" lon="4.631102001294494">
        <ele>26.57</ele>
        <time>2025-05-16T16:35:22Z</time>
      </trkpt>
      <trkpt lat="43.677075002342463" lon="4.631040981039405">
        <ele>26.09</ele>
        <time>2025-05-16T16:35:23Z</time>
      </trkpt>
      <trkpt lat="43.677072990685701" lon="4.631074005737901">
        <ele>26.09</ele>
        <time>2025-05-16T16:35:24Z</time>
      </trkpt>
      <trkpt lat="43.67707097902894" lon="4.631102001294494">
        <ele>25.609999999999999</ele>
        <time>2025-05-16T16:35:25Z</time>
      </trkpt>
      <trkpt lat="43.677010964602232" lon="4.631150029599667">
        <ele>25.129999999999999</ele>
        <time>2025-05-16T16:35:26Z</time>
      </trkpt>
      <trkpt lat="43.676963020116091" lon="4.631187999621034">
        <ele>24.649999999999999</ele>
        <time>2025-05-16T16:35:27Z</time>
      </trkpt>
      <trkpt lat="43.676952039822936" lon="4.631209038197994">
        <ele>23.690000000000001</ele>
        <time>2025-05-16T16:35:28Z</time>
      </trkpt>
      <trkpt lat="43.676871992647648" lon="4.631355972960591">
        <ele>21.289999999999999</ele>
        <time>2025-05-16T16:35:32Z</time>
      </trkpt>
      <trkpt lat="43.676878027617931" lon="4.631338035687804">
        <ele>20.32</ele>
        <time>2025-05-16T16:35:33Z</time>
      </trkpt>
      <trkpt lat="43.676852965727448" lon="4.63141699321568">
        <ele>19.84</ele>
        <time>2025-05-16T16:35:34Z</time>
      </trkpt>
      <trkpt lat="43.676840979605913" lon="4.631454963237047">
        <ele>18.879999999999999</ele>
        <time>2025-05-16T16:35:35Z</time>
      </trkpt>
      <trkpt lat="43.676827987655997" lon="4.631496034562588">
        <ele>17.920000000000002</ele>
        <time>2025-05-16T16:35:36Z</time>
      </trkpt>
      <trkpt lat="43.676817007362843" lon="4.631532998755574">
        <ele>17.440000000000001</ele>
        <time>2025-05-16T16:35:37Z</time>
      </trkpt>
      <trkpt lat="43.676806027069688" lon="4.63156602345407">
        <ele>16.960000000000001</ele>
        <time>2025-05-16T16:35:38Z</time>
      </trkpt>
      <trkpt lat="43.676798986271024" lon="4.63158798404038">
        <ele>16</ele>
        <time>2025-05-16T16:35:39Z</time>
      </trkpt>
      <trkpt lat="43.676792029291391" lon="4.631612962111831">
        <ele>13.119999999999999</ele>
        <time>2025-05-16T16:35:51Z</time>
      </trkpt>
      <trkpt lat="43.676795968785882" lon="4.631599970161915">
        <ele>12.630000000000001</ele>
        <time>2025-05-16T16:35:52Z</time>
      </trkpt>
      <trkpt lat="43.676894037052989" lon="4.631681023165584">
        <ele>12.15</ele>
        <time>2025-05-16T16:35:53Z</time>
      </trkpt>
      <trkpt lat="43.676934018731117" lon="4.631681023165584">
        <ele>11.67</ele>
        <time>2025-05-16T16:35:54Z</time>
      </trkpt>
      <trkpt lat="43.677001995965838" lon="4.631650010123849">
        <ele>11.19</ele>
        <time>2025-05-16T16:35:55Z</time>
      </trkpt>
      <trkpt lat="43.677054969593883" lon="4.63160801678896">
        <ele>8.789999999999999</ele>
        <time>2025-05-16T16:36:03Z</time>
      </trkpt>
      <trkpt lat="43.677054969593883" lon="4.63160801678896">
        <ele>9.27</ele>
        <time>2025-05-16T16:36:19Z</time>
      </trkpt>
      <trkpt lat="43.677054969593883" lon="4.63160801678896">
        <ele>9.75</ele>
        <time>2025-05-16T16:37:05Z</time>
      </trkpt>
      <trkpt lat="43.677054969593883" lon="4.63160801678896">
        <ele>10.23</ele>
        <time>2025-05-16T16:37:50Z</time>
      </trkpt>
      <trkpt lat="43.677054969593883" lon="4.63160801678896">
        <ele>11.67</ele>
        <time>2025-05-16T16:38:47Z</time>
      </trkpt>
      <trkpt lat="43.677054969593883" lon="4.63160801678896">
        <ele>12.15</ele>
        <time>2025-05-16T16:39:26Z</time>
      </trkpt>
    </trkseg>
  </trk>

</gpx>